<?xml version="1.0" encoding="UTF-8" standalone="no" ?>
<gpx xmlns="http://www.topografix.com/GPX/1/1" xmlns:xsi="http://www.w3.org/2001/XMLSchema-instance" xsi:schemaLocation="http://www.topografix.com/GPX/1/1 http://www.topografix.com/GPX/1/1/gpx.xsd" version="1.1" creator="VisuGPX - https://www.visugpx.com">
  <metadata>
    <name>VTT  Trail tunnel pas de la fosse</name>
    <desc><![CDATA[la partie inferieur est top pour le vtt, le haut beaucoup moins]]></desc>
  </metadata>
  <wpt lat="45.51299" lon="5.92589">
    <ele>836.3</ele>
    <name><![CDATA[Start]]></name>
  </wpt>
  <wpt lat="45.53527" lon="5.93984">
    <ele>523.5</ele>
    <name><![CDATA[1]]></name>
  </wpt>
  <wpt lat="45.51229" lon="5.92621">
    <ele>836.9</ele>
    <name><![CDATA[2]]></name>
  </wpt>
  <wpt lat="45.51176" lon="5.92628">
    <ele>841.3</ele>
    <name><![CDATA[3]]></name>
  </wpt>
  <wpt lat="45.51177" lon="5.92628">
    <ele>841.1</ele>
    <name><![CDATA[Stop]]></name>
  </wpt>
  <trk>
    <name><![CDATA[VTT  Trail tunnel pas de la fosse_1]]></name>
    <trkseg>
      <trkpt lat="45.51299" lon="5.92589">
        <ele>836.3</ele>
        <time>2014-04-04T10:23:16Z</time>
      </trkpt>
      <trkpt lat="45.51303" lon="5.92587">
        <ele>837</ele>
        <time>2014-04-04T10:23:18Z</time>
      </trkpt>
      <trkpt lat="45.51311" lon="5.92585">
        <ele>838.6</ele>
        <time>2014-04-04T10:23:20Z</time>
      </trkpt>
      <trkpt lat="45.51316" lon="5.92586">
        <ele>839.4</ele>
        <time>2014-04-04T10:23:22Z</time>
      </trkpt>
      <trkpt lat="45.51318" lon="5.92586">
        <ele>839.7</ele>
        <time>2014-04-04T10:23:24Z</time>
      </trkpt>
      <trkpt lat="45.51323" lon="5.92588">
        <ele>840.1</ele>
        <time>2014-04-04T10:23:26Z</time>
      </trkpt>
      <trkpt lat="45.51327" lon="5.92592">
        <ele>840.2</ele>
        <time>2014-04-04T10:23:28Z</time>
      </trkpt>
      <trkpt lat="45.5133" lon="5.92595">
        <ele>840.3</ele>
        <time>2014-04-04T10:23:30Z</time>
      </trkpt>
      <trkpt lat="45.51331" lon="5.92596">
        <ele>840.3</ele>
        <time>2014-04-04T10:23:32Z</time>
      </trkpt>
      <trkpt lat="45.51336" lon="5.926">
        <ele>840.7</ele>
        <time>2014-04-04T10:23:34Z</time>
      </trkpt>
      <trkpt lat="45.51339" lon="5.92602">
        <ele>841.2</ele>
        <time>2014-04-04T10:23:36Z</time>
      </trkpt>
      <trkpt lat="45.51342" lon="5.92604">
        <ele>841.5</ele>
        <time>2014-04-04T10:23:38Z</time>
      </trkpt>
      <trkpt lat="45.51343" lon="5.92605">
        <ele>841.6</ele>
        <time>2014-04-04T10:23:40Z</time>
      </trkpt>
      <trkpt lat="45.51346" lon="5.92608">
        <ele>841.8</ele>
        <time>2014-04-04T10:23:42Z</time>
      </trkpt>
      <trkpt lat="45.5135" lon="5.92611">
        <ele>842.1</ele>
        <time>2014-04-04T10:23:44Z</time>
      </trkpt>
      <trkpt lat="45.51351" lon="5.92612">
        <ele>842.3</ele>
        <time>2014-04-04T10:23:46Z</time>
      </trkpt>
      <trkpt lat="45.51354" lon="5.92614">
        <ele>842.8</ele>
        <time>2014-04-04T10:23:48Z</time>
      </trkpt>
      <trkpt lat="45.51359" lon="5.92617">
        <ele>843.8</ele>
        <time>2014-04-04T10:23:50Z</time>
      </trkpt>
      <trkpt lat="45.51363" lon="5.92618">
        <ele>844.5</ele>
        <time>2014-04-04T10:23:52Z</time>
      </trkpt>
      <trkpt lat="45.51365" lon="5.92619">
        <ele>844.9</ele>
        <time>2014-04-04T10:23:54Z</time>
      </trkpt>
      <trkpt lat="45.5137" lon="5.9262">
        <ele>846</ele>
        <time>2014-04-04T10:23:56Z</time>
      </trkpt>
      <trkpt lat="45.51374" lon="5.92622">
        <ele>846.6</ele>
        <time>2014-04-04T10:23:58Z</time>
      </trkpt>
      <trkpt lat="45.51377" lon="5.92624">
        <ele>847.2</ele>
        <time>2014-04-04T10:24:00Z</time>
      </trkpt>
      <trkpt lat="45.51379" lon="5.92625">
        <ele>847.4</ele>
        <time>2014-04-04T10:24:02Z</time>
      </trkpt>
      <trkpt lat="45.51383" lon="5.92628">
        <ele>847.9</ele>
        <time>2014-04-04T10:24:04Z</time>
      </trkpt>
      <trkpt lat="45.51387" lon="5.92635">
        <ele>848.2</ele>
        <time>2014-04-04T10:24:06Z</time>
      </trkpt>
      <trkpt lat="45.5139" lon="5.9264">
        <ele>848.2</ele>
        <time>2014-04-04T10:24:08Z</time>
      </trkpt>
      <trkpt lat="45.51391" lon="5.92643">
        <ele>848.3</ele>
        <time>2014-04-04T10:24:10Z</time>
      </trkpt>
      <trkpt lat="45.51395" lon="5.9265">
        <ele>849.1</ele>
        <time>2014-04-04T10:24:12Z</time>
      </trkpt>
      <trkpt lat="45.51399" lon="5.92652">
        <ele>849.8</ele>
        <time>2014-04-04T10:24:14Z</time>
      </trkpt>
      <trkpt lat="45.514" lon="5.92652">
        <ele>850.2</ele>
        <time>2014-04-04T10:24:16Z</time>
      </trkpt>
      <trkpt lat="45.51403" lon="5.9265">
        <ele>850.8</ele>
        <time>2014-04-04T10:24:18Z</time>
      </trkpt>
      <trkpt lat="45.51403" lon="5.92644">
        <ele>851.3</ele>
        <time>2014-04-04T10:24:20Z</time>
      </trkpt>
      <trkpt lat="45.51403" lon="5.9264">
        <ele>851.6</ele>
        <time>2014-04-04T10:24:22Z</time>
      </trkpt>
      <trkpt lat="45.51403" lon="5.92638">
        <ele>851.8</ele>
        <time>2014-04-04T10:24:24Z</time>
      </trkpt>
      <trkpt lat="45.51403" lon="5.92631">
        <ele>852.7</ele>
        <time>2014-04-04T10:24:26Z</time>
      </trkpt>
      <trkpt lat="45.51402" lon="5.92627">
        <ele>853.2</ele>
        <time>2014-04-04T10:24:28Z</time>
      </trkpt>
      <trkpt lat="45.51402" lon="5.92623">
        <ele>853.8</ele>
        <time>2014-04-04T10:24:30Z</time>
      </trkpt>
      <trkpt lat="45.51402" lon="5.92621">
        <ele>854.2</ele>
        <time>2014-04-04T10:24:32Z</time>
      </trkpt>
      <trkpt lat="45.51401" lon="5.92615">
        <ele>855</ele>
        <time>2014-04-04T10:24:34Z</time>
      </trkpt>
      <trkpt lat="45.51401" lon="5.92611">
        <ele>855.3</ele>
        <time>2014-04-04T10:24:36Z</time>
      </trkpt>
      <trkpt lat="45.514" lon="5.9261">
        <ele>855.5</ele>
        <time>2014-04-04T10:24:38Z</time>
      </trkpt>
      <trkpt lat="45.51398" lon="5.92606">
        <ele>855.7</ele>
        <time>2014-04-04T10:24:40Z</time>
      </trkpt>
      <trkpt lat="45.51397" lon="5.92603">
        <ele>856.1</ele>
        <time>2014-04-04T10:24:42Z</time>
      </trkpt>
      <trkpt lat="45.51397" lon="5.92603">
        <ele>856.1</ele>
        <time>2014-04-04T10:24:44Z</time>
      </trkpt>
      <trkpt lat="45.51397" lon="5.92603">
        <ele>856.2</ele>
        <time>2014-04-04T10:24:46Z</time>
      </trkpt>
      <trkpt lat="45.51398" lon="5.92603">
        <ele>856.3</ele>
        <time>2014-04-04T10:24:48Z</time>
      </trkpt>
      <trkpt lat="45.51398" lon="5.92604">
        <ele>856.2</ele>
        <time>2014-04-04T10:24:50Z</time>
      </trkpt>
      <trkpt lat="45.51398" lon="5.92604">
        <ele>856.1</ele>
        <time>2014-04-04T10:24:52Z</time>
      </trkpt>
      <trkpt lat="45.51398" lon="5.92604">
        <ele>856.1</ele>
        <time>2014-04-04T10:24:54Z</time>
      </trkpt>
      <trkpt lat="45.51398" lon="5.92604">
        <ele>856</ele>
        <time>2014-04-04T10:24:56Z</time>
      </trkpt>
      <trkpt lat="45.51398" lon="5.92604">
        <ele>856.1</ele>
        <time>2014-04-04T10:25:00Z</time>
      </trkpt>
      <trkpt lat="45.51398" lon="5.92604">
        <ele>856.2</ele>
        <time>2014-04-04T10:25:02Z</time>
      </trkpt>
      <trkpt lat="45.51401" lon="5.92608">
        <ele>856.2</ele>
        <time>2014-04-04T10:25:04Z</time>
      </trkpt>
      <trkpt lat="45.51402" lon="5.92611">
        <ele>856</ele>
        <time>2014-04-04T10:25:06Z</time>
      </trkpt>
      <trkpt lat="45.51402" lon="5.92611">
        <ele>855.9</ele>
        <time>2014-04-04T10:25:08Z</time>
      </trkpt>
      <trkpt lat="45.51403" lon="5.92612">
        <ele>855.9</ele>
        <time>2014-04-04T10:25:10Z</time>
      </trkpt>
      <trkpt lat="45.51403" lon="5.92612">
        <ele>856.1</ele>
        <time>2014-04-04T10:25:12Z</time>
      </trkpt>
      <trkpt lat="45.51404" lon="5.92611">
        <ele>856.2</ele>
        <time>2014-04-04T10:25:14Z</time>
      </trkpt>
      <trkpt lat="45.51404" lon="5.92611">
        <ele>856.3</ele>
        <time>2014-04-04T10:25:16Z</time>
      </trkpt>
      <trkpt lat="45.51404" lon="5.92611">
        <ele>856.4</ele>
        <time>2014-04-04T10:25:18Z</time>
      </trkpt>
      <trkpt lat="45.51404" lon="5.9261">
        <ele>856.8</ele>
        <time>2014-04-04T10:25:20Z</time>
      </trkpt>
      <trkpt lat="45.51405" lon="5.92609">
        <ele>857.1</ele>
        <time>2014-04-04T10:25:22Z</time>
      </trkpt>
      <trkpt lat="45.51405" lon="5.92609">
        <ele>857.2</ele>
        <time>2014-04-04T10:25:24Z</time>
      </trkpt>
      <trkpt lat="45.51405" lon="5.92609">
        <ele>857.2</ele>
        <time>2014-04-04T10:25:26Z</time>
      </trkpt>
      <trkpt lat="45.51405" lon="5.92608">
        <ele>857.4</ele>
        <time>2014-04-04T10:25:28Z</time>
      </trkpt>
      <trkpt lat="45.51406" lon="5.92608">
        <ele>857.5</ele>
        <time>2014-04-04T10:25:30Z</time>
      </trkpt>
      <trkpt lat="45.51406" lon="5.92608">
        <ele>857.7</ele>
        <time>2014-04-04T10:25:32Z</time>
      </trkpt>
      <trkpt lat="45.51407" lon="5.9261">
        <ele>857.5</ele>
        <time>2014-04-04T10:25:34Z</time>
      </trkpt>
      <trkpt lat="45.5141" lon="5.92618">
        <ele>856.7</ele>
        <time>2014-04-04T10:25:36Z</time>
      </trkpt>
      <trkpt lat="45.51411" lon="5.92622">
        <ele>856.5</ele>
        <time>2014-04-04T10:25:38Z</time>
      </trkpt>
      <trkpt lat="45.51415" lon="5.9263">
        <ele>856</ele>
        <time>2014-04-04T10:25:40Z</time>
      </trkpt>
      <trkpt lat="45.51418" lon="5.92643">
        <ele>855.2</ele>
        <time>2014-04-04T10:25:42Z</time>
      </trkpt>
      <trkpt lat="45.5142" lon="5.92652">
        <ele>855.2</ele>
        <time>2014-04-04T10:25:44Z</time>
      </trkpt>
      <trkpt lat="45.51421" lon="5.92657">
        <ele>855</ele>
        <time>2014-04-04T10:25:46Z</time>
      </trkpt>
      <trkpt lat="45.51422" lon="5.92668">
        <ele>854.6</ele>
        <time>2014-04-04T10:25:48Z</time>
      </trkpt>
      <trkpt lat="45.51424" lon="5.92676">
        <ele>854.7</ele>
        <time>2014-04-04T10:25:50Z</time>
      </trkpt>
      <trkpt lat="45.51426" lon="5.92686">
        <ele>854.4</ele>
        <time>2014-04-04T10:25:52Z</time>
      </trkpt>
      <trkpt lat="45.51426" lon="5.92693">
        <ele>854.2</ele>
        <time>2014-04-04T10:25:54Z</time>
      </trkpt>
      <trkpt lat="45.51425" lon="5.92713">
        <ele>850.5</ele>
        <time>2014-04-04T10:25:56Z</time>
      </trkpt>
      <trkpt lat="45.51426" lon="5.92724">
        <ele>848.4</ele>
        <time>2014-04-04T10:25:58Z</time>
      </trkpt>
      <trkpt lat="45.51426" lon="5.92729">
        <ele>846.6</ele>
        <time>2014-04-04T10:26:00Z</time>
      </trkpt>
      <trkpt lat="45.51428" lon="5.92741">
        <ele>842.8</ele>
        <time>2014-04-04T10:26:02Z</time>
      </trkpt>
      <trkpt lat="45.51433" lon="5.92757">
        <ele>838.3</ele>
        <time>2014-04-04T10:26:04Z</time>
      </trkpt>
      <trkpt lat="45.51437" lon="5.92768">
        <ele>836.1</ele>
        <time>2014-04-04T10:26:06Z</time>
      </trkpt>
      <trkpt lat="45.51438" lon="5.92773">
        <ele>834.9</ele>
        <time>2014-04-04T10:26:08Z</time>
      </trkpt>
      <trkpt lat="45.51442" lon="5.92784">
        <ele>832.6</ele>
        <time>2014-04-04T10:26:10Z</time>
      </trkpt>
      <trkpt lat="45.51449" lon="5.928">
        <ele>829.5</ele>
        <time>2014-04-04T10:26:12Z</time>
      </trkpt>
      <trkpt lat="45.51454" lon="5.92809">
        <ele>828.5</ele>
        <time>2014-04-04T10:26:14Z</time>
      </trkpt>
      <trkpt lat="45.51456" lon="5.92814">
        <ele>827.5</ele>
        <time>2014-04-04T10:26:16Z</time>
      </trkpt>
      <trkpt lat="45.51459" lon="5.92828">
        <ele>824.3</ele>
        <time>2014-04-04T10:26:18Z</time>
      </trkpt>
      <trkpt lat="45.5146" lon="5.92848">
        <ele>822.4</ele>
        <time>2014-04-04T10:26:20Z</time>
      </trkpt>
      <trkpt lat="45.5146" lon="5.92861">
        <ele>821.2</ele>
        <time>2014-04-04T10:26:22Z</time>
      </trkpt>
      <trkpt lat="45.5146" lon="5.92867">
        <ele>820.3</ele>
        <time>2014-04-04T10:26:24Z</time>
      </trkpt>
      <trkpt lat="45.51462" lon="5.92879">
        <ele>819.6</ele>
        <time>2014-04-04T10:26:26Z</time>
      </trkpt>
      <trkpt lat="45.51461" lon="5.92903">
        <ele>815.3</ele>
        <time>2014-04-04T10:26:28Z</time>
      </trkpt>
      <trkpt lat="45.51459" lon="5.92911">
        <ele>813.3</ele>
        <time>2014-04-04T10:26:30Z</time>
      </trkpt>
      <trkpt lat="45.51457" lon="5.92929">
        <ele>811.3</ele>
        <time>2014-04-04T10:26:32Z</time>
      </trkpt>
      <trkpt lat="45.51454" lon="5.92956">
        <ele>810.2</ele>
        <time>2014-04-04T10:26:34Z</time>
      </trkpt>
      <trkpt lat="45.51454" lon="5.92973">
        <ele>809.5</ele>
        <time>2014-04-04T10:26:36Z</time>
      </trkpt>
      <trkpt lat="45.51454" lon="5.92981">
        <ele>808.4</ele>
        <time>2014-04-04T10:26:38Z</time>
      </trkpt>
      <trkpt lat="45.51456" lon="5.92995">
        <ele>806.7</ele>
        <time>2014-04-04T10:26:40Z</time>
      </trkpt>
      <trkpt lat="45.51457" lon="5.93015">
        <ele>804.9</ele>
        <time>2014-04-04T10:26:42Z</time>
      </trkpt>
      <trkpt lat="45.51457" lon="5.93029">
        <ele>803.4</ele>
        <time>2014-04-04T10:26:44Z</time>
      </trkpt>
      <trkpt lat="45.51457" lon="5.93035">
        <ele>802.3</ele>
        <time>2014-04-04T10:26:46Z</time>
      </trkpt>
      <trkpt lat="45.51457" lon="5.93049">
        <ele>800.3</ele>
        <time>2014-04-04T10:26:48Z</time>
      </trkpt>
      <trkpt lat="45.51456" lon="5.93059">
        <ele>798.4</ele>
        <time>2014-04-04T10:26:50Z</time>
      </trkpt>
      <trkpt lat="45.51454" lon="5.93068">
        <ele>796</ele>
        <time>2014-04-04T10:26:52Z</time>
      </trkpt>
      <trkpt lat="45.51454" lon="5.9307">
        <ele>795.3</ele>
        <time>2014-04-04T10:26:54Z</time>
      </trkpt>
      <trkpt lat="45.51457" lon="5.93079">
        <ele>793.4</ele>
        <time>2014-04-04T10:26:56Z</time>
      </trkpt>
      <trkpt lat="45.51457" lon="5.9308">
        <ele>793.2</ele>
        <time>2014-04-04T10:26:58Z</time>
      </trkpt>
      <trkpt lat="45.51457" lon="5.9308">
        <ele>793.3</ele>
        <time>2014-04-04T10:27:00Z</time>
      </trkpt>
      <trkpt lat="45.51456" lon="5.9308">
        <ele>793.3</ele>
        <time>2014-04-04T10:27:02Z</time>
      </trkpt>
      <trkpt lat="45.51458" lon="5.93083">
        <ele>792.6</ele>
        <time>2014-04-04T10:27:04Z</time>
      </trkpt>
      <trkpt lat="45.51459" lon="5.93086">
        <ele>792.1</ele>
        <time>2014-04-04T10:27:06Z</time>
      </trkpt>
      <trkpt lat="45.5146" lon="5.93089">
        <ele>791.6</ele>
        <time>2014-04-04T10:27:08Z</time>
      </trkpt>
      <trkpt lat="45.51468" lon="5.93099">
        <ele>790</ele>
        <time>2014-04-04T10:27:10Z</time>
      </trkpt>
      <trkpt lat="45.51474" lon="5.93108">
        <ele>788.5</ele>
        <time>2014-04-04T10:27:12Z</time>
      </trkpt>
      <trkpt lat="45.51478" lon="5.93115">
        <ele>787</ele>
        <time>2014-04-04T10:27:14Z</time>
      </trkpt>
      <trkpt lat="45.5148" lon="5.93117">
        <ele>786.6</ele>
        <time>2014-04-04T10:27:16Z</time>
      </trkpt>
      <trkpt lat="45.51482" lon="5.9312">
        <ele>786.1</ele>
        <time>2014-04-04T10:27:18Z</time>
      </trkpt>
      <trkpt lat="45.51482" lon="5.9312">
        <ele>786</ele>
        <time>2014-04-04T10:27:20Z</time>
      </trkpt>
      <trkpt lat="45.51483" lon="5.9312">
        <ele>786</ele>
        <time>2014-04-04T10:27:22Z</time>
      </trkpt>
      <trkpt lat="45.51483" lon="5.93119">
        <ele>786.1</ele>
        <time>2014-04-04T10:27:24Z</time>
      </trkpt>
      <trkpt lat="45.51483" lon="5.9312">
        <ele>786</ele>
        <time>2014-04-04T10:27:26Z</time>
      </trkpt>
      <trkpt lat="45.51484" lon="5.9312">
        <ele>786</ele>
        <time>2014-04-04T10:27:28Z</time>
      </trkpt>
      <trkpt lat="45.51484" lon="5.9312">
        <ele>785.9</ele>
        <time>2014-04-04T10:27:30Z</time>
      </trkpt>
      <trkpt lat="45.51484" lon="5.9312">
        <ele>785.9</ele>
        <time>2014-04-04T10:27:32Z</time>
      </trkpt>
      <trkpt lat="45.51484" lon="5.9312">
        <ele>785.9</ele>
        <time>2014-04-04T10:27:38Z</time>
      </trkpt>
      <trkpt lat="45.51484" lon="5.9312">
        <ele>786</ele>
        <time>2014-04-04T10:27:42Z</time>
      </trkpt>
      <trkpt lat="45.51484" lon="5.9312">
        <ele>785.9</ele>
        <time>2014-04-04T10:27:46Z</time>
      </trkpt>
      <trkpt lat="45.51489" lon="5.93125">
        <ele>784.8</ele>
        <time>2014-04-04T10:27:48Z</time>
      </trkpt>
      <trkpt lat="45.51499" lon="5.93133">
        <ele>782.9</ele>
        <time>2014-04-04T10:27:50Z</time>
      </trkpt>
      <trkpt lat="45.51505" lon="5.93139">
        <ele>782.4</ele>
        <time>2014-04-04T10:27:52Z</time>
      </trkpt>
      <trkpt lat="45.51518" lon="5.93153">
        <ele>780.3</ele>
        <time>2014-04-04T10:27:54Z</time>
      </trkpt>
      <trkpt lat="45.51543" lon="5.93166">
        <ele>778.2</ele>
        <time>2014-04-04T10:27:56Z</time>
      </trkpt>
      <trkpt lat="45.51559" lon="5.93173">
        <ele>777.8</ele>
        <time>2014-04-04T10:27:58Z</time>
      </trkpt>
      <trkpt lat="45.51567" lon="5.93178">
        <ele>777.5</ele>
        <time>2014-04-04T10:28:00Z</time>
      </trkpt>
      <trkpt lat="45.51583" lon="5.93188">
        <ele>777.3</ele>
        <time>2014-04-04T10:28:02Z</time>
      </trkpt>
      <trkpt lat="45.51607" lon="5.93203">
        <ele>775.5</ele>
        <time>2014-04-04T10:28:04Z</time>
      </trkpt>
      <trkpt lat="45.51623" lon="5.93211">
        <ele>774.8</ele>
        <time>2014-04-04T10:28:06Z</time>
      </trkpt>
      <trkpt lat="45.51631" lon="5.93214">
        <ele>774.4</ele>
        <time>2014-04-04T10:28:08Z</time>
      </trkpt>
      <trkpt lat="45.51655" lon="5.93225">
        <ele>772.7</ele>
        <time>2014-04-04T10:28:10Z</time>
      </trkpt>
      <trkpt lat="45.51671" lon="5.93236">
        <ele>771.6</ele>
        <time>2014-04-04T10:28:12Z</time>
      </trkpt>
      <trkpt lat="45.51686" lon="5.93251">
        <ele>770.7</ele>
        <time>2014-04-04T10:28:14Z</time>
      </trkpt>
      <trkpt lat="45.51693" lon="5.93257">
        <ele>770.7</ele>
        <time>2014-04-04T10:28:16Z</time>
      </trkpt>
      <trkpt lat="45.51709" lon="5.93262">
        <ele>769.6</ele>
        <time>2014-04-04T10:28:18Z</time>
      </trkpt>
      <trkpt lat="45.51713" lon="5.93257">
        <ele>769.4</ele>
        <time>2014-04-04T10:28:20Z</time>
      </trkpt>
      <trkpt lat="45.51714" lon="5.93254">
        <ele>769.4</ele>
        <time>2014-04-04T10:28:22Z</time>
      </trkpt>
      <trkpt lat="45.51718" lon="5.93249">
        <ele>769.4</ele>
        <time>2014-04-04T10:28:24Z</time>
      </trkpt>
      <trkpt lat="45.51724" lon="5.93237">
        <ele>770.3</ele>
        <time>2014-04-04T10:28:26Z</time>
      </trkpt>
      <trkpt lat="45.51731" lon="5.93229">
        <ele>770.9</ele>
        <time>2014-04-04T10:28:28Z</time>
      </trkpt>
      <trkpt lat="45.51735" lon="5.93228">
        <ele>770.8</ele>
        <time>2014-04-04T10:28:30Z</time>
      </trkpt>
      <trkpt lat="45.51744" lon="5.93232">
        <ele>769.9</ele>
        <time>2014-04-04T10:28:32Z</time>
      </trkpt>
      <trkpt lat="45.51759" lon="5.9324">
        <ele>768.2</ele>
        <time>2014-04-04T10:28:34Z</time>
      </trkpt>
      <trkpt lat="45.51768" lon="5.93242">
        <ele>767.6</ele>
        <time>2014-04-04T10:28:36Z</time>
      </trkpt>
      <trkpt lat="45.51773" lon="5.93242">
        <ele>767.5</ele>
        <time>2014-04-04T10:28:38Z</time>
      </trkpt>
      <trkpt lat="45.51788" lon="5.93239">
        <ele>766.8</ele>
        <time>2014-04-04T10:28:40Z</time>
      </trkpt>
      <trkpt lat="45.518" lon="5.93237">
        <ele>765.9</ele>
        <time>2014-04-04T10:28:42Z</time>
      </trkpt>
      <trkpt lat="45.51811" lon="5.93237">
        <ele>765.3</ele>
        <time>2014-04-04T10:28:44Z</time>
      </trkpt>
      <trkpt lat="45.51817" lon="5.93238">
        <ele>765</ele>
        <time>2014-04-04T10:28:46Z</time>
      </trkpt>
      <trkpt lat="45.51835" lon="5.93243">
        <ele>763.6</ele>
        <time>2014-04-04T10:28:48Z</time>
      </trkpt>
      <trkpt lat="45.51848" lon="5.93248">
        <ele>763.1</ele>
        <time>2014-04-04T10:28:50Z</time>
      </trkpt>
      <trkpt lat="45.51853" lon="5.93251">
        <ele>762.7</ele>
        <time>2014-04-04T10:28:52Z</time>
      </trkpt>
      <trkpt lat="45.51865" lon="5.93256">
        <ele>762.6</ele>
        <time>2014-04-04T10:28:54Z</time>
      </trkpt>
      <trkpt lat="45.51879" lon="5.93265">
        <ele>761.7</ele>
        <time>2014-04-04T10:28:56Z</time>
      </trkpt>
      <trkpt lat="45.51883" lon="5.93264">
        <ele>761.9</ele>
        <time>2014-04-04T10:28:58Z</time>
      </trkpt>
      <trkpt lat="45.51885" lon="5.93263">
        <ele>762.1</ele>
        <time>2014-04-04T10:29:00Z</time>
      </trkpt>
      <trkpt lat="45.51885" lon="5.93264">
        <ele>762</ele>
        <time>2014-04-04T10:29:02Z</time>
      </trkpt>
      <trkpt lat="45.51884" lon="5.93263">
        <ele>762</ele>
        <time>2014-04-04T10:29:04Z</time>
      </trkpt>
      <trkpt lat="45.51884" lon="5.93263">
        <ele>762</ele>
        <time>2014-04-04T10:29:06Z</time>
      </trkpt>
      <trkpt lat="45.51884" lon="5.93264">
        <ele>762</ele>
        <time>2014-04-04T10:29:08Z</time>
      </trkpt>
      <trkpt lat="45.51884" lon="5.93264">
        <ele>761.8</ele>
        <time>2014-04-04T10:29:10Z</time>
      </trkpt>
      <trkpt lat="45.51883" lon="5.93265">
        <ele>761.7</ele>
        <time>2014-04-04T10:29:12Z</time>
      </trkpt>
      <trkpt lat="45.51883" lon="5.93266">
        <ele>761.6</ele>
        <time>2014-04-04T10:29:14Z</time>
      </trkpt>
      <trkpt lat="45.51884" lon="5.93266">
        <ele>761.6</ele>
        <time>2014-04-04T10:29:16Z</time>
      </trkpt>
      <trkpt lat="45.51884" lon="5.93267">
        <ele>761.4</ele>
        <time>2014-04-04T10:29:18Z</time>
      </trkpt>
      <trkpt lat="45.51884" lon="5.93266">
        <ele>761.4</ele>
        <time>2014-04-04T10:29:20Z</time>
      </trkpt>
      <trkpt lat="45.51884" lon="5.93266">
        <ele>761.5</ele>
        <time>2014-04-04T10:29:24Z</time>
      </trkpt>
      <trkpt lat="45.51884" lon="5.93264">
        <ele>761.8</ele>
        <time>2014-04-04T10:29:26Z</time>
      </trkpt>
      <trkpt lat="45.51885" lon="5.93262">
        <ele>762.3</ele>
        <time>2014-04-04T10:29:28Z</time>
      </trkpt>
      <trkpt lat="45.51887" lon="5.93261">
        <ele>762.6</ele>
        <time>2014-04-04T10:29:30Z</time>
      </trkpt>
      <trkpt lat="45.51892" lon="5.93256">
        <ele>763.1</ele>
        <time>2014-04-04T10:29:32Z</time>
      </trkpt>
      <trkpt lat="45.51896" lon="5.93253">
        <ele>763.1</ele>
        <time>2014-04-04T10:29:34Z</time>
      </trkpt>
      <trkpt lat="45.519" lon="5.93249">
        <ele>763.3</ele>
        <time>2014-04-04T10:29:36Z</time>
      </trkpt>
      <trkpt lat="45.51903" lon="5.93246">
        <ele>763.4</ele>
        <time>2014-04-04T10:29:38Z</time>
      </trkpt>
      <trkpt lat="45.51908" lon="5.93239">
        <ele>763.8</ele>
        <time>2014-04-04T10:29:40Z</time>
      </trkpt>
      <trkpt lat="45.51915" lon="5.93226">
        <ele>764.6</ele>
        <time>2014-04-04T10:29:42Z</time>
      </trkpt>
      <trkpt lat="45.51917" lon="5.93222">
        <ele>764.9</ele>
        <time>2014-04-04T10:29:44Z</time>
      </trkpt>
      <trkpt lat="45.51921" lon="5.93217">
        <ele>765.5</ele>
        <time>2014-04-04T10:29:46Z</time>
      </trkpt>
      <trkpt lat="45.51926" lon="5.9321">
        <ele>766.4</ele>
        <time>2014-04-04T10:29:48Z</time>
      </trkpt>
      <trkpt lat="45.51928" lon="5.93207">
        <ele>766.8</ele>
        <time>2014-04-04T10:29:50Z</time>
      </trkpt>
      <trkpt lat="45.51929" lon="5.93205">
        <ele>767.1</ele>
        <time>2014-04-04T10:29:52Z</time>
      </trkpt>
      <trkpt lat="45.51931" lon="5.93201">
        <ele>767.7</ele>
        <time>2014-04-04T10:29:54Z</time>
      </trkpt>
      <trkpt lat="45.51933" lon="5.93194">
        <ele>769</ele>
        <time>2014-04-04T10:29:56Z</time>
      </trkpt>
      <trkpt lat="45.51934" lon="5.93191">
        <ele>769.5</ele>
        <time>2014-04-04T10:29:58Z</time>
      </trkpt>
      <trkpt lat="45.51935" lon="5.93189">
        <ele>769.8</ele>
        <time>2014-04-04T10:30:00Z</time>
      </trkpt>
      <trkpt lat="45.51936" lon="5.93185">
        <ele>770.4</ele>
        <time>2014-04-04T10:30:02Z</time>
      </trkpt>
      <trkpt lat="45.51938" lon="5.93179">
        <ele>771.4</ele>
        <time>2014-04-04T10:30:04Z</time>
      </trkpt>
      <trkpt lat="45.5194" lon="5.93175">
        <ele>772</ele>
        <time>2014-04-04T10:30:06Z</time>
      </trkpt>
      <trkpt lat="45.5194" lon="5.93172">
        <ele>772.4</ele>
        <time>2014-04-04T10:30:08Z</time>
      </trkpt>
      <trkpt lat="45.51942" lon="5.93165">
        <ele>773.4</ele>
        <time>2014-04-04T10:30:10Z</time>
      </trkpt>
      <trkpt lat="45.51943" lon="5.93161">
        <ele>773.7</ele>
        <time>2014-04-04T10:30:12Z</time>
      </trkpt>
      <trkpt lat="45.51943" lon="5.93158">
        <ele>773.8</ele>
        <time>2014-04-04T10:30:14Z</time>
      </trkpt>
      <trkpt lat="45.51944" lon="5.93153">
        <ele>774</ele>
        <time>2014-04-04T10:30:16Z</time>
      </trkpt>
      <trkpt lat="45.51945" lon="5.93146">
        <ele>774.5</ele>
        <time>2014-04-04T10:30:18Z</time>
      </trkpt>
      <trkpt lat="45.51945" lon="5.93141">
        <ele>774.8</ele>
        <time>2014-04-04T10:30:20Z</time>
      </trkpt>
      <trkpt lat="45.51946" lon="5.93139">
        <ele>774.9</ele>
        <time>2014-04-04T10:30:22Z</time>
      </trkpt>
      <trkpt lat="45.51948" lon="5.93135">
        <ele>775.7</ele>
        <time>2014-04-04T10:30:24Z</time>
      </trkpt>
      <trkpt lat="45.51951" lon="5.9313">
        <ele>776.8</ele>
        <time>2014-04-04T10:30:26Z</time>
      </trkpt>
      <trkpt lat="45.51954" lon="5.93126">
        <ele>777.6</ele>
        <time>2014-04-04T10:30:28Z</time>
      </trkpt>
      <trkpt lat="45.51956" lon="5.93125">
        <ele>777.9</ele>
        <time>2014-04-04T10:30:30Z</time>
      </trkpt>
      <trkpt lat="45.51957" lon="5.93121">
        <ele>778.8</ele>
        <time>2014-04-04T10:30:32Z</time>
      </trkpt>
      <trkpt lat="45.51961" lon="5.93117">
        <ele>780</ele>
        <time>2014-04-04T10:30:34Z</time>
      </trkpt>
      <trkpt lat="45.51962" lon="5.93116">
        <ele>780.3</ele>
        <time>2014-04-04T10:30:36Z</time>
      </trkpt>
      <trkpt lat="45.51964" lon="5.93114">
        <ele>781</ele>
        <time>2014-04-04T10:30:38Z</time>
      </trkpt>
      <trkpt lat="45.51969" lon="5.93113">
        <ele>781.3</ele>
        <time>2014-04-04T10:30:40Z</time>
      </trkpt>
      <trkpt lat="45.51972" lon="5.93112">
        <ele>781.6</ele>
        <time>2014-04-04T10:30:42Z</time>
      </trkpt>
      <trkpt lat="45.51973" lon="5.93112">
        <ele>781.8</ele>
        <time>2014-04-04T10:30:44Z</time>
      </trkpt>
      <trkpt lat="45.51975" lon="5.93109">
        <ele>782.2</ele>
        <time>2014-04-04T10:30:46Z</time>
      </trkpt>
      <trkpt lat="45.51978" lon="5.93105">
        <ele>783.1</ele>
        <time>2014-04-04T10:30:48Z</time>
      </trkpt>
      <trkpt lat="45.5198" lon="5.93102">
        <ele>783.6</ele>
        <time>2014-04-04T10:30:50Z</time>
      </trkpt>
      <trkpt lat="45.51981" lon="5.931">
        <ele>784</ele>
        <time>2014-04-04T10:30:52Z</time>
      </trkpt>
      <trkpt lat="45.51984" lon="5.93095">
        <ele>784.8</ele>
        <time>2014-04-04T10:30:54Z</time>
      </trkpt>
      <trkpt lat="45.5199" lon="5.93092">
        <ele>785</ele>
        <time>2014-04-04T10:30:56Z</time>
      </trkpt>
      <trkpt lat="45.51994" lon="5.93092">
        <ele>784.6</ele>
        <time>2014-04-04T10:30:58Z</time>
      </trkpt>
      <trkpt lat="45.51995" lon="5.93091">
        <ele>784.6</ele>
        <time>2014-04-04T10:31:00Z</time>
      </trkpt>
      <trkpt lat="45.52" lon="5.93091">
        <ele>784.2</ele>
        <time>2014-04-04T10:31:02Z</time>
      </trkpt>
      <trkpt lat="45.52002" lon="5.93091">
        <ele>784.4</ele>
        <time>2014-04-04T10:31:04Z</time>
      </trkpt>
      <trkpt lat="45.52003" lon="5.93091">
        <ele>784.8</ele>
        <time>2014-04-04T10:31:06Z</time>
      </trkpt>
      <trkpt lat="45.52006" lon="5.93091">
        <ele>785.3</ele>
        <time>2014-04-04T10:31:08Z</time>
      </trkpt>
      <trkpt lat="45.52011" lon="5.93092">
        <ele>785.9</ele>
        <time>2014-04-04T10:31:10Z</time>
      </trkpt>
      <trkpt lat="45.52014" lon="5.93093">
        <ele>786.4</ele>
        <time>2014-04-04T10:31:12Z</time>
      </trkpt>
      <trkpt lat="45.52015" lon="5.93093">
        <ele>786.7</ele>
        <time>2014-04-04T10:31:14Z</time>
      </trkpt>
      <trkpt lat="45.52019" lon="5.93093">
        <ele>787.4</ele>
        <time>2014-04-04T10:31:16Z</time>
      </trkpt>
      <trkpt lat="45.52024" lon="5.93095">
        <ele>787.8</ele>
        <time>2014-04-04T10:31:18Z</time>
      </trkpt>
      <trkpt lat="45.52027" lon="5.93096">
        <ele>788</ele>
        <time>2014-04-04T10:31:20Z</time>
      </trkpt>
      <trkpt lat="45.52028" lon="5.93096">
        <ele>788.1</ele>
        <time>2014-04-04T10:31:22Z</time>
      </trkpt>
      <trkpt lat="45.52032" lon="5.93097">
        <ele>788.8</ele>
        <time>2014-04-04T10:31:24Z</time>
      </trkpt>
      <trkpt lat="45.52035" lon="5.93095">
        <ele>789.9</ele>
        <time>2014-04-04T10:31:26Z</time>
      </trkpt>
      <trkpt lat="45.52038" lon="5.93094">
        <ele>790.9</ele>
        <time>2014-04-04T10:31:28Z</time>
      </trkpt>
      <trkpt lat="45.5204" lon="5.93094">
        <ele>791.5</ele>
        <time>2014-04-04T10:31:30Z</time>
      </trkpt>
      <trkpt lat="45.52043" lon="5.93093">
        <ele>792.4</ele>
        <time>2014-04-04T10:31:32Z</time>
      </trkpt>
      <trkpt lat="45.52047" lon="5.93093">
        <ele>793.3</ele>
        <time>2014-04-04T10:31:34Z</time>
      </trkpt>
      <trkpt lat="45.52048" lon="5.93094">
        <ele>793.4</ele>
        <time>2014-04-04T10:31:36Z</time>
      </trkpt>
      <trkpt lat="45.52051" lon="5.93095">
        <ele>793.5</ele>
        <time>2014-04-04T10:31:38Z</time>
      </trkpt>
      <trkpt lat="45.52056" lon="5.93098">
        <ele>793.9</ele>
        <time>2014-04-04T10:31:40Z</time>
      </trkpt>
      <trkpt lat="45.5206" lon="5.93099">
        <ele>794.9</ele>
        <time>2014-04-04T10:31:42Z</time>
      </trkpt>
      <trkpt lat="45.52061" lon="5.93099">
        <ele>795.2</ele>
        <time>2014-04-04T10:31:44Z</time>
      </trkpt>
      <trkpt lat="45.52064" lon="5.93101">
        <ele>795.7</ele>
        <time>2014-04-04T10:31:46Z</time>
      </trkpt>
      <trkpt lat="45.52068" lon="5.93102">
        <ele>796.9</ele>
        <time>2014-04-04T10:31:48Z</time>
      </trkpt>
      <trkpt lat="45.52071" lon="5.93103">
        <ele>797.7</ele>
        <time>2014-04-04T10:31:50Z</time>
      </trkpt>
      <trkpt lat="45.52073" lon="5.93103">
        <ele>798.2</ele>
        <time>2014-04-04T10:31:52Z</time>
      </trkpt>
      <trkpt lat="45.52076" lon="5.93104">
        <ele>799</ele>
        <time>2014-04-04T10:31:54Z</time>
      </trkpt>
      <trkpt lat="45.5208" lon="5.93103">
        <ele>800.6</ele>
        <time>2014-04-04T10:31:56Z</time>
      </trkpt>
      <trkpt lat="45.52081" lon="5.93103">
        <ele>801.1</ele>
        <time>2014-04-04T10:31:58Z</time>
      </trkpt>
      <trkpt lat="45.52084" lon="5.93102">
        <ele>802</ele>
        <time>2014-04-04T10:32:00Z</time>
      </trkpt>
      <trkpt lat="45.52089" lon="5.93101">
        <ele>802.7</ele>
        <time>2014-04-04T10:32:02Z</time>
      </trkpt>
      <trkpt lat="45.52091" lon="5.93101">
        <ele>802.9</ele>
        <time>2014-04-04T10:32:04Z</time>
      </trkpt>
      <trkpt lat="45.52093" lon="5.93101">
        <ele>803.1</ele>
        <time>2014-04-04T10:32:06Z</time>
      </trkpt>
      <trkpt lat="45.52096" lon="5.931">
        <ele>803.4</ele>
        <time>2014-04-04T10:32:08Z</time>
      </trkpt>
      <trkpt lat="45.521" lon="5.931">
        <ele>803.8</ele>
        <time>2014-04-04T10:32:10Z</time>
      </trkpt>
      <trkpt lat="45.52103" lon="5.931">
        <ele>804.1</ele>
        <time>2014-04-04T10:32:12Z</time>
      </trkpt>
      <trkpt lat="45.52104" lon="5.931">
        <ele>804.1</ele>
        <time>2014-04-04T10:32:14Z</time>
      </trkpt>
      <trkpt lat="45.52107" lon="5.93102">
        <ele>803.9</ele>
        <time>2014-04-04T10:32:16Z</time>
      </trkpt>
      <trkpt lat="45.52109" lon="5.93104">
        <ele>803.8</ele>
        <time>2014-04-04T10:32:18Z</time>
      </trkpt>
      <trkpt lat="45.52112" lon="5.93105">
        <ele>803.6</ele>
        <time>2014-04-04T10:32:20Z</time>
      </trkpt>
      <trkpt lat="45.52113" lon="5.93105">
        <ele>803.3</ele>
        <time>2014-04-04T10:32:22Z</time>
      </trkpt>
      <trkpt lat="45.52116" lon="5.93106">
        <ele>802.7</ele>
        <time>2014-04-04T10:32:24Z</time>
      </trkpt>
      <trkpt lat="45.52118" lon="5.93108">
        <ele>802.2</ele>
        <time>2014-04-04T10:32:26Z</time>
      </trkpt>
      <trkpt lat="45.52118" lon="5.93108">
        <ele>802.1</ele>
        <time>2014-04-04T10:32:28Z</time>
      </trkpt>
      <trkpt lat="45.52119" lon="5.93108">
        <ele>802</ele>
        <time>2014-04-04T10:32:30Z</time>
      </trkpt>
      <trkpt lat="45.52125" lon="5.9311">
        <ele>800.7</ele>
        <time>2014-04-04T10:32:32Z</time>
      </trkpt>
      <trkpt lat="45.52129" lon="5.93112">
        <ele>800</ele>
        <time>2014-04-04T10:32:34Z</time>
      </trkpt>
      <trkpt lat="45.52131" lon="5.93112">
        <ele>799.7</ele>
        <time>2014-04-04T10:32:36Z</time>
      </trkpt>
      <trkpt lat="45.52133" lon="5.93113">
        <ele>799.3</ele>
        <time>2014-04-04T10:32:38Z</time>
      </trkpt>
      <trkpt lat="45.52133" lon="5.93113">
        <ele>799.3</ele>
        <time>2014-04-04T10:32:40Z</time>
      </trkpt>
      <trkpt lat="45.52133" lon="5.93114">
        <ele>799.2</ele>
        <time>2014-04-04T10:32:42Z</time>
      </trkpt>
      <trkpt lat="45.52133" lon="5.93114">
        <ele>799.2</ele>
        <time>2014-04-04T10:32:44Z</time>
      </trkpt>
      <trkpt lat="45.52133" lon="5.93114">
        <ele>799.1</ele>
        <time>2014-04-04T10:32:48Z</time>
      </trkpt>
      <trkpt lat="45.52133" lon="5.93115">
        <ele>799.1</ele>
        <time>2014-04-04T10:32:50Z</time>
      </trkpt>
      <trkpt lat="45.52133" lon="5.93115">
        <ele>799.1</ele>
        <time>2014-04-04T10:32:54Z</time>
      </trkpt>
      <trkpt lat="45.52133" lon="5.93116">
        <ele>799</ele>
        <time>2014-04-04T10:32:56Z</time>
      </trkpt>
      <trkpt lat="45.52133" lon="5.93116">
        <ele>798.9</ele>
        <time>2014-04-04T10:32:58Z</time>
      </trkpt>
      <trkpt lat="45.52133" lon="5.93116">
        <ele>798.8</ele>
        <time>2014-04-04T10:33:00Z</time>
      </trkpt>
      <trkpt lat="45.52133" lon="5.93117">
        <ele>798.7</ele>
        <time>2014-04-04T10:33:02Z</time>
      </trkpt>
      <trkpt lat="45.52133" lon="5.93118">
        <ele>798.6</ele>
        <time>2014-04-04T10:33:04Z</time>
      </trkpt>
      <trkpt lat="45.52133" lon="5.93119">
        <ele>798.4</ele>
        <time>2014-04-04T10:33:06Z</time>
      </trkpt>
      <trkpt lat="45.52133" lon="5.93121">
        <ele>798.3</ele>
        <time>2014-04-04T10:33:08Z</time>
      </trkpt>
      <trkpt lat="45.52132" lon="5.93122">
        <ele>798.1</ele>
        <time>2014-04-04T10:33:10Z</time>
      </trkpt>
      <trkpt lat="45.52132" lon="5.93122">
        <ele>798.1</ele>
        <time>2014-04-04T10:33:12Z</time>
      </trkpt>
      <trkpt lat="45.52131" lon="5.93122">
        <ele>798.1</ele>
        <time>2014-04-04T10:33:14Z</time>
      </trkpt>
      <trkpt lat="45.52131" lon="5.93122">
        <ele>798.2</ele>
        <time>2014-04-04T10:33:16Z</time>
      </trkpt>
      <trkpt lat="45.52131" lon="5.93123">
        <ele>798.1</ele>
        <time>2014-04-04T10:33:22Z</time>
      </trkpt>
      <trkpt lat="45.5213" lon="5.93123">
        <ele>798.1</ele>
        <time>2014-04-04T10:33:24Z</time>
      </trkpt>
      <trkpt lat="45.5213" lon="5.93124">
        <ele>798</ele>
        <time>2014-04-04T10:33:26Z</time>
      </trkpt>
      <trkpt lat="45.5213" lon="5.93124">
        <ele>798</ele>
        <time>2014-04-04T10:33:28Z</time>
      </trkpt>
      <trkpt lat="45.5213" lon="5.93124">
        <ele>797.9</ele>
        <time>2014-04-04T10:33:30Z</time>
      </trkpt>
      <trkpt lat="45.5213" lon="5.93124">
        <ele>797.9</ele>
        <time>2014-04-04T10:33:32Z</time>
      </trkpt>
      <trkpt lat="45.5213" lon="5.93124">
        <ele>798</ele>
        <time>2014-04-04T10:33:34Z</time>
      </trkpt>
      <trkpt lat="45.5213" lon="5.93123">
        <ele>798</ele>
        <time>2014-04-04T10:33:36Z</time>
      </trkpt>
      <trkpt lat="45.5213" lon="5.93123">
        <ele>798.1</ele>
        <time>2014-04-04T10:33:38Z</time>
      </trkpt>
      <trkpt lat="45.5213" lon="5.93123">
        <ele>798.2</ele>
        <time>2014-04-04T10:33:40Z</time>
      </trkpt>
      <trkpt lat="45.5213" lon="5.93122">
        <ele>798.3</ele>
        <time>2014-04-04T10:33:42Z</time>
      </trkpt>
      <trkpt lat="45.5213" lon="5.93122">
        <ele>798.3</ele>
        <time>2014-04-04T10:33:44Z</time>
      </trkpt>
      <trkpt lat="45.5213" lon="5.93122">
        <ele>798.3</ele>
        <time>2014-04-04T10:33:46Z</time>
      </trkpt>
      <trkpt lat="45.5213" lon="5.93122">
        <ele>798.4</ele>
        <time>2014-04-04T10:33:48Z</time>
      </trkpt>
      <trkpt lat="45.5213" lon="5.93121">
        <ele>798.4</ele>
        <time>2014-04-04T10:33:50Z</time>
      </trkpt>
      <trkpt lat="45.52129" lon="5.93121">
        <ele>798.5</ele>
        <time>2014-04-04T10:33:52Z</time>
      </trkpt>
      <trkpt lat="45.52129" lon="5.9312">
        <ele>798.7</ele>
        <time>2014-04-04T10:33:54Z</time>
      </trkpt>
      <trkpt lat="45.52129" lon="5.93119">
        <ele>798.8</ele>
        <time>2014-04-04T10:33:56Z</time>
      </trkpt>
      <trkpt lat="45.52129" lon="5.93119">
        <ele>798.9</ele>
        <time>2014-04-04T10:33:58Z</time>
      </trkpt>
      <trkpt lat="45.52129" lon="5.93119">
        <ele>798.8</ele>
        <time>2014-04-04T10:34:00Z</time>
      </trkpt>
      <trkpt lat="45.5213" lon="5.9312">
        <ele>798.7</ele>
        <time>2014-04-04T10:34:02Z</time>
      </trkpt>
      <trkpt lat="45.52129" lon="5.9312">
        <ele>798.7</ele>
        <time>2014-04-04T10:34:04Z</time>
      </trkpt>
      <trkpt lat="45.5213" lon="5.9312">
        <ele>798.6</ele>
        <time>2014-04-04T10:34:06Z</time>
      </trkpt>
      <trkpt lat="45.52131" lon="5.9312">
        <ele>798.5</ele>
        <time>2014-04-04T10:34:08Z</time>
      </trkpt>
      <trkpt lat="45.52132" lon="5.9312">
        <ele>798.4</ele>
        <time>2014-04-04T10:34:10Z</time>
      </trkpt>
      <trkpt lat="45.52132" lon="5.9312">
        <ele>798.3</ele>
        <time>2014-04-04T10:34:12Z</time>
      </trkpt>
      <trkpt lat="45.52132" lon="5.93121">
        <ele>798.3</ele>
        <time>2014-04-04T10:34:14Z</time>
      </trkpt>
      <trkpt lat="45.52132" lon="5.93121">
        <ele>798.2</ele>
        <time>2014-04-04T10:34:16Z</time>
      </trkpt>
      <trkpt lat="45.52133" lon="5.93121">
        <ele>798.1</ele>
        <time>2014-04-04T10:34:18Z</time>
      </trkpt>
      <trkpt lat="45.52133" lon="5.93121">
        <ele>798.1</ele>
        <time>2014-04-04T10:34:24Z</time>
      </trkpt>
      <trkpt lat="45.52133" lon="5.93122">
        <ele>798.1</ele>
        <time>2014-04-04T10:34:28Z</time>
      </trkpt>
      <trkpt lat="45.52132" lon="5.93122">
        <ele>798.1</ele>
        <time>2014-04-04T10:34:30Z</time>
      </trkpt>
      <trkpt lat="45.52132" lon="5.93121">
        <ele>798.3</ele>
        <time>2014-04-04T10:34:32Z</time>
      </trkpt>
      <trkpt lat="45.52132" lon="5.9312">
        <ele>798.3</ele>
        <time>2014-04-04T10:34:34Z</time>
      </trkpt>
      <trkpt lat="45.52132" lon="5.9312">
        <ele>798.5</ele>
        <time>2014-04-04T10:34:38Z</time>
      </trkpt>
      <trkpt lat="45.52132" lon="5.93119">
        <ele>798.5</ele>
        <time>2014-04-04T10:34:40Z</time>
      </trkpt>
      <trkpt lat="45.52132" lon="5.93119">
        <ele>798.6</ele>
        <time>2014-04-04T10:34:42Z</time>
      </trkpt>
      <trkpt lat="45.52132" lon="5.93118">
        <ele>798.7</ele>
        <time>2014-04-04T10:34:44Z</time>
      </trkpt>
      <trkpt lat="45.52132" lon="5.93118">
        <ele>798.7</ele>
        <time>2014-04-04T10:34:46Z</time>
      </trkpt>
      <trkpt lat="45.52133" lon="5.93118">
        <ele>798.7</ele>
        <time>2014-04-04T10:34:48Z</time>
      </trkpt>
      <trkpt lat="45.52133" lon="5.93118">
        <ele>798.7</ele>
        <time>2014-04-04T10:34:50Z</time>
      </trkpt>
      <trkpt lat="45.52133" lon="5.93117">
        <ele>798.8</ele>
        <time>2014-04-04T10:34:52Z</time>
      </trkpt>
      <trkpt lat="45.52133" lon="5.93117">
        <ele>798.7</ele>
        <time>2014-04-04T10:34:54Z</time>
      </trkpt>
      <trkpt lat="45.52132" lon="5.93118">
        <ele>798.6</ele>
        <time>2014-04-04T10:34:56Z</time>
      </trkpt>
      <trkpt lat="45.52132" lon="5.93119">
        <ele>798.6</ele>
        <time>2014-04-04T10:34:58Z</time>
      </trkpt>
      <trkpt lat="45.52132" lon="5.9312">
        <ele>798.5</ele>
        <time>2014-04-04T10:35:00Z</time>
      </trkpt>
      <trkpt lat="45.52131" lon="5.9312">
        <ele>798.5</ele>
        <time>2014-04-04T10:35:02Z</time>
      </trkpt>
      <trkpt lat="45.52133" lon="5.93121">
        <ele>798.2</ele>
        <time>2014-04-04T10:35:04Z</time>
      </trkpt>
      <trkpt lat="45.52133" lon="5.93122">
        <ele>797.9</ele>
        <time>2014-04-04T10:35:06Z</time>
      </trkpt>
      <trkpt lat="45.5214" lon="5.93131">
        <ele>796.2</ele>
        <time>2014-04-04T10:35:08Z</time>
      </trkpt>
      <trkpt lat="45.52145" lon="5.93139">
        <ele>794.4</ele>
        <time>2014-04-04T10:35:10Z</time>
      </trkpt>
      <trkpt lat="45.52148" lon="5.93144">
        <ele>793</ele>
        <time>2014-04-04T10:35:12Z</time>
      </trkpt>
      <trkpt lat="45.52155" lon="5.93154">
        <ele>790.4</ele>
        <time>2014-04-04T10:35:14Z</time>
      </trkpt>
      <trkpt lat="45.52169" lon="5.93167">
        <ele>786.8</ele>
        <time>2014-04-04T10:35:16Z</time>
      </trkpt>
      <trkpt lat="45.52179" lon="5.93174">
        <ele>784.7</ele>
        <time>2014-04-04T10:35:18Z</time>
      </trkpt>
      <trkpt lat="45.52183" lon="5.93177">
        <ele>783.5</ele>
        <time>2014-04-04T10:35:20Z</time>
      </trkpt>
      <trkpt lat="45.5219" lon="5.93186">
        <ele>780.7</ele>
        <time>2014-04-04T10:35:22Z</time>
      </trkpt>
      <trkpt lat="45.52197" lon="5.93203">
        <ele>776.5</ele>
        <time>2014-04-04T10:35:24Z</time>
      </trkpt>
      <trkpt lat="45.522" lon="5.93214">
        <ele>774.1</ele>
        <time>2014-04-04T10:35:26Z</time>
      </trkpt>
      <trkpt lat="45.52201" lon="5.93218">
        <ele>773.3</ele>
        <time>2014-04-04T10:35:28Z</time>
      </trkpt>
      <trkpt lat="45.52203" lon="5.93221">
        <ele>772.5</ele>
        <time>2014-04-04T10:35:30Z</time>
      </trkpt>
      <trkpt lat="45.52207" lon="5.93221">
        <ele>772.7</ele>
        <time>2014-04-04T10:35:32Z</time>
      </trkpt>
      <trkpt lat="45.5221" lon="5.93221">
        <ele>773.1</ele>
        <time>2014-04-04T10:35:34Z</time>
      </trkpt>
      <trkpt lat="45.52211" lon="5.9322">
        <ele>773.3</ele>
        <time>2014-04-04T10:35:36Z</time>
      </trkpt>
      <trkpt lat="45.52216" lon="5.93219">
        <ele>773.9</ele>
        <time>2014-04-04T10:35:38Z</time>
      </trkpt>
      <trkpt lat="45.5222" lon="5.93217">
        <ele>774.6</ele>
        <time>2014-04-04T10:35:40Z</time>
      </trkpt>
      <trkpt lat="45.52221" lon="5.93217">
        <ele>774.7</ele>
        <time>2014-04-04T10:35:42Z</time>
      </trkpt>
      <trkpt lat="45.52224" lon="5.93218">
        <ele>774.9</ele>
        <time>2014-04-04T10:35:44Z</time>
      </trkpt>
      <trkpt lat="45.52228" lon="5.93217">
        <ele>775.8</ele>
        <time>2014-04-04T10:35:46Z</time>
      </trkpt>
      <trkpt lat="45.52231" lon="5.93216">
        <ele>776.1</ele>
        <time>2014-04-04T10:35:48Z</time>
      </trkpt>
      <trkpt lat="45.52232" lon="5.93216">
        <ele>776.3</ele>
        <time>2014-04-04T10:35:50Z</time>
      </trkpt>
      <trkpt lat="45.52235" lon="5.93216">
        <ele>776.7</ele>
        <time>2014-04-04T10:35:52Z</time>
      </trkpt>
      <trkpt lat="45.5224" lon="5.93217">
        <ele>777.1</ele>
        <time>2014-04-04T10:35:54Z</time>
      </trkpt>
      <trkpt lat="45.52243" lon="5.93217">
        <ele>777.6</ele>
        <time>2014-04-04T10:35:56Z</time>
      </trkpt>
      <trkpt lat="45.52244" lon="5.93216">
        <ele>777.9</ele>
        <time>2014-04-04T10:35:58Z</time>
      </trkpt>
      <trkpt lat="45.52249" lon="5.93215">
        <ele>778.9</ele>
        <time>2014-04-04T10:36:00Z</time>
      </trkpt>
      <trkpt lat="45.52252" lon="5.93214">
        <ele>779.6</ele>
        <time>2014-04-04T10:36:02Z</time>
      </trkpt>
      <trkpt lat="45.52255" lon="5.93214">
        <ele>780</ele>
        <time>2014-04-04T10:36:04Z</time>
      </trkpt>
      <trkpt lat="45.52257" lon="5.93214">
        <ele>780.2</ele>
        <time>2014-04-04T10:36:06Z</time>
      </trkpt>
      <trkpt lat="45.5226" lon="5.93214">
        <ele>780.5</ele>
        <time>2014-04-04T10:36:08Z</time>
      </trkpt>
      <trkpt lat="45.52264" lon="5.93214">
        <ele>780.9</ele>
        <time>2014-04-04T10:36:10Z</time>
      </trkpt>
      <trkpt lat="45.52265" lon="5.93214">
        <ele>781</ele>
        <time>2014-04-04T10:36:12Z</time>
      </trkpt>
      <trkpt lat="45.52267" lon="5.93214">
        <ele>781.3</ele>
        <time>2014-04-04T10:36:14Z</time>
      </trkpt>
      <trkpt lat="45.5227" lon="5.93214">
        <ele>781.6</ele>
        <time>2014-04-04T10:36:16Z</time>
      </trkpt>
      <trkpt lat="45.52273" lon="5.93213">
        <ele>782.3</ele>
        <time>2014-04-04T10:36:18Z</time>
      </trkpt>
      <trkpt lat="45.52275" lon="5.93213">
        <ele>782.4</ele>
        <time>2014-04-04T10:36:20Z</time>
      </trkpt>
      <trkpt lat="45.52277" lon="5.93213">
        <ele>782.8</ele>
        <time>2014-04-04T10:36:22Z</time>
      </trkpt>
      <trkpt lat="45.52282" lon="5.93211">
        <ele>783.4</ele>
        <time>2014-04-04T10:36:24Z</time>
      </trkpt>
      <trkpt lat="45.52285" lon="5.9321">
        <ele>783.8</ele>
        <time>2014-04-04T10:36:26Z</time>
      </trkpt>
      <trkpt lat="45.52287" lon="5.9321">
        <ele>783.9</ele>
        <time>2014-04-04T10:36:28Z</time>
      </trkpt>
      <trkpt lat="45.52289" lon="5.93209">
        <ele>784.4</ele>
        <time>2014-04-04T10:36:30Z</time>
      </trkpt>
      <trkpt lat="45.52294" lon="5.93207">
        <ele>785.4</ele>
        <time>2014-04-04T10:36:32Z</time>
      </trkpt>
      <trkpt lat="45.52296" lon="5.93206">
        <ele>785.5</ele>
        <time>2014-04-04T10:36:34Z</time>
      </trkpt>
      <trkpt lat="45.52299" lon="5.93205">
        <ele>785.8</ele>
        <time>2014-04-04T10:36:36Z</time>
      </trkpt>
      <trkpt lat="45.52303" lon="5.93205">
        <ele>785.9</ele>
        <time>2014-04-04T10:36:38Z</time>
      </trkpt>
      <trkpt lat="45.52306" lon="5.93205">
        <ele>785.9</ele>
        <time>2014-04-04T10:36:40Z</time>
      </trkpt>
      <trkpt lat="45.52308" lon="5.93205">
        <ele>786.2</ele>
        <time>2014-04-04T10:36:42Z</time>
      </trkpt>
      <trkpt lat="45.52311" lon="5.93204">
        <ele>786.8</ele>
        <time>2014-04-04T10:36:44Z</time>
      </trkpt>
      <trkpt lat="45.52316" lon="5.93203">
        <ele>787.9</ele>
        <time>2014-04-04T10:36:46Z</time>
      </trkpt>
      <trkpt lat="45.52319" lon="5.93202">
        <ele>788.5</ele>
        <time>2014-04-04T10:36:48Z</time>
      </trkpt>
      <trkpt lat="45.52321" lon="5.93202">
        <ele>788.8</ele>
        <time>2014-04-04T10:36:50Z</time>
      </trkpt>
      <trkpt lat="45.52326" lon="5.932">
        <ele>790.1</ele>
        <time>2014-04-04T10:36:52Z</time>
      </trkpt>
      <trkpt lat="45.5233" lon="5.93198">
        <ele>791</ele>
        <time>2014-04-04T10:36:54Z</time>
      </trkpt>
      <trkpt lat="45.52334" lon="5.93195">
        <ele>791.8</ele>
        <time>2014-04-04T10:36:56Z</time>
      </trkpt>
      <trkpt lat="45.52337" lon="5.93193">
        <ele>792</ele>
        <time>2014-04-04T10:36:58Z</time>
      </trkpt>
      <trkpt lat="45.52341" lon="5.93188">
        <ele>792.4</ele>
        <time>2014-04-04T10:37:00Z</time>
      </trkpt>
      <trkpt lat="45.52346" lon="5.93179">
        <ele>793.3</ele>
        <time>2014-04-04T10:37:02Z</time>
      </trkpt>
      <trkpt lat="45.52347" lon="5.93176">
        <ele>793.5</ele>
        <time>2014-04-04T10:37:04Z</time>
      </trkpt>
      <trkpt lat="45.5235" lon="5.9317">
        <ele>794.1</ele>
        <time>2014-04-04T10:37:06Z</time>
      </trkpt>
      <trkpt lat="45.52352" lon="5.93165">
        <ele>794.7</ele>
        <time>2014-04-04T10:37:08Z</time>
      </trkpt>
      <trkpt lat="45.52355" lon="5.9316">
        <ele>796</ele>
        <time>2014-04-04T10:37:10Z</time>
      </trkpt>
      <trkpt lat="45.52357" lon="5.93158">
        <ele>796.3</ele>
        <time>2014-04-04T10:37:12Z</time>
      </trkpt>
      <trkpt lat="45.5236" lon="5.93156">
        <ele>796.8</ele>
        <time>2014-04-04T10:37:14Z</time>
      </trkpt>
      <trkpt lat="45.52364" lon="5.93153">
        <ele>797.8</ele>
        <time>2014-04-04T10:37:16Z</time>
      </trkpt>
      <trkpt lat="45.52367" lon="5.93152">
        <ele>798.5</ele>
        <time>2014-04-04T10:37:18Z</time>
      </trkpt>
      <trkpt lat="45.52369" lon="5.93151">
        <ele>798.8</ele>
        <time>2014-04-04T10:37:20Z</time>
      </trkpt>
      <trkpt lat="45.52374" lon="5.9315">
        <ele>799.5</ele>
        <time>2014-04-04T10:37:22Z</time>
      </trkpt>
      <trkpt lat="45.52377" lon="5.93152">
        <ele>799.4</ele>
        <time>2014-04-04T10:37:24Z</time>
      </trkpt>
      <trkpt lat="45.5238" lon="5.93155">
        <ele>799.2</ele>
        <time>2014-04-04T10:37:26Z</time>
      </trkpt>
      <trkpt lat="45.52382" lon="5.93156">
        <ele>799.1</ele>
        <time>2014-04-04T10:37:28Z</time>
      </trkpt>
      <trkpt lat="45.52388" lon="5.93161">
        <ele>798.9</ele>
        <time>2014-04-04T10:37:30Z</time>
      </trkpt>
      <trkpt lat="45.52391" lon="5.93164">
        <ele>799.6</ele>
        <time>2014-04-04T10:37:32Z</time>
      </trkpt>
      <trkpt lat="45.52393" lon="5.93165">
        <ele>799.9</ele>
        <time>2014-04-04T10:37:34Z</time>
      </trkpt>
      <trkpt lat="45.52396" lon="5.93167">
        <ele>801.1</ele>
        <time>2014-04-04T10:37:36Z</time>
      </trkpt>
      <trkpt lat="45.524" lon="5.93173">
        <ele>802.2</ele>
        <time>2014-04-04T10:37:38Z</time>
      </trkpt>
      <trkpt lat="45.52402" lon="5.93175">
        <ele>802.8</ele>
        <time>2014-04-04T10:37:40Z</time>
      </trkpt>
      <trkpt lat="45.52403" lon="5.93177">
        <ele>803</ele>
        <time>2014-04-04T10:37:42Z</time>
      </trkpt>
      <trkpt lat="45.52406" lon="5.9318">
        <ele>803.6</ele>
        <time>2014-04-04T10:37:44Z</time>
      </trkpt>
      <trkpt lat="45.5241" lon="5.93187">
        <ele>803.9</ele>
        <time>2014-04-04T10:37:46Z</time>
      </trkpt>
      <trkpt lat="45.52413" lon="5.93191">
        <ele>804.3</ele>
        <time>2014-04-04T10:37:48Z</time>
      </trkpt>
      <trkpt lat="45.52414" lon="5.93193">
        <ele>804.3</ele>
        <time>2014-04-04T10:37:50Z</time>
      </trkpt>
      <trkpt lat="45.52416" lon="5.93197">
        <ele>804.5</ele>
        <time>2014-04-04T10:37:52Z</time>
      </trkpt>
      <trkpt lat="45.5242" lon="5.93203">
        <ele>805.5</ele>
        <time>2014-04-04T10:37:54Z</time>
      </trkpt>
      <trkpt lat="45.52423" lon="5.93207">
        <ele>806.2</ele>
        <time>2014-04-04T10:37:56Z</time>
      </trkpt>
      <trkpt lat="45.52424" lon="5.93209">
        <ele>806.4</ele>
        <time>2014-04-04T10:37:58Z</time>
      </trkpt>
      <trkpt lat="45.52428" lon="5.93214">
        <ele>807.5</ele>
        <time>2014-04-04T10:38:00Z</time>
      </trkpt>
      <trkpt lat="45.5243" lon="5.93217">
        <ele>808.3</ele>
        <time>2014-04-04T10:38:02Z</time>
      </trkpt>
      <trkpt lat="45.52431" lon="5.93219">
        <ele>808.5</ele>
        <time>2014-04-04T10:38:04Z</time>
      </trkpt>
      <trkpt lat="45.52434" lon="5.93223">
        <ele>809.1</ele>
        <time>2014-04-04T10:38:06Z</time>
      </trkpt>
      <trkpt lat="45.52438" lon="5.93227">
        <ele>810.4</ele>
        <time>2014-04-04T10:38:08Z</time>
      </trkpt>
      <trkpt lat="45.52441" lon="5.9323">
        <ele>810.8</ele>
        <time>2014-04-04T10:38:10Z</time>
      </trkpt>
      <trkpt lat="45.52442" lon="5.93232">
        <ele>811.1</ele>
        <time>2014-04-04T10:38:12Z</time>
      </trkpt>
      <trkpt lat="45.52445" lon="5.93234">
        <ele>811.8</ele>
        <time>2014-04-04T10:38:14Z</time>
      </trkpt>
      <trkpt lat="45.5245" lon="5.93237">
        <ele>812.5</ele>
        <time>2014-04-04T10:38:16Z</time>
      </trkpt>
      <trkpt lat="45.52454" lon="5.93238">
        <ele>813</ele>
        <time>2014-04-04T10:38:18Z</time>
      </trkpt>
      <trkpt lat="45.52456" lon="5.93239">
        <ele>813.2</ele>
        <time>2014-04-04T10:38:20Z</time>
      </trkpt>
      <trkpt lat="45.52459" lon="5.93241">
        <ele>813.4</ele>
        <time>2014-04-04T10:38:22Z</time>
      </trkpt>
      <trkpt lat="45.52464" lon="5.93243">
        <ele>813.9</ele>
        <time>2014-04-04T10:38:24Z</time>
      </trkpt>
      <trkpt lat="45.52466" lon="5.93244">
        <ele>814</ele>
        <time>2014-04-04T10:38:26Z</time>
      </trkpt>
      <trkpt lat="45.52469" lon="5.93245">
        <ele>814.3</ele>
        <time>2014-04-04T10:38:28Z</time>
      </trkpt>
      <trkpt lat="45.52473" lon="5.93247">
        <ele>814.6</ele>
        <time>2014-04-04T10:38:30Z</time>
      </trkpt>
      <trkpt lat="45.52478" lon="5.93251">
        <ele>814.4</ele>
        <time>2014-04-04T10:38:32Z</time>
      </trkpt>
      <trkpt lat="45.5248" lon="5.93252">
        <ele>814.5</ele>
        <time>2014-04-04T10:38:34Z</time>
      </trkpt>
      <trkpt lat="45.52483" lon="5.93253">
        <ele>814.9</ele>
        <time>2014-04-04T10:38:36Z</time>
      </trkpt>
      <trkpt lat="45.52487" lon="5.93255">
        <ele>815.4</ele>
        <time>2014-04-04T10:38:38Z</time>
      </trkpt>
      <trkpt lat="45.52494" lon="5.93258">
        <ele>816.4</ele>
        <time>2014-04-04T10:38:40Z</time>
      </trkpt>
      <trkpt lat="45.52496" lon="5.93259">
        <ele>816.6</ele>
        <time>2014-04-04T10:38:42Z</time>
      </trkpt>
      <trkpt lat="45.525" lon="5.93262">
        <ele>817</ele>
        <time>2014-04-04T10:38:44Z</time>
      </trkpt>
      <trkpt lat="45.52506" lon="5.93264">
        <ele>817.2</ele>
        <time>2014-04-04T10:38:46Z</time>
      </trkpt>
      <trkpt lat="45.5251" lon="5.93266">
        <ele>817.5</ele>
        <time>2014-04-04T10:38:48Z</time>
      </trkpt>
      <trkpt lat="45.52511" lon="5.93267">
        <ele>817.5</ele>
        <time>2014-04-04T10:38:50Z</time>
      </trkpt>
      <trkpt lat="45.52514" lon="5.93269">
        <ele>817.6</ele>
        <time>2014-04-04T10:38:52Z</time>
      </trkpt>
      <trkpt lat="45.52521" lon="5.93271">
        <ele>818.5</ele>
        <time>2014-04-04T10:38:54Z</time>
      </trkpt>
      <trkpt lat="45.52523" lon="5.93272">
        <ele>818.9</ele>
        <time>2014-04-04T10:38:56Z</time>
      </trkpt>
      <trkpt lat="45.52526" lon="5.93274">
        <ele>819.3</ele>
        <time>2014-04-04T10:38:58Z</time>
      </trkpt>
      <trkpt lat="45.52532" lon="5.93276">
        <ele>819.7</ele>
        <time>2014-04-04T10:39:00Z</time>
      </trkpt>
      <trkpt lat="45.52536" lon="5.93277">
        <ele>819.7</ele>
        <time>2014-04-04T10:39:02Z</time>
      </trkpt>
      <trkpt lat="45.52539" lon="5.93278">
        <ele>819.8</ele>
        <time>2014-04-04T10:39:04Z</time>
      </trkpt>
      <trkpt lat="45.52544" lon="5.93279">
        <ele>819.7</ele>
        <time>2014-04-04T10:39:06Z</time>
      </trkpt>
      <trkpt lat="45.52553" lon="5.93281">
        <ele>819.9</ele>
        <time>2014-04-04T10:39:08Z</time>
      </trkpt>
      <trkpt lat="45.52562" lon="5.93282">
        <ele>819.9</ele>
        <time>2014-04-04T10:39:10Z</time>
      </trkpt>
      <trkpt lat="45.52566" lon="5.93283">
        <ele>819.8</ele>
        <time>2014-04-04T10:39:12Z</time>
      </trkpt>
      <trkpt lat="45.52578" lon="5.93286">
        <ele>818.8</ele>
        <time>2014-04-04T10:39:14Z</time>
      </trkpt>
      <trkpt lat="45.52586" lon="5.93289">
        <ele>818.2</ele>
        <time>2014-04-04T10:39:16Z</time>
      </trkpt>
      <trkpt lat="45.52595" lon="5.93292">
        <ele>817.9</ele>
        <time>2014-04-04T10:39:18Z</time>
      </trkpt>
      <trkpt lat="45.52599" lon="5.93294">
        <ele>817.8</ele>
        <time>2014-04-04T10:39:20Z</time>
      </trkpt>
      <trkpt lat="45.52613" lon="5.93299">
        <ele>817.1</ele>
        <time>2014-04-04T10:39:22Z</time>
      </trkpt>
      <trkpt lat="45.52623" lon="5.93304">
        <ele>816.8</ele>
        <time>2014-04-04T10:39:24Z</time>
      </trkpt>
      <trkpt lat="45.52629" lon="5.93306">
        <ele>816.7</ele>
        <time>2014-04-04T10:39:26Z</time>
      </trkpt>
      <trkpt lat="45.52647" lon="5.93312">
        <ele>816.4</ele>
        <time>2014-04-04T10:39:28Z</time>
      </trkpt>
      <trkpt lat="45.52661" lon="5.93316">
        <ele>816.2</ele>
        <time>2014-04-04T10:39:30Z</time>
      </trkpt>
      <trkpt lat="45.52675" lon="5.93323">
        <ele>815.7</ele>
        <time>2014-04-04T10:39:32Z</time>
      </trkpt>
      <trkpt lat="45.52681" lon="5.93326">
        <ele>815.4</ele>
        <time>2014-04-04T10:39:34Z</time>
      </trkpt>
      <trkpt lat="45.52694" lon="5.93333">
        <ele>815</ele>
        <time>2014-04-04T10:39:36Z</time>
      </trkpt>
      <trkpt lat="45.52711" lon="5.93331">
        <ele>813.1</ele>
        <time>2014-04-04T10:39:38Z</time>
      </trkpt>
      <trkpt lat="45.52721" lon="5.93321">
        <ele>813.5</ele>
        <time>2014-04-04T10:39:40Z</time>
      </trkpt>
      <trkpt lat="45.52727" lon="5.93319">
        <ele>813.9</ele>
        <time>2014-04-04T10:39:42Z</time>
      </trkpt>
      <trkpt lat="45.5274" lon="5.93329">
        <ele>813</ele>
        <time>2014-04-04T10:39:44Z</time>
      </trkpt>
      <trkpt lat="45.52755" lon="5.93343">
        <ele>810.9</ele>
        <time>2014-04-04T10:39:46Z</time>
      </trkpt>
      <trkpt lat="45.52761" lon="5.93343">
        <ele>810.6</ele>
        <time>2014-04-04T10:39:48Z</time>
      </trkpt>
      <trkpt lat="45.52773" lon="5.93342">
        <ele>810.5</ele>
        <time>2014-04-04T10:39:50Z</time>
      </trkpt>
      <trkpt lat="45.52793" lon="5.93339">
        <ele>809.8</ele>
        <time>2014-04-04T10:39:52Z</time>
      </trkpt>
      <trkpt lat="45.52808" lon="5.93339">
        <ele>808.9</ele>
        <time>2014-04-04T10:39:54Z</time>
      </trkpt>
      <trkpt lat="45.52816" lon="5.93341">
        <ele>808.5</ele>
        <time>2014-04-04T10:39:56Z</time>
      </trkpt>
      <trkpt lat="45.52832" lon="5.93346">
        <ele>807.3</ele>
        <time>2014-04-04T10:39:58Z</time>
      </trkpt>
      <trkpt lat="45.52855" lon="5.93356">
        <ele>805.6</ele>
        <time>2014-04-04T10:40:00Z</time>
      </trkpt>
      <trkpt lat="45.52869" lon="5.9336">
        <ele>804.5</ele>
        <time>2014-04-04T10:40:02Z</time>
      </trkpt>
      <trkpt lat="45.52876" lon="5.93361">
        <ele>804</ele>
        <time>2014-04-04T10:40:04Z</time>
      </trkpt>
      <trkpt lat="45.52885" lon="5.93356">
        <ele>803.7</ele>
        <time>2014-04-04T10:40:06Z</time>
      </trkpt>
      <trkpt lat="45.52894" lon="5.93337">
        <ele>802.8</ele>
        <time>2014-04-04T10:40:08Z</time>
      </trkpt>
      <trkpt lat="45.52898" lon="5.93323">
        <ele>802.5</ele>
        <time>2014-04-04T10:40:10Z</time>
      </trkpt>
      <trkpt lat="45.52902" lon="5.93317">
        <ele>801.8</ele>
        <time>2014-04-04T10:40:12Z</time>
      </trkpt>
      <trkpt lat="45.52912" lon="5.93311">
        <ele>799.5</ele>
        <time>2014-04-04T10:40:14Z</time>
      </trkpt>
      <trkpt lat="45.52924" lon="5.9331">
        <ele>797.8</ele>
        <time>2014-04-04T10:40:16Z</time>
      </trkpt>
      <trkpt lat="45.52928" lon="5.93311">
        <ele>797.2</ele>
        <time>2014-04-04T10:40:18Z</time>
      </trkpt>
      <trkpt lat="45.52937" lon="5.93315">
        <ele>795.7</ele>
        <time>2014-04-04T10:40:20Z</time>
      </trkpt>
      <trkpt lat="45.52948" lon="5.93318">
        <ele>793.5</ele>
        <time>2014-04-04T10:40:22Z</time>
      </trkpt>
      <trkpt lat="45.52965" lon="5.93319">
        <ele>789.7</ele>
        <time>2014-04-04T10:40:24Z</time>
      </trkpt>
      <trkpt lat="45.52969" lon="5.93318">
        <ele>789.2</ele>
        <time>2014-04-04T10:40:26Z</time>
      </trkpt>
      <trkpt lat="45.52975" lon="5.9331">
        <ele>788.2</ele>
        <time>2014-04-04T10:40:28Z</time>
      </trkpt>
      <trkpt lat="45.52983" lon="5.93295">
        <ele>786.2</ele>
        <time>2014-04-04T10:40:30Z</time>
      </trkpt>
      <trkpt lat="45.52988" lon="5.93288">
        <ele>785.2</ele>
        <time>2014-04-04T10:40:32Z</time>
      </trkpt>
      <trkpt lat="45.52992" lon="5.93287">
        <ele>784.1</ele>
        <time>2014-04-04T10:40:34Z</time>
      </trkpt>
      <trkpt lat="45.53005" lon="5.93293">
        <ele>778.9</ele>
        <time>2014-04-04T10:40:36Z</time>
      </trkpt>
      <trkpt lat="45.53016" lon="5.93301">
        <ele>775.9</ele>
        <time>2014-04-04T10:40:38Z</time>
      </trkpt>
      <trkpt lat="45.53025" lon="5.93307">
        <ele>773.6</ele>
        <time>2014-04-04T10:40:40Z</time>
      </trkpt>
      <trkpt lat="45.53029" lon="5.93311">
        <ele>772.3</ele>
        <time>2014-04-04T10:40:42Z</time>
      </trkpt>
      <trkpt lat="45.53037" lon="5.93318">
        <ele>770.1</ele>
        <time>2014-04-04T10:40:44Z</time>
      </trkpt>
      <trkpt lat="45.53045" lon="5.9332">
        <ele>768.9</ele>
        <time>2014-04-04T10:40:46Z</time>
      </trkpt>
      <trkpt lat="45.53047" lon="5.9332">
        <ele>768.7</ele>
        <time>2014-04-04T10:40:48Z</time>
      </trkpt>
      <trkpt lat="45.53051" lon="5.93319">
        <ele>768.8</ele>
        <time>2014-04-04T10:40:50Z</time>
      </trkpt>
      <trkpt lat="45.5305" lon="5.93318">
        <ele>769.2</ele>
        <time>2014-04-04T10:40:52Z</time>
      </trkpt>
      <trkpt lat="45.5305" lon="5.93317">
        <ele>769.4</ele>
        <time>2014-04-04T10:40:54Z</time>
      </trkpt>
      <trkpt lat="45.5305" lon="5.93317">
        <ele>769.5</ele>
        <time>2014-04-04T10:40:56Z</time>
      </trkpt>
      <trkpt lat="45.5305" lon="5.93316">
        <ele>769.7</ele>
        <time>2014-04-04T10:40:58Z</time>
      </trkpt>
      <trkpt lat="45.53049" lon="5.93315">
        <ele>770.1</ele>
        <time>2014-04-04T10:41:00Z</time>
      </trkpt>
      <trkpt lat="45.53049" lon="5.93314">
        <ele>770.3</ele>
        <time>2014-04-04T10:41:02Z</time>
      </trkpt>
      <trkpt lat="45.53049" lon="5.93314">
        <ele>770.4</ele>
        <time>2014-04-04T10:41:04Z</time>
      </trkpt>
      <trkpt lat="45.53049" lon="5.93313">
        <ele>770.6</ele>
        <time>2014-04-04T10:41:06Z</time>
      </trkpt>
      <trkpt lat="45.53048" lon="5.93312">
        <ele>770.8</ele>
        <time>2014-04-04T10:41:08Z</time>
      </trkpt>
      <trkpt lat="45.53048" lon="5.93312">
        <ele>770.9</ele>
        <time>2014-04-04T10:41:10Z</time>
      </trkpt>
      <trkpt lat="45.53048" lon="5.93312">
        <ele>770.9</ele>
        <time>2014-04-04T10:41:12Z</time>
      </trkpt>
      <trkpt lat="45.53048" lon="5.93312">
        <ele>770.9</ele>
        <time>2014-04-04T10:41:14Z</time>
      </trkpt>
      <trkpt lat="45.53049" lon="5.93311">
        <ele>771.1</ele>
        <time>2014-04-04T10:41:16Z</time>
      </trkpt>
      <trkpt lat="45.53051" lon="5.9331">
        <ele>771.2</ele>
        <time>2014-04-04T10:41:18Z</time>
      </trkpt>
      <trkpt lat="45.53058" lon="5.93311">
        <ele>769.7</ele>
        <time>2014-04-04T10:41:20Z</time>
      </trkpt>
      <trkpt lat="45.53072" lon="5.93306">
        <ele>765.5</ele>
        <time>2014-04-04T10:41:22Z</time>
      </trkpt>
      <trkpt lat="45.53081" lon="5.93295">
        <ele>763.9</ele>
        <time>2014-04-04T10:41:24Z</time>
      </trkpt>
      <trkpt lat="45.53086" lon="5.93288">
        <ele>762.8</ele>
        <time>2014-04-04T10:41:26Z</time>
      </trkpt>
      <trkpt lat="45.53097" lon="5.93274">
        <ele>760.3</ele>
        <time>2014-04-04T10:41:28Z</time>
      </trkpt>
      <trkpt lat="45.53115" lon="5.93253">
        <ele>757.3</ele>
        <time>2014-04-04T10:41:30Z</time>
      </trkpt>
      <trkpt lat="45.53125" lon="5.93245">
        <ele>755.9</ele>
        <time>2014-04-04T10:41:32Z</time>
      </trkpt>
      <trkpt lat="45.5313" lon="5.93245">
        <ele>754.5</ele>
        <time>2014-04-04T10:41:34Z</time>
      </trkpt>
      <trkpt lat="45.53148" lon="5.9325">
        <ele>749.3</ele>
        <time>2014-04-04T10:41:36Z</time>
      </trkpt>
      <trkpt lat="45.5316" lon="5.93251">
        <ele>747</ele>
        <time>2014-04-04T10:41:38Z</time>
      </trkpt>
      <trkpt lat="45.53166" lon="5.93248">
        <ele>746.4</ele>
        <time>2014-04-04T10:41:40Z</time>
      </trkpt>
      <trkpt lat="45.53179" lon="5.93248">
        <ele>745.9</ele>
        <time>2014-04-04T10:41:42Z</time>
      </trkpt>
      <trkpt lat="45.53198" lon="5.93265">
        <ele>741.5</ele>
        <time>2014-04-04T10:41:44Z</time>
      </trkpt>
      <trkpt lat="45.53213" lon="5.93278">
        <ele>739.4</ele>
        <time>2014-04-04T10:41:46Z</time>
      </trkpt>
      <trkpt lat="45.53221" lon="5.93284">
        <ele>738.3</ele>
        <time>2014-04-04T10:41:48Z</time>
      </trkpt>
      <trkpt lat="45.53237" lon="5.93295">
        <ele>735</ele>
        <time>2014-04-04T10:41:50Z</time>
      </trkpt>
      <trkpt lat="45.53251" lon="5.93301">
        <ele>733.5</ele>
        <time>2014-04-04T10:41:52Z</time>
      </trkpt>
      <trkpt lat="45.53272" lon="5.93305">
        <ele>731.5</ele>
        <time>2014-04-04T10:41:54Z</time>
      </trkpt>
      <trkpt lat="45.53279" lon="5.93307">
        <ele>730.6</ele>
        <time>2014-04-04T10:41:56Z</time>
      </trkpt>
      <trkpt lat="45.53301" lon="5.93308">
        <ele>728.8</ele>
        <time>2014-04-04T10:41:58Z</time>
      </trkpt>
      <trkpt lat="45.53316" lon="5.93306">
        <ele>727.7</ele>
        <time>2014-04-04T10:42:00Z</time>
      </trkpt>
      <trkpt lat="45.53333" lon="5.93304">
        <ele>726.3</ele>
        <time>2014-04-04T10:42:02Z</time>
      </trkpt>
      <trkpt lat="45.53342" lon="5.93302">
        <ele>724.8</ele>
        <time>2014-04-04T10:42:04Z</time>
      </trkpt>
      <trkpt lat="45.53361" lon="5.93297">
        <ele>721.9</ele>
        <time>2014-04-04T10:42:06Z</time>
      </trkpt>
      <trkpt lat="45.5339" lon="5.93301">
        <ele>717.5</ele>
        <time>2014-04-04T10:42:08Z</time>
      </trkpt>
      <trkpt lat="45.53399" lon="5.93306">
        <ele>715.9</ele>
        <time>2014-04-04T10:42:10Z</time>
      </trkpt>
      <trkpt lat="45.53417" lon="5.93314">
        <ele>713.4</ele>
        <time>2014-04-04T10:42:12Z</time>
      </trkpt>
      <trkpt lat="45.53445" lon="5.93327">
        <ele>709.2</ele>
        <time>2014-04-04T10:42:14Z</time>
      </trkpt>
      <trkpt lat="45.53463" lon="5.93332">
        <ele>706.3</ele>
        <time>2014-04-04T10:42:16Z</time>
      </trkpt>
      <trkpt lat="45.5347" lon="5.93332">
        <ele>705.6</ele>
        <time>2014-04-04T10:42:18Z</time>
      </trkpt>
      <trkpt lat="45.53481" lon="5.93326">
        <ele>703.7</ele>
        <time>2014-04-04T10:42:20Z</time>
      </trkpt>
      <trkpt lat="45.53501" lon="5.9332">
        <ele>699.3</ele>
        <time>2014-04-04T10:42:22Z</time>
      </trkpt>
      <trkpt lat="45.53516" lon="5.93319">
        <ele>696.4</ele>
        <time>2014-04-04T10:42:24Z</time>
      </trkpt>
      <trkpt lat="45.53524" lon="5.93321">
        <ele>694.1</ele>
        <time>2014-04-04T10:42:26Z</time>
      </trkpt>
      <trkpt lat="45.53546" lon="5.93326">
        <ele>689.4</ele>
        <time>2014-04-04T10:42:28Z</time>
      </trkpt>
      <trkpt lat="45.53553" lon="5.9333">
        <ele>687.2</ele>
        <time>2014-04-04T10:42:30Z</time>
      </trkpt>
      <trkpt lat="45.53555" lon="5.93337">
        <ele>685.3</ele>
        <time>2014-04-04T10:42:32Z</time>
      </trkpt>
      <trkpt lat="45.53554" lon="5.9334">
        <ele>684.7</ele>
        <time>2014-04-04T10:42:34Z</time>
      </trkpt>
      <trkpt lat="45.53551" lon="5.93346">
        <ele>683.9</ele>
        <time>2014-04-04T10:42:36Z</time>
      </trkpt>
      <trkpt lat="45.53544" lon="5.93361">
        <ele>681.2</ele>
        <time>2014-04-04T10:42:38Z</time>
      </trkpt>
      <trkpt lat="45.53541" lon="5.9337">
        <ele>679.5</ele>
        <time>2014-04-04T10:42:40Z</time>
      </trkpt>
      <trkpt lat="45.53533" lon="5.93389">
        <ele>675.4</ele>
        <time>2014-04-04T10:42:42Z</time>
      </trkpt>
      <trkpt lat="45.53526" lon="5.93411">
        <ele>672.6</ele>
        <time>2014-04-04T10:42:44Z</time>
      </trkpt>
      <trkpt lat="45.53526" lon="5.93423">
        <ele>670.7</ele>
        <time>2014-04-04T10:42:46Z</time>
      </trkpt>
      <trkpt lat="45.53527" lon="5.93429">
        <ele>669.4</ele>
        <time>2014-04-04T10:42:48Z</time>
      </trkpt>
      <trkpt lat="45.53525" lon="5.93447">
        <ele>667.2</ele>
        <time>2014-04-04T10:42:50Z</time>
      </trkpt>
      <trkpt lat="45.53522" lon="5.93466">
        <ele>663.9</ele>
        <time>2014-04-04T10:42:52Z</time>
      </trkpt>
      <trkpt lat="45.53523" lon="5.93487">
        <ele>661.1</ele>
        <time>2014-04-04T10:42:54Z</time>
      </trkpt>
      <trkpt lat="45.53525" lon="5.9349">
        <ele>660.3</ele>
        <time>2014-04-04T10:42:56Z</time>
      </trkpt>
      <trkpt lat="45.53532" lon="5.93489">
        <ele>659</ele>
        <time>2014-04-04T10:42:58Z</time>
      </trkpt>
      <trkpt lat="45.53538" lon="5.93484">
        <ele>658.1</ele>
        <time>2014-04-04T10:43:00Z</time>
      </trkpt>
      <trkpt lat="45.53543" lon="5.93482">
        <ele>657.3</ele>
        <time>2014-04-04T10:43:02Z</time>
      </trkpt>
      <trkpt lat="45.53553" lon="5.93483">
        <ele>655.3</ele>
        <time>2014-04-04T10:43:04Z</time>
      </trkpt>
      <trkpt lat="45.53563" lon="5.93487">
        <ele>652.8</ele>
        <time>2014-04-04T10:43:06Z</time>
      </trkpt>
      <trkpt lat="45.53581" lon="5.93493">
        <ele>646.8</ele>
        <time>2014-04-04T10:43:08Z</time>
      </trkpt>
      <trkpt lat="45.53586" lon="5.93496">
        <ele>644.7</ele>
        <time>2014-04-04T10:43:10Z</time>
      </trkpt>
      <trkpt lat="45.53596" lon="5.93498">
        <ele>642.2</ele>
        <time>2014-04-04T10:43:12Z</time>
      </trkpt>
      <trkpt lat="45.53609" lon="5.93502">
        <ele>639.1</ele>
        <time>2014-04-04T10:43:14Z</time>
      </trkpt>
      <trkpt lat="45.53619" lon="5.93499">
        <ele>637.5</ele>
        <time>2014-04-04T10:43:16Z</time>
      </trkpt>
      <trkpt lat="45.53625" lon="5.93498">
        <ele>636.2</ele>
        <time>2014-04-04T10:43:18Z</time>
      </trkpt>
      <trkpt lat="45.53637" lon="5.93501">
        <ele>633.3</ele>
        <time>2014-04-04T10:43:20Z</time>
      </trkpt>
      <trkpt lat="45.53651" lon="5.93522">
        <ele>626.9</ele>
        <time>2014-04-04T10:43:22Z</time>
      </trkpt>
      <trkpt lat="45.5366" lon="5.93534">
        <ele>624.3</ele>
        <time>2014-04-04T10:43:24Z</time>
      </trkpt>
      <trkpt lat="45.53665" lon="5.93538">
        <ele>622.9</ele>
        <time>2014-04-04T10:43:26Z</time>
      </trkpt>
      <trkpt lat="45.53682" lon="5.93542">
        <ele>619.4</ele>
        <time>2014-04-04T10:43:28Z</time>
      </trkpt>
      <trkpt lat="45.53689" lon="5.93545">
        <ele>618.2</ele>
        <time>2014-04-04T10:43:30Z</time>
      </trkpt>
      <trkpt lat="45.53691" lon="5.93545">
        <ele>617.9</ele>
        <time>2014-04-04T10:43:32Z</time>
      </trkpt>
      <trkpt lat="45.53693" lon="5.93549">
        <ele>617.2</ele>
        <time>2014-04-04T10:43:34Z</time>
      </trkpt>
      <trkpt lat="45.53698" lon="5.93553">
        <ele>617.4</ele>
        <time>2014-04-04T10:43:36Z</time>
      </trkpt>
      <trkpt lat="45.53701" lon="5.93556">
        <ele>618</ele>
        <time>2014-04-04T10:43:38Z</time>
      </trkpt>
      <trkpt lat="45.53702" lon="5.93558">
        <ele>617.8</ele>
        <time>2014-04-04T10:43:40Z</time>
      </trkpt>
      <trkpt lat="45.53701" lon="5.93559">
        <ele>617.4</ele>
        <time>2014-04-04T10:43:42Z</time>
      </trkpt>
      <trkpt lat="45.537" lon="5.93559">
        <ele>617.1</ele>
        <time>2014-04-04T10:43:44Z</time>
      </trkpt>
      <trkpt lat="45.537" lon="5.93559">
        <ele>617</ele>
        <time>2014-04-04T10:43:46Z</time>
      </trkpt>
      <trkpt lat="45.537" lon="5.93559">
        <ele>617</ele>
        <time>2014-04-04T10:43:48Z</time>
      </trkpt>
      <trkpt lat="45.53701" lon="5.93561">
        <ele>617</ele>
        <time>2014-04-04T10:43:50Z</time>
      </trkpt>
      <trkpt lat="45.53702" lon="5.93566">
        <ele>616.6</ele>
        <time>2014-04-04T10:43:52Z</time>
      </trkpt>
      <trkpt lat="45.53703" lon="5.93574">
        <ele>615.5</ele>
        <time>2014-04-04T10:43:54Z</time>
      </trkpt>
      <trkpt lat="45.53702" lon="5.93579">
        <ele>614.5</ele>
        <time>2014-04-04T10:43:56Z</time>
      </trkpt>
      <trkpt lat="45.53698" lon="5.93589">
        <ele>611.7</ele>
        <time>2014-04-04T10:43:58Z</time>
      </trkpt>
      <trkpt lat="45.53688" lon="5.9361">
        <ele>607.7</ele>
        <time>2014-04-04T10:44:00Z</time>
      </trkpt>
      <trkpt lat="45.53684" lon="5.93617">
        <ele>606.6</ele>
        <time>2014-04-04T10:44:02Z</time>
      </trkpt>
      <trkpt lat="45.53678" lon="5.93633">
        <ele>603.7</ele>
        <time>2014-04-04T10:44:04Z</time>
      </trkpt>
      <trkpt lat="45.53667" lon="5.93653">
        <ele>598.5</ele>
        <time>2014-04-04T10:44:06Z</time>
      </trkpt>
      <trkpt lat="45.53655" lon="5.93667">
        <ele>595.9</ele>
        <time>2014-04-04T10:44:08Z</time>
      </trkpt>
      <trkpt lat="45.53649" lon="5.93673">
        <ele>594.4</ele>
        <time>2014-04-04T10:44:10Z</time>
      </trkpt>
      <trkpt lat="45.53638" lon="5.93687">
        <ele>591.2</ele>
        <time>2014-04-04T10:44:12Z</time>
      </trkpt>
      <trkpt lat="45.53619" lon="5.93706">
        <ele>587.2</ele>
        <time>2014-04-04T10:44:14Z</time>
      </trkpt>
      <trkpt lat="45.53607" lon="5.93717">
        <ele>584.9</ele>
        <time>2014-04-04T10:44:16Z</time>
      </trkpt>
      <trkpt lat="45.53601" lon="5.93722">
        <ele>583.8</ele>
        <time>2014-04-04T10:44:18Z</time>
      </trkpt>
      <trkpt lat="45.53584" lon="5.93744">
        <ele>578.8</ele>
        <time>2014-04-04T10:44:20Z</time>
      </trkpt>
      <trkpt lat="45.53575" lon="5.93755">
        <ele>576</ele>
        <time>2014-04-04T10:44:22Z</time>
      </trkpt>
      <trkpt lat="45.53566" lon="5.93763">
        <ele>574.1</ele>
        <time>2014-04-04T10:44:24Z</time>
      </trkpt>
      <trkpt lat="45.53564" lon="5.93765">
        <ele>573.7</ele>
        <time>2014-04-04T10:44:26Z</time>
      </trkpt>
      <trkpt lat="45.53564" lon="5.93766">
        <ele>573.6</ele>
        <time>2014-04-04T10:44:28Z</time>
      </trkpt>
      <trkpt lat="45.53563" lon="5.93767">
        <ele>573.2</ele>
        <time>2014-04-04T10:44:30Z</time>
      </trkpt>
      <trkpt lat="45.53563" lon="5.93768">
        <ele>573.2</ele>
        <time>2014-04-04T10:44:32Z</time>
      </trkpt>
      <trkpt lat="45.53564" lon="5.93768">
        <ele>573</ele>
        <time>2014-04-04T10:44:34Z</time>
      </trkpt>
      <trkpt lat="45.53564" lon="5.93768">
        <ele>573.1</ele>
        <time>2014-04-04T10:44:36Z</time>
      </trkpt>
      <trkpt lat="45.53564" lon="5.93768">
        <ele>573</ele>
        <time>2014-04-04T10:44:38Z</time>
      </trkpt>
      <trkpt lat="45.53564" lon="5.93768">
        <ele>573.1</ele>
        <time>2014-04-04T10:44:40Z</time>
      </trkpt>
      <trkpt lat="45.53564" lon="5.93768">
        <ele>573</ele>
        <time>2014-04-04T10:44:42Z</time>
      </trkpt>
      <trkpt lat="45.5356" lon="5.93771">
        <ele>572.4</ele>
        <time>2014-04-04T10:44:44Z</time>
      </trkpt>
      <trkpt lat="45.53554" lon="5.93778">
        <ele>571</ele>
        <time>2014-04-04T10:44:46Z</time>
      </trkpt>
      <trkpt lat="45.53552" lon="5.93783">
        <ele>569.9</ele>
        <time>2014-04-04T10:44:48Z</time>
      </trkpt>
      <trkpt lat="45.53545" lon="5.93794">
        <ele>567.6</ele>
        <time>2014-04-04T10:44:50Z</time>
      </trkpt>
      <trkpt lat="45.53544" lon="5.93798">
        <ele>566.6</ele>
        <time>2014-04-04T10:44:52Z</time>
      </trkpt>
      <trkpt lat="45.53544" lon="5.93799">
        <ele>566.5</ele>
        <time>2014-04-04T10:44:54Z</time>
      </trkpt>
      <trkpt lat="45.53544" lon="5.93798">
        <ele>566.5</ele>
        <time>2014-04-04T10:44:56Z</time>
      </trkpt>
      <trkpt lat="45.53545" lon="5.93798">
        <ele>566.7</ele>
        <time>2014-04-04T10:44:58Z</time>
      </trkpt>
      <trkpt lat="45.53545" lon="5.93797">
        <ele>566.7</ele>
        <time>2014-04-04T10:45:00Z</time>
      </trkpt>
      <trkpt lat="45.53545" lon="5.93797">
        <ele>566.8</ele>
        <time>2014-04-04T10:45:02Z</time>
      </trkpt>
      <trkpt lat="45.53545" lon="5.93797">
        <ele>566.8</ele>
        <time>2014-04-04T10:45:04Z</time>
      </trkpt>
      <trkpt lat="45.53545" lon="5.93797">
        <ele>566.9</ele>
        <time>2014-04-04T10:45:06Z</time>
      </trkpt>
      <trkpt lat="45.53545" lon="5.93796">
        <ele>567</ele>
        <time>2014-04-04T10:45:08Z</time>
      </trkpt>
      <trkpt lat="45.53545" lon="5.93796">
        <ele>567</ele>
        <time>2014-04-04T10:45:12Z</time>
      </trkpt>
      <trkpt lat="45.53545" lon="5.93796">
        <ele>567.1</ele>
        <time>2014-04-04T10:45:14Z</time>
      </trkpt>
      <trkpt lat="45.53545" lon="5.93796">
        <ele>567.1</ele>
        <time>2014-04-04T10:45:16Z</time>
      </trkpt>
      <trkpt lat="45.53545" lon="5.93796">
        <ele>567</ele>
        <time>2014-04-04T10:45:18Z</time>
      </trkpt>
      <trkpt lat="45.53546" lon="5.93802">
        <ele>565.5</ele>
        <time>2014-04-04T10:45:20Z</time>
      </trkpt>
      <trkpt lat="45.53547" lon="5.93807">
        <ele>564.2</ele>
        <time>2014-04-04T10:45:22Z</time>
      </trkpt>
      <trkpt lat="45.53549" lon="5.93809">
        <ele>563.4</ele>
        <time>2014-04-04T10:45:24Z</time>
      </trkpt>
      <trkpt lat="45.53555" lon="5.93816">
        <ele>561.1</ele>
        <time>2014-04-04T10:45:26Z</time>
      </trkpt>
      <trkpt lat="45.53564" lon="5.93824">
        <ele>558.4</ele>
        <time>2014-04-04T10:45:28Z</time>
      </trkpt>
      <trkpt lat="45.53566" lon="5.93825">
        <ele>557.9</ele>
        <time>2014-04-04T10:45:30Z</time>
      </trkpt>
      <trkpt lat="45.53567" lon="5.93826">
        <ele>557.7</ele>
        <time>2014-04-04T10:45:32Z</time>
      </trkpt>
      <trkpt lat="45.53569" lon="5.93826">
        <ele>557.6</ele>
        <time>2014-04-04T10:45:34Z</time>
      </trkpt>
      <trkpt lat="45.53569" lon="5.93826">
        <ele>557.6</ele>
        <time>2014-04-04T10:45:36Z</time>
      </trkpt>
      <trkpt lat="45.53569" lon="5.93825">
        <ele>557.7</ele>
        <time>2014-04-04T10:45:38Z</time>
      </trkpt>
      <trkpt lat="45.53568" lon="5.93825">
        <ele>557.7</ele>
        <time>2014-04-04T10:45:40Z</time>
      </trkpt>
      <trkpt lat="45.53568" lon="5.93825">
        <ele>557.8</ele>
        <time>2014-04-04T10:45:42Z</time>
      </trkpt>
      <trkpt lat="45.5357" lon="5.93825">
        <ele>557.7</ele>
        <time>2014-04-04T10:45:46Z</time>
      </trkpt>
      <trkpt lat="45.53573" lon="5.93826">
        <ele>557.4</ele>
        <time>2014-04-04T10:45:48Z</time>
      </trkpt>
      <trkpt lat="45.53581" lon="5.93829">
        <ele>556.2</ele>
        <time>2014-04-04T10:45:50Z</time>
      </trkpt>
      <trkpt lat="45.53594" lon="5.93836">
        <ele>554.5</ele>
        <time>2014-04-04T10:45:52Z</time>
      </trkpt>
      <trkpt lat="45.53596" lon="5.93838">
        <ele>553.9</ele>
        <time>2014-04-04T10:45:54Z</time>
      </trkpt>
      <trkpt lat="45.53599" lon="5.93846">
        <ele>552.4</ele>
        <time>2014-04-04T10:45:56Z</time>
      </trkpt>
      <trkpt lat="45.53591" lon="5.93855">
        <ele>550.1</ele>
        <time>2014-04-04T10:45:58Z</time>
      </trkpt>
      <trkpt lat="45.53586" lon="5.93859">
        <ele>548.7</ele>
        <time>2014-04-04T10:46:00Z</time>
      </trkpt>
      <trkpt lat="45.53584" lon="5.93862">
        <ele>547.9</ele>
        <time>2014-04-04T10:46:02Z</time>
      </trkpt>
      <trkpt lat="45.53576" lon="5.93868">
        <ele>546.6</ele>
        <time>2014-04-04T10:46:04Z</time>
      </trkpt>
      <trkpt lat="45.53559" lon="5.93879">
        <ele>543.4</ele>
        <time>2014-04-04T10:46:06Z</time>
      </trkpt>
      <trkpt lat="45.53545" lon="5.9389">
        <ele>541.4</ele>
        <time>2014-04-04T10:46:08Z</time>
      </trkpt>
      <trkpt lat="45.53538" lon="5.93897">
        <ele>540</ele>
        <time>2014-04-04T10:46:10Z</time>
      </trkpt>
      <trkpt lat="45.53524" lon="5.93913">
        <ele>537.5</ele>
        <time>2014-04-04T10:46:12Z</time>
      </trkpt>
      <trkpt lat="45.53508" lon="5.93935">
        <ele>534.5</ele>
        <time>2014-04-04T10:46:14Z</time>
      </trkpt>
      <trkpt lat="45.53504" lon="5.93941">
        <ele>533.4</ele>
        <time>2014-04-04T10:46:16Z</time>
      </trkpt>
      <trkpt lat="45.53501" lon="5.93948">
        <ele>532.2</ele>
        <time>2014-04-04T10:46:18Z</time>
      </trkpt>
      <trkpt lat="45.535" lon="5.93948">
        <ele>532.3</ele>
        <time>2014-04-04T10:46:20Z</time>
      </trkpt>
      <trkpt lat="45.535" lon="5.93946">
        <ele>532.6</ele>
        <time>2014-04-04T10:46:22Z</time>
      </trkpt>
      <trkpt lat="45.535" lon="5.93946">
        <ele>532.7</ele>
        <time>2014-04-04T10:46:24Z</time>
      </trkpt>
      <trkpt lat="45.535" lon="5.93945">
        <ele>532.8</ele>
        <time>2014-04-04T10:46:26Z</time>
      </trkpt>
      <trkpt lat="45.535" lon="5.93944">
        <ele>533.1</ele>
        <time>2014-04-04T10:46:28Z</time>
      </trkpt>
      <trkpt lat="45.535" lon="5.93944">
        <ele>533.1</ele>
        <time>2014-04-04T10:46:30Z</time>
      </trkpt>
      <trkpt lat="45.535" lon="5.93944">
        <ele>533.2</ele>
        <time>2014-04-04T10:46:32Z</time>
      </trkpt>
      <trkpt lat="45.535" lon="5.93943">
        <ele>533.3</ele>
        <time>2014-04-04T10:46:34Z</time>
      </trkpt>
      <trkpt lat="45.535" lon="5.93943">
        <ele>533.4</ele>
        <time>2014-04-04T10:46:36Z</time>
      </trkpt>
      <trkpt lat="45.535" lon="5.93943">
        <ele>533.4</ele>
        <time>2014-04-04T10:46:38Z</time>
      </trkpt>
      <trkpt lat="45.535" lon="5.93943">
        <ele>533.4</ele>
        <time>2014-04-04T10:46:40Z</time>
      </trkpt>
      <trkpt lat="45.535" lon="5.93943">
        <ele>533.4</ele>
        <time>2014-04-04T10:46:42Z</time>
      </trkpt>
      <trkpt lat="45.535" lon="5.93943">
        <ele>533.5</ele>
        <time>2014-04-04T10:46:44Z</time>
      </trkpt>
      <trkpt lat="45.535" lon="5.93942">
        <ele>533.5</ele>
        <time>2014-04-04T10:46:46Z</time>
      </trkpt>
      <trkpt lat="45.535" lon="5.93942">
        <ele>533.5</ele>
        <time>2014-04-04T10:46:50Z</time>
      </trkpt>
      <trkpt lat="45.535" lon="5.93942">
        <ele>533.6</ele>
        <time>2014-04-04T10:46:52Z</time>
      </trkpt>
      <trkpt lat="45.535" lon="5.93942">
        <ele>533.6</ele>
        <time>2014-04-04T10:46:58Z</time>
      </trkpt>
      <trkpt lat="45.535" lon="5.93942">
        <ele>533.6</ele>
        <time>2014-04-04T10:47:00Z</time>
      </trkpt>
      <trkpt lat="45.535" lon="5.93942">
        <ele>533.5</ele>
        <time>2014-04-04T10:47:02Z</time>
      </trkpt>
      <trkpt lat="45.535" lon="5.93942">
        <ele>533.6</ele>
        <time>2014-04-04T10:47:06Z</time>
      </trkpt>
      <trkpt lat="45.535" lon="5.93941">
        <ele>533.6</ele>
        <time>2014-04-04T10:47:08Z</time>
      </trkpt>
      <trkpt lat="45.535" lon="5.93941">
        <ele>533.7</ele>
        <time>2014-04-04T10:47:10Z</time>
      </trkpt>
      <trkpt lat="45.53501" lon="5.93942">
        <ele>533.5</ele>
        <time>2014-04-04T10:47:14Z</time>
      </trkpt>
      <trkpt lat="45.53501" lon="5.93942">
        <ele>533.5</ele>
        <time>2014-04-04T10:47:16Z</time>
      </trkpt>
      <trkpt lat="45.53502" lon="5.93942">
        <ele>533.5</ele>
        <time>2014-04-04T10:47:18Z</time>
      </trkpt>
      <trkpt lat="45.53501" lon="5.93941">
        <ele>533.6</ele>
        <time>2014-04-04T10:47:20Z</time>
      </trkpt>
      <trkpt lat="45.53501" lon="5.93941">
        <ele>533.7</ele>
        <time>2014-04-04T10:47:24Z</time>
      </trkpt>
      <trkpt lat="45.53501" lon="5.93941">
        <ele>533.7</ele>
        <time>2014-04-04T10:47:26Z</time>
      </trkpt>
      <trkpt lat="45.53501" lon="5.93941">
        <ele>533.8</ele>
        <time>2014-04-04T10:47:28Z</time>
      </trkpt>
      <trkpt lat="45.53501" lon="5.93941">
        <ele>533.8</ele>
        <time>2014-04-04T10:47:30Z</time>
      </trkpt>
      <trkpt lat="45.53501" lon="5.93941">
        <ele>533.6</ele>
        <time>2014-04-04T10:47:34Z</time>
      </trkpt>
      <trkpt lat="45.53501" lon="5.93941">
        <ele>533.6</ele>
        <time>2014-04-04T10:47:36Z</time>
      </trkpt>
      <trkpt lat="45.53502" lon="5.93941">
        <ele>533.6</ele>
        <time>2014-04-04T10:47:40Z</time>
      </trkpt>
      <trkpt lat="45.53502" lon="5.93941">
        <ele>533.6</ele>
        <time>2014-04-04T10:47:42Z</time>
      </trkpt>
      <trkpt lat="45.53502" lon="5.93941">
        <ele>533.6</ele>
        <time>2014-04-04T10:47:44Z</time>
      </trkpt>
      <trkpt lat="45.53502" lon="5.93941">
        <ele>533.6</ele>
        <time>2014-04-04T10:47:46Z</time>
      </trkpt>
      <trkpt lat="45.53502" lon="5.93941">
        <ele>533.6</ele>
        <time>2014-04-04T10:47:48Z</time>
      </trkpt>
      <trkpt lat="45.53502" lon="5.93941">
        <ele>533.6</ele>
        <time>2014-04-04T10:47:50Z</time>
      </trkpt>
      <trkpt lat="45.53502" lon="5.93941">
        <ele>533.6</ele>
        <time>2014-04-04T10:47:58Z</time>
      </trkpt>
      <trkpt lat="45.53502" lon="5.93941">
        <ele>533.6</ele>
        <time>2014-04-04T10:48:00Z</time>
      </trkpt>
      <trkpt lat="45.53502" lon="5.93941">
        <ele>533.7</ele>
        <time>2014-04-04T10:48:06Z</time>
      </trkpt>
      <trkpt lat="45.53502" lon="5.93941">
        <ele>533.7</ele>
        <time>2014-04-04T10:48:10Z</time>
      </trkpt>
      <trkpt lat="45.53502" lon="5.9394">
        <ele>533.8</ele>
        <time>2014-04-04T10:48:12Z</time>
      </trkpt>
      <trkpt lat="45.53502" lon="5.9394">
        <ele>533.8</ele>
        <time>2014-04-04T10:48:16Z</time>
      </trkpt>
      <trkpt lat="45.53502" lon="5.9394">
        <ele>533.8</ele>
        <time>2014-04-04T10:48:20Z</time>
      </trkpt>
      <trkpt lat="45.53502" lon="5.9394">
        <ele>533.8</ele>
        <time>2014-04-04T10:48:22Z</time>
      </trkpt>
      <trkpt lat="45.53502" lon="5.9394">
        <ele>533.8</ele>
        <time>2014-04-04T10:48:24Z</time>
      </trkpt>
      <trkpt lat="45.53502" lon="5.93941">
        <ele>533.6</ele>
        <time>2014-04-04T10:48:26Z</time>
      </trkpt>
      <trkpt lat="45.53502" lon="5.93941">
        <ele>533.6</ele>
        <time>2014-04-04T10:48:28Z</time>
      </trkpt>
      <trkpt lat="45.53502" lon="5.93941">
        <ele>533.5</ele>
        <time>2014-04-04T10:48:30Z</time>
      </trkpt>
      <trkpt lat="45.53502" lon="5.93941">
        <ele>533.5</ele>
        <time>2014-04-04T10:48:32Z</time>
      </trkpt>
      <trkpt lat="45.53503" lon="5.93941">
        <ele>533.5</ele>
        <time>2014-04-04T10:48:34Z</time>
      </trkpt>
      <trkpt lat="45.53503" lon="5.93941">
        <ele>533.6</ele>
        <time>2014-04-04T10:48:36Z</time>
      </trkpt>
      <trkpt lat="45.53503" lon="5.93941">
        <ele>533.6</ele>
        <time>2014-04-04T10:48:38Z</time>
      </trkpt>
      <trkpt lat="45.53503" lon="5.93941">
        <ele>533.6</ele>
        <time>2014-04-04T10:48:40Z</time>
      </trkpt>
      <trkpt lat="45.53504" lon="5.93941">
        <ele>533.5</ele>
        <time>2014-04-04T10:48:42Z</time>
      </trkpt>
      <trkpt lat="45.53504" lon="5.93942">
        <ele>533.3</ele>
        <time>2014-04-04T10:48:44Z</time>
      </trkpt>
      <trkpt lat="45.53504" lon="5.93942">
        <ele>533.3</ele>
        <time>2014-04-04T10:48:48Z</time>
      </trkpt>
      <trkpt lat="45.53504" lon="5.93942">
        <ele>533.3</ele>
        <time>2014-04-04T10:48:50Z</time>
      </trkpt>
      <trkpt lat="45.53504" lon="5.93942">
        <ele>533.3</ele>
        <time>2014-04-04T10:48:56Z</time>
      </trkpt>
      <trkpt lat="45.53503" lon="5.93942">
        <ele>533.3</ele>
        <time>2014-04-04T10:48:58Z</time>
      </trkpt>
      <trkpt lat="45.53503" lon="5.93942">
        <ele>533.3</ele>
        <time>2014-04-04T10:49:00Z</time>
      </trkpt>
      <trkpt lat="45.53503" lon="5.93942">
        <ele>533.3</ele>
        <time>2014-04-04T10:49:04Z</time>
      </trkpt>
      <trkpt lat="45.53503" lon="5.93943">
        <ele>533.2</ele>
        <time>2014-04-04T10:49:06Z</time>
      </trkpt>
      <trkpt lat="45.53503" lon="5.93943">
        <ele>533.1</ele>
        <time>2014-04-04T10:49:08Z</time>
      </trkpt>
      <trkpt lat="45.53503" lon="5.93943">
        <ele>533.1</ele>
        <time>2014-04-04T10:49:10Z</time>
      </trkpt>
      <trkpt lat="45.53503" lon="5.93943">
        <ele>533</ele>
        <time>2014-04-04T10:49:12Z</time>
      </trkpt>
      <trkpt lat="45.53503" lon="5.93943">
        <ele>533</ele>
        <time>2014-04-04T10:49:14Z</time>
      </trkpt>
      <trkpt lat="45.53503" lon="5.93944">
        <ele>533</ele>
        <time>2014-04-04T10:49:18Z</time>
      </trkpt>
      <trkpt lat="45.53503" lon="5.93943">
        <ele>533</ele>
        <time>2014-04-04T10:49:20Z</time>
      </trkpt>
      <trkpt lat="45.53504" lon="5.93943">
        <ele>533</ele>
        <time>2014-04-04T10:49:22Z</time>
      </trkpt>
      <trkpt lat="45.53504" lon="5.93943">
        <ele>533</ele>
        <time>2014-04-04T10:49:26Z</time>
      </trkpt>
      <trkpt lat="45.53504" lon="5.93943">
        <ele>533.1</ele>
        <time>2014-04-04T10:49:28Z</time>
      </trkpt>
      <trkpt lat="45.53504" lon="5.93943">
        <ele>533.1</ele>
        <time>2014-04-04T10:49:30Z</time>
      </trkpt>
      <trkpt lat="45.53504" lon="5.93943">
        <ele>533.1</ele>
        <time>2014-04-04T10:49:32Z</time>
      </trkpt>
      <trkpt lat="45.53504" lon="5.93943">
        <ele>533.1</ele>
        <time>2014-04-04T10:49:34Z</time>
      </trkpt>
      <trkpt lat="45.53504" lon="5.93942">
        <ele>533.2</ele>
        <time>2014-04-04T10:49:36Z</time>
      </trkpt>
      <trkpt lat="45.53504" lon="5.93943">
        <ele>533.1</ele>
        <time>2014-04-04T10:49:40Z</time>
      </trkpt>
      <trkpt lat="45.53504" lon="5.93942">
        <ele>533.2</ele>
        <time>2014-04-04T10:49:48Z</time>
      </trkpt>
      <trkpt lat="45.53504" lon="5.93943">
        <ele>533.2</ele>
        <time>2014-04-04T10:49:50Z</time>
      </trkpt>
      <trkpt lat="45.53503" lon="5.93943">
        <ele>533.1</ele>
        <time>2014-04-04T10:49:52Z</time>
      </trkpt>
      <trkpt lat="45.53503" lon="5.93943">
        <ele>533.1</ele>
        <time>2014-04-04T10:49:54Z</time>
      </trkpt>
      <trkpt lat="45.53503" lon="5.93943">
        <ele>533.1</ele>
        <time>2014-04-04T10:49:56Z</time>
      </trkpt>
      <trkpt lat="45.53503" lon="5.93943">
        <ele>533.1</ele>
        <time>2014-04-04T10:49:58Z</time>
      </trkpt>
      <trkpt lat="45.53503" lon="5.93943">
        <ele>533.1</ele>
        <time>2014-04-04T10:50:00Z</time>
      </trkpt>
      <trkpt lat="45.53503" lon="5.93943">
        <ele>533.1</ele>
        <time>2014-04-04T10:50:02Z</time>
      </trkpt>
      <trkpt lat="45.53503" lon="5.93943">
        <ele>533</ele>
        <time>2014-04-04T10:50:04Z</time>
      </trkpt>
      <trkpt lat="45.53503" lon="5.93943">
        <ele>533.1</ele>
        <time>2014-04-04T10:50:10Z</time>
      </trkpt>
      <trkpt lat="45.53503" lon="5.93943">
        <ele>533.1</ele>
        <time>2014-04-04T10:50:12Z</time>
      </trkpt>
      <trkpt lat="45.53502" lon="5.93943">
        <ele>533.1</ele>
        <time>2014-04-04T10:50:14Z</time>
      </trkpt>
      <trkpt lat="45.53502" lon="5.93943">
        <ele>533.2</ele>
        <time>2014-04-04T10:50:18Z</time>
      </trkpt>
      <trkpt lat="45.53502" lon="5.93943">
        <ele>533.2</ele>
        <time>2014-04-04T10:50:20Z</time>
      </trkpt>
      <trkpt lat="45.53502" lon="5.93943">
        <ele>533.3</ele>
        <time>2014-04-04T10:50:22Z</time>
      </trkpt>
      <trkpt lat="45.53502" lon="5.93942">
        <ele>533.3</ele>
        <time>2014-04-04T10:50:24Z</time>
      </trkpt>
      <trkpt lat="45.53502" lon="5.93942">
        <ele>533.3</ele>
        <time>2014-04-04T10:50:28Z</time>
      </trkpt>
      <trkpt lat="45.53502" lon="5.93942">
        <ele>533.4</ele>
        <time>2014-04-04T10:50:30Z</time>
      </trkpt>
      <trkpt lat="45.53502" lon="5.93942">
        <ele>533.4</ele>
        <time>2014-04-04T10:50:32Z</time>
      </trkpt>
      <trkpt lat="45.53502" lon="5.93942">
        <ele>533.4</ele>
        <time>2014-04-04T10:50:34Z</time>
      </trkpt>
      <trkpt lat="45.53502" lon="5.93942">
        <ele>533.5</ele>
        <time>2014-04-04T10:50:36Z</time>
      </trkpt>
      <trkpt lat="45.53503" lon="5.93941">
        <ele>533.6</ele>
        <time>2014-04-04T10:50:56Z</time>
      </trkpt>
      <trkpt lat="45.53503" lon="5.93941">
        <ele>533.6</ele>
        <time>2014-04-04T10:50:58Z</time>
      </trkpt>
      <trkpt lat="45.53503" lon="5.93941">
        <ele>533.7</ele>
        <time>2014-04-04T10:51:00Z</time>
      </trkpt>
      <trkpt lat="45.53503" lon="5.9394">
        <ele>533.7</ele>
        <time>2014-04-04T10:51:02Z</time>
      </trkpt>
      <trkpt lat="45.53503" lon="5.9394">
        <ele>533.8</ele>
        <time>2014-04-04T10:51:04Z</time>
      </trkpt>
      <trkpt lat="45.53502" lon="5.93939">
        <ele>533.9</ele>
        <time>2014-04-04T10:51:06Z</time>
      </trkpt>
      <trkpt lat="45.53502" lon="5.93939">
        <ele>534</ele>
        <time>2014-04-04T10:51:08Z</time>
      </trkpt>
      <trkpt lat="45.53502" lon="5.93939">
        <ele>534.1</ele>
        <time>2014-04-04T10:51:10Z</time>
      </trkpt>
      <trkpt lat="45.53502" lon="5.93938">
        <ele>534.3</ele>
        <time>2014-04-04T10:51:12Z</time>
      </trkpt>
      <trkpt lat="45.53502" lon="5.93938">
        <ele>534.3</ele>
        <time>2014-04-04T10:51:14Z</time>
      </trkpt>
      <trkpt lat="45.53502" lon="5.93938">
        <ele>534.3</ele>
        <time>2014-04-04T10:51:16Z</time>
      </trkpt>
      <trkpt lat="45.53502" lon="5.93938">
        <ele>534.2</ele>
        <time>2014-04-04T10:51:18Z</time>
      </trkpt>
      <trkpt lat="45.53502" lon="5.93938">
        <ele>534.2</ele>
        <time>2014-04-04T10:51:20Z</time>
      </trkpt>
      <trkpt lat="45.53503" lon="5.93938">
        <ele>534.2</ele>
        <time>2014-04-04T10:51:22Z</time>
      </trkpt>
      <trkpt lat="45.53503" lon="5.93938">
        <ele>534.1</ele>
        <time>2014-04-04T10:51:24Z</time>
      </trkpt>
      <trkpt lat="45.53503" lon="5.93938">
        <ele>534.1</ele>
        <time>2014-04-04T10:51:26Z</time>
      </trkpt>
      <trkpt lat="45.53503" lon="5.93938">
        <ele>534.1</ele>
        <time>2014-04-04T10:51:28Z</time>
      </trkpt>
      <trkpt lat="45.53503" lon="5.93939">
        <ele>534.1</ele>
        <time>2014-04-04T10:51:30Z</time>
      </trkpt>
      <trkpt lat="45.53503" lon="5.93939">
        <ele>534</ele>
        <time>2014-04-04T10:51:34Z</time>
      </trkpt>
      <trkpt lat="45.53503" lon="5.93939">
        <ele>534</ele>
        <time>2014-04-04T10:51:36Z</time>
      </trkpt>
      <trkpt lat="45.53503" lon="5.93939">
        <ele>533.9</ele>
        <time>2014-04-04T10:51:38Z</time>
      </trkpt>
      <trkpt lat="45.53503" lon="5.93939">
        <ele>533.9</ele>
        <time>2014-04-04T10:51:40Z</time>
      </trkpt>
      <trkpt lat="45.53503" lon="5.93939">
        <ele>533.9</ele>
        <time>2014-04-04T10:51:42Z</time>
      </trkpt>
      <trkpt lat="45.53503" lon="5.9394">
        <ele>533.8</ele>
        <time>2014-04-04T10:51:44Z</time>
      </trkpt>
      <trkpt lat="45.53503" lon="5.9394">
        <ele>533.7</ele>
        <time>2014-04-04T10:51:48Z</time>
      </trkpt>
      <trkpt lat="45.53503" lon="5.9394">
        <ele>533.7</ele>
        <time>2014-04-04T10:51:52Z</time>
      </trkpt>
      <trkpt lat="45.53503" lon="5.9394">
        <ele>533.7</ele>
        <time>2014-04-04T10:51:56Z</time>
      </trkpt>
      <trkpt lat="45.53503" lon="5.9394">
        <ele>533.7</ele>
        <time>2014-04-04T10:52:02Z</time>
      </trkpt>
      <trkpt lat="45.53503" lon="5.9394">
        <ele>533.7</ele>
        <time>2014-04-04T10:52:04Z</time>
      </trkpt>
      <trkpt lat="45.53503" lon="5.93941">
        <ele>533.6</ele>
        <time>2014-04-04T10:52:06Z</time>
      </trkpt>
      <trkpt lat="45.53503" lon="5.93941">
        <ele>533.6</ele>
        <time>2014-04-04T10:52:12Z</time>
      </trkpt>
      <trkpt lat="45.53502" lon="5.93941">
        <ele>533.7</ele>
        <time>2014-04-04T10:52:24Z</time>
      </trkpt>
      <trkpt lat="45.53502" lon="5.93941">
        <ele>533.7</ele>
        <time>2014-04-04T10:52:32Z</time>
      </trkpt>
      <trkpt lat="45.53502" lon="5.93941">
        <ele>533.6</ele>
        <time>2014-04-04T10:52:34Z</time>
      </trkpt>
      <trkpt lat="45.53502" lon="5.93941">
        <ele>533.6</ele>
        <time>2014-04-04T10:52:36Z</time>
      </trkpt>
      <trkpt lat="45.53502" lon="5.9394">
        <ele>533.7</ele>
        <time>2014-04-04T10:52:40Z</time>
      </trkpt>
      <trkpt lat="45.53502" lon="5.93941">
        <ele>533.7</ele>
        <time>2014-04-04T10:52:42Z</time>
      </trkpt>
      <trkpt lat="45.53502" lon="5.93941">
        <ele>533.7</ele>
        <time>2014-04-04T10:52:44Z</time>
      </trkpt>
      <trkpt lat="45.53502" lon="5.93941">
        <ele>533.7</ele>
        <time>2014-04-04T10:52:46Z</time>
      </trkpt>
      <trkpt lat="45.53501" lon="5.93941">
        <ele>533.8</ele>
        <time>2014-04-04T10:52:48Z</time>
      </trkpt>
      <trkpt lat="45.53501" lon="5.9394">
        <ele>533.8</ele>
        <time>2014-04-04T10:52:50Z</time>
      </trkpt>
      <trkpt lat="45.53501" lon="5.9394">
        <ele>533.8</ele>
        <time>2014-04-04T10:52:52Z</time>
      </trkpt>
      <trkpt lat="45.53501" lon="5.9394">
        <ele>533.9</ele>
        <time>2014-04-04T10:52:54Z</time>
      </trkpt>
      <trkpt lat="45.53501" lon="5.9394">
        <ele>533.9</ele>
        <time>2014-04-04T10:52:56Z</time>
      </trkpt>
      <trkpt lat="45.53501" lon="5.93941">
        <ele>533.7</ele>
        <time>2014-04-04T10:53:20Z</time>
      </trkpt>
      <trkpt lat="45.53501" lon="5.93941">
        <ele>533.7</ele>
        <time>2014-04-04T10:53:26Z</time>
      </trkpt>
      <trkpt lat="45.53501" lon="5.93941">
        <ele>533.7</ele>
        <time>2014-04-04T10:53:32Z</time>
      </trkpt>
      <trkpt lat="45.53501" lon="5.93941">
        <ele>533.6</ele>
        <time>2014-04-04T10:53:34Z</time>
      </trkpt>
      <trkpt lat="45.53501" lon="5.93942">
        <ele>533.5</ele>
        <time>2014-04-04T10:53:42Z</time>
      </trkpt>
      <trkpt lat="45.53501" lon="5.93942">
        <ele>533.4</ele>
        <time>2014-04-04T10:53:44Z</time>
      </trkpt>
      <trkpt lat="45.53501" lon="5.93942">
        <ele>533.4</ele>
        <time>2014-04-04T10:53:46Z</time>
      </trkpt>
      <trkpt lat="45.53501" lon="5.93943">
        <ele>533.3</ele>
        <time>2014-04-04T10:53:48Z</time>
      </trkpt>
      <trkpt lat="45.53501" lon="5.93943">
        <ele>533.2</ele>
        <time>2014-04-04T10:53:50Z</time>
      </trkpt>
      <trkpt lat="45.53502" lon="5.93943">
        <ele>533.2</ele>
        <time>2014-04-04T10:53:54Z</time>
      </trkpt>
      <trkpt lat="45.53502" lon="5.93943">
        <ele>533.2</ele>
        <time>2014-04-04T10:53:56Z</time>
      </trkpt>
      <trkpt lat="45.53502" lon="5.93943">
        <ele>533.1</ele>
        <time>2014-04-04T10:53:58Z</time>
      </trkpt>
      <trkpt lat="45.53502" lon="5.93944">
        <ele>533.1</ele>
        <time>2014-04-04T10:54:00Z</time>
      </trkpt>
      <trkpt lat="45.53502" lon="5.93944">
        <ele>533</ele>
        <time>2014-04-04T10:54:02Z</time>
      </trkpt>
      <trkpt lat="45.53502" lon="5.93944">
        <ele>533</ele>
        <time>2014-04-04T10:54:06Z</time>
      </trkpt>
      <trkpt lat="45.53502" lon="5.93944">
        <ele>533</ele>
        <time>2014-04-04T10:54:14Z</time>
      </trkpt>
      <trkpt lat="45.53502" lon="5.93944">
        <ele>533.1</ele>
        <time>2014-04-04T10:54:16Z</time>
      </trkpt>
      <trkpt lat="45.53501" lon="5.93943">
        <ele>533.1</ele>
        <time>2014-04-04T10:54:18Z</time>
      </trkpt>
      <trkpt lat="45.53501" lon="5.93943">
        <ele>533.2</ele>
        <time>2014-04-04T10:54:20Z</time>
      </trkpt>
      <trkpt lat="45.53501" lon="5.93943">
        <ele>533.2</ele>
        <time>2014-04-04T10:54:24Z</time>
      </trkpt>
      <trkpt lat="45.53501" lon="5.93943">
        <ele>533.3</ele>
        <time>2014-04-04T10:54:26Z</time>
      </trkpt>
      <trkpt lat="45.53501" lon="5.93943">
        <ele>533.3</ele>
        <time>2014-04-04T10:54:30Z</time>
      </trkpt>
      <trkpt lat="45.53501" lon="5.93943">
        <ele>533.3</ele>
        <time>2014-04-04T10:54:34Z</time>
      </trkpt>
      <trkpt lat="45.53501" lon="5.93942">
        <ele>533.4</ele>
        <time>2014-04-04T10:54:46Z</time>
      </trkpt>
      <trkpt lat="45.53501" lon="5.93942">
        <ele>533.4</ele>
        <time>2014-04-04T10:54:50Z</time>
      </trkpt>
      <trkpt lat="45.53501" lon="5.93942">
        <ele>533.4</ele>
        <time>2014-04-04T10:55:02Z</time>
      </trkpt>
      <trkpt lat="45.53501" lon="5.93942">
        <ele>533.5</ele>
        <time>2014-04-04T10:55:14Z</time>
      </trkpt>
      <trkpt lat="45.53501" lon="5.93942">
        <ele>533.4</ele>
        <time>2014-04-04T10:55:32Z</time>
      </trkpt>
      <trkpt lat="45.53502" lon="5.93942">
        <ele>533.4</ele>
        <time>2014-04-04T10:55:34Z</time>
      </trkpt>
      <trkpt lat="45.53502" lon="5.93942">
        <ele>533.3</ele>
        <time>2014-04-04T10:55:36Z</time>
      </trkpt>
      <trkpt lat="45.53502" lon="5.93943">
        <ele>533.2</ele>
        <time>2014-04-04T10:55:38Z</time>
      </trkpt>
      <trkpt lat="45.53501" lon="5.93942">
        <ele>533.5</ele>
        <time>2014-04-04T10:55:40Z</time>
      </trkpt>
      <trkpt lat="45.53501" lon="5.93942">
        <ele>533.5</ele>
        <time>2014-04-04T10:55:42Z</time>
      </trkpt>
      <trkpt lat="45.53501" lon="5.93942">
        <ele>533.5</ele>
        <time>2014-04-04T10:55:44Z</time>
      </trkpt>
      <trkpt lat="45.535" lon="5.9394">
        <ele>533.9</ele>
        <time>2014-04-04T10:55:48Z</time>
      </trkpt>
      <trkpt lat="45.53501" lon="5.9394">
        <ele>534</ele>
        <time>2014-04-04T10:55:50Z</time>
      </trkpt>
      <trkpt lat="45.53501" lon="5.93939">
        <ele>534.1</ele>
        <time>2014-04-04T10:55:52Z</time>
      </trkpt>
      <trkpt lat="45.53502" lon="5.9394">
        <ele>533.9</ele>
        <time>2014-04-04T10:55:54Z</time>
      </trkpt>
      <trkpt lat="45.53502" lon="5.9394">
        <ele>533.8</ele>
        <time>2014-04-04T10:55:56Z</time>
      </trkpt>
      <trkpt lat="45.53501" lon="5.93941">
        <ele>533.7</ele>
        <time>2014-04-04T10:56:00Z</time>
      </trkpt>
      <trkpt lat="45.53501" lon="5.93941">
        <ele>533.7</ele>
        <time>2014-04-04T10:56:04Z</time>
      </trkpt>
      <trkpt lat="45.53501" lon="5.93942">
        <ele>533.6</ele>
        <time>2014-04-04T10:56:10Z</time>
      </trkpt>
      <trkpt lat="45.53501" lon="5.93942">
        <ele>533.6</ele>
        <time>2014-04-04T10:56:12Z</time>
      </trkpt>
      <trkpt lat="45.535" lon="5.93942">
        <ele>533.6</ele>
        <time>2014-04-04T10:56:14Z</time>
      </trkpt>
      <trkpt lat="45.535" lon="5.93942">
        <ele>533.5</ele>
        <time>2014-04-04T10:56:16Z</time>
      </trkpt>
      <trkpt lat="45.535" lon="5.93942">
        <ele>533.5</ele>
        <time>2014-04-04T10:56:22Z</time>
      </trkpt>
      <trkpt lat="45.53501" lon="5.93942">
        <ele>533.5</ele>
        <time>2014-04-04T10:56:24Z</time>
      </trkpt>
      <trkpt lat="45.53501" lon="5.93942">
        <ele>533.5</ele>
        <time>2014-04-04T10:56:26Z</time>
      </trkpt>
      <trkpt lat="45.53501" lon="5.93942">
        <ele>533.4</ele>
        <time>2014-04-04T10:56:28Z</time>
      </trkpt>
      <trkpt lat="45.53501" lon="5.93943">
        <ele>533.4</ele>
        <time>2014-04-04T10:56:30Z</time>
      </trkpt>
      <trkpt lat="45.53501" lon="5.93943">
        <ele>533.3</ele>
        <time>2014-04-04T10:56:32Z</time>
      </trkpt>
      <trkpt lat="45.535" lon="5.93942">
        <ele>533.5</ele>
        <time>2014-04-04T10:56:42Z</time>
      </trkpt>
      <trkpt lat="45.535" lon="5.93942">
        <ele>533.6</ele>
        <time>2014-04-04T10:56:50Z</time>
      </trkpt>
      <trkpt lat="45.535" lon="5.93942">
        <ele>533.6</ele>
        <time>2014-04-04T10:56:56Z</time>
      </trkpt>
      <trkpt lat="45.535" lon="5.93942">
        <ele>533.6</ele>
        <time>2014-04-04T10:56:58Z</time>
      </trkpt>
      <trkpt lat="45.535" lon="5.93941">
        <ele>533.7</ele>
        <time>2014-04-04T10:57:00Z</time>
      </trkpt>
      <trkpt lat="45.535" lon="5.93941">
        <ele>533.7</ele>
        <time>2014-04-04T10:57:06Z</time>
      </trkpt>
      <trkpt lat="45.535" lon="5.93941">
        <ele>533.8</ele>
        <time>2014-04-04T10:57:08Z</time>
      </trkpt>
      <trkpt lat="45.535" lon="5.93941">
        <ele>533.9</ele>
        <time>2014-04-04T10:57:10Z</time>
      </trkpt>
      <trkpt lat="45.535" lon="5.9394">
        <ele>533.9</ele>
        <time>2014-04-04T10:57:18Z</time>
      </trkpt>
      <trkpt lat="45.535" lon="5.93941">
        <ele>533.9</ele>
        <time>2014-04-04T10:57:20Z</time>
      </trkpt>
      <trkpt lat="45.535" lon="5.93941">
        <ele>533.8</ele>
        <time>2014-04-04T10:57:24Z</time>
      </trkpt>
      <trkpt lat="45.535" lon="5.9394">
        <ele>533.9</ele>
        <time>2014-04-04T10:57:26Z</time>
      </trkpt>
      <trkpt lat="45.535" lon="5.9394">
        <ele>534</ele>
        <time>2014-04-04T10:57:28Z</time>
      </trkpt>
      <trkpt lat="45.535" lon="5.93939">
        <ele>534.1</ele>
        <time>2014-04-04T10:57:30Z</time>
      </trkpt>
      <trkpt lat="45.535" lon="5.93939">
        <ele>534.2</ele>
        <time>2014-04-04T10:57:32Z</time>
      </trkpt>
      <trkpt lat="45.53501" lon="5.93938">
        <ele>534.3</ele>
        <time>2014-04-04T10:57:34Z</time>
      </trkpt>
      <trkpt lat="45.53501" lon="5.93938">
        <ele>534.4</ele>
        <time>2014-04-04T10:57:36Z</time>
      </trkpt>
      <trkpt lat="45.53501" lon="5.93938">
        <ele>534.4</ele>
        <time>2014-04-04T10:57:38Z</time>
      </trkpt>
      <trkpt lat="45.53501" lon="5.93938">
        <ele>534.4</ele>
        <time>2014-04-04T10:57:40Z</time>
      </trkpt>
      <trkpt lat="45.53501" lon="5.93937">
        <ele>534.5</ele>
        <time>2014-04-04T10:57:42Z</time>
      </trkpt>
      <trkpt lat="45.53501" lon="5.93938">
        <ele>534.4</ele>
        <time>2014-04-04T10:57:48Z</time>
      </trkpt>
      <trkpt lat="45.53501" lon="5.93938">
        <ele>534.4</ele>
        <time>2014-04-04T10:57:50Z</time>
      </trkpt>
      <trkpt lat="45.53501" lon="5.93938">
        <ele>534.4</ele>
        <time>2014-04-04T10:57:52Z</time>
      </trkpt>
      <trkpt lat="45.53501" lon="5.93938">
        <ele>534.3</ele>
        <time>2014-04-04T10:57:54Z</time>
      </trkpt>
      <trkpt lat="45.53501" lon="5.93938">
        <ele>534.3</ele>
        <time>2014-04-04T10:57:56Z</time>
      </trkpt>
      <trkpt lat="45.53501" lon="5.93939">
        <ele>534.2</ele>
        <time>2014-04-04T10:58:00Z</time>
      </trkpt>
      <trkpt lat="45.53501" lon="5.93939">
        <ele>534.1</ele>
        <time>2014-04-04T10:58:02Z</time>
      </trkpt>
      <trkpt lat="45.53501" lon="5.93939">
        <ele>534.1</ele>
        <time>2014-04-04T10:58:08Z</time>
      </trkpt>
      <trkpt lat="45.535" lon="5.93939">
        <ele>534.1</ele>
        <time>2014-04-04T10:58:10Z</time>
      </trkpt>
      <trkpt lat="45.535" lon="5.93939">
        <ele>534.2</ele>
        <time>2014-04-04T10:58:12Z</time>
      </trkpt>
      <trkpt lat="45.535" lon="5.93939">
        <ele>534.2</ele>
        <time>2014-04-04T10:58:14Z</time>
      </trkpt>
      <trkpt lat="45.535" lon="5.93939">
        <ele>534.2</ele>
        <time>2014-04-04T10:58:16Z</time>
      </trkpt>
      <trkpt lat="45.535" lon="5.93939">
        <ele>534.2</ele>
        <time>2014-04-04T10:58:18Z</time>
      </trkpt>
      <trkpt lat="45.535" lon="5.93939">
        <ele>534.1</ele>
        <time>2014-04-04T10:58:20Z</time>
      </trkpt>
      <trkpt lat="45.535" lon="5.9394">
        <ele>534</ele>
        <time>2014-04-04T10:58:24Z</time>
      </trkpt>
      <trkpt lat="45.53502" lon="5.93941">
        <ele>533.7</ele>
        <time>2014-04-04T10:58:30Z</time>
      </trkpt>
      <trkpt lat="45.53503" lon="5.93941">
        <ele>533.6</ele>
        <time>2014-04-04T10:58:32Z</time>
      </trkpt>
      <trkpt lat="45.53502" lon="5.9394">
        <ele>533.7</ele>
        <time>2014-04-04T10:58:34Z</time>
      </trkpt>
      <trkpt lat="45.53503" lon="5.9394">
        <ele>533.7</ele>
        <time>2014-04-04T10:58:36Z</time>
      </trkpt>
      <trkpt lat="45.53504" lon="5.93942">
        <ele>533.3</ele>
        <time>2014-04-04T10:58:38Z</time>
      </trkpt>
      <trkpt lat="45.53504" lon="5.93943">
        <ele>533</ele>
        <time>2014-04-04T10:58:40Z</time>
      </trkpt>
      <trkpt lat="45.53504" lon="5.93944">
        <ele>532.8</ele>
        <time>2014-04-04T10:58:42Z</time>
      </trkpt>
      <trkpt lat="45.53502" lon="5.93947">
        <ele>532.3</ele>
        <time>2014-04-04T10:58:44Z</time>
      </trkpt>
      <trkpt lat="45.53498" lon="5.93951">
        <ele>531.8</ele>
        <time>2014-04-04T10:58:46Z</time>
      </trkpt>
      <trkpt lat="45.53498" lon="5.93953">
        <ele>531.4</ele>
        <time>2014-04-04T10:58:48Z</time>
      </trkpt>
      <trkpt lat="45.53497" lon="5.93954">
        <ele>531.2</ele>
        <time>2014-04-04T10:58:50Z</time>
      </trkpt>
      <trkpt lat="45.53494" lon="5.93957">
        <ele>530.8</ele>
        <time>2014-04-04T10:58:52Z</time>
      </trkpt>
      <trkpt lat="45.5349" lon="5.9396">
        <ele>530.5</ele>
        <time>2014-04-04T10:58:54Z</time>
      </trkpt>
      <trkpt lat="45.53487" lon="5.93962">
        <ele>530.4</ele>
        <time>2014-04-04T10:58:56Z</time>
      </trkpt>
      <trkpt lat="45.53486" lon="5.93963">
        <ele>530.4</ele>
        <time>2014-04-04T10:58:58Z</time>
      </trkpt>
      <trkpt lat="45.53484" lon="5.93964">
        <ele>530.3</ele>
        <time>2014-04-04T10:59:00Z</time>
      </trkpt>
      <trkpt lat="45.53482" lon="5.93966">
        <ele>530.2</ele>
        <time>2014-04-04T10:59:02Z</time>
      </trkpt>
      <trkpt lat="45.53481" lon="5.93967">
        <ele>530</ele>
        <time>2014-04-04T10:59:04Z</time>
      </trkpt>
      <trkpt lat="45.5348" lon="5.93968">
        <ele>530</ele>
        <time>2014-04-04T10:59:06Z</time>
      </trkpt>
      <trkpt lat="45.53478" lon="5.9397">
        <ele>529.8</ele>
        <time>2014-04-04T10:59:08Z</time>
      </trkpt>
      <trkpt lat="45.53476" lon="5.93972">
        <ele>529.6</ele>
        <time>2014-04-04T10:59:10Z</time>
      </trkpt>
      <trkpt lat="45.53475" lon="5.93973">
        <ele>529.6</ele>
        <time>2014-04-04T10:59:12Z</time>
      </trkpt>
      <trkpt lat="45.53475" lon="5.93974">
        <ele>529.5</ele>
        <time>2014-04-04T10:59:14Z</time>
      </trkpt>
      <trkpt lat="45.53474" lon="5.93975">
        <ele>529.4</ele>
        <time>2014-04-04T10:59:16Z</time>
      </trkpt>
      <trkpt lat="45.53474" lon="5.93975">
        <ele>529.3</ele>
        <time>2014-04-04T10:59:18Z</time>
      </trkpt>
      <trkpt lat="45.53475" lon="5.93975">
        <ele>529.2</ele>
        <time>2014-04-04T10:59:20Z</time>
      </trkpt>
      <trkpt lat="45.53476" lon="5.93975">
        <ele>529.2</ele>
        <time>2014-04-04T10:59:22Z</time>
      </trkpt>
      <trkpt lat="45.53478" lon="5.93975">
        <ele>528.8</ele>
        <time>2014-04-04T10:59:24Z</time>
      </trkpt>
      <trkpt lat="45.53481" lon="5.93976">
        <ele>528.5</ele>
        <time>2014-04-04T10:59:26Z</time>
      </trkpt>
      <trkpt lat="45.53481" lon="5.93976">
        <ele>528.4</ele>
        <time>2014-04-04T10:59:28Z</time>
      </trkpt>
      <trkpt lat="45.53483" lon="5.93976">
        <ele>528.2</ele>
        <time>2014-04-04T10:59:30Z</time>
      </trkpt>
      <trkpt lat="45.53487" lon="5.93976">
        <ele>527.9</ele>
        <time>2014-04-04T10:59:32Z</time>
      </trkpt>
      <trkpt lat="45.5349" lon="5.93975">
        <ele>527.6</ele>
        <time>2014-04-04T10:59:34Z</time>
      </trkpt>
      <trkpt lat="45.53491" lon="5.93975">
        <ele>527.5</ele>
        <time>2014-04-04T10:59:36Z</time>
      </trkpt>
      <trkpt lat="45.53494" lon="5.93976">
        <ele>527.1</ele>
        <time>2014-04-04T10:59:38Z</time>
      </trkpt>
      <trkpt lat="45.53498" lon="5.93976">
        <ele>526.6</ele>
        <time>2014-04-04T10:59:40Z</time>
      </trkpt>
      <trkpt lat="45.535" lon="5.93976">
        <ele>526.3</ele>
        <time>2014-04-04T10:59:42Z</time>
      </trkpt>
      <trkpt lat="45.53503" lon="5.93976">
        <ele>526.2</ele>
        <time>2014-04-04T10:59:44Z</time>
      </trkpt>
      <trkpt lat="45.53508" lon="5.93978">
        <ele>525.6</ele>
        <time>2014-04-04T10:59:46Z</time>
      </trkpt>
      <trkpt lat="45.53512" lon="5.93979">
        <ele>525.3</ele>
        <time>2014-04-04T10:59:48Z</time>
      </trkpt>
      <trkpt lat="45.53513" lon="5.9398">
        <ele>525.1</ele>
        <time>2014-04-04T10:59:50Z</time>
      </trkpt>
      <trkpt lat="45.53517" lon="5.93981">
        <ele>524.6</ele>
        <time>2014-04-04T10:59:52Z</time>
      </trkpt>
      <trkpt lat="45.53522" lon="5.93984">
        <ele>523.8</ele>
        <time>2014-04-04T10:59:54Z</time>
      </trkpt>
      <trkpt lat="45.53525" lon="5.93986">
        <ele>523.1</ele>
        <time>2014-04-04T10:59:56Z</time>
      </trkpt>
      <trkpt lat="45.53526" lon="5.93987">
        <ele>522.8</ele>
        <time>2014-04-04T10:59:58Z</time>
      </trkpt>
      <trkpt lat="45.53528" lon="5.93989">
        <ele>522.5</ele>
        <time>2014-04-04T11:00:00Z</time>
      </trkpt>
      <trkpt lat="45.53528" lon="5.93988">
        <ele>522.7</ele>
        <time>2014-04-04T11:00:02Z</time>
      </trkpt>
      <trkpt lat="45.53527" lon="5.93986">
        <ele>523</ele>
        <time>2014-04-04T11:00:04Z</time>
      </trkpt>
      <trkpt lat="45.53527" lon="5.93986">
        <ele>523</ele>
        <time>2014-04-04T11:00:06Z</time>
      </trkpt>
      <trkpt lat="45.53528" lon="5.93986">
        <ele>523</ele>
        <time>2014-04-04T11:00:08Z</time>
      </trkpt>
      <trkpt lat="45.53528" lon="5.93986">
        <ele>522.9</ele>
        <time>2014-04-04T11:00:10Z</time>
      </trkpt>
      <trkpt lat="45.53528" lon="5.93987">
        <ele>522.9</ele>
        <time>2014-04-04T11:00:12Z</time>
      </trkpt>
      <trkpt lat="45.53529" lon="5.93987">
        <ele>522.9</ele>
        <time>2014-04-04T11:00:14Z</time>
      </trkpt>
      <trkpt lat="45.53528" lon="5.93985">
        <ele>523.3</ele>
        <time>2014-04-04T11:01:10Z</time>
      </trkpt>
      <trkpt lat="45.53528" lon="5.93985">
        <ele>523.3</ele>
        <time>2014-04-04T11:01:12Z</time>
      </trkpt>
      <trkpt lat="45.53528" lon="5.93985">
        <ele>523.3</ele>
        <time>2014-04-04T11:01:14Z</time>
      </trkpt>
      <trkpt lat="45.53529" lon="5.93984">
        <ele>523.4</ele>
        <time>2014-04-04T11:02:00Z</time>
      </trkpt>
      <trkpt lat="45.53529" lon="5.93984">
        <ele>523.4</ele>
        <time>2014-04-04T11:02:02Z</time>
      </trkpt>
      <trkpt lat="45.53528" lon="5.93984">
        <ele>523.4</ele>
        <time>2014-04-04T11:02:06Z</time>
      </trkpt>
      <trkpt lat="45.53529" lon="5.93984">
        <ele>523.4</ele>
        <time>2014-04-04T11:02:08Z</time>
      </trkpt>
      <trkpt lat="45.53529" lon="5.93985">
        <ele>523.3</ele>
        <time>2014-04-04T11:02:14Z</time>
      </trkpt>
      <trkpt lat="45.53529" lon="5.93985">
        <ele>523.3</ele>
        <time>2014-04-04T11:02:16Z</time>
      </trkpt>
      <trkpt lat="45.53529" lon="5.93985">
        <ele>523.2</ele>
        <time>2014-04-04T11:02:20Z</time>
      </trkpt>
      <trkpt lat="45.53529" lon="5.93985">
        <ele>523.2</ele>
        <time>2014-04-04T11:02:22Z</time>
      </trkpt>
      <trkpt lat="45.53529" lon="5.93985">
        <ele>523.2</ele>
        <time>2014-04-04T11:02:24Z</time>
      </trkpt>
      <trkpt lat="45.53529" lon="5.93985">
        <ele>523.2</ele>
        <time>2014-04-04T11:02:26Z</time>
      </trkpt>
      <trkpt lat="45.53529" lon="5.93985">
        <ele>523.2</ele>
        <time>2014-04-04T11:02:28Z</time>
      </trkpt>
      <trkpt lat="45.53529" lon="5.93985">
        <ele>523.1</ele>
        <time>2014-04-04T11:02:32Z</time>
      </trkpt>
      <trkpt lat="45.53529" lon="5.93986">
        <ele>523.1</ele>
        <time>2014-04-04T11:02:42Z</time>
      </trkpt>
      <trkpt lat="45.53529" lon="5.93986">
        <ele>523.1</ele>
        <time>2014-04-04T11:02:50Z</time>
      </trkpt>
      <trkpt lat="45.5353" lon="5.93986">
        <ele>523.1</ele>
        <time>2014-04-04T11:03:08Z</time>
      </trkpt>
      <trkpt lat="45.5353" lon="5.93985">
        <ele>523.1</ele>
        <time>2014-04-04T11:03:10Z</time>
      </trkpt>
      <trkpt lat="45.5353" lon="5.93985">
        <ele>523.1</ele>
        <time>2014-04-04T11:03:16Z</time>
      </trkpt>
      <trkpt lat="45.5353" lon="5.93985">
        <ele>523.1</ele>
        <time>2014-04-04T11:03:24Z</time>
      </trkpt>
      <trkpt lat="45.5353" lon="5.93985">
        <ele>523.1</ele>
        <time>2014-04-04T11:03:30Z</time>
      </trkpt>
      <trkpt lat="45.5353" lon="5.93985">
        <ele>523.1</ele>
        <time>2014-04-04T11:03:32Z</time>
      </trkpt>
      <trkpt lat="45.5353" lon="5.93986">
        <ele>523</ele>
        <time>2014-04-04T11:03:34Z</time>
      </trkpt>
      <trkpt lat="45.5353" lon="5.93986">
        <ele>523</ele>
        <time>2014-04-04T11:03:38Z</time>
      </trkpt>
      <trkpt lat="45.53531" lon="5.93985">
        <ele>523.1</ele>
        <time>2014-04-04T11:03:40Z</time>
      </trkpt>
      <trkpt lat="45.53531" lon="5.93985">
        <ele>523.1</ele>
        <time>2014-04-04T11:03:44Z</time>
      </trkpt>
      <trkpt lat="45.5353" lon="5.93985">
        <ele>523.1</ele>
        <time>2014-04-04T11:03:46Z</time>
      </trkpt>
      <trkpt lat="45.5353" lon="5.93985">
        <ele>523.1</ele>
        <time>2014-04-04T11:03:48Z</time>
      </trkpt>
      <trkpt lat="45.5353" lon="5.93985">
        <ele>523.1</ele>
        <time>2014-04-04T11:03:52Z</time>
      </trkpt>
      <trkpt lat="45.5353" lon="5.93985">
        <ele>523.1</ele>
        <time>2014-04-04T11:03:58Z</time>
      </trkpt>
      <trkpt lat="45.5353" lon="5.93985">
        <ele>523.1</ele>
        <time>2014-04-04T11:04:08Z</time>
      </trkpt>
      <trkpt lat="45.5353" lon="5.93985">
        <ele>523.2</ele>
        <time>2014-04-04T11:04:10Z</time>
      </trkpt>
      <trkpt lat="45.5353" lon="5.93985">
        <ele>523.2</ele>
        <time>2014-04-04T11:04:12Z</time>
      </trkpt>
      <trkpt lat="45.5353" lon="5.93985">
        <ele>523.2</ele>
        <time>2014-04-04T11:04:18Z</time>
      </trkpt>
      <trkpt lat="45.5353" lon="5.93985">
        <ele>523.2</ele>
        <time>2014-04-04T11:04:22Z</time>
      </trkpt>
      <trkpt lat="45.5353" lon="5.93985">
        <ele>523.3</ele>
        <time>2014-04-04T11:04:26Z</time>
      </trkpt>
      <trkpt lat="45.5353" lon="5.93985">
        <ele>523.3</ele>
        <time>2014-04-04T11:04:28Z</time>
      </trkpt>
      <trkpt lat="45.5353" lon="5.93984">
        <ele>523.3</ele>
        <time>2014-04-04T11:04:34Z</time>
      </trkpt>
      <trkpt lat="45.5353" lon="5.93984">
        <ele>523.3</ele>
        <time>2014-04-04T11:04:36Z</time>
      </trkpt>
      <trkpt lat="45.53531" lon="5.93984">
        <ele>523.3</ele>
        <time>2014-04-04T11:04:38Z</time>
      </trkpt>
      <trkpt lat="45.53531" lon="5.93984">
        <ele>523.4</ele>
        <time>2014-04-04T11:04:40Z</time>
      </trkpt>
      <trkpt lat="45.5353" lon="5.93984">
        <ele>523.4</ele>
        <time>2014-04-04T11:04:48Z</time>
      </trkpt>
      <trkpt lat="45.5353" lon="5.93984">
        <ele>523.3</ele>
        <time>2014-04-04T11:05:00Z</time>
      </trkpt>
      <trkpt lat="45.5353" lon="5.93984">
        <ele>523.3</ele>
        <time>2014-04-04T11:05:08Z</time>
      </trkpt>
      <trkpt lat="45.53531" lon="5.93984">
        <ele>523.3</ele>
        <time>2014-04-04T11:05:22Z</time>
      </trkpt>
      <trkpt lat="45.53531" lon="5.93984">
        <ele>523.3</ele>
        <time>2014-04-04T11:05:26Z</time>
      </trkpt>
      <trkpt lat="45.53531" lon="5.93985">
        <ele>523.2</ele>
        <time>2014-04-04T11:05:28Z</time>
      </trkpt>
      <trkpt lat="45.53531" lon="5.93985">
        <ele>523.2</ele>
        <time>2014-04-04T11:05:30Z</time>
      </trkpt>
      <trkpt lat="45.53531" lon="5.93985">
        <ele>523.2</ele>
        <time>2014-04-04T11:05:32Z</time>
      </trkpt>
      <trkpt lat="45.5353" lon="5.93984">
        <ele>523.3</ele>
        <time>2014-04-04T11:05:38Z</time>
      </trkpt>
      <trkpt lat="45.53531" lon="5.93984">
        <ele>523.4</ele>
        <time>2014-04-04T11:05:44Z</time>
      </trkpt>
      <trkpt lat="45.53531" lon="5.93984">
        <ele>523.4</ele>
        <time>2014-04-04T11:05:46Z</time>
      </trkpt>
      <trkpt lat="45.53531" lon="5.93984">
        <ele>523.4</ele>
        <time>2014-04-04T11:05:48Z</time>
      </trkpt>
      <trkpt lat="45.53532" lon="5.93984">
        <ele>523.4</ele>
        <time>2014-04-04T11:05:50Z</time>
      </trkpt>
      <trkpt lat="45.53532" lon="5.93984">
        <ele>523.4</ele>
        <time>2014-04-04T11:05:52Z</time>
      </trkpt>
      <trkpt lat="45.53533" lon="5.93984">
        <ele>523.4</ele>
        <time>2014-04-04T11:05:54Z</time>
      </trkpt>
      <trkpt lat="45.53533" lon="5.93983">
        <ele>523.4</ele>
        <time>2014-04-04T11:05:56Z</time>
      </trkpt>
      <trkpt lat="45.53534" lon="5.93984">
        <ele>523.4</ele>
        <time>2014-04-04T11:05:58Z</time>
      </trkpt>
      <trkpt lat="45.53535" lon="5.93984">
        <ele>523.3</ele>
        <time>2014-04-04T11:06:00Z</time>
      </trkpt>
      <trkpt lat="45.53535" lon="5.93984">
        <ele>523.3</ele>
        <time>2014-04-04T11:06:02Z</time>
      </trkpt>
      <trkpt lat="45.53535" lon="5.93984">
        <ele>523.3</ele>
        <time>2014-04-04T11:06:04Z</time>
      </trkpt>
      <trkpt lat="45.53535" lon="5.93983">
        <ele>523.3</ele>
        <time>2014-04-04T11:06:06Z</time>
      </trkpt>
      <trkpt lat="45.53536" lon="5.93983">
        <ele>523.4</ele>
        <time>2014-04-04T11:06:08Z</time>
      </trkpt>
      <trkpt lat="45.53536" lon="5.93983">
        <ele>523.3</ele>
        <time>2014-04-04T11:06:12Z</time>
      </trkpt>
      <trkpt lat="45.53536" lon="5.93984">
        <ele>523.3</ele>
        <time>2014-04-04T11:06:14Z</time>
      </trkpt>
      <trkpt lat="45.53536" lon="5.93984">
        <ele>523.2</ele>
        <time>2014-04-04T11:06:16Z</time>
      </trkpt>
      <trkpt lat="45.53536" lon="5.93984">
        <ele>523.2</ele>
        <time>2014-04-04T11:06:18Z</time>
      </trkpt>
      <trkpt lat="45.53536" lon="5.93984">
        <ele>523.2</ele>
        <time>2014-04-04T11:06:20Z</time>
      </trkpt>
      <trkpt lat="45.53537" lon="5.93984">
        <ele>523.2</ele>
        <time>2014-04-04T11:06:22Z</time>
      </trkpt>
      <trkpt lat="45.53537" lon="5.93984">
        <ele>523.2</ele>
        <time>2014-04-04T11:06:24Z</time>
      </trkpt>
      <trkpt lat="45.53536" lon="5.93984">
        <ele>523.1</ele>
        <time>2014-04-04T11:06:28Z</time>
      </trkpt>
      <trkpt lat="45.53536" lon="5.93986">
        <ele>522.7</ele>
        <time>2014-04-04T11:06:30Z</time>
      </trkpt>
      <trkpt lat="45.53535" lon="5.93987">
        <ele>522.6</ele>
        <time>2014-04-04T11:06:32Z</time>
      </trkpt>
      <trkpt lat="45.53535" lon="5.93987">
        <ele>522.5</ele>
        <time>2014-04-04T11:06:36Z</time>
      </trkpt>
      <trkpt lat="45.53535" lon="5.93988">
        <ele>522.4</ele>
        <time>2014-04-04T11:06:38Z</time>
      </trkpt>
      <trkpt lat="45.53535" lon="5.93988">
        <ele>522.4</ele>
        <time>2014-04-04T11:06:40Z</time>
      </trkpt>
      <trkpt lat="45.53535" lon="5.93988">
        <ele>522.3</ele>
        <time>2014-04-04T11:06:42Z</time>
      </trkpt>
      <trkpt lat="45.53535" lon="5.93989">
        <ele>522.2</ele>
        <time>2014-04-04T11:06:44Z</time>
      </trkpt>
      <trkpt lat="45.53535" lon="5.93989">
        <ele>522.2</ele>
        <time>2014-04-04T11:06:46Z</time>
      </trkpt>
      <trkpt lat="45.53535" lon="5.93989">
        <ele>522.1</ele>
        <time>2014-04-04T11:06:48Z</time>
      </trkpt>
      <trkpt lat="45.53535" lon="5.93989">
        <ele>522.1</ele>
        <time>2014-04-04T11:06:50Z</time>
      </trkpt>
      <trkpt lat="45.53536" lon="5.93989">
        <ele>522.2</ele>
        <time>2014-04-04T11:06:52Z</time>
      </trkpt>
      <trkpt lat="45.53535" lon="5.93989">
        <ele>522.2</ele>
        <time>2014-04-04T11:06:54Z</time>
      </trkpt>
      <trkpt lat="45.53535" lon="5.93988">
        <ele>522.2</ele>
        <time>2014-04-04T11:06:56Z</time>
      </trkpt>
      <trkpt lat="45.53535" lon="5.93988">
        <ele>522.3</ele>
        <time>2014-04-04T11:06:58Z</time>
      </trkpt>
      <trkpt lat="45.53535" lon="5.93988">
        <ele>522.3</ele>
        <time>2014-04-04T11:07:00Z</time>
      </trkpt>
      <trkpt lat="45.53535" lon="5.93989">
        <ele>522.2</ele>
        <time>2014-04-04T11:07:04Z</time>
      </trkpt>
      <trkpt lat="45.53535" lon="5.93988">
        <ele>522.3</ele>
        <time>2014-04-04T11:07:06Z</time>
      </trkpt>
      <trkpt lat="45.53535" lon="5.93988">
        <ele>522.3</ele>
        <time>2014-04-04T11:07:08Z</time>
      </trkpt>
      <trkpt lat="45.53534" lon="5.93988">
        <ele>522.3</ele>
        <time>2014-04-04T11:07:10Z</time>
      </trkpt>
      <trkpt lat="45.53534" lon="5.93988">
        <ele>522.4</ele>
        <time>2014-04-04T11:07:12Z</time>
      </trkpt>
      <trkpt lat="45.53534" lon="5.93987">
        <ele>522.5</ele>
        <time>2014-04-04T11:07:14Z</time>
      </trkpt>
      <trkpt lat="45.53534" lon="5.93987">
        <ele>522.6</ele>
        <time>2014-04-04T11:07:16Z</time>
      </trkpt>
      <trkpt lat="45.53534" lon="5.93987">
        <ele>522.6</ele>
        <time>2014-04-04T11:07:18Z</time>
      </trkpt>
      <trkpt lat="45.53534" lon="5.93987">
        <ele>522.6</ele>
        <time>2014-04-04T11:07:20Z</time>
      </trkpt>
      <trkpt lat="45.53534" lon="5.93987">
        <ele>522.6</ele>
        <time>2014-04-04T11:07:22Z</time>
      </trkpt>
      <trkpt lat="45.53534" lon="5.93987">
        <ele>522.6</ele>
        <time>2014-04-04T11:07:26Z</time>
      </trkpt>
      <trkpt lat="45.53533" lon="5.93987">
        <ele>522.6</ele>
        <time>2014-04-04T11:07:30Z</time>
      </trkpt>
      <trkpt lat="45.53533" lon="5.93987">
        <ele>522.6</ele>
        <time>2014-04-04T11:07:32Z</time>
      </trkpt>
      <trkpt lat="45.53533" lon="5.93987">
        <ele>522.5</ele>
        <time>2014-04-04T11:07:36Z</time>
      </trkpt>
      <trkpt lat="45.53534" lon="5.93988">
        <ele>522.5</ele>
        <time>2014-04-04T11:07:38Z</time>
      </trkpt>
      <trkpt lat="45.53534" lon="5.93988">
        <ele>522.5</ele>
        <time>2014-04-04T11:07:40Z</time>
      </trkpt>
      <trkpt lat="45.53533" lon="5.93988">
        <ele>522.5</ele>
        <time>2014-04-04T11:07:42Z</time>
      </trkpt>
      <trkpt lat="45.53533" lon="5.93988">
        <ele>522.5</ele>
        <time>2014-04-04T11:07:44Z</time>
      </trkpt>
      <trkpt lat="45.53532" lon="5.93988">
        <ele>522.5</ele>
        <time>2014-04-04T11:07:46Z</time>
      </trkpt>
      <trkpt lat="45.53532" lon="5.93988">
        <ele>522.5</ele>
        <time>2014-04-04T11:07:48Z</time>
      </trkpt>
      <trkpt lat="45.53531" lon="5.93988">
        <ele>522.5</ele>
        <time>2014-04-04T11:07:50Z</time>
      </trkpt>
      <trkpt lat="45.5353" lon="5.93988">
        <ele>522.5</ele>
        <time>2014-04-04T11:07:52Z</time>
      </trkpt>
      <trkpt lat="45.5353" lon="5.93988">
        <ele>522.5</ele>
        <time>2014-04-04T11:07:54Z</time>
      </trkpt>
      <trkpt lat="45.5353" lon="5.93988">
        <ele>522.6</ele>
        <time>2014-04-04T11:07:56Z</time>
      </trkpt>
      <trkpt lat="45.5353" lon="5.93988">
        <ele>522.6</ele>
        <time>2014-04-04T11:08:00Z</time>
      </trkpt>
      <trkpt lat="45.5353" lon="5.93988">
        <ele>522.5</ele>
        <time>2014-04-04T11:08:02Z</time>
      </trkpt>
      <trkpt lat="45.5353" lon="5.93988">
        <ele>522.5</ele>
        <time>2014-04-04T11:08:06Z</time>
      </trkpt>
      <trkpt lat="45.5353" lon="5.93988">
        <ele>522.5</ele>
        <time>2014-04-04T11:08:08Z</time>
      </trkpt>
      <trkpt lat="45.5353" lon="5.93988">
        <ele>522.5</ele>
        <time>2014-04-04T11:08:10Z</time>
      </trkpt>
      <trkpt lat="45.5353" lon="5.93988">
        <ele>522.5</ele>
        <time>2014-04-04T11:08:14Z</time>
      </trkpt>
      <trkpt lat="45.53529" lon="5.93988">
        <ele>522.6</ele>
        <time>2014-04-04T11:08:20Z</time>
      </trkpt>
      <trkpt lat="45.53529" lon="5.93988">
        <ele>522.6</ele>
        <time>2014-04-04T11:08:24Z</time>
      </trkpt>
      <trkpt lat="45.53529" lon="5.93987">
        <ele>522.7</ele>
        <time>2014-04-04T11:08:26Z</time>
      </trkpt>
      <trkpt lat="45.53529" lon="5.93987">
        <ele>522.8</ele>
        <time>2014-04-04T11:08:28Z</time>
      </trkpt>
      <trkpt lat="45.53529" lon="5.93987">
        <ele>522.7</ele>
        <time>2014-04-04T11:08:32Z</time>
      </trkpt>
      <trkpt lat="45.53529" lon="5.93987">
        <ele>522.7</ele>
        <time>2014-04-04T11:08:34Z</time>
      </trkpt>
      <trkpt lat="45.53529" lon="5.93988">
        <ele>522.7</ele>
        <time>2014-04-04T11:08:36Z</time>
      </trkpt>
      <trkpt lat="45.53528" lon="5.93988">
        <ele>522.6</ele>
        <time>2014-04-04T11:08:38Z</time>
      </trkpt>
      <trkpt lat="45.53528" lon="5.93988">
        <ele>522.6</ele>
        <time>2014-04-04T11:08:42Z</time>
      </trkpt>
      <trkpt lat="45.53528" lon="5.93988">
        <ele>522.6</ele>
        <time>2014-04-04T11:08:44Z</time>
      </trkpt>
      <trkpt lat="45.53528" lon="5.93988">
        <ele>522.6</ele>
        <time>2014-04-04T11:08:50Z</time>
      </trkpt>
      <trkpt lat="45.53529" lon="5.93988">
        <ele>522.6</ele>
        <time>2014-04-04T11:08:52Z</time>
      </trkpt>
      <trkpt lat="45.53529" lon="5.93988">
        <ele>522.5</ele>
        <time>2014-04-04T11:08:58Z</time>
      </trkpt>
      <trkpt lat="45.53529" lon="5.93988">
        <ele>522.5</ele>
        <time>2014-04-04T11:09:00Z</time>
      </trkpt>
      <trkpt lat="45.53529" lon="5.93988">
        <ele>522.5</ele>
        <time>2014-04-04T11:09:02Z</time>
      </trkpt>
      <trkpt lat="45.5353" lon="5.93988">
        <ele>522.5</ele>
        <time>2014-04-04T11:09:06Z</time>
      </trkpt>
      <trkpt lat="45.5353" lon="5.93988">
        <ele>522.5</ele>
        <time>2014-04-04T11:09:08Z</time>
      </trkpt>
      <trkpt lat="45.5353" lon="5.93988">
        <ele>522.6</ele>
        <time>2014-04-04T11:09:10Z</time>
      </trkpt>
      <trkpt lat="45.53531" lon="5.93988">
        <ele>522.6</ele>
        <time>2014-04-04T11:09:12Z</time>
      </trkpt>
      <trkpt lat="45.53531" lon="5.93988">
        <ele>522.6</ele>
        <time>2014-04-04T11:09:18Z</time>
      </trkpt>
      <trkpt lat="45.53531" lon="5.93988">
        <ele>522.6</ele>
        <time>2014-04-04T11:09:22Z</time>
      </trkpt>
      <trkpt lat="45.53531" lon="5.93988">
        <ele>522.5</ele>
        <time>2014-04-04T11:09:26Z</time>
      </trkpt>
      <trkpt lat="45.53531" lon="5.93988">
        <ele>522.5</ele>
        <time>2014-04-04T11:09:28Z</time>
      </trkpt>
      <trkpt lat="45.53531" lon="5.93988">
        <ele>522.4</ele>
        <time>2014-04-04T11:09:36Z</time>
      </trkpt>
      <trkpt lat="45.53531" lon="5.93988">
        <ele>522.5</ele>
        <time>2014-04-04T11:09:38Z</time>
      </trkpt>
      <trkpt lat="45.5353" lon="5.93988">
        <ele>522.4</ele>
        <time>2014-04-04T11:09:44Z</time>
      </trkpt>
      <trkpt lat="45.5353" lon="5.93988">
        <ele>522.4</ele>
        <time>2014-04-04T11:09:48Z</time>
      </trkpt>
      <trkpt lat="45.5353" lon="5.93988">
        <ele>522.4</ele>
        <time>2014-04-04T11:09:50Z</time>
      </trkpt>
      <trkpt lat="45.5353" lon="5.93988">
        <ele>522.4</ele>
        <time>2014-04-04T11:09:52Z</time>
      </trkpt>
      <trkpt lat="45.5353" lon="5.93988">
        <ele>522.5</ele>
        <time>2014-04-04T11:09:56Z</time>
      </trkpt>
      <trkpt lat="45.53529" lon="5.93988">
        <ele>522.5</ele>
        <time>2014-04-04T11:10:04Z</time>
      </trkpt>
      <trkpt lat="45.53529" lon="5.93988">
        <ele>522.5</ele>
        <time>2014-04-04T11:10:06Z</time>
      </trkpt>
      <trkpt lat="45.5353" lon="5.93988">
        <ele>522.5</ele>
        <time>2014-04-04T11:10:12Z</time>
      </trkpt>
      <trkpt lat="45.5353" lon="5.93988">
        <ele>522.5</ele>
        <time>2014-04-04T11:10:24Z</time>
      </trkpt>
      <trkpt lat="45.5353" lon="5.93988">
        <ele>522.5</ele>
        <time>2014-04-04T11:10:26Z</time>
      </trkpt>
      <trkpt lat="45.5353" lon="5.93988">
        <ele>522.5</ele>
        <time>2014-04-04T11:10:28Z</time>
      </trkpt>
      <trkpt lat="45.53531" lon="5.93988">
        <ele>522.5</ele>
        <time>2014-04-04T11:10:36Z</time>
      </trkpt>
      <trkpt lat="45.53531" lon="5.93988">
        <ele>522.5</ele>
        <time>2014-04-04T11:10:40Z</time>
      </trkpt>
      <trkpt lat="45.53531" lon="5.93988">
        <ele>522.5</ele>
        <time>2014-04-04T11:10:44Z</time>
      </trkpt>
      <trkpt lat="45.53531" lon="5.93988">
        <ele>522.6</ele>
        <time>2014-04-04T11:11:30Z</time>
      </trkpt>
      <trkpt lat="45.53531" lon="5.93987">
        <ele>522.6</ele>
        <time>2014-04-04T11:11:40Z</time>
      </trkpt>
      <trkpt lat="45.53531" lon="5.93987">
        <ele>522.6</ele>
        <time>2014-04-04T11:11:44Z</time>
      </trkpt>
      <trkpt lat="45.53531" lon="5.93987">
        <ele>522.7</ele>
        <time>2014-04-04T11:11:48Z</time>
      </trkpt>
      <trkpt lat="45.53531" lon="5.93987">
        <ele>522.7</ele>
        <time>2014-04-04T11:11:52Z</time>
      </trkpt>
      <trkpt lat="45.53531" lon="5.93987">
        <ele>522.6</ele>
        <time>2014-04-04T11:12:10Z</time>
      </trkpt>
      <trkpt lat="45.53531" lon="5.93987">
        <ele>522.6</ele>
        <time>2014-04-04T11:12:16Z</time>
      </trkpt>
      <trkpt lat="45.53531" lon="5.93987">
        <ele>522.6</ele>
        <time>2014-04-04T11:12:24Z</time>
      </trkpt>
      <trkpt lat="45.5353" lon="5.93988">
        <ele>522.6</ele>
        <time>2014-04-04T11:12:26Z</time>
      </trkpt>
      <trkpt lat="45.5353" lon="5.93987">
        <ele>522.7</ele>
        <time>2014-04-04T11:12:30Z</time>
      </trkpt>
      <trkpt lat="45.53531" lon="5.93987">
        <ele>522.7</ele>
        <time>2014-04-04T11:12:32Z</time>
      </trkpt>
      <trkpt lat="45.53531" lon="5.93987">
        <ele>522.8</ele>
        <time>2014-04-04T11:12:34Z</time>
      </trkpt>
      <trkpt lat="45.53531" lon="5.93986">
        <ele>523</ele>
        <time>2014-04-04T11:12:36Z</time>
      </trkpt>
      <trkpt lat="45.53531" lon="5.93986">
        <ele>523</ele>
        <time>2014-04-04T11:12:38Z</time>
      </trkpt>
      <trkpt lat="45.5353" lon="5.93985">
        <ele>523.2</ele>
        <time>2014-04-04T11:12:42Z</time>
      </trkpt>
      <trkpt lat="45.5353" lon="5.93984">
        <ele>523.3</ele>
        <time>2014-04-04T11:12:46Z</time>
      </trkpt>
      <trkpt lat="45.5353" lon="5.93984">
        <ele>523.4</ele>
        <time>2014-04-04T11:12:48Z</time>
      </trkpt>
      <trkpt lat="45.53529" lon="5.93983">
        <ele>523.7</ele>
        <time>2014-04-04T11:12:50Z</time>
      </trkpt>
      <trkpt lat="45.53529" lon="5.93982">
        <ele>523.9</ele>
        <time>2014-04-04T11:12:52Z</time>
      </trkpt>
      <trkpt lat="45.53529" lon="5.93982">
        <ele>523.9</ele>
        <time>2014-04-04T11:12:54Z</time>
      </trkpt>
      <trkpt lat="45.53529" lon="5.93982">
        <ele>524</ele>
        <time>2014-04-04T11:12:56Z</time>
      </trkpt>
      <trkpt lat="45.53528" lon="5.93981">
        <ele>524.1</ele>
        <time>2014-04-04T11:12:58Z</time>
      </trkpt>
      <trkpt lat="45.53528" lon="5.93981">
        <ele>524.1</ele>
        <time>2014-04-04T11:13:00Z</time>
      </trkpt>
      <trkpt lat="45.53528" lon="5.93981">
        <ele>524</ele>
        <time>2014-04-04T11:13:02Z</time>
      </trkpt>
      <trkpt lat="45.53528" lon="5.93981">
        <ele>524.1</ele>
        <time>2014-04-04T11:13:04Z</time>
      </trkpt>
      <trkpt lat="45.53528" lon="5.93981">
        <ele>524.1</ele>
        <time>2014-04-04T11:13:06Z</time>
      </trkpt>
      <trkpt lat="45.53528" lon="5.93981">
        <ele>524.2</ele>
        <time>2014-04-04T11:13:08Z</time>
      </trkpt>
      <trkpt lat="45.53528" lon="5.93981">
        <ele>524.1</ele>
        <time>2014-04-04T11:13:10Z</time>
      </trkpt>
      <trkpt lat="45.53529" lon="5.93981">
        <ele>524</ele>
        <time>2014-04-04T11:13:12Z</time>
      </trkpt>
      <trkpt lat="45.53529" lon="5.93981">
        <ele>524</ele>
        <time>2014-04-04T11:13:14Z</time>
      </trkpt>
      <trkpt lat="45.53529" lon="5.93981">
        <ele>524</ele>
        <time>2014-04-04T11:13:16Z</time>
      </trkpt>
      <trkpt lat="45.53529" lon="5.93981">
        <ele>524</ele>
        <time>2014-04-04T11:13:18Z</time>
      </trkpt>
      <trkpt lat="45.53529" lon="5.93982">
        <ele>523.9</ele>
        <time>2014-04-04T11:13:20Z</time>
      </trkpt>
      <trkpt lat="45.53529" lon="5.93982">
        <ele>523.9</ele>
        <time>2014-04-04T11:13:22Z</time>
      </trkpt>
      <trkpt lat="45.53529" lon="5.93982">
        <ele>523.9</ele>
        <time>2014-04-04T11:13:24Z</time>
      </trkpt>
      <trkpt lat="45.53529" lon="5.93982">
        <ele>523.9</ele>
        <time>2014-04-04T11:13:26Z</time>
      </trkpt>
      <trkpt lat="45.53529" lon="5.93982">
        <ele>523.9</ele>
        <time>2014-04-04T11:13:28Z</time>
      </trkpt>
      <trkpt lat="45.53529" lon="5.93982">
        <ele>523.9</ele>
        <time>2014-04-04T11:13:32Z</time>
      </trkpt>
      <trkpt lat="45.53528" lon="5.93983">
        <ele>523.8</ele>
        <time>2014-04-04T11:13:34Z</time>
      </trkpt>
      <trkpt lat="45.53529" lon="5.93983">
        <ele>523.7</ele>
        <time>2014-04-04T11:13:36Z</time>
      </trkpt>
      <trkpt lat="45.53529" lon="5.93982">
        <ele>523.8</ele>
        <time>2014-04-04T11:13:40Z</time>
      </trkpt>
      <trkpt lat="45.53529" lon="5.93982">
        <ele>523.9</ele>
        <time>2014-04-04T11:13:42Z</time>
      </trkpt>
      <trkpt lat="45.53529" lon="5.93982">
        <ele>523.8</ele>
        <time>2014-04-04T11:13:46Z</time>
      </trkpt>
      <trkpt lat="45.53529" lon="5.93982">
        <ele>523.8</ele>
        <time>2014-04-04T11:13:48Z</time>
      </trkpt>
      <trkpt lat="45.53529" lon="5.93983">
        <ele>523.7</ele>
        <time>2014-04-04T11:13:50Z</time>
      </trkpt>
      <trkpt lat="45.53529" lon="5.93983">
        <ele>523.6</ele>
        <time>2014-04-04T11:13:52Z</time>
      </trkpt>
      <trkpt lat="45.53529" lon="5.93984">
        <ele>523.5</ele>
        <time>2014-04-04T11:13:54Z</time>
      </trkpt>
      <trkpt lat="45.53529" lon="5.93984">
        <ele>523.3</ele>
        <time>2014-04-04T11:13:56Z</time>
      </trkpt>
      <trkpt lat="45.53529" lon="5.93986">
        <ele>523.1</ele>
        <time>2014-04-04T11:13:58Z</time>
      </trkpt>
      <trkpt lat="45.53529" lon="5.93986">
        <ele>523.1</ele>
        <time>2014-04-04T11:14:00Z</time>
      </trkpt>
      <trkpt lat="45.53529" lon="5.93986">
        <ele>523</ele>
        <time>2014-04-04T11:14:02Z</time>
      </trkpt>
      <trkpt lat="45.53529" lon="5.93986">
        <ele>523</ele>
        <time>2014-04-04T11:14:04Z</time>
      </trkpt>
      <trkpt lat="45.53529" lon="5.93986">
        <ele>523</ele>
        <time>2014-04-04T11:14:06Z</time>
      </trkpt>
      <trkpt lat="45.53528" lon="5.93986">
        <ele>523.1</ele>
        <time>2014-04-04T11:14:12Z</time>
      </trkpt>
      <trkpt lat="45.53528" lon="5.93985">
        <ele>523.2</ele>
        <time>2014-04-04T11:14:14Z</time>
      </trkpt>
      <trkpt lat="45.53528" lon="5.93985">
        <ele>523.2</ele>
        <time>2014-04-04T11:14:16Z</time>
      </trkpt>
      <trkpt lat="45.53528" lon="5.93985">
        <ele>523.2</ele>
        <time>2014-04-04T11:14:18Z</time>
      </trkpt>
      <trkpt lat="45.53528" lon="5.93985">
        <ele>523.3</ele>
        <time>2014-04-04T11:14:20Z</time>
      </trkpt>
      <trkpt lat="45.53528" lon="5.93985">
        <ele>523.4</ele>
        <time>2014-04-04T11:14:22Z</time>
      </trkpt>
      <trkpt lat="45.53527" lon="5.93984">
        <ele>523.4</ele>
        <time>2014-04-04T11:14:26Z</time>
      </trkpt>
      <trkpt lat="45.53527" lon="5.93984">
        <ele>523.4</ele>
        <time>2014-04-04T11:14:28Z</time>
      </trkpt>
      <trkpt lat="45.53527" lon="5.93984">
        <ele>523.5</ele>
        <time>2014-04-04T11:14:32Z</time>
      </trkpt>
      <trkpt lat="45.53527" lon="5.93984">
        <ele>523.5</ele>
        <time>2014-04-04T11:14:34Z</time>
      </trkpt>
      <trkpt lat="45.53527" lon="5.93984">
        <ele>523.6</ele>
        <time>2014-04-04T11:14:36Z</time>
      </trkpt>
      <trkpt lat="45.53527" lon="5.93984">
        <ele>523.6</ele>
        <time>2014-04-04T11:14:38Z</time>
      </trkpt>
      <trkpt lat="45.53527" lon="5.93984">
        <ele>523.5</ele>
        <time>2014-04-04T11:14:40Z</time>
      </trkpt>
      <trkpt lat="45.53527" lon="5.93984">
        <ele>523.5</ele>
        <time>2014-04-04T11:14:42Z</time>
      </trkpt>
      <trkpt lat="45.53528" lon="5.93983">
        <ele>523.6</ele>
        <time>2014-04-04T11:14:44Z</time>
      </trkpt>
      <trkpt lat="45.53529" lon="5.93983">
        <ele>523.8</ele>
        <time>2014-04-04T11:14:46Z</time>
      </trkpt>
      <trkpt lat="45.53529" lon="5.9398">
        <ele>524.2</ele>
        <time>2014-04-04T11:14:48Z</time>
      </trkpt>
      <trkpt lat="45.5353" lon="5.93979">
        <ele>524.5</ele>
        <time>2014-04-04T11:14:50Z</time>
      </trkpt>
      <trkpt lat="45.53531" lon="5.93978">
        <ele>524.6</ele>
        <time>2014-04-04T11:14:52Z</time>
      </trkpt>
      <trkpt lat="45.53534" lon="5.93977">
        <ele>524.7</ele>
        <time>2014-04-04T11:14:54Z</time>
      </trkpt>
      <trkpt lat="45.53536" lon="5.93983">
        <ele>523.5</ele>
        <time>2014-04-04T11:14:56Z</time>
      </trkpt>
      <trkpt lat="45.53533" lon="5.93983">
        <ele>523.5</ele>
        <time>2014-04-04T11:14:58Z</time>
      </trkpt>
      <trkpt lat="45.53533" lon="5.93982">
        <ele>523.7</ele>
        <time>2014-04-04T11:15:00Z</time>
      </trkpt>
      <trkpt lat="45.53531" lon="5.93979">
        <ele>524.4</ele>
        <time>2014-04-04T11:15:02Z</time>
      </trkpt>
      <trkpt lat="45.53528" lon="5.93978">
        <ele>524.8</ele>
        <time>2014-04-04T11:15:04Z</time>
      </trkpt>
      <trkpt lat="45.53524" lon="5.93976">
        <ele>525.3</ele>
        <time>2014-04-04T11:15:06Z</time>
      </trkpt>
      <trkpt lat="45.53522" lon="5.93976">
        <ele>525.5</ele>
        <time>2014-04-04T11:15:08Z</time>
      </trkpt>
      <trkpt lat="45.53519" lon="5.93975">
        <ele>525.8</ele>
        <time>2014-04-04T11:15:10Z</time>
      </trkpt>
      <trkpt lat="45.53516" lon="5.93973">
        <ele>526.2</ele>
        <time>2014-04-04T11:15:12Z</time>
      </trkpt>
      <trkpt lat="45.53514" lon="5.93972">
        <ele>526.5</ele>
        <time>2014-04-04T11:15:14Z</time>
      </trkpt>
      <trkpt lat="45.53513" lon="5.93972">
        <ele>526.7</ele>
        <time>2014-04-04T11:15:16Z</time>
      </trkpt>
      <trkpt lat="45.53508" lon="5.93971">
        <ele>527.1</ele>
        <time>2014-04-04T11:15:18Z</time>
      </trkpt>
      <trkpt lat="45.53505" lon="5.93971">
        <ele>527.2</ele>
        <time>2014-04-04T11:15:20Z</time>
      </trkpt>
      <trkpt lat="45.53503" lon="5.9397">
        <ele>527.3</ele>
        <time>2014-04-04T11:15:22Z</time>
      </trkpt>
      <trkpt lat="45.535" lon="5.9397">
        <ele>527.4</ele>
        <time>2014-04-04T11:15:24Z</time>
      </trkpt>
      <trkpt lat="45.53497" lon="5.9397">
        <ele>527.8</ele>
        <time>2014-04-04T11:15:26Z</time>
      </trkpt>
      <trkpt lat="45.53492" lon="5.93972">
        <ele>528</ele>
        <time>2014-04-04T11:15:28Z</time>
      </trkpt>
      <trkpt lat="45.5349" lon="5.93972">
        <ele>528.2</ele>
        <time>2014-04-04T11:15:30Z</time>
      </trkpt>
      <trkpt lat="45.53487" lon="5.93972">
        <ele>528.5</ele>
        <time>2014-04-04T11:15:32Z</time>
      </trkpt>
      <trkpt lat="45.53482" lon="5.93972">
        <ele>529.1</ele>
        <time>2014-04-04T11:15:34Z</time>
      </trkpt>
      <trkpt lat="45.53478" lon="5.93973">
        <ele>529.3</ele>
        <time>2014-04-04T11:15:36Z</time>
      </trkpt>
      <trkpt lat="45.53477" lon="5.93973">
        <ele>529.5</ele>
        <time>2014-04-04T11:15:38Z</time>
      </trkpt>
      <trkpt lat="45.53473" lon="5.93973">
        <ele>529.9</ele>
        <time>2014-04-04T11:15:40Z</time>
      </trkpt>
      <trkpt lat="45.5347" lon="5.93973">
        <ele>530.1</ele>
        <time>2014-04-04T11:15:42Z</time>
      </trkpt>
      <trkpt lat="45.53468" lon="5.93974">
        <ele>530</ele>
        <time>2014-04-04T11:15:44Z</time>
      </trkpt>
      <trkpt lat="45.53466" lon="5.93974">
        <ele>530.1</ele>
        <time>2014-04-04T11:15:46Z</time>
      </trkpt>
      <trkpt lat="45.53465" lon="5.93973">
        <ele>530.4</ele>
        <time>2014-04-04T11:15:48Z</time>
      </trkpt>
      <trkpt lat="45.53457" lon="5.93973">
        <ele>531</ele>
        <time>2014-04-04T11:15:50Z</time>
      </trkpt>
      <trkpt lat="45.53456" lon="5.93974">
        <ele>530.9</ele>
        <time>2014-04-04T11:15:52Z</time>
      </trkpt>
      <trkpt lat="45.53454" lon="5.93974">
        <ele>531.1</ele>
        <time>2014-04-04T11:15:54Z</time>
      </trkpt>
      <trkpt lat="45.53452" lon="5.93971">
        <ele>531.6</ele>
        <time>2014-04-04T11:15:56Z</time>
      </trkpt>
      <trkpt lat="45.53451" lon="5.93971">
        <ele>531.7</ele>
        <time>2014-04-04T11:15:58Z</time>
      </trkpt>
      <trkpt lat="45.5345" lon="5.93972">
        <ele>531.7</ele>
        <time>2014-04-04T11:16:00Z</time>
      </trkpt>
      <trkpt lat="45.53449" lon="5.93972">
        <ele>531.7</ele>
        <time>2014-04-04T11:16:02Z</time>
      </trkpt>
      <trkpt lat="45.53446" lon="5.93971">
        <ele>532.1</ele>
        <time>2014-04-04T11:16:04Z</time>
      </trkpt>
      <trkpt lat="45.53445" lon="5.93971">
        <ele>532.2</ele>
        <time>2014-04-04T11:16:06Z</time>
      </trkpt>
      <trkpt lat="45.53445" lon="5.93971">
        <ele>532.3</ele>
        <time>2014-04-04T11:16:08Z</time>
      </trkpt>
      <trkpt lat="45.53445" lon="5.93971">
        <ele>532.3</ele>
        <time>2014-04-04T11:16:10Z</time>
      </trkpt>
      <trkpt lat="45.53445" lon="5.93971">
        <ele>532.3</ele>
        <time>2014-04-04T11:16:12Z</time>
      </trkpt>
      <trkpt lat="45.53445" lon="5.9397">
        <ele>532.3</ele>
        <time>2014-04-04T11:16:14Z</time>
      </trkpt>
      <trkpt lat="45.53445" lon="5.9397">
        <ele>532.3</ele>
        <time>2014-04-04T11:16:16Z</time>
      </trkpt>
      <trkpt lat="45.53445" lon="5.9397">
        <ele>532.3</ele>
        <time>2014-04-04T11:16:18Z</time>
      </trkpt>
      <trkpt lat="45.53444" lon="5.93972">
        <ele>532.1</ele>
        <time>2014-04-04T11:16:20Z</time>
      </trkpt>
      <trkpt lat="45.53443" lon="5.93972">
        <ele>532.2</ele>
        <time>2014-04-04T11:16:22Z</time>
      </trkpt>
      <trkpt lat="45.53439" lon="5.93971">
        <ele>532.6</ele>
        <time>2014-04-04T11:16:24Z</time>
      </trkpt>
      <trkpt lat="45.53433" lon="5.9397">
        <ele>533.3</ele>
        <time>2014-04-04T11:16:26Z</time>
      </trkpt>
      <trkpt lat="45.53429" lon="5.93969">
        <ele>533.7</ele>
        <time>2014-04-04T11:16:28Z</time>
      </trkpt>
      <trkpt lat="45.53427" lon="5.93969">
        <ele>533.9</ele>
        <time>2014-04-04T11:16:30Z</time>
      </trkpt>
      <trkpt lat="45.53423" lon="5.93969">
        <ele>534.2</ele>
        <time>2014-04-04T11:16:32Z</time>
      </trkpt>
      <trkpt lat="45.53416" lon="5.93969">
        <ele>534.8</ele>
        <time>2014-04-04T11:16:34Z</time>
      </trkpt>
      <trkpt lat="45.53412" lon="5.93969">
        <ele>535.6</ele>
        <time>2014-04-04T11:16:36Z</time>
      </trkpt>
      <trkpt lat="45.5341" lon="5.93968">
        <ele>535.9</ele>
        <time>2014-04-04T11:16:38Z</time>
      </trkpt>
      <trkpt lat="45.53404" lon="5.93969">
        <ele>537.1</ele>
        <time>2014-04-04T11:16:40Z</time>
      </trkpt>
      <trkpt lat="45.534" lon="5.93969">
        <ele>537.7</ele>
        <time>2014-04-04T11:16:42Z</time>
      </trkpt>
      <trkpt lat="45.53397" lon="5.9397">
        <ele>538</ele>
        <time>2014-04-04T11:16:44Z</time>
      </trkpt>
      <trkpt lat="45.53393" lon="5.93971">
        <ele>538.5</ele>
        <time>2014-04-04T11:16:46Z</time>
      </trkpt>
      <trkpt lat="45.53389" lon="5.93973">
        <ele>538.8</ele>
        <time>2014-04-04T11:16:48Z</time>
      </trkpt>
      <trkpt lat="45.53383" lon="5.93975">
        <ele>539.4</ele>
        <time>2014-04-04T11:16:50Z</time>
      </trkpt>
      <trkpt lat="45.53381" lon="5.93977">
        <ele>539.5</ele>
        <time>2014-04-04T11:16:52Z</time>
      </trkpt>
      <trkpt lat="45.53377" lon="5.93979">
        <ele>539.8</ele>
        <time>2014-04-04T11:16:54Z</time>
      </trkpt>
      <trkpt lat="45.5337" lon="5.93982">
        <ele>540.3</ele>
        <time>2014-04-04T11:16:56Z</time>
      </trkpt>
      <trkpt lat="45.53366" lon="5.93984">
        <ele>540.9</ele>
        <time>2014-04-04T11:16:58Z</time>
      </trkpt>
      <trkpt lat="45.53364" lon="5.93985">
        <ele>541.3</ele>
        <time>2014-04-04T11:17:00Z</time>
      </trkpt>
      <trkpt lat="45.53359" lon="5.93986">
        <ele>541.9</ele>
        <time>2014-04-04T11:17:02Z</time>
      </trkpt>
      <trkpt lat="45.53352" lon="5.93988">
        <ele>542.6</ele>
        <time>2014-04-04T11:17:04Z</time>
      </trkpt>
      <trkpt lat="45.53348" lon="5.93989">
        <ele>543.2</ele>
        <time>2014-04-04T11:17:06Z</time>
      </trkpt>
      <trkpt lat="45.53345" lon="5.93989">
        <ele>543.5</ele>
        <time>2014-04-04T11:17:08Z</time>
      </trkpt>
      <trkpt lat="45.53341" lon="5.93989">
        <ele>544.2</ele>
        <time>2014-04-04T11:17:10Z</time>
      </trkpt>
      <trkpt lat="45.53333" lon="5.93991">
        <ele>544.9</ele>
        <time>2014-04-04T11:17:12Z</time>
      </trkpt>
      <trkpt lat="45.53331" lon="5.93992">
        <ele>545</ele>
        <time>2014-04-04T11:17:14Z</time>
      </trkpt>
      <trkpt lat="45.53326" lon="5.93993">
        <ele>545.2</ele>
        <time>2014-04-04T11:17:16Z</time>
      </trkpt>
      <trkpt lat="45.53319" lon="5.93994">
        <ele>545.6</ele>
        <time>2014-04-04T11:17:18Z</time>
      </trkpt>
      <trkpt lat="45.53314" lon="5.93994">
        <ele>545.8</ele>
        <time>2014-04-04T11:17:20Z</time>
      </trkpt>
      <trkpt lat="45.53312" lon="5.93994">
        <ele>546</ele>
        <time>2014-04-04T11:17:22Z</time>
      </trkpt>
      <trkpt lat="45.53307" lon="5.93994">
        <ele>546.3</ele>
        <time>2014-04-04T11:17:24Z</time>
      </trkpt>
      <trkpt lat="45.533" lon="5.93995">
        <ele>547</ele>
        <time>2014-04-04T11:17:26Z</time>
      </trkpt>
      <trkpt lat="45.53295" lon="5.93997">
        <ele>547.5</ele>
        <time>2014-04-04T11:17:28Z</time>
      </trkpt>
      <trkpt lat="45.53293" lon="5.93997">
        <ele>547.7</ele>
        <time>2014-04-04T11:17:30Z</time>
      </trkpt>
      <trkpt lat="45.53285" lon="5.93999">
        <ele>548.2</ele>
        <time>2014-04-04T11:17:32Z</time>
      </trkpt>
      <trkpt lat="45.5328" lon="5.94">
        <ele>548.7</ele>
        <time>2014-04-04T11:17:34Z</time>
      </trkpt>
      <trkpt lat="45.53275" lon="5.94002">
        <ele>549.2</ele>
        <time>2014-04-04T11:17:36Z</time>
      </trkpt>
      <trkpt lat="45.53273" lon="5.94002">
        <ele>549.6</ele>
        <time>2014-04-04T11:17:38Z</time>
      </trkpt>
      <trkpt lat="45.53268" lon="5.94004">
        <ele>550.4</ele>
        <time>2014-04-04T11:17:40Z</time>
      </trkpt>
      <trkpt lat="45.53261" lon="5.94005">
        <ele>551.7</ele>
        <time>2014-04-04T11:17:42Z</time>
      </trkpt>
      <trkpt lat="45.53258" lon="5.94006">
        <ele>552</ele>
        <time>2014-04-04T11:17:44Z</time>
      </trkpt>
      <trkpt lat="45.53253" lon="5.94007">
        <ele>552.8</ele>
        <time>2014-04-04T11:17:46Z</time>
      </trkpt>
      <trkpt lat="45.53246" lon="5.94008">
        <ele>553.8</ele>
        <time>2014-04-04T11:17:48Z</time>
      </trkpt>
      <trkpt lat="45.53242" lon="5.9401">
        <ele>554.5</ele>
        <time>2014-04-04T11:17:50Z</time>
      </trkpt>
      <trkpt lat="45.53239" lon="5.94011">
        <ele>554.7</ele>
        <time>2014-04-04T11:17:52Z</time>
      </trkpt>
      <trkpt lat="45.53235" lon="5.94012">
        <ele>555.4</ele>
        <time>2014-04-04T11:17:54Z</time>
      </trkpt>
      <trkpt lat="45.53228" lon="5.94013">
        <ele>556.6</ele>
        <time>2014-04-04T11:17:56Z</time>
      </trkpt>
      <trkpt lat="45.53223" lon="5.94015">
        <ele>557.3</ele>
        <time>2014-04-04T11:17:58Z</time>
      </trkpt>
      <trkpt lat="45.5322" lon="5.94015">
        <ele>557.6</ele>
        <time>2014-04-04T11:18:00Z</time>
      </trkpt>
      <trkpt lat="45.53214" lon="5.94016">
        <ele>558.2</ele>
        <time>2014-04-04T11:18:02Z</time>
      </trkpt>
      <trkpt lat="45.5321" lon="5.94018">
        <ele>558.5</ele>
        <time>2014-04-04T11:18:04Z</time>
      </trkpt>
      <trkpt lat="45.53209" lon="5.94019">
        <ele>558.5</ele>
        <time>2014-04-04T11:18:06Z</time>
      </trkpt>
      <trkpt lat="45.5321" lon="5.94021">
        <ele>558.3</ele>
        <time>2014-04-04T11:18:08Z</time>
      </trkpt>
      <trkpt lat="45.53211" lon="5.94023">
        <ele>558</ele>
        <time>2014-04-04T11:18:10Z</time>
      </trkpt>
      <trkpt lat="45.53213" lon="5.94025">
        <ele>557.7</ele>
        <time>2014-04-04T11:18:12Z</time>
      </trkpt>
      <trkpt lat="45.53213" lon="5.94026">
        <ele>557.5</ele>
        <time>2014-04-04T11:18:14Z</time>
      </trkpt>
      <trkpt lat="45.53213" lon="5.9403">
        <ele>557.6</ele>
        <time>2014-04-04T11:18:16Z</time>
      </trkpt>
      <trkpt lat="45.53214" lon="5.94037">
        <ele>558.3</ele>
        <time>2014-04-04T11:18:18Z</time>
      </trkpt>
      <trkpt lat="45.53214" lon="5.94041">
        <ele>558.8</ele>
        <time>2014-04-04T11:18:20Z</time>
      </trkpt>
      <trkpt lat="45.53214" lon="5.94043">
        <ele>559</ele>
        <time>2014-04-04T11:18:22Z</time>
      </trkpt>
      <trkpt lat="45.53215" lon="5.94047">
        <ele>559.3</ele>
        <time>2014-04-04T11:18:24Z</time>
      </trkpt>
      <trkpt lat="45.53214" lon="5.94049">
        <ele>559.7</ele>
        <time>2014-04-04T11:18:26Z</time>
      </trkpt>
      <trkpt lat="45.53213" lon="5.94051">
        <ele>560.1</ele>
        <time>2014-04-04T11:18:28Z</time>
      </trkpt>
      <trkpt lat="45.53212" lon="5.94052">
        <ele>560.4</ele>
        <time>2014-04-04T11:18:30Z</time>
      </trkpt>
      <trkpt lat="45.53209" lon="5.94054">
        <ele>561.2</ele>
        <time>2014-04-04T11:18:32Z</time>
      </trkpt>
      <trkpt lat="45.53206" lon="5.94057">
        <ele>562.4</ele>
        <time>2014-04-04T11:18:34Z</time>
      </trkpt>
      <trkpt lat="45.53205" lon="5.94058">
        <ele>562.7</ele>
        <time>2014-04-04T11:18:36Z</time>
      </trkpt>
      <trkpt lat="45.53204" lon="5.94059">
        <ele>563.3</ele>
        <time>2014-04-04T11:18:38Z</time>
      </trkpt>
      <trkpt lat="45.53203" lon="5.9406">
        <ele>563.8</ele>
        <time>2014-04-04T11:18:40Z</time>
      </trkpt>
      <trkpt lat="45.53203" lon="5.94061">
        <ele>564</ele>
        <time>2014-04-04T11:18:42Z</time>
      </trkpt>
      <trkpt lat="45.53202" lon="5.94061">
        <ele>564.3</ele>
        <time>2014-04-04T11:18:44Z</time>
      </trkpt>
      <trkpt lat="45.53202" lon="5.94062">
        <ele>564.5</ele>
        <time>2014-04-04T11:18:46Z</time>
      </trkpt>
      <trkpt lat="45.532" lon="5.94063">
        <ele>565.2</ele>
        <time>2014-04-04T11:18:48Z</time>
      </trkpt>
      <trkpt lat="45.532" lon="5.94063">
        <ele>565.2</ele>
        <time>2014-04-04T11:18:50Z</time>
      </trkpt>
      <trkpt lat="45.532" lon="5.94064">
        <ele>565.4</ele>
        <time>2014-04-04T11:18:52Z</time>
      </trkpt>
      <trkpt lat="45.53199" lon="5.94064">
        <ele>565.6</ele>
        <time>2014-04-04T11:18:54Z</time>
      </trkpt>
      <trkpt lat="45.53197" lon="5.94065">
        <ele>566.2</ele>
        <time>2014-04-04T11:18:56Z</time>
      </trkpt>
      <trkpt lat="45.53196" lon="5.94066">
        <ele>566.7</ele>
        <time>2014-04-04T11:18:58Z</time>
      </trkpt>
      <trkpt lat="45.53195" lon="5.94065">
        <ele>566.7</ele>
        <time>2014-04-04T11:19:00Z</time>
      </trkpt>
      <trkpt lat="45.53193" lon="5.94067">
        <ele>567.3</ele>
        <time>2014-04-04T11:19:02Z</time>
      </trkpt>
      <trkpt lat="45.53192" lon="5.94068">
        <ele>567.6</ele>
        <time>2014-04-04T11:19:04Z</time>
      </trkpt>
      <trkpt lat="45.53192" lon="5.94068">
        <ele>567.7</ele>
        <time>2014-04-04T11:19:06Z</time>
      </trkpt>
      <trkpt lat="45.53192" lon="5.9407">
        <ele>568.1</ele>
        <time>2014-04-04T11:19:08Z</time>
      </trkpt>
      <trkpt lat="45.53189" lon="5.94073">
        <ele>569</ele>
        <time>2014-04-04T11:19:10Z</time>
      </trkpt>
      <trkpt lat="45.53188" lon="5.94075">
        <ele>569.5</ele>
        <time>2014-04-04T11:19:12Z</time>
      </trkpt>
      <trkpt lat="45.53188" lon="5.94076">
        <ele>569.8</ele>
        <time>2014-04-04T11:19:14Z</time>
      </trkpt>
      <trkpt lat="45.53188" lon="5.94077">
        <ele>570.1</ele>
        <time>2014-04-04T11:19:16Z</time>
      </trkpt>
      <trkpt lat="45.53188" lon="5.94079">
        <ele>570.7</ele>
        <time>2014-04-04T11:19:18Z</time>
      </trkpt>
      <trkpt lat="45.53188" lon="5.9408">
        <ele>570.8</ele>
        <time>2014-04-04T11:19:20Z</time>
      </trkpt>
      <trkpt lat="45.53188" lon="5.94082">
        <ele>571.3</ele>
        <time>2014-04-04T11:19:22Z</time>
      </trkpt>
      <trkpt lat="45.53188" lon="5.94084">
        <ele>571.8</ele>
        <time>2014-04-04T11:19:24Z</time>
      </trkpt>
      <trkpt lat="45.53188" lon="5.94084">
        <ele>571.8</ele>
        <time>2014-04-04T11:19:26Z</time>
      </trkpt>
      <trkpt lat="45.53189" lon="5.94085">
        <ele>571.7</ele>
        <time>2014-04-04T11:19:28Z</time>
      </trkpt>
      <trkpt lat="45.53189" lon="5.94086">
        <ele>571.7</ele>
        <time>2014-04-04T11:19:30Z</time>
      </trkpt>
      <trkpt lat="45.53189" lon="5.9409">
        <ele>571.5</ele>
        <time>2014-04-04T11:19:32Z</time>
      </trkpt>
      <trkpt lat="45.53186" lon="5.94094">
        <ele>571.5</ele>
        <time>2014-04-04T11:19:34Z</time>
      </trkpt>
      <trkpt lat="45.53185" lon="5.94095">
        <ele>571.5</ele>
        <time>2014-04-04T11:19:36Z</time>
      </trkpt>
      <trkpt lat="45.53184" lon="5.94097">
        <ele>571.6</ele>
        <time>2014-04-04T11:19:38Z</time>
      </trkpt>
      <trkpt lat="45.53183" lon="5.94099">
        <ele>571.8</ele>
        <time>2014-04-04T11:19:40Z</time>
      </trkpt>
      <trkpt lat="45.53181" lon="5.94103">
        <ele>572.2</ele>
        <time>2014-04-04T11:19:42Z</time>
      </trkpt>
      <trkpt lat="45.53179" lon="5.94104">
        <ele>572.5</ele>
        <time>2014-04-04T11:19:44Z</time>
      </trkpt>
      <trkpt lat="45.53177" lon="5.94107">
        <ele>573.2</ele>
        <time>2014-04-04T11:19:46Z</time>
      </trkpt>
      <trkpt lat="45.53173" lon="5.94113">
        <ele>574.3</ele>
        <time>2014-04-04T11:19:48Z</time>
      </trkpt>
      <trkpt lat="45.5317" lon="5.94114">
        <ele>574.8</ele>
        <time>2014-04-04T11:19:50Z</time>
      </trkpt>
      <trkpt lat="45.53169" lon="5.94113">
        <ele>575.2</ele>
        <time>2014-04-04T11:19:52Z</time>
      </trkpt>
      <trkpt lat="45.53166" lon="5.94114">
        <ele>575.9</ele>
        <time>2014-04-04T11:19:54Z</time>
      </trkpt>
      <trkpt lat="45.53162" lon="5.94114">
        <ele>576.6</ele>
        <time>2014-04-04T11:19:56Z</time>
      </trkpt>
      <trkpt lat="45.53161" lon="5.94115">
        <ele>576.7</ele>
        <time>2014-04-04T11:19:58Z</time>
      </trkpt>
      <trkpt lat="45.5316" lon="5.94117">
        <ele>576.7</ele>
        <time>2014-04-04T11:20:00Z</time>
      </trkpt>
      <trkpt lat="45.53158" lon="5.94119">
        <ele>576.9</ele>
        <time>2014-04-04T11:20:02Z</time>
      </trkpt>
      <trkpt lat="45.53154" lon="5.94122">
        <ele>577.4</ele>
        <time>2014-04-04T11:20:04Z</time>
      </trkpt>
      <trkpt lat="45.53152" lon="5.94123">
        <ele>577.7</ele>
        <time>2014-04-04T11:20:06Z</time>
      </trkpt>
      <trkpt lat="45.5315" lon="5.94124">
        <ele>578.1</ele>
        <time>2014-04-04T11:20:08Z</time>
      </trkpt>
      <trkpt lat="45.53148" lon="5.94125">
        <ele>578.4</ele>
        <time>2014-04-04T11:20:10Z</time>
      </trkpt>
      <trkpt lat="45.53146" lon="5.94127">
        <ele>578.8</ele>
        <time>2014-04-04T11:20:12Z</time>
      </trkpt>
      <trkpt lat="45.53145" lon="5.94128">
        <ele>578.8</ele>
        <time>2014-04-04T11:20:14Z</time>
      </trkpt>
      <trkpt lat="45.53143" lon="5.94132">
        <ele>578.8</ele>
        <time>2014-04-04T11:20:16Z</time>
      </trkpt>
      <trkpt lat="45.53138" lon="5.94137">
        <ele>579.4</ele>
        <time>2014-04-04T11:20:18Z</time>
      </trkpt>
      <trkpt lat="45.53137" lon="5.94137">
        <ele>579.9</ele>
        <time>2014-04-04T11:20:20Z</time>
      </trkpt>
      <trkpt lat="45.53136" lon="5.94137">
        <ele>580.1</ele>
        <time>2014-04-04T11:20:22Z</time>
      </trkpt>
      <trkpt lat="45.53133" lon="5.94137">
        <ele>580.9</ele>
        <time>2014-04-04T11:20:24Z</time>
      </trkpt>
      <trkpt lat="45.53129" lon="5.94135">
        <ele>582</ele>
        <time>2014-04-04T11:20:26Z</time>
      </trkpt>
      <trkpt lat="45.53129" lon="5.94136">
        <ele>582.3</ele>
        <time>2014-04-04T11:20:28Z</time>
      </trkpt>
      <trkpt lat="45.53126" lon="5.94137">
        <ele>583</ele>
        <time>2014-04-04T11:20:30Z</time>
      </trkpt>
      <trkpt lat="45.53122" lon="5.94139">
        <ele>583.9</ele>
        <time>2014-04-04T11:20:32Z</time>
      </trkpt>
      <trkpt lat="45.5312" lon="5.9414">
        <ele>584.2</ele>
        <time>2014-04-04T11:20:34Z</time>
      </trkpt>
      <trkpt lat="45.53119" lon="5.94141">
        <ele>584.4</ele>
        <time>2014-04-04T11:20:36Z</time>
      </trkpt>
      <trkpt lat="45.53117" lon="5.94142">
        <ele>584.8</ele>
        <time>2014-04-04T11:20:38Z</time>
      </trkpt>
      <trkpt lat="45.53114" lon="5.94143">
        <ele>585.6</ele>
        <time>2014-04-04T11:20:40Z</time>
      </trkpt>
      <trkpt lat="45.53112" lon="5.94143">
        <ele>586</ele>
        <time>2014-04-04T11:20:42Z</time>
      </trkpt>
      <trkpt lat="45.53112" lon="5.94143">
        <ele>586.2</ele>
        <time>2014-04-04T11:20:44Z</time>
      </trkpt>
      <trkpt lat="45.5311" lon="5.94141">
        <ele>587</ele>
        <time>2014-04-04T11:20:46Z</time>
      </trkpt>
      <trkpt lat="45.53108" lon="5.9414">
        <ele>587.7</ele>
        <time>2014-04-04T11:20:48Z</time>
      </trkpt>
      <trkpt lat="45.53107" lon="5.9414">
        <ele>587.9</ele>
        <time>2014-04-04T11:20:50Z</time>
      </trkpt>
      <trkpt lat="45.53107" lon="5.9414">
        <ele>588</ele>
        <time>2014-04-04T11:20:52Z</time>
      </trkpt>
      <trkpt lat="45.53106" lon="5.94141">
        <ele>588.1</ele>
        <time>2014-04-04T11:20:54Z</time>
      </trkpt>
      <trkpt lat="45.53103" lon="5.94144">
        <ele>588.4</ele>
        <time>2014-04-04T11:20:56Z</time>
      </trkpt>
      <trkpt lat="45.53102" lon="5.94145">
        <ele>588.5</ele>
        <time>2014-04-04T11:20:58Z</time>
      </trkpt>
      <trkpt lat="45.53099" lon="5.94147">
        <ele>588.9</ele>
        <time>2014-04-04T11:21:00Z</time>
      </trkpt>
      <trkpt lat="45.53095" lon="5.94147">
        <ele>589.9</ele>
        <time>2014-04-04T11:21:02Z</time>
      </trkpt>
      <trkpt lat="45.53093" lon="5.94148">
        <ele>590.4</ele>
        <time>2014-04-04T11:21:04Z</time>
      </trkpt>
      <trkpt lat="45.53092" lon="5.94148">
        <ele>590.5</ele>
        <time>2014-04-04T11:21:06Z</time>
      </trkpt>
      <trkpt lat="45.5309" lon="5.94149">
        <ele>591</ele>
        <time>2014-04-04T11:21:08Z</time>
      </trkpt>
      <trkpt lat="45.53088" lon="5.94149">
        <ele>591.6</ele>
        <time>2014-04-04T11:21:10Z</time>
      </trkpt>
      <trkpt lat="45.53087" lon="5.9415">
        <ele>591.8</ele>
        <time>2014-04-04T11:21:12Z</time>
      </trkpt>
      <trkpt lat="45.53086" lon="5.9415">
        <ele>591.8</ele>
        <time>2014-04-04T11:21:14Z</time>
      </trkpt>
      <trkpt lat="45.53083" lon="5.94153">
        <ele>592.1</ele>
        <time>2014-04-04T11:21:16Z</time>
      </trkpt>
      <trkpt lat="45.53077" lon="5.94157">
        <ele>592.7</ele>
        <time>2014-04-04T11:21:18Z</time>
      </trkpt>
      <trkpt lat="45.53075" lon="5.94159">
        <ele>592.9</ele>
        <time>2014-04-04T11:21:20Z</time>
      </trkpt>
      <trkpt lat="45.53072" lon="5.94162">
        <ele>593.3</ele>
        <time>2014-04-04T11:21:22Z</time>
      </trkpt>
      <trkpt lat="45.53068" lon="5.94165">
        <ele>593.9</ele>
        <time>2014-04-04T11:21:24Z</time>
      </trkpt>
      <trkpt lat="45.53061" lon="5.94166">
        <ele>595.5</ele>
        <time>2014-04-04T11:21:26Z</time>
      </trkpt>
      <trkpt lat="45.53059" lon="5.94166">
        <ele>596.2</ele>
        <time>2014-04-04T11:21:28Z</time>
      </trkpt>
      <trkpt lat="45.53055" lon="5.94166">
        <ele>597.2</ele>
        <time>2014-04-04T11:21:30Z</time>
      </trkpt>
      <trkpt lat="45.5305" lon="5.94165">
        <ele>598.6</ele>
        <time>2014-04-04T11:21:32Z</time>
      </trkpt>
      <trkpt lat="45.53048" lon="5.94166">
        <ele>599.2</ele>
        <time>2014-04-04T11:21:34Z</time>
      </trkpt>
      <trkpt lat="45.53047" lon="5.94166">
        <ele>599.4</ele>
        <time>2014-04-04T11:21:36Z</time>
      </trkpt>
      <trkpt lat="45.53046" lon="5.94165">
        <ele>599.7</ele>
        <time>2014-04-04T11:21:38Z</time>
      </trkpt>
      <trkpt lat="45.53044" lon="5.94164">
        <ele>600.2</ele>
        <time>2014-04-04T11:21:40Z</time>
      </trkpt>
      <trkpt lat="45.53042" lon="5.94163">
        <ele>600.8</ele>
        <time>2014-04-04T11:21:42Z</time>
      </trkpt>
      <trkpt lat="45.53041" lon="5.94163">
        <ele>601.1</ele>
        <time>2014-04-04T11:21:44Z</time>
      </trkpt>
      <trkpt lat="45.53039" lon="5.94162">
        <ele>601.7</ele>
        <time>2014-04-04T11:21:46Z</time>
      </trkpt>
      <trkpt lat="45.53037" lon="5.9416">
        <ele>602.3</ele>
        <time>2014-04-04T11:21:48Z</time>
      </trkpt>
      <trkpt lat="45.53036" lon="5.9416">
        <ele>602.6</ele>
        <time>2014-04-04T11:21:50Z</time>
      </trkpt>
      <trkpt lat="45.53034" lon="5.94159">
        <ele>603</ele>
        <time>2014-04-04T11:21:52Z</time>
      </trkpt>
      <trkpt lat="45.53032" lon="5.94159">
        <ele>603.4</ele>
        <time>2014-04-04T11:21:54Z</time>
      </trkpt>
      <trkpt lat="45.5303" lon="5.94159">
        <ele>603.9</ele>
        <time>2014-04-04T11:21:56Z</time>
      </trkpt>
      <trkpt lat="45.53028" lon="5.9416">
        <ele>604.2</ele>
        <time>2014-04-04T11:21:58Z</time>
      </trkpt>
      <trkpt lat="45.53025" lon="5.94162">
        <ele>604.4</ele>
        <time>2014-04-04T11:22:00Z</time>
      </trkpt>
      <trkpt lat="45.53022" lon="5.94163">
        <ele>604.7</ele>
        <time>2014-04-04T11:22:02Z</time>
      </trkpt>
      <trkpt lat="45.53021" lon="5.94165">
        <ele>604.9</ele>
        <time>2014-04-04T11:22:04Z</time>
      </trkpt>
      <trkpt lat="45.53021" lon="5.94167">
        <ele>605</ele>
        <time>2014-04-04T11:22:06Z</time>
      </trkpt>
      <trkpt lat="45.53019" lon="5.94173">
        <ele>604.1</ele>
        <time>2014-04-04T11:22:08Z</time>
      </trkpt>
      <trkpt lat="45.53016" lon="5.94178">
        <ele>603.3</ele>
        <time>2014-04-04T11:22:10Z</time>
      </trkpt>
      <trkpt lat="45.53012" lon="5.94182">
        <ele>602.8</ele>
        <time>2014-04-04T11:22:12Z</time>
      </trkpt>
      <trkpt lat="45.53009" lon="5.94184">
        <ele>602.8</ele>
        <time>2014-04-04T11:22:14Z</time>
      </trkpt>
      <trkpt lat="45.53002" lon="5.94186">
        <ele>603.1</ele>
        <time>2014-04-04T11:22:16Z</time>
      </trkpt>
      <trkpt lat="45.52998" lon="5.94186">
        <ele>602.2</ele>
        <time>2014-04-04T11:22:18Z</time>
      </trkpt>
      <trkpt lat="45.52998" lon="5.94186">
        <ele>602.2</ele>
        <time>2014-04-04T11:22:20Z</time>
      </trkpt>
      <trkpt lat="45.52998" lon="5.94185">
        <ele>602.5</ele>
        <time>2014-04-04T11:22:22Z</time>
      </trkpt>
      <trkpt lat="45.52997" lon="5.94186">
        <ele>602</ele>
        <time>2014-04-04T11:22:24Z</time>
      </trkpt>
      <trkpt lat="45.52996" lon="5.94185">
        <ele>601.8</ele>
        <time>2014-04-04T11:22:26Z</time>
      </trkpt>
      <trkpt lat="45.52996" lon="5.94185">
        <ele>601.8</ele>
        <time>2014-04-04T11:22:28Z</time>
      </trkpt>
      <trkpt lat="45.52995" lon="5.94183">
        <ele>601.9</ele>
        <time>2014-04-04T11:22:30Z</time>
      </trkpt>
      <trkpt lat="45.52994" lon="5.94184">
        <ele>601.1</ele>
        <time>2014-04-04T11:22:32Z</time>
      </trkpt>
      <trkpt lat="45.52994" lon="5.94184">
        <ele>601.1</ele>
        <time>2014-04-04T11:22:34Z</time>
      </trkpt>
      <trkpt lat="45.52993" lon="5.94184">
        <ele>601.1</ele>
        <time>2014-04-04T11:22:36Z</time>
      </trkpt>
      <trkpt lat="45.52993" lon="5.94184">
        <ele>600.9</ele>
        <time>2014-04-04T11:22:38Z</time>
      </trkpt>
      <trkpt lat="45.52993" lon="5.94183">
        <ele>601.2</ele>
        <time>2014-04-04T11:22:40Z</time>
      </trkpt>
      <trkpt lat="45.52994" lon="5.94183">
        <ele>601.6</ele>
        <time>2014-04-04T11:22:42Z</time>
      </trkpt>
      <trkpt lat="45.52994" lon="5.94183">
        <ele>601.7</ele>
        <time>2014-04-04T11:22:44Z</time>
      </trkpt>
      <trkpt lat="45.52994" lon="5.94183">
        <ele>601.7</ele>
        <time>2014-04-04T11:22:46Z</time>
      </trkpt>
      <trkpt lat="45.52995" lon="5.94183">
        <ele>601.7</ele>
        <time>2014-04-04T11:22:48Z</time>
      </trkpt>
      <trkpt lat="45.52995" lon="5.94183">
        <ele>601.8</ele>
        <time>2014-04-04T11:22:50Z</time>
      </trkpt>
      <trkpt lat="45.52995" lon="5.94183">
        <ele>601.8</ele>
        <time>2014-04-04T11:22:54Z</time>
      </trkpt>
      <trkpt lat="45.52995" lon="5.94183">
        <ele>601.7</ele>
        <time>2014-04-04T11:22:56Z</time>
      </trkpt>
      <trkpt lat="45.52995" lon="5.94183">
        <ele>601.6</ele>
        <time>2014-04-04T11:22:58Z</time>
      </trkpt>
      <trkpt lat="45.52995" lon="5.94184">
        <ele>601.6</ele>
        <time>2014-04-04T11:23:00Z</time>
      </trkpt>
      <trkpt lat="45.52995" lon="5.94184">
        <ele>601.5</ele>
        <time>2014-04-04T11:23:02Z</time>
      </trkpt>
      <trkpt lat="45.52994" lon="5.94184">
        <ele>601.4</ele>
        <time>2014-04-04T11:23:04Z</time>
      </trkpt>
      <trkpt lat="45.52994" lon="5.94184">
        <ele>601.2</ele>
        <time>2014-04-04T11:23:06Z</time>
      </trkpt>
      <trkpt lat="45.52993" lon="5.94185">
        <ele>600.7</ele>
        <time>2014-04-04T11:23:08Z</time>
      </trkpt>
      <trkpt lat="45.52993" lon="5.94186">
        <ele>600.4</ele>
        <time>2014-04-04T11:23:10Z</time>
      </trkpt>
      <trkpt lat="45.52993" lon="5.94186">
        <ele>600.3</ele>
        <time>2014-04-04T11:23:12Z</time>
      </trkpt>
      <trkpt lat="45.52993" lon="5.94186">
        <ele>600.1</ele>
        <time>2014-04-04T11:23:14Z</time>
      </trkpt>
      <trkpt lat="45.52992" lon="5.94187">
        <ele>599.8</ele>
        <time>2014-04-04T11:23:16Z</time>
      </trkpt>
      <trkpt lat="45.52992" lon="5.94187">
        <ele>599.8</ele>
        <time>2014-04-04T11:23:18Z</time>
      </trkpt>
      <trkpt lat="45.52992" lon="5.94187">
        <ele>599.9</ele>
        <time>2014-04-04T11:23:24Z</time>
      </trkpt>
      <trkpt lat="45.52992" lon="5.94187">
        <ele>599.9</ele>
        <time>2014-04-04T11:23:26Z</time>
      </trkpt>
      <trkpt lat="45.52992" lon="5.94186">
        <ele>599.9</ele>
        <time>2014-04-04T11:23:28Z</time>
      </trkpt>
      <trkpt lat="45.52992" lon="5.94186">
        <ele>600</ele>
        <time>2014-04-04T11:23:30Z</time>
      </trkpt>
      <trkpt lat="45.52993" lon="5.94186">
        <ele>600.2</ele>
        <time>2014-04-04T11:23:32Z</time>
      </trkpt>
      <trkpt lat="45.52993" lon="5.94186">
        <ele>600.3</ele>
        <time>2014-04-04T11:23:34Z</time>
      </trkpt>
      <trkpt lat="45.52994" lon="5.94186">
        <ele>600.6</ele>
        <time>2014-04-04T11:23:38Z</time>
      </trkpt>
      <trkpt lat="45.52994" lon="5.94186">
        <ele>600.7</ele>
        <time>2014-04-04T11:23:40Z</time>
      </trkpt>
      <trkpt lat="45.52994" lon="5.94186">
        <ele>600.8</ele>
        <time>2014-04-04T11:23:42Z</time>
      </trkpt>
      <trkpt lat="45.52994" lon="5.94186">
        <ele>600.6</ele>
        <time>2014-04-04T11:23:44Z</time>
      </trkpt>
      <trkpt lat="45.52993" lon="5.94186">
        <ele>600.5</ele>
        <time>2014-04-04T11:23:46Z</time>
      </trkpt>
      <trkpt lat="45.52993" lon="5.94186">
        <ele>600.6</ele>
        <time>2014-04-04T11:23:48Z</time>
      </trkpt>
      <trkpt lat="45.52993" lon="5.94186">
        <ele>600.6</ele>
        <time>2014-04-04T11:23:50Z</time>
      </trkpt>
      <trkpt lat="45.52994" lon="5.94185">
        <ele>600.8</ele>
        <time>2014-04-04T11:23:52Z</time>
      </trkpt>
      <trkpt lat="45.52994" lon="5.94185">
        <ele>600.9</ele>
        <time>2014-04-04T11:23:54Z</time>
      </trkpt>
      <trkpt lat="45.52994" lon="5.94185">
        <ele>601</ele>
        <time>2014-04-04T11:23:56Z</time>
      </trkpt>
      <trkpt lat="45.52994" lon="5.94185">
        <ele>601</ele>
        <time>2014-04-04T11:23:58Z</time>
      </trkpt>
      <trkpt lat="45.52994" lon="5.94185">
        <ele>601.1</ele>
        <time>2014-04-04T11:24:00Z</time>
      </trkpt>
      <trkpt lat="45.52994" lon="5.94184">
        <ele>601.3</ele>
        <time>2014-04-04T11:24:08Z</time>
      </trkpt>
      <trkpt lat="45.52995" lon="5.94184">
        <ele>601.5</ele>
        <time>2014-04-04T11:24:10Z</time>
      </trkpt>
      <trkpt lat="45.52995" lon="5.94184">
        <ele>601.5</ele>
        <time>2014-04-04T11:24:14Z</time>
      </trkpt>
      <trkpt lat="45.52995" lon="5.94183">
        <ele>601.8</ele>
        <time>2014-04-04T11:24:16Z</time>
      </trkpt>
      <trkpt lat="45.52995" lon="5.94183">
        <ele>602</ele>
        <time>2014-04-04T11:24:18Z</time>
      </trkpt>
      <trkpt lat="45.52995" lon="5.94184">
        <ele>601.4</ele>
        <time>2014-04-04T11:24:24Z</time>
      </trkpt>
      <trkpt lat="45.52995" lon="5.94185">
        <ele>601.3</ele>
        <time>2014-04-04T11:24:26Z</time>
      </trkpt>
      <trkpt lat="45.52994" lon="5.94185">
        <ele>601.3</ele>
        <time>2014-04-04T11:24:30Z</time>
      </trkpt>
      <trkpt lat="45.52994" lon="5.94185">
        <ele>601.1</ele>
        <time>2014-04-04T11:24:32Z</time>
      </trkpt>
      <trkpt lat="45.52995" lon="5.94185">
        <ele>601.4</ele>
        <time>2014-04-04T11:24:36Z</time>
      </trkpt>
      <trkpt lat="45.52995" lon="5.94185">
        <ele>601.5</ele>
        <time>2014-04-04T11:24:38Z</time>
      </trkpt>
      <trkpt lat="45.52996" lon="5.94185">
        <ele>601.7</ele>
        <time>2014-04-04T11:24:40Z</time>
      </trkpt>
      <trkpt lat="45.52996" lon="5.94185">
        <ele>601.7</ele>
        <time>2014-04-04T11:24:42Z</time>
      </trkpt>
      <trkpt lat="45.52996" lon="5.94185">
        <ele>601.7</ele>
        <time>2014-04-04T11:24:44Z</time>
      </trkpt>
      <trkpt lat="45.52997" lon="5.94184">
        <ele>602.2</ele>
        <time>2014-04-04T11:24:46Z</time>
      </trkpt>
      <trkpt lat="45.52997" lon="5.94184">
        <ele>602.5</ele>
        <time>2014-04-04T11:24:48Z</time>
      </trkpt>
      <trkpt lat="45.52997" lon="5.94184">
        <ele>602.7</ele>
        <time>2014-04-04T11:24:50Z</time>
      </trkpt>
      <trkpt lat="45.52998" lon="5.94185">
        <ele>602.6</ele>
        <time>2014-04-04T11:24:52Z</time>
      </trkpt>
      <trkpt lat="45.52997" lon="5.94189">
        <ele>601.1</ele>
        <time>2014-04-04T11:24:54Z</time>
      </trkpt>
      <trkpt lat="45.52996" lon="5.94189">
        <ele>600.9</ele>
        <time>2014-04-04T11:24:56Z</time>
      </trkpt>
      <trkpt lat="45.52996" lon="5.94189">
        <ele>600.8</ele>
        <time>2014-04-04T11:24:58Z</time>
      </trkpt>
      <trkpt lat="45.52996" lon="5.9419">
        <ele>600.6</ele>
        <time>2014-04-04T11:25:00Z</time>
      </trkpt>
      <trkpt lat="45.52997" lon="5.94188">
        <ele>601.2</ele>
        <time>2014-04-04T11:25:02Z</time>
      </trkpt>
      <trkpt lat="45.52997" lon="5.94187">
        <ele>601.7</ele>
        <time>2014-04-04T11:25:04Z</time>
      </trkpt>
      <trkpt lat="45.52997" lon="5.94185">
        <ele>602.4</ele>
        <time>2014-04-04T11:25:06Z</time>
      </trkpt>
      <trkpt lat="45.52997" lon="5.94186">
        <ele>602.1</ele>
        <time>2014-04-04T11:25:08Z</time>
      </trkpt>
      <trkpt lat="45.52998" lon="5.94186">
        <ele>602.4</ele>
        <time>2014-04-04T11:25:10Z</time>
      </trkpt>
      <trkpt lat="45.52998" lon="5.94185">
        <ele>602.5</ele>
        <time>2014-04-04T11:25:12Z</time>
      </trkpt>
      <trkpt lat="45.52998" lon="5.94185">
        <ele>602.5</ele>
        <time>2014-04-04T11:25:14Z</time>
      </trkpt>
      <trkpt lat="45.52998" lon="5.94186">
        <ele>602.3</ele>
        <time>2014-04-04T11:25:16Z</time>
      </trkpt>
      <trkpt lat="45.52998" lon="5.94186">
        <ele>602.1</ele>
        <time>2014-04-04T11:25:18Z</time>
      </trkpt>
      <trkpt lat="45.52997" lon="5.94187">
        <ele>601.7</ele>
        <time>2014-04-04T11:25:22Z</time>
      </trkpt>
      <trkpt lat="45.52996" lon="5.94187">
        <ele>601.3</ele>
        <time>2014-04-04T11:25:24Z</time>
      </trkpt>
      <trkpt lat="45.52996" lon="5.94187">
        <ele>601.2</ele>
        <time>2014-04-04T11:25:26Z</time>
      </trkpt>
      <trkpt lat="45.52996" lon="5.94187">
        <ele>601.1</ele>
        <time>2014-04-04T11:25:28Z</time>
      </trkpt>
      <trkpt lat="45.52996" lon="5.94187">
        <ele>601.1</ele>
        <time>2014-04-04T11:25:30Z</time>
      </trkpt>
      <trkpt lat="45.52995" lon="5.94188">
        <ele>600.9</ele>
        <time>2014-04-04T11:25:32Z</time>
      </trkpt>
      <trkpt lat="45.52995" lon="5.94188">
        <ele>600.8</ele>
        <time>2014-04-04T11:25:34Z</time>
      </trkpt>
      <trkpt lat="45.52995" lon="5.94188">
        <ele>600.8</ele>
        <time>2014-04-04T11:25:36Z</time>
      </trkpt>
      <trkpt lat="45.52996" lon="5.94188">
        <ele>600.9</ele>
        <time>2014-04-04T11:25:40Z</time>
      </trkpt>
      <trkpt lat="45.52996" lon="5.94188">
        <ele>601</ele>
        <time>2014-04-04T11:25:42Z</time>
      </trkpt>
      <trkpt lat="45.52996" lon="5.94188">
        <ele>601</ele>
        <time>2014-04-04T11:25:44Z</time>
      </trkpt>
      <trkpt lat="45.52996" lon="5.94188">
        <ele>600.9</ele>
        <time>2014-04-04T11:25:52Z</time>
      </trkpt>
      <trkpt lat="45.52996" lon="5.94189">
        <ele>600.7</ele>
        <time>2014-04-04T11:25:54Z</time>
      </trkpt>
      <trkpt lat="45.52995" lon="5.94189">
        <ele>600.5</ele>
        <time>2014-04-04T11:25:56Z</time>
      </trkpt>
      <trkpt lat="45.52995" lon="5.94189">
        <ele>600.3</ele>
        <time>2014-04-04T11:25:58Z</time>
      </trkpt>
      <trkpt lat="45.52995" lon="5.94189">
        <ele>600.2</ele>
        <time>2014-04-04T11:26:00Z</time>
      </trkpt>
      <trkpt lat="45.52994" lon="5.94189">
        <ele>600</ele>
        <time>2014-04-04T11:26:02Z</time>
      </trkpt>
      <trkpt lat="45.52994" lon="5.94189">
        <ele>600</ele>
        <time>2014-04-04T11:26:04Z</time>
      </trkpt>
      <trkpt lat="45.52994" lon="5.94188">
        <ele>600.2</ele>
        <time>2014-04-04T11:26:06Z</time>
      </trkpt>
      <trkpt lat="45.52993" lon="5.94185">
        <ele>600.7</ele>
        <time>2014-04-04T11:26:10Z</time>
      </trkpt>
      <trkpt lat="45.52994" lon="5.94185">
        <ele>600.9</ele>
        <time>2014-04-04T11:26:12Z</time>
      </trkpt>
      <trkpt lat="45.52994" lon="5.94183">
        <ele>601.2</ele>
        <time>2014-04-04T11:26:14Z</time>
      </trkpt>
      <trkpt lat="45.52994" lon="5.94182">
        <ele>601.6</ele>
        <time>2014-04-04T11:26:16Z</time>
      </trkpt>
      <trkpt lat="45.52994" lon="5.94182">
        <ele>601.8</ele>
        <time>2014-04-04T11:26:18Z</time>
      </trkpt>
      <trkpt lat="45.52994" lon="5.94181">
        <ele>601.8</ele>
        <time>2014-04-04T11:26:20Z</time>
      </trkpt>
      <trkpt lat="45.52994" lon="5.9418">
        <ele>602.1</ele>
        <time>2014-04-04T11:26:22Z</time>
      </trkpt>
      <trkpt lat="45.52994" lon="5.94179">
        <ele>602.3</ele>
        <time>2014-04-04T11:26:24Z</time>
      </trkpt>
      <trkpt lat="45.52994" lon="5.94179">
        <ele>602.4</ele>
        <time>2014-04-04T11:26:26Z</time>
      </trkpt>
      <trkpt lat="45.52993" lon="5.94178">
        <ele>602.5</ele>
        <time>2014-04-04T11:26:28Z</time>
      </trkpt>
      <trkpt lat="45.52993" lon="5.94177">
        <ele>602.6</ele>
        <time>2014-04-04T11:26:30Z</time>
      </trkpt>
      <trkpt lat="45.52993" lon="5.94176">
        <ele>602.6</ele>
        <time>2014-04-04T11:26:32Z</time>
      </trkpt>
      <trkpt lat="45.52992" lon="5.94176">
        <ele>602.6</ele>
        <time>2014-04-04T11:26:34Z</time>
      </trkpt>
      <trkpt lat="45.52992" lon="5.94176">
        <ele>602.7</ele>
        <time>2014-04-04T11:26:36Z</time>
      </trkpt>
      <trkpt lat="45.52992" lon="5.94175">
        <ele>602.7</ele>
        <time>2014-04-04T11:26:38Z</time>
      </trkpt>
      <trkpt lat="45.52992" lon="5.94175">
        <ele>602.9</ele>
        <time>2014-04-04T11:26:40Z</time>
      </trkpt>
      <trkpt lat="45.52992" lon="5.94175">
        <ele>602.9</ele>
        <time>2014-04-04T11:26:42Z</time>
      </trkpt>
      <trkpt lat="45.52992" lon="5.94174">
        <ele>603</ele>
        <time>2014-04-04T11:26:44Z</time>
      </trkpt>
      <trkpt lat="45.52992" lon="5.94175">
        <ele>602.9</ele>
        <time>2014-04-04T11:26:48Z</time>
      </trkpt>
      <trkpt lat="45.52992" lon="5.94175">
        <ele>602.8</ele>
        <time>2014-04-04T11:26:50Z</time>
      </trkpt>
      <trkpt lat="45.52992" lon="5.94175">
        <ele>602.6</ele>
        <time>2014-04-04T11:26:52Z</time>
      </trkpt>
      <trkpt lat="45.52992" lon="5.94176">
        <ele>602.6</ele>
        <time>2014-04-04T11:26:54Z</time>
      </trkpt>
      <trkpt lat="45.52992" lon="5.94176">
        <ele>602.5</ele>
        <time>2014-04-04T11:26:56Z</time>
      </trkpt>
      <trkpt lat="45.52992" lon="5.94176">
        <ele>602.4</ele>
        <time>2014-04-04T11:26:58Z</time>
      </trkpt>
      <trkpt lat="45.52992" lon="5.94177">
        <ele>602.3</ele>
        <time>2014-04-04T11:27:00Z</time>
      </trkpt>
      <trkpt lat="45.52992" lon="5.94178">
        <ele>602.1</ele>
        <time>2014-04-04T11:27:02Z</time>
      </trkpt>
      <trkpt lat="45.52993" lon="5.94178">
        <ele>602.2</ele>
        <time>2014-04-04T11:27:04Z</time>
      </trkpt>
      <trkpt lat="45.52993" lon="5.94178">
        <ele>602.2</ele>
        <time>2014-04-04T11:27:06Z</time>
      </trkpt>
      <trkpt lat="45.52995" lon="5.94178">
        <ele>603.3</ele>
        <time>2014-04-04T11:27:08Z</time>
      </trkpt>
      <trkpt lat="45.53001" lon="5.94178">
        <ele>605.2</ele>
        <time>2014-04-04T11:27:10Z</time>
      </trkpt>
      <trkpt lat="45.53003" lon="5.94176">
        <ele>605.2</ele>
        <time>2014-04-04T11:27:12Z</time>
      </trkpt>
      <trkpt lat="45.53009" lon="5.94172">
        <ele>605.6</ele>
        <time>2014-04-04T11:27:14Z</time>
      </trkpt>
      <trkpt lat="45.53015" lon="5.94163">
        <ele>605.3</ele>
        <time>2014-04-04T11:27:16Z</time>
      </trkpt>
      <trkpt lat="45.53016" lon="5.9416">
        <ele>605</ele>
        <time>2014-04-04T11:27:18Z</time>
      </trkpt>
      <trkpt lat="45.5302" lon="5.94156">
        <ele>604.5</ele>
        <time>2014-04-04T11:27:20Z</time>
      </trkpt>
      <trkpt lat="45.53025" lon="5.94153">
        <ele>604.4</ele>
        <time>2014-04-04T11:27:22Z</time>
      </trkpt>
      <trkpt lat="45.53033" lon="5.94153">
        <ele>603.5</ele>
        <time>2014-04-04T11:27:24Z</time>
      </trkpt>
      <trkpt lat="45.53036" lon="5.94154">
        <ele>603</ele>
        <time>2014-04-04T11:27:26Z</time>
      </trkpt>
      <trkpt lat="45.53041" lon="5.94155">
        <ele>602</ele>
        <time>2014-04-04T11:27:28Z</time>
      </trkpt>
      <trkpt lat="45.53052" lon="5.94156">
        <ele>599.7</ele>
        <time>2014-04-04T11:27:30Z</time>
      </trkpt>
      <trkpt lat="45.53059" lon="5.94155">
        <ele>598.2</ele>
        <time>2014-04-04T11:27:32Z</time>
      </trkpt>
      <trkpt lat="45.53062" lon="5.94154">
        <ele>597.7</ele>
        <time>2014-04-04T11:27:34Z</time>
      </trkpt>
      <trkpt lat="45.53069" lon="5.94149">
        <ele>596.7</ele>
        <time>2014-04-04T11:27:36Z</time>
      </trkpt>
      <trkpt lat="45.53081" lon="5.94138">
        <ele>595.4</ele>
        <time>2014-04-04T11:27:38Z</time>
      </trkpt>
      <trkpt lat="45.53089" lon="5.94137">
        <ele>593.3</ele>
        <time>2014-04-04T11:27:40Z</time>
      </trkpt>
      <trkpt lat="45.53091" lon="5.94137">
        <ele>592.7</ele>
        <time>2014-04-04T11:27:42Z</time>
      </trkpt>
      <trkpt lat="45.53095" lon="5.94133">
        <ele>591.3</ele>
        <time>2014-04-04T11:27:44Z</time>
      </trkpt>
      <trkpt lat="45.53104" lon="5.94129">
        <ele>589.1</ele>
        <time>2014-04-04T11:27:46Z</time>
      </trkpt>
      <trkpt lat="45.53106" lon="5.94131">
        <ele>588.5</ele>
        <time>2014-04-04T11:27:48Z</time>
      </trkpt>
      <trkpt lat="45.5311" lon="5.94131">
        <ele>587.5</ele>
        <time>2014-04-04T11:27:50Z</time>
      </trkpt>
      <trkpt lat="45.53116" lon="5.94129">
        <ele>586.2</ele>
        <time>2014-04-04T11:27:52Z</time>
      </trkpt>
      <trkpt lat="45.53126" lon="5.94128">
        <ele>583.7</ele>
        <time>2014-04-04T11:27:54Z</time>
      </trkpt>
      <trkpt lat="45.53128" lon="5.94129">
        <ele>582.9</ele>
        <time>2014-04-04T11:27:56Z</time>
      </trkpt>
      <trkpt lat="45.53133" lon="5.94127">
        <ele>581.8</ele>
        <time>2014-04-04T11:27:58Z</time>
      </trkpt>
      <trkpt lat="45.53139" lon="5.94119">
        <ele>581.2</ele>
        <time>2014-04-04T11:28:00Z</time>
      </trkpt>
      <trkpt lat="45.53145" lon="5.94115">
        <ele>580.2</ele>
        <time>2014-04-04T11:28:02Z</time>
      </trkpt>
      <trkpt lat="45.53149" lon="5.94114">
        <ele>579.6</ele>
        <time>2014-04-04T11:28:04Z</time>
      </trkpt>
      <trkpt lat="45.53155" lon="5.94109">
        <ele>578</ele>
        <time>2014-04-04T11:28:06Z</time>
      </trkpt>
      <trkpt lat="45.53164" lon="5.94107">
        <ele>575.6</ele>
        <time>2014-04-04T11:28:08Z</time>
      </trkpt>
      <trkpt lat="45.53168" lon="5.94103">
        <ele>574.3</ele>
        <time>2014-04-04T11:28:10Z</time>
      </trkpt>
      <trkpt lat="45.5317" lon="5.94102">
        <ele>573.9</ele>
        <time>2014-04-04T11:28:12Z</time>
      </trkpt>
      <trkpt lat="45.53171" lon="5.94102">
        <ele>573.7</ele>
        <time>2014-04-04T11:28:14Z</time>
      </trkpt>
      <trkpt lat="45.53172" lon="5.94103">
        <ele>573.8</ele>
        <time>2014-04-04T11:28:16Z</time>
      </trkpt>
      <trkpt lat="45.53172" lon="5.94104">
        <ele>573.8</ele>
        <time>2014-04-04T11:28:18Z</time>
      </trkpt>
      <trkpt lat="45.53172" lon="5.94104">
        <ele>573.8</ele>
        <time>2014-04-04T11:28:20Z</time>
      </trkpt>
      <trkpt lat="45.53172" lon="5.94104">
        <ele>573.7</ele>
        <time>2014-04-04T11:28:22Z</time>
      </trkpt>
      <trkpt lat="45.53172" lon="5.94102">
        <ele>573.5</ele>
        <time>2014-04-04T11:28:24Z</time>
      </trkpt>
      <trkpt lat="45.53173" lon="5.94102">
        <ele>573.4</ele>
        <time>2014-04-04T11:28:26Z</time>
      </trkpt>
      <trkpt lat="45.53173" lon="5.94102">
        <ele>573.4</ele>
        <time>2014-04-04T11:28:28Z</time>
      </trkpt>
      <trkpt lat="45.53174" lon="5.94102">
        <ele>573.2</ele>
        <time>2014-04-04T11:28:30Z</time>
      </trkpt>
      <trkpt lat="45.53174" lon="5.94102">
        <ele>573.2</ele>
        <time>2014-04-04T11:28:32Z</time>
      </trkpt>
      <trkpt lat="45.53174" lon="5.94102">
        <ele>573.1</ele>
        <time>2014-04-04T11:28:34Z</time>
      </trkpt>
      <trkpt lat="45.53174" lon="5.94103">
        <ele>573.2</ele>
        <time>2014-04-04T11:28:36Z</time>
      </trkpt>
      <trkpt lat="45.53175" lon="5.94104">
        <ele>573.2</ele>
        <time>2014-04-04T11:28:38Z</time>
      </trkpt>
      <trkpt lat="45.53175" lon="5.94104">
        <ele>573.2</ele>
        <time>2014-04-04T11:28:40Z</time>
      </trkpt>
      <trkpt lat="45.53175" lon="5.94105">
        <ele>573.3</ele>
        <time>2014-04-04T11:28:42Z</time>
      </trkpt>
      <trkpt lat="45.53175" lon="5.94104">
        <ele>573.2</ele>
        <time>2014-04-04T11:28:44Z</time>
      </trkpt>
      <trkpt lat="45.53176" lon="5.94104">
        <ele>573.1</ele>
        <time>2014-04-04T11:28:46Z</time>
      </trkpt>
      <trkpt lat="45.53176" lon="5.94104">
        <ele>573</ele>
        <time>2014-04-04T11:28:48Z</time>
      </trkpt>
      <trkpt lat="45.53177" lon="5.94103">
        <ele>572.9</ele>
        <time>2014-04-04T11:28:50Z</time>
      </trkpt>
      <trkpt lat="45.5318" lon="5.94106">
        <ele>572.4</ele>
        <time>2014-04-04T11:28:52Z</time>
      </trkpt>
      <trkpt lat="45.53186" lon="5.94113">
        <ele>570.7</ele>
        <time>2014-04-04T11:28:54Z</time>
      </trkpt>
      <trkpt lat="45.53188" lon="5.94118">
        <ele>569.7</ele>
        <time>2014-04-04T11:28:56Z</time>
      </trkpt>
      <trkpt lat="45.53188" lon="5.94132">
        <ele>567.7</ele>
        <time>2014-04-04T11:28:58Z</time>
      </trkpt>
      <trkpt lat="45.5319" lon="5.94138">
        <ele>566.4</ele>
        <time>2014-04-04T11:29:00Z</time>
      </trkpt>
      <trkpt lat="45.53194" lon="5.94135">
        <ele>565.7</ele>
        <time>2014-04-04T11:29:02Z</time>
      </trkpt>
      <trkpt lat="45.53197" lon="5.94135">
        <ele>564.9</ele>
        <time>2014-04-04T11:29:04Z</time>
      </trkpt>
      <trkpt lat="45.53202" lon="5.94137">
        <ele>563.2</ele>
        <time>2014-04-04T11:29:06Z</time>
      </trkpt>
      <trkpt lat="45.53207" lon="5.94138">
        <ele>561.4</ele>
        <time>2014-04-04T11:29:08Z</time>
      </trkpt>
      <trkpt lat="45.53208" lon="5.94142">
        <ele>560.5</ele>
        <time>2014-04-04T11:29:10Z</time>
      </trkpt>
      <trkpt lat="45.53208" lon="5.94153">
        <ele>558.7</ele>
        <time>2014-04-04T11:29:12Z</time>
      </trkpt>
      <trkpt lat="45.53209" lon="5.94161">
        <ele>557.2</ele>
        <time>2014-04-04T11:29:14Z</time>
      </trkpt>
      <trkpt lat="45.53214" lon="5.94166">
        <ele>555.2</ele>
        <time>2014-04-04T11:29:16Z</time>
      </trkpt>
      <trkpt lat="45.53215" lon="5.9417">
        <ele>554.1</ele>
        <time>2014-04-04T11:29:18Z</time>
      </trkpt>
      <trkpt lat="45.53216" lon="5.94182">
        <ele>551.7</ele>
        <time>2014-04-04T11:29:20Z</time>
      </trkpt>
      <trkpt lat="45.53217" lon="5.94199">
        <ele>548.5</ele>
        <time>2014-04-04T11:29:22Z</time>
      </trkpt>
      <trkpt lat="45.53219" lon="5.94204">
        <ele>547.3</ele>
        <time>2014-04-04T11:29:24Z</time>
      </trkpt>
      <trkpt lat="45.53221" lon="5.94203">
        <ele>546.9</ele>
        <time>2014-04-04T11:29:26Z</time>
      </trkpt>
      <trkpt lat="45.53226" lon="5.94201">
        <ele>546.1</ele>
        <time>2014-04-04T11:29:28Z</time>
      </trkpt>
      <trkpt lat="45.5323" lon="5.9421">
        <ele>543.3</ele>
        <time>2014-04-04T11:29:30Z</time>
      </trkpt>
      <trkpt lat="45.53231" lon="5.94222">
        <ele>540.8</ele>
        <time>2014-04-04T11:29:32Z</time>
      </trkpt>
      <trkpt lat="45.53232" lon="5.94226">
        <ele>539</ele>
        <time>2014-04-04T11:29:34Z</time>
      </trkpt>
      <trkpt lat="45.53232" lon="5.9423">
        <ele>537.2</ele>
        <time>2014-04-04T11:29:36Z</time>
      </trkpt>
      <trkpt lat="45.53233" lon="5.9423">
        <ele>537.1</ele>
        <time>2014-04-04T11:29:38Z</time>
      </trkpt>
      <trkpt lat="45.53233" lon="5.9423">
        <ele>537</ele>
        <time>2014-04-04T11:29:40Z</time>
      </trkpt>
      <trkpt lat="45.53233" lon="5.94231">
        <ele>536.7</ele>
        <time>2014-04-04T11:29:42Z</time>
      </trkpt>
      <trkpt lat="45.53233" lon="5.94233">
        <ele>535.9</ele>
        <time>2014-04-04T11:29:44Z</time>
      </trkpt>
      <trkpt lat="45.53233" lon="5.94236">
        <ele>534.9</ele>
        <time>2014-04-04T11:29:46Z</time>
      </trkpt>
      <trkpt lat="45.53232" lon="5.94237">
        <ele>534.4</ele>
        <time>2014-04-04T11:29:48Z</time>
      </trkpt>
      <trkpt lat="45.53232" lon="5.9424">
        <ele>533.3</ele>
        <time>2014-04-04T11:29:50Z</time>
      </trkpt>
      <trkpt lat="45.53232" lon="5.94243">
        <ele>532.3</ele>
        <time>2014-04-04T11:29:52Z</time>
      </trkpt>
      <trkpt lat="45.53231" lon="5.94245">
        <ele>531.5</ele>
        <time>2014-04-04T11:29:54Z</time>
      </trkpt>
      <trkpt lat="45.53231" lon="5.94246">
        <ele>531.2</ele>
        <time>2014-04-04T11:29:56Z</time>
      </trkpt>
      <trkpt lat="45.53231" lon="5.94248">
        <ele>530.5</ele>
        <time>2014-04-04T11:29:58Z</time>
      </trkpt>
      <trkpt lat="45.53232" lon="5.94248">
        <ele>529.7</ele>
        <time>2014-04-04T11:30:00Z</time>
      </trkpt>
      <trkpt lat="45.53233" lon="5.9425">
        <ele>529</ele>
        <time>2014-04-04T11:30:02Z</time>
      </trkpt>
      <trkpt lat="45.53232" lon="5.94251">
        <ele>528.6</ele>
        <time>2014-04-04T11:30:04Z</time>
      </trkpt>
      <trkpt lat="45.53232" lon="5.94252">
        <ele>528</ele>
        <time>2014-04-04T11:30:06Z</time>
      </trkpt>
      <trkpt lat="45.53233" lon="5.94254">
        <ele>526.6</ele>
        <time>2014-04-04T11:30:08Z</time>
      </trkpt>
      <trkpt lat="45.53234" lon="5.94254">
        <ele>526.2</ele>
        <time>2014-04-04T11:30:10Z</time>
      </trkpt>
      <trkpt lat="45.53234" lon="5.94256">
        <ele>525.1</ele>
        <time>2014-04-04T11:30:12Z</time>
      </trkpt>
      <trkpt lat="45.53235" lon="5.94259">
        <ele>523.6</ele>
        <time>2014-04-04T11:30:14Z</time>
      </trkpt>
      <trkpt lat="45.53235" lon="5.9426">
        <ele>522.8</ele>
        <time>2014-04-04T11:30:16Z</time>
      </trkpt>
      <trkpt lat="45.53235" lon="5.94262">
        <ele>521.9</ele>
        <time>2014-04-04T11:30:18Z</time>
      </trkpt>
      <trkpt lat="45.53232" lon="5.94269">
        <ele>519.6</ele>
        <time>2014-04-04T11:30:20Z</time>
      </trkpt>
      <trkpt lat="45.53226" lon="5.9428">
        <ele>515.6</ele>
        <time>2014-04-04T11:30:22Z</time>
      </trkpt>
      <trkpt lat="45.5322" lon="5.94285">
        <ele>514.9</ele>
        <time>2014-04-04T11:30:24Z</time>
      </trkpt>
      <trkpt lat="45.53218" lon="5.94288">
        <ele>514.1</ele>
        <time>2014-04-04T11:30:26Z</time>
      </trkpt>
      <trkpt lat="45.53217" lon="5.94291">
        <ele>512.8</ele>
        <time>2014-04-04T11:30:28Z</time>
      </trkpt>
      <trkpt lat="45.53217" lon="5.94292">
        <ele>512.1</ele>
        <time>2014-04-04T11:30:30Z</time>
      </trkpt>
      <trkpt lat="45.53217" lon="5.94292">
        <ele>512.2</ele>
        <time>2014-04-04T11:30:32Z</time>
      </trkpt>
      <trkpt lat="45.53217" lon="5.94292">
        <ele>512.3</ele>
        <time>2014-04-04T11:30:34Z</time>
      </trkpt>
      <trkpt lat="45.53217" lon="5.94293">
        <ele>511.9</ele>
        <time>2014-04-04T11:30:36Z</time>
      </trkpt>
      <trkpt lat="45.53217" lon="5.94294">
        <ele>511.4</ele>
        <time>2014-04-04T11:30:38Z</time>
      </trkpt>
      <trkpt lat="45.53217" lon="5.94294">
        <ele>511.4</ele>
        <time>2014-04-04T11:30:40Z</time>
      </trkpt>
      <trkpt lat="45.53217" lon="5.94294">
        <ele>511.4</ele>
        <time>2014-04-04T11:30:42Z</time>
      </trkpt>
      <trkpt lat="45.53216" lon="5.94293">
        <ele>512</ele>
        <time>2014-04-04T11:30:44Z</time>
      </trkpt>
      <trkpt lat="45.53216" lon="5.94292">
        <ele>512.6</ele>
        <time>2014-04-04T11:30:46Z</time>
      </trkpt>
      <trkpt lat="45.53215" lon="5.94292">
        <ele>512.6</ele>
        <time>2014-04-04T11:30:48Z</time>
      </trkpt>
      <trkpt lat="45.53215" lon="5.94292">
        <ele>512.9</ele>
        <time>2014-04-04T11:30:50Z</time>
      </trkpt>
      <trkpt lat="45.53215" lon="5.94292">
        <ele>512.9</ele>
        <time>2014-04-04T11:30:52Z</time>
      </trkpt>
      <trkpt lat="45.53216" lon="5.94291">
        <ele>513.1</ele>
        <time>2014-04-04T11:30:54Z</time>
      </trkpt>
      <trkpt lat="45.53216" lon="5.94291">
        <ele>513.1</ele>
        <time>2014-04-04T11:30:56Z</time>
      </trkpt>
      <trkpt lat="45.53218" lon="5.94291">
        <ele>512.6</ele>
        <time>2014-04-04T11:30:58Z</time>
      </trkpt>
      <trkpt lat="45.53221" lon="5.94289">
        <ele>512.4</ele>
        <time>2014-04-04T11:31:00Z</time>
      </trkpt>
      <trkpt lat="45.53223" lon="5.9429">
        <ele>511.9</ele>
        <time>2014-04-04T11:31:02Z</time>
      </trkpt>
      <trkpt lat="45.53225" lon="5.9429">
        <ele>510.9</ele>
        <time>2014-04-04T11:31:04Z</time>
      </trkpt>
      <trkpt lat="45.53228" lon="5.9429">
        <ele>510.2</ele>
        <time>2014-04-04T11:31:06Z</time>
      </trkpt>
      <trkpt lat="45.53231" lon="5.9429">
        <ele>509.3</ele>
        <time>2014-04-04T11:31:08Z</time>
      </trkpt>
      <trkpt lat="45.53232" lon="5.94291">
        <ele>508.3</ele>
        <time>2014-04-04T11:31:10Z</time>
      </trkpt>
      <trkpt lat="45.53233" lon="5.94294">
        <ele>506.6</ele>
        <time>2014-04-04T11:31:12Z</time>
      </trkpt>
      <trkpt lat="45.53233" lon="5.94297">
        <ele>504.9</ele>
        <time>2014-04-04T11:31:14Z</time>
      </trkpt>
      <trkpt lat="45.53231" lon="5.94299">
        <ele>504.7</ele>
        <time>2014-04-04T11:31:16Z</time>
      </trkpt>
      <trkpt lat="45.5323" lon="5.94301">
        <ele>503.9</ele>
        <time>2014-04-04T11:31:18Z</time>
      </trkpt>
      <trkpt lat="45.53228" lon="5.94306">
        <ele>502</ele>
        <time>2014-04-04T11:31:20Z</time>
      </trkpt>
      <trkpt lat="45.53227" lon="5.9431">
        <ele>500.9</ele>
        <time>2014-04-04T11:31:22Z</time>
      </trkpt>
      <trkpt lat="45.53223" lon="5.9432">
        <ele>497.9</ele>
        <time>2014-04-04T11:31:24Z</time>
      </trkpt>
      <trkpt lat="45.53221" lon="5.94325">
        <ele>496.9</ele>
        <time>2014-04-04T11:31:26Z</time>
      </trkpt>
      <trkpt lat="45.53214" lon="5.94333">
        <ele>494.7</ele>
        <time>2014-04-04T11:31:28Z</time>
      </trkpt>
      <trkpt lat="45.5321" lon="5.94342">
        <ele>493.3</ele>
        <time>2014-04-04T11:31:30Z</time>
      </trkpt>
      <trkpt lat="45.5321" lon="5.94343">
        <ele>493</ele>
        <time>2014-04-04T11:31:32Z</time>
      </trkpt>
      <trkpt lat="45.5321" lon="5.94343">
        <ele>492.8</ele>
        <time>2014-04-04T11:31:34Z</time>
      </trkpt>
      <trkpt lat="45.53211" lon="5.94344">
        <ele>492.4</ele>
        <time>2014-04-04T11:31:36Z</time>
      </trkpt>
      <trkpt lat="45.53213" lon="5.94343">
        <ele>492.3</ele>
        <time>2014-04-04T11:31:38Z</time>
      </trkpt>
      <trkpt lat="45.53213" lon="5.94343">
        <ele>492.2</ele>
        <time>2014-04-04T11:31:40Z</time>
      </trkpt>
      <trkpt lat="45.53213" lon="5.94345">
        <ele>492</ele>
        <time>2014-04-04T11:31:42Z</time>
      </trkpt>
      <trkpt lat="45.53213" lon="5.94346">
        <ele>491.6</ele>
        <time>2014-04-04T11:31:44Z</time>
      </trkpt>
      <trkpt lat="45.53214" lon="5.94345">
        <ele>491.5</ele>
        <time>2014-04-04T11:31:46Z</time>
      </trkpt>
      <trkpt lat="45.53214" lon="5.94346">
        <ele>491.3</ele>
        <time>2014-04-04T11:31:48Z</time>
      </trkpt>
      <trkpt lat="45.53214" lon="5.94346">
        <ele>491.3</ele>
        <time>2014-04-04T11:31:50Z</time>
      </trkpt>
      <trkpt lat="45.53214" lon="5.94347">
        <ele>491.2</ele>
        <time>2014-04-04T11:31:52Z</time>
      </trkpt>
      <trkpt lat="45.53214" lon="5.94346">
        <ele>491.2</ele>
        <time>2014-04-04T11:31:56Z</time>
      </trkpt>
      <trkpt lat="45.53214" lon="5.94347">
        <ele>490.9</ele>
        <time>2014-04-04T11:31:58Z</time>
      </trkpt>
      <trkpt lat="45.53213" lon="5.94358">
        <ele>488.2</ele>
        <time>2014-04-04T11:32:00Z</time>
      </trkpt>
      <trkpt lat="45.53213" lon="5.94363">
        <ele>487.1</ele>
        <time>2014-04-04T11:32:02Z</time>
      </trkpt>
      <trkpt lat="45.53211" lon="5.94373">
        <ele>485.9</ele>
        <time>2014-04-04T11:32:04Z</time>
      </trkpt>
      <trkpt lat="45.53203" lon="5.94381">
        <ele>485.1</ele>
        <time>2014-04-04T11:32:06Z</time>
      </trkpt>
      <trkpt lat="45.53197" lon="5.94392">
        <ele>483.4</ele>
        <time>2014-04-04T11:32:08Z</time>
      </trkpt>
      <trkpt lat="45.53195" lon="5.94398">
        <ele>482.7</ele>
        <time>2014-04-04T11:32:10Z</time>
      </trkpt>
      <trkpt lat="45.53188" lon="5.94407">
        <ele>481</ele>
        <time>2014-04-04T11:32:12Z</time>
      </trkpt>
      <trkpt lat="45.53186" lon="5.94417">
        <ele>479.4</ele>
        <time>2014-04-04T11:32:14Z</time>
      </trkpt>
      <trkpt lat="45.53192" lon="5.94421">
        <ele>479</ele>
        <time>2014-04-04T11:32:16Z</time>
      </trkpt>
      <trkpt lat="45.53196" lon="5.94422">
        <ele>479</ele>
        <time>2014-04-04T11:32:18Z</time>
      </trkpt>
      <trkpt lat="45.53204" lon="5.94419">
        <ele>479.1</ele>
        <time>2014-04-04T11:32:20Z</time>
      </trkpt>
      <trkpt lat="45.53205" lon="5.94417">
        <ele>479.5</ele>
        <time>2014-04-04T11:32:22Z</time>
      </trkpt>
      <trkpt lat="45.53205" lon="5.94417">
        <ele>479.6</ele>
        <time>2014-04-04T11:32:24Z</time>
      </trkpt>
      <trkpt lat="45.53205" lon="5.94417">
        <ele>479.6</ele>
        <time>2014-04-04T11:32:26Z</time>
      </trkpt>
      <trkpt lat="45.53208" lon="5.94419">
        <ele>479.1</ele>
        <time>2014-04-04T11:32:28Z</time>
      </trkpt>
      <trkpt lat="45.53215" lon="5.9442">
        <ele>478.6</ele>
        <time>2014-04-04T11:32:30Z</time>
      </trkpt>
      <trkpt lat="45.53218" lon="5.94419">
        <ele>478.6</ele>
        <time>2014-04-04T11:32:32Z</time>
      </trkpt>
      <trkpt lat="45.53222" lon="5.94418">
        <ele>478.8</ele>
        <time>2014-04-04T11:32:34Z</time>
      </trkpt>
      <trkpt lat="45.53227" lon="5.94415">
        <ele>477.4</ele>
        <time>2014-04-04T11:32:36Z</time>
      </trkpt>
      <trkpt lat="45.53231" lon="5.94411">
        <ele>477</ele>
        <time>2014-04-04T11:32:38Z</time>
      </trkpt>
      <trkpt lat="45.53233" lon="5.94409">
        <ele>476.7</ele>
        <time>2014-04-04T11:32:40Z</time>
      </trkpt>
      <trkpt lat="45.53237" lon="5.94404">
        <ele>476.2</ele>
        <time>2014-04-04T11:32:42Z</time>
      </trkpt>
      <trkpt lat="45.53244" lon="5.94396">
        <ele>476.1</ele>
        <time>2014-04-04T11:32:44Z</time>
      </trkpt>
      <trkpt lat="45.53249" lon="5.94391">
        <ele>475.6</ele>
        <time>2014-04-04T11:32:46Z</time>
      </trkpt>
      <trkpt lat="45.53252" lon="5.94389">
        <ele>475.3</ele>
        <time>2014-04-04T11:32:48Z</time>
      </trkpt>
      <trkpt lat="45.53258" lon="5.94387">
        <ele>474.2</ele>
        <time>2014-04-04T11:32:50Z</time>
      </trkpt>
      <trkpt lat="45.53264" lon="5.94387">
        <ele>472.3</ele>
        <time>2014-04-04T11:32:52Z</time>
      </trkpt>
      <trkpt lat="45.53265" lon="5.9439">
        <ele>471.3</ele>
        <time>2014-04-04T11:32:54Z</time>
      </trkpt>
      <trkpt lat="45.53266" lon="5.94398">
        <ele>468.8</ele>
        <time>2014-04-04T11:32:56Z</time>
      </trkpt>
      <trkpt lat="45.53265" lon="5.94409">
        <ele>465.9</ele>
        <time>2014-04-04T11:32:58Z</time>
      </trkpt>
      <trkpt lat="45.53265" lon="5.94411">
        <ele>465.2</ele>
        <time>2014-04-04T11:33:00Z</time>
      </trkpt>
      <trkpt lat="45.53265" lon="5.94411">
        <ele>465.2</ele>
        <time>2014-04-04T11:33:02Z</time>
      </trkpt>
      <trkpt lat="45.53266" lon="5.9441">
        <ele>465.2</ele>
        <time>2014-04-04T11:33:04Z</time>
      </trkpt>
      <trkpt lat="45.53271" lon="5.94405">
        <ele>465</ele>
        <time>2014-04-04T11:33:06Z</time>
      </trkpt>
      <trkpt lat="45.53275" lon="5.94403">
        <ele>464.5</ele>
        <time>2014-04-04T11:33:08Z</time>
      </trkpt>
      <trkpt lat="45.53277" lon="5.94405">
        <ele>463.4</ele>
        <time>2014-04-04T11:33:10Z</time>
      </trkpt>
      <trkpt lat="45.53278" lon="5.94412">
        <ele>460.5</ele>
        <time>2014-04-04T11:33:12Z</time>
      </trkpt>
      <trkpt lat="45.53272" lon="5.94425">
        <ele>458.8</ele>
        <time>2014-04-04T11:33:14Z</time>
      </trkpt>
      <trkpt lat="45.53269" lon="5.94436">
        <ele>457</ele>
        <time>2014-04-04T11:33:16Z</time>
      </trkpt>
      <trkpt lat="45.53267" lon="5.94442">
        <ele>456</ele>
        <time>2014-04-04T11:33:18Z</time>
      </trkpt>
      <trkpt lat="45.53265" lon="5.9445">
        <ele>454.7</ele>
        <time>2014-04-04T11:33:20Z</time>
      </trkpt>
      <trkpt lat="45.53264" lon="5.9446">
        <ele>452.9</ele>
        <time>2014-04-04T11:33:22Z</time>
      </trkpt>
      <trkpt lat="45.53264" lon="5.94464">
        <ele>452.2</ele>
        <time>2014-04-04T11:33:24Z</time>
      </trkpt>
      <trkpt lat="45.53261" lon="5.94472">
        <ele>450.9</ele>
        <time>2014-04-04T11:33:26Z</time>
      </trkpt>
      <trkpt lat="45.53256" lon="5.94478">
        <ele>450.7</ele>
        <time>2014-04-04T11:33:28Z</time>
      </trkpt>
      <trkpt lat="45.53256" lon="5.94477">
        <ele>450.8</ele>
        <time>2014-04-04T11:33:30Z</time>
      </trkpt>
      <trkpt lat="45.53255" lon="5.94476">
        <ele>450.9</ele>
        <time>2014-04-04T11:33:32Z</time>
      </trkpt>
      <trkpt lat="45.53254" lon="5.94475">
        <ele>451.2</ele>
        <time>2014-04-04T11:33:34Z</time>
      </trkpt>
      <trkpt lat="45.53252" lon="5.94474">
        <ele>451.7</ele>
        <time>2014-04-04T11:33:36Z</time>
      </trkpt>
      <trkpt lat="45.53251" lon="5.94473">
        <ele>451.9</ele>
        <time>2014-04-04T11:33:38Z</time>
      </trkpt>
      <trkpt lat="45.5325" lon="5.94472">
        <ele>452</ele>
        <time>2014-04-04T11:33:40Z</time>
      </trkpt>
      <trkpt lat="45.53251" lon="5.94471">
        <ele>452.3</ele>
        <time>2014-04-04T11:33:42Z</time>
      </trkpt>
      <trkpt lat="45.53251" lon="5.94472">
        <ele>452</ele>
        <time>2014-04-04T11:33:44Z</time>
      </trkpt>
      <trkpt lat="45.5325" lon="5.94477">
        <ele>451.5</ele>
        <time>2014-04-04T11:33:46Z</time>
      </trkpt>
      <trkpt lat="45.53249" lon="5.9448">
        <ele>451.5</ele>
        <time>2014-04-04T11:33:48Z</time>
      </trkpt>
      <trkpt lat="45.53246" lon="5.94486">
        <ele>451.6</ele>
        <time>2014-04-04T11:33:50Z</time>
      </trkpt>
      <trkpt lat="45.53239" lon="5.94495">
        <ele>451</ele>
        <time>2014-04-04T11:33:52Z</time>
      </trkpt>
      <trkpt lat="45.53236" lon="5.94496">
        <ele>451</ele>
        <time>2014-04-04T11:33:54Z</time>
      </trkpt>
      <trkpt lat="45.53231" lon="5.945">
        <ele>450.6</ele>
        <time>2014-04-04T11:33:56Z</time>
      </trkpt>
      <trkpt lat="45.53221" lon="5.94506">
        <ele>450.2</ele>
        <time>2014-04-04T11:33:58Z</time>
      </trkpt>
      <trkpt lat="45.53215" lon="5.9451">
        <ele>450.5</ele>
        <time>2014-04-04T11:34:00Z</time>
      </trkpt>
      <trkpt lat="45.53213" lon="5.94511">
        <ele>450.6</ele>
        <time>2014-04-04T11:34:02Z</time>
      </trkpt>
      <trkpt lat="45.53208" lon="5.94513">
        <ele>450.8</ele>
        <time>2014-04-04T11:34:04Z</time>
      </trkpt>
      <trkpt lat="45.53199" lon="5.94515">
        <ele>451.3</ele>
        <time>2014-04-04T11:34:06Z</time>
      </trkpt>
      <trkpt lat="45.53194" lon="5.94516">
        <ele>451.4</ele>
        <time>2014-04-04T11:34:08Z</time>
      </trkpt>
      <trkpt lat="45.53191" lon="5.94517">
        <ele>451.1</ele>
        <time>2014-04-04T11:34:10Z</time>
      </trkpt>
      <trkpt lat="45.53186" lon="5.94518">
        <ele>450.5</ele>
        <time>2014-04-04T11:34:12Z</time>
      </trkpt>
      <trkpt lat="45.5318" lon="5.94518">
        <ele>450.4</ele>
        <time>2014-04-04T11:34:14Z</time>
      </trkpt>
      <trkpt lat="45.53178" lon="5.94517">
        <ele>450.6</ele>
        <time>2014-04-04T11:34:16Z</time>
      </trkpt>
      <trkpt lat="45.53174" lon="5.94517">
        <ele>450.5</ele>
        <time>2014-04-04T11:34:18Z</time>
      </trkpt>
      <trkpt lat="45.5317" lon="5.94517">
        <ele>450.5</ele>
        <time>2014-04-04T11:34:20Z</time>
      </trkpt>
      <trkpt lat="45.53163" lon="5.94515">
        <ele>451.3</ele>
        <time>2014-04-04T11:34:22Z</time>
      </trkpt>
      <trkpt lat="45.53161" lon="5.94515">
        <ele>451.8</ele>
        <time>2014-04-04T11:34:24Z</time>
      </trkpt>
      <trkpt lat="45.53157" lon="5.94513">
        <ele>452.6</ele>
        <time>2014-04-04T11:34:26Z</time>
      </trkpt>
      <trkpt lat="45.53154" lon="5.94512">
        <ele>453.3</ele>
        <time>2014-04-04T11:34:28Z</time>
      </trkpt>
      <trkpt lat="45.53148" lon="5.9451">
        <ele>454.7</ele>
        <time>2014-04-04T11:34:30Z</time>
      </trkpt>
      <trkpt lat="45.53147" lon="5.94509">
        <ele>455.3</ele>
        <time>2014-04-04T11:34:32Z</time>
      </trkpt>
      <trkpt lat="45.53143" lon="5.94506">
        <ele>456.4</ele>
        <time>2014-04-04T11:34:34Z</time>
      </trkpt>
      <trkpt lat="45.53137" lon="5.94502">
        <ele>458.3</ele>
        <time>2014-04-04T11:34:36Z</time>
      </trkpt>
      <trkpt lat="45.53133" lon="5.94501">
        <ele>459.1</ele>
        <time>2014-04-04T11:34:38Z</time>
      </trkpt>
      <trkpt lat="45.53131" lon="5.94501">
        <ele>459.3</ele>
        <time>2014-04-04T11:34:40Z</time>
      </trkpt>
      <trkpt lat="45.53126" lon="5.945">
        <ele>460</ele>
        <time>2014-04-04T11:34:42Z</time>
      </trkpt>
      <trkpt lat="45.5312" lon="5.94498">
        <ele>460.7</ele>
        <time>2014-04-04T11:34:44Z</time>
      </trkpt>
      <trkpt lat="45.53118" lon="5.94497">
        <ele>461</ele>
        <time>2014-04-04T11:34:46Z</time>
      </trkpt>
      <trkpt lat="45.53114" lon="5.94496">
        <ele>461.4</ele>
        <time>2014-04-04T11:34:48Z</time>
      </trkpt>
      <trkpt lat="45.53107" lon="5.94494">
        <ele>462.1</ele>
        <time>2014-04-04T11:34:50Z</time>
      </trkpt>
      <trkpt lat="45.53103" lon="5.94492">
        <ele>462.6</ele>
        <time>2014-04-04T11:34:52Z</time>
      </trkpt>
      <trkpt lat="45.53101" lon="5.94491">
        <ele>462.8</ele>
        <time>2014-04-04T11:34:54Z</time>
      </trkpt>
      <trkpt lat="45.53097" lon="5.9449">
        <ele>463.2</ele>
        <time>2014-04-04T11:34:56Z</time>
      </trkpt>
      <trkpt lat="45.5309" lon="5.9449">
        <ele>463.6</ele>
        <time>2014-04-04T11:34:58Z</time>
      </trkpt>
      <trkpt lat="45.53085" lon="5.94489">
        <ele>463.9</ele>
        <time>2014-04-04T11:35:00Z</time>
      </trkpt>
      <trkpt lat="45.53083" lon="5.94488">
        <ele>464.1</ele>
        <time>2014-04-04T11:35:02Z</time>
      </trkpt>
      <trkpt lat="45.53078" lon="5.94487">
        <ele>464.4</ele>
        <time>2014-04-04T11:35:04Z</time>
      </trkpt>
      <trkpt lat="45.53072" lon="5.94484">
        <ele>464.9</ele>
        <time>2014-04-04T11:35:06Z</time>
      </trkpt>
      <trkpt lat="45.53067" lon="5.94483">
        <ele>465.2</ele>
        <time>2014-04-04T11:35:08Z</time>
      </trkpt>
      <trkpt lat="45.53065" lon="5.94482">
        <ele>465.4</ele>
        <time>2014-04-04T11:35:10Z</time>
      </trkpt>
      <trkpt lat="45.5306" lon="5.94479">
        <ele>466.2</ele>
        <time>2014-04-04T11:35:12Z</time>
      </trkpt>
      <trkpt lat="45.53054" lon="5.94475">
        <ele>467.4</ele>
        <time>2014-04-04T11:35:14Z</time>
      </trkpt>
      <trkpt lat="45.53052" lon="5.94473">
        <ele>467.7</ele>
        <time>2014-04-04T11:35:16Z</time>
      </trkpt>
      <trkpt lat="45.53048" lon="5.94471">
        <ele>468.4</ele>
        <time>2014-04-04T11:35:18Z</time>
      </trkpt>
      <trkpt lat="45.53042" lon="5.94468">
        <ele>469.3</ele>
        <time>2014-04-04T11:35:20Z</time>
      </trkpt>
      <trkpt lat="45.53038" lon="5.94465">
        <ele>469.8</ele>
        <time>2014-04-04T11:35:22Z</time>
      </trkpt>
      <trkpt lat="45.53037" lon="5.94464">
        <ele>470.1</ele>
        <time>2014-04-04T11:35:24Z</time>
      </trkpt>
      <trkpt lat="45.53034" lon="5.94461">
        <ele>470.8</ele>
        <time>2014-04-04T11:35:26Z</time>
      </trkpt>
      <trkpt lat="45.5303" lon="5.94457">
        <ele>471.4</ele>
        <time>2014-04-04T11:35:28Z</time>
      </trkpt>
      <trkpt lat="45.53027" lon="5.94455">
        <ele>471.6</ele>
        <time>2014-04-04T11:35:30Z</time>
      </trkpt>
      <trkpt lat="45.53026" lon="5.94454">
        <ele>471.8</ele>
        <time>2014-04-04T11:35:32Z</time>
      </trkpt>
      <trkpt lat="45.53021" lon="5.94451">
        <ele>472.3</ele>
        <time>2014-04-04T11:35:34Z</time>
      </trkpt>
      <trkpt lat="45.53018" lon="5.94448">
        <ele>472.9</ele>
        <time>2014-04-04T11:35:36Z</time>
      </trkpt>
      <trkpt lat="45.53017" lon="5.94447">
        <ele>473.1</ele>
        <time>2014-04-04T11:35:38Z</time>
      </trkpt>
      <trkpt lat="45.53014" lon="5.94444">
        <ele>473.7</ele>
        <time>2014-04-04T11:35:40Z</time>
      </trkpt>
      <trkpt lat="45.5301" lon="5.94441">
        <ele>474.3</ele>
        <time>2014-04-04T11:35:42Z</time>
      </trkpt>
      <trkpt lat="45.53005" lon="5.94439">
        <ele>474.9</ele>
        <time>2014-04-04T11:35:44Z</time>
      </trkpt>
      <trkpt lat="45.53003" lon="5.94437">
        <ele>475.2</ele>
        <time>2014-04-04T11:35:46Z</time>
      </trkpt>
      <trkpt lat="45.53" lon="5.94434">
        <ele>476</ele>
        <time>2014-04-04T11:35:48Z</time>
      </trkpt>
      <trkpt lat="45.52995" lon="5.9443">
        <ele>476.9</ele>
        <time>2014-04-04T11:35:50Z</time>
      </trkpt>
      <trkpt lat="45.52992" lon="5.94428">
        <ele>477.3</ele>
        <time>2014-04-04T11:35:52Z</time>
      </trkpt>
      <trkpt lat="45.5299" lon="5.94427">
        <ele>477.5</ele>
        <time>2014-04-04T11:35:54Z</time>
      </trkpt>
      <trkpt lat="45.52987" lon="5.94426">
        <ele>477.6</ele>
        <time>2014-04-04T11:35:56Z</time>
      </trkpt>
      <trkpt lat="45.52983" lon="5.94425">
        <ele>477.7</ele>
        <time>2014-04-04T11:35:58Z</time>
      </trkpt>
      <trkpt lat="45.52983" lon="5.94424">
        <ele>477.9</ele>
        <time>2014-04-04T11:36:00Z</time>
      </trkpt>
      <trkpt lat="45.52983" lon="5.94425">
        <ele>477.9</ele>
        <time>2014-04-04T11:36:02Z</time>
      </trkpt>
      <trkpt lat="45.52984" lon="5.94425">
        <ele>477.9</ele>
        <time>2014-04-04T11:36:04Z</time>
      </trkpt>
      <trkpt lat="45.52984" lon="5.94424">
        <ele>478</ele>
        <time>2014-04-04T11:36:06Z</time>
      </trkpt>
      <trkpt lat="45.52985" lon="5.94424">
        <ele>478</ele>
        <time>2014-04-04T11:36:08Z</time>
      </trkpt>
      <trkpt lat="45.52985" lon="5.94424">
        <ele>478.2</ele>
        <time>2014-04-04T11:36:10Z</time>
      </trkpt>
      <trkpt lat="45.52986" lon="5.94424">
        <ele>478.3</ele>
        <time>2014-04-04T11:36:12Z</time>
      </trkpt>
      <trkpt lat="45.52987" lon="5.94423">
        <ele>478.3</ele>
        <time>2014-04-04T11:36:14Z</time>
      </trkpt>
      <trkpt lat="45.52987" lon="5.94423">
        <ele>478.4</ele>
        <time>2014-04-04T11:36:16Z</time>
      </trkpt>
      <trkpt lat="45.52987" lon="5.94423">
        <ele>478.4</ele>
        <time>2014-04-04T11:36:18Z</time>
      </trkpt>
      <trkpt lat="45.52987" lon="5.94423">
        <ele>478.4</ele>
        <time>2014-04-04T11:36:20Z</time>
      </trkpt>
      <trkpt lat="45.52988" lon="5.94423">
        <ele>478.4</ele>
        <time>2014-04-04T11:36:22Z</time>
      </trkpt>
      <trkpt lat="45.52988" lon="5.94423">
        <ele>478.5</ele>
        <time>2014-04-04T11:36:24Z</time>
      </trkpt>
      <trkpt lat="45.52987" lon="5.94423">
        <ele>478.6</ele>
        <time>2014-04-04T11:36:26Z</time>
      </trkpt>
      <trkpt lat="45.52985" lon="5.94423">
        <ele>478.5</ele>
        <time>2014-04-04T11:36:28Z</time>
      </trkpt>
      <trkpt lat="45.52982" lon="5.94421">
        <ele>478.7</ele>
        <time>2014-04-04T11:36:30Z</time>
      </trkpt>
      <trkpt lat="45.5298" lon="5.9442">
        <ele>478.8</ele>
        <time>2014-04-04T11:36:32Z</time>
      </trkpt>
      <trkpt lat="45.52974" lon="5.94417">
        <ele>479.2</ele>
        <time>2014-04-04T11:36:34Z</time>
      </trkpt>
      <trkpt lat="45.5297" lon="5.94414">
        <ele>479.8</ele>
        <time>2014-04-04T11:36:36Z</time>
      </trkpt>
      <trkpt lat="45.52968" lon="5.94413">
        <ele>480.3</ele>
        <time>2014-04-04T11:36:38Z</time>
      </trkpt>
      <trkpt lat="45.52964" lon="5.94411">
        <ele>481.2</ele>
        <time>2014-04-04T11:36:40Z</time>
      </trkpt>
      <trkpt lat="45.52958" lon="5.94408">
        <ele>482.4</ele>
        <time>2014-04-04T11:36:42Z</time>
      </trkpt>
      <trkpt lat="45.52953" lon="5.94406">
        <ele>483.3</ele>
        <time>2014-04-04T11:36:44Z</time>
      </trkpt>
      <trkpt lat="45.52951" lon="5.94405">
        <ele>483.7</ele>
        <time>2014-04-04T11:36:46Z</time>
      </trkpt>
      <trkpt lat="45.52947" lon="5.94403">
        <ele>484.5</ele>
        <time>2014-04-04T11:36:48Z</time>
      </trkpt>
      <trkpt lat="45.5294" lon="5.944">
        <ele>485</ele>
        <time>2014-04-04T11:36:50Z</time>
      </trkpt>
      <trkpt lat="45.52937" lon="5.94397">
        <ele>485.5</ele>
        <time>2014-04-04T11:36:52Z</time>
      </trkpt>
      <trkpt lat="45.52935" lon="5.94396">
        <ele>485.7</ele>
        <time>2014-04-04T11:36:54Z</time>
      </trkpt>
      <trkpt lat="45.52929" lon="5.94392">
        <ele>486</ele>
        <time>2014-04-04T11:36:56Z</time>
      </trkpt>
      <trkpt lat="45.52924" lon="5.94389">
        <ele>486.1</ele>
        <time>2014-04-04T11:36:58Z</time>
      </trkpt>
      <trkpt lat="45.5292" lon="5.94385">
        <ele>486.3</ele>
        <time>2014-04-04T11:37:00Z</time>
      </trkpt>
      <trkpt lat="45.52918" lon="5.94384">
        <ele>486.3</ele>
        <time>2014-04-04T11:37:02Z</time>
      </trkpt>
      <trkpt lat="45.52914" lon="5.94381">
        <ele>486.8</ele>
        <time>2014-04-04T11:37:04Z</time>
      </trkpt>
      <trkpt lat="45.52907" lon="5.94378">
        <ele>487.9</ele>
        <time>2014-04-04T11:37:06Z</time>
      </trkpt>
      <trkpt lat="45.52905" lon="5.94377">
        <ele>488.2</ele>
        <time>2014-04-04T11:37:08Z</time>
      </trkpt>
      <trkpt lat="45.52899" lon="5.94376">
        <ele>488.8</ele>
        <time>2014-04-04T11:37:10Z</time>
      </trkpt>
      <trkpt lat="45.52891" lon="5.94375">
        <ele>489.5</ele>
        <time>2014-04-04T11:37:12Z</time>
      </trkpt>
      <trkpt lat="45.52886" lon="5.94373">
        <ele>490.1</ele>
        <time>2014-04-04T11:37:14Z</time>
      </trkpt>
      <trkpt lat="45.52884" lon="5.94373">
        <ele>490.4</ele>
        <time>2014-04-04T11:37:16Z</time>
      </trkpt>
      <trkpt lat="45.5288" lon="5.94371">
        <ele>491</ele>
        <time>2014-04-04T11:37:18Z</time>
      </trkpt>
      <trkpt lat="45.52873" lon="5.94368">
        <ele>492.3</ele>
        <time>2014-04-04T11:37:20Z</time>
      </trkpt>
      <trkpt lat="45.52869" lon="5.94365">
        <ele>493.4</ele>
        <time>2014-04-04T11:37:22Z</time>
      </trkpt>
      <trkpt lat="45.52866" lon="5.94364">
        <ele>494</ele>
        <time>2014-04-04T11:37:24Z</time>
      </trkpt>
      <trkpt lat="45.52859" lon="5.94359">
        <ele>495.5</ele>
        <time>2014-04-04T11:37:26Z</time>
      </trkpt>
      <trkpt lat="45.52854" lon="5.94355">
        <ele>496.1</ele>
        <time>2014-04-04T11:37:28Z</time>
      </trkpt>
      <trkpt lat="45.52852" lon="5.94354">
        <ele>496.4</ele>
        <time>2014-04-04T11:37:30Z</time>
      </trkpt>
      <trkpt lat="45.52848" lon="5.94353">
        <ele>496.9</ele>
        <time>2014-04-04T11:37:32Z</time>
      </trkpt>
      <trkpt lat="45.52844" lon="5.94351">
        <ele>497.3</ele>
        <time>2014-04-04T11:37:34Z</time>
      </trkpt>
      <trkpt lat="45.52839" lon="5.94348">
        <ele>498.2</ele>
        <time>2014-04-04T11:37:36Z</time>
      </trkpt>
      <trkpt lat="45.52838" lon="5.94347">
        <ele>498.5</ele>
        <time>2014-04-04T11:37:38Z</time>
      </trkpt>
      <trkpt lat="45.52835" lon="5.94345">
        <ele>498.9</ele>
        <time>2014-04-04T11:37:40Z</time>
      </trkpt>
      <trkpt lat="45.52829" lon="5.94346">
        <ele>499</ele>
        <time>2014-04-04T11:37:42Z</time>
      </trkpt>
      <trkpt lat="45.52826" lon="5.94346">
        <ele>499</ele>
        <time>2014-04-04T11:37:44Z</time>
      </trkpt>
      <trkpt lat="45.52824" lon="5.94347">
        <ele>499</ele>
        <time>2014-04-04T11:37:46Z</time>
      </trkpt>
      <trkpt lat="45.52821" lon="5.94347">
        <ele>499</ele>
        <time>2014-04-04T11:37:48Z</time>
      </trkpt>
      <trkpt lat="45.52816" lon="5.94346">
        <ele>499.5</ele>
        <time>2014-04-04T11:37:50Z</time>
      </trkpt>
      <trkpt lat="45.52812" lon="5.94345">
        <ele>499.8</ele>
        <time>2014-04-04T11:37:52Z</time>
      </trkpt>
      <trkpt lat="45.5281" lon="5.94344">
        <ele>500.1</ele>
        <time>2014-04-04T11:37:54Z</time>
      </trkpt>
      <trkpt lat="45.52806" lon="5.94342">
        <ele>500.7</ele>
        <time>2014-04-04T11:37:56Z</time>
      </trkpt>
      <trkpt lat="45.52803" lon="5.94342">
        <ele>501</ele>
        <time>2014-04-04T11:37:58Z</time>
      </trkpt>
      <trkpt lat="45.52802" lon="5.9434">
        <ele>501.4</ele>
        <time>2014-04-04T11:38:00Z</time>
      </trkpt>
      <trkpt lat="45.52799" lon="5.94338">
        <ele>502.3</ele>
        <time>2014-04-04T11:38:02Z</time>
      </trkpt>
      <trkpt lat="45.52797" lon="5.94335">
        <ele>503.3</ele>
        <time>2014-04-04T11:38:04Z</time>
      </trkpt>
      <trkpt lat="45.52793" lon="5.94332">
        <ele>504.2</ele>
        <time>2014-04-04T11:38:06Z</time>
      </trkpt>
      <trkpt lat="45.52792" lon="5.94331">
        <ele>504.6</ele>
        <time>2014-04-04T11:38:08Z</time>
      </trkpt>
      <trkpt lat="45.5279" lon="5.94328">
        <ele>505.4</ele>
        <time>2014-04-04T11:38:10Z</time>
      </trkpt>
      <trkpt lat="45.52785" lon="5.94327">
        <ele>506</ele>
        <time>2014-04-04T11:38:12Z</time>
      </trkpt>
      <trkpt lat="45.52782" lon="5.94325">
        <ele>506.4</ele>
        <time>2014-04-04T11:38:14Z</time>
      </trkpt>
      <trkpt lat="45.52781" lon="5.94324">
        <ele>506.6</ele>
        <time>2014-04-04T11:38:16Z</time>
      </trkpt>
      <trkpt lat="45.52778" lon="5.94321">
        <ele>507.2</ele>
        <time>2014-04-04T11:38:18Z</time>
      </trkpt>
      <trkpt lat="45.52774" lon="5.94318">
        <ele>507.9</ele>
        <time>2014-04-04T11:38:20Z</time>
      </trkpt>
      <trkpt lat="45.52772" lon="5.94314">
        <ele>508.6</ele>
        <time>2014-04-04T11:38:22Z</time>
      </trkpt>
      <trkpt lat="45.5277" lon="5.94313">
        <ele>508.8</ele>
        <time>2014-04-04T11:38:24Z</time>
      </trkpt>
      <trkpt lat="45.52767" lon="5.94311">
        <ele>509.3</ele>
        <time>2014-04-04T11:38:26Z</time>
      </trkpt>
      <trkpt lat="45.52764" lon="5.94308">
        <ele>510</ele>
        <time>2014-04-04T11:38:28Z</time>
      </trkpt>
      <trkpt lat="45.52762" lon="5.94308">
        <ele>510</ele>
        <time>2014-04-04T11:38:30Z</time>
      </trkpt>
      <trkpt lat="45.5276" lon="5.94307">
        <ele>510.4</ele>
        <time>2014-04-04T11:38:32Z</time>
      </trkpt>
      <trkpt lat="45.52758" lon="5.94302">
        <ele>511.6</ele>
        <time>2014-04-04T11:38:34Z</time>
      </trkpt>
      <trkpt lat="45.52756" lon="5.94299">
        <ele>512.3</ele>
        <time>2014-04-04T11:38:36Z</time>
      </trkpt>
      <trkpt lat="45.52754" lon="5.94298">
        <ele>512.5</ele>
        <time>2014-04-04T11:38:38Z</time>
      </trkpt>
      <trkpt lat="45.52752" lon="5.94297">
        <ele>512.7</ele>
        <time>2014-04-04T11:38:40Z</time>
      </trkpt>
      <trkpt lat="45.52748" lon="5.94294">
        <ele>513</ele>
        <time>2014-04-04T11:38:42Z</time>
      </trkpt>
      <trkpt lat="45.52746" lon="5.94291">
        <ele>513.5</ele>
        <time>2014-04-04T11:38:44Z</time>
      </trkpt>
      <trkpt lat="45.52745" lon="5.94289">
        <ele>513.8</ele>
        <time>2014-04-04T11:38:46Z</time>
      </trkpt>
      <trkpt lat="45.52744" lon="5.94285">
        <ele>514.3</ele>
        <time>2014-04-04T11:38:48Z</time>
      </trkpt>
      <trkpt lat="45.52742" lon="5.9428">
        <ele>515.1</ele>
        <time>2014-04-04T11:38:50Z</time>
      </trkpt>
      <trkpt lat="45.52741" lon="5.94278">
        <ele>515.4</ele>
        <time>2014-04-04T11:38:52Z</time>
      </trkpt>
      <trkpt lat="45.52741" lon="5.94272">
        <ele>516.9</ele>
        <time>2014-04-04T11:38:54Z</time>
      </trkpt>
      <trkpt lat="45.52741" lon="5.94267">
        <ele>518.3</ele>
        <time>2014-04-04T11:38:56Z</time>
      </trkpt>
      <trkpt lat="45.52741" lon="5.9426">
        <ele>520.1</ele>
        <time>2014-04-04T11:38:58Z</time>
      </trkpt>
      <trkpt lat="45.52741" lon="5.94258">
        <ele>520.7</ele>
        <time>2014-04-04T11:39:00Z</time>
      </trkpt>
      <trkpt lat="45.52741" lon="5.94253">
        <ele>521.9</ele>
        <time>2014-04-04T11:39:02Z</time>
      </trkpt>
      <trkpt lat="45.5274" lon="5.94248">
        <ele>523</ele>
        <time>2014-04-04T11:39:04Z</time>
      </trkpt>
      <trkpt lat="45.52738" lon="5.94245">
        <ele>523.7</ele>
        <time>2014-04-04T11:39:06Z</time>
      </trkpt>
      <trkpt lat="45.52737" lon="5.94243">
        <ele>524</ele>
        <time>2014-04-04T11:39:08Z</time>
      </trkpt>
      <trkpt lat="45.52736" lon="5.94239">
        <ele>524.9</ele>
        <time>2014-04-04T11:39:10Z</time>
      </trkpt>
      <trkpt lat="45.52734" lon="5.94234">
        <ele>526.1</ele>
        <time>2014-04-04T11:39:12Z</time>
      </trkpt>
      <trkpt lat="45.52733" lon="5.9423">
        <ele>526.8</ele>
        <time>2014-04-04T11:39:14Z</time>
      </trkpt>
      <trkpt lat="45.52733" lon="5.94229">
        <ele>527.2</ele>
        <time>2014-04-04T11:39:16Z</time>
      </trkpt>
      <trkpt lat="45.52731" lon="5.94224">
        <ele>528.1</ele>
        <time>2014-04-04T11:39:18Z</time>
      </trkpt>
      <trkpt lat="45.5273" lon="5.94222">
        <ele>528.4</ele>
        <time>2014-04-04T11:39:20Z</time>
      </trkpt>
      <trkpt lat="45.52729" lon="5.94222">
        <ele>528.3</ele>
        <time>2014-04-04T11:39:22Z</time>
      </trkpt>
      <trkpt lat="45.52727" lon="5.9422">
        <ele>528.3</ele>
        <time>2014-04-04T11:39:24Z</time>
      </trkpt>
      <trkpt lat="45.52724" lon="5.94218">
        <ele>528.3</ele>
        <time>2014-04-04T11:39:26Z</time>
      </trkpt>
      <trkpt lat="45.52721" lon="5.94217">
        <ele>528.2</ele>
        <time>2014-04-04T11:39:28Z</time>
      </trkpt>
      <trkpt lat="45.5272" lon="5.94216">
        <ele>528.3</ele>
        <time>2014-04-04T11:39:30Z</time>
      </trkpt>
      <trkpt lat="45.52718" lon="5.94215">
        <ele>528.6</ele>
        <time>2014-04-04T11:39:32Z</time>
      </trkpt>
      <trkpt lat="45.52716" lon="5.94211">
        <ele>529.4</ele>
        <time>2014-04-04T11:39:34Z</time>
      </trkpt>
      <trkpt lat="45.52714" lon="5.9421">
        <ele>529.6</ele>
        <time>2014-04-04T11:39:36Z</time>
      </trkpt>
      <trkpt lat="45.52712" lon="5.9421">
        <ele>529.6</ele>
        <time>2014-04-04T11:39:38Z</time>
      </trkpt>
      <trkpt lat="45.5271" lon="5.94209">
        <ele>529.8</ele>
        <time>2014-04-04T11:39:40Z</time>
      </trkpt>
      <trkpt lat="45.52707" lon="5.94205">
        <ele>530.7</ele>
        <time>2014-04-04T11:39:42Z</time>
      </trkpt>
      <trkpt lat="45.52706" lon="5.94202">
        <ele>531.4</ele>
        <time>2014-04-04T11:39:44Z</time>
      </trkpt>
      <trkpt lat="45.52705" lon="5.942">
        <ele>531.8</ele>
        <time>2014-04-04T11:39:46Z</time>
      </trkpt>
      <trkpt lat="45.52701" lon="5.94196">
        <ele>532.6</ele>
        <time>2014-04-04T11:39:48Z</time>
      </trkpt>
      <trkpt lat="45.527" lon="5.94194">
        <ele>533.1</ele>
        <time>2014-04-04T11:39:50Z</time>
      </trkpt>
      <trkpt lat="45.52698" lon="5.94194">
        <ele>533.2</ele>
        <time>2014-04-04T11:39:52Z</time>
      </trkpt>
      <trkpt lat="45.52696" lon="5.94193">
        <ele>533.5</ele>
        <time>2014-04-04T11:39:54Z</time>
      </trkpt>
      <trkpt lat="45.52695" lon="5.94191">
        <ele>534.1</ele>
        <time>2014-04-04T11:39:56Z</time>
      </trkpt>
      <trkpt lat="45.52693" lon="5.94191">
        <ele>534.4</ele>
        <time>2014-04-04T11:39:58Z</time>
      </trkpt>
      <trkpt lat="45.52692" lon="5.94191">
        <ele>534.5</ele>
        <time>2014-04-04T11:40:00Z</time>
      </trkpt>
      <trkpt lat="45.52689" lon="5.94191">
        <ele>534.9</ele>
        <time>2014-04-04T11:40:02Z</time>
      </trkpt>
      <trkpt lat="45.52686" lon="5.94189">
        <ele>536.1</ele>
        <time>2014-04-04T11:40:04Z</time>
      </trkpt>
      <trkpt lat="45.52684" lon="5.94187">
        <ele>536.8</ele>
        <time>2014-04-04T11:40:06Z</time>
      </trkpt>
      <trkpt lat="45.52683" lon="5.94186">
        <ele>537.2</ele>
        <time>2014-04-04T11:40:08Z</time>
      </trkpt>
      <trkpt lat="45.5268" lon="5.94186">
        <ele>537.8</ele>
        <time>2014-04-04T11:40:10Z</time>
      </trkpt>
      <trkpt lat="45.52677" lon="5.94184">
        <ele>538.7</ele>
        <time>2014-04-04T11:40:12Z</time>
      </trkpt>
      <trkpt lat="45.52676" lon="5.94183">
        <ele>539.1</ele>
        <time>2014-04-04T11:40:14Z</time>
      </trkpt>
      <trkpt lat="45.52674" lon="5.94181">
        <ele>540.1</ele>
        <time>2014-04-04T11:40:16Z</time>
      </trkpt>
      <trkpt lat="45.52672" lon="5.94178">
        <ele>541.1</ele>
        <time>2014-04-04T11:40:18Z</time>
      </trkpt>
      <trkpt lat="45.52669" lon="5.94175">
        <ele>542.3</ele>
        <time>2014-04-04T11:40:20Z</time>
      </trkpt>
      <trkpt lat="45.52668" lon="5.94174">
        <ele>542.7</ele>
        <time>2014-04-04T11:40:22Z</time>
      </trkpt>
      <trkpt lat="45.52666" lon="5.94173">
        <ele>543.1</ele>
        <time>2014-04-04T11:40:24Z</time>
      </trkpt>
      <trkpt lat="45.52663" lon="5.94171">
        <ele>543.9</ele>
        <time>2014-04-04T11:40:26Z</time>
      </trkpt>
      <trkpt lat="45.52662" lon="5.9417">
        <ele>544.3</ele>
        <time>2014-04-04T11:40:28Z</time>
      </trkpt>
      <trkpt lat="45.52661" lon="5.94169">
        <ele>544.6</ele>
        <time>2014-04-04T11:40:30Z</time>
      </trkpt>
      <trkpt lat="45.52659" lon="5.94167">
        <ele>545.3</ele>
        <time>2014-04-04T11:40:32Z</time>
      </trkpt>
      <trkpt lat="45.52656" lon="5.94163">
        <ele>546.1</ele>
        <time>2014-04-04T11:40:34Z</time>
      </trkpt>
      <trkpt lat="45.52654" lon="5.9416">
        <ele>546.7</ele>
        <time>2014-04-04T11:40:36Z</time>
      </trkpt>
      <trkpt lat="45.52654" lon="5.94159">
        <ele>547.1</ele>
        <time>2014-04-04T11:40:38Z</time>
      </trkpt>
      <trkpt lat="45.52652" lon="5.94155">
        <ele>547.9</ele>
        <time>2014-04-04T11:40:40Z</time>
      </trkpt>
      <trkpt lat="45.52652" lon="5.94148">
        <ele>549.2</ele>
        <time>2014-04-04T11:40:42Z</time>
      </trkpt>
      <trkpt lat="45.52652" lon="5.94146">
        <ele>549.6</ele>
        <time>2014-04-04T11:40:44Z</time>
      </trkpt>
      <trkpt lat="45.52652" lon="5.94142">
        <ele>550.4</ele>
        <time>2014-04-04T11:40:46Z</time>
      </trkpt>
      <trkpt lat="45.52652" lon="5.94139">
        <ele>551.1</ele>
        <time>2014-04-04T11:40:48Z</time>
      </trkpt>
      <trkpt lat="45.52651" lon="5.94134">
        <ele>551.9</ele>
        <time>2014-04-04T11:40:50Z</time>
      </trkpt>
      <trkpt lat="45.5265" lon="5.94132">
        <ele>552.1</ele>
        <time>2014-04-04T11:40:52Z</time>
      </trkpt>
      <trkpt lat="45.5265" lon="5.94129">
        <ele>552.7</ele>
        <time>2014-04-04T11:40:54Z</time>
      </trkpt>
      <trkpt lat="45.52648" lon="5.94125">
        <ele>553.4</ele>
        <time>2014-04-04T11:40:56Z</time>
      </trkpt>
      <trkpt lat="45.52647" lon="5.94122">
        <ele>553.8</ele>
        <time>2014-04-04T11:40:58Z</time>
      </trkpt>
      <trkpt lat="45.52647" lon="5.9412">
        <ele>554.1</ele>
        <time>2014-04-04T11:41:00Z</time>
      </trkpt>
      <trkpt lat="45.52646" lon="5.94118">
        <ele>554.4</ele>
        <time>2014-04-04T11:41:02Z</time>
      </trkpt>
      <trkpt lat="45.52647" lon="5.94118">
        <ele>554.5</ele>
        <time>2014-04-04T11:41:04Z</time>
      </trkpt>
      <trkpt lat="45.52647" lon="5.94117">
        <ele>554.5</ele>
        <time>2014-04-04T11:41:06Z</time>
      </trkpt>
      <trkpt lat="45.52647" lon="5.94118">
        <ele>554.5</ele>
        <time>2014-04-04T11:41:08Z</time>
      </trkpt>
      <trkpt lat="45.52647" lon="5.94117">
        <ele>554.5</ele>
        <time>2014-04-04T11:41:10Z</time>
      </trkpt>
      <trkpt lat="45.52647" lon="5.94117">
        <ele>554.6</ele>
        <time>2014-04-04T11:41:12Z</time>
      </trkpt>
      <trkpt lat="45.52647" lon="5.94116">
        <ele>554.6</ele>
        <time>2014-04-04T11:41:14Z</time>
      </trkpt>
      <trkpt lat="45.52648" lon="5.94116">
        <ele>554.6</ele>
        <time>2014-04-04T11:41:16Z</time>
      </trkpt>
      <trkpt lat="45.52648" lon="5.94116">
        <ele>554.6</ele>
        <time>2014-04-04T11:41:18Z</time>
      </trkpt>
      <trkpt lat="45.52647" lon="5.94117">
        <ele>554.6</ele>
        <time>2014-04-04T11:41:20Z</time>
      </trkpt>
      <trkpt lat="45.52647" lon="5.94117">
        <ele>554.6</ele>
        <time>2014-04-04T11:41:22Z</time>
      </trkpt>
      <trkpt lat="45.52645" lon="5.94116">
        <ele>554.9</ele>
        <time>2014-04-04T11:41:24Z</time>
      </trkpt>
      <trkpt lat="45.52642" lon="5.94113">
        <ele>555.5</ele>
        <time>2014-04-04T11:41:26Z</time>
      </trkpt>
      <trkpt lat="45.52641" lon="5.94111">
        <ele>556</ele>
        <time>2014-04-04T11:41:28Z</time>
      </trkpt>
      <trkpt lat="45.5264" lon="5.94109">
        <ele>556.2</ele>
        <time>2014-04-04T11:41:30Z</time>
      </trkpt>
      <trkpt lat="45.52639" lon="5.94106">
        <ele>556.7</ele>
        <time>2014-04-04T11:41:32Z</time>
      </trkpt>
      <trkpt lat="45.52637" lon="5.94103">
        <ele>556.8</ele>
        <time>2014-04-04T11:41:34Z</time>
      </trkpt>
      <trkpt lat="45.52636" lon="5.94102">
        <ele>556.8</ele>
        <time>2014-04-04T11:41:36Z</time>
      </trkpt>
      <trkpt lat="45.52634" lon="5.941">
        <ele>556.9</ele>
        <time>2014-04-04T11:41:38Z</time>
      </trkpt>
      <trkpt lat="45.52633" lon="5.94097">
        <ele>557.1</ele>
        <time>2014-04-04T11:41:40Z</time>
      </trkpt>
      <trkpt lat="45.52633" lon="5.94097">
        <ele>557.3</ele>
        <time>2014-04-04T11:41:42Z</time>
      </trkpt>
      <trkpt lat="45.52634" lon="5.94096">
        <ele>557.4</ele>
        <time>2014-04-04T11:41:44Z</time>
      </trkpt>
      <trkpt lat="45.52634" lon="5.94096">
        <ele>557.5</ele>
        <time>2014-04-04T11:41:46Z</time>
      </trkpt>
      <trkpt lat="45.52636" lon="5.94096">
        <ele>557.7</ele>
        <time>2014-04-04T11:41:48Z</time>
      </trkpt>
      <trkpt lat="45.52636" lon="5.94096">
        <ele>557.8</ele>
        <time>2014-04-04T11:41:50Z</time>
      </trkpt>
      <trkpt lat="45.52636" lon="5.94095">
        <ele>557.9</ele>
        <time>2014-04-04T11:41:52Z</time>
      </trkpt>
      <trkpt lat="45.52637" lon="5.94095">
        <ele>558</ele>
        <time>2014-04-04T11:41:54Z</time>
      </trkpt>
      <trkpt lat="45.52637" lon="5.94095">
        <ele>558.1</ele>
        <time>2014-04-04T11:41:56Z</time>
      </trkpt>
      <trkpt lat="45.52638" lon="5.94095">
        <ele>558.2</ele>
        <time>2014-04-04T11:41:58Z</time>
      </trkpt>
      <trkpt lat="45.52637" lon="5.94094">
        <ele>558.1</ele>
        <time>2014-04-04T11:42:00Z</time>
      </trkpt>
      <trkpt lat="45.52635" lon="5.94093">
        <ele>558</ele>
        <time>2014-04-04T11:42:02Z</time>
      </trkpt>
      <trkpt lat="45.52631" lon="5.9409">
        <ele>558</ele>
        <time>2014-04-04T11:42:04Z</time>
      </trkpt>
      <trkpt lat="45.52629" lon="5.9409">
        <ele>557.9</ele>
        <time>2014-04-04T11:42:06Z</time>
      </trkpt>
      <trkpt lat="45.52627" lon="5.94088">
        <ele>557.9</ele>
        <time>2014-04-04T11:42:08Z</time>
      </trkpt>
      <trkpt lat="45.52625" lon="5.94086">
        <ele>558</ele>
        <time>2014-04-04T11:42:10Z</time>
      </trkpt>
      <trkpt lat="45.52623" lon="5.9408">
        <ele>558.9</ele>
        <time>2014-04-04T11:42:12Z</time>
      </trkpt>
      <trkpt lat="45.52622" lon="5.94078">
        <ele>559.2</ele>
        <time>2014-04-04T11:42:14Z</time>
      </trkpt>
      <trkpt lat="45.52621" lon="5.94074">
        <ele>559.7</ele>
        <time>2014-04-04T11:42:16Z</time>
      </trkpt>
      <trkpt lat="45.52619" lon="5.9407">
        <ele>560.2</ele>
        <time>2014-04-04T11:42:18Z</time>
      </trkpt>
      <trkpt lat="45.52617" lon="5.94067">
        <ele>560.6</ele>
        <time>2014-04-04T11:42:20Z</time>
      </trkpt>
      <trkpt lat="45.52617" lon="5.94065">
        <ele>560.9</ele>
        <time>2014-04-04T11:42:22Z</time>
      </trkpt>
      <trkpt lat="45.52615" lon="5.94062">
        <ele>561.3</ele>
        <time>2014-04-04T11:42:24Z</time>
      </trkpt>
      <trkpt lat="45.52614" lon="5.94057">
        <ele>562</ele>
        <time>2014-04-04T11:42:26Z</time>
      </trkpt>
      <trkpt lat="45.52613" lon="5.94055">
        <ele>562.3</ele>
        <time>2014-04-04T11:42:28Z</time>
      </trkpt>
      <trkpt lat="45.52612" lon="5.94053">
        <ele>562.6</ele>
        <time>2014-04-04T11:42:30Z</time>
      </trkpt>
      <trkpt lat="45.52611" lon="5.9405">
        <ele>563.1</ele>
        <time>2014-04-04T11:42:32Z</time>
      </trkpt>
      <trkpt lat="45.52609" lon="5.94045">
        <ele>563.7</ele>
        <time>2014-04-04T11:42:34Z</time>
      </trkpt>
      <trkpt lat="45.52609" lon="5.94044">
        <ele>563.9</ele>
        <time>2014-04-04T11:42:36Z</time>
      </trkpt>
      <trkpt lat="45.52608" lon="5.9404">
        <ele>564.6</ele>
        <time>2014-04-04T11:42:38Z</time>
      </trkpt>
      <trkpt lat="45.52607" lon="5.94037">
        <ele>565</ele>
        <time>2014-04-04T11:42:40Z</time>
      </trkpt>
      <trkpt lat="45.52604" lon="5.94032">
        <ele>565.4</ele>
        <time>2014-04-04T11:42:42Z</time>
      </trkpt>
      <trkpt lat="45.52603" lon="5.9403">
        <ele>565.6</ele>
        <time>2014-04-04T11:42:44Z</time>
      </trkpt>
      <trkpt lat="45.52602" lon="5.94027">
        <ele>566.1</ele>
        <time>2014-04-04T11:42:46Z</time>
      </trkpt>
      <trkpt lat="45.526" lon="5.94023">
        <ele>566.5</ele>
        <time>2014-04-04T11:42:48Z</time>
      </trkpt>
      <trkpt lat="45.52598" lon="5.94018">
        <ele>566.8</ele>
        <time>2014-04-04T11:42:50Z</time>
      </trkpt>
      <trkpt lat="45.52598" lon="5.94016">
        <ele>567.1</ele>
        <time>2014-04-04T11:42:52Z</time>
      </trkpt>
      <trkpt lat="45.52598" lon="5.94012">
        <ele>567.8</ele>
        <time>2014-04-04T11:42:54Z</time>
      </trkpt>
      <trkpt lat="45.52599" lon="5.94011">
        <ele>568.3</ele>
        <time>2014-04-04T11:42:56Z</time>
      </trkpt>
      <trkpt lat="45.526" lon="5.9401">
        <ele>568.6</ele>
        <time>2014-04-04T11:42:58Z</time>
      </trkpt>
      <trkpt lat="45.526" lon="5.94009">
        <ele>568.8</ele>
        <time>2014-04-04T11:43:00Z</time>
      </trkpt>
      <trkpt lat="45.52599" lon="5.94007">
        <ele>568.9</ele>
        <time>2014-04-04T11:43:02Z</time>
      </trkpt>
      <trkpt lat="45.52598" lon="5.94003">
        <ele>569.3</ele>
        <time>2014-04-04T11:43:04Z</time>
      </trkpt>
      <trkpt lat="45.52598" lon="5.94001">
        <ele>569.5</ele>
        <time>2014-04-04T11:43:06Z</time>
      </trkpt>
      <trkpt lat="45.52597" lon="5.93998">
        <ele>569.9</ele>
        <time>2014-04-04T11:43:08Z</time>
      </trkpt>
      <trkpt lat="45.52595" lon="5.93995">
        <ele>570.1</ele>
        <time>2014-04-04T11:43:10Z</time>
      </trkpt>
      <trkpt lat="45.52593" lon="5.93992">
        <ele>570.2</ele>
        <time>2014-04-04T11:43:12Z</time>
      </trkpt>
      <trkpt lat="45.52593" lon="5.93991">
        <ele>570.2</ele>
        <time>2014-04-04T11:43:14Z</time>
      </trkpt>
      <trkpt lat="45.52591" lon="5.93988">
        <ele>570.4</ele>
        <time>2014-04-04T11:43:16Z</time>
      </trkpt>
      <trkpt lat="45.5259" lon="5.93982">
        <ele>571.5</ele>
        <time>2014-04-04T11:43:18Z</time>
      </trkpt>
      <trkpt lat="45.5259" lon="5.93977">
        <ele>572.3</ele>
        <time>2014-04-04T11:43:20Z</time>
      </trkpt>
      <trkpt lat="45.52589" lon="5.93976">
        <ele>572.5</ele>
        <time>2014-04-04T11:43:22Z</time>
      </trkpt>
      <trkpt lat="45.52588" lon="5.93972">
        <ele>573.1</ele>
        <time>2014-04-04T11:43:24Z</time>
      </trkpt>
      <trkpt lat="45.52588" lon="5.93964">
        <ele>574.5</ele>
        <time>2014-04-04T11:43:26Z</time>
      </trkpt>
      <trkpt lat="45.52588" lon="5.93961">
        <ele>575</ele>
        <time>2014-04-04T11:43:28Z</time>
      </trkpt>
      <trkpt lat="45.52588" lon="5.93955">
        <ele>576.3</ele>
        <time>2014-04-04T11:43:30Z</time>
      </trkpt>
      <trkpt lat="45.52588" lon="5.93952">
        <ele>576.9</ele>
        <time>2014-04-04T11:43:32Z</time>
      </trkpt>
      <trkpt lat="45.52588" lon="5.93948">
        <ele>577.7</ele>
        <time>2014-04-04T11:43:34Z</time>
      </trkpt>
      <trkpt lat="45.52587" lon="5.93947">
        <ele>577.6</ele>
        <time>2014-04-04T11:43:36Z</time>
      </trkpt>
      <trkpt lat="45.52586" lon="5.93945">
        <ele>577.7</ele>
        <time>2014-04-04T11:43:38Z</time>
      </trkpt>
      <trkpt lat="45.52584" lon="5.93941">
        <ele>578.2</ele>
        <time>2014-04-04T11:43:40Z</time>
      </trkpt>
      <trkpt lat="45.52582" lon="5.93937">
        <ele>578.9</ele>
        <time>2014-04-04T11:43:42Z</time>
      </trkpt>
      <trkpt lat="45.52582" lon="5.93935">
        <ele>579.1</ele>
        <time>2014-04-04T11:43:44Z</time>
      </trkpt>
      <trkpt lat="45.5258" lon="5.93933">
        <ele>579.6</ele>
        <time>2014-04-04T11:43:46Z</time>
      </trkpt>
      <trkpt lat="45.52578" lon="5.93928">
        <ele>580.7</ele>
        <time>2014-04-04T11:43:48Z</time>
      </trkpt>
      <trkpt lat="45.52577" lon="5.93927">
        <ele>581</ele>
        <time>2014-04-04T11:43:50Z</time>
      </trkpt>
      <trkpt lat="45.52577" lon="5.93927">
        <ele>581.1</ele>
        <time>2014-04-04T11:43:52Z</time>
      </trkpt>
      <trkpt lat="45.52577" lon="5.93925">
        <ele>581.7</ele>
        <time>2014-04-04T11:43:54Z</time>
      </trkpt>
      <trkpt lat="45.52577" lon="5.93923">
        <ele>582.3</ele>
        <time>2014-04-04T11:43:56Z</time>
      </trkpt>
      <trkpt lat="45.52576" lon="5.93922">
        <ele>582.5</ele>
        <time>2014-04-04T11:43:58Z</time>
      </trkpt>
      <trkpt lat="45.52576" lon="5.93922">
        <ele>582.6</ele>
        <time>2014-04-04T11:44:00Z</time>
      </trkpt>
      <trkpt lat="45.52575" lon="5.93921">
        <ele>582.9</ele>
        <time>2014-04-04T11:44:02Z</time>
      </trkpt>
      <trkpt lat="45.52575" lon="5.93919">
        <ele>583.7</ele>
        <time>2014-04-04T11:44:04Z</time>
      </trkpt>
      <trkpt lat="45.52574" lon="5.93918">
        <ele>583.9</ele>
        <time>2014-04-04T11:44:06Z</time>
      </trkpt>
      <trkpt lat="45.52574" lon="5.93917">
        <ele>584.4</ele>
        <time>2014-04-04T11:44:08Z</time>
      </trkpt>
      <trkpt lat="45.52573" lon="5.93915">
        <ele>584.9</ele>
        <time>2014-04-04T11:44:10Z</time>
      </trkpt>
      <trkpt lat="45.52572" lon="5.93912">
        <ele>585.5</ele>
        <time>2014-04-04T11:44:12Z</time>
      </trkpt>
      <trkpt lat="45.52572" lon="5.93912">
        <ele>585.7</ele>
        <time>2014-04-04T11:44:14Z</time>
      </trkpt>
      <trkpt lat="45.52571" lon="5.9391">
        <ele>586</ele>
        <time>2014-04-04T11:44:16Z</time>
      </trkpt>
      <trkpt lat="45.5257" lon="5.93909">
        <ele>586.3</ele>
        <time>2014-04-04T11:44:18Z</time>
      </trkpt>
      <trkpt lat="45.52569" lon="5.93908">
        <ele>586.5</ele>
        <time>2014-04-04T11:44:20Z</time>
      </trkpt>
      <trkpt lat="45.52569" lon="5.93908">
        <ele>586.7</ele>
        <time>2014-04-04T11:44:22Z</time>
      </trkpt>
      <trkpt lat="45.52568" lon="5.93906">
        <ele>587.2</ele>
        <time>2014-04-04T11:44:24Z</time>
      </trkpt>
      <trkpt lat="45.52568" lon="5.93903">
        <ele>588.1</ele>
        <time>2014-04-04T11:44:26Z</time>
      </trkpt>
      <trkpt lat="45.52568" lon="5.93902">
        <ele>588.6</ele>
        <time>2014-04-04T11:44:28Z</time>
      </trkpt>
      <trkpt lat="45.52567" lon="5.93899">
        <ele>589.4</ele>
        <time>2014-04-04T11:44:30Z</time>
      </trkpt>
      <trkpt lat="45.52566" lon="5.93897">
        <ele>590.1</ele>
        <time>2014-04-04T11:44:32Z</time>
      </trkpt>
      <trkpt lat="45.52566" lon="5.93895">
        <ele>590.8</ele>
        <time>2014-04-04T11:44:34Z</time>
      </trkpt>
      <trkpt lat="45.52566" lon="5.93894">
        <ele>591.1</ele>
        <time>2014-04-04T11:44:36Z</time>
      </trkpt>
      <trkpt lat="45.52566" lon="5.93892">
        <ele>591.5</ele>
        <time>2014-04-04T11:44:38Z</time>
      </trkpt>
      <trkpt lat="45.52566" lon="5.9389">
        <ele>592.3</ele>
        <time>2014-04-04T11:44:40Z</time>
      </trkpt>
      <trkpt lat="45.52566" lon="5.93889">
        <ele>592.6</ele>
        <time>2014-04-04T11:44:42Z</time>
      </trkpt>
      <trkpt lat="45.52566" lon="5.93888">
        <ele>592.8</ele>
        <time>2014-04-04T11:44:44Z</time>
      </trkpt>
      <trkpt lat="45.52565" lon="5.93887">
        <ele>593.1</ele>
        <time>2014-04-04T11:44:46Z</time>
      </trkpt>
      <trkpt lat="45.52564" lon="5.93884">
        <ele>593.6</ele>
        <time>2014-04-04T11:44:48Z</time>
      </trkpt>
      <trkpt lat="45.52564" lon="5.93883">
        <ele>593.7</ele>
        <time>2014-04-04T11:44:50Z</time>
      </trkpt>
      <trkpt lat="45.52562" lon="5.93881">
        <ele>594.2</ele>
        <time>2014-04-04T11:44:52Z</time>
      </trkpt>
      <trkpt lat="45.52562" lon="5.93879">
        <ele>594.5</ele>
        <time>2014-04-04T11:44:54Z</time>
      </trkpt>
      <trkpt lat="45.52561" lon="5.93876">
        <ele>595.1</ele>
        <time>2014-04-04T11:44:56Z</time>
      </trkpt>
      <trkpt lat="45.5256" lon="5.93875">
        <ele>595.2</ele>
        <time>2014-04-04T11:44:58Z</time>
      </trkpt>
      <trkpt lat="45.52559" lon="5.93874">
        <ele>595.3</ele>
        <time>2014-04-04T11:45:00Z</time>
      </trkpt>
      <trkpt lat="45.52556" lon="5.93872">
        <ele>595.5</ele>
        <time>2014-04-04T11:45:02Z</time>
      </trkpt>
      <trkpt lat="45.52554" lon="5.9387">
        <ele>595.5</ele>
        <time>2014-04-04T11:45:04Z</time>
      </trkpt>
      <trkpt lat="45.52553" lon="5.93868">
        <ele>595.6</ele>
        <time>2014-04-04T11:45:06Z</time>
      </trkpt>
      <trkpt lat="45.52551" lon="5.93866">
        <ele>595.7</ele>
        <time>2014-04-04T11:45:08Z</time>
      </trkpt>
      <trkpt lat="45.52548" lon="5.93863">
        <ele>596.1</ele>
        <time>2014-04-04T11:45:10Z</time>
      </trkpt>
      <trkpt lat="45.52547" lon="5.9386">
        <ele>596.5</ele>
        <time>2014-04-04T11:45:12Z</time>
      </trkpt>
      <trkpt lat="45.52546" lon="5.93859">
        <ele>596.7</ele>
        <time>2014-04-04T11:45:14Z</time>
      </trkpt>
      <trkpt lat="45.52544" lon="5.93856">
        <ele>597.1</ele>
        <time>2014-04-04T11:45:16Z</time>
      </trkpt>
      <trkpt lat="45.52541" lon="5.93853">
        <ele>597.7</ele>
        <time>2014-04-04T11:45:18Z</time>
      </trkpt>
      <trkpt lat="45.5254" lon="5.93852">
        <ele>597.9</ele>
        <time>2014-04-04T11:45:20Z</time>
      </trkpt>
      <trkpt lat="45.52538" lon="5.93851">
        <ele>598.2</ele>
        <time>2014-04-04T11:45:22Z</time>
      </trkpt>
      <trkpt lat="45.52536" lon="5.93849">
        <ele>598.7</ele>
        <time>2014-04-04T11:45:24Z</time>
      </trkpt>
      <trkpt lat="45.52533" lon="5.93845">
        <ele>600</ele>
        <time>2014-04-04T11:45:26Z</time>
      </trkpt>
      <trkpt lat="45.52533" lon="5.93843">
        <ele>600.5</ele>
        <time>2014-04-04T11:45:28Z</time>
      </trkpt>
      <trkpt lat="45.52532" lon="5.9384">
        <ele>601.4</ele>
        <time>2014-04-04T11:45:30Z</time>
      </trkpt>
      <trkpt lat="45.52529" lon="5.93837">
        <ele>602.8</ele>
        <time>2014-04-04T11:45:32Z</time>
      </trkpt>
      <trkpt lat="45.52527" lon="5.93835">
        <ele>603.4</ele>
        <time>2014-04-04T11:45:34Z</time>
      </trkpt>
      <trkpt lat="45.52527" lon="5.93833">
        <ele>603.7</ele>
        <time>2014-04-04T11:45:36Z</time>
      </trkpt>
      <trkpt lat="45.52525" lon="5.93831">
        <ele>603.6</ele>
        <time>2014-04-04T11:45:38Z</time>
      </trkpt>
      <trkpt lat="45.52523" lon="5.93825">
        <ele>603.6</ele>
        <time>2014-04-04T11:45:40Z</time>
      </trkpt>
      <trkpt lat="45.52521" lon="5.93822">
        <ele>603.5</ele>
        <time>2014-04-04T11:45:42Z</time>
      </trkpt>
      <trkpt lat="45.52521" lon="5.9382">
        <ele>603.7</ele>
        <time>2014-04-04T11:45:44Z</time>
      </trkpt>
      <trkpt lat="45.5252" lon="5.93815">
        <ele>604</ele>
        <time>2014-04-04T11:45:46Z</time>
      </trkpt>
      <trkpt lat="45.52518" lon="5.9381">
        <ele>604.2</ele>
        <time>2014-04-04T11:45:48Z</time>
      </trkpt>
      <trkpt lat="45.52517" lon="5.93809">
        <ele>604.2</ele>
        <time>2014-04-04T11:45:50Z</time>
      </trkpt>
      <trkpt lat="45.52516" lon="5.93806">
        <ele>604.3</ele>
        <time>2014-04-04T11:45:52Z</time>
      </trkpt>
      <trkpt lat="45.52515" lon="5.93802">
        <ele>604.5</ele>
        <time>2014-04-04T11:45:54Z</time>
      </trkpt>
      <trkpt lat="45.52514" lon="5.93796">
        <ele>605.1</ele>
        <time>2014-04-04T11:45:56Z</time>
      </trkpt>
      <trkpt lat="45.52515" lon="5.93794">
        <ele>605.4</ele>
        <time>2014-04-04T11:45:58Z</time>
      </trkpt>
      <trkpt lat="45.52514" lon="5.9379">
        <ele>605.8</ele>
        <time>2014-04-04T11:46:00Z</time>
      </trkpt>
      <trkpt lat="45.52514" lon="5.93785">
        <ele>606.3</ele>
        <time>2014-04-04T11:46:02Z</time>
      </trkpt>
      <trkpt lat="45.52514" lon="5.93781">
        <ele>606.8</ele>
        <time>2014-04-04T11:46:04Z</time>
      </trkpt>
      <trkpt lat="45.52514" lon="5.93779">
        <ele>606.9</ele>
        <time>2014-04-04T11:46:06Z</time>
      </trkpt>
      <trkpt lat="45.52513" lon="5.93776">
        <ele>607.5</ele>
        <time>2014-04-04T11:46:08Z</time>
      </trkpt>
      <trkpt lat="45.52513" lon="5.93771">
        <ele>608.7</ele>
        <time>2014-04-04T11:46:10Z</time>
      </trkpt>
      <trkpt lat="45.52513" lon="5.93767">
        <ele>609.6</ele>
        <time>2014-04-04T11:46:12Z</time>
      </trkpt>
      <trkpt lat="45.52513" lon="5.93766">
        <ele>610</ele>
        <time>2014-04-04T11:46:14Z</time>
      </trkpt>
      <trkpt lat="45.52513" lon="5.93762">
        <ele>610.9</ele>
        <time>2014-04-04T11:46:16Z</time>
      </trkpt>
      <trkpt lat="45.52513" lon="5.93757">
        <ele>612</ele>
        <time>2014-04-04T11:46:18Z</time>
      </trkpt>
      <trkpt lat="45.52513" lon="5.93756">
        <ele>612.3</ele>
        <time>2014-04-04T11:46:20Z</time>
      </trkpt>
      <trkpt lat="45.52511" lon="5.93755">
        <ele>612.6</ele>
        <time>2014-04-04T11:46:22Z</time>
      </trkpt>
      <trkpt lat="45.5251" lon="5.93751">
        <ele>613.5</ele>
        <time>2014-04-04T11:46:24Z</time>
      </trkpt>
      <trkpt lat="45.5251" lon="5.93747">
        <ele>614.6</ele>
        <time>2014-04-04T11:46:26Z</time>
      </trkpt>
      <trkpt lat="45.5251" lon="5.93744">
        <ele>615.3</ele>
        <time>2014-04-04T11:46:28Z</time>
      </trkpt>
      <trkpt lat="45.5251" lon="5.9374">
        <ele>616.4</ele>
        <time>2014-04-04T11:46:30Z</time>
      </trkpt>
      <trkpt lat="45.5251" lon="5.93734">
        <ele>617.9</ele>
        <time>2014-04-04T11:46:32Z</time>
      </trkpt>
      <trkpt lat="45.52511" lon="5.9373">
        <ele>619.1</ele>
        <time>2014-04-04T11:46:34Z</time>
      </trkpt>
      <trkpt lat="45.52512" lon="5.93727">
        <ele>619.7</ele>
        <time>2014-04-04T11:46:36Z</time>
      </trkpt>
      <trkpt lat="45.52514" lon="5.93724">
        <ele>620.6</ele>
        <time>2014-04-04T11:46:38Z</time>
      </trkpt>
      <trkpt lat="45.52515" lon="5.93719">
        <ele>621.8</ele>
        <time>2014-04-04T11:46:40Z</time>
      </trkpt>
      <trkpt lat="45.52514" lon="5.93718">
        <ele>622.1</ele>
        <time>2014-04-04T11:46:42Z</time>
      </trkpt>
      <trkpt lat="45.52512" lon="5.93718">
        <ele>622.1</ele>
        <time>2014-04-04T11:46:44Z</time>
      </trkpt>
      <trkpt lat="45.52511" lon="5.93717">
        <ele>622.4</ele>
        <time>2014-04-04T11:46:46Z</time>
      </trkpt>
      <trkpt lat="45.52509" lon="5.93715">
        <ele>622.7</ele>
        <time>2014-04-04T11:46:48Z</time>
      </trkpt>
      <trkpt lat="45.52508" lon="5.93715">
        <ele>622.8</ele>
        <time>2014-04-04T11:46:50Z</time>
      </trkpt>
      <trkpt lat="45.52507" lon="5.93714">
        <ele>622.9</ele>
        <time>2014-04-04T11:46:52Z</time>
      </trkpt>
      <trkpt lat="45.52508" lon="5.93715">
        <ele>622.8</ele>
        <time>2014-04-04T11:46:54Z</time>
      </trkpt>
      <trkpt lat="45.52508" lon="5.93715">
        <ele>622.7</ele>
        <time>2014-04-04T11:46:56Z</time>
      </trkpt>
      <trkpt lat="45.52508" lon="5.93715">
        <ele>622.7</ele>
        <time>2014-04-04T11:47:00Z</time>
      </trkpt>
      <trkpt lat="45.52507" lon="5.93715">
        <ele>622.7</ele>
        <time>2014-04-04T11:47:02Z</time>
      </trkpt>
      <trkpt lat="45.52507" lon="5.93715">
        <ele>622.8</ele>
        <time>2014-04-04T11:47:04Z</time>
      </trkpt>
      <trkpt lat="45.52508" lon="5.93714">
        <ele>623</ele>
        <time>2014-04-04T11:47:06Z</time>
      </trkpt>
      <trkpt lat="45.52508" lon="5.93712">
        <ele>623.4</ele>
        <time>2014-04-04T11:47:08Z</time>
      </trkpt>
      <trkpt lat="45.52507" lon="5.93711">
        <ele>623.7</ele>
        <time>2014-04-04T11:47:10Z</time>
      </trkpt>
      <trkpt lat="45.5251" lon="5.93712">
        <ele>623.5</ele>
        <time>2014-04-04T11:47:12Z</time>
      </trkpt>
      <trkpt lat="45.52513" lon="5.93713">
        <ele>623.2</ele>
        <time>2014-04-04T11:47:14Z</time>
      </trkpt>
      <trkpt lat="45.52516" lon="5.93715">
        <ele>622.8</ele>
        <time>2014-04-04T11:47:16Z</time>
      </trkpt>
      <trkpt lat="45.52519" lon="5.93718">
        <ele>622.1</ele>
        <time>2014-04-04T11:47:18Z</time>
      </trkpt>
      <trkpt lat="45.52519" lon="5.93719">
        <ele>621.9</ele>
        <time>2014-04-04T11:47:20Z</time>
      </trkpt>
      <trkpt lat="45.5252" lon="5.93719">
        <ele>621.9</ele>
        <time>2014-04-04T11:47:22Z</time>
      </trkpt>
      <trkpt lat="45.52521" lon="5.93719">
        <ele>621.9</ele>
        <time>2014-04-04T11:47:24Z</time>
      </trkpt>
      <trkpt lat="45.52521" lon="5.93721">
        <ele>621.3</ele>
        <time>2014-04-04T11:47:26Z</time>
      </trkpt>
      <trkpt lat="45.52521" lon="5.93721">
        <ele>621.2</ele>
        <time>2014-04-04T11:47:28Z</time>
      </trkpt>
      <trkpt lat="45.5252" lon="5.93722">
        <ele>621.1</ele>
        <time>2014-04-04T11:47:30Z</time>
      </trkpt>
      <trkpt lat="45.52519" lon="5.93723">
        <ele>620.7</ele>
        <time>2014-04-04T11:47:32Z</time>
      </trkpt>
      <trkpt lat="45.52518" lon="5.93725">
        <ele>620.5</ele>
        <time>2014-04-04T11:47:34Z</time>
      </trkpt>
      <trkpt lat="45.52518" lon="5.93725">
        <ele>620.3</ele>
        <time>2014-04-04T11:47:36Z</time>
      </trkpt>
      <trkpt lat="45.52518" lon="5.93726">
        <ele>620.2</ele>
        <time>2014-04-04T11:47:38Z</time>
      </trkpt>
      <trkpt lat="45.52514" lon="5.93723">
        <ele>620.9</ele>
        <time>2014-04-04T11:47:40Z</time>
      </trkpt>
      <trkpt lat="45.52512" lon="5.93721">
        <ele>621.3</ele>
        <time>2014-04-04T11:47:42Z</time>
      </trkpt>
      <trkpt lat="45.52509" lon="5.93719">
        <ele>621.7</ele>
        <time>2014-04-04T11:47:44Z</time>
      </trkpt>
      <trkpt lat="45.52505" lon="5.93718">
        <ele>622</ele>
        <time>2014-04-04T11:47:46Z</time>
      </trkpt>
      <trkpt lat="45.525" lon="5.93718">
        <ele>621.9</ele>
        <time>2014-04-04T11:47:48Z</time>
      </trkpt>
      <trkpt lat="45.52498" lon="5.93718">
        <ele>622</ele>
        <time>2014-04-04T11:47:50Z</time>
      </trkpt>
      <trkpt lat="45.52495" lon="5.93717">
        <ele>622.3</ele>
        <time>2014-04-04T11:47:52Z</time>
      </trkpt>
      <trkpt lat="45.52492" lon="5.93717">
        <ele>622.6</ele>
        <time>2014-04-04T11:47:54Z</time>
      </trkpt>
      <trkpt lat="45.52487" lon="5.93718">
        <ele>622.6</ele>
        <time>2014-04-04T11:47:56Z</time>
      </trkpt>
      <trkpt lat="45.52485" lon="5.93718">
        <ele>622.6</ele>
        <time>2014-04-04T11:47:58Z</time>
      </trkpt>
      <trkpt lat="45.52482" lon="5.93718">
        <ele>622.8</ele>
        <time>2014-04-04T11:48:00Z</time>
      </trkpt>
      <trkpt lat="45.52476" lon="5.93717">
        <ele>623.2</ele>
        <time>2014-04-04T11:48:02Z</time>
      </trkpt>
      <trkpt lat="45.52474" lon="5.93717">
        <ele>623.4</ele>
        <time>2014-04-04T11:48:04Z</time>
      </trkpt>
      <trkpt lat="45.52471" lon="5.93715">
        <ele>623.9</ele>
        <time>2014-04-04T11:48:06Z</time>
      </trkpt>
      <trkpt lat="45.52468" lon="5.93713">
        <ele>623.7</ele>
        <time>2014-04-04T11:48:08Z</time>
      </trkpt>
      <trkpt lat="45.52463" lon="5.93709">
        <ele>623.9</ele>
        <time>2014-04-04T11:48:10Z</time>
      </trkpt>
      <trkpt lat="45.52461" lon="5.93708">
        <ele>624.1</ele>
        <time>2014-04-04T11:48:12Z</time>
      </trkpt>
      <trkpt lat="45.52459" lon="5.93704">
        <ele>624.6</ele>
        <time>2014-04-04T11:48:14Z</time>
      </trkpt>
      <trkpt lat="45.52456" lon="5.937">
        <ele>625.3</ele>
        <time>2014-04-04T11:48:16Z</time>
      </trkpt>
      <trkpt lat="45.52453" lon="5.93693">
        <ele>626.9</ele>
        <time>2014-04-04T11:48:18Z</time>
      </trkpt>
      <trkpt lat="45.52452" lon="5.9369">
        <ele>627.3</ele>
        <time>2014-04-04T11:48:20Z</time>
      </trkpt>
      <trkpt lat="45.5245" lon="5.93688">
        <ele>627.7</ele>
        <time>2014-04-04T11:48:22Z</time>
      </trkpt>
      <trkpt lat="45.52445" lon="5.93678">
        <ele>629.3</ele>
        <time>2014-04-04T11:48:24Z</time>
      </trkpt>
      <trkpt lat="45.52442" lon="5.93674">
        <ele>630.2</ele>
        <time>2014-04-04T11:48:26Z</time>
      </trkpt>
      <trkpt lat="45.5244" lon="5.93672">
        <ele>630.7</ele>
        <time>2014-04-04T11:48:28Z</time>
      </trkpt>
      <trkpt lat="45.52436" lon="5.93669">
        <ele>631.5</ele>
        <time>2014-04-04T11:48:30Z</time>
      </trkpt>
      <trkpt lat="45.52431" lon="5.93664">
        <ele>632.5</ele>
        <time>2014-04-04T11:48:32Z</time>
      </trkpt>
      <trkpt lat="45.52429" lon="5.93663">
        <ele>632.8</ele>
        <time>2014-04-04T11:48:34Z</time>
      </trkpt>
      <trkpt lat="45.52426" lon="5.93659">
        <ele>633.5</ele>
        <time>2014-04-04T11:48:36Z</time>
      </trkpt>
      <trkpt lat="45.52423" lon="5.93657">
        <ele>634</ele>
        <time>2014-04-04T11:48:38Z</time>
      </trkpt>
      <trkpt lat="45.52418" lon="5.93654">
        <ele>634.4</ele>
        <time>2014-04-04T11:48:40Z</time>
      </trkpt>
      <trkpt lat="45.52416" lon="5.93653">
        <ele>633.9</ele>
        <time>2014-04-04T11:48:42Z</time>
      </trkpt>
      <trkpt lat="45.52412" lon="5.93652">
        <ele>632.4</ele>
        <time>2014-04-04T11:48:44Z</time>
      </trkpt>
      <trkpt lat="45.52408" lon="5.9365">
        <ele>630.9</ele>
        <time>2014-04-04T11:48:46Z</time>
      </trkpt>
      <trkpt lat="45.52406" lon="5.93648">
        <ele>630.3</ele>
        <time>2014-04-04T11:48:48Z</time>
      </trkpt>
      <trkpt lat="45.52404" lon="5.93646">
        <ele>630.2</ele>
        <time>2014-04-04T11:48:50Z</time>
      </trkpt>
      <trkpt lat="45.52401" lon="5.93644">
        <ele>629.4</ele>
        <time>2014-04-04T11:48:52Z</time>
      </trkpt>
      <trkpt lat="45.52397" lon="5.93639">
        <ele>629.1</ele>
        <time>2014-04-04T11:48:54Z</time>
      </trkpt>
      <trkpt lat="45.52396" lon="5.93634">
        <ele>630.6</ele>
        <time>2014-04-04T11:48:56Z</time>
      </trkpt>
      <trkpt lat="45.52396" lon="5.93632">
        <ele>631.3</ele>
        <time>2014-04-04T11:48:58Z</time>
      </trkpt>
      <trkpt lat="45.52395" lon="5.93629">
        <ele>632.4</ele>
        <time>2014-04-04T11:49:00Z</time>
      </trkpt>
      <trkpt lat="45.52394" lon="5.93623">
        <ele>634.4</ele>
        <time>2014-04-04T11:49:02Z</time>
      </trkpt>
      <trkpt lat="45.52394" lon="5.93621">
        <ele>635</ele>
        <time>2014-04-04T11:49:04Z</time>
      </trkpt>
      <trkpt lat="45.52393" lon="5.93616">
        <ele>636.5</ele>
        <time>2014-04-04T11:49:06Z</time>
      </trkpt>
      <trkpt lat="45.52391" lon="5.93613">
        <ele>637.6</ele>
        <time>2014-04-04T11:49:08Z</time>
      </trkpt>
      <trkpt lat="45.5239" lon="5.9361">
        <ele>638.5</ele>
        <time>2014-04-04T11:49:10Z</time>
      </trkpt>
      <trkpt lat="45.52389" lon="5.93608">
        <ele>638.7</ele>
        <time>2014-04-04T11:49:12Z</time>
      </trkpt>
      <trkpt lat="45.52388" lon="5.93603">
        <ele>640</ele>
        <time>2014-04-04T11:49:14Z</time>
      </trkpt>
      <trkpt lat="45.52386" lon="5.93599">
        <ele>641.2</ele>
        <time>2014-04-04T11:49:16Z</time>
      </trkpt>
      <trkpt lat="45.52385" lon="5.93597">
        <ele>642.1</ele>
        <time>2014-04-04T11:49:18Z</time>
      </trkpt>
      <trkpt lat="45.52384" lon="5.93595">
        <ele>642.5</ele>
        <time>2014-04-04T11:49:20Z</time>
      </trkpt>
      <trkpt lat="45.52383" lon="5.93591">
        <ele>643.6</ele>
        <time>2014-04-04T11:49:22Z</time>
      </trkpt>
      <trkpt lat="45.52381" lon="5.93587">
        <ele>645.2</ele>
        <time>2014-04-04T11:49:24Z</time>
      </trkpt>
      <trkpt lat="45.52379" lon="5.93584">
        <ele>646.2</ele>
        <time>2014-04-04T11:49:26Z</time>
      </trkpt>
      <trkpt lat="45.52379" lon="5.93583">
        <ele>646.7</ele>
        <time>2014-04-04T11:49:28Z</time>
      </trkpt>
      <trkpt lat="45.52376" lon="5.93581">
        <ele>647.6</ele>
        <time>2014-04-04T11:49:30Z</time>
      </trkpt>
      <trkpt lat="45.52374" lon="5.9358">
        <ele>648.4</ele>
        <time>2014-04-04T11:49:32Z</time>
      </trkpt>
      <trkpt lat="45.52374" lon="5.93578">
        <ele>648.9</ele>
        <time>2014-04-04T11:49:36Z</time>
      </trkpt>
      <trkpt lat="45.52373" lon="5.93576">
        <ele>649.7</ele>
        <time>2014-04-04T11:49:38Z</time>
      </trkpt>
      <trkpt lat="45.52372" lon="5.93574">
        <ele>650.3</ele>
        <time>2014-04-04T11:49:40Z</time>
      </trkpt>
      <trkpt lat="45.52372" lon="5.93574">
        <ele>650.5</ele>
        <time>2014-04-04T11:49:42Z</time>
      </trkpt>
      <trkpt lat="45.5237" lon="5.93573">
        <ele>650.9</ele>
        <time>2014-04-04T11:49:44Z</time>
      </trkpt>
      <trkpt lat="45.52368" lon="5.93572">
        <ele>651.4</ele>
        <time>2014-04-04T11:49:46Z</time>
      </trkpt>
      <trkpt lat="45.52367" lon="5.93571">
        <ele>651.9</ele>
        <time>2014-04-04T11:49:48Z</time>
      </trkpt>
      <trkpt lat="45.52367" lon="5.9357">
        <ele>652.2</ele>
        <time>2014-04-04T11:49:50Z</time>
      </trkpt>
      <trkpt lat="45.52365" lon="5.93569">
        <ele>652.8</ele>
        <time>2014-04-04T11:49:52Z</time>
      </trkpt>
      <trkpt lat="45.52363" lon="5.93567">
        <ele>653.5</ele>
        <time>2014-04-04T11:49:54Z</time>
      </trkpt>
      <trkpt lat="45.52362" lon="5.93567">
        <ele>653.7</ele>
        <time>2014-04-04T11:49:56Z</time>
      </trkpt>
      <trkpt lat="45.52361" lon="5.93566">
        <ele>653.9</ele>
        <time>2014-04-04T11:49:58Z</time>
      </trkpt>
      <trkpt lat="45.52359" lon="5.93565">
        <ele>654.2</ele>
        <time>2014-04-04T11:50:00Z</time>
      </trkpt>
      <trkpt lat="45.52357" lon="5.93564">
        <ele>654.4</ele>
        <time>2014-04-04T11:50:02Z</time>
      </trkpt>
      <trkpt lat="45.52356" lon="5.93564">
        <ele>654.5</ele>
        <time>2014-04-04T11:50:04Z</time>
      </trkpt>
      <trkpt lat="45.52354" lon="5.93563">
        <ele>654.7</ele>
        <time>2014-04-04T11:50:06Z</time>
      </trkpt>
      <trkpt lat="45.52352" lon="5.93562">
        <ele>654.8</ele>
        <time>2014-04-04T11:50:08Z</time>
      </trkpt>
      <trkpt lat="45.5235" lon="5.93561">
        <ele>655.3</ele>
        <time>2014-04-04T11:50:10Z</time>
      </trkpt>
      <trkpt lat="45.5235" lon="5.9356">
        <ele>655.6</ele>
        <time>2014-04-04T11:50:12Z</time>
      </trkpt>
      <trkpt lat="45.52349" lon="5.93558">
        <ele>656.3</ele>
        <time>2014-04-04T11:50:14Z</time>
      </trkpt>
      <trkpt lat="45.52346" lon="5.93556">
        <ele>656.9</ele>
        <time>2014-04-04T11:50:16Z</time>
      </trkpt>
      <trkpt lat="45.52345" lon="5.93555">
        <ele>657.1</ele>
        <time>2014-04-04T11:50:18Z</time>
      </trkpt>
      <trkpt lat="45.52344" lon="5.93555">
        <ele>657.1</ele>
        <time>2014-04-04T11:50:20Z</time>
      </trkpt>
      <trkpt lat="45.52343" lon="5.93554">
        <ele>657.4</ele>
        <time>2014-04-04T11:50:22Z</time>
      </trkpt>
      <trkpt lat="45.52341" lon="5.93551">
        <ele>658.2</ele>
        <time>2014-04-04T11:50:24Z</time>
      </trkpt>
      <trkpt lat="45.52341" lon="5.9355">
        <ele>658.6</ele>
        <time>2014-04-04T11:50:26Z</time>
      </trkpt>
      <trkpt lat="45.52341" lon="5.93548">
        <ele>659.2</ele>
        <time>2014-04-04T11:50:28Z</time>
      </trkpt>
      <trkpt lat="45.5234" lon="5.93546">
        <ele>659.7</ele>
        <time>2014-04-04T11:50:30Z</time>
      </trkpt>
      <trkpt lat="45.52338" lon="5.93542">
        <ele>660.6</ele>
        <time>2014-04-04T11:50:32Z</time>
      </trkpt>
      <trkpt lat="45.52338" lon="5.93541">
        <ele>660.8</ele>
        <time>2014-04-04T11:50:34Z</time>
      </trkpt>
      <trkpt lat="45.52337" lon="5.93539">
        <ele>661.2</ele>
        <time>2014-04-04T11:50:36Z</time>
      </trkpt>
      <trkpt lat="45.52335" lon="5.93536">
        <ele>662</ele>
        <time>2014-04-04T11:50:38Z</time>
      </trkpt>
      <trkpt lat="45.52332" lon="5.93534">
        <ele>662.2</ele>
        <time>2014-04-04T11:50:40Z</time>
      </trkpt>
      <trkpt lat="45.52331" lon="5.93533">
        <ele>662.4</ele>
        <time>2014-04-04T11:50:42Z</time>
      </trkpt>
      <trkpt lat="45.52329" lon="5.9353">
        <ele>662.8</ele>
        <time>2014-04-04T11:50:44Z</time>
      </trkpt>
      <trkpt lat="45.52327" lon="5.93526">
        <ele>663.3</ele>
        <time>2014-04-04T11:50:46Z</time>
      </trkpt>
      <trkpt lat="45.52325" lon="5.93524">
        <ele>663.4</ele>
        <time>2014-04-04T11:50:48Z</time>
      </trkpt>
      <trkpt lat="45.52324" lon="5.93523">
        <ele>663.7</ele>
        <time>2014-04-04T11:50:50Z</time>
      </trkpt>
      <trkpt lat="45.52322" lon="5.93521">
        <ele>663.8</ele>
        <time>2014-04-04T11:50:52Z</time>
      </trkpt>
      <trkpt lat="45.5232" lon="5.93516">
        <ele>664.7</ele>
        <time>2014-04-04T11:50:54Z</time>
      </trkpt>
      <trkpt lat="45.52318" lon="5.93516">
        <ele>664.6</ele>
        <time>2014-04-04T11:50:56Z</time>
      </trkpt>
      <trkpt lat="45.52316" lon="5.93514">
        <ele>664.5</ele>
        <time>2014-04-04T11:50:58Z</time>
      </trkpt>
      <trkpt lat="45.52313" lon="5.93509">
        <ele>665.4</ele>
        <time>2014-04-04T11:51:00Z</time>
      </trkpt>
      <trkpt lat="45.52313" lon="5.93504">
        <ele>666.4</ele>
        <time>2014-04-04T11:51:02Z</time>
      </trkpt>
      <trkpt lat="45.52312" lon="5.93503">
        <ele>666.8</ele>
        <time>2014-04-04T11:51:04Z</time>
      </trkpt>
      <trkpt lat="45.52311" lon="5.93499">
        <ele>667.5</ele>
        <time>2014-04-04T11:51:06Z</time>
      </trkpt>
      <trkpt lat="45.5231" lon="5.93495">
        <ele>668.1</ele>
        <time>2014-04-04T11:51:08Z</time>
      </trkpt>
      <trkpt lat="45.52309" lon="5.9349">
        <ele>669.1</ele>
        <time>2014-04-04T11:51:10Z</time>
      </trkpt>
      <trkpt lat="45.52309" lon="5.93488">
        <ele>669.3</ele>
        <time>2014-04-04T11:51:12Z</time>
      </trkpt>
      <trkpt lat="45.52307" lon="5.93486">
        <ele>669.5</ele>
        <time>2014-04-04T11:51:14Z</time>
      </trkpt>
      <trkpt lat="45.52305" lon="5.93481">
        <ele>669.9</ele>
        <time>2014-04-04T11:51:16Z</time>
      </trkpt>
      <trkpt lat="45.52304" lon="5.93477">
        <ele>670.6</ele>
        <time>2014-04-04T11:51:18Z</time>
      </trkpt>
      <trkpt lat="45.52303" lon="5.93475">
        <ele>671</ele>
        <time>2014-04-04T11:51:20Z</time>
      </trkpt>
      <trkpt lat="45.52302" lon="5.93472">
        <ele>671.5</ele>
        <time>2014-04-04T11:51:22Z</time>
      </trkpt>
      <trkpt lat="45.52298" lon="5.93469">
        <ele>671.8</ele>
        <time>2014-04-04T11:51:24Z</time>
      </trkpt>
      <trkpt lat="45.52297" lon="5.93468">
        <ele>671.9</ele>
        <time>2014-04-04T11:51:26Z</time>
      </trkpt>
      <trkpt lat="45.52295" lon="5.93466">
        <ele>672.1</ele>
        <time>2014-04-04T11:51:28Z</time>
      </trkpt>
      <trkpt lat="45.52293" lon="5.93464">
        <ele>672.5</ele>
        <time>2014-04-04T11:51:30Z</time>
      </trkpt>
      <trkpt lat="45.52291" lon="5.93462">
        <ele>672.5</ele>
        <time>2014-04-04T11:51:32Z</time>
      </trkpt>
      <trkpt lat="45.5229" lon="5.93462">
        <ele>672.5</ele>
        <time>2014-04-04T11:51:34Z</time>
      </trkpt>
      <trkpt lat="45.52288" lon="5.93462">
        <ele>672.1</ele>
        <time>2014-04-04T11:51:36Z</time>
      </trkpt>
      <trkpt lat="45.52284" lon="5.93461">
        <ele>672</ele>
        <time>2014-04-04T11:51:38Z</time>
      </trkpt>
      <trkpt lat="45.52282" lon="5.93461">
        <ele>671.6</ele>
        <time>2014-04-04T11:51:40Z</time>
      </trkpt>
      <trkpt lat="45.5228" lon="5.93462">
        <ele>671.4</ele>
        <time>2014-04-04T11:51:42Z</time>
      </trkpt>
      <trkpt lat="45.52277" lon="5.93462">
        <ele>671.1</ele>
        <time>2014-04-04T11:51:44Z</time>
      </trkpt>
      <trkpt lat="45.52275" lon="5.93461">
        <ele>671.4</ele>
        <time>2014-04-04T11:51:46Z</time>
      </trkpt>
      <trkpt lat="45.52274" lon="5.9346">
        <ele>671.6</ele>
        <time>2014-04-04T11:51:48Z</time>
      </trkpt>
      <trkpt lat="45.52273" lon="5.93459">
        <ele>671.7</ele>
        <time>2014-04-04T11:51:50Z</time>
      </trkpt>
      <trkpt lat="45.52271" lon="5.93459">
        <ele>671.8</ele>
        <time>2014-04-04T11:51:52Z</time>
      </trkpt>
      <trkpt lat="45.52267" lon="5.93458">
        <ele>672</ele>
        <time>2014-04-04T11:51:54Z</time>
      </trkpt>
      <trkpt lat="45.52266" lon="5.93458">
        <ele>672</ele>
        <time>2014-04-04T11:51:56Z</time>
      </trkpt>
      <trkpt lat="45.52264" lon="5.93458">
        <ele>672.2</ele>
        <time>2014-04-04T11:51:58Z</time>
      </trkpt>
      <trkpt lat="45.52261" lon="5.93457">
        <ele>672.4</ele>
        <time>2014-04-04T11:52:00Z</time>
      </trkpt>
      <trkpt lat="45.52258" lon="5.93455">
        <ele>673</ele>
        <time>2014-04-04T11:52:02Z</time>
      </trkpt>
      <trkpt lat="45.52257" lon="5.93456">
        <ele>672.9</ele>
        <time>2014-04-04T11:52:04Z</time>
      </trkpt>
      <trkpt lat="45.52254" lon="5.93455">
        <ele>673.2</ele>
        <time>2014-04-04T11:52:06Z</time>
      </trkpt>
      <trkpt lat="45.5225" lon="5.93454">
        <ele>673.6</ele>
        <time>2014-04-04T11:52:08Z</time>
      </trkpt>
      <trkpt lat="45.52247" lon="5.93453">
        <ele>674</ele>
        <time>2014-04-04T11:52:10Z</time>
      </trkpt>
      <trkpt lat="45.52246" lon="5.93453">
        <ele>674.2</ele>
        <time>2014-04-04T11:52:12Z</time>
      </trkpt>
      <trkpt lat="45.52243" lon="5.93453">
        <ele>674.6</ele>
        <time>2014-04-04T11:52:14Z</time>
      </trkpt>
      <trkpt lat="45.52239" lon="5.93452">
        <ele>675.3</ele>
        <time>2014-04-04T11:52:16Z</time>
      </trkpt>
      <trkpt lat="45.52237" lon="5.93451">
        <ele>675.7</ele>
        <time>2014-04-04T11:52:18Z</time>
      </trkpt>
      <trkpt lat="45.52235" lon="5.9345">
        <ele>676.3</ele>
        <time>2014-04-04T11:52:20Z</time>
      </trkpt>
      <trkpt lat="45.52231" lon="5.93448">
        <ele>677.3</ele>
        <time>2014-04-04T11:52:22Z</time>
      </trkpt>
      <trkpt lat="45.52229" lon="5.93447">
        <ele>677.6</ele>
        <time>2014-04-04T11:52:24Z</time>
      </trkpt>
      <trkpt lat="45.52228" lon="5.93447">
        <ele>677.6</ele>
        <time>2014-04-04T11:52:26Z</time>
      </trkpt>
      <trkpt lat="45.52227" lon="5.93448">
        <ele>677.4</ele>
        <time>2014-04-04T11:52:28Z</time>
      </trkpt>
      <trkpt lat="45.52227" lon="5.93448">
        <ele>677.6</ele>
        <time>2014-04-04T11:52:30Z</time>
      </trkpt>
      <trkpt lat="45.52227" lon="5.93448">
        <ele>677.6</ele>
        <time>2014-04-04T11:52:32Z</time>
      </trkpt>
      <trkpt lat="45.52227" lon="5.93447">
        <ele>677.7</ele>
        <time>2014-04-04T11:52:34Z</time>
      </trkpt>
      <trkpt lat="45.52228" lon="5.93447">
        <ele>677.9</ele>
        <time>2014-04-04T11:52:36Z</time>
      </trkpt>
      <trkpt lat="45.52228" lon="5.93447">
        <ele>677.7</ele>
        <time>2014-04-04T11:52:38Z</time>
      </trkpt>
      <trkpt lat="45.52226" lon="5.93448">
        <ele>677.6</ele>
        <time>2014-04-04T11:52:40Z</time>
      </trkpt>
      <trkpt lat="45.52225" lon="5.93448">
        <ele>677.8</ele>
        <time>2014-04-04T11:52:42Z</time>
      </trkpt>
      <trkpt lat="45.52222" lon="5.93446">
        <ele>678.6</ele>
        <time>2014-04-04T11:52:44Z</time>
      </trkpt>
      <trkpt lat="45.52216" lon="5.93445">
        <ele>679.8</ele>
        <time>2014-04-04T11:52:46Z</time>
      </trkpt>
      <trkpt lat="45.52215" lon="5.93444">
        <ele>680.3</ele>
        <time>2014-04-04T11:52:48Z</time>
      </trkpt>
      <trkpt lat="45.52213" lon="5.93443">
        <ele>681</ele>
        <time>2014-04-04T11:52:50Z</time>
      </trkpt>
      <trkpt lat="45.5221" lon="5.93442">
        <ele>681.5</ele>
        <time>2014-04-04T11:52:52Z</time>
      </trkpt>
      <trkpt lat="45.52207" lon="5.93441">
        <ele>682.3</ele>
        <time>2014-04-04T11:52:54Z</time>
      </trkpt>
      <trkpt lat="45.52205" lon="5.93441">
        <ele>682.7</ele>
        <time>2014-04-04T11:52:56Z</time>
      </trkpt>
      <trkpt lat="45.52203" lon="5.93438">
        <ele>683.8</ele>
        <time>2014-04-04T11:52:58Z</time>
      </trkpt>
      <trkpt lat="45.52199" lon="5.93436">
        <ele>684.9</ele>
        <time>2014-04-04T11:53:00Z</time>
      </trkpt>
      <trkpt lat="45.52196" lon="5.93436">
        <ele>685.4</ele>
        <time>2014-04-04T11:53:02Z</time>
      </trkpt>
      <trkpt lat="45.52195" lon="5.93435">
        <ele>685.6</ele>
        <time>2014-04-04T11:53:04Z</time>
      </trkpt>
      <trkpt lat="45.52192" lon="5.93433">
        <ele>686.5</ele>
        <time>2014-04-04T11:53:06Z</time>
      </trkpt>
      <trkpt lat="45.52191" lon="5.93433">
        <ele>686.7</ele>
        <time>2014-04-04T11:53:08Z</time>
      </trkpt>
      <trkpt lat="45.5219" lon="5.93434">
        <ele>686.6</ele>
        <time>2014-04-04T11:53:10Z</time>
      </trkpt>
      <trkpt lat="45.52188" lon="5.93436">
        <ele>686.3</ele>
        <time>2014-04-04T11:53:12Z</time>
      </trkpt>
      <trkpt lat="45.52184" lon="5.93437">
        <ele>686.6</ele>
        <time>2014-04-04T11:53:14Z</time>
      </trkpt>
      <trkpt lat="45.5218" lon="5.93437">
        <ele>687</ele>
        <time>2014-04-04T11:53:16Z</time>
      </trkpt>
      <trkpt lat="45.52178" lon="5.93437">
        <ele>687.2</ele>
        <time>2014-04-04T11:53:18Z</time>
      </trkpt>
      <trkpt lat="45.52175" lon="5.93436">
        <ele>687.9</ele>
        <time>2014-04-04T11:53:20Z</time>
      </trkpt>
      <trkpt lat="45.5217" lon="5.93434">
        <ele>689.4</ele>
        <time>2014-04-04T11:53:22Z</time>
      </trkpt>
      <trkpt lat="45.52168" lon="5.93432">
        <ele>690.3</ele>
        <time>2014-04-04T11:53:24Z</time>
      </trkpt>
      <trkpt lat="45.52167" lon="5.93432">
        <ele>690.6</ele>
        <time>2014-04-04T11:53:26Z</time>
      </trkpt>
      <trkpt lat="45.52165" lon="5.9343">
        <ele>691.2</ele>
        <time>2014-04-04T11:53:28Z</time>
      </trkpt>
      <trkpt lat="45.52162" lon="5.93428">
        <ele>691.7</ele>
        <time>2014-04-04T11:53:30Z</time>
      </trkpt>
      <trkpt lat="45.52161" lon="5.93428">
        <ele>691.7</ele>
        <time>2014-04-04T11:53:32Z</time>
      </trkpt>
      <trkpt lat="45.52159" lon="5.93427">
        <ele>692.3</ele>
        <time>2014-04-04T11:53:34Z</time>
      </trkpt>
      <trkpt lat="45.52158" lon="5.93427">
        <ele>692.2</ele>
        <time>2014-04-04T11:53:36Z</time>
      </trkpt>
      <trkpt lat="45.52155" lon="5.93426">
        <ele>692.4</ele>
        <time>2014-04-04T11:53:38Z</time>
      </trkpt>
      <trkpt lat="45.52154" lon="5.93425">
        <ele>692.7</ele>
        <time>2014-04-04T11:53:40Z</time>
      </trkpt>
      <trkpt lat="45.52153" lon="5.93423">
        <ele>693.4</ele>
        <time>2014-04-04T11:53:42Z</time>
      </trkpt>
      <trkpt lat="45.52151" lon="5.9342">
        <ele>694.6</ele>
        <time>2014-04-04T11:53:44Z</time>
      </trkpt>
      <trkpt lat="45.52149" lon="5.93418">
        <ele>695.5</ele>
        <time>2014-04-04T11:53:46Z</time>
      </trkpt>
      <trkpt lat="45.52148" lon="5.93417">
        <ele>695.8</ele>
        <time>2014-04-04T11:53:48Z</time>
      </trkpt>
      <trkpt lat="45.52145" lon="5.93416">
        <ele>696.2</ele>
        <time>2014-04-04T11:53:50Z</time>
      </trkpt>
      <trkpt lat="45.52142" lon="5.93415">
        <ele>696.7</ele>
        <time>2014-04-04T11:53:52Z</time>
      </trkpt>
      <trkpt lat="45.5214" lon="5.93414">
        <ele>696.9</ele>
        <time>2014-04-04T11:53:54Z</time>
      </trkpt>
      <trkpt lat="45.52138" lon="5.93413">
        <ele>697.3</ele>
        <time>2014-04-04T11:53:56Z</time>
      </trkpt>
      <trkpt lat="45.52136" lon="5.93411">
        <ele>698.5</ele>
        <time>2014-04-04T11:53:58Z</time>
      </trkpt>
      <trkpt lat="45.52133" lon="5.93409">
        <ele>700.1</ele>
        <time>2014-04-04T11:54:00Z</time>
      </trkpt>
      <trkpt lat="45.5213" lon="5.93408">
        <ele>700.9</ele>
        <time>2014-04-04T11:54:02Z</time>
      </trkpt>
      <trkpt lat="45.52129" lon="5.93407">
        <ele>701.3</ele>
        <time>2014-04-04T11:54:04Z</time>
      </trkpt>
      <trkpt lat="45.52126" lon="5.93406">
        <ele>702.3</ele>
        <time>2014-04-04T11:54:06Z</time>
      </trkpt>
      <trkpt lat="45.52122" lon="5.93403">
        <ele>703.7</ele>
        <time>2014-04-04T11:54:08Z</time>
      </trkpt>
      <trkpt lat="45.52121" lon="5.93402">
        <ele>704.2</ele>
        <time>2014-04-04T11:54:10Z</time>
      </trkpt>
      <trkpt lat="45.52119" lon="5.934">
        <ele>705</ele>
        <time>2014-04-04T11:54:12Z</time>
      </trkpt>
      <trkpt lat="45.52115" lon="5.93397">
        <ele>706.1</ele>
        <time>2014-04-04T11:54:14Z</time>
      </trkpt>
      <trkpt lat="45.52113" lon="5.93396">
        <ele>706.7</ele>
        <time>2014-04-04T11:54:16Z</time>
      </trkpt>
      <trkpt lat="45.52113" lon="5.93396">
        <ele>706.8</ele>
        <time>2014-04-04T11:54:18Z</time>
      </trkpt>
      <trkpt lat="45.52113" lon="5.93395">
        <ele>706.9</ele>
        <time>2014-04-04T11:54:20Z</time>
      </trkpt>
      <trkpt lat="45.52112" lon="5.93394">
        <ele>707.2</ele>
        <time>2014-04-04T11:54:22Z</time>
      </trkpt>
      <trkpt lat="45.5211" lon="5.93393">
        <ele>707.5</ele>
        <time>2014-04-04T11:54:24Z</time>
      </trkpt>
      <trkpt lat="45.5211" lon="5.93393">
        <ele>707.7</ele>
        <time>2014-04-04T11:54:26Z</time>
      </trkpt>
      <trkpt lat="45.52106" lon="5.93392">
        <ele>708.5</ele>
        <time>2014-04-04T11:54:28Z</time>
      </trkpt>
      <trkpt lat="45.52103" lon="5.93391">
        <ele>709.2</ele>
        <time>2014-04-04T11:54:30Z</time>
      </trkpt>
      <trkpt lat="45.52102" lon="5.9339">
        <ele>709.5</ele>
        <time>2014-04-04T11:54:32Z</time>
      </trkpt>
      <trkpt lat="45.52099" lon="5.93389">
        <ele>710.2</ele>
        <time>2014-04-04T11:54:34Z</time>
      </trkpt>
      <trkpt lat="45.52096" lon="5.93388">
        <ele>710.9</ele>
        <time>2014-04-04T11:54:36Z</time>
      </trkpt>
      <trkpt lat="45.52094" lon="5.93387">
        <ele>711.5</ele>
        <time>2014-04-04T11:54:38Z</time>
      </trkpt>
      <trkpt lat="45.52093" lon="5.93387">
        <ele>711.7</ele>
        <time>2014-04-04T11:54:40Z</time>
      </trkpt>
      <trkpt lat="45.52091" lon="5.93386">
        <ele>712.2</ele>
        <time>2014-04-04T11:54:42Z</time>
      </trkpt>
      <trkpt lat="45.52088" lon="5.93385">
        <ele>712.9</ele>
        <time>2014-04-04T11:54:44Z</time>
      </trkpt>
      <trkpt lat="45.52086" lon="5.93384">
        <ele>713.3</ele>
        <time>2014-04-04T11:54:46Z</time>
      </trkpt>
      <trkpt lat="45.52084" lon="5.93383">
        <ele>713.6</ele>
        <time>2014-04-04T11:54:48Z</time>
      </trkpt>
      <trkpt lat="45.52082" lon="5.93383">
        <ele>714.2</ele>
        <time>2014-04-04T11:54:50Z</time>
      </trkpt>
      <trkpt lat="45.52079" lon="5.93381">
        <ele>715</ele>
        <time>2014-04-04T11:54:52Z</time>
      </trkpt>
      <trkpt lat="45.52077" lon="5.93381">
        <ele>715.5</ele>
        <time>2014-04-04T11:54:54Z</time>
      </trkpt>
      <trkpt lat="45.52076" lon="5.9338">
        <ele>715.8</ele>
        <time>2014-04-04T11:54:56Z</time>
      </trkpt>
      <trkpt lat="45.52073" lon="5.9338">
        <ele>716.3</ele>
        <time>2014-04-04T11:54:58Z</time>
      </trkpt>
      <trkpt lat="45.5207" lon="5.93379">
        <ele>717.1</ele>
        <time>2014-04-04T11:55:00Z</time>
      </trkpt>
      <trkpt lat="45.52069" lon="5.93379">
        <ele>717.3</ele>
        <time>2014-04-04T11:55:02Z</time>
      </trkpt>
      <trkpt lat="45.52066" lon="5.93379">
        <ele>717.7</ele>
        <time>2014-04-04T11:55:04Z</time>
      </trkpt>
      <trkpt lat="45.52064" lon="5.93379">
        <ele>718.3</ele>
        <time>2014-04-04T11:55:06Z</time>
      </trkpt>
      <trkpt lat="45.5206" lon="5.93379">
        <ele>718.9</ele>
        <time>2014-04-04T11:55:08Z</time>
      </trkpt>
      <trkpt lat="45.52059" lon="5.93379">
        <ele>719.1</ele>
        <time>2014-04-04T11:55:10Z</time>
      </trkpt>
      <trkpt lat="45.52058" lon="5.93379">
        <ele>719.4</ele>
        <time>2014-04-04T11:55:12Z</time>
      </trkpt>
      <trkpt lat="45.52054" lon="5.9338">
        <ele>719.8</ele>
        <time>2014-04-04T11:55:14Z</time>
      </trkpt>
      <trkpt lat="45.52052" lon="5.93381">
        <ele>720.1</ele>
        <time>2014-04-04T11:55:16Z</time>
      </trkpt>
      <trkpt lat="45.52051" lon="5.93381">
        <ele>720.3</ele>
        <time>2014-04-04T11:55:18Z</time>
      </trkpt>
      <trkpt lat="45.52048" lon="5.93382">
        <ele>720.6</ele>
        <time>2014-04-04T11:55:20Z</time>
      </trkpt>
      <trkpt lat="45.52044" lon="5.93383">
        <ele>721.1</ele>
        <time>2014-04-04T11:55:22Z</time>
      </trkpt>
      <trkpt lat="45.52041" lon="5.93383">
        <ele>721.7</ele>
        <time>2014-04-04T11:55:24Z</time>
      </trkpt>
      <trkpt lat="45.52039" lon="5.93382">
        <ele>722.1</ele>
        <time>2014-04-04T11:55:26Z</time>
      </trkpt>
      <trkpt lat="45.52037" lon="5.9338">
        <ele>722.7</ele>
        <time>2014-04-04T11:55:28Z</time>
      </trkpt>
      <trkpt lat="45.52037" lon="5.93379">
        <ele>722.9</ele>
        <time>2014-04-04T11:55:30Z</time>
      </trkpt>
      <trkpt lat="45.52037" lon="5.93379">
        <ele>722.9</ele>
        <time>2014-04-04T11:55:32Z</time>
      </trkpt>
      <trkpt lat="45.52036" lon="5.9338">
        <ele>722.9</ele>
        <time>2014-04-04T11:55:34Z</time>
      </trkpt>
      <trkpt lat="45.52036" lon="5.9338">
        <ele>723</ele>
        <time>2014-04-04T11:55:36Z</time>
      </trkpt>
      <trkpt lat="45.52035" lon="5.93381">
        <ele>723</ele>
        <time>2014-04-04T11:55:38Z</time>
      </trkpt>
      <trkpt lat="45.52035" lon="5.93381">
        <ele>722.9</ele>
        <time>2014-04-04T11:55:40Z</time>
      </trkpt>
      <trkpt lat="45.52034" lon="5.93383">
        <ele>722.9</ele>
        <time>2014-04-04T11:55:42Z</time>
      </trkpt>
      <trkpt lat="45.52033" lon="5.93382">
        <ele>723</ele>
        <time>2014-04-04T11:55:44Z</time>
      </trkpt>
      <trkpt lat="45.52033" lon="5.93382">
        <ele>723.1</ele>
        <time>2014-04-04T11:55:46Z</time>
      </trkpt>
      <trkpt lat="45.52034" lon="5.93382">
        <ele>723</ele>
        <time>2014-04-04T11:55:50Z</time>
      </trkpt>
      <trkpt lat="45.52034" lon="5.93383">
        <ele>722.8</ele>
        <time>2014-04-04T11:55:52Z</time>
      </trkpt>
      <trkpt lat="45.52033" lon="5.93386">
        <ele>722.6</ele>
        <time>2014-04-04T11:55:54Z</time>
      </trkpt>
      <trkpt lat="45.52032" lon="5.93386">
        <ele>722.6</ele>
        <time>2014-04-04T11:55:56Z</time>
      </trkpt>
      <trkpt lat="45.52032" lon="5.93388">
        <ele>722.5</ele>
        <time>2014-04-04T11:55:58Z</time>
      </trkpt>
      <trkpt lat="45.52031" lon="5.93389">
        <ele>722.4</ele>
        <time>2014-04-04T11:56:00Z</time>
      </trkpt>
      <trkpt lat="45.52031" lon="5.93388">
        <ele>722.4</ele>
        <time>2014-04-04T11:56:02Z</time>
      </trkpt>
      <trkpt lat="45.52032" lon="5.93387">
        <ele>722.5</ele>
        <time>2014-04-04T11:56:04Z</time>
      </trkpt>
      <trkpt lat="45.52034" lon="5.93384">
        <ele>722.7</ele>
        <time>2014-04-04T11:56:06Z</time>
      </trkpt>
      <trkpt lat="45.52034" lon="5.93382">
        <ele>722.8</ele>
        <time>2014-04-04T11:56:08Z</time>
      </trkpt>
      <trkpt lat="45.52035" lon="5.93382">
        <ele>722.9</ele>
        <time>2014-04-04T11:56:10Z</time>
      </trkpt>
      <trkpt lat="45.52035" lon="5.93381">
        <ele>722.9</ele>
        <time>2014-04-04T11:56:12Z</time>
      </trkpt>
      <trkpt lat="45.52036" lon="5.93378">
        <ele>723.3</ele>
        <time>2014-04-04T11:56:14Z</time>
      </trkpt>
      <trkpt lat="45.52036" lon="5.93377">
        <ele>723.4</ele>
        <time>2014-04-04T11:56:16Z</time>
      </trkpt>
      <trkpt lat="45.52036" lon="5.93376">
        <ele>723.6</ele>
        <time>2014-04-04T11:56:18Z</time>
      </trkpt>
      <trkpt lat="45.52036" lon="5.93375">
        <ele>723.7</ele>
        <time>2014-04-04T11:56:20Z</time>
      </trkpt>
      <trkpt lat="45.52038" lon="5.93373">
        <ele>723.7</ele>
        <time>2014-04-04T11:56:22Z</time>
      </trkpt>
      <trkpt lat="45.52039" lon="5.93373">
        <ele>723.5</ele>
        <time>2014-04-04T11:56:24Z</time>
      </trkpt>
      <trkpt lat="45.52041" lon="5.93372">
        <ele>723.4</ele>
        <time>2014-04-04T11:56:26Z</time>
      </trkpt>
      <trkpt lat="45.52042" lon="5.93371">
        <ele>723.4</ele>
        <time>2014-04-04T11:56:28Z</time>
      </trkpt>
      <trkpt lat="45.52043" lon="5.93371">
        <ele>723.3</ele>
        <time>2014-04-04T11:56:30Z</time>
      </trkpt>
      <trkpt lat="45.52043" lon="5.93371">
        <ele>723.2</ele>
        <time>2014-04-04T11:56:32Z</time>
      </trkpt>
      <trkpt lat="45.52043" lon="5.93371">
        <ele>723.2</ele>
        <time>2014-04-04T11:56:34Z</time>
      </trkpt>
      <trkpt lat="45.52043" lon="5.93371">
        <ele>723.2</ele>
        <time>2014-04-04T11:56:36Z</time>
      </trkpt>
      <trkpt lat="45.52042" lon="5.93371">
        <ele>723.4</ele>
        <time>2014-04-04T11:56:38Z</time>
      </trkpt>
      <trkpt lat="45.52042" lon="5.93371">
        <ele>723.5</ele>
        <time>2014-04-04T11:56:40Z</time>
      </trkpt>
      <trkpt lat="45.52041" lon="5.93371">
        <ele>723.6</ele>
        <time>2014-04-04T11:56:42Z</time>
      </trkpt>
      <trkpt lat="45.52039" lon="5.9337">
        <ele>723.9</ele>
        <time>2014-04-04T11:56:44Z</time>
      </trkpt>
      <trkpt lat="45.52038" lon="5.9337">
        <ele>724.1</ele>
        <time>2014-04-04T11:56:46Z</time>
      </trkpt>
      <trkpt lat="45.52038" lon="5.9337">
        <ele>724.1</ele>
        <time>2014-04-04T11:56:48Z</time>
      </trkpt>
      <trkpt lat="45.52038" lon="5.93371">
        <ele>724.1</ele>
        <time>2014-04-04T11:56:52Z</time>
      </trkpt>
      <trkpt lat="45.52038" lon="5.93371">
        <ele>724</ele>
        <time>2014-04-04T11:56:56Z</time>
      </trkpt>
      <trkpt lat="45.52038" lon="5.93372">
        <ele>724</ele>
        <time>2014-04-04T11:56:58Z</time>
      </trkpt>
      <trkpt lat="45.52038" lon="5.93372">
        <ele>723.9</ele>
        <time>2014-04-04T11:57:00Z</time>
      </trkpt>
      <trkpt lat="45.52038" lon="5.93372">
        <ele>723.9</ele>
        <time>2014-04-04T11:57:02Z</time>
      </trkpt>
      <trkpt lat="45.52037" lon="5.93373">
        <ele>723.9</ele>
        <time>2014-04-04T11:57:04Z</time>
      </trkpt>
      <trkpt lat="45.52036" lon="5.93373">
        <ele>723.9</ele>
        <time>2014-04-04T11:57:06Z</time>
      </trkpt>
      <trkpt lat="45.52036" lon="5.93374">
        <ele>723.9</ele>
        <time>2014-04-04T11:57:08Z</time>
      </trkpt>
      <trkpt lat="45.52036" lon="5.93374">
        <ele>723.8</ele>
        <time>2014-04-04T11:57:10Z</time>
      </trkpt>
      <trkpt lat="45.52036" lon="5.93374">
        <ele>723.8</ele>
        <time>2014-04-04T11:57:14Z</time>
      </trkpt>
      <trkpt lat="45.52036" lon="5.93374">
        <ele>723.8</ele>
        <time>2014-04-04T11:57:16Z</time>
      </trkpt>
      <trkpt lat="45.52036" lon="5.93375">
        <ele>723.8</ele>
        <time>2014-04-04T11:57:18Z</time>
      </trkpt>
      <trkpt lat="45.52036" lon="5.93375">
        <ele>723.7</ele>
        <time>2014-04-04T11:57:20Z</time>
      </trkpt>
      <trkpt lat="45.52036" lon="5.93375">
        <ele>723.7</ele>
        <time>2014-04-04T11:57:22Z</time>
      </trkpt>
      <trkpt lat="45.52036" lon="5.93376">
        <ele>723.5</ele>
        <time>2014-04-04T11:57:24Z</time>
      </trkpt>
      <trkpt lat="45.52033" lon="5.93392">
        <ele>721.7</ele>
        <time>2014-04-04T11:57:28Z</time>
      </trkpt>
      <trkpt lat="45.5203" lon="5.93402">
        <ele>720.3</ele>
        <time>2014-04-04T11:57:30Z</time>
      </trkpt>
      <trkpt lat="45.52029" lon="5.93408">
        <ele>719.4</ele>
        <time>2014-04-04T11:57:32Z</time>
      </trkpt>
      <trkpt lat="45.52027" lon="5.93419">
        <ele>717.8</ele>
        <time>2014-04-04T11:57:34Z</time>
      </trkpt>
      <trkpt lat="45.52025" lon="5.93433">
        <ele>716.8</ele>
        <time>2014-04-04T11:57:36Z</time>
      </trkpt>
      <trkpt lat="45.52023" lon="5.93457">
        <ele>713.9</ele>
        <time>2014-04-04T11:57:38Z</time>
      </trkpt>
      <trkpt lat="45.52023" lon="5.93464">
        <ele>712.9</ele>
        <time>2014-04-04T11:57:40Z</time>
      </trkpt>
      <trkpt lat="45.5202" lon="5.93475">
        <ele>711.2</ele>
        <time>2014-04-04T11:57:42Z</time>
      </trkpt>
      <trkpt lat="45.52012" lon="5.93491">
        <ele>707.3</ele>
        <time>2014-04-04T11:57:44Z</time>
      </trkpt>
      <trkpt lat="45.52008" lon="5.93496">
        <ele>706.3</ele>
        <time>2014-04-04T11:57:46Z</time>
      </trkpt>
      <trkpt lat="45.52001" lon="5.93505">
        <ele>705</ele>
        <time>2014-04-04T11:57:48Z</time>
      </trkpt>
      <trkpt lat="45.51995" lon="5.93513">
        <ele>703.6</ele>
        <time>2014-04-04T11:57:50Z</time>
      </trkpt>
      <trkpt lat="45.51984" lon="5.93528">
        <ele>699.7</ele>
        <time>2014-04-04T11:57:52Z</time>
      </trkpt>
      <trkpt lat="45.51981" lon="5.93533">
        <ele>699.8</ele>
        <time>2014-04-04T11:57:54Z</time>
      </trkpt>
      <trkpt lat="45.51975" lon="5.93537">
        <ele>700.2</ele>
        <time>2014-04-04T11:57:56Z</time>
      </trkpt>
      <trkpt lat="45.51953" lon="5.93538">
        <ele>697.5</ele>
        <time>2014-04-04T11:57:58Z</time>
      </trkpt>
      <trkpt lat="45.51943" lon="5.93546">
        <ele>695</ele>
        <time>2014-04-04T11:58:00Z</time>
      </trkpt>
      <trkpt lat="45.51938" lon="5.9355">
        <ele>694.8</ele>
        <time>2014-04-04T11:58:02Z</time>
      </trkpt>
      <trkpt lat="45.51929" lon="5.93555">
        <ele>694.7</ele>
        <time>2014-04-04T11:58:04Z</time>
      </trkpt>
      <trkpt lat="45.51921" lon="5.93559">
        <ele>695.2</ele>
        <time>2014-04-04T11:58:06Z</time>
      </trkpt>
      <trkpt lat="45.51919" lon="5.93561">
        <ele>695.4</ele>
        <time>2014-04-04T11:58:08Z</time>
      </trkpt>
      <trkpt lat="45.51917" lon="5.93562">
        <ele>695.4</ele>
        <time>2014-04-04T11:58:10Z</time>
      </trkpt>
      <trkpt lat="45.51915" lon="5.93565">
        <ele>695.7</ele>
        <time>2014-04-04T11:58:12Z</time>
      </trkpt>
      <trkpt lat="45.51912" lon="5.93568">
        <ele>696.1</ele>
        <time>2014-04-04T11:58:14Z</time>
      </trkpt>
      <trkpt lat="45.51911" lon="5.93569">
        <ele>696.2</ele>
        <time>2014-04-04T11:58:16Z</time>
      </trkpt>
      <trkpt lat="45.51909" lon="5.9357">
        <ele>696.5</ele>
        <time>2014-04-04T11:58:18Z</time>
      </trkpt>
      <trkpt lat="45.51908" lon="5.9357">
        <ele>696.8</ele>
        <time>2014-04-04T11:58:20Z</time>
      </trkpt>
      <trkpt lat="45.51905" lon="5.93571">
        <ele>697.2</ele>
        <time>2014-04-04T11:58:22Z</time>
      </trkpt>
      <trkpt lat="45.51904" lon="5.93572">
        <ele>697.3</ele>
        <time>2014-04-04T11:58:24Z</time>
      </trkpt>
      <trkpt lat="45.51902" lon="5.93574">
        <ele>697.5</ele>
        <time>2014-04-04T11:58:26Z</time>
      </trkpt>
      <trkpt lat="45.51899" lon="5.93576">
        <ele>698</ele>
        <time>2014-04-04T11:58:28Z</time>
      </trkpt>
      <trkpt lat="45.51896" lon="5.93578">
        <ele>698.3</ele>
        <time>2014-04-04T11:58:30Z</time>
      </trkpt>
      <trkpt lat="45.51895" lon="5.93579">
        <ele>698.4</ele>
        <time>2014-04-04T11:58:32Z</time>
      </trkpt>
      <trkpt lat="45.51892" lon="5.9358">
        <ele>698.8</ele>
        <time>2014-04-04T11:58:34Z</time>
      </trkpt>
      <trkpt lat="45.51888" lon="5.93582">
        <ele>699.3</ele>
        <time>2014-04-04T11:58:36Z</time>
      </trkpt>
      <trkpt lat="45.51884" lon="5.93584">
        <ele>699.5</ele>
        <time>2014-04-04T11:58:38Z</time>
      </trkpt>
      <trkpt lat="45.51882" lon="5.93585">
        <ele>699.6</ele>
        <time>2014-04-04T11:58:40Z</time>
      </trkpt>
      <trkpt lat="45.51879" lon="5.93585">
        <ele>699.9</ele>
        <time>2014-04-04T11:58:42Z</time>
      </trkpt>
      <trkpt lat="45.51874" lon="5.93585">
        <ele>700.4</ele>
        <time>2014-04-04T11:58:44Z</time>
      </trkpt>
      <trkpt lat="45.51872" lon="5.93586">
        <ele>700.6</ele>
        <time>2014-04-04T11:58:46Z</time>
      </trkpt>
      <trkpt lat="45.51869" lon="5.93586">
        <ele>700.9</ele>
        <time>2014-04-04T11:58:48Z</time>
      </trkpt>
      <trkpt lat="45.51863" lon="5.93585">
        <ele>701.6</ele>
        <time>2014-04-04T11:58:50Z</time>
      </trkpt>
      <trkpt lat="45.5186" lon="5.93585">
        <ele>701.9</ele>
        <time>2014-04-04T11:58:52Z</time>
      </trkpt>
      <trkpt lat="45.51858" lon="5.93584">
        <ele>701.9</ele>
        <time>2014-04-04T11:58:54Z</time>
      </trkpt>
      <trkpt lat="45.51855" lon="5.93584">
        <ele>702</ele>
        <time>2014-04-04T11:58:56Z</time>
      </trkpt>
      <trkpt lat="45.51848" lon="5.93582">
        <ele>702.3</ele>
        <time>2014-04-04T11:58:58Z</time>
      </trkpt>
      <trkpt lat="45.51844" lon="5.93582">
        <ele>702.2</ele>
        <time>2014-04-04T11:59:00Z</time>
      </trkpt>
      <trkpt lat="45.51841" lon="5.93582">
        <ele>702.3</ele>
        <time>2014-04-04T11:59:02Z</time>
      </trkpt>
      <trkpt lat="45.51835" lon="5.93582">
        <ele>702.2</ele>
        <time>2014-04-04T11:59:04Z</time>
      </trkpt>
      <trkpt lat="45.51826" lon="5.93582">
        <ele>702.3</ele>
        <time>2014-04-04T11:59:06Z</time>
      </trkpt>
      <trkpt lat="45.51821" lon="5.9358">
        <ele>702.7</ele>
        <time>2014-04-04T11:59:08Z</time>
      </trkpt>
      <trkpt lat="45.51818" lon="5.9358">
        <ele>702.8</ele>
        <time>2014-04-04T11:59:10Z</time>
      </trkpt>
      <trkpt lat="45.51812" lon="5.9358">
        <ele>702.9</ele>
        <time>2014-04-04T11:59:12Z</time>
      </trkpt>
      <trkpt lat="45.51802" lon="5.93581">
        <ele>703</ele>
        <time>2014-04-04T11:59:14Z</time>
      </trkpt>
      <trkpt lat="45.51799" lon="5.93581">
        <ele>703.1</ele>
        <time>2014-04-04T11:59:16Z</time>
      </trkpt>
      <trkpt lat="45.51793" lon="5.93582">
        <ele>703.3</ele>
        <time>2014-04-04T11:59:18Z</time>
      </trkpt>
      <trkpt lat="45.51785" lon="5.93582">
        <ele>703.8</ele>
        <time>2014-04-04T11:59:20Z</time>
      </trkpt>
      <trkpt lat="45.5178" lon="5.93582">
        <ele>704.2</ele>
        <time>2014-04-04T11:59:22Z</time>
      </trkpt>
      <trkpt lat="45.51777" lon="5.93582">
        <ele>704.4</ele>
        <time>2014-04-04T11:59:24Z</time>
      </trkpt>
      <trkpt lat="45.51773" lon="5.93581">
        <ele>704.8</ele>
        <time>2014-04-04T11:59:26Z</time>
      </trkpt>
      <trkpt lat="45.51766" lon="5.93578">
        <ele>705.3</ele>
        <time>2014-04-04T11:59:28Z</time>
      </trkpt>
      <trkpt lat="45.51762" lon="5.93576">
        <ele>705.8</ele>
        <time>2014-04-04T11:59:30Z</time>
      </trkpt>
      <trkpt lat="45.5176" lon="5.93575">
        <ele>706.1</ele>
        <time>2014-04-04T11:59:32Z</time>
      </trkpt>
      <trkpt lat="45.51757" lon="5.93572">
        <ele>706.8</ele>
        <time>2014-04-04T11:59:34Z</time>
      </trkpt>
      <trkpt lat="45.51753" lon="5.93566">
        <ele>707.8</ele>
        <time>2014-04-04T11:59:36Z</time>
      </trkpt>
      <trkpt lat="45.51752" lon="5.93565">
        <ele>708.2</ele>
        <time>2014-04-04T11:59:38Z</time>
      </trkpt>
      <trkpt lat="45.5175" lon="5.93561">
        <ele>708.8</ele>
        <time>2014-04-04T11:59:40Z</time>
      </trkpt>
      <trkpt lat="45.51747" lon="5.93557">
        <ele>709.4</ele>
        <time>2014-04-04T11:59:42Z</time>
      </trkpt>
      <trkpt lat="45.51744" lon="5.93551">
        <ele>710.5</ele>
        <time>2014-04-04T11:59:44Z</time>
      </trkpt>
      <trkpt lat="45.51743" lon="5.9355">
        <ele>710.7</ele>
        <time>2014-04-04T11:59:46Z</time>
      </trkpt>
      <trkpt lat="45.5174" lon="5.93547">
        <ele>711.2</ele>
        <time>2014-04-04T11:59:48Z</time>
      </trkpt>
      <trkpt lat="45.51735" lon="5.93542">
        <ele>711.7</ele>
        <time>2014-04-04T11:59:50Z</time>
      </trkpt>
      <trkpt lat="45.51731" lon="5.9354">
        <ele>712</ele>
        <time>2014-04-04T11:59:52Z</time>
      </trkpt>
      <trkpt lat="45.51729" lon="5.93539">
        <ele>712</ele>
        <time>2014-04-04T11:59:54Z</time>
      </trkpt>
      <trkpt lat="45.51725" lon="5.93537">
        <ele>711.9</ele>
        <time>2014-04-04T11:59:56Z</time>
      </trkpt>
      <trkpt lat="45.51718" lon="5.93535">
        <ele>711.9</ele>
        <time>2014-04-04T11:59:58Z</time>
      </trkpt>
      <trkpt lat="45.51714" lon="5.93533">
        <ele>711.9</ele>
        <time>2014-04-04T12:00:00Z</time>
      </trkpt>
      <trkpt lat="45.51712" lon="5.93532">
        <ele>711.9</ele>
        <time>2014-04-04T12:00:02Z</time>
      </trkpt>
      <trkpt lat="45.51707" lon="5.9353">
        <ele>711.8</ele>
        <time>2014-04-04T12:00:04Z</time>
      </trkpt>
      <trkpt lat="45.51701" lon="5.93527">
        <ele>712.1</ele>
        <time>2014-04-04T12:00:06Z</time>
      </trkpt>
      <trkpt lat="45.517" lon="5.93524">
        <ele>712.6</ele>
        <time>2014-04-04T12:00:08Z</time>
      </trkpt>
      <trkpt lat="45.51697" lon="5.9352">
        <ele>713.6</ele>
        <time>2014-04-04T12:00:10Z</time>
      </trkpt>
      <trkpt lat="45.51693" lon="5.93512">
        <ele>715.2</ele>
        <time>2014-04-04T12:00:12Z</time>
      </trkpt>
      <trkpt lat="45.5169" lon="5.93508">
        <ele>716</ele>
        <time>2014-04-04T12:00:14Z</time>
      </trkpt>
      <trkpt lat="45.51688" lon="5.93506">
        <ele>716.4</ele>
        <time>2014-04-04T12:00:16Z</time>
      </trkpt>
      <trkpt lat="45.51686" lon="5.93502">
        <ele>717</ele>
        <time>2014-04-04T12:00:18Z</time>
      </trkpt>
      <trkpt lat="45.51681" lon="5.93496">
        <ele>718</ele>
        <time>2014-04-04T12:00:20Z</time>
      </trkpt>
      <trkpt lat="45.51678" lon="5.93492">
        <ele>718.5</ele>
        <time>2014-04-04T12:00:22Z</time>
      </trkpt>
      <trkpt lat="45.51677" lon="5.93491">
        <ele>718.5</ele>
        <time>2014-04-04T12:00:24Z</time>
      </trkpt>
      <trkpt lat="45.51674" lon="5.93488">
        <ele>718.7</ele>
        <time>2014-04-04T12:00:26Z</time>
      </trkpt>
      <trkpt lat="45.51669" lon="5.93483">
        <ele>719.1</ele>
        <time>2014-04-04T12:00:28Z</time>
      </trkpt>
      <trkpt lat="45.51666" lon="5.9348">
        <ele>719.2</ele>
        <time>2014-04-04T12:00:30Z</time>
      </trkpt>
      <trkpt lat="45.51664" lon="5.93479">
        <ele>719.3</ele>
        <time>2014-04-04T12:00:32Z</time>
      </trkpt>
      <trkpt lat="45.5166" lon="5.93476">
        <ele>719.4</ele>
        <time>2014-04-04T12:00:34Z</time>
      </trkpt>
      <trkpt lat="45.51656" lon="5.93474">
        <ele>719.4</ele>
        <time>2014-04-04T12:00:36Z</time>
      </trkpt>
      <trkpt lat="45.51654" lon="5.93474">
        <ele>719.3</ele>
        <time>2014-04-04T12:00:38Z</time>
      </trkpt>
      <trkpt lat="45.51651" lon="5.93473">
        <ele>719.2</ele>
        <time>2014-04-04T12:00:40Z</time>
      </trkpt>
      <trkpt lat="45.51645" lon="5.93472">
        <ele>718.7</ele>
        <time>2014-04-04T12:00:42Z</time>
      </trkpt>
      <trkpt lat="45.51642" lon="5.9347">
        <ele>719.1</ele>
        <time>2014-04-04T12:00:44Z</time>
      </trkpt>
      <trkpt lat="45.5164" lon="5.93468">
        <ele>719.4</ele>
        <time>2014-04-04T12:00:46Z</time>
      </trkpt>
      <trkpt lat="45.51638" lon="5.93465">
        <ele>720.4</ele>
        <time>2014-04-04T12:00:48Z</time>
      </trkpt>
      <trkpt lat="45.51635" lon="5.93461">
        <ele>721.2</ele>
        <time>2014-04-04T12:00:50Z</time>
      </trkpt>
      <trkpt lat="45.51631" lon="5.93456">
        <ele>722.3</ele>
        <time>2014-04-04T12:00:52Z</time>
      </trkpt>
      <trkpt lat="45.51629" lon="5.93454">
        <ele>722.5</ele>
        <time>2014-04-04T12:00:54Z</time>
      </trkpt>
      <trkpt lat="45.51626" lon="5.93451">
        <ele>722.9</ele>
        <time>2014-04-04T12:00:56Z</time>
      </trkpt>
      <trkpt lat="45.51623" lon="5.93445">
        <ele>724</ele>
        <time>2014-04-04T12:00:58Z</time>
      </trkpt>
      <trkpt lat="45.51622" lon="5.93443">
        <ele>724.4</ele>
        <time>2014-04-04T12:01:00Z</time>
      </trkpt>
      <trkpt lat="45.5162" lon="5.9344">
        <ele>724.9</ele>
        <time>2014-04-04T12:01:02Z</time>
      </trkpt>
      <trkpt lat="45.51618" lon="5.93436">
        <ele>725.7</ele>
        <time>2014-04-04T12:01:04Z</time>
      </trkpt>
      <trkpt lat="45.51616" lon="5.93428">
        <ele>727.6</ele>
        <time>2014-04-04T12:01:06Z</time>
      </trkpt>
      <trkpt lat="45.51616" lon="5.93426">
        <ele>728.1</ele>
        <time>2014-04-04T12:01:08Z</time>
      </trkpt>
      <trkpt lat="45.51614" lon="5.9342">
        <ele>729.2</ele>
        <time>2014-04-04T12:01:10Z</time>
      </trkpt>
      <trkpt lat="45.51612" lon="5.93413">
        <ele>730.2</ele>
        <time>2014-04-04T12:01:12Z</time>
      </trkpt>
      <trkpt lat="45.51612" lon="5.9341">
        <ele>730.7</ele>
        <time>2014-04-04T12:01:14Z</time>
      </trkpt>
      <trkpt lat="45.51611" lon="5.93405">
        <ele>731.3</ele>
        <time>2014-04-04T12:01:16Z</time>
      </trkpt>
      <trkpt lat="45.51609" lon="5.93401">
        <ele>731.6</ele>
        <time>2014-04-04T12:01:18Z</time>
      </trkpt>
      <trkpt lat="45.51605" lon="5.93396">
        <ele>731.4</ele>
        <time>2014-04-04T12:01:20Z</time>
      </trkpt>
      <trkpt lat="45.51602" lon="5.93394">
        <ele>731.1</ele>
        <time>2014-04-04T12:01:22Z</time>
      </trkpt>
      <trkpt lat="45.51601" lon="5.93392">
        <ele>731.1</ele>
        <time>2014-04-04T12:01:24Z</time>
      </trkpt>
      <trkpt lat="45.516" lon="5.93387">
        <ele>731.7</ele>
        <time>2014-04-04T12:01:26Z</time>
      </trkpt>
      <trkpt lat="45.51597" lon="5.93381">
        <ele>732.2</ele>
        <time>2014-04-04T12:01:28Z</time>
      </trkpt>
      <trkpt lat="45.51596" lon="5.93379">
        <ele>732.3</ele>
        <time>2014-04-04T12:01:30Z</time>
      </trkpt>
      <trkpt lat="45.51594" lon="5.93375">
        <ele>732.6</ele>
        <time>2014-04-04T12:01:32Z</time>
      </trkpt>
      <trkpt lat="45.51592" lon="5.93372">
        <ele>732.8</ele>
        <time>2014-04-04T12:01:34Z</time>
      </trkpt>
      <trkpt lat="45.51589" lon="5.93366">
        <ele>733.2</ele>
        <time>2014-04-04T12:01:36Z</time>
      </trkpt>
      <trkpt lat="45.51589" lon="5.93363">
        <ele>733.5</ele>
        <time>2014-04-04T12:01:38Z</time>
      </trkpt>
      <trkpt lat="45.51588" lon="5.93359">
        <ele>734.2</ele>
        <time>2014-04-04T12:01:40Z</time>
      </trkpt>
      <trkpt lat="45.51585" lon="5.93353">
        <ele>735.1</ele>
        <time>2014-04-04T12:01:42Z</time>
      </trkpt>
      <trkpt lat="45.51583" lon="5.93349">
        <ele>735.4</ele>
        <time>2014-04-04T12:01:44Z</time>
      </trkpt>
      <trkpt lat="45.51582" lon="5.93348">
        <ele>735.9</ele>
        <time>2014-04-04T12:01:46Z</time>
      </trkpt>
      <trkpt lat="45.51579" lon="5.93345">
        <ele>736.7</ele>
        <time>2014-04-04T12:01:48Z</time>
      </trkpt>
      <trkpt lat="45.51576" lon="5.93339">
        <ele>738.1</ele>
        <time>2014-04-04T12:01:50Z</time>
      </trkpt>
      <trkpt lat="45.51574" lon="5.93336">
        <ele>738.8</ele>
        <time>2014-04-04T12:01:52Z</time>
      </trkpt>
      <trkpt lat="45.51573" lon="5.93333">
        <ele>739.3</ele>
        <time>2014-04-04T12:01:54Z</time>
      </trkpt>
      <trkpt lat="45.51572" lon="5.93328">
        <ele>740.8</ele>
        <time>2014-04-04T12:01:56Z</time>
      </trkpt>
      <trkpt lat="45.51568" lon="5.93325">
        <ele>741.4</ele>
        <time>2014-04-04T12:01:58Z</time>
      </trkpt>
      <trkpt lat="45.51566" lon="5.93324">
        <ele>741.2</ele>
        <time>2014-04-04T12:02:00Z</time>
      </trkpt>
      <trkpt lat="45.51563" lon="5.93322">
        <ele>741.2</ele>
        <time>2014-04-04T12:02:02Z</time>
      </trkpt>
      <trkpt lat="45.5156" lon="5.9332">
        <ele>741.2</ele>
        <time>2014-04-04T12:02:04Z</time>
      </trkpt>
      <trkpt lat="45.51557" lon="5.93314">
        <ele>741.8</ele>
        <time>2014-04-04T12:02:06Z</time>
      </trkpt>
      <trkpt lat="45.51556" lon="5.93312">
        <ele>741.9</ele>
        <time>2014-04-04T12:02:08Z</time>
      </trkpt>
      <trkpt lat="45.51554" lon="5.93308">
        <ele>742.8</ele>
        <time>2014-04-04T12:02:10Z</time>
      </trkpt>
      <trkpt lat="45.51552" lon="5.93302">
        <ele>744.7</ele>
        <time>2014-04-04T12:02:12Z</time>
      </trkpt>
      <trkpt lat="45.51549" lon="5.93299">
        <ele>745.8</ele>
        <time>2014-04-04T12:02:14Z</time>
      </trkpt>
      <trkpt lat="45.51547" lon="5.93298">
        <ele>746.4</ele>
        <time>2014-04-04T12:02:16Z</time>
      </trkpt>
      <trkpt lat="45.51545" lon="5.93294">
        <ele>747.4</ele>
        <time>2014-04-04T12:02:18Z</time>
      </trkpt>
      <trkpt lat="45.51543" lon="5.93289">
        <ele>748.8</ele>
        <time>2014-04-04T12:02:20Z</time>
      </trkpt>
      <trkpt lat="45.51542" lon="5.93287">
        <ele>749.2</ele>
        <time>2014-04-04T12:02:22Z</time>
      </trkpt>
      <trkpt lat="45.5154" lon="5.93284">
        <ele>749.8</ele>
        <time>2014-04-04T12:02:24Z</time>
      </trkpt>
      <trkpt lat="45.51539" lon="5.93282">
        <ele>750.2</ele>
        <time>2014-04-04T12:02:26Z</time>
      </trkpt>
      <trkpt lat="45.51535" lon="5.9328">
        <ele>750.7</ele>
        <time>2014-04-04T12:02:28Z</time>
      </trkpt>
      <trkpt lat="45.51534" lon="5.93279">
        <ele>750.8</ele>
        <time>2014-04-04T12:02:30Z</time>
      </trkpt>
      <trkpt lat="45.51531" lon="5.93279">
        <ele>750.8</ele>
        <time>2014-04-04T12:02:32Z</time>
      </trkpt>
      <trkpt lat="45.51529" lon="5.9328">
        <ele>750.7</ele>
        <time>2014-04-04T12:02:34Z</time>
      </trkpt>
      <trkpt lat="45.51524" lon="5.93281">
        <ele>751.2</ele>
        <time>2014-04-04T12:02:36Z</time>
      </trkpt>
      <trkpt lat="45.51523" lon="5.93282">
        <ele>751.5</ele>
        <time>2014-04-04T12:02:38Z</time>
      </trkpt>
      <trkpt lat="45.51519" lon="5.93283">
        <ele>752</ele>
        <time>2014-04-04T12:02:40Z</time>
      </trkpt>
      <trkpt lat="45.51514" lon="5.93284">
        <ele>752.7</ele>
        <time>2014-04-04T12:02:42Z</time>
      </trkpt>
      <trkpt lat="45.5151" lon="5.93286">
        <ele>753.2</ele>
        <time>2014-04-04T12:02:44Z</time>
      </trkpt>
      <trkpt lat="45.51508" lon="5.93286">
        <ele>753.4</ele>
        <time>2014-04-04T12:02:46Z</time>
      </trkpt>
      <trkpt lat="45.51505" lon="5.93286">
        <ele>754</ele>
        <time>2014-04-04T12:02:48Z</time>
      </trkpt>
      <trkpt lat="45.51499" lon="5.93287">
        <ele>754.8</ele>
        <time>2014-04-04T12:02:50Z</time>
      </trkpt>
      <trkpt lat="45.51498" lon="5.93288">
        <ele>754.9</ele>
        <time>2014-04-04T12:02:52Z</time>
      </trkpt>
      <trkpt lat="45.51494" lon="5.93288">
        <ele>755.2</ele>
        <time>2014-04-04T12:02:54Z</time>
      </trkpt>
      <trkpt lat="45.51491" lon="5.93289">
        <ele>755.6</ele>
        <time>2014-04-04T12:02:56Z</time>
      </trkpt>
      <trkpt lat="45.51485" lon="5.93289">
        <ele>756.3</ele>
        <time>2014-04-04T12:02:58Z</time>
      </trkpt>
      <trkpt lat="45.51484" lon="5.93289">
        <ele>756.5</ele>
        <time>2014-04-04T12:03:00Z</time>
      </trkpt>
      <trkpt lat="45.5148" lon="5.9329">
        <ele>756.8</ele>
        <time>2014-04-04T12:03:02Z</time>
      </trkpt>
      <trkpt lat="45.51474" lon="5.9329">
        <ele>757.5</ele>
        <time>2014-04-04T12:03:04Z</time>
      </trkpt>
      <trkpt lat="45.51471" lon="5.9329">
        <ele>757.9</ele>
        <time>2014-04-04T12:03:06Z</time>
      </trkpt>
      <trkpt lat="45.51469" lon="5.9329">
        <ele>758.1</ele>
        <time>2014-04-04T12:03:08Z</time>
      </trkpt>
      <trkpt lat="45.51466" lon="5.9329">
        <ele>758.7</ele>
        <time>2014-04-04T12:03:10Z</time>
      </trkpt>
      <trkpt lat="45.51461" lon="5.9329">
        <ele>759.3</ele>
        <time>2014-04-04T12:03:12Z</time>
      </trkpt>
      <trkpt lat="45.51457" lon="5.93291">
        <ele>759.6</ele>
        <time>2014-04-04T12:03:14Z</time>
      </trkpt>
      <trkpt lat="45.51455" lon="5.93291">
        <ele>759.8</ele>
        <time>2014-04-04T12:03:16Z</time>
      </trkpt>
      <trkpt lat="45.51452" lon="5.93291">
        <ele>760.1</ele>
        <time>2014-04-04T12:03:18Z</time>
      </trkpt>
      <trkpt lat="45.51447" lon="5.93291">
        <ele>760.7</ele>
        <time>2014-04-04T12:03:20Z</time>
      </trkpt>
      <trkpt lat="45.51445" lon="5.93292">
        <ele>761</ele>
        <time>2014-04-04T12:03:22Z</time>
      </trkpt>
      <trkpt lat="45.51441" lon="5.93292">
        <ele>760.9</ele>
        <time>2014-04-04T12:03:24Z</time>
      </trkpt>
      <trkpt lat="45.51435" lon="5.9329">
        <ele>761.1</ele>
        <time>2014-04-04T12:03:26Z</time>
      </trkpt>
      <trkpt lat="45.51431" lon="5.93289">
        <ele>761.2</ele>
        <time>2014-04-04T12:03:28Z</time>
      </trkpt>
      <trkpt lat="45.5143" lon="5.93288">
        <ele>761.4</ele>
        <time>2014-04-04T12:03:30Z</time>
      </trkpt>
      <trkpt lat="45.51427" lon="5.93284">
        <ele>762</ele>
        <time>2014-04-04T12:03:32Z</time>
      </trkpt>
      <trkpt lat="45.51425" lon="5.93276">
        <ele>763.2</ele>
        <time>2014-04-04T12:03:34Z</time>
      </trkpt>
      <trkpt lat="45.51424" lon="5.93271">
        <ele>763.8</ele>
        <time>2014-04-04T12:03:36Z</time>
      </trkpt>
      <trkpt lat="45.51423" lon="5.93269">
        <ele>764.1</ele>
        <time>2014-04-04T12:03:38Z</time>
      </trkpt>
      <trkpt lat="45.51423" lon="5.93264">
        <ele>764.6</ele>
        <time>2014-04-04T12:03:40Z</time>
      </trkpt>
      <trkpt lat="45.51422" lon="5.93257">
        <ele>765.4</ele>
        <time>2014-04-04T12:03:42Z</time>
      </trkpt>
      <trkpt lat="45.51422" lon="5.93252">
        <ele>766</ele>
        <time>2014-04-04T12:03:44Z</time>
      </trkpt>
      <trkpt lat="45.51422" lon="5.93249">
        <ele>766.3</ele>
        <time>2014-04-04T12:03:46Z</time>
      </trkpt>
      <trkpt lat="45.51422" lon="5.93244">
        <ele>766.9</ele>
        <time>2014-04-04T12:03:48Z</time>
      </trkpt>
      <trkpt lat="45.51423" lon="5.93239">
        <ele>767.6</ele>
        <time>2014-04-04T12:03:50Z</time>
      </trkpt>
      <trkpt lat="45.51423" lon="5.93233">
        <ele>768.4</ele>
        <time>2014-04-04T12:03:52Z</time>
      </trkpt>
      <trkpt lat="45.51424" lon="5.93228">
        <ele>769.1</ele>
        <time>2014-04-04T12:03:54Z</time>
      </trkpt>
      <trkpt lat="45.51424" lon="5.93222">
        <ele>769.7</ele>
        <time>2014-04-04T12:03:56Z</time>
      </trkpt>
      <trkpt lat="45.51424" lon="5.93214">
        <ele>770.7</ele>
        <time>2014-04-04T12:03:58Z</time>
      </trkpt>
      <trkpt lat="45.51424" lon="5.93211">
        <ele>771</ele>
        <time>2014-04-04T12:04:00Z</time>
      </trkpt>
      <trkpt lat="45.51424" lon="5.93205">
        <ele>771.7</ele>
        <time>2014-04-04T12:04:02Z</time>
      </trkpt>
      <trkpt lat="45.51423" lon="5.93196">
        <ele>772.8</ele>
        <time>2014-04-04T12:04:04Z</time>
      </trkpt>
      <trkpt lat="45.51422" lon="5.93191">
        <ele>773.3</ele>
        <time>2014-04-04T12:04:06Z</time>
      </trkpt>
      <trkpt lat="45.51422" lon="5.93188">
        <ele>773.5</ele>
        <time>2014-04-04T12:04:08Z</time>
      </trkpt>
      <trkpt lat="45.51421" lon="5.93182">
        <ele>774</ele>
        <time>2014-04-04T12:04:10Z</time>
      </trkpt>
      <trkpt lat="45.51418" lon="5.93175">
        <ele>774.4</ele>
        <time>2014-04-04T12:04:12Z</time>
      </trkpt>
      <trkpt lat="45.51418" lon="5.93172">
        <ele>774.6</ele>
        <time>2014-04-04T12:04:14Z</time>
      </trkpt>
      <trkpt lat="45.51417" lon="5.93167">
        <ele>774.9</ele>
        <time>2014-04-04T12:04:16Z</time>
      </trkpt>
      <trkpt lat="45.51416" lon="5.93162">
        <ele>775.2</ele>
        <time>2014-04-04T12:04:18Z</time>
      </trkpt>
      <trkpt lat="45.51417" lon="5.93154">
        <ele>775.9</ele>
        <time>2014-04-04T12:04:20Z</time>
      </trkpt>
      <trkpt lat="45.51417" lon="5.93151">
        <ele>776.2</ele>
        <time>2014-04-04T12:04:22Z</time>
      </trkpt>
      <trkpt lat="45.51417" lon="5.93147">
        <ele>776.5</ele>
        <time>2014-04-04T12:04:24Z</time>
      </trkpt>
      <trkpt lat="45.51417" lon="5.93139">
        <ele>777.2</ele>
        <time>2014-04-04T12:04:26Z</time>
      </trkpt>
      <trkpt lat="45.51418" lon="5.93133">
        <ele>777.7</ele>
        <time>2014-04-04T12:04:28Z</time>
      </trkpt>
      <trkpt lat="45.51418" lon="5.93131">
        <ele>778</ele>
        <time>2014-04-04T12:04:30Z</time>
      </trkpt>
      <trkpt lat="45.51419" lon="5.93125">
        <ele>778.6</ele>
        <time>2014-04-04T12:04:32Z</time>
      </trkpt>
      <trkpt lat="45.5142" lon="5.93117">
        <ele>779.4</ele>
        <time>2014-04-04T12:04:34Z</time>
      </trkpt>
      <trkpt lat="45.5142" lon="5.93112">
        <ele>779.9</ele>
        <time>2014-04-04T12:04:36Z</time>
      </trkpt>
      <trkpt lat="45.5142" lon="5.93109">
        <ele>780.1</ele>
        <time>2014-04-04T12:04:38Z</time>
      </trkpt>
      <trkpt lat="45.5142" lon="5.93104">
        <ele>780.5</ele>
        <time>2014-04-04T12:04:40Z</time>
      </trkpt>
      <trkpt lat="45.5142" lon="5.93095">
        <ele>781</ele>
        <time>2014-04-04T12:04:42Z</time>
      </trkpt>
      <trkpt lat="45.51421" lon="5.93092">
        <ele>781.2</ele>
        <time>2014-04-04T12:04:44Z</time>
      </trkpt>
      <trkpt lat="45.51421" lon="5.93087">
        <ele>781.8</ele>
        <time>2014-04-04T12:04:46Z</time>
      </trkpt>
      <trkpt lat="45.51422" lon="5.93082">
        <ele>782.3</ele>
        <time>2014-04-04T12:04:48Z</time>
      </trkpt>
      <trkpt lat="45.51422" lon="5.93074">
        <ele>783.3</ele>
        <time>2014-04-04T12:04:50Z</time>
      </trkpt>
      <trkpt lat="45.51422" lon="5.93071">
        <ele>783.6</ele>
        <time>2014-04-04T12:04:52Z</time>
      </trkpt>
      <trkpt lat="45.51422" lon="5.93066">
        <ele>784.1</ele>
        <time>2014-04-04T12:04:54Z</time>
      </trkpt>
      <trkpt lat="45.51423" lon="5.93058">
        <ele>784.9</ele>
        <time>2014-04-04T12:04:56Z</time>
      </trkpt>
      <trkpt lat="45.51423" lon="5.93053">
        <ele>785.5</ele>
        <time>2014-04-04T12:04:58Z</time>
      </trkpt>
      <trkpt lat="45.51423" lon="5.9305">
        <ele>785.8</ele>
        <time>2014-04-04T12:05:00Z</time>
      </trkpt>
      <trkpt lat="45.51423" lon="5.93045">
        <ele>786.4</ele>
        <time>2014-04-04T12:05:02Z</time>
      </trkpt>
      <trkpt lat="45.51423" lon="5.93037">
        <ele>787.2</ele>
        <time>2014-04-04T12:05:04Z</time>
      </trkpt>
      <trkpt lat="45.51424" lon="5.93032">
        <ele>788</ele>
        <time>2014-04-04T12:05:06Z</time>
      </trkpt>
      <trkpt lat="45.51424" lon="5.9303">
        <ele>788.1</ele>
        <time>2014-04-04T12:05:08Z</time>
      </trkpt>
      <trkpt lat="45.51423" lon="5.93024">
        <ele>788.4</ele>
        <time>2014-04-04T12:05:10Z</time>
      </trkpt>
      <trkpt lat="45.51423" lon="5.93017">
        <ele>788.6</ele>
        <time>2014-04-04T12:05:12Z</time>
      </trkpt>
      <trkpt lat="45.51423" lon="5.93015">
        <ele>788.7</ele>
        <time>2014-04-04T12:05:14Z</time>
      </trkpt>
      <trkpt lat="45.51422" lon="5.9301">
        <ele>788.8</ele>
        <time>2014-04-04T12:05:16Z</time>
      </trkpt>
      <trkpt lat="45.51423" lon="5.93005">
        <ele>789.4</ele>
        <time>2014-04-04T12:05:18Z</time>
      </trkpt>
      <trkpt lat="45.51422" lon="5.92998">
        <ele>789.8</ele>
        <time>2014-04-04T12:05:20Z</time>
      </trkpt>
      <trkpt lat="45.51422" lon="5.92996">
        <ele>790</ele>
        <time>2014-04-04T12:05:22Z</time>
      </trkpt>
      <trkpt lat="45.51422" lon="5.92992">
        <ele>790.5</ele>
        <time>2014-04-04T12:05:24Z</time>
      </trkpt>
      <trkpt lat="45.51422" lon="5.92985">
        <ele>791.6</ele>
        <time>2014-04-04T12:05:26Z</time>
      </trkpt>
      <trkpt lat="45.51422" lon="5.9298">
        <ele>792.5</ele>
        <time>2014-04-04T12:05:28Z</time>
      </trkpt>
      <trkpt lat="45.51422" lon="5.92978">
        <ele>793</ele>
        <time>2014-04-04T12:05:30Z</time>
      </trkpt>
      <trkpt lat="45.51423" lon="5.92973">
        <ele>794</ele>
        <time>2014-04-04T12:05:32Z</time>
      </trkpt>
      <trkpt lat="45.51425" lon="5.92966">
        <ele>795.1</ele>
        <time>2014-04-04T12:05:34Z</time>
      </trkpt>
      <trkpt lat="45.51425" lon="5.92964">
        <ele>795.4</ele>
        <time>2014-04-04T12:05:36Z</time>
      </trkpt>
      <trkpt lat="45.51427" lon="5.92959">
        <ele>796.4</ele>
        <time>2014-04-04T12:05:38Z</time>
      </trkpt>
      <trkpt lat="45.51429" lon="5.92956">
        <ele>797.4</ele>
        <time>2014-04-04T12:05:40Z</time>
      </trkpt>
      <trkpt lat="45.51432" lon="5.92949">
        <ele>798.9</ele>
        <time>2014-04-04T12:05:42Z</time>
      </trkpt>
      <trkpt lat="45.51433" lon="5.92947">
        <ele>799.4</ele>
        <time>2014-04-04T12:05:44Z</time>
      </trkpt>
      <trkpt lat="45.51435" lon="5.92943">
        <ele>800.5</ele>
        <time>2014-04-04T12:05:46Z</time>
      </trkpt>
      <trkpt lat="45.51437" lon="5.92936">
        <ele>801.4</ele>
        <time>2014-04-04T12:05:48Z</time>
      </trkpt>
      <trkpt lat="45.51438" lon="5.92931">
        <ele>801.6</ele>
        <time>2014-04-04T12:05:50Z</time>
      </trkpt>
      <trkpt lat="45.51438" lon="5.92929">
        <ele>801.6</ele>
        <time>2014-04-04T12:05:52Z</time>
      </trkpt>
      <trkpt lat="45.51438" lon="5.92924">
        <ele>801.5</ele>
        <time>2014-04-04T12:05:54Z</time>
      </trkpt>
      <trkpt lat="45.51437" lon="5.92918">
        <ele>800.7</ele>
        <time>2014-04-04T12:05:56Z</time>
      </trkpt>
      <trkpt lat="45.51435" lon="5.92914">
        <ele>800.7</ele>
        <time>2014-04-04T12:05:58Z</time>
      </trkpt>
      <trkpt lat="45.51434" lon="5.92911">
        <ele>800.8</ele>
        <time>2014-04-04T12:06:00Z</time>
      </trkpt>
      <trkpt lat="45.51433" lon="5.92907">
        <ele>801.2</ele>
        <time>2014-04-04T12:06:02Z</time>
      </trkpt>
      <trkpt lat="45.5143" lon="5.929">
        <ele>801.4</ele>
        <time>2014-04-04T12:06:04Z</time>
      </trkpt>
      <trkpt lat="45.51429" lon="5.92897">
        <ele>801.5</ele>
        <time>2014-04-04T12:06:06Z</time>
      </trkpt>
      <trkpt lat="45.51428" lon="5.92892">
        <ele>802</ele>
        <time>2014-04-04T12:06:08Z</time>
      </trkpt>
      <trkpt lat="45.51427" lon="5.92886">
        <ele>802.5</ele>
        <time>2014-04-04T12:06:10Z</time>
      </trkpt>
      <trkpt lat="45.51426" lon="5.92881">
        <ele>802.5</ele>
        <time>2014-04-04T12:06:12Z</time>
      </trkpt>
      <trkpt lat="45.51425" lon="5.92875">
        <ele>802.8</ele>
        <time>2014-04-04T12:06:14Z</time>
      </trkpt>
      <trkpt lat="45.51424" lon="5.9287">
        <ele>802.8</ele>
        <time>2014-04-04T12:06:16Z</time>
      </trkpt>
      <trkpt lat="45.51422" lon="5.92865">
        <ele>802.4</ele>
        <time>2014-04-04T12:06:18Z</time>
      </trkpt>
      <trkpt lat="45.51418" lon="5.92861">
        <ele>800.9</ele>
        <time>2014-04-04T12:06:20Z</time>
      </trkpt>
      <trkpt lat="45.51417" lon="5.92859">
        <ele>800.6</ele>
        <time>2014-04-04T12:06:22Z</time>
      </trkpt>
      <trkpt lat="45.51412" lon="5.92858">
        <ele>799.8</ele>
        <time>2014-04-04T12:06:24Z</time>
      </trkpt>
      <trkpt lat="45.51406" lon="5.92855">
        <ele>798.8</ele>
        <time>2014-04-04T12:06:26Z</time>
      </trkpt>
      <trkpt lat="45.51401" lon="5.92854">
        <ele>798.3</ele>
        <time>2014-04-04T12:06:28Z</time>
      </trkpt>
      <trkpt lat="45.51399" lon="5.92852">
        <ele>798.3</ele>
        <time>2014-04-04T12:06:30Z</time>
      </trkpt>
      <trkpt lat="45.51395" lon="5.9285">
        <ele>798.1</ele>
        <time>2014-04-04T12:06:32Z</time>
      </trkpt>
      <trkpt lat="45.5139" lon="5.92844">
        <ele>799.1</ele>
        <time>2014-04-04T12:06:34Z</time>
      </trkpt>
      <trkpt lat="45.51389" lon="5.92842">
        <ele>799.6</ele>
        <time>2014-04-04T12:06:36Z</time>
      </trkpt>
      <trkpt lat="45.51386" lon="5.92837">
        <ele>800.5</ele>
        <time>2014-04-04T12:06:38Z</time>
      </trkpt>
      <trkpt lat="45.51382" lon="5.92832">
        <ele>800.7</ele>
        <time>2014-04-04T12:06:40Z</time>
      </trkpt>
      <trkpt lat="45.5138" lon="5.92828">
        <ele>800.8</ele>
        <time>2014-04-04T12:06:42Z</time>
      </trkpt>
      <trkpt lat="45.51379" lon="5.92827">
        <ele>800.8</ele>
        <time>2014-04-04T12:06:44Z</time>
      </trkpt>
      <trkpt lat="45.51376" lon="5.92823">
        <ele>801</ele>
        <time>2014-04-04T12:06:46Z</time>
      </trkpt>
      <trkpt lat="45.51371" lon="5.92821">
        <ele>799.4</ele>
        <time>2014-04-04T12:06:48Z</time>
      </trkpt>
      <trkpt lat="45.51368" lon="5.92818">
        <ele>799.1</ele>
        <time>2014-04-04T12:06:50Z</time>
      </trkpt>
      <trkpt lat="45.51367" lon="5.92816">
        <ele>799.2</ele>
        <time>2014-04-04T12:06:52Z</time>
      </trkpt>
      <trkpt lat="45.51365" lon="5.92811">
        <ele>800.1</ele>
        <time>2014-04-04T12:06:54Z</time>
      </trkpt>
      <trkpt lat="45.51364" lon="5.92804">
        <ele>801.9</ele>
        <time>2014-04-04T12:06:56Z</time>
      </trkpt>
      <trkpt lat="45.51363" lon="5.92799">
        <ele>803</ele>
        <time>2014-04-04T12:06:58Z</time>
      </trkpt>
      <trkpt lat="45.51362" lon="5.92797">
        <ele>803.2</ele>
        <time>2014-04-04T12:07:00Z</time>
      </trkpt>
      <trkpt lat="45.5136" lon="5.9279">
        <ele>804.6</ele>
        <time>2014-04-04T12:07:02Z</time>
      </trkpt>
      <trkpt lat="45.51359" lon="5.92786">
        <ele>805.8</ele>
        <time>2014-04-04T12:07:04Z</time>
      </trkpt>
      <trkpt lat="45.51358" lon="5.92784">
        <ele>806.1</ele>
        <time>2014-04-04T12:07:06Z</time>
      </trkpt>
      <trkpt lat="45.51358" lon="5.92778">
        <ele>808</ele>
        <time>2014-04-04T12:07:08Z</time>
      </trkpt>
      <trkpt lat="45.51357" lon="5.92772">
        <ele>809</ele>
        <time>2014-04-04T12:07:10Z</time>
      </trkpt>
      <trkpt lat="45.51356" lon="5.9277">
        <ele>809.2</ele>
        <time>2014-04-04T12:07:12Z</time>
      </trkpt>
      <trkpt lat="45.51354" lon="5.92767">
        <ele>809.3</ele>
        <time>2014-04-04T12:07:14Z</time>
      </trkpt>
      <trkpt lat="45.51353" lon="5.92762">
        <ele>809.9</ele>
        <time>2014-04-04T12:07:16Z</time>
      </trkpt>
      <trkpt lat="45.51351" lon="5.92754">
        <ele>811.2</ele>
        <time>2014-04-04T12:07:18Z</time>
      </trkpt>
      <trkpt lat="45.51349" lon="5.9275">
        <ele>811.6</ele>
        <time>2014-04-04T12:07:20Z</time>
      </trkpt>
      <trkpt lat="45.51349" lon="5.92748">
        <ele>812.3</ele>
        <time>2014-04-04T12:07:22Z</time>
      </trkpt>
      <trkpt lat="45.51347" lon="5.92743">
        <ele>813.4</ele>
        <time>2014-04-04T12:07:24Z</time>
      </trkpt>
      <trkpt lat="45.51345" lon="5.92737">
        <ele>814.5</ele>
        <time>2014-04-04T12:07:26Z</time>
      </trkpt>
      <trkpt lat="45.51345" lon="5.92735">
        <ele>814.6</ele>
        <time>2014-04-04T12:07:28Z</time>
      </trkpt>
      <trkpt lat="45.51343" lon="5.92732">
        <ele>814.9</ele>
        <time>2014-04-04T12:07:30Z</time>
      </trkpt>
      <trkpt lat="45.51342" lon="5.92727">
        <ele>815.8</ele>
        <time>2014-04-04T12:07:32Z</time>
      </trkpt>
      <trkpt lat="45.5134" lon="5.92721">
        <ele>816.5</ele>
        <time>2014-04-04T12:07:34Z</time>
      </trkpt>
      <trkpt lat="45.51339" lon="5.92719">
        <ele>816.7</ele>
        <time>2014-04-04T12:07:36Z</time>
      </trkpt>
      <trkpt lat="45.51337" lon="5.92714">
        <ele>817.2</ele>
        <time>2014-04-04T12:07:38Z</time>
      </trkpt>
      <trkpt lat="45.51335" lon="5.92707">
        <ele>818.1</ele>
        <time>2014-04-04T12:07:40Z</time>
      </trkpt>
      <trkpt lat="45.51333" lon="5.92702">
        <ele>818.7</ele>
        <time>2014-04-04T12:07:42Z</time>
      </trkpt>
      <trkpt lat="45.51332" lon="5.927">
        <ele>819.2</ele>
        <time>2014-04-04T12:07:44Z</time>
      </trkpt>
      <trkpt lat="45.5133" lon="5.92695">
        <ele>820.2</ele>
        <time>2014-04-04T12:07:46Z</time>
      </trkpt>
      <trkpt lat="45.51329" lon="5.92686">
        <ele>822.4</ele>
        <time>2014-04-04T12:07:48Z</time>
      </trkpt>
      <trkpt lat="45.51327" lon="5.92681">
        <ele>823.1</ele>
        <time>2014-04-04T12:07:50Z</time>
      </trkpt>
      <trkpt lat="45.51326" lon="5.92679">
        <ele>823.6</ele>
        <time>2014-04-04T12:07:52Z</time>
      </trkpt>
      <trkpt lat="45.51325" lon="5.92673">
        <ele>825.1</ele>
        <time>2014-04-04T12:07:54Z</time>
      </trkpt>
      <trkpt lat="45.51324" lon="5.92669">
        <ele>826</ele>
        <time>2014-04-04T12:07:56Z</time>
      </trkpt>
      <trkpt lat="45.51322" lon="5.92664">
        <ele>826.7</ele>
        <time>2014-04-04T12:07:58Z</time>
      </trkpt>
      <trkpt lat="45.5132" lon="5.9266">
        <ele>827.4</ele>
        <time>2014-04-04T12:08:00Z</time>
      </trkpt>
      <trkpt lat="45.51318" lon="5.92655">
        <ele>828.1</ele>
        <time>2014-04-04T12:08:02Z</time>
      </trkpt>
      <trkpt lat="45.51315" lon="5.92648">
        <ele>829.3</ele>
        <time>2014-04-04T12:08:04Z</time>
      </trkpt>
      <trkpt lat="45.51314" lon="5.92645">
        <ele>829.7</ele>
        <time>2014-04-04T12:08:06Z</time>
      </trkpt>
      <trkpt lat="45.51313" lon="5.9264">
        <ele>830.5</ele>
        <time>2014-04-04T12:08:08Z</time>
      </trkpt>
      <trkpt lat="45.5131" lon="5.92634">
        <ele>830.7</ele>
        <time>2014-04-04T12:08:10Z</time>
      </trkpt>
      <trkpt lat="45.51308" lon="5.92629">
        <ele>830.7</ele>
        <time>2014-04-04T12:08:12Z</time>
      </trkpt>
      <trkpt lat="45.51306" lon="5.92627">
        <ele>830.4</ele>
        <time>2014-04-04T12:08:14Z</time>
      </trkpt>
      <trkpt lat="45.51303" lon="5.92624">
        <ele>830.7</ele>
        <time>2014-04-04T12:08:16Z</time>
      </trkpt>
      <trkpt lat="45.51298" lon="5.92619">
        <ele>831.6</ele>
        <time>2014-04-04T12:08:18Z</time>
      </trkpt>
      <trkpt lat="45.51295" lon="5.92617">
        <ele>832</ele>
        <time>2014-04-04T12:08:20Z</time>
      </trkpt>
      <trkpt lat="45.51293" lon="5.92616">
        <ele>832.2</ele>
        <time>2014-04-04T12:08:22Z</time>
      </trkpt>
      <trkpt lat="45.5129" lon="5.92613">
        <ele>832.8</ele>
        <time>2014-04-04T12:08:24Z</time>
      </trkpt>
      <trkpt lat="45.51285" lon="5.9261">
        <ele>833.6</ele>
        <time>2014-04-04T12:08:26Z</time>
      </trkpt>
      <trkpt lat="45.51283" lon="5.9261">
        <ele>833.7</ele>
        <time>2014-04-04T12:08:28Z</time>
      </trkpt>
      <trkpt lat="45.5128" lon="5.9261">
        <ele>833.9</ele>
        <time>2014-04-04T12:08:30Z</time>
      </trkpt>
      <trkpt lat="45.51274" lon="5.9261">
        <ele>834.5</ele>
        <time>2014-04-04T12:08:32Z</time>
      </trkpt>
      <trkpt lat="45.51269" lon="5.92612">
        <ele>834.8</ele>
        <time>2014-04-04T12:08:34Z</time>
      </trkpt>
      <trkpt lat="45.51267" lon="5.92613">
        <ele>834.8</ele>
        <time>2014-04-04T12:08:36Z</time>
      </trkpt>
      <trkpt lat="45.51263" lon="5.92615">
        <ele>834.9</ele>
        <time>2014-04-04T12:08:38Z</time>
      </trkpt>
      <trkpt lat="45.51257" lon="5.92618">
        <ele>834.9</ele>
        <time>2014-04-04T12:08:40Z</time>
      </trkpt>
      <trkpt lat="45.51255" lon="5.92619">
        <ele>834.8</ele>
        <time>2014-04-04T12:08:42Z</time>
      </trkpt>
      <trkpt lat="45.51251" lon="5.92622">
        <ele>834.7</ele>
        <time>2014-04-04T12:08:44Z</time>
      </trkpt>
      <trkpt lat="45.51247" lon="5.92624">
        <ele>834.6</ele>
        <time>2014-04-04T12:08:46Z</time>
      </trkpt>
      <trkpt lat="45.5124" lon="5.92627">
        <ele>834.5</ele>
        <time>2014-04-04T12:08:48Z</time>
      </trkpt>
      <trkpt lat="45.51237" lon="5.92628">
        <ele>834.4</ele>
        <time>2014-04-04T12:08:50Z</time>
      </trkpt>
      <trkpt lat="45.51232" lon="5.9263">
        <ele>834.4</ele>
        <time>2014-04-04T12:08:52Z</time>
      </trkpt>
      <trkpt lat="45.51228" lon="5.92631">
        <ele>834.6</ele>
        <time>2014-04-04T12:08:54Z</time>
      </trkpt>
      <trkpt lat="45.51222" lon="5.92631">
        <ele>835</ele>
        <time>2014-04-04T12:08:56Z</time>
      </trkpt>
      <trkpt lat="45.5122" lon="5.92631">
        <ele>835.3</ele>
        <time>2014-04-04T12:08:58Z</time>
      </trkpt>
      <trkpt lat="45.51216" lon="5.92631">
        <ele>835.8</ele>
        <time>2014-04-04T12:09:00Z</time>
      </trkpt>
      <trkpt lat="45.51211" lon="5.92631">
        <ele>836.3</ele>
        <time>2014-04-04T12:09:02Z</time>
      </trkpt>
      <trkpt lat="45.51206" lon="5.9263">
        <ele>837</ele>
        <time>2014-04-04T12:09:04Z</time>
      </trkpt>
      <trkpt lat="45.51204" lon="5.92631">
        <ele>837</ele>
        <time>2014-04-04T12:09:06Z</time>
      </trkpt>
      <trkpt lat="45.51204" lon="5.92629">
        <ele>837.4</ele>
        <time>2014-04-04T12:09:08Z</time>
      </trkpt>
      <trkpt lat="45.51206" lon="5.92628">
        <ele>837.6</ele>
        <time>2014-04-04T12:09:10Z</time>
      </trkpt>
      <trkpt lat="45.51206" lon="5.92627">
        <ele>837.8</ele>
        <time>2014-04-04T12:09:12Z</time>
      </trkpt>
      <trkpt lat="45.51206" lon="5.92627">
        <ele>837.9</ele>
        <time>2014-04-04T12:09:14Z</time>
      </trkpt>
      <trkpt lat="45.51206" lon="5.92626">
        <ele>838</ele>
        <time>2014-04-04T12:09:16Z</time>
      </trkpt>
      <trkpt lat="45.51206" lon="5.92626">
        <ele>838</ele>
        <time>2014-04-04T12:09:18Z</time>
      </trkpt>
      <trkpt lat="45.51206" lon="5.92626">
        <ele>838</ele>
        <time>2014-04-04T12:09:20Z</time>
      </trkpt>
      <trkpt lat="45.51206" lon="5.92626">
        <ele>838.1</ele>
        <time>2014-04-04T12:09:22Z</time>
      </trkpt>
      <trkpt lat="45.51205" lon="5.92626">
        <ele>838.1</ele>
        <time>2014-04-04T12:09:24Z</time>
      </trkpt>
      <trkpt lat="45.51205" lon="5.92626">
        <ele>838.2</ele>
        <time>2014-04-04T12:09:26Z</time>
      </trkpt>
      <trkpt lat="45.51205" lon="5.92625">
        <ele>838.3</ele>
        <time>2014-04-04T12:09:30Z</time>
      </trkpt>
      <trkpt lat="45.51205" lon="5.92625">
        <ele>838.3</ele>
        <time>2014-04-04T12:09:32Z</time>
      </trkpt>
      <trkpt lat="45.51205" lon="5.92625">
        <ele>838.2</ele>
        <time>2014-04-04T12:09:34Z</time>
      </trkpt>
      <trkpt lat="45.51206" lon="5.92625">
        <ele>838.2</ele>
        <time>2014-04-04T12:09:36Z</time>
      </trkpt>
      <trkpt lat="45.51206" lon="5.92626">
        <ele>838.2</ele>
        <time>2014-04-04T12:09:38Z</time>
      </trkpt>
      <trkpt lat="45.51206" lon="5.92626">
        <ele>838.1</ele>
        <time>2014-04-04T12:09:40Z</time>
      </trkpt>
      <trkpt lat="45.51206" lon="5.92626">
        <ele>838.1</ele>
        <time>2014-04-04T12:09:42Z</time>
      </trkpt>
      <trkpt lat="45.51206" lon="5.92626">
        <ele>838</ele>
        <time>2014-04-04T12:09:44Z</time>
      </trkpt>
      <trkpt lat="45.51206" lon="5.92626">
        <ele>838</ele>
        <time>2014-04-04T12:09:46Z</time>
      </trkpt>
      <trkpt lat="45.51207" lon="5.92626">
        <ele>837.9</ele>
        <time>2014-04-04T12:09:48Z</time>
      </trkpt>
      <trkpt lat="45.51207" lon="5.92627">
        <ele>837.8</ele>
        <time>2014-04-04T12:09:50Z</time>
      </trkpt>
      <trkpt lat="45.51207" lon="5.92627">
        <ele>837.7</ele>
        <time>2014-04-04T12:09:52Z</time>
      </trkpt>
      <trkpt lat="45.51207" lon="5.92627">
        <ele>837.6</ele>
        <time>2014-04-04T12:09:54Z</time>
      </trkpt>
      <trkpt lat="45.51208" lon="5.92628">
        <ele>837.4</ele>
        <time>2014-04-04T12:09:56Z</time>
      </trkpt>
      <trkpt lat="45.51208" lon="5.92628">
        <ele>837.3</ele>
        <time>2014-04-04T12:09:58Z</time>
      </trkpt>
      <trkpt lat="45.51209" lon="5.92628">
        <ele>837.2</ele>
        <time>2014-04-04T12:10:00Z</time>
      </trkpt>
      <trkpt lat="45.51209" lon="5.92628">
        <ele>837.1</ele>
        <time>2014-04-04T12:10:02Z</time>
      </trkpt>
      <trkpt lat="45.51209" lon="5.92629">
        <ele>837</ele>
        <time>2014-04-04T12:10:04Z</time>
      </trkpt>
      <trkpt lat="45.51209" lon="5.92629">
        <ele>837</ele>
        <time>2014-04-04T12:10:06Z</time>
      </trkpt>
      <trkpt lat="45.5121" lon="5.92629">
        <ele>836.9</ele>
        <time>2014-04-04T12:10:08Z</time>
      </trkpt>
      <trkpt lat="45.5121" lon="5.92629">
        <ele>836.9</ele>
        <time>2014-04-04T12:10:10Z</time>
      </trkpt>
      <trkpt lat="45.5121" lon="5.92629">
        <ele>836.8</ele>
        <time>2014-04-04T12:10:12Z</time>
      </trkpt>
      <trkpt lat="45.51211" lon="5.92629">
        <ele>836.8</ele>
        <time>2014-04-04T12:10:14Z</time>
      </trkpt>
      <trkpt lat="45.51211" lon="5.92629">
        <ele>836.8</ele>
        <time>2014-04-04T12:10:16Z</time>
      </trkpt>
      <trkpt lat="45.51211" lon="5.92629">
        <ele>836.8</ele>
        <time>2014-04-04T12:10:18Z</time>
      </trkpt>
      <trkpt lat="45.51211" lon="5.92629">
        <ele>836.8</ele>
        <time>2014-04-04T12:10:20Z</time>
      </trkpt>
      <trkpt lat="45.51212" lon="5.92629">
        <ele>836.7</ele>
        <time>2014-04-04T12:10:22Z</time>
      </trkpt>
      <trkpt lat="45.51212" lon="5.92629">
        <ele>836.6</ele>
        <time>2014-04-04T12:10:24Z</time>
      </trkpt>
      <trkpt lat="45.51212" lon="5.92629">
        <ele>836.5</ele>
        <time>2014-04-04T12:10:26Z</time>
      </trkpt>
      <trkpt lat="45.51212" lon="5.9263">
        <ele>836.4</ele>
        <time>2014-04-04T12:10:28Z</time>
      </trkpt>
      <trkpt lat="45.51209" lon="5.9263">
        <ele>836.6</ele>
        <time>2014-04-04T12:10:30Z</time>
      </trkpt>
      <trkpt lat="45.51208" lon="5.92631">
        <ele>836.7</ele>
        <time>2014-04-04T12:10:32Z</time>
      </trkpt>
      <trkpt lat="45.51207" lon="5.92631">
        <ele>836.7</ele>
        <time>2014-04-04T12:10:34Z</time>
      </trkpt>
      <trkpt lat="45.51207" lon="5.92631">
        <ele>836.7</ele>
        <time>2014-04-04T12:10:36Z</time>
      </trkpt>
      <trkpt lat="45.51207" lon="5.92631">
        <ele>836.7</ele>
        <time>2014-04-04T12:10:38Z</time>
      </trkpt>
      <trkpt lat="45.51206" lon="5.92631">
        <ele>836.8</ele>
        <time>2014-04-04T12:10:40Z</time>
      </trkpt>
      <trkpt lat="45.51206" lon="5.92631">
        <ele>836.9</ele>
        <time>2014-04-04T12:10:42Z</time>
      </trkpt>
      <trkpt lat="45.51206" lon="5.92631">
        <ele>836.8</ele>
        <time>2014-04-04T12:10:44Z</time>
      </trkpt>
      <trkpt lat="45.51205" lon="5.92632">
        <ele>836.6</ele>
        <time>2014-04-04T12:10:46Z</time>
      </trkpt>
      <trkpt lat="45.51205" lon="5.92633">
        <ele>836.3</ele>
        <time>2014-04-04T12:10:48Z</time>
      </trkpt>
      <trkpt lat="45.51205" lon="5.92634">
        <ele>836.2</ele>
        <time>2014-04-04T12:10:50Z</time>
      </trkpt>
      <trkpt lat="45.51205" lon="5.92635">
        <ele>835.9</ele>
        <time>2014-04-04T12:10:52Z</time>
      </trkpt>
      <trkpt lat="45.51205" lon="5.92637">
        <ele>835.5</ele>
        <time>2014-04-04T12:10:54Z</time>
      </trkpt>
      <trkpt lat="45.51204" lon="5.92638">
        <ele>835.3</ele>
        <time>2014-04-04T12:10:56Z</time>
      </trkpt>
      <trkpt lat="45.51204" lon="5.92638">
        <ele>835.2</ele>
        <time>2014-04-04T12:10:58Z</time>
      </trkpt>
      <trkpt lat="45.51204" lon="5.92639">
        <ele>835</ele>
        <time>2014-04-04T12:11:00Z</time>
      </trkpt>
      <trkpt lat="45.51203" lon="5.9264">
        <ele>834.6</ele>
        <time>2014-04-04T12:11:02Z</time>
      </trkpt>
      <trkpt lat="45.51203" lon="5.92641">
        <ele>834.5</ele>
        <time>2014-04-04T12:11:04Z</time>
      </trkpt>
      <trkpt lat="45.51203" lon="5.92641">
        <ele>834.4</ele>
        <time>2014-04-04T12:11:06Z</time>
      </trkpt>
      <trkpt lat="45.51202" lon="5.92642">
        <ele>834.2</ele>
        <time>2014-04-04T12:11:08Z</time>
      </trkpt>
      <trkpt lat="45.51202" lon="5.92642">
        <ele>834.2</ele>
        <time>2014-04-04T12:11:10Z</time>
      </trkpt>
      <trkpt lat="45.51202" lon="5.92642">
        <ele>834.3</ele>
        <time>2014-04-04T12:11:12Z</time>
      </trkpt>
      <trkpt lat="45.51203" lon="5.92639">
        <ele>835.1</ele>
        <time>2014-04-04T12:11:14Z</time>
      </trkpt>
      <trkpt lat="45.51205" lon="5.92636">
        <ele>835.6</ele>
        <time>2014-04-04T12:11:16Z</time>
      </trkpt>
      <trkpt lat="45.51207" lon="5.92634">
        <ele>835.9</ele>
        <time>2014-04-04T12:11:18Z</time>
      </trkpt>
      <trkpt lat="45.51206" lon="5.92634">
        <ele>836.1</ele>
        <time>2014-04-04T12:11:20Z</time>
      </trkpt>
      <trkpt lat="45.51206" lon="5.92632">
        <ele>836.5</ele>
        <time>2014-04-04T12:11:22Z</time>
      </trkpt>
      <trkpt lat="45.51207" lon="5.92632">
        <ele>836.4</ele>
        <time>2014-04-04T12:11:24Z</time>
      </trkpt>
      <trkpt lat="45.51207" lon="5.92632">
        <ele>836.5</ele>
        <time>2014-04-04T12:11:26Z</time>
      </trkpt>
      <trkpt lat="45.51208" lon="5.92631">
        <ele>836.7</ele>
        <time>2014-04-04T12:11:30Z</time>
      </trkpt>
      <trkpt lat="45.51208" lon="5.92632">
        <ele>836.5</ele>
        <time>2014-04-04T12:11:32Z</time>
      </trkpt>
      <trkpt lat="45.51207" lon="5.92632">
        <ele>836.3</ele>
        <time>2014-04-04T12:11:34Z</time>
      </trkpt>
      <trkpt lat="45.51208" lon="5.92632">
        <ele>836.3</ele>
        <time>2014-04-04T12:11:36Z</time>
      </trkpt>
      <trkpt lat="45.5121" lon="5.9263">
        <ele>836.6</ele>
        <time>2014-04-04T12:11:38Z</time>
      </trkpt>
      <trkpt lat="45.51213" lon="5.92628">
        <ele>836.8</ele>
        <time>2014-04-04T12:11:40Z</time>
      </trkpt>
      <trkpt lat="45.51213" lon="5.92628">
        <ele>836.8</ele>
        <time>2014-04-04T12:11:42Z</time>
      </trkpt>
      <trkpt lat="45.51215" lon="5.92627">
        <ele>836.8</ele>
        <time>2014-04-04T12:11:44Z</time>
      </trkpt>
      <trkpt lat="45.51216" lon="5.92627">
        <ele>836.7</ele>
        <time>2014-04-04T12:11:46Z</time>
      </trkpt>
      <trkpt lat="45.51217" lon="5.92627">
        <ele>836.7</ele>
        <time>2014-04-04T12:11:48Z</time>
      </trkpt>
      <trkpt lat="45.51217" lon="5.92626">
        <ele>836.7</ele>
        <time>2014-04-04T12:11:50Z</time>
      </trkpt>
      <trkpt lat="45.51217" lon="5.92627">
        <ele>836.6</ele>
        <time>2014-04-04T12:11:52Z</time>
      </trkpt>
      <trkpt lat="45.51217" lon="5.92627">
        <ele>836.6</ele>
        <time>2014-04-04T12:11:54Z</time>
      </trkpt>
      <trkpt lat="45.51217" lon="5.92627">
        <ele>836.5</ele>
        <time>2014-04-04T12:11:56Z</time>
      </trkpt>
      <trkpt lat="45.51216" lon="5.92628">
        <ele>836.4</ele>
        <time>2014-04-04T12:11:58Z</time>
      </trkpt>
      <trkpt lat="45.51215" lon="5.92629">
        <ele>836.2</ele>
        <time>2014-04-04T12:12:00Z</time>
      </trkpt>
      <trkpt lat="45.51215" lon="5.92629">
        <ele>836.3</ele>
        <time>2014-04-04T12:12:02Z</time>
      </trkpt>
      <trkpt lat="45.51214" lon="5.92629">
        <ele>836.4</ele>
        <time>2014-04-04T12:12:04Z</time>
      </trkpt>
      <trkpt lat="45.51214" lon="5.92629">
        <ele>836.5</ele>
        <time>2014-04-04T12:12:06Z</time>
      </trkpt>
      <trkpt lat="45.51213" lon="5.92628">
        <ele>836.7</ele>
        <time>2014-04-04T12:12:08Z</time>
      </trkpt>
      <trkpt lat="45.51213" lon="5.92628">
        <ele>836.7</ele>
        <time>2014-04-04T12:12:10Z</time>
      </trkpt>
      <trkpt lat="45.51213" lon="5.92628">
        <ele>836.7</ele>
        <time>2014-04-04T12:12:18Z</time>
      </trkpt>
      <trkpt lat="45.51214" lon="5.92628">
        <ele>836.6</ele>
        <time>2014-04-04T12:12:22Z</time>
      </trkpt>
      <trkpt lat="45.51215" lon="5.92629">
        <ele>836.4</ele>
        <time>2014-04-04T12:12:24Z</time>
      </trkpt>
      <trkpt lat="45.51216" lon="5.92629">
        <ele>836.2</ele>
        <time>2014-04-04T12:12:26Z</time>
      </trkpt>
      <trkpt lat="45.51216" lon="5.92629">
        <ele>836.2</ele>
        <time>2014-04-04T12:12:28Z</time>
      </trkpt>
      <trkpt lat="45.51217" lon="5.92629">
        <ele>836</ele>
        <time>2014-04-04T12:12:30Z</time>
      </trkpt>
      <trkpt lat="45.51218" lon="5.9263">
        <ele>835.8</ele>
        <time>2014-04-04T12:12:32Z</time>
      </trkpt>
      <trkpt lat="45.51218" lon="5.92629">
        <ele>835.8</ele>
        <time>2014-04-04T12:12:34Z</time>
      </trkpt>
      <trkpt lat="45.51219" lon="5.92629">
        <ele>835.8</ele>
        <time>2014-04-04T12:12:36Z</time>
      </trkpt>
      <trkpt lat="45.51219" lon="5.9263">
        <ele>835.7</ele>
        <time>2014-04-04T12:12:38Z</time>
      </trkpt>
      <trkpt lat="45.5122" lon="5.9263">
        <ele>835.6</ele>
        <time>2014-04-04T12:12:40Z</time>
      </trkpt>
      <trkpt lat="45.51219" lon="5.92629">
        <ele>835.7</ele>
        <time>2014-04-04T12:12:42Z</time>
      </trkpt>
      <trkpt lat="45.51219" lon="5.92629">
        <ele>835.9</ele>
        <time>2014-04-04T12:12:46Z</time>
      </trkpt>
      <trkpt lat="45.51219" lon="5.92629">
        <ele>836</ele>
        <time>2014-04-04T12:12:50Z</time>
      </trkpt>
      <trkpt lat="45.51219" lon="5.92628">
        <ele>836.1</ele>
        <time>2014-04-04T12:12:52Z</time>
      </trkpt>
      <trkpt lat="45.51218" lon="5.92628">
        <ele>836.2</ele>
        <time>2014-04-04T12:12:54Z</time>
      </trkpt>
      <trkpt lat="45.51218" lon="5.92628">
        <ele>836.3</ele>
        <time>2014-04-04T12:12:56Z</time>
      </trkpt>
      <trkpt lat="45.51218" lon="5.92628">
        <ele>836.3</ele>
        <time>2014-04-04T12:12:58Z</time>
      </trkpt>
      <trkpt lat="45.51218" lon="5.92628">
        <ele>836.3</ele>
        <time>2014-04-04T12:13:00Z</time>
      </trkpt>
      <trkpt lat="45.51218" lon="5.92627">
        <ele>836.4</ele>
        <time>2014-04-04T12:13:02Z</time>
      </trkpt>
      <trkpt lat="45.51218" lon="5.92627">
        <ele>836.5</ele>
        <time>2014-04-04T12:13:04Z</time>
      </trkpt>
      <trkpt lat="45.51218" lon="5.92627">
        <ele>836.5</ele>
        <time>2014-04-04T12:13:06Z</time>
      </trkpt>
      <trkpt lat="45.51218" lon="5.92627">
        <ele>836.6</ele>
        <time>2014-04-04T12:13:08Z</time>
      </trkpt>
      <trkpt lat="45.51217" lon="5.92627">
        <ele>836.7</ele>
        <time>2014-04-04T12:13:10Z</time>
      </trkpt>
      <trkpt lat="45.51217" lon="5.92627">
        <ele>836.7</ele>
        <time>2014-04-04T12:13:12Z</time>
      </trkpt>
      <trkpt lat="45.51217" lon="5.92626">
        <ele>836.8</ele>
        <time>2014-04-04T12:13:16Z</time>
      </trkpt>
      <trkpt lat="45.51216" lon="5.92626">
        <ele>836.8</ele>
        <time>2014-04-04T12:13:18Z</time>
      </trkpt>
      <trkpt lat="45.51216" lon="5.92626">
        <ele>836.9</ele>
        <time>2014-04-04T12:13:20Z</time>
      </trkpt>
      <trkpt lat="45.51216" lon="5.92626">
        <ele>837</ele>
        <time>2014-04-04T12:13:22Z</time>
      </trkpt>
      <trkpt lat="45.51215" lon="5.92625">
        <ele>837.2</ele>
        <time>2014-04-04T12:13:24Z</time>
      </trkpt>
      <trkpt lat="45.51215" lon="5.92625">
        <ele>837.3</ele>
        <time>2014-04-04T12:13:26Z</time>
      </trkpt>
      <trkpt lat="45.51215" lon="5.92625">
        <ele>837.3</ele>
        <time>2014-04-04T12:13:28Z</time>
      </trkpt>
      <trkpt lat="45.51215" lon="5.92625">
        <ele>837.4</ele>
        <time>2014-04-04T12:13:30Z</time>
      </trkpt>
      <trkpt lat="45.51215" lon="5.92624">
        <ele>837.5</ele>
        <time>2014-04-04T12:13:32Z</time>
      </trkpt>
      <trkpt lat="45.51215" lon="5.92624">
        <ele>837.5</ele>
        <time>2014-04-04T12:13:36Z</time>
      </trkpt>
      <trkpt lat="45.51215" lon="5.92624">
        <ele>837.6</ele>
        <time>2014-04-04T12:13:38Z</time>
      </trkpt>
      <trkpt lat="45.51215" lon="5.92624">
        <ele>837.6</ele>
        <time>2014-04-04T12:13:42Z</time>
      </trkpt>
      <trkpt lat="45.51214" lon="5.92624">
        <ele>837.7</ele>
        <time>2014-04-04T12:13:44Z</time>
      </trkpt>
      <trkpt lat="45.51215" lon="5.92624">
        <ele>837.6</ele>
        <time>2014-04-04T12:13:46Z</time>
      </trkpt>
      <trkpt lat="45.51215" lon="5.92624">
        <ele>837.6</ele>
        <time>2014-04-04T12:13:48Z</time>
      </trkpt>
      <trkpt lat="45.51216" lon="5.92624">
        <ele>837.4</ele>
        <time>2014-04-04T12:13:54Z</time>
      </trkpt>
      <trkpt lat="45.51216" lon="5.92624">
        <ele>837.4</ele>
        <time>2014-04-04T12:13:56Z</time>
      </trkpt>
      <trkpt lat="45.51216" lon="5.92625">
        <ele>837.3</ele>
        <time>2014-04-04T12:13:58Z</time>
      </trkpt>
      <trkpt lat="45.51217" lon="5.92625">
        <ele>837.2</ele>
        <time>2014-04-04T12:14:00Z</time>
      </trkpt>
      <trkpt lat="45.51217" lon="5.92625">
        <ele>837.1</ele>
        <time>2014-04-04T12:14:02Z</time>
      </trkpt>
      <trkpt lat="45.51217" lon="5.92625">
        <ele>837</ele>
        <time>2014-04-04T12:14:04Z</time>
      </trkpt>
      <trkpt lat="45.51218" lon="5.92626">
        <ele>836.9</ele>
        <time>2014-04-04T12:14:06Z</time>
      </trkpt>
      <trkpt lat="45.51218" lon="5.92626">
        <ele>836.7</ele>
        <time>2014-04-04T12:14:08Z</time>
      </trkpt>
      <trkpt lat="45.51219" lon="5.92626">
        <ele>836.6</ele>
        <time>2014-04-04T12:14:10Z</time>
      </trkpt>
      <trkpt lat="45.51219" lon="5.92626">
        <ele>836.6</ele>
        <time>2014-04-04T12:14:12Z</time>
      </trkpt>
      <trkpt lat="45.51218" lon="5.92626">
        <ele>836.8</ele>
        <time>2014-04-04T12:14:18Z</time>
      </trkpt>
      <trkpt lat="45.51217" lon="5.92625">
        <ele>837.2</ele>
        <time>2014-04-04T12:14:24Z</time>
      </trkpt>
      <trkpt lat="45.51216" lon="5.92625">
        <ele>837.2</ele>
        <time>2014-04-04T12:14:26Z</time>
      </trkpt>
      <trkpt lat="45.51216" lon="5.92625">
        <ele>837.2</ele>
        <time>2014-04-04T12:14:28Z</time>
      </trkpt>
      <trkpt lat="45.51216" lon="5.92625">
        <ele>837.3</ele>
        <time>2014-04-04T12:14:30Z</time>
      </trkpt>
      <trkpt lat="45.51215" lon="5.92625">
        <ele>837.4</ele>
        <time>2014-04-04T12:14:32Z</time>
      </trkpt>
      <trkpt lat="45.51215" lon="5.92624">
        <ele>837.5</ele>
        <time>2014-04-04T12:14:34Z</time>
      </trkpt>
      <trkpt lat="45.51215" lon="5.92624">
        <ele>837.6</ele>
        <time>2014-04-04T12:14:36Z</time>
      </trkpt>
      <trkpt lat="45.51214" lon="5.92623">
        <ele>837.8</ele>
        <time>2014-04-04T12:14:38Z</time>
      </trkpt>
      <trkpt lat="45.51214" lon="5.92623">
        <ele>837.9</ele>
        <time>2014-04-04T12:14:40Z</time>
      </trkpt>
      <trkpt lat="45.51214" lon="5.92623">
        <ele>838</ele>
        <time>2014-04-04T12:14:44Z</time>
      </trkpt>
      <trkpt lat="45.51213" lon="5.92623">
        <ele>838.1</ele>
        <time>2014-04-04T12:14:46Z</time>
      </trkpt>
      <trkpt lat="45.51213" lon="5.92622">
        <ele>838.2</ele>
        <time>2014-04-04T12:14:50Z</time>
      </trkpt>
      <trkpt lat="45.51213" lon="5.92622">
        <ele>838.2</ele>
        <time>2014-04-04T12:14:52Z</time>
      </trkpt>
      <trkpt lat="45.51213" lon="5.92622">
        <ele>838.2</ele>
        <time>2014-04-04T12:14:54Z</time>
      </trkpt>
      <trkpt lat="45.51213" lon="5.92622">
        <ele>838.2</ele>
        <time>2014-04-04T12:15:00Z</time>
      </trkpt>
      <trkpt lat="45.51213" lon="5.92623">
        <ele>838</ele>
        <time>2014-04-04T12:15:02Z</time>
      </trkpt>
      <trkpt lat="45.51214" lon="5.92623">
        <ele>838</ele>
        <time>2014-04-04T12:15:04Z</time>
      </trkpt>
      <trkpt lat="45.51214" lon="5.92623">
        <ele>837.9</ele>
        <time>2014-04-04T12:15:06Z</time>
      </trkpt>
      <trkpt lat="45.51215" lon="5.92624">
        <ele>837.7</ele>
        <time>2014-04-04T12:15:08Z</time>
      </trkpt>
      <trkpt lat="45.51215" lon="5.92624">
        <ele>837.5</ele>
        <time>2014-04-04T12:15:10Z</time>
      </trkpt>
      <trkpt lat="45.51215" lon="5.92624">
        <ele>837.6</ele>
        <time>2014-04-04T12:15:16Z</time>
      </trkpt>
      <trkpt lat="45.51215" lon="5.92624">
        <ele>837.6</ele>
        <time>2014-04-04T12:15:20Z</time>
      </trkpt>
      <trkpt lat="45.51214" lon="5.92624">
        <ele>837.7</ele>
        <time>2014-04-04T12:15:22Z</time>
      </trkpt>
      <trkpt lat="45.51214" lon="5.92624">
        <ele>837.7</ele>
        <time>2014-04-04T12:15:26Z</time>
      </trkpt>
      <trkpt lat="45.51214" lon="5.92624">
        <ele>837.8</ele>
        <time>2014-04-04T12:15:30Z</time>
      </trkpt>
      <trkpt lat="45.51214" lon="5.92623">
        <ele>837.8</ele>
        <time>2014-04-04T12:15:32Z</time>
      </trkpt>
      <trkpt lat="45.51214" lon="5.92623">
        <ele>837.8</ele>
        <time>2014-04-04T12:15:34Z</time>
      </trkpt>
      <trkpt lat="45.51214" lon="5.92623">
        <ele>838</ele>
        <time>2014-04-04T12:15:38Z</time>
      </trkpt>
      <trkpt lat="45.51214" lon="5.92624">
        <ele>837.6</ele>
        <time>2014-04-04T12:15:40Z</time>
      </trkpt>
      <trkpt lat="45.51214" lon="5.92625">
        <ele>837.5</ele>
        <time>2014-04-04T12:15:42Z</time>
      </trkpt>
      <trkpt lat="45.51214" lon="5.92625">
        <ele>837.4</ele>
        <time>2014-04-04T12:15:44Z</time>
      </trkpt>
      <trkpt lat="45.51213" lon="5.92625">
        <ele>837.6</ele>
        <time>2014-04-04T12:15:46Z</time>
      </trkpt>
      <trkpt lat="45.51213" lon="5.92624">
        <ele>837.7</ele>
        <time>2014-04-04T12:15:48Z</time>
      </trkpt>
      <trkpt lat="45.51212" lon="5.92624">
        <ele>837.8</ele>
        <time>2014-04-04T12:15:50Z</time>
      </trkpt>
      <trkpt lat="45.51212" lon="5.92625">
        <ele>837.7</ele>
        <time>2014-04-04T12:15:54Z</time>
      </trkpt>
      <trkpt lat="45.51211" lon="5.92625">
        <ele>837.6</ele>
        <time>2014-04-04T12:15:56Z</time>
      </trkpt>
      <trkpt lat="45.51211" lon="5.92626">
        <ele>837.5</ele>
        <time>2014-04-04T12:15:58Z</time>
      </trkpt>
      <trkpt lat="45.51211" lon="5.92627">
        <ele>837.3</ele>
        <time>2014-04-04T12:16:00Z</time>
      </trkpt>
      <trkpt lat="45.51211" lon="5.92627">
        <ele>837.2</ele>
        <time>2014-04-04T12:16:02Z</time>
      </trkpt>
      <trkpt lat="45.51211" lon="5.92627">
        <ele>837.2</ele>
        <time>2014-04-04T12:16:04Z</time>
      </trkpt>
      <trkpt lat="45.51211" lon="5.92627">
        <ele>837.3</ele>
        <time>2014-04-04T12:16:06Z</time>
      </trkpt>
      <trkpt lat="45.51211" lon="5.92626">
        <ele>837.4</ele>
        <time>2014-04-04T12:16:08Z</time>
      </trkpt>
      <trkpt lat="45.51211" lon="5.92626">
        <ele>837.5</ele>
        <time>2014-04-04T12:16:10Z</time>
      </trkpt>
      <trkpt lat="45.51211" lon="5.92626">
        <ele>837.6</ele>
        <time>2014-04-04T12:16:12Z</time>
      </trkpt>
      <trkpt lat="45.5121" lon="5.92626">
        <ele>837.6</ele>
        <time>2014-04-04T12:16:14Z</time>
      </trkpt>
      <trkpt lat="45.5121" lon="5.92626">
        <ele>837.6</ele>
        <time>2014-04-04T12:16:16Z</time>
      </trkpt>
      <trkpt lat="45.5121" lon="5.92626">
        <ele>837.6</ele>
        <time>2014-04-04T12:16:18Z</time>
      </trkpt>
      <trkpt lat="45.5121" lon="5.92626">
        <ele>837.5</ele>
        <time>2014-04-04T12:16:20Z</time>
      </trkpt>
      <trkpt lat="45.5121" lon="5.92627">
        <ele>837.5</ele>
        <time>2014-04-04T12:16:22Z</time>
      </trkpt>
      <trkpt lat="45.5121" lon="5.92628">
        <ele>837.2</ele>
        <time>2014-04-04T12:16:24Z</time>
      </trkpt>
      <trkpt lat="45.5121" lon="5.92628">
        <ele>837</ele>
        <time>2014-04-04T12:16:26Z</time>
      </trkpt>
      <trkpt lat="45.5121" lon="5.92629">
        <ele>836.8</ele>
        <time>2014-04-04T12:16:28Z</time>
      </trkpt>
      <trkpt lat="45.51211" lon="5.9263">
        <ele>836.5</ele>
        <time>2014-04-04T12:16:30Z</time>
      </trkpt>
      <trkpt lat="45.51212" lon="5.9263">
        <ele>836.3</ele>
        <time>2014-04-04T12:16:32Z</time>
      </trkpt>
      <trkpt lat="45.51212" lon="5.9263">
        <ele>836.3</ele>
        <time>2014-04-04T12:16:34Z</time>
      </trkpt>
      <trkpt lat="45.51214" lon="5.92629">
        <ele>836.4</ele>
        <time>2014-04-04T12:16:36Z</time>
      </trkpt>
      <trkpt lat="45.51214" lon="5.92628">
        <ele>836.6</ele>
        <time>2014-04-04T12:16:38Z</time>
      </trkpt>
      <trkpt lat="45.51214" lon="5.92628">
        <ele>836.6</ele>
        <time>2014-04-04T12:16:40Z</time>
      </trkpt>
      <trkpt lat="45.51214" lon="5.9263">
        <ele>836.1</ele>
        <time>2014-04-04T12:16:42Z</time>
      </trkpt>
      <trkpt lat="45.51214" lon="5.92632">
        <ele>835.6</ele>
        <time>2014-04-04T12:16:44Z</time>
      </trkpt>
      <trkpt lat="45.51214" lon="5.92633">
        <ele>835.4</ele>
        <time>2014-04-04T12:16:46Z</time>
      </trkpt>
      <trkpt lat="45.51214" lon="5.92633">
        <ele>835.3</ele>
        <time>2014-04-04T12:16:50Z</time>
      </trkpt>
      <trkpt lat="45.51216" lon="5.92634">
        <ele>835</ele>
        <time>2014-04-04T12:16:52Z</time>
      </trkpt>
      <trkpt lat="45.51216" lon="5.92634">
        <ele>834.9</ele>
        <time>2014-04-04T12:16:54Z</time>
      </trkpt>
      <trkpt lat="45.51216" lon="5.92634">
        <ele>834.8</ele>
        <time>2014-04-04T12:16:56Z</time>
      </trkpt>
      <trkpt lat="45.51218" lon="5.92635">
        <ele>834.6</ele>
        <time>2014-04-04T12:16:58Z</time>
      </trkpt>
      <trkpt lat="45.51219" lon="5.92635">
        <ele>834.3</ele>
        <time>2014-04-04T12:17:00Z</time>
      </trkpt>
      <trkpt lat="45.51219" lon="5.92636">
        <ele>834.2</ele>
        <time>2014-04-04T12:17:02Z</time>
      </trkpt>
      <trkpt lat="45.51219" lon="5.92636">
        <ele>834.2</ele>
        <time>2014-04-04T12:17:04Z</time>
      </trkpt>
      <trkpt lat="45.51219" lon="5.92633">
        <ele>834.8</ele>
        <time>2014-04-04T12:17:06Z</time>
      </trkpt>
      <trkpt lat="45.51213" lon="5.92634">
        <ele>835.1</ele>
        <time>2014-04-04T12:17:08Z</time>
      </trkpt>
      <trkpt lat="45.51212" lon="5.92635">
        <ele>835.2</ele>
        <time>2014-04-04T12:17:10Z</time>
      </trkpt>
      <trkpt lat="45.5121" lon="5.92635">
        <ele>835.4</ele>
        <time>2014-04-04T12:17:12Z</time>
      </trkpt>
      <trkpt lat="45.51208" lon="5.92636">
        <ele>835.2</ele>
        <time>2014-04-04T12:17:14Z</time>
      </trkpt>
      <trkpt lat="45.51205" lon="5.92639">
        <ele>835</ele>
        <time>2014-04-04T12:17:16Z</time>
      </trkpt>
      <trkpt lat="45.51204" lon="5.92639">
        <ele>835</ele>
        <time>2014-04-04T12:17:18Z</time>
      </trkpt>
      <trkpt lat="45.51204" lon="5.92638">
        <ele>835.3</ele>
        <time>2014-04-04T12:17:20Z</time>
      </trkpt>
      <trkpt lat="45.51204" lon="5.92636">
        <ele>835.8</ele>
        <time>2014-04-04T12:17:22Z</time>
      </trkpt>
      <trkpt lat="45.51205" lon="5.92634">
        <ele>836.1</ele>
        <time>2014-04-04T12:17:24Z</time>
      </trkpt>
      <trkpt lat="45.51206" lon="5.92633">
        <ele>836.2</ele>
        <time>2014-04-04T12:17:26Z</time>
      </trkpt>
      <trkpt lat="45.51206" lon="5.92632">
        <ele>836.5</ele>
        <time>2014-04-04T12:17:28Z</time>
      </trkpt>
      <trkpt lat="45.51207" lon="5.9263">
        <ele>836.8</ele>
        <time>2014-04-04T12:17:30Z</time>
      </trkpt>
      <trkpt lat="45.51207" lon="5.92629">
        <ele>837</ele>
        <time>2014-04-04T12:17:32Z</time>
      </trkpt>
      <trkpt lat="45.51207" lon="5.92629">
        <ele>837.1</ele>
        <time>2014-04-04T12:17:34Z</time>
      </trkpt>
      <trkpt lat="45.51208" lon="5.92628">
        <ele>837.4</ele>
        <time>2014-04-04T12:17:36Z</time>
      </trkpt>
      <trkpt lat="45.51208" lon="5.92627">
        <ele>837.6</ele>
        <time>2014-04-04T12:17:38Z</time>
      </trkpt>
      <trkpt lat="45.51208" lon="5.92627">
        <ele>837.7</ele>
        <time>2014-04-04T12:17:40Z</time>
      </trkpt>
      <trkpt lat="45.51208" lon="5.92626">
        <ele>837.8</ele>
        <time>2014-04-04T12:17:42Z</time>
      </trkpt>
      <trkpt lat="45.51208" lon="5.92626">
        <ele>837.9</ele>
        <time>2014-04-04T12:17:44Z</time>
      </trkpt>
      <trkpt lat="45.51208" lon="5.92625">
        <ele>838.1</ele>
        <time>2014-04-04T12:17:46Z</time>
      </trkpt>
      <trkpt lat="45.51208" lon="5.92625">
        <ele>838.1</ele>
        <time>2014-04-04T12:17:48Z</time>
      </trkpt>
      <trkpt lat="45.51209" lon="5.92624">
        <ele>838.3</ele>
        <time>2014-04-04T12:17:50Z</time>
      </trkpt>
      <trkpt lat="45.5121" lon="5.92623">
        <ele>838.3</ele>
        <time>2014-04-04T12:17:52Z</time>
      </trkpt>
      <trkpt lat="45.51211" lon="5.92622">
        <ele>838.6</ele>
        <time>2014-04-04T12:17:54Z</time>
      </trkpt>
      <trkpt lat="45.51211" lon="5.92621">
        <ele>838.6</ele>
        <time>2014-04-04T12:17:56Z</time>
      </trkpt>
      <trkpt lat="45.51212" lon="5.92621">
        <ele>838.5</ele>
        <time>2014-04-04T12:17:58Z</time>
      </trkpt>
      <trkpt lat="45.51212" lon="5.92621">
        <ele>838.7</ele>
        <time>2014-04-04T12:18:00Z</time>
      </trkpt>
      <trkpt lat="45.51211" lon="5.92623">
        <ele>838.3</ele>
        <time>2014-04-04T12:18:02Z</time>
      </trkpt>
      <trkpt lat="45.5121" lon="5.92623">
        <ele>838.3</ele>
        <time>2014-04-04T12:18:04Z</time>
      </trkpt>
      <trkpt lat="45.51208" lon="5.92623">
        <ele>838.5</ele>
        <time>2014-04-04T12:18:06Z</time>
      </trkpt>
      <trkpt lat="45.51206" lon="5.92623">
        <ele>838.8</ele>
        <time>2014-04-04T12:18:08Z</time>
      </trkpt>
      <trkpt lat="45.51205" lon="5.92623">
        <ele>838.9</ele>
        <time>2014-04-04T12:18:10Z</time>
      </trkpt>
      <trkpt lat="45.51204" lon="5.92624">
        <ele>838.8</ele>
        <time>2014-04-04T12:18:12Z</time>
      </trkpt>
      <trkpt lat="45.51202" lon="5.92626">
        <ele>838.4</ele>
        <time>2014-04-04T12:18:14Z</time>
      </trkpt>
      <trkpt lat="45.51201" lon="5.92628">
        <ele>838.1</ele>
        <time>2014-04-04T12:18:16Z</time>
      </trkpt>
      <trkpt lat="45.51201" lon="5.92628">
        <ele>838.2</ele>
        <time>2014-04-04T12:18:18Z</time>
      </trkpt>
      <trkpt lat="45.51203" lon="5.92627">
        <ele>838</ele>
        <time>2014-04-04T12:18:20Z</time>
      </trkpt>
      <trkpt lat="45.51205" lon="5.92623">
        <ele>838.8</ele>
        <time>2014-04-04T12:18:22Z</time>
      </trkpt>
      <trkpt lat="45.51206" lon="5.92622">
        <ele>839.1</ele>
        <time>2014-04-04T12:18:24Z</time>
      </trkpt>
      <trkpt lat="45.51206" lon="5.92622">
        <ele>839.1</ele>
        <time>2014-04-04T12:18:26Z</time>
      </trkpt>
      <trkpt lat="45.51208" lon="5.92622">
        <ele>838.8</ele>
        <time>2014-04-04T12:18:28Z</time>
      </trkpt>
      <trkpt lat="45.5121" lon="5.92623">
        <ele>838.3</ele>
        <time>2014-04-04T12:18:30Z</time>
      </trkpt>
      <trkpt lat="45.51211" lon="5.92624">
        <ele>838.1</ele>
        <time>2014-04-04T12:18:32Z</time>
      </trkpt>
      <trkpt lat="45.51214" lon="5.92624">
        <ele>837.7</ele>
        <time>2014-04-04T12:18:34Z</time>
      </trkpt>
      <trkpt lat="45.51217" lon="5.92624">
        <ele>837.3</ele>
        <time>2014-04-04T12:18:36Z</time>
      </trkpt>
      <trkpt lat="45.5122" lon="5.92624">
        <ele>837.2</ele>
        <time>2014-04-04T12:18:38Z</time>
      </trkpt>
      <trkpt lat="45.51221" lon="5.92623">
        <ele>837.1</ele>
        <time>2014-04-04T12:18:40Z</time>
      </trkpt>
      <trkpt lat="45.51223" lon="5.92622">
        <ele>837.1</ele>
        <time>2014-04-04T12:18:42Z</time>
      </trkpt>
      <trkpt lat="45.51229" lon="5.92621">
        <ele>837</ele>
        <time>2014-04-04T12:18:44Z</time>
      </trkpt>
      <trkpt lat="45.51234" lon="5.92619">
        <ele>836.9</ele>
        <time>2014-04-04T12:18:46Z</time>
      </trkpt>
      <trkpt lat="45.51236" lon="5.92619">
        <ele>836.8</ele>
        <time>2014-04-04T12:18:48Z</time>
      </trkpt>
      <trkpt lat="45.51239" lon="5.92619">
        <ele>836.5</ele>
        <time>2014-04-04T12:18:50Z</time>
      </trkpt>
      <trkpt lat="45.51243" lon="5.9262">
        <ele>835.8</ele>
        <time>2014-04-04T12:18:52Z</time>
      </trkpt>
      <trkpt lat="45.51245" lon="5.9262">
        <ele>835.6</ele>
        <time>2014-04-04T12:18:54Z</time>
      </trkpt>
      <trkpt lat="45.51248" lon="5.9262">
        <ele>835.3</ele>
        <time>2014-04-04T12:18:56Z</time>
      </trkpt>
      <trkpt lat="45.51253" lon="5.9262">
        <ele>834.9</ele>
        <time>2014-04-04T12:18:58Z</time>
      </trkpt>
      <trkpt lat="45.51257" lon="5.92618">
        <ele>834.8</ele>
        <time>2014-04-04T12:19:00Z</time>
      </trkpt>
      <trkpt lat="45.51259" lon="5.92618">
        <ele>834.6</ele>
        <time>2014-04-04T12:19:02Z</time>
      </trkpt>
      <trkpt lat="45.51264" lon="5.92616">
        <ele>834.5</ele>
        <time>2014-04-04T12:19:04Z</time>
      </trkpt>
      <trkpt lat="45.51271" lon="5.92611">
        <ele>834.8</ele>
        <time>2014-04-04T12:19:06Z</time>
      </trkpt>
      <trkpt lat="45.51279" lon="5.92605">
        <ele>834.2</ele>
        <time>2014-04-04T12:19:08Z</time>
      </trkpt>
      <trkpt lat="45.51281" lon="5.92604">
        <ele>834.2</ele>
        <time>2014-04-04T12:19:10Z</time>
      </trkpt>
      <trkpt lat="45.51287" lon="5.926">
        <ele>834.4</ele>
        <time>2014-04-04T12:19:12Z</time>
      </trkpt>
      <trkpt lat="45.51292" lon="5.92596">
        <ele>834.9</ele>
        <time>2014-04-04T12:19:14Z</time>
      </trkpt>
      <trkpt lat="45.51295" lon="5.92596">
        <ele>835</ele>
        <time>2014-04-04T12:19:16Z</time>
      </trkpt>
      <trkpt lat="45.51297" lon="5.92596">
        <ele>835.1</ele>
        <time>2014-04-04T12:19:18Z</time>
      </trkpt>
      <trkpt lat="45.513" lon="5.92597">
        <ele>835</ele>
        <time>2014-04-04T12:19:20Z</time>
      </trkpt>
      <trkpt lat="45.51301" lon="5.92597">
        <ele>835</ele>
        <time>2014-04-04T12:19:22Z</time>
      </trkpt>
      <trkpt lat="45.51304" lon="5.92596">
        <ele>835.2</ele>
        <time>2014-04-04T12:19:24Z</time>
      </trkpt>
      <trkpt lat="45.51306" lon="5.92595">
        <ele>835.5</ele>
        <time>2014-04-04T12:19:26Z</time>
      </trkpt>
      <trkpt lat="45.5131" lon="5.92594">
        <ele>836.7</ele>
        <time>2014-04-04T12:19:28Z</time>
      </trkpt>
      <trkpt lat="45.51318" lon="5.92593">
        <ele>838.2</ele>
        <time>2014-04-04T12:19:30Z</time>
      </trkpt>
      <trkpt lat="45.5132" lon="5.92593">
        <ele>838.6</ele>
        <time>2014-04-04T12:19:32Z</time>
      </trkpt>
      <trkpt lat="45.51323" lon="5.92594">
        <ele>839.1</ele>
        <time>2014-04-04T12:19:34Z</time>
      </trkpt>
      <trkpt lat="45.51329" lon="5.92597">
        <ele>839.8</ele>
        <time>2014-04-04T12:19:36Z</time>
      </trkpt>
      <trkpt lat="45.51333" lon="5.92599">
        <ele>840.1</ele>
        <time>2014-04-04T12:19:38Z</time>
      </trkpt>
      <trkpt lat="45.51335" lon="5.926">
        <ele>840.4</ele>
        <time>2014-04-04T12:19:40Z</time>
      </trkpt>
      <trkpt lat="45.51339" lon="5.92602">
        <ele>841.1</ele>
        <time>2014-04-04T12:19:42Z</time>
      </trkpt>
      <trkpt lat="45.51344" lon="5.92605">
        <ele>841.8</ele>
        <time>2014-04-04T12:19:44Z</time>
      </trkpt>
      <trkpt lat="45.51347" lon="5.92607">
        <ele>842.4</ele>
        <time>2014-04-04T12:19:46Z</time>
      </trkpt>
      <trkpt lat="45.51349" lon="5.92608">
        <ele>842.6</ele>
        <time>2014-04-04T12:19:48Z</time>
      </trkpt>
      <trkpt lat="45.51352" lon="5.9261">
        <ele>842.9</ele>
        <time>2014-04-04T12:19:50Z</time>
      </trkpt>
      <trkpt lat="45.51357" lon="5.92613">
        <ele>843.6</ele>
        <time>2014-04-04T12:19:52Z</time>
      </trkpt>
      <trkpt lat="45.5136" lon="5.92615">
        <ele>844.2</ele>
        <time>2014-04-04T12:19:54Z</time>
      </trkpt>
      <trkpt lat="45.51361" lon="5.92615">
        <ele>844.4</ele>
        <time>2014-04-04T12:19:56Z</time>
      </trkpt>
      <trkpt lat="45.51367" lon="5.92618">
        <ele>845.4</ele>
        <time>2014-04-04T12:19:58Z</time>
      </trkpt>
      <trkpt lat="45.5137" lon="5.92619">
        <ele>846</ele>
        <time>2014-04-04T12:20:00Z</time>
      </trkpt>
      <trkpt lat="45.51371" lon="5.9262">
        <ele>846.2</ele>
        <time>2014-04-04T12:20:02Z</time>
      </trkpt>
      <trkpt lat="45.51374" lon="5.92621">
        <ele>846.8</ele>
        <time>2014-04-04T12:20:04Z</time>
      </trkpt>
      <trkpt lat="45.51378" lon="5.92623">
        <ele>847.6</ele>
        <time>2014-04-04T12:20:06Z</time>
      </trkpt>
      <trkpt lat="45.51381" lon="5.92626">
        <ele>848</ele>
        <time>2014-04-04T12:20:08Z</time>
      </trkpt>
      <trkpt lat="45.51383" lon="5.92627">
        <ele>848.1</ele>
        <time>2014-04-04T12:20:10Z</time>
      </trkpt>
      <trkpt lat="45.51386" lon="5.9263">
        <ele>848.4</ele>
        <time>2014-04-04T12:20:12Z</time>
      </trkpt>
      <trkpt lat="45.5139" lon="5.92635">
        <ele>848.7</ele>
        <time>2014-04-04T12:20:14Z</time>
      </trkpt>
      <trkpt lat="45.51392" lon="5.9264">
        <ele>848.6</ele>
        <time>2014-04-04T12:20:16Z</time>
      </trkpt>
      <trkpt lat="45.51392" lon="5.92642">
        <ele>848.7</ele>
        <time>2014-04-04T12:20:18Z</time>
      </trkpt>
      <trkpt lat="45.51394" lon="5.92647">
        <ele>848.9</ele>
        <time>2014-04-04T12:20:20Z</time>
      </trkpt>
      <trkpt lat="45.51397" lon="5.92651">
        <ele>849.5</ele>
        <time>2014-04-04T12:20:22Z</time>
      </trkpt>
      <trkpt lat="45.51399" lon="5.92651">
        <ele>849.8</ele>
        <time>2014-04-04T12:20:24Z</time>
      </trkpt>
      <trkpt lat="45.51401" lon="5.9265">
        <ele>850.3</ele>
        <time>2014-04-04T12:20:26Z</time>
      </trkpt>
      <trkpt lat="45.51402" lon="5.92649">
        <ele>850.7</ele>
        <time>2014-04-04T12:20:28Z</time>
      </trkpt>
      <trkpt lat="45.51403" lon="5.92645">
        <ele>851.2</ele>
        <time>2014-04-04T12:20:30Z</time>
      </trkpt>
      <trkpt lat="45.51403" lon="5.92644">
        <ele>851.2</ele>
        <time>2014-04-04T12:20:32Z</time>
      </trkpt>
      <trkpt lat="45.51403" lon="5.92641">
        <ele>851.4</ele>
        <time>2014-04-04T12:20:34Z</time>
      </trkpt>
      <trkpt lat="45.51402" lon="5.92639">
        <ele>851.2</ele>
        <time>2014-04-04T12:20:36Z</time>
      </trkpt>
      <trkpt lat="45.514" lon="5.92636">
        <ele>851.3</ele>
        <time>2014-04-04T12:20:38Z</time>
      </trkpt>
      <trkpt lat="45.514" lon="5.92635">
        <ele>851.5</ele>
        <time>2014-04-04T12:20:40Z</time>
      </trkpt>
      <trkpt lat="45.514" lon="5.92632">
        <ele>851.9</ele>
        <time>2014-04-04T12:20:42Z</time>
      </trkpt>
      <trkpt lat="45.514" lon="5.92627">
        <ele>852.7</ele>
        <time>2014-04-04T12:20:44Z</time>
      </trkpt>
      <trkpt lat="45.514" lon="5.92622">
        <ele>853.4</ele>
        <time>2014-04-04T12:20:46Z</time>
      </trkpt>
      <trkpt lat="45.514" lon="5.9262">
        <ele>853.7</ele>
        <time>2014-04-04T12:20:48Z</time>
      </trkpt>
      <trkpt lat="45.51398" lon="5.92614">
        <ele>854.3</ele>
        <time>2014-04-04T12:20:50Z</time>
      </trkpt>
      <trkpt lat="45.51396" lon="5.92611">
        <ele>853.9</ele>
        <time>2014-04-04T12:20:52Z</time>
      </trkpt>
      <trkpt lat="45.51395" lon="5.9261">
        <ele>854.1</ele>
        <time>2014-04-04T12:20:54Z</time>
      </trkpt>
      <trkpt lat="45.51394" lon="5.92606">
        <ele>854.3</ele>
        <time>2014-04-04T12:20:56Z</time>
      </trkpt>
      <trkpt lat="45.51392" lon="5.926">
        <ele>855</ele>
        <time>2014-04-04T12:20:58Z</time>
      </trkpt>
      <trkpt lat="45.51392" lon="5.92594">
        <ele>856</ele>
        <time>2014-04-04T12:21:00Z</time>
      </trkpt>
      <trkpt lat="45.51391" lon="5.92591">
        <ele>856.5</ele>
        <time>2014-04-04T12:21:02Z</time>
      </trkpt>
      <trkpt lat="45.51391" lon="5.92585">
        <ele>857.5</ele>
        <time>2014-04-04T12:21:04Z</time>
      </trkpt>
      <trkpt lat="45.51389" lon="5.92578">
        <ele>858.5</ele>
        <time>2014-04-04T12:21:06Z</time>
      </trkpt>
      <trkpt lat="45.51387" lon="5.92574">
        <ele>859.4</ele>
        <time>2014-04-04T12:21:08Z</time>
      </trkpt>
      <trkpt lat="45.51386" lon="5.92572">
        <ele>859.7</ele>
        <time>2014-04-04T12:21:10Z</time>
      </trkpt>
      <trkpt lat="45.51385" lon="5.92569">
        <ele>860.3</ele>
        <time>2014-04-04T12:21:12Z</time>
      </trkpt>
      <trkpt lat="45.51382" lon="5.92566">
        <ele>861</ele>
        <time>2014-04-04T12:21:14Z</time>
      </trkpt>
      <trkpt lat="45.51381" lon="5.92565">
        <ele>861</ele>
        <time>2014-04-04T12:21:16Z</time>
      </trkpt>
      <trkpt lat="45.51381" lon="5.92566">
        <ele>860.9</ele>
        <time>2014-04-04T12:21:20Z</time>
      </trkpt>
      <trkpt lat="45.51381" lon="5.92566">
        <ele>860.8</ele>
        <time>2014-04-04T12:21:22Z</time>
      </trkpt>
      <trkpt lat="45.51381" lon="5.92565">
        <ele>860.9</ele>
        <time>2014-04-04T12:21:24Z</time>
      </trkpt>
      <trkpt lat="45.51377" lon="5.92565">
        <ele>860.4</ele>
        <time>2014-04-04T12:21:26Z</time>
      </trkpt>
      <trkpt lat="45.51371" lon="5.92564">
        <ele>859.6</ele>
        <time>2014-04-04T12:21:28Z</time>
      </trkpt>
      <trkpt lat="45.51366" lon="5.92563">
        <ele>859.4</ele>
        <time>2014-04-04T12:21:30Z</time>
      </trkpt>
      <trkpt lat="45.51363" lon="5.92562">
        <ele>859.3</ele>
        <time>2014-04-04T12:21:32Z</time>
      </trkpt>
      <trkpt lat="45.51358" lon="5.92559">
        <ele>858.9</ele>
        <time>2014-04-04T12:21:34Z</time>
      </trkpt>
      <trkpt lat="45.51352" lon="5.92556">
        <ele>858.2</ele>
        <time>2014-04-04T12:21:36Z</time>
      </trkpt>
      <trkpt lat="45.51347" lon="5.92551">
        <ele>858.1</ele>
        <time>2014-04-04T12:21:38Z</time>
      </trkpt>
      <trkpt lat="45.51346" lon="5.92549">
        <ele>858.3</ele>
        <time>2014-04-04T12:21:40Z</time>
      </trkpt>
      <trkpt lat="45.51342" lon="5.92541">
        <ele>859.8</ele>
        <time>2014-04-04T12:21:42Z</time>
      </trkpt>
      <trkpt lat="45.51339" lon="5.92535">
        <ele>860.8</ele>
        <time>2014-04-04T12:21:44Z</time>
      </trkpt>
      <trkpt lat="45.51338" lon="5.92532">
        <ele>861.4</ele>
        <time>2014-04-04T12:21:46Z</time>
      </trkpt>
      <trkpt lat="45.51336" lon="5.92526">
        <ele>862.3</ele>
        <time>2014-04-04T12:21:48Z</time>
      </trkpt>
      <trkpt lat="45.51334" lon="5.92519">
        <ele>861.7</ele>
        <time>2014-04-04T12:21:50Z</time>
      </trkpt>
      <trkpt lat="45.5133" lon="5.92511">
        <ele>860.5</ele>
        <time>2014-04-04T12:21:52Z</time>
      </trkpt>
      <trkpt lat="45.51329" lon="5.92508">
        <ele>860.2</ele>
        <time>2014-04-04T12:21:54Z</time>
      </trkpt>
      <trkpt lat="45.51328" lon="5.92501">
        <ele>860.2</ele>
        <time>2014-04-04T12:21:56Z</time>
      </trkpt>
      <trkpt lat="45.51325" lon="5.92494">
        <ele>858</ele>
        <time>2014-04-04T12:21:58Z</time>
      </trkpt>
      <trkpt lat="45.51323" lon="5.92488">
        <ele>856.9</ele>
        <time>2014-04-04T12:22:00Z</time>
      </trkpt>
      <trkpt lat="45.51321" lon="5.92485">
        <ele>856.6</ele>
        <time>2014-04-04T12:22:02Z</time>
      </trkpt>
      <trkpt lat="45.51318" lon="5.92481">
        <ele>857</ele>
        <time>2014-04-04T12:22:04Z</time>
      </trkpt>
      <trkpt lat="45.51315" lon="5.92475">
        <ele>858.1</ele>
        <time>2014-04-04T12:22:06Z</time>
      </trkpt>
      <trkpt lat="45.51313" lon="5.9247">
        <ele>859.4</ele>
        <time>2014-04-04T12:22:08Z</time>
      </trkpt>
      <trkpt lat="45.51311" lon="5.92469">
        <ele>860.7</ele>
        <time>2014-04-04T12:22:10Z</time>
      </trkpt>
      <trkpt lat="45.51308" lon="5.92466">
        <ele>862.9</ele>
        <time>2014-04-04T12:22:12Z</time>
      </trkpt>
      <trkpt lat="45.51303" lon="5.92461">
        <ele>864.6</ele>
        <time>2014-04-04T12:22:14Z</time>
      </trkpt>
      <trkpt lat="45.51302" lon="5.9246">
        <ele>864.7</ele>
        <time>2014-04-04T12:22:16Z</time>
      </trkpt>
      <trkpt lat="45.51299" lon="5.92458">
        <ele>864.7</ele>
        <time>2014-04-04T12:22:18Z</time>
      </trkpt>
      <trkpt lat="45.51296" lon="5.92456">
        <ele>864.9</ele>
        <time>2014-04-04T12:22:20Z</time>
      </trkpt>
      <trkpt lat="45.51291" lon="5.92453">
        <ele>865.2</ele>
        <time>2014-04-04T12:22:22Z</time>
      </trkpt>
      <trkpt lat="45.51289" lon="5.92452">
        <ele>865.3</ele>
        <time>2014-04-04T12:22:24Z</time>
      </trkpt>
      <trkpt lat="45.51284" lon="5.92451">
        <ele>865.4</ele>
        <time>2014-04-04T12:22:26Z</time>
      </trkpt>
      <trkpt lat="45.51275" lon="5.92449">
        <ele>865.7</ele>
        <time>2014-04-04T12:22:28Z</time>
      </trkpt>
      <trkpt lat="45.51271" lon="5.92446">
        <ele>866.1</ele>
        <time>2014-04-04T12:22:30Z</time>
      </trkpt>
      <trkpt lat="45.51268" lon="5.92445">
        <ele>866.2</ele>
        <time>2014-04-04T12:22:32Z</time>
      </trkpt>
      <trkpt lat="45.51263" lon="5.92443">
        <ele>866.4</ele>
        <time>2014-04-04T12:22:34Z</time>
      </trkpt>
      <trkpt lat="45.51256" lon="5.92439">
        <ele>866.6</ele>
        <time>2014-04-04T12:22:36Z</time>
      </trkpt>
      <trkpt lat="45.51251" lon="5.92436">
        <ele>866.9</ele>
        <time>2014-04-04T12:22:38Z</time>
      </trkpt>
      <trkpt lat="45.51248" lon="5.92435">
        <ele>867.1</ele>
        <time>2014-04-04T12:22:40Z</time>
      </trkpt>
      <trkpt lat="45.51244" lon="5.92432">
        <ele>867.6</ele>
        <time>2014-04-04T12:22:42Z</time>
      </trkpt>
      <trkpt lat="45.51235" lon="5.92427">
        <ele>868.5</ele>
        <time>2014-04-04T12:22:44Z</time>
      </trkpt>
      <trkpt lat="45.51233" lon="5.92426">
        <ele>868.5</ele>
        <time>2014-04-04T12:22:46Z</time>
      </trkpt>
      <trkpt lat="45.51227" lon="5.92424">
        <ele>868.8</ele>
        <time>2014-04-04T12:22:48Z</time>
      </trkpt>
      <trkpt lat="45.51219" lon="5.92423">
        <ele>869.2</ele>
        <time>2014-04-04T12:22:50Z</time>
      </trkpt>
      <trkpt lat="45.51214" lon="5.92422">
        <ele>869.7</ele>
        <time>2014-04-04T12:22:52Z</time>
      </trkpt>
      <trkpt lat="45.51212" lon="5.92422">
        <ele>869.8</ele>
        <time>2014-04-04T12:22:54Z</time>
      </trkpt>
      <trkpt lat="45.51207" lon="5.92421">
        <ele>870.4</ele>
        <time>2014-04-04T12:22:56Z</time>
      </trkpt>
      <trkpt lat="45.51202" lon="5.9242">
        <ele>870.9</ele>
        <time>2014-04-04T12:22:58Z</time>
      </trkpt>
      <trkpt lat="45.51198" lon="5.92419">
        <ele>871.4</ele>
        <time>2014-04-04T12:23:00Z</time>
      </trkpt>
      <trkpt lat="45.51196" lon="5.92419">
        <ele>871.5</ele>
        <time>2014-04-04T12:23:02Z</time>
      </trkpt>
      <trkpt lat="45.51192" lon="5.92418">
        <ele>871.9</ele>
        <time>2014-04-04T12:23:04Z</time>
      </trkpt>
      <trkpt lat="45.51186" lon="5.92417">
        <ele>872.6</ele>
        <time>2014-04-04T12:23:06Z</time>
      </trkpt>
      <trkpt lat="45.51183" lon="5.92416">
        <ele>872.9</ele>
        <time>2014-04-04T12:23:08Z</time>
      </trkpt>
      <trkpt lat="45.51178" lon="5.92415">
        <ele>873.4</ele>
        <time>2014-04-04T12:23:10Z</time>
      </trkpt>
      <trkpt lat="45.51174" lon="5.92414">
        <ele>873.8</ele>
        <time>2014-04-04T12:23:12Z</time>
      </trkpt>
      <trkpt lat="45.51167" lon="5.92412">
        <ele>874.5</ele>
        <time>2014-04-04T12:23:14Z</time>
      </trkpt>
      <trkpt lat="45.51164" lon="5.92412">
        <ele>874.7</ele>
        <time>2014-04-04T12:23:16Z</time>
      </trkpt>
      <trkpt lat="45.51158" lon="5.92412">
        <ele>875.1</ele>
        <time>2014-04-04T12:23:18Z</time>
      </trkpt>
      <trkpt lat="45.51154" lon="5.9241">
        <ele>875.6</ele>
        <time>2014-04-04T12:23:20Z</time>
      </trkpt>
      <trkpt lat="45.5115" lon="5.92411">
        <ele>875.7</ele>
        <time>2014-04-04T12:23:22Z</time>
      </trkpt>
      <trkpt lat="45.51148" lon="5.92411">
        <ele>875.8</ele>
        <time>2014-04-04T12:23:24Z</time>
      </trkpt>
      <trkpt lat="45.51144" lon="5.92413">
        <ele>875.9</ele>
        <time>2014-04-04T12:23:26Z</time>
      </trkpt>
      <trkpt lat="45.51137" lon="5.92416">
        <ele>876</ele>
        <time>2014-04-04T12:23:28Z</time>
      </trkpt>
      <trkpt lat="45.51132" lon="5.92415">
        <ele>875.9</ele>
        <time>2014-04-04T12:23:30Z</time>
      </trkpt>
      <trkpt lat="45.51131" lon="5.92413">
        <ele>876</ele>
        <time>2014-04-04T12:23:32Z</time>
      </trkpt>
      <trkpt lat="45.51128" lon="5.92409">
        <ele>876.3</ele>
        <time>2014-04-04T12:23:34Z</time>
      </trkpt>
      <trkpt lat="45.51128" lon="5.92401">
        <ele>877</ele>
        <time>2014-04-04T12:23:36Z</time>
      </trkpt>
      <trkpt lat="45.51128" lon="5.92398">
        <ele>877.2</ele>
        <time>2014-04-04T12:23:38Z</time>
      </trkpt>
      <trkpt lat="45.51127" lon="5.92393">
        <ele>877.7</ele>
        <time>2014-04-04T12:23:40Z</time>
      </trkpt>
      <trkpt lat="45.51124" lon="5.92383">
        <ele>878.5</ele>
        <time>2014-04-04T12:23:42Z</time>
      </trkpt>
      <trkpt lat="45.51123" lon="5.92377">
        <ele>879.1</ele>
        <time>2014-04-04T12:23:44Z</time>
      </trkpt>
      <trkpt lat="45.51123" lon="5.92374">
        <ele>879.3</ele>
        <time>2014-04-04T12:23:46Z</time>
      </trkpt>
      <trkpt lat="45.51119" lon="5.9237">
        <ele>879.5</ele>
        <time>2014-04-04T12:23:48Z</time>
      </trkpt>
      <trkpt lat="45.51114" lon="5.92367">
        <ele>879.6</ele>
        <time>2014-04-04T12:23:50Z</time>
      </trkpt>
      <trkpt lat="45.5111" lon="5.92367">
        <ele>879.8</ele>
        <time>2014-04-04T12:23:52Z</time>
      </trkpt>
      <trkpt lat="45.51108" lon="5.92368">
        <ele>880</ele>
        <time>2014-04-04T12:23:54Z</time>
      </trkpt>
      <trkpt lat="45.51104" lon="5.92371">
        <ele>880.4</ele>
        <time>2014-04-04T12:23:56Z</time>
      </trkpt>
      <trkpt lat="45.51099" lon="5.92374">
        <ele>880.8</ele>
        <time>2014-04-04T12:23:58Z</time>
      </trkpt>
      <trkpt lat="45.51096" lon="5.92376">
        <ele>881.1</ele>
        <time>2014-04-04T12:24:00Z</time>
      </trkpt>
      <trkpt lat="45.51095" lon="5.92377">
        <ele>881.2</ele>
        <time>2014-04-04T12:24:02Z</time>
      </trkpt>
      <trkpt lat="45.5109" lon="5.92378">
        <ele>881.6</ele>
        <time>2014-04-04T12:24:04Z</time>
      </trkpt>
      <trkpt lat="45.51087" lon="5.9238">
        <ele>881.9</ele>
        <time>2014-04-04T12:24:06Z</time>
      </trkpt>
      <trkpt lat="45.51085" lon="5.9238">
        <ele>882.1</ele>
        <time>2014-04-04T12:24:08Z</time>
      </trkpt>
      <trkpt lat="45.51082" lon="5.92381">
        <ele>882.8</ele>
        <time>2014-04-04T12:24:10Z</time>
      </trkpt>
      <trkpt lat="45.51078" lon="5.92385">
        <ele>883.9</ele>
        <time>2014-04-04T12:24:12Z</time>
      </trkpt>
      <trkpt lat="45.51076" lon="5.92388">
        <ele>884.4</ele>
        <time>2014-04-04T12:24:14Z</time>
      </trkpt>
      <trkpt lat="45.51075" lon="5.9239">
        <ele>884.5</ele>
        <time>2014-04-04T12:24:16Z</time>
      </trkpt>
      <trkpt lat="45.51073" lon="5.92393">
        <ele>884.9</ele>
        <time>2014-04-04T12:24:18Z</time>
      </trkpt>
      <trkpt lat="45.5107" lon="5.92399">
        <ele>885.4</ele>
        <time>2014-04-04T12:24:20Z</time>
      </trkpt>
      <trkpt lat="45.51066" lon="5.92402">
        <ele>886.5</ele>
        <time>2014-04-04T12:24:22Z</time>
      </trkpt>
      <trkpt lat="45.51065" lon="5.92403">
        <ele>887.2</ele>
        <time>2014-04-04T12:24:24Z</time>
      </trkpt>
      <trkpt lat="45.51061" lon="5.92403">
        <ele>888.9</ele>
        <time>2014-04-04T12:24:26Z</time>
      </trkpt>
      <trkpt lat="45.51055" lon="5.924">
        <ele>891.4</ele>
        <time>2014-04-04T12:24:28Z</time>
      </trkpt>
      <trkpt lat="45.51053" lon="5.924">
        <ele>891.6</ele>
        <time>2014-04-04T12:24:30Z</time>
      </trkpt>
      <trkpt lat="45.5105" lon="5.92397">
        <ele>892.2</ele>
        <time>2014-04-04T12:24:32Z</time>
      </trkpt>
      <trkpt lat="45.51048" lon="5.92394">
        <ele>892.8</ele>
        <time>2014-04-04T12:24:34Z</time>
      </trkpt>
      <trkpt lat="45.51045" lon="5.92388">
        <ele>893.9</ele>
        <time>2014-04-04T12:24:36Z</time>
      </trkpt>
      <trkpt lat="45.51044" lon="5.92386">
        <ele>894.4</ele>
        <time>2014-04-04T12:24:38Z</time>
      </trkpt>
      <trkpt lat="45.51043" lon="5.92382">
        <ele>895.1</ele>
        <time>2014-04-04T12:24:40Z</time>
      </trkpt>
      <trkpt lat="45.51041" lon="5.9238">
        <ele>895.8</ele>
        <time>2014-04-04T12:24:42Z</time>
      </trkpt>
      <trkpt lat="45.51038" lon="5.92376">
        <ele>897.1</ele>
        <time>2014-04-04T12:24:44Z</time>
      </trkpt>
      <trkpt lat="45.51037" lon="5.92375">
        <ele>897.5</ele>
        <time>2014-04-04T12:24:46Z</time>
      </trkpt>
      <trkpt lat="45.51036" lon="5.92374">
        <ele>897.9</ele>
        <time>2014-04-04T12:24:48Z</time>
      </trkpt>
      <trkpt lat="45.5103" lon="5.92372">
        <ele>899.3</ele>
        <time>2014-04-04T12:24:50Z</time>
      </trkpt>
      <trkpt lat="45.51028" lon="5.92371">
        <ele>900.1</ele>
        <time>2014-04-04T12:24:52Z</time>
      </trkpt>
      <trkpt lat="45.51027" lon="5.9237">
        <ele>900.3</ele>
        <time>2014-04-04T12:24:54Z</time>
      </trkpt>
      <trkpt lat="45.51024" lon="5.92368">
        <ele>900.6</ele>
        <time>2014-04-04T12:24:56Z</time>
      </trkpt>
      <trkpt lat="45.51022" lon="5.92367">
        <ele>900.8</ele>
        <time>2014-04-04T12:24:58Z</time>
      </trkpt>
      <trkpt lat="45.51021" lon="5.92366">
        <ele>900.9</ele>
        <time>2014-04-04T12:25:00Z</time>
      </trkpt>
      <trkpt lat="45.51019" lon="5.92364">
        <ele>901.3</ele>
        <time>2014-04-04T12:25:02Z</time>
      </trkpt>
      <trkpt lat="45.51017" lon="5.9236">
        <ele>902.3</ele>
        <time>2014-04-04T12:25:04Z</time>
      </trkpt>
      <trkpt lat="45.51014" lon="5.92358">
        <ele>902.5</ele>
        <time>2014-04-04T12:25:06Z</time>
      </trkpt>
      <trkpt lat="45.51013" lon="5.92358">
        <ele>902.6</ele>
        <time>2014-04-04T12:25:08Z</time>
      </trkpt>
      <trkpt lat="45.5101" lon="5.92355">
        <ele>903.2</ele>
        <time>2014-04-04T12:25:10Z</time>
      </trkpt>
      <trkpt lat="45.51007" lon="5.92353">
        <ele>903.5</ele>
        <time>2014-04-04T12:25:12Z</time>
      </trkpt>
      <trkpt lat="45.51006" lon="5.92351">
        <ele>904</ele>
        <time>2014-04-04T12:25:14Z</time>
      </trkpt>
      <trkpt lat="45.51005" lon="5.9235">
        <ele>904.2</ele>
        <time>2014-04-04T12:25:16Z</time>
      </trkpt>
      <trkpt lat="45.51003" lon="5.92348">
        <ele>904.7</ele>
        <time>2014-04-04T12:25:18Z</time>
      </trkpt>
      <trkpt lat="45.51001" lon="5.92345">
        <ele>905.2</ele>
        <time>2014-04-04T12:25:20Z</time>
      </trkpt>
      <trkpt lat="45.50998" lon="5.92343">
        <ele>905.4</ele>
        <time>2014-04-04T12:25:22Z</time>
      </trkpt>
      <trkpt lat="45.50997" lon="5.92343">
        <ele>905.4</ele>
        <time>2014-04-04T12:25:24Z</time>
      </trkpt>
      <trkpt lat="45.50995" lon="5.92341">
        <ele>905.4</ele>
        <time>2014-04-04T12:25:26Z</time>
      </trkpt>
      <trkpt lat="45.50993" lon="5.92337">
        <ele>906.1</ele>
        <time>2014-04-04T12:25:28Z</time>
      </trkpt>
      <trkpt lat="45.50992" lon="5.92336">
        <ele>906.3</ele>
        <time>2014-04-04T12:25:30Z</time>
      </trkpt>
      <trkpt lat="45.5099" lon="5.92333">
        <ele>906.7</ele>
        <time>2014-04-04T12:25:32Z</time>
      </trkpt>
      <trkpt lat="45.50988" lon="5.92331">
        <ele>906.9</ele>
        <time>2014-04-04T12:25:34Z</time>
      </trkpt>
      <trkpt lat="45.50985" lon="5.92328">
        <ele>907.3</ele>
        <time>2014-04-04T12:25:36Z</time>
      </trkpt>
      <trkpt lat="45.50984" lon="5.92326">
        <ele>907.3</ele>
        <time>2014-04-04T12:25:38Z</time>
      </trkpt>
      <trkpt lat="45.50982" lon="5.92324">
        <ele>907.6</ele>
        <time>2014-04-04T12:25:40Z</time>
      </trkpt>
      <trkpt lat="45.50979" lon="5.92319">
        <ele>908.5</ele>
        <time>2014-04-04T12:25:42Z</time>
      </trkpt>
      <trkpt lat="45.50977" lon="5.92315">
        <ele>909.3</ele>
        <time>2014-04-04T12:25:44Z</time>
      </trkpt>
      <trkpt lat="45.50977" lon="5.92312">
        <ele>909.7</ele>
        <time>2014-04-04T12:25:46Z</time>
      </trkpt>
      <trkpt lat="45.50975" lon="5.92308">
        <ele>910.7</ele>
        <time>2014-04-04T12:25:48Z</time>
      </trkpt>
      <trkpt lat="45.50974" lon="5.92301">
        <ele>911.9</ele>
        <time>2014-04-04T12:25:50Z</time>
      </trkpt>
      <trkpt lat="45.50974" lon="5.92295">
        <ele>912.4</ele>
        <time>2014-04-04T12:25:52Z</time>
      </trkpt>
      <trkpt lat="45.50973" lon="5.92293">
        <ele>912.5</ele>
        <time>2014-04-04T12:25:54Z</time>
      </trkpt>
      <trkpt lat="45.50972" lon="5.92288">
        <ele>912.8</ele>
        <time>2014-04-04T12:25:56Z</time>
      </trkpt>
      <trkpt lat="45.50971" lon="5.92282">
        <ele>912.9</ele>
        <time>2014-04-04T12:25:58Z</time>
      </trkpt>
      <trkpt lat="45.5097" lon="5.9228">
        <ele>912.9</ele>
        <time>2014-04-04T12:26:00Z</time>
      </trkpt>
      <trkpt lat="45.5097" lon="5.92275">
        <ele>913.7</ele>
        <time>2014-04-04T12:26:02Z</time>
      </trkpt>
      <trkpt lat="45.5097" lon="5.92267">
        <ele>914.7</ele>
        <time>2014-04-04T12:26:04Z</time>
      </trkpt>
      <trkpt lat="45.50968" lon="5.92263">
        <ele>915</ele>
        <time>2014-04-04T12:26:06Z</time>
      </trkpt>
      <trkpt lat="45.50967" lon="5.92261">
        <ele>915.2</ele>
        <time>2014-04-04T12:26:08Z</time>
      </trkpt>
      <trkpt lat="45.50966" lon="5.92257">
        <ele>915.6</ele>
        <time>2014-04-04T12:26:10Z</time>
      </trkpt>
      <trkpt lat="45.50964" lon="5.9225">
        <ele>916.5</ele>
        <time>2014-04-04T12:26:12Z</time>
      </trkpt>
      <trkpt lat="45.50963" lon="5.92245">
        <ele>917.1</ele>
        <time>2014-04-04T12:26:14Z</time>
      </trkpt>
      <trkpt lat="45.50963" lon="5.92243">
        <ele>917.4</ele>
        <time>2014-04-04T12:26:16Z</time>
      </trkpt>
      <trkpt lat="45.50961" lon="5.92239">
        <ele>917.8</ele>
        <time>2014-04-04T12:26:18Z</time>
      </trkpt>
      <trkpt lat="45.50959" lon="5.92234">
        <ele>918.2</ele>
        <time>2014-04-04T12:26:20Z</time>
      </trkpt>
      <trkpt lat="45.50959" lon="5.92232">
        <ele>918.5</ele>
        <time>2014-04-04T12:26:22Z</time>
      </trkpt>
      <trkpt lat="45.50957" lon="5.92228">
        <ele>919</ele>
        <time>2014-04-04T12:26:24Z</time>
      </trkpt>
      <trkpt lat="45.50958" lon="5.92222">
        <ele>919.9</ele>
        <time>2014-04-04T12:26:26Z</time>
      </trkpt>
      <trkpt lat="45.50957" lon="5.92216">
        <ele>920.9</ele>
        <time>2014-04-04T12:26:28Z</time>
      </trkpt>
      <trkpt lat="45.50957" lon="5.92213">
        <ele>921.3</ele>
        <time>2014-04-04T12:26:30Z</time>
      </trkpt>
      <trkpt lat="45.50956" lon="5.9221">
        <ele>921.7</ele>
        <time>2014-04-04T12:26:32Z</time>
      </trkpt>
      <trkpt lat="45.50955" lon="5.92207">
        <ele>922.1</ele>
        <time>2014-04-04T12:26:34Z</time>
      </trkpt>
      <trkpt lat="45.50954" lon="5.92201">
        <ele>923</ele>
        <time>2014-04-04T12:26:36Z</time>
      </trkpt>
      <trkpt lat="45.50954" lon="5.92199">
        <ele>923.3</ele>
        <time>2014-04-04T12:26:38Z</time>
      </trkpt>
      <trkpt lat="45.50953" lon="5.92196">
        <ele>923.7</ele>
        <time>2014-04-04T12:26:40Z</time>
      </trkpt>
      <trkpt lat="45.50953" lon="5.92191">
        <ele>924.5</ele>
        <time>2014-04-04T12:26:42Z</time>
      </trkpt>
      <trkpt lat="45.50952" lon="5.92186">
        <ele>925.5</ele>
        <time>2014-04-04T12:26:44Z</time>
      </trkpt>
      <trkpt lat="45.50952" lon="5.92184">
        <ele>925.7</ele>
        <time>2014-04-04T12:26:46Z</time>
      </trkpt>
      <trkpt lat="45.50952" lon="5.9218">
        <ele>926.4</ele>
        <time>2014-04-04T12:26:48Z</time>
      </trkpt>
      <trkpt lat="45.5095" lon="5.92175">
        <ele>927</ele>
        <time>2014-04-04T12:26:50Z</time>
      </trkpt>
      <trkpt lat="45.5095" lon="5.92173">
        <ele>927.4</ele>
        <time>2014-04-04T12:26:52Z</time>
      </trkpt>
      <trkpt lat="45.5095" lon="5.92168">
        <ele>928.4</ele>
        <time>2014-04-04T12:26:54Z</time>
      </trkpt>
      <trkpt lat="45.50949" lon="5.92164">
        <ele>928.8</ele>
        <time>2014-04-04T12:26:56Z</time>
      </trkpt>
      <trkpt lat="45.50947" lon="5.9216">
        <ele>929</ele>
        <time>2014-04-04T12:26:58Z</time>
      </trkpt>
      <trkpt lat="45.50946" lon="5.92158">
        <ele>929.1</ele>
        <time>2014-04-04T12:27:00Z</time>
      </trkpt>
      <trkpt lat="45.50945" lon="5.92154">
        <ele>929.6</ele>
        <time>2014-04-04T12:27:02Z</time>
      </trkpt>
      <trkpt lat="45.50944" lon="5.92148">
        <ele>930.4</ele>
        <time>2014-04-04T12:27:04Z</time>
      </trkpt>
      <trkpt lat="45.50944" lon="5.92143">
        <ele>931.2</ele>
        <time>2014-04-04T12:27:06Z</time>
      </trkpt>
      <trkpt lat="45.50944" lon="5.92141">
        <ele>931.5</ele>
        <time>2014-04-04T12:27:08Z</time>
      </trkpt>
      <trkpt lat="45.50944" lon="5.92137">
        <ele>932.2</ele>
        <time>2014-04-04T12:27:10Z</time>
      </trkpt>
      <trkpt lat="45.50943" lon="5.92129">
        <ele>933.8</ele>
        <time>2014-04-04T12:27:12Z</time>
      </trkpt>
      <trkpt lat="45.50943" lon="5.92124">
        <ele>934.8</ele>
        <time>2014-04-04T12:27:14Z</time>
      </trkpt>
      <trkpt lat="45.50943" lon="5.92121">
        <ele>935.6</ele>
        <time>2014-04-04T12:27:16Z</time>
      </trkpt>
      <trkpt lat="45.50943" lon="5.92116">
        <ele>936.6</ele>
        <time>2014-04-04T12:27:18Z</time>
      </trkpt>
      <trkpt lat="45.50942" lon="5.92108">
        <ele>937.8</ele>
        <time>2014-04-04T12:27:20Z</time>
      </trkpt>
      <trkpt lat="45.50941" lon="5.92106">
        <ele>938.1</ele>
        <time>2014-04-04T12:27:22Z</time>
      </trkpt>
      <trkpt lat="45.5094" lon="5.92101">
        <ele>938.6</ele>
        <time>2014-04-04T12:27:24Z</time>
      </trkpt>
      <trkpt lat="45.50939" lon="5.92097">
        <ele>939.2</ele>
        <time>2014-04-04T12:27:26Z</time>
      </trkpt>
      <trkpt lat="45.50938" lon="5.9209">
        <ele>940.4</ele>
        <time>2014-04-04T12:27:28Z</time>
      </trkpt>
      <trkpt lat="45.50938" lon="5.92088">
        <ele>940.7</ele>
        <time>2014-04-04T12:27:30Z</time>
      </trkpt>
      <trkpt lat="45.50937" lon="5.92083">
        <ele>941.4</ele>
        <time>2014-04-04T12:27:32Z</time>
      </trkpt>
      <trkpt lat="45.50935" lon="5.92078">
        <ele>942.2</ele>
        <time>2014-04-04T12:27:34Z</time>
      </trkpt>
      <trkpt lat="45.50934" lon="5.92073">
        <ele>943.1</ele>
        <time>2014-04-04T12:27:36Z</time>
      </trkpt>
      <trkpt lat="45.50934" lon="5.92071">
        <ele>943.7</ele>
        <time>2014-04-04T12:27:38Z</time>
      </trkpt>
      <trkpt lat="45.50933" lon="5.92065">
        <ele>944.7</ele>
        <time>2014-04-04T12:27:40Z</time>
      </trkpt>
      <trkpt lat="45.5093" lon="5.92059">
        <ele>945.6</ele>
        <time>2014-04-04T12:27:42Z</time>
      </trkpt>
      <trkpt lat="45.50928" lon="5.92055">
        <ele>946.2</ele>
        <time>2014-04-04T12:27:44Z</time>
      </trkpt>
      <trkpt lat="45.50928" lon="5.92053">
        <ele>946.5</ele>
        <time>2014-04-04T12:27:46Z</time>
      </trkpt>
      <trkpt lat="45.50926" lon="5.92048">
        <ele>946.9</ele>
        <time>2014-04-04T12:27:48Z</time>
      </trkpt>
      <trkpt lat="45.50924" lon="5.92045">
        <ele>947.2</ele>
        <time>2014-04-04T12:27:50Z</time>
      </trkpt>
      <trkpt lat="45.50923" lon="5.92044">
        <ele>947.3</ele>
        <time>2014-04-04T12:27:52Z</time>
      </trkpt>
      <trkpt lat="45.50921" lon="5.92041">
        <ele>947.5</ele>
        <time>2014-04-04T12:27:54Z</time>
      </trkpt>
      <trkpt lat="45.5092" lon="5.92037">
        <ele>948</ele>
        <time>2014-04-04T12:27:56Z</time>
      </trkpt>
      <trkpt lat="45.50918" lon="5.9203">
        <ele>948.9</ele>
        <time>2014-04-04T12:27:58Z</time>
      </trkpt>
      <trkpt lat="45.50918" lon="5.92028">
        <ele>949.1</ele>
        <time>2014-04-04T12:28:00Z</time>
      </trkpt>
      <trkpt lat="45.50917" lon="5.92024">
        <ele>949.6</ele>
        <time>2014-04-04T12:28:02Z</time>
      </trkpt>
      <trkpt lat="45.50914" lon="5.9202">
        <ele>950.2</ele>
        <time>2014-04-04T12:28:04Z</time>
      </trkpt>
      <trkpt lat="45.50913" lon="5.92016">
        <ele>950.8</ele>
        <time>2014-04-04T12:28:06Z</time>
      </trkpt>
      <trkpt lat="45.50912" lon="5.92014">
        <ele>951.2</ele>
        <time>2014-04-04T12:28:08Z</time>
      </trkpt>
      <trkpt lat="45.50912" lon="5.92009">
        <ele>952</ele>
        <time>2014-04-04T12:28:10Z</time>
      </trkpt>
      <trkpt lat="45.5091" lon="5.92003">
        <ele>952.9</ele>
        <time>2014-04-04T12:28:12Z</time>
      </trkpt>
      <trkpt lat="45.5091" lon="5.92001">
        <ele>953.3</ele>
        <time>2014-04-04T12:28:14Z</time>
      </trkpt>
      <trkpt lat="45.50908" lon="5.91998">
        <ele>953.6</ele>
        <time>2014-04-04T12:28:16Z</time>
      </trkpt>
      <trkpt lat="45.50907" lon="5.91995">
        <ele>953.9</ele>
        <time>2014-04-04T12:28:18Z</time>
      </trkpt>
      <trkpt lat="45.50905" lon="5.91989">
        <ele>954.4</ele>
        <time>2014-04-04T12:28:20Z</time>
      </trkpt>
      <trkpt lat="45.50905" lon="5.91987">
        <ele>954.6</ele>
        <time>2014-04-04T12:28:22Z</time>
      </trkpt>
      <trkpt lat="45.50904" lon="5.91983">
        <ele>955.1</ele>
        <time>2014-04-04T12:28:24Z</time>
      </trkpt>
      <trkpt lat="45.50903" lon="5.9198">
        <ele>955.5</ele>
        <time>2014-04-04T12:28:26Z</time>
      </trkpt>
      <trkpt lat="45.50902" lon="5.91973">
        <ele>956.4</ele>
        <time>2014-04-04T12:28:28Z</time>
      </trkpt>
      <trkpt lat="45.50902" lon="5.91972">
        <ele>956.6</ele>
        <time>2014-04-04T12:28:30Z</time>
      </trkpt>
      <trkpt lat="45.50902" lon="5.91969">
        <ele>956.9</ele>
        <time>2014-04-04T12:28:32Z</time>
      </trkpt>
      <trkpt lat="45.509" lon="5.91966">
        <ele>957.4</ele>
        <time>2014-04-04T12:28:34Z</time>
      </trkpt>
      <trkpt lat="45.50899" lon="5.91961">
        <ele>958</ele>
        <time>2014-04-04T12:28:36Z</time>
      </trkpt>
      <trkpt lat="45.50899" lon="5.91959">
        <ele>958.2</ele>
        <time>2014-04-04T12:28:38Z</time>
      </trkpt>
      <trkpt lat="45.50898" lon="5.91954">
        <ele>958.9</ele>
        <time>2014-04-04T12:28:40Z</time>
      </trkpt>
      <trkpt lat="45.50896" lon="5.91951">
        <ele>959.5</ele>
        <time>2014-04-04T12:28:42Z</time>
      </trkpt>
      <trkpt lat="45.50895" lon="5.91949">
        <ele>960.1</ele>
        <time>2014-04-04T12:28:44Z</time>
      </trkpt>
      <trkpt lat="45.50893" lon="5.91947">
        <ele>960.7</ele>
        <time>2014-04-04T12:28:46Z</time>
      </trkpt>
      <trkpt lat="45.50891" lon="5.91945">
        <ele>961.5</ele>
        <time>2014-04-04T12:28:48Z</time>
      </trkpt>
      <trkpt lat="45.50888" lon="5.91944">
        <ele>962.3</ele>
        <time>2014-04-04T12:28:50Z</time>
      </trkpt>
      <trkpt lat="45.50887" lon="5.91943">
        <ele>962.5</ele>
        <time>2014-04-04T12:28:52Z</time>
      </trkpt>
      <trkpt lat="45.50885" lon="5.91943">
        <ele>962.7</ele>
        <time>2014-04-04T12:28:54Z</time>
      </trkpt>
      <trkpt lat="45.50883" lon="5.91944">
        <ele>963</ele>
        <time>2014-04-04T12:28:56Z</time>
      </trkpt>
      <trkpt lat="45.50881" lon="5.91943">
        <ele>963.3</ele>
        <time>2014-04-04T12:28:58Z</time>
      </trkpt>
      <trkpt lat="45.5088" lon="5.91943">
        <ele>963.5</ele>
        <time>2014-04-04T12:29:00Z</time>
      </trkpt>
      <trkpt lat="45.50879" lon="5.91942">
        <ele>963.9</ele>
        <time>2014-04-04T12:29:02Z</time>
      </trkpt>
      <trkpt lat="45.50876" lon="5.91942">
        <ele>964.4</ele>
        <time>2014-04-04T12:29:04Z</time>
      </trkpt>
      <trkpt lat="45.50874" lon="5.91941">
        <ele>965</ele>
        <time>2014-04-04T12:29:06Z</time>
      </trkpt>
      <trkpt lat="45.50872" lon="5.9194">
        <ele>965.4</ele>
        <time>2014-04-04T12:29:08Z</time>
      </trkpt>
      <trkpt lat="45.5087" lon="5.91941">
        <ele>965.7</ele>
        <time>2014-04-04T12:29:10Z</time>
      </trkpt>
      <trkpt lat="45.50867" lon="5.9194">
        <ele>966.4</ele>
        <time>2014-04-04T12:29:12Z</time>
      </trkpt>
      <trkpt lat="45.50866" lon="5.91939">
        <ele>966.8</ele>
        <time>2014-04-04T12:29:14Z</time>
      </trkpt>
      <trkpt lat="45.50864" lon="5.91938">
        <ele>967.5</ele>
        <time>2014-04-04T12:29:16Z</time>
      </trkpt>
      <trkpt lat="45.50861" lon="5.91938">
        <ele>968.1</ele>
        <time>2014-04-04T12:29:18Z</time>
      </trkpt>
      <trkpt lat="45.50856" lon="5.91939">
        <ele>968.4</ele>
        <time>2014-04-04T12:29:20Z</time>
      </trkpt>
      <trkpt lat="45.50854" lon="5.91939">
        <ele>968.6</ele>
        <time>2014-04-04T12:29:22Z</time>
      </trkpt>
      <trkpt lat="45.5085" lon="5.91938">
        <ele>969.1</ele>
        <time>2014-04-04T12:29:24Z</time>
      </trkpt>
      <trkpt lat="45.50843" lon="5.91939">
        <ele>969.6</ele>
        <time>2014-04-04T12:29:26Z</time>
      </trkpt>
      <trkpt lat="45.50839" lon="5.91939">
        <ele>969.7</ele>
        <time>2014-04-04T12:29:28Z</time>
      </trkpt>
      <trkpt lat="45.50838" lon="5.91939">
        <ele>970</ele>
        <time>2014-04-04T12:29:30Z</time>
      </trkpt>
      <trkpt lat="45.50834" lon="5.91939">
        <ele>970.4</ele>
        <time>2014-04-04T12:29:32Z</time>
      </trkpt>
      <trkpt lat="45.5083" lon="5.91938">
        <ele>970.9</ele>
        <time>2014-04-04T12:29:34Z</time>
      </trkpt>
      <trkpt lat="45.50828" lon="5.91938">
        <ele>971.1</ele>
        <time>2014-04-04T12:29:36Z</time>
      </trkpt>
      <trkpt lat="45.50825" lon="5.91938">
        <ele>971.2</ele>
        <time>2014-04-04T12:29:38Z</time>
      </trkpt>
      <trkpt lat="45.50822" lon="5.91937">
        <ele>971.8</ele>
        <time>2014-04-04T12:29:40Z</time>
      </trkpt>
      <trkpt lat="45.50817" lon="5.91934">
        <ele>973.3</ele>
        <time>2014-04-04T12:29:42Z</time>
      </trkpt>
      <trkpt lat="45.50816" lon="5.91933">
        <ele>973.8</ele>
        <time>2014-04-04T12:29:44Z</time>
      </trkpt>
      <trkpt lat="45.50812" lon="5.91933">
        <ele>974.4</ele>
        <time>2014-04-04T12:29:46Z</time>
      </trkpt>
      <trkpt lat="45.50808" lon="5.91933">
        <ele>974.6</ele>
        <time>2014-04-04T12:29:48Z</time>
      </trkpt>
      <trkpt lat="45.50803" lon="5.91932">
        <ele>976</ele>
        <time>2014-04-04T12:29:50Z</time>
      </trkpt>
      <trkpt lat="45.50802" lon="5.91931">
        <ele>976.7</ele>
        <time>2014-04-04T12:29:52Z</time>
      </trkpt>
      <trkpt lat="45.50798" lon="5.91931">
        <ele>977.6</ele>
        <time>2014-04-04T12:29:54Z</time>
      </trkpt>
      <trkpt lat="45.50794" lon="5.9193">
        <ele>978.9</ele>
        <time>2014-04-04T12:29:56Z</time>
      </trkpt>
      <trkpt lat="45.50791" lon="5.9193">
        <ele>980.1</ele>
        <time>2014-04-04T12:29:58Z</time>
      </trkpt>
      <trkpt lat="45.5079" lon="5.9193">
        <ele>980.4</ele>
        <time>2014-04-04T12:30:00Z</time>
      </trkpt>
      <trkpt lat="45.50787" lon="5.9193">
        <ele>981.2</ele>
        <time>2014-04-04T12:30:02Z</time>
      </trkpt>
      <trkpt lat="45.50783" lon="5.91929">
        <ele>982.4</ele>
        <time>2014-04-04T12:30:04Z</time>
      </trkpt>
      <trkpt lat="45.50781" lon="5.9193">
        <ele>982.9</ele>
        <time>2014-04-04T12:30:06Z</time>
      </trkpt>
      <trkpt lat="45.50776" lon="5.9193">
        <ele>983.7</ele>
        <time>2014-04-04T12:30:08Z</time>
      </trkpt>
      <trkpt lat="45.50773" lon="5.9193">
        <ele>984.3</ele>
        <time>2014-04-04T12:30:10Z</time>
      </trkpt>
      <trkpt lat="45.50767" lon="5.91929">
        <ele>985.8</ele>
        <time>2014-04-04T12:30:12Z</time>
      </trkpt>
      <trkpt lat="45.50766" lon="5.91928">
        <ele>986.6</ele>
        <time>2014-04-04T12:30:14Z</time>
      </trkpt>
      <trkpt lat="45.50762" lon="5.91927">
        <ele>987.5</ele>
        <time>2014-04-04T12:30:16Z</time>
      </trkpt>
      <trkpt lat="45.50759" lon="5.91925">
        <ele>988.5</ele>
        <time>2014-04-04T12:30:18Z</time>
      </trkpt>
      <trkpt lat="45.50755" lon="5.91923">
        <ele>990</ele>
        <time>2014-04-04T12:30:20Z</time>
      </trkpt>
      <trkpt lat="45.50754" lon="5.91922">
        <ele>990.7</ele>
        <time>2014-04-04T12:30:22Z</time>
      </trkpt>
      <trkpt lat="45.50752" lon="5.91918">
        <ele>992.1</ele>
        <time>2014-04-04T12:30:24Z</time>
      </trkpt>
      <trkpt lat="45.50751" lon="5.91913">
        <ele>994.1</ele>
        <time>2014-04-04T12:30:26Z</time>
      </trkpt>
      <trkpt lat="45.50749" lon="5.9191">
        <ele>994.7</ele>
        <time>2014-04-04T12:30:28Z</time>
      </trkpt>
      <trkpt lat="45.50749" lon="5.91908">
        <ele>995.1</ele>
        <time>2014-04-04T12:30:30Z</time>
      </trkpt>
      <trkpt lat="45.50748" lon="5.91905">
        <ele>995.8</ele>
        <time>2014-04-04T12:30:32Z</time>
      </trkpt>
      <trkpt lat="45.50747" lon="5.919">
        <ele>996.7</ele>
        <time>2014-04-04T12:30:34Z</time>
      </trkpt>
      <trkpt lat="45.50746" lon="5.91899">
        <ele>997</ele>
        <time>2014-04-04T12:30:36Z</time>
      </trkpt>
      <trkpt lat="45.50746" lon="5.91896">
        <ele>997.6</ele>
        <time>2014-04-04T12:30:38Z</time>
      </trkpt>
      <trkpt lat="45.50745" lon="5.91894">
        <ele>998.3</ele>
        <time>2014-04-04T12:30:40Z</time>
      </trkpt>
      <trkpt lat="45.50745" lon="5.9189">
        <ele>999.4</ele>
        <time>2014-04-04T12:30:42Z</time>
      </trkpt>
      <trkpt lat="45.50745" lon="5.91888">
        <ele>999.6</ele>
        <time>2014-04-04T12:30:44Z</time>
      </trkpt>
      <trkpt lat="45.50746" lon="5.91886">
        <ele>1000.3</ele>
        <time>2014-04-04T12:30:46Z</time>
      </trkpt>
      <trkpt lat="45.50747" lon="5.91882">
        <ele>1001.2</ele>
        <time>2014-04-04T12:30:48Z</time>
      </trkpt>
      <trkpt lat="45.50749" lon="5.9188">
        <ele>1002.1</ele>
        <time>2014-04-04T12:30:50Z</time>
      </trkpt>
      <trkpt lat="45.5075" lon="5.91879">
        <ele>1002.6</ele>
        <time>2014-04-04T12:30:52Z</time>
      </trkpt>
      <trkpt lat="45.50752" lon="5.91878">
        <ele>1003</ele>
        <time>2014-04-04T12:30:54Z</time>
      </trkpt>
      <trkpt lat="45.50753" lon="5.91875">
        <ele>1003.7</ele>
        <time>2014-04-04T12:30:56Z</time>
      </trkpt>
      <trkpt lat="45.50755" lon="5.91873">
        <ele>1004.1</ele>
        <time>2014-04-04T12:30:58Z</time>
      </trkpt>
      <trkpt lat="45.50755" lon="5.91872">
        <ele>1004.4</ele>
        <time>2014-04-04T12:31:00Z</time>
      </trkpt>
      <trkpt lat="45.50756" lon="5.91869">
        <ele>1005</ele>
        <time>2014-04-04T12:31:02Z</time>
      </trkpt>
      <trkpt lat="45.50757" lon="5.91865">
        <ele>1006.1</ele>
        <time>2014-04-04T12:31:04Z</time>
      </trkpt>
      <trkpt lat="45.50757" lon="5.91864">
        <ele>1006.3</ele>
        <time>2014-04-04T12:31:06Z</time>
      </trkpt>
      <trkpt lat="45.50757" lon="5.91861">
        <ele>1007</ele>
        <time>2014-04-04T12:31:08Z</time>
      </trkpt>
      <trkpt lat="45.50757" lon="5.91858">
        <ele>1008</ele>
        <time>2014-04-04T12:31:10Z</time>
      </trkpt>
      <trkpt lat="45.50755" lon="5.91854">
        <ele>1008.9</ele>
        <time>2014-04-04T12:31:12Z</time>
      </trkpt>
      <trkpt lat="45.50755" lon="5.91853">
        <ele>1009.2</ele>
        <time>2014-04-04T12:31:14Z</time>
      </trkpt>
      <trkpt lat="45.50754" lon="5.9185">
        <ele>1010.1</ele>
        <time>2014-04-04T12:31:16Z</time>
      </trkpt>
      <trkpt lat="45.50753" lon="5.91845">
        <ele>1011.3</ele>
        <time>2014-04-04T12:31:18Z</time>
      </trkpt>
      <trkpt lat="45.50753" lon="5.91844">
        <ele>1011.7</ele>
        <time>2014-04-04T12:31:20Z</time>
      </trkpt>
      <trkpt lat="45.50752" lon="5.91841">
        <ele>1012.5</ele>
        <time>2014-04-04T12:31:22Z</time>
      </trkpt>
      <trkpt lat="45.50751" lon="5.91838">
        <ele>1013</ele>
        <time>2014-04-04T12:31:24Z</time>
      </trkpt>
      <trkpt lat="45.50749" lon="5.91834">
        <ele>1013.5</ele>
        <time>2014-04-04T12:31:26Z</time>
      </trkpt>
      <trkpt lat="45.50749" lon="5.91832">
        <ele>1014</ele>
        <time>2014-04-04T12:31:28Z</time>
      </trkpt>
      <trkpt lat="45.50747" lon="5.9183">
        <ele>1014.5</ele>
        <time>2014-04-04T12:31:30Z</time>
      </trkpt>
      <trkpt lat="45.50746" lon="5.91828">
        <ele>1014.7</ele>
        <time>2014-04-04T12:31:32Z</time>
      </trkpt>
      <trkpt lat="45.50744" lon="5.91824">
        <ele>1015.9</ele>
        <time>2014-04-04T12:31:34Z</time>
      </trkpt>
      <trkpt lat="45.50743" lon="5.91822">
        <ele>1016.2</ele>
        <time>2014-04-04T12:31:36Z</time>
      </trkpt>
      <trkpt lat="45.50742" lon="5.9182">
        <ele>1016.3</ele>
        <time>2014-04-04T12:31:38Z</time>
      </trkpt>
      <trkpt lat="45.5074" lon="5.91819">
        <ele>1016.3</ele>
        <time>2014-04-04T12:31:40Z</time>
      </trkpt>
      <trkpt lat="45.50739" lon="5.91815">
        <ele>1017.2</ele>
        <time>2014-04-04T12:31:42Z</time>
      </trkpt>
      <trkpt lat="45.50738" lon="5.91814">
        <ele>1017.2</ele>
        <time>2014-04-04T12:31:44Z</time>
      </trkpt>
      <trkpt lat="45.50736" lon="5.91811">
        <ele>1017.7</ele>
        <time>2014-04-04T12:31:46Z</time>
      </trkpt>
      <trkpt lat="45.50734" lon="5.91808">
        <ele>1017.9</ele>
        <time>2014-04-04T12:31:48Z</time>
      </trkpt>
      <trkpt lat="45.50732" lon="5.91807">
        <ele>1017</ele>
        <time>2014-04-04T12:31:50Z</time>
      </trkpt>
      <trkpt lat="45.50731" lon="5.91806">
        <ele>1016.9</ele>
        <time>2014-04-04T12:31:52Z</time>
      </trkpt>
      <trkpt lat="45.5073" lon="5.91804">
        <ele>1017.3</ele>
        <time>2014-04-04T12:31:54Z</time>
      </trkpt>
      <trkpt lat="45.50729" lon="5.91801">
        <ele>1017.6</ele>
        <time>2014-04-04T12:31:56Z</time>
      </trkpt>
      <trkpt lat="45.50728" lon="5.91799">
        <ele>1017.6</ele>
        <time>2014-04-04T12:31:58Z</time>
      </trkpt>
      <trkpt lat="45.50727" lon="5.91797">
        <ele>1017.8</ele>
        <time>2014-04-04T12:32:00Z</time>
      </trkpt>
      <trkpt lat="45.50725" lon="5.91795">
        <ele>1018</ele>
        <time>2014-04-04T12:32:02Z</time>
      </trkpt>
      <trkpt lat="45.50722" lon="5.91792">
        <ele>1017.5</ele>
        <time>2014-04-04T12:32:04Z</time>
      </trkpt>
      <trkpt lat="45.5072" lon="5.91791">
        <ele>1017.2</ele>
        <time>2014-04-04T12:32:06Z</time>
      </trkpt>
      <trkpt lat="45.50717" lon="5.91789">
        <ele>1017.1</ele>
        <time>2014-04-04T12:32:08Z</time>
      </trkpt>
      <trkpt lat="45.50713" lon="5.91785">
        <ele>1016.8</ele>
        <time>2014-04-04T12:32:10Z</time>
      </trkpt>
      <trkpt lat="45.50712" lon="5.91784">
        <ele>1017.3</ele>
        <time>2014-04-04T12:32:12Z</time>
      </trkpt>
      <trkpt lat="45.5071" lon="5.9178">
        <ele>1017.9</ele>
        <time>2014-04-04T12:32:14Z</time>
      </trkpt>
      <trkpt lat="45.50708" lon="5.91775">
        <ele>1019.5</ele>
        <time>2014-04-04T12:32:16Z</time>
      </trkpt>
      <trkpt lat="45.50706" lon="5.91768">
        <ele>1021.9</ele>
        <time>2014-04-04T12:32:18Z</time>
      </trkpt>
      <trkpt lat="45.50703" lon="5.91764">
        <ele>1022.6</ele>
        <time>2014-04-04T12:32:20Z</time>
      </trkpt>
      <trkpt lat="45.50702" lon="5.91762">
        <ele>1023.3</ele>
        <time>2014-04-04T12:32:22Z</time>
      </trkpt>
      <trkpt lat="45.50701" lon="5.91757">
        <ele>1025.2</ele>
        <time>2014-04-04T12:32:24Z</time>
      </trkpt>
      <trkpt lat="45.50699" lon="5.9175">
        <ele>1027.9</ele>
        <time>2014-04-04T12:32:26Z</time>
      </trkpt>
      <trkpt lat="45.50698" lon="5.91748">
        <ele>1028.2</ele>
        <time>2014-04-04T12:32:28Z</time>
      </trkpt>
      <trkpt lat="45.50696" lon="5.91744">
        <ele>1028.6</ele>
        <time>2014-04-04T12:32:30Z</time>
      </trkpt>
      <trkpt lat="45.50695" lon="5.91736">
        <ele>1030</ele>
        <time>2014-04-04T12:32:32Z</time>
      </trkpt>
      <trkpt lat="45.50694" lon="5.91732">
        <ele>1030.8</ele>
        <time>2014-04-04T12:32:34Z</time>
      </trkpt>
      <trkpt lat="45.50693" lon="5.91729">
        <ele>1031.1</ele>
        <time>2014-04-04T12:32:36Z</time>
      </trkpt>
      <trkpt lat="45.50692" lon="5.91725">
        <ele>1031.9</ele>
        <time>2014-04-04T12:32:38Z</time>
      </trkpt>
      <trkpt lat="45.50691" lon="5.91719">
        <ele>1032.6</ele>
        <time>2014-04-04T12:32:40Z</time>
      </trkpt>
      <trkpt lat="45.5069" lon="5.91716">
        <ele>1032.9</ele>
        <time>2014-04-04T12:32:42Z</time>
      </trkpt>
      <trkpt lat="45.5069" lon="5.91713">
        <ele>1033.2</ele>
        <time>2014-04-04T12:32:44Z</time>
      </trkpt>
      <trkpt lat="45.5069" lon="5.91709">
        <ele>1033.8</ele>
        <time>2014-04-04T12:32:46Z</time>
      </trkpt>
      <trkpt lat="45.50689" lon="5.91702">
        <ele>1034.7</ele>
        <time>2014-04-04T12:32:48Z</time>
      </trkpt>
      <trkpt lat="45.50689" lon="5.917">
        <ele>1035</ele>
        <time>2014-04-04T12:32:50Z</time>
      </trkpt>
      <trkpt lat="45.50689" lon="5.91695">
        <ele>1035.8</ele>
        <time>2014-04-04T12:32:52Z</time>
      </trkpt>
      <trkpt lat="45.50688" lon="5.9169">
        <ele>1035</ele>
        <time>2014-04-04T12:32:54Z</time>
      </trkpt>
      <trkpt lat="45.50686" lon="5.91683">
        <ele>1034.4</ele>
        <time>2014-04-04T12:32:56Z</time>
      </trkpt>
      <trkpt lat="45.50686" lon="5.91681">
        <ele>1034.3</ele>
        <time>2014-04-04T12:32:58Z</time>
      </trkpt>
      <trkpt lat="45.50684" lon="5.91677">
        <ele>1034.3</ele>
        <time>2014-04-04T12:33:00Z</time>
      </trkpt>
      <trkpt lat="45.50681" lon="5.91671">
        <ele>1034.7</ele>
        <time>2014-04-04T12:33:02Z</time>
      </trkpt>
      <trkpt lat="45.5068" lon="5.91667">
        <ele>1035</ele>
        <time>2014-04-04T12:33:04Z</time>
      </trkpt>
      <trkpt lat="45.50678" lon="5.91665">
        <ele>1035.3</ele>
        <time>2014-04-04T12:33:06Z</time>
      </trkpt>
      <trkpt lat="45.50675" lon="5.91663">
        <ele>1036.3</ele>
        <time>2014-04-04T12:33:08Z</time>
      </trkpt>
      <trkpt lat="45.5067" lon="5.91661">
        <ele>1038.9</ele>
        <time>2014-04-04T12:33:10Z</time>
      </trkpt>
      <trkpt lat="45.50668" lon="5.91661">
        <ele>1039.6</ele>
        <time>2014-04-04T12:33:12Z</time>
      </trkpt>
      <trkpt lat="45.50665" lon="5.9166">
        <ele>1040.2</ele>
        <time>2014-04-04T12:33:14Z</time>
      </trkpt>
      <trkpt lat="45.50658" lon="5.91659">
        <ele>1040.2</ele>
        <time>2014-04-04T12:33:16Z</time>
      </trkpt>
      <trkpt lat="45.50654" lon="5.91659">
        <ele>1040.2</ele>
        <time>2014-04-04T12:33:18Z</time>
      </trkpt>
      <trkpt lat="45.50652" lon="5.91659">
        <ele>1040.2</ele>
        <time>2014-04-04T12:33:20Z</time>
      </trkpt>
      <trkpt lat="45.50648" lon="5.91656">
        <ele>1040.2</ele>
        <time>2014-04-04T12:33:22Z</time>
      </trkpt>
      <trkpt lat="45.50644" lon="5.91654">
        <ele>1040.3</ele>
        <time>2014-04-04T12:33:24Z</time>
      </trkpt>
      <trkpt lat="45.50638" lon="5.91648">
        <ele>1040.6</ele>
        <time>2014-04-04T12:33:26Z</time>
      </trkpt>
      <trkpt lat="45.50637" lon="5.91646">
        <ele>1040.5</ele>
        <time>2014-04-04T12:33:28Z</time>
      </trkpt>
      <trkpt lat="45.50633" lon="5.91643">
        <ele>1040.2</ele>
        <time>2014-04-04T12:33:30Z</time>
      </trkpt>
      <trkpt lat="45.50626" lon="5.9164">
        <ele>1039.9</ele>
        <time>2014-04-04T12:33:32Z</time>
      </trkpt>
      <trkpt lat="45.50622" lon="5.91637">
        <ele>1039.9</ele>
        <time>2014-04-04T12:33:34Z</time>
      </trkpt>
      <trkpt lat="45.50621" lon="5.91635">
        <ele>1040</ele>
        <time>2014-04-04T12:33:36Z</time>
      </trkpt>
      <trkpt lat="45.50618" lon="5.91632">
        <ele>1040</ele>
        <time>2014-04-04T12:33:38Z</time>
      </trkpt>
      <trkpt lat="45.50616" lon="5.91628">
        <ele>1040.3</ele>
        <time>2014-04-04T12:33:40Z</time>
      </trkpt>
      <trkpt lat="45.50613" lon="5.91625">
        <ele>1040.5</ele>
        <time>2014-04-04T12:33:42Z</time>
      </trkpt>
      <trkpt lat="45.50611" lon="5.91623">
        <ele>1040.7</ele>
        <time>2014-04-04T12:33:44Z</time>
      </trkpt>
      <trkpt lat="45.50608" lon="5.91618">
        <ele>1041.3</ele>
        <time>2014-04-04T12:33:46Z</time>
      </trkpt>
      <trkpt lat="45.50604" lon="5.91612">
        <ele>1042.5</ele>
        <time>2014-04-04T12:33:48Z</time>
      </trkpt>
      <trkpt lat="45.50603" lon="5.9161">
        <ele>1042.9</ele>
        <time>2014-04-04T12:33:50Z</time>
      </trkpt>
      <trkpt lat="45.50601" lon="5.91605">
        <ele>1043.3</ele>
        <time>2014-04-04T12:33:52Z</time>
      </trkpt>
      <trkpt lat="45.50598" lon="5.91601">
        <ele>1043.9</ele>
        <time>2014-04-04T12:33:54Z</time>
      </trkpt>
      <trkpt lat="45.50594" lon="5.91594">
        <ele>1045.1</ele>
        <time>2014-04-04T12:33:56Z</time>
      </trkpt>
      <trkpt lat="45.50593" lon="5.91591">
        <ele>1045.7</ele>
        <time>2014-04-04T12:33:58Z</time>
      </trkpt>
      <trkpt lat="45.5059" lon="5.91586">
        <ele>1046.8</ele>
        <time>2014-04-04T12:34:00Z</time>
      </trkpt>
      <trkpt lat="45.50587" lon="5.9158">
        <ele>1047.9</ele>
        <time>2014-04-04T12:34:02Z</time>
      </trkpt>
      <trkpt lat="45.50585" lon="5.91576">
        <ele>1048.2</ele>
        <time>2014-04-04T12:34:04Z</time>
      </trkpt>
      <trkpt lat="45.50584" lon="5.91573">
        <ele>1048.5</ele>
        <time>2014-04-04T12:34:06Z</time>
      </trkpt>
      <trkpt lat="45.50581" lon="5.9157">
        <ele>1049</ele>
        <time>2014-04-04T12:34:08Z</time>
      </trkpt>
      <trkpt lat="45.50576" lon="5.91564">
        <ele>1050.2</ele>
        <time>2014-04-04T12:34:10Z</time>
      </trkpt>
      <trkpt lat="45.50575" lon="5.91562">
        <ele>1050.6</ele>
        <time>2014-04-04T12:34:12Z</time>
      </trkpt>
      <trkpt lat="45.50573" lon="5.91558">
        <ele>1051.6</ele>
        <time>2014-04-04T12:34:14Z</time>
      </trkpt>
      <trkpt lat="45.50574" lon="5.9155">
        <ele>1050.5</ele>
        <time>2014-04-04T12:34:16Z</time>
      </trkpt>
      <trkpt lat="45.50573" lon="5.91549">
        <ele>1050.7</ele>
        <time>2014-04-04T12:34:18Z</time>
      </trkpt>
      <trkpt lat="45.50571" lon="5.91546">
        <ele>1050.8</ele>
        <time>2014-04-04T12:34:20Z</time>
      </trkpt>
      <trkpt lat="45.50568" lon="5.91544">
        <ele>1051.7</ele>
        <time>2014-04-04T12:34:22Z</time>
      </trkpt>
      <trkpt lat="45.50565" lon="5.9154">
        <ele>1052.1</ele>
        <time>2014-04-04T12:34:24Z</time>
      </trkpt>
      <trkpt lat="45.50563" lon="5.91535">
        <ele>1052.4</ele>
        <time>2014-04-04T12:34:26Z</time>
      </trkpt>
      <trkpt lat="45.50561" lon="5.91534">
        <ele>1052.7</ele>
        <time>2014-04-04T12:34:28Z</time>
      </trkpt>
      <trkpt lat="45.50559" lon="5.91531">
        <ele>1053.2</ele>
        <time>2014-04-04T12:34:30Z</time>
      </trkpt>
      <trkpt lat="45.50555" lon="5.91525">
        <ele>1053.5</ele>
        <time>2014-04-04T12:34:32Z</time>
      </trkpt>
      <trkpt lat="45.50552" lon="5.91522">
        <ele>1053.6</ele>
        <time>2014-04-04T12:34:34Z</time>
      </trkpt>
      <trkpt lat="45.5055" lon="5.9152">
        <ele>1053.6</ele>
        <time>2014-04-04T12:34:36Z</time>
      </trkpt>
      <trkpt lat="45.50548" lon="5.91518">
        <ele>1053.6</ele>
        <time>2014-04-04T12:34:38Z</time>
      </trkpt>
      <trkpt lat="45.50539" lon="5.91515">
        <ele>1055.1</ele>
        <time>2014-04-04T12:34:40Z</time>
      </trkpt>
      <trkpt lat="45.50538" lon="5.91514">
        <ele>1055.3</ele>
        <time>2014-04-04T12:34:42Z</time>
      </trkpt>
      <trkpt lat="45.50535" lon="5.91512">
        <ele>1055.5</ele>
        <time>2014-04-04T12:34:44Z</time>
      </trkpt>
      <trkpt lat="45.50529" lon="5.91507">
        <ele>1056</ele>
        <time>2014-04-04T12:34:46Z</time>
      </trkpt>
      <trkpt lat="45.50525" lon="5.91503">
        <ele>1056.5</ele>
        <time>2014-04-04T12:34:48Z</time>
      </trkpt>
      <trkpt lat="45.50525" lon="5.915">
        <ele>1056.2</ele>
        <time>2014-04-04T12:34:50Z</time>
      </trkpt>
      <trkpt lat="45.50523" lon="5.91495">
        <ele>1055.6</ele>
        <time>2014-04-04T12:34:52Z</time>
      </trkpt>
      <trkpt lat="45.5052" lon="5.91491">
        <ele>1055.5</ele>
        <time>2014-04-04T12:34:54Z</time>
      </trkpt>
      <trkpt lat="45.50516" lon="5.91488">
        <ele>1055.8</ele>
        <time>2014-04-04T12:34:56Z</time>
      </trkpt>
      <trkpt lat="45.50514" lon="5.91486">
        <ele>1056.1</ele>
        <time>2014-04-04T12:34:58Z</time>
      </trkpt>
      <trkpt lat="45.5051" lon="5.91484">
        <ele>1056.7</ele>
        <time>2014-04-04T12:35:00Z</time>
      </trkpt>
      <trkpt lat="45.50504" lon="5.9148">
        <ele>1057.2</ele>
        <time>2014-04-04T12:35:02Z</time>
      </trkpt>
      <trkpt lat="45.505" lon="5.91478">
        <ele>1057.5</ele>
        <time>2014-04-04T12:35:04Z</time>
      </trkpt>
      <trkpt lat="45.50498" lon="5.91477">
        <ele>1057.6</ele>
        <time>2014-04-04T12:35:06Z</time>
      </trkpt>
      <trkpt lat="45.50494" lon="5.91476">
        <ele>1057.8</ele>
        <time>2014-04-04T12:35:08Z</time>
      </trkpt>
      <trkpt lat="45.50487" lon="5.91471">
        <ele>1057.8</ele>
        <time>2014-04-04T12:35:10Z</time>
      </trkpt>
      <trkpt lat="45.50484" lon="5.9147">
        <ele>1058</ele>
        <time>2014-04-04T12:35:12Z</time>
      </trkpt>
      <trkpt lat="45.5048" lon="5.91467">
        <ele>1058</ele>
        <time>2014-04-04T12:35:14Z</time>
      </trkpt>
      <trkpt lat="45.50476" lon="5.91464">
        <ele>1057.7</ele>
        <time>2014-04-04T12:35:16Z</time>
      </trkpt>
      <trkpt lat="45.50472" lon="5.9146">
        <ele>1057.1</ele>
        <time>2014-04-04T12:35:18Z</time>
      </trkpt>
      <trkpt lat="45.50471" lon="5.91459">
        <ele>1057.1</ele>
        <time>2014-04-04T12:35:20Z</time>
      </trkpt>
      <trkpt lat="45.50466" lon="5.91457">
        <ele>1057.5</ele>
        <time>2014-04-04T12:35:22Z</time>
      </trkpt>
      <trkpt lat="45.50461" lon="5.91454">
        <ele>1057.4</ele>
        <time>2014-04-04T12:35:24Z</time>
      </trkpt>
      <trkpt lat="45.50456" lon="5.91452">
        <ele>1058</ele>
        <time>2014-04-04T12:35:26Z</time>
      </trkpt>
      <trkpt lat="45.50454" lon="5.91451">
        <ele>1058.2</ele>
        <time>2014-04-04T12:35:28Z</time>
      </trkpt>
      <trkpt lat="45.5045" lon="5.91449">
        <ele>1058.8</ele>
        <time>2014-04-04T12:35:30Z</time>
      </trkpt>
      <trkpt lat="45.50447" lon="5.91446">
        <ele>1058.6</ele>
        <time>2014-04-04T12:35:32Z</time>
      </trkpt>
      <trkpt lat="45.50442" lon="5.91445">
        <ele>1059.5</ele>
        <time>2014-04-04T12:35:34Z</time>
      </trkpt>
      <trkpt lat="45.50439" lon="5.91445">
        <ele>1059.8</ele>
        <time>2014-04-04T12:35:36Z</time>
      </trkpt>
      <trkpt lat="45.50435" lon="5.91442">
        <ele>1059.6</ele>
        <time>2014-04-04T12:35:38Z</time>
      </trkpt>
      <trkpt lat="45.50428" lon="5.91438">
        <ele>1059.7</ele>
        <time>2014-04-04T12:35:40Z</time>
      </trkpt>
      <trkpt lat="45.50426" lon="5.91437">
        <ele>1059.9</ele>
        <time>2014-04-04T12:35:42Z</time>
      </trkpt>
      <trkpt lat="45.50422" lon="5.91434">
        <ele>1060.1</ele>
        <time>2014-04-04T12:35:44Z</time>
      </trkpt>
      <trkpt lat="45.50416" lon="5.9143">
        <ele>1061</ele>
        <time>2014-04-04T12:35:46Z</time>
      </trkpt>
      <trkpt lat="45.50415" lon="5.91429">
        <ele>1060.9</ele>
        <time>2014-04-04T12:35:48Z</time>
      </trkpt>
      <trkpt lat="45.5041" lon="5.91426">
        <ele>1060.9</ele>
        <time>2014-04-04T12:35:50Z</time>
      </trkpt>
      <trkpt lat="45.50405" lon="5.91423">
        <ele>1061.1</ele>
        <time>2014-04-04T12:35:52Z</time>
      </trkpt>
      <trkpt lat="45.504" lon="5.91416">
        <ele>1061.3</ele>
        <time>2014-04-04T12:35:54Z</time>
      </trkpt>
      <trkpt lat="45.50397" lon="5.91411">
        <ele>1061.4</ele>
        <time>2014-04-04T12:35:56Z</time>
      </trkpt>
      <trkpt lat="45.50396" lon="5.91409">
        <ele>1061.5</ele>
        <time>2014-04-04T12:35:58Z</time>
      </trkpt>
      <trkpt lat="45.50393" lon="5.91402">
        <ele>1062</ele>
        <time>2014-04-04T12:36:00Z</time>
      </trkpt>
      <trkpt lat="45.50391" lon="5.91396">
        <ele>1062.5</ele>
        <time>2014-04-04T12:36:02Z</time>
      </trkpt>
      <trkpt lat="45.50389" lon="5.91394">
        <ele>1063</ele>
        <time>2014-04-04T12:36:04Z</time>
      </trkpt>
      <trkpt lat="45.50388" lon="5.91389">
        <ele>1062.9</ele>
        <time>2014-04-04T12:36:06Z</time>
      </trkpt>
      <trkpt lat="45.50385" lon="5.91384">
        <ele>1062.9</ele>
        <time>2014-04-04T12:36:08Z</time>
      </trkpt>
      <trkpt lat="45.50381" lon="5.91378">
        <ele>1062.9</ele>
        <time>2014-04-04T12:36:10Z</time>
      </trkpt>
      <trkpt lat="45.50381" lon="5.91376">
        <ele>1062.9</ele>
        <time>2014-04-04T12:36:12Z</time>
      </trkpt>
      <trkpt lat="45.50379" lon="5.91371">
        <ele>1062.9</ele>
        <time>2014-04-04T12:36:14Z</time>
      </trkpt>
      <trkpt lat="45.50377" lon="5.91361">
        <ele>1063.1</ele>
        <time>2014-04-04T12:36:16Z</time>
      </trkpt>
      <trkpt lat="45.50376" lon="5.91354">
        <ele>1064</ele>
        <time>2014-04-04T12:36:18Z</time>
      </trkpt>
      <trkpt lat="45.50376" lon="5.91351">
        <ele>1064.3</ele>
        <time>2014-04-04T12:36:20Z</time>
      </trkpt>
      <trkpt lat="45.50374" lon="5.91346">
        <ele>1064.8</ele>
        <time>2014-04-04T12:36:22Z</time>
      </trkpt>
      <trkpt lat="45.5037" lon="5.9134">
        <ele>1065.4</ele>
        <time>2014-04-04T12:36:24Z</time>
      </trkpt>
      <trkpt lat="45.50367" lon="5.91336">
        <ele>1065.9</ele>
        <time>2014-04-04T12:36:26Z</time>
      </trkpt>
      <trkpt lat="45.50366" lon="5.91333">
        <ele>1066.3</ele>
        <time>2014-04-04T12:36:28Z</time>
      </trkpt>
      <trkpt lat="45.50364" lon="5.91326">
        <ele>1067.5</ele>
        <time>2014-04-04T12:36:30Z</time>
      </trkpt>
      <trkpt lat="45.50363" lon="5.9132">
        <ele>1068.4</ele>
        <time>2014-04-04T12:36:32Z</time>
      </trkpt>
      <trkpt lat="45.50362" lon="5.91318">
        <ele>1068.8</ele>
        <time>2014-04-04T12:36:34Z</time>
      </trkpt>
      <trkpt lat="45.5036" lon="5.91314">
        <ele>1069.2</ele>
        <time>2014-04-04T12:36:36Z</time>
      </trkpt>
      <trkpt lat="45.50358" lon="5.91311">
        <ele>1069.2</ele>
        <time>2014-04-04T12:36:38Z</time>
      </trkpt>
      <trkpt lat="45.50357" lon="5.91304">
        <ele>1070.2</ele>
        <time>2014-04-04T12:36:40Z</time>
      </trkpt>
      <trkpt lat="45.50356" lon="5.91301">
        <ele>1070.7</ele>
        <time>2014-04-04T12:36:42Z</time>
      </trkpt>
      <trkpt lat="45.50357" lon="5.91294">
        <ele>1071.8</ele>
        <time>2014-04-04T12:36:44Z</time>
      </trkpt>
      <trkpt lat="45.50357" lon="5.91284">
        <ele>1073.6</ele>
        <time>2014-04-04T12:36:46Z</time>
      </trkpt>
      <trkpt lat="45.50357" lon="5.91277">
        <ele>1075</ele>
        <time>2014-04-04T12:36:48Z</time>
      </trkpt>
      <trkpt lat="45.50358" lon="5.91274">
        <ele>1075.6</ele>
        <time>2014-04-04T12:36:50Z</time>
      </trkpt>
      <trkpt lat="45.5036" lon="5.9127">
        <ele>1076.7</ele>
        <time>2014-04-04T12:36:52Z</time>
      </trkpt>
      <trkpt lat="45.50362" lon="5.91267">
        <ele>1077.7</ele>
        <time>2014-04-04T12:36:54Z</time>
      </trkpt>
      <trkpt lat="45.50365" lon="5.91263">
        <ele>1078.5</ele>
        <time>2014-04-04T12:36:56Z</time>
      </trkpt>
      <trkpt lat="45.50366" lon="5.91261">
        <ele>1078.7</ele>
        <time>2014-04-04T12:36:58Z</time>
      </trkpt>
      <trkpt lat="45.50368" lon="5.91258">
        <ele>1079.3</ele>
        <time>2014-04-04T12:37:00Z</time>
      </trkpt>
      <trkpt lat="45.50371" lon="5.91255">
        <ele>1080</ele>
        <time>2014-04-04T12:37:02Z</time>
      </trkpt>
      <trkpt lat="45.50371" lon="5.91253">
        <ele>1080.2</ele>
        <time>2014-04-04T12:37:04Z</time>
      </trkpt>
      <trkpt lat="45.50372" lon="5.91251">
        <ele>1080.6</ele>
        <time>2014-04-04T12:37:06Z</time>
      </trkpt>
      <trkpt lat="45.50374" lon="5.9125">
        <ele>1081</ele>
        <time>2014-04-04T12:37:08Z</time>
      </trkpt>
      <trkpt lat="45.50377" lon="5.91247">
        <ele>1081.4</ele>
        <time>2014-04-04T12:37:10Z</time>
      </trkpt>
      <trkpt lat="45.50377" lon="5.91245">
        <ele>1081.5</ele>
        <time>2014-04-04T12:37:12Z</time>
      </trkpt>
      <trkpt lat="45.50379" lon="5.91239">
        <ele>1082.1</ele>
        <time>2014-04-04T12:37:14Z</time>
      </trkpt>
      <trkpt lat="45.5038" lon="5.91236">
        <ele>1082.4</ele>
        <time>2014-04-04T12:37:16Z</time>
      </trkpt>
      <trkpt lat="45.5038" lon="5.91234">
        <ele>1082.5</ele>
        <time>2014-04-04T12:37:18Z</time>
      </trkpt>
      <trkpt lat="45.5038" lon="5.9123">
        <ele>1082.8</ele>
        <time>2014-04-04T12:37:20Z</time>
      </trkpt>
      <trkpt lat="45.50381" lon="5.91227">
        <ele>1083.1</ele>
        <time>2014-04-04T12:37:22Z</time>
      </trkpt>
      <trkpt lat="45.50383" lon="5.91221">
        <ele>1083.7</ele>
        <time>2014-04-04T12:37:24Z</time>
      </trkpt>
      <trkpt lat="45.50383" lon="5.91219">
        <ele>1084</ele>
        <time>2014-04-04T12:37:26Z</time>
      </trkpt>
      <trkpt lat="45.50384" lon="5.91215">
        <ele>1084.3</ele>
        <time>2014-04-04T12:37:28Z</time>
      </trkpt>
      <trkpt lat="45.50384" lon="5.91212">
        <ele>1084.6</ele>
        <time>2014-04-04T12:37:30Z</time>
      </trkpt>
      <trkpt lat="45.50385" lon="5.9121">
        <ele>1084.9</ele>
        <time>2014-04-04T12:37:32Z</time>
      </trkpt>
      <trkpt lat="45.50389" lon="5.91204">
        <ele>1085.9</ele>
        <time>2014-04-04T12:37:34Z</time>
      </trkpt>
      <trkpt lat="45.5039" lon="5.912">
        <ele>1086.6</ele>
        <time>2014-04-04T12:37:36Z</time>
      </trkpt>
      <trkpt lat="45.50392" lon="5.91195">
        <ele>1087.4</ele>
        <time>2014-04-04T12:37:38Z</time>
      </trkpt>
      <trkpt lat="45.50392" lon="5.91194">
        <ele>1087.5</ele>
        <time>2014-04-04T12:37:40Z</time>
      </trkpt>
      <trkpt lat="45.50392" lon="5.91193">
        <ele>1087.7</ele>
        <time>2014-04-04T12:37:42Z</time>
      </trkpt>
      <trkpt lat="45.50392" lon="5.91189">
        <ele>1088.4</ele>
        <time>2014-04-04T12:37:44Z</time>
      </trkpt>
      <trkpt lat="45.50392" lon="5.91187">
        <ele>1088.7</ele>
        <time>2014-04-04T12:37:46Z</time>
      </trkpt>
      <trkpt lat="45.50392" lon="5.91186">
        <ele>1088.9</ele>
        <time>2014-04-04T12:37:48Z</time>
      </trkpt>
      <trkpt lat="45.50391" lon="5.91185">
        <ele>1089</ele>
        <time>2014-04-04T12:37:50Z</time>
      </trkpt>
      <trkpt lat="45.50392" lon="5.91184">
        <ele>1089.2</ele>
        <time>2014-04-04T12:37:52Z</time>
      </trkpt>
      <trkpt lat="45.50391" lon="5.91181">
        <ele>1089.7</ele>
        <time>2014-04-04T12:37:54Z</time>
      </trkpt>
      <trkpt lat="45.50391" lon="5.91181">
        <ele>1089.7</ele>
        <time>2014-04-04T12:37:56Z</time>
      </trkpt>
      <trkpt lat="45.50393" lon="5.9118">
        <ele>1090.1</ele>
        <time>2014-04-04T12:37:58Z</time>
      </trkpt>
      <trkpt lat="45.50396" lon="5.91178">
        <ele>1090.7</ele>
        <time>2014-04-04T12:38:00Z</time>
      </trkpt>
      <trkpt lat="45.50396" lon="5.91175">
        <ele>1091.1</ele>
        <time>2014-04-04T12:38:02Z</time>
      </trkpt>
      <trkpt lat="45.50398" lon="5.91171">
        <ele>1092</ele>
        <time>2014-04-04T12:38:04Z</time>
      </trkpt>
      <trkpt lat="45.504" lon="5.91166">
        <ele>1092.9</ele>
        <time>2014-04-04T12:38:06Z</time>
      </trkpt>
      <trkpt lat="45.504" lon="5.91163">
        <ele>1093.3</ele>
        <time>2014-04-04T12:38:08Z</time>
      </trkpt>
      <trkpt lat="45.50403" lon="5.91156">
        <ele>1094.2</ele>
        <time>2014-04-04T12:38:10Z</time>
      </trkpt>
      <trkpt lat="45.50403" lon="5.91153">
        <ele>1094.5</ele>
        <time>2014-04-04T12:38:12Z</time>
      </trkpt>
      <trkpt lat="45.50404" lon="5.91151">
        <ele>1094.7</ele>
        <time>2014-04-04T12:38:14Z</time>
      </trkpt>
      <trkpt lat="45.50404" lon="5.91149">
        <ele>1094.9</ele>
        <time>2014-04-04T12:38:16Z</time>
      </trkpt>
      <trkpt lat="45.50405" lon="5.91142">
        <ele>1095.6</ele>
        <time>2014-04-04T12:38:18Z</time>
      </trkpt>
      <trkpt lat="45.50405" lon="5.9114">
        <ele>1095.8</ele>
        <time>2014-04-04T12:38:20Z</time>
      </trkpt>
      <trkpt lat="45.50404" lon="5.91135">
        <ele>1096.3</ele>
        <time>2014-04-04T12:38:22Z</time>
      </trkpt>
      <trkpt lat="45.50405" lon="5.91131">
        <ele>1096.6</ele>
        <time>2014-04-04T12:38:24Z</time>
      </trkpt>
      <trkpt lat="45.50406" lon="5.91125">
        <ele>1097.1</ele>
        <time>2014-04-04T12:38:26Z</time>
      </trkpt>
      <trkpt lat="45.50406" lon="5.91121">
        <ele>1097.5</ele>
        <time>2014-04-04T12:38:28Z</time>
      </trkpt>
      <trkpt lat="45.50406" lon="5.91117">
        <ele>1097.8</ele>
        <time>2014-04-04T12:38:30Z</time>
      </trkpt>
      <trkpt lat="45.50408" lon="5.91112">
        <ele>1098.3</ele>
        <time>2014-04-04T12:38:32Z</time>
      </trkpt>
      <trkpt lat="45.50408" lon="5.91111">
        <ele>1098.4</ele>
        <time>2014-04-04T12:38:34Z</time>
      </trkpt>
      <trkpt lat="45.5041" lon="5.91108">
        <ele>1099</ele>
        <time>2014-04-04T12:38:36Z</time>
      </trkpt>
      <trkpt lat="45.50412" lon="5.91099">
        <ele>1100.8</ele>
        <time>2014-04-04T12:38:38Z</time>
      </trkpt>
      <trkpt lat="45.50413" lon="5.91095">
        <ele>1101.7</ele>
        <time>2014-04-04T12:38:40Z</time>
      </trkpt>
      <trkpt lat="45.50414" lon="5.91092">
        <ele>1102.2</ele>
        <time>2014-04-04T12:38:42Z</time>
      </trkpt>
      <trkpt lat="45.50416" lon="5.91088">
        <ele>1103</ele>
        <time>2014-04-04T12:38:44Z</time>
      </trkpt>
      <trkpt lat="45.50418" lon="5.91083">
        <ele>1103.8</ele>
        <time>2014-04-04T12:38:46Z</time>
      </trkpt>
      <trkpt lat="45.50419" lon="5.9108">
        <ele>1104.3</ele>
        <time>2014-04-04T12:38:48Z</time>
      </trkpt>
      <trkpt lat="45.50419" lon="5.91078">
        <ele>1104.7</ele>
        <time>2014-04-04T12:38:50Z</time>
      </trkpt>
      <trkpt lat="45.50421" lon="5.91072">
        <ele>1105.6</ele>
        <time>2014-04-04T12:38:52Z</time>
      </trkpt>
      <trkpt lat="45.50422" lon="5.91069">
        <ele>1106.2</ele>
        <time>2014-04-04T12:38:54Z</time>
      </trkpt>
      <trkpt lat="45.50422" lon="5.91066">
        <ele>1106.8</ele>
        <time>2014-04-04T12:38:56Z</time>
      </trkpt>
      <trkpt lat="45.50423" lon="5.91063">
        <ele>1107.1</ele>
        <time>2014-04-04T12:38:58Z</time>
      </trkpt>
      <trkpt lat="45.50424" lon="5.91061">
        <ele>1107.6</ele>
        <time>2014-04-04T12:39:00Z</time>
      </trkpt>
      <trkpt lat="45.50425" lon="5.91058">
        <ele>1108.1</ele>
        <time>2014-04-04T12:39:02Z</time>
      </trkpt>
      <trkpt lat="45.50427" lon="5.91055">
        <ele>1108.4</ele>
        <time>2014-04-04T12:39:04Z</time>
      </trkpt>
      <trkpt lat="45.50427" lon="5.91052">
        <ele>1109</ele>
        <time>2014-04-04T12:39:06Z</time>
      </trkpt>
      <trkpt lat="45.50426" lon="5.91047">
        <ele>1110.3</ele>
        <time>2014-04-04T12:39:08Z</time>
      </trkpt>
      <trkpt lat="45.50427" lon="5.91043">
        <ele>1111.1</ele>
        <time>2014-04-04T12:39:10Z</time>
      </trkpt>
      <trkpt lat="45.50427" lon="5.91041">
        <ele>1111.5</ele>
        <time>2014-04-04T12:39:12Z</time>
      </trkpt>
      <trkpt lat="45.50428" lon="5.91039">
        <ele>1111.7</ele>
        <time>2014-04-04T12:39:14Z</time>
      </trkpt>
      <trkpt lat="45.50426" lon="5.91037">
        <ele>1112.6</ele>
        <time>2014-04-04T12:39:16Z</time>
      </trkpt>
      <trkpt lat="45.50426" lon="5.91036">
        <ele>1113</ele>
        <time>2014-04-04T12:39:18Z</time>
      </trkpt>
      <trkpt lat="45.50425" lon="5.91032">
        <ele>1114</ele>
        <time>2014-04-04T12:39:20Z</time>
      </trkpt>
      <trkpt lat="45.50426" lon="5.91029">
        <ele>1114.3</ele>
        <time>2014-04-04T12:39:22Z</time>
      </trkpt>
      <trkpt lat="45.50426" lon="5.91025">
        <ele>1115.7</ele>
        <time>2014-04-04T12:39:24Z</time>
      </trkpt>
      <trkpt lat="45.50427" lon="5.91021">
        <ele>1116.7</ele>
        <time>2014-04-04T12:39:26Z</time>
      </trkpt>
      <trkpt lat="45.50428" lon="5.91019">
        <ele>1117.2</ele>
        <time>2014-04-04T12:39:28Z</time>
      </trkpt>
      <trkpt lat="45.5043" lon="5.91014">
        <ele>1118.2</ele>
        <time>2014-04-04T12:39:30Z</time>
      </trkpt>
      <trkpt lat="45.50432" lon="5.91009">
        <ele>1119</ele>
        <time>2014-04-04T12:39:32Z</time>
      </trkpt>
      <trkpt lat="45.50433" lon="5.91006">
        <ele>1119.7</ele>
        <time>2014-04-04T12:39:34Z</time>
      </trkpt>
      <trkpt lat="45.50434" lon="5.91003">
        <ele>1120.5</ele>
        <time>2014-04-04T12:39:36Z</time>
      </trkpt>
      <trkpt lat="45.50435" lon="5.91">
        <ele>1121.2</ele>
        <time>2014-04-04T12:39:38Z</time>
      </trkpt>
      <trkpt lat="45.50436" lon="5.90998">
        <ele>1121.5</ele>
        <time>2014-04-04T12:39:40Z</time>
      </trkpt>
      <trkpt lat="45.50437" lon="5.90997">
        <ele>1121.5</ele>
        <time>2014-04-04T12:39:42Z</time>
      </trkpt>
      <trkpt lat="45.50437" lon="5.90996">
        <ele>1121.6</ele>
        <time>2014-04-04T12:39:44Z</time>
      </trkpt>
      <trkpt lat="45.50437" lon="5.90995">
        <ele>1122.2</ele>
        <time>2014-04-04T12:39:46Z</time>
      </trkpt>
      <trkpt lat="45.50437" lon="5.90994">
        <ele>1122.3</ele>
        <time>2014-04-04T12:39:48Z</time>
      </trkpt>
      <trkpt lat="45.50437" lon="5.90991">
        <ele>1123</ele>
        <time>2014-04-04T12:39:50Z</time>
      </trkpt>
      <trkpt lat="45.50437" lon="5.90988">
        <ele>1123.9</ele>
        <time>2014-04-04T12:39:52Z</time>
      </trkpt>
      <trkpt lat="45.50438" lon="5.90985">
        <ele>1124.2</ele>
        <time>2014-04-04T12:39:54Z</time>
      </trkpt>
      <trkpt lat="45.50439" lon="5.90984">
        <ele>1124.3</ele>
        <time>2014-04-04T12:39:56Z</time>
      </trkpt>
      <trkpt lat="45.5044" lon="5.9098">
        <ele>1125</ele>
        <time>2014-04-04T12:39:58Z</time>
      </trkpt>
      <trkpt lat="45.5044" lon="5.90979">
        <ele>1125.5</ele>
        <time>2014-04-04T12:40:00Z</time>
      </trkpt>
      <trkpt lat="45.50439" lon="5.90978">
        <ele>1125.8</ele>
        <time>2014-04-04T12:40:02Z</time>
      </trkpt>
      <trkpt lat="45.50439" lon="5.90978">
        <ele>1126.2</ele>
        <time>2014-04-04T12:40:04Z</time>
      </trkpt>
      <trkpt lat="45.50439" lon="5.90976">
        <ele>1126.4</ele>
        <time>2014-04-04T12:40:06Z</time>
      </trkpt>
      <trkpt lat="45.50439" lon="5.90973">
        <ele>1127.3</ele>
        <time>2014-04-04T12:40:08Z</time>
      </trkpt>
      <trkpt lat="45.50439" lon="5.90972">
        <ele>1127.5</ele>
        <time>2014-04-04T12:40:10Z</time>
      </trkpt>
      <trkpt lat="45.50439" lon="5.9097">
        <ele>1128.1</ele>
        <time>2014-04-04T12:40:12Z</time>
      </trkpt>
      <trkpt lat="45.5044" lon="5.90968">
        <ele>1128.2</ele>
        <time>2014-04-04T12:40:14Z</time>
      </trkpt>
      <trkpt lat="45.50441" lon="5.90963">
        <ele>1129.2</ele>
        <time>2014-04-04T12:40:16Z</time>
      </trkpt>
      <trkpt lat="45.50442" lon="5.90961">
        <ele>1129.4</ele>
        <time>2014-04-04T12:40:18Z</time>
      </trkpt>
      <trkpt lat="45.50442" lon="5.9096">
        <ele>1129.9</ele>
        <time>2014-04-04T12:40:20Z</time>
      </trkpt>
      <trkpt lat="45.50441" lon="5.90957">
        <ele>1130.8</ele>
        <time>2014-04-04T12:40:22Z</time>
      </trkpt>
      <trkpt lat="45.50443" lon="5.90952">
        <ele>1131.3</ele>
        <time>2014-04-04T12:40:24Z</time>
      </trkpt>
      <trkpt lat="45.50445" lon="5.90951">
        <ele>1131.2</ele>
        <time>2014-04-04T12:40:26Z</time>
      </trkpt>
      <trkpt lat="45.50445" lon="5.90947">
        <ele>1131.9</ele>
        <time>2014-04-04T12:40:28Z</time>
      </trkpt>
      <trkpt lat="45.50448" lon="5.90945">
        <ele>1131.4</ele>
        <time>2014-04-04T12:40:30Z</time>
      </trkpt>
      <trkpt lat="45.50449" lon="5.90939">
        <ele>1132</ele>
        <time>2014-04-04T12:40:34Z</time>
      </trkpt>
      <trkpt lat="45.50448" lon="5.90938">
        <ele>1132.4</ele>
        <time>2014-04-04T12:40:36Z</time>
      </trkpt>
      <trkpt lat="45.50447" lon="5.90934">
        <ele>1133.7</ele>
        <time>2014-04-04T12:40:38Z</time>
      </trkpt>
      <trkpt lat="45.50448" lon="5.90933">
        <ele>1133.6</ele>
        <time>2014-04-04T12:40:40Z</time>
      </trkpt>
      <trkpt lat="45.50448" lon="5.90929">
        <ele>1134.1</ele>
        <time>2014-04-04T12:40:42Z</time>
      </trkpt>
      <trkpt lat="45.50447" lon="5.90928">
        <ele>1135</ele>
        <time>2014-04-04T12:40:44Z</time>
      </trkpt>
      <trkpt lat="45.50447" lon="5.90925">
        <ele>1135</ele>
        <time>2014-04-04T12:40:46Z</time>
      </trkpt>
      <trkpt lat="45.50446" lon="5.90923">
        <ele>1136.1</ele>
        <time>2014-04-04T12:40:48Z</time>
      </trkpt>
      <trkpt lat="45.50445" lon="5.90922">
        <ele>1136.6</ele>
        <time>2014-04-04T12:40:50Z</time>
      </trkpt>
      <trkpt lat="45.50445" lon="5.9092">
        <ele>1137</ele>
        <time>2014-04-04T12:40:52Z</time>
      </trkpt>
      <trkpt lat="45.50444" lon="5.9092">
        <ele>1137.5</ele>
        <time>2014-04-04T12:40:54Z</time>
      </trkpt>
      <trkpt lat="45.50444" lon="5.9092">
        <ele>1137.7</ele>
        <time>2014-04-04T12:40:56Z</time>
      </trkpt>
      <trkpt lat="45.50443" lon="5.90918">
        <ele>1138.2</ele>
        <time>2014-04-04T12:40:58Z</time>
      </trkpt>
      <trkpt lat="45.50442" lon="5.90919">
        <ele>1138.5</ele>
        <time>2014-04-04T12:41:00Z</time>
      </trkpt>
      <trkpt lat="45.5044" lon="5.9092">
        <ele>1139.1</ele>
        <time>2014-04-04T12:41:02Z</time>
      </trkpt>
      <trkpt lat="45.50439" lon="5.90919">
        <ele>1139.5</ele>
        <time>2014-04-04T12:41:04Z</time>
      </trkpt>
      <trkpt lat="45.50439" lon="5.9092">
        <ele>1139.6</ele>
        <time>2014-04-04T12:41:06Z</time>
      </trkpt>
      <trkpt lat="45.50437" lon="5.90921">
        <ele>1140.2</ele>
        <time>2014-04-04T12:41:08Z</time>
      </trkpt>
      <trkpt lat="45.50436" lon="5.90921">
        <ele>1140.3</ele>
        <time>2014-04-04T12:41:10Z</time>
      </trkpt>
      <trkpt lat="45.50436" lon="5.90923">
        <ele>1140.2</ele>
        <time>2014-04-04T12:41:12Z</time>
      </trkpt>
      <trkpt lat="45.50436" lon="5.90923">
        <ele>1140.1</ele>
        <time>2014-04-04T12:41:14Z</time>
      </trkpt>
      <trkpt lat="45.50432" lon="5.90925">
        <ele>1141.5</ele>
        <time>2014-04-04T12:41:16Z</time>
      </trkpt>
      <trkpt lat="45.50431" lon="5.90925">
        <ele>1141.8</ele>
        <time>2014-04-04T12:41:18Z</time>
      </trkpt>
      <trkpt lat="45.50429" lon="5.90926">
        <ele>1142.3</ele>
        <time>2014-04-04T12:41:20Z</time>
      </trkpt>
      <trkpt lat="45.50428" lon="5.90929">
        <ele>1142.2</ele>
        <time>2014-04-04T12:41:22Z</time>
      </trkpt>
      <trkpt lat="45.50425" lon="5.90932">
        <ele>1142.9</ele>
        <time>2014-04-04T12:41:24Z</time>
      </trkpt>
      <trkpt lat="45.50424" lon="5.90933">
        <ele>1143.2</ele>
        <time>2014-04-04T12:41:26Z</time>
      </trkpt>
      <trkpt lat="45.50422" lon="5.90934">
        <ele>1144</ele>
        <time>2014-04-04T12:41:28Z</time>
      </trkpt>
      <trkpt lat="45.50421" lon="5.90936">
        <ele>1144.3</ele>
        <time>2014-04-04T12:41:30Z</time>
      </trkpt>
      <trkpt lat="45.50419" lon="5.90939">
        <ele>1144.6</ele>
        <time>2014-04-04T12:41:32Z</time>
      </trkpt>
      <trkpt lat="45.50418" lon="5.9094">
        <ele>1144.8</ele>
        <time>2014-04-04T12:41:34Z</time>
      </trkpt>
      <trkpt lat="45.50415" lon="5.90943">
        <ele>1145.8</ele>
        <time>2014-04-04T12:41:36Z</time>
      </trkpt>
      <trkpt lat="45.5041" lon="5.90944">
        <ele>1148.1</ele>
        <time>2014-04-04T12:41:38Z</time>
      </trkpt>
      <trkpt lat="45.50408" lon="5.90945">
        <ele>1148.5</ele>
        <time>2014-04-04T12:41:40Z</time>
      </trkpt>
      <trkpt lat="45.50406" lon="5.90947">
        <ele>1149.2</ele>
        <time>2014-04-04T12:41:42Z</time>
      </trkpt>
      <trkpt lat="45.50405" lon="5.90949">
        <ele>1149.3</ele>
        <time>2014-04-04T12:41:44Z</time>
      </trkpt>
      <trkpt lat="45.50403" lon="5.9095">
        <ele>1149.9</ele>
        <time>2014-04-04T12:41:46Z</time>
      </trkpt>
      <trkpt lat="45.50402" lon="5.90951">
        <ele>1149.8</ele>
        <time>2014-04-04T12:41:48Z</time>
      </trkpt>
      <trkpt lat="45.50402" lon="5.90953">
        <ele>1149.6</ele>
        <time>2014-04-04T12:41:50Z</time>
      </trkpt>
      <trkpt lat="45.50397" lon="5.90954">
        <ele>1151.2</ele>
        <time>2014-04-04T12:41:52Z</time>
      </trkpt>
      <trkpt lat="45.50394" lon="5.90955">
        <ele>1152.7</ele>
        <time>2014-04-04T12:41:54Z</time>
      </trkpt>
      <trkpt lat="45.50391" lon="5.90956">
        <ele>1153.5</ele>
        <time>2014-04-04T12:41:56Z</time>
      </trkpt>
      <trkpt lat="45.50388" lon="5.90956">
        <ele>1154.5</ele>
        <time>2014-04-04T12:41:58Z</time>
      </trkpt>
      <trkpt lat="45.50385" lon="5.90956">
        <ele>1154.9</ele>
        <time>2014-04-04T12:42:00Z</time>
      </trkpt>
      <trkpt lat="45.50383" lon="5.90954">
        <ele>1155.6</ele>
        <time>2014-04-04T12:42:02Z</time>
      </trkpt>
      <trkpt lat="45.50381" lon="5.9095">
        <ele>1156.5</ele>
        <time>2014-04-04T12:42:06Z</time>
      </trkpt>
      <trkpt lat="45.50379" lon="5.90947">
        <ele>1157.2</ele>
        <time>2014-04-04T12:42:08Z</time>
      </trkpt>
      <trkpt lat="45.50379" lon="5.90947">
        <ele>1157.3</ele>
        <time>2014-04-04T12:42:10Z</time>
      </trkpt>
      <trkpt lat="45.50378" lon="5.90945">
        <ele>1157.7</ele>
        <time>2014-04-04T12:42:12Z</time>
      </trkpt>
      <trkpt lat="45.50375" lon="5.90944">
        <ele>1158.1</ele>
        <time>2014-04-04T12:42:14Z</time>
      </trkpt>
      <trkpt lat="45.50374" lon="5.90941">
        <ele>1158.6</ele>
        <time>2014-04-04T12:42:16Z</time>
      </trkpt>
      <trkpt lat="45.50373" lon="5.9094">
        <ele>1158.8</ele>
        <time>2014-04-04T12:42:18Z</time>
      </trkpt>
      <trkpt lat="45.50371" lon="5.90938">
        <ele>1159.2</ele>
        <time>2014-04-04T12:42:20Z</time>
      </trkpt>
      <trkpt lat="45.50368" lon="5.90937">
        <ele>1159.6</ele>
        <time>2014-04-04T12:42:22Z</time>
      </trkpt>
      <trkpt lat="45.50367" lon="5.90936">
        <ele>1159.9</ele>
        <time>2014-04-04T12:42:24Z</time>
      </trkpt>
      <trkpt lat="45.50365" lon="5.90933">
        <ele>1160.6</ele>
        <time>2014-04-04T12:42:26Z</time>
      </trkpt>
      <trkpt lat="45.50363" lon="5.90932">
        <ele>1161.1</ele>
        <time>2014-04-04T12:42:28Z</time>
      </trkpt>
      <trkpt lat="45.50362" lon="5.90927">
        <ele>1162</ele>
        <time>2014-04-04T12:42:30Z</time>
      </trkpt>
      <trkpt lat="45.50362" lon="5.90926">
        <ele>1162.3</ele>
        <time>2014-04-04T12:42:32Z</time>
      </trkpt>
      <trkpt lat="45.50361" lon="5.90923">
        <ele>1162.9</ele>
        <time>2014-04-04T12:42:34Z</time>
      </trkpt>
      <trkpt lat="45.50359" lon="5.9092">
        <ele>1163.1</ele>
        <time>2014-04-04T12:42:36Z</time>
      </trkpt>
      <trkpt lat="45.50357" lon="5.90916">
        <ele>1163.7</ele>
        <time>2014-04-04T12:42:38Z</time>
      </trkpt>
      <trkpt lat="45.50356" lon="5.90914">
        <ele>1164</ele>
        <time>2014-04-04T12:42:40Z</time>
      </trkpt>
      <trkpt lat="45.50355" lon="5.90911">
        <ele>1164.7</ele>
        <time>2014-04-04T12:42:42Z</time>
      </trkpt>
      <trkpt lat="45.50354" lon="5.90906">
        <ele>1165.5</ele>
        <time>2014-04-04T12:42:44Z</time>
      </trkpt>
      <trkpt lat="45.50352" lon="5.90904">
        <ele>1165.9</ele>
        <time>2014-04-04T12:42:46Z</time>
      </trkpt>
      <trkpt lat="45.50352" lon="5.90903">
        <ele>1166</ele>
        <time>2014-04-04T12:42:48Z</time>
      </trkpt>
      <trkpt lat="45.5035" lon="5.90901">
        <ele>1166.3</ele>
        <time>2014-04-04T12:42:50Z</time>
      </trkpt>
      <trkpt lat="45.50349" lon="5.90896">
        <ele>1167.5</ele>
        <time>2014-04-04T12:42:52Z</time>
      </trkpt>
      <trkpt lat="45.50348" lon="5.90893">
        <ele>1168.1</ele>
        <time>2014-04-04T12:42:54Z</time>
      </trkpt>
      <trkpt lat="45.50347" lon="5.90891">
        <ele>1168.5</ele>
        <time>2014-04-04T12:42:56Z</time>
      </trkpt>
      <trkpt lat="45.50346" lon="5.90888">
        <ele>1168.9</ele>
        <time>2014-04-04T12:42:58Z</time>
      </trkpt>
      <trkpt lat="45.50344" lon="5.90884">
        <ele>1169.4</ele>
        <time>2014-04-04T12:43:02Z</time>
      </trkpt>
      <trkpt lat="45.50343" lon="5.90881">
        <ele>1169.7</ele>
        <time>2014-04-04T12:43:04Z</time>
      </trkpt>
      <trkpt lat="45.50341" lon="5.90877">
        <ele>1170.3</ele>
        <time>2014-04-04T12:43:06Z</time>
      </trkpt>
      <trkpt lat="45.5034" lon="5.90876">
        <ele>1170.3</ele>
        <time>2014-04-04T12:43:08Z</time>
      </trkpt>
      <trkpt lat="45.50339" lon="5.90876">
        <ele>1170.3</ele>
        <time>2014-04-04T12:43:10Z</time>
      </trkpt>
      <trkpt lat="45.50339" lon="5.90874">
        <ele>1170.7</ele>
        <time>2014-04-04T12:43:12Z</time>
      </trkpt>
      <trkpt lat="45.50338" lon="5.90869">
        <ele>1171.5</ele>
        <time>2014-04-04T12:43:14Z</time>
      </trkpt>
      <trkpt lat="45.50337" lon="5.90866">
        <ele>1172.1</ele>
        <time>2014-04-04T12:43:16Z</time>
      </trkpt>
      <trkpt lat="45.50336" lon="5.90863">
        <ele>1172.8</ele>
        <time>2014-04-04T12:43:20Z</time>
      </trkpt>
      <trkpt lat="45.50333" lon="5.90856">
        <ele>1173.8</ele>
        <time>2014-04-04T12:43:22Z</time>
      </trkpt>
      <trkpt lat="45.50332" lon="5.90852">
        <ele>1174.4</ele>
        <time>2014-04-04T12:43:24Z</time>
      </trkpt>
      <trkpt lat="45.50331" lon="5.9085">
        <ele>1174.5</ele>
        <time>2014-04-04T12:43:26Z</time>
      </trkpt>
      <trkpt lat="45.50329" lon="5.90847">
        <ele>1174.8</ele>
        <time>2014-04-04T12:43:28Z</time>
      </trkpt>
      <trkpt lat="45.50326" lon="5.90842">
        <ele>1175.1</ele>
        <time>2014-04-04T12:43:30Z</time>
      </trkpt>
      <trkpt lat="45.50326" lon="5.9084">
        <ele>1175.5</ele>
        <time>2014-04-04T12:43:32Z</time>
      </trkpt>
      <trkpt lat="45.50325" lon="5.90837">
        <ele>1175.9</ele>
        <time>2014-04-04T12:43:34Z</time>
      </trkpt>
      <trkpt lat="45.50325" lon="5.90834">
        <ele>1176.5</ele>
        <time>2014-04-04T12:43:36Z</time>
      </trkpt>
      <trkpt lat="45.50323" lon="5.90829">
        <ele>1177.4</ele>
        <time>2014-04-04T12:43:38Z</time>
      </trkpt>
      <trkpt lat="45.50321" lon="5.90827">
        <ele>1177.5</ele>
        <time>2014-04-04T12:43:40Z</time>
      </trkpt>
      <trkpt lat="45.50321" lon="5.90823">
        <ele>1178.4</ele>
        <time>2014-04-04T12:43:42Z</time>
      </trkpt>
      <trkpt lat="45.50317" lon="5.90818">
        <ele>1178.8</ele>
        <time>2014-04-04T12:43:44Z</time>
      </trkpt>
      <trkpt lat="45.50315" lon="5.90814">
        <ele>1179</ele>
        <time>2014-04-04T12:43:46Z</time>
      </trkpt>
      <trkpt lat="45.50314" lon="5.90813">
        <ele>1178.9</ele>
        <time>2014-04-04T12:43:48Z</time>
      </trkpt>
      <trkpt lat="45.5031" lon="5.90811">
        <ele>1178.4</ele>
        <time>2014-04-04T12:43:50Z</time>
      </trkpt>
      <trkpt lat="45.50307" lon="5.90806">
        <ele>1178.3</ele>
        <time>2014-04-04T12:43:52Z</time>
      </trkpt>
      <trkpt lat="45.50306" lon="5.90804">
        <ele>1178.5</ele>
        <time>2014-04-04T12:43:54Z</time>
      </trkpt>
      <trkpt lat="45.50303" lon="5.90801">
        <ele>1179.4</ele>
        <time>2014-04-04T12:43:56Z</time>
      </trkpt>
      <trkpt lat="45.50302" lon="5.90797">
        <ele>1180.3</ele>
        <time>2014-04-04T12:43:58Z</time>
      </trkpt>
      <trkpt lat="45.503" lon="5.90792">
        <ele>1181.9</ele>
        <time>2014-04-04T12:44:00Z</time>
      </trkpt>
      <trkpt lat="45.503" lon="5.9079">
        <ele>1182.7</ele>
        <time>2014-04-04T12:44:02Z</time>
      </trkpt>
      <trkpt lat="45.50299" lon="5.90787">
        <ele>1183.4</ele>
        <time>2014-04-04T12:44:04Z</time>
      </trkpt>
      <trkpt lat="45.50296" lon="5.90783">
        <ele>1184.5</ele>
        <time>2014-04-04T12:44:06Z</time>
      </trkpt>
      <trkpt lat="45.50295" lon="5.9078">
        <ele>1185.3</ele>
        <time>2014-04-04T12:44:08Z</time>
      </trkpt>
      <trkpt lat="45.50294" lon="5.90779">
        <ele>1185.5</ele>
        <time>2014-04-04T12:44:10Z</time>
      </trkpt>
      <trkpt lat="45.50295" lon="5.90777">
        <ele>1186.2</ele>
        <time>2014-04-04T12:44:12Z</time>
      </trkpt>
      <trkpt lat="45.50295" lon="5.90776">
        <ele>1186.5</ele>
        <time>2014-04-04T12:44:14Z</time>
      </trkpt>
      <trkpt lat="45.50294" lon="5.90774">
        <ele>1186.6</ele>
        <time>2014-04-04T12:44:16Z</time>
      </trkpt>
      <trkpt lat="45.50295" lon="5.90773">
        <ele>1186.9</ele>
        <time>2014-04-04T12:44:18Z</time>
      </trkpt>
      <trkpt lat="45.50295" lon="5.90771">
        <ele>1187.3</ele>
        <time>2014-04-04T12:44:20Z</time>
      </trkpt>
      <trkpt lat="45.50296" lon="5.90768">
        <ele>1188</ele>
        <time>2014-04-04T12:44:22Z</time>
      </trkpt>
      <trkpt lat="45.50296" lon="5.90767">
        <ele>1188.1</ele>
        <time>2014-04-04T12:44:24Z</time>
      </trkpt>
      <trkpt lat="45.50296" lon="5.90765">
        <ele>1188.4</ele>
        <time>2014-04-04T12:44:26Z</time>
      </trkpt>
      <trkpt lat="45.50296" lon="5.90763">
        <ele>1188.8</ele>
        <time>2014-04-04T12:44:28Z</time>
      </trkpt>
      <trkpt lat="45.50296" lon="5.9076">
        <ele>1189.3</ele>
        <time>2014-04-04T12:44:30Z</time>
      </trkpt>
      <trkpt lat="45.50296" lon="5.90759">
        <ele>1189.5</ele>
        <time>2014-04-04T12:44:32Z</time>
      </trkpt>
      <trkpt lat="45.50297" lon="5.90756">
        <ele>1190.1</ele>
        <time>2014-04-04T12:44:34Z</time>
      </trkpt>
      <trkpt lat="45.50296" lon="5.90753">
        <ele>1190.5</ele>
        <time>2014-04-04T12:44:36Z</time>
      </trkpt>
      <trkpt lat="45.50296" lon="5.90752">
        <ele>1190.7</ele>
        <time>2014-04-04T12:44:38Z</time>
      </trkpt>
      <trkpt lat="45.50296" lon="5.90751">
        <ele>1190.8</ele>
        <time>2014-04-04T12:44:40Z</time>
      </trkpt>
      <trkpt lat="45.50297" lon="5.90748">
        <ele>1191.3</ele>
        <time>2014-04-04T12:44:42Z</time>
      </trkpt>
      <trkpt lat="45.50297" lon="5.90746">
        <ele>1191.9</ele>
        <time>2014-04-04T12:44:44Z</time>
      </trkpt>
      <trkpt lat="45.50298" lon="5.90742">
        <ele>1192.8</ele>
        <time>2014-04-04T12:44:46Z</time>
      </trkpt>
      <trkpt lat="45.50298" lon="5.90741">
        <ele>1193</ele>
        <time>2014-04-04T12:44:48Z</time>
      </trkpt>
      <trkpt lat="45.50299" lon="5.90738">
        <ele>1193.5</ele>
        <time>2014-04-04T12:44:50Z</time>
      </trkpt>
      <trkpt lat="45.503" lon="5.90734">
        <ele>1194.3</ele>
        <time>2014-04-04T12:44:52Z</time>
      </trkpt>
      <trkpt lat="45.503" lon="5.90733">
        <ele>1194.6</ele>
        <time>2014-04-04T12:44:54Z</time>
      </trkpt>
      <trkpt lat="45.503" lon="5.90731">
        <ele>1194.9</ele>
        <time>2014-04-04T12:44:56Z</time>
      </trkpt>
      <trkpt lat="45.503" lon="5.90729">
        <ele>1195.3</ele>
        <time>2014-04-04T12:44:58Z</time>
      </trkpt>
      <trkpt lat="45.50301" lon="5.90725">
        <ele>1196.2</ele>
        <time>2014-04-04T12:45:00Z</time>
      </trkpt>
      <trkpt lat="45.50301" lon="5.90723">
        <ele>1196.6</ele>
        <time>2014-04-04T12:45:02Z</time>
      </trkpt>
      <trkpt lat="45.503" lon="5.90719">
        <ele>1197.2</ele>
        <time>2014-04-04T12:45:04Z</time>
      </trkpt>
      <trkpt lat="45.503" lon="5.90715">
        <ele>1198.1</ele>
        <time>2014-04-04T12:45:06Z</time>
      </trkpt>
      <trkpt lat="45.503" lon="5.90713">
        <ele>1198.7</ele>
        <time>2014-04-04T12:45:08Z</time>
      </trkpt>
      <trkpt lat="45.503" lon="5.90711">
        <ele>1199</ele>
        <time>2014-04-04T12:45:10Z</time>
      </trkpt>
      <trkpt lat="45.50299" lon="5.9071">
        <ele>1199.3</ele>
        <time>2014-04-04T12:45:12Z</time>
      </trkpt>
      <trkpt lat="45.50298" lon="5.90708">
        <ele>1199.6</ele>
        <time>2014-04-04T12:45:14Z</time>
      </trkpt>
      <trkpt lat="45.50298" lon="5.90705">
        <ele>1200.2</ele>
        <time>2014-04-04T12:45:16Z</time>
      </trkpt>
      <trkpt lat="45.50296" lon="5.90704">
        <ele>1200.3</ele>
        <time>2014-04-04T12:45:18Z</time>
      </trkpt>
      <trkpt lat="45.50295" lon="5.90702">
        <ele>1200.6</ele>
        <time>2014-04-04T12:45:20Z</time>
      </trkpt>
      <trkpt lat="45.50294" lon="5.90698">
        <ele>1201.4</ele>
        <time>2014-04-04T12:45:22Z</time>
      </trkpt>
      <trkpt lat="45.50294" lon="5.90697">
        <ele>1201.6</ele>
        <time>2014-04-04T12:45:24Z</time>
      </trkpt>
      <trkpt lat="45.50294" lon="5.90697">
        <ele>1201.7</ele>
        <time>2014-04-04T12:45:26Z</time>
      </trkpt>
      <trkpt lat="45.5029" lon="5.90695">
        <ele>1201.8</ele>
        <time>2014-04-04T12:45:28Z</time>
      </trkpt>
      <trkpt lat="45.50289" lon="5.90695">
        <ele>1201.7</ele>
        <time>2014-04-04T12:45:30Z</time>
      </trkpt>
      <trkpt lat="45.50288" lon="5.90694">
        <ele>1201.7</ele>
        <time>2014-04-04T12:45:32Z</time>
      </trkpt>
      <trkpt lat="45.50288" lon="5.90693">
        <ele>1202.1</ele>
        <time>2014-04-04T12:45:34Z</time>
      </trkpt>
      <trkpt lat="45.50286" lon="5.90693">
        <ele>1201.9</ele>
        <time>2014-04-04T12:45:36Z</time>
      </trkpt>
      <trkpt lat="45.50285" lon="5.90692">
        <ele>1202.2</ele>
        <time>2014-04-04T12:45:38Z</time>
      </trkpt>
      <trkpt lat="45.50284" lon="5.90691">
        <ele>1202.3</ele>
        <time>2014-04-04T12:45:40Z</time>
      </trkpt>
      <trkpt lat="45.50283" lon="5.90691">
        <ele>1202.5</ele>
        <time>2014-04-04T12:45:42Z</time>
      </trkpt>
      <trkpt lat="45.50281" lon="5.90689">
        <ele>1202.8</ele>
        <time>2014-04-04T12:45:44Z</time>
      </trkpt>
      <trkpt lat="45.50279" lon="5.9069">
        <ele>1202.5</ele>
        <time>2014-04-04T12:45:46Z</time>
      </trkpt>
      <trkpt lat="45.50276" lon="5.90689">
        <ele>1202.7</ele>
        <time>2014-04-04T12:45:48Z</time>
      </trkpt>
      <trkpt lat="45.5027" lon="5.90685">
        <ele>1204.1</ele>
        <time>2014-04-04T12:45:52Z</time>
      </trkpt>
      <trkpt lat="45.50268" lon="5.90685">
        <ele>1204.1</ele>
        <time>2014-04-04T12:45:54Z</time>
      </trkpt>
      <trkpt lat="45.50266" lon="5.90683">
        <ele>1204.7</ele>
        <time>2014-04-04T12:45:56Z</time>
      </trkpt>
      <trkpt lat="45.50264" lon="5.90682">
        <ele>1205.2</ele>
        <time>2014-04-04T12:45:58Z</time>
      </trkpt>
      <trkpt lat="45.50263" lon="5.90679">
        <ele>1206.1</ele>
        <time>2014-04-04T12:46:00Z</time>
      </trkpt>
      <trkpt lat="45.50261" lon="5.90676">
        <ele>1207.1</ele>
        <time>2014-04-04T12:46:02Z</time>
      </trkpt>
      <trkpt lat="45.5026" lon="5.90673">
        <ele>1208.1</ele>
        <time>2014-04-04T12:46:04Z</time>
      </trkpt>
      <trkpt lat="45.50259" lon="5.90669">
        <ele>1209.3</ele>
        <time>2014-04-04T12:46:06Z</time>
      </trkpt>
      <trkpt lat="45.50258" lon="5.90668">
        <ele>1209.6</ele>
        <time>2014-04-04T12:46:08Z</time>
      </trkpt>
      <trkpt lat="45.50258" lon="5.90665">
        <ele>1210.4</ele>
        <time>2014-04-04T12:46:10Z</time>
      </trkpt>
      <trkpt lat="45.50259" lon="5.90664">
        <ele>1210.8</ele>
        <time>2014-04-04T12:46:12Z</time>
      </trkpt>
      <trkpt lat="45.5026" lon="5.90661">
        <ele>1211.5</ele>
        <time>2014-04-04T12:46:14Z</time>
      </trkpt>
      <trkpt lat="45.50261" lon="5.90655">
        <ele>1213.1</ele>
        <time>2014-04-04T12:46:16Z</time>
      </trkpt>
      <trkpt lat="45.5026" lon="5.90652">
        <ele>1213.7</ele>
        <time>2014-04-04T12:46:18Z</time>
      </trkpt>
      <trkpt lat="45.50259" lon="5.9065">
        <ele>1214.1</ele>
        <time>2014-04-04T12:46:20Z</time>
      </trkpt>
      <trkpt lat="45.50258" lon="5.90648">
        <ele>1214.7</ele>
        <time>2014-04-04T12:46:22Z</time>
      </trkpt>
      <trkpt lat="45.50257" lon="5.90646">
        <ele>1215.2</ele>
        <time>2014-04-04T12:46:24Z</time>
      </trkpt>
      <trkpt lat="45.50257" lon="5.90645">
        <ele>1215.4</ele>
        <time>2014-04-04T12:46:26Z</time>
      </trkpt>
      <trkpt lat="45.50255" lon="5.90644">
        <ele>1215.8</ele>
        <time>2014-04-04T12:46:28Z</time>
      </trkpt>
      <trkpt lat="45.50255" lon="5.90641">
        <ele>1216.5</ele>
        <time>2014-04-04T12:46:30Z</time>
      </trkpt>
      <trkpt lat="45.50254" lon="5.90638">
        <ele>1217.1</ele>
        <time>2014-04-04T12:46:32Z</time>
      </trkpt>
      <trkpt lat="45.50253" lon="5.90638">
        <ele>1217.4</ele>
        <time>2014-04-04T12:46:34Z</time>
      </trkpt>
      <trkpt lat="45.50251" lon="5.90638">
        <ele>1217.4</ele>
        <time>2014-04-04T12:46:36Z</time>
      </trkpt>
      <trkpt lat="45.50251" lon="5.90637">
        <ele>1217.6</ele>
        <time>2014-04-04T12:46:38Z</time>
      </trkpt>
      <trkpt lat="45.5025" lon="5.90636">
        <ele>1217.7</ele>
        <time>2014-04-04T12:46:40Z</time>
      </trkpt>
      <trkpt lat="45.50249" lon="5.90635">
        <ele>1218</ele>
        <time>2014-04-04T12:46:42Z</time>
      </trkpt>
      <trkpt lat="45.50246" lon="5.9063">
        <ele>1218.8</ele>
        <time>2014-04-04T12:46:44Z</time>
      </trkpt>
      <trkpt lat="45.50246" lon="5.90629">
        <ele>1219.1</ele>
        <time>2014-04-04T12:46:46Z</time>
      </trkpt>
      <trkpt lat="45.50244" lon="5.90626">
        <ele>1219.8</ele>
        <time>2014-04-04T12:46:48Z</time>
      </trkpt>
      <trkpt lat="45.50243" lon="5.90623">
        <ele>1220.5</ele>
        <time>2014-04-04T12:46:50Z</time>
      </trkpt>
      <trkpt lat="45.50242" lon="5.9062">
        <ele>1221.3</ele>
        <time>2014-04-04T12:46:52Z</time>
      </trkpt>
      <trkpt lat="45.50242" lon="5.90617">
        <ele>1222</ele>
        <time>2014-04-04T12:46:54Z</time>
      </trkpt>
      <trkpt lat="45.50241" lon="5.90615">
        <ele>1222.6</ele>
        <time>2014-04-04T12:46:56Z</time>
      </trkpt>
      <trkpt lat="45.5024" lon="5.9061">
        <ele>1223.9</ele>
        <time>2014-04-04T12:46:58Z</time>
      </trkpt>
      <trkpt lat="45.50239" lon="5.90609">
        <ele>1224.2</ele>
        <time>2014-04-04T12:47:00Z</time>
      </trkpt>
      <trkpt lat="45.50239" lon="5.90608">
        <ele>1224.5</ele>
        <time>2014-04-04T12:47:02Z</time>
      </trkpt>
      <trkpt lat="45.50239" lon="5.90605">
        <ele>1225.2</ele>
        <time>2014-04-04T12:47:04Z</time>
      </trkpt>
      <trkpt lat="45.50239" lon="5.90602">
        <ele>1225.8</ele>
        <time>2014-04-04T12:47:06Z</time>
      </trkpt>
      <trkpt lat="45.50239" lon="5.90601">
        <ele>1226</ele>
        <time>2014-04-04T12:47:08Z</time>
      </trkpt>
      <trkpt lat="45.5024" lon="5.90599">
        <ele>1226.6</ele>
        <time>2014-04-04T12:47:10Z</time>
      </trkpt>
      <trkpt lat="45.5024" lon="5.90599">
        <ele>1226.7</ele>
        <time>2014-04-04T12:47:12Z</time>
      </trkpt>
      <trkpt lat="45.50241" lon="5.90596">
        <ele>1227.4</ele>
        <time>2014-04-04T12:47:14Z</time>
      </trkpt>
      <trkpt lat="45.50241" lon="5.90596">
        <ele>1227.4</ele>
        <time>2014-04-04T12:47:16Z</time>
      </trkpt>
      <trkpt lat="45.50241" lon="5.90596">
        <ele>1227.6</ele>
        <time>2014-04-04T12:47:18Z</time>
      </trkpt>
      <trkpt lat="45.50238" lon="5.90595">
        <ele>1227.5</ele>
        <time>2014-04-04T12:47:20Z</time>
      </trkpt>
      <trkpt lat="45.50236" lon="5.90593">
        <ele>1227.9</ele>
        <time>2014-04-04T12:47:22Z</time>
      </trkpt>
      <trkpt lat="45.50236" lon="5.90591">
        <ele>1228.3</ele>
        <time>2014-04-04T12:47:24Z</time>
      </trkpt>
      <trkpt lat="45.50235" lon="5.90587">
        <ele>1229.1</ele>
        <time>2014-04-04T12:47:26Z</time>
      </trkpt>
      <trkpt lat="45.50235" lon="5.90582">
        <ele>1230</ele>
        <time>2014-04-04T12:47:28Z</time>
      </trkpt>
      <trkpt lat="45.50235" lon="5.9058">
        <ele>1230.3</ele>
        <time>2014-04-04T12:47:30Z</time>
      </trkpt>
      <trkpt lat="45.50236" lon="5.90579">
        <ele>1230.5</ele>
        <time>2014-04-04T12:47:32Z</time>
      </trkpt>
      <trkpt lat="45.50236" lon="5.90577">
        <ele>1230.8</ele>
        <time>2014-04-04T12:47:34Z</time>
      </trkpt>
      <trkpt lat="45.50237" lon="5.90577">
        <ele>1230.9</ele>
        <time>2014-04-04T12:47:36Z</time>
      </trkpt>
      <trkpt lat="45.50237" lon="5.90576">
        <ele>1231</ele>
        <time>2014-04-04T12:47:38Z</time>
      </trkpt>
      <trkpt lat="45.50236" lon="5.90573">
        <ele>1231.4</ele>
        <time>2014-04-04T12:47:40Z</time>
      </trkpt>
      <trkpt lat="45.50237" lon="5.9057">
        <ele>1231.9</ele>
        <time>2014-04-04T12:47:42Z</time>
      </trkpt>
      <trkpt lat="45.50237" lon="5.90567">
        <ele>1232.3</ele>
        <time>2014-04-04T12:47:44Z</time>
      </trkpt>
      <trkpt lat="45.50238" lon="5.90565">
        <ele>1232.6</ele>
        <time>2014-04-04T12:47:46Z</time>
      </trkpt>
      <trkpt lat="45.50239" lon="5.90563">
        <ele>1233.1</ele>
        <time>2014-04-04T12:47:48Z</time>
      </trkpt>
      <trkpt lat="45.5024" lon="5.9056">
        <ele>1233.7</ele>
        <time>2014-04-04T12:47:50Z</time>
      </trkpt>
      <trkpt lat="45.50241" lon="5.90559">
        <ele>1234</ele>
        <time>2014-04-04T12:47:52Z</time>
      </trkpt>
      <trkpt lat="45.50242" lon="5.90555">
        <ele>1234.6</ele>
        <time>2014-04-04T12:47:54Z</time>
      </trkpt>
      <trkpt lat="45.50242" lon="5.90551">
        <ele>1235.1</ele>
        <time>2014-04-04T12:47:56Z</time>
      </trkpt>
      <trkpt lat="45.50242" lon="5.90547">
        <ele>1235.8</ele>
        <time>2014-04-04T12:47:58Z</time>
      </trkpt>
      <trkpt lat="45.50244" lon="5.90542">
        <ele>1236.7</ele>
        <time>2014-04-04T12:48:00Z</time>
      </trkpt>
      <trkpt lat="45.50243" lon="5.90541">
        <ele>1236.8</ele>
        <time>2014-04-04T12:48:02Z</time>
      </trkpt>
      <trkpt lat="45.50243" lon="5.90538">
        <ele>1237.1</ele>
        <time>2014-04-04T12:48:04Z</time>
      </trkpt>
      <trkpt lat="45.50243" lon="5.90533">
        <ele>1237.9</ele>
        <time>2014-04-04T12:48:06Z</time>
      </trkpt>
      <trkpt lat="45.50244" lon="5.90531">
        <ele>1238.1</ele>
        <time>2014-04-04T12:48:08Z</time>
      </trkpt>
      <trkpt lat="45.50244" lon="5.90525">
        <ele>1239.2</ele>
        <time>2014-04-04T12:48:10Z</time>
      </trkpt>
      <trkpt lat="45.50246" lon="5.90521">
        <ele>1240.2</ele>
        <time>2014-04-04T12:48:12Z</time>
      </trkpt>
      <trkpt lat="45.50246" lon="5.90518">
        <ele>1240.6</ele>
        <time>2014-04-04T12:48:14Z</time>
      </trkpt>
      <trkpt lat="45.50247" lon="5.90517">
        <ele>1241</ele>
        <time>2014-04-04T12:48:16Z</time>
      </trkpt>
      <trkpt lat="45.50248" lon="5.90515">
        <ele>1241.5</ele>
        <time>2014-04-04T12:48:18Z</time>
      </trkpt>
      <trkpt lat="45.50252" lon="5.90514">
        <ele>1242.2</ele>
        <time>2014-04-04T12:48:20Z</time>
      </trkpt>
      <trkpt lat="45.50254" lon="5.90511">
        <ele>1243.1</ele>
        <time>2014-04-04T12:48:22Z</time>
      </trkpt>
      <trkpt lat="45.50255" lon="5.9051">
        <ele>1243.4</ele>
        <time>2014-04-04T12:48:24Z</time>
      </trkpt>
      <trkpt lat="45.50257" lon="5.90508">
        <ele>1244</ele>
        <time>2014-04-04T12:48:26Z</time>
      </trkpt>
      <trkpt lat="45.50258" lon="5.90506">
        <ele>1244.5</ele>
        <time>2014-04-04T12:48:28Z</time>
      </trkpt>
      <trkpt lat="45.5026" lon="5.90504">
        <ele>1245.3</ele>
        <time>2014-04-04T12:48:30Z</time>
      </trkpt>
      <trkpt lat="45.50262" lon="5.90501">
        <ele>1246</ele>
        <time>2014-04-04T12:48:32Z</time>
      </trkpt>
      <trkpt lat="45.50262" lon="5.90501">
        <ele>1246.1</ele>
        <time>2014-04-04T12:48:34Z</time>
      </trkpt>
      <trkpt lat="45.50264" lon="5.90498">
        <ele>1246.8</ele>
        <time>2014-04-04T12:48:36Z</time>
      </trkpt>
      <trkpt lat="45.50264" lon="5.90496">
        <ele>1247.1</ele>
        <time>2014-04-04T12:48:38Z</time>
      </trkpt>
      <trkpt lat="45.50266" lon="5.90494">
        <ele>1247.5</ele>
        <time>2014-04-04T12:48:40Z</time>
      </trkpt>
      <trkpt lat="45.50267" lon="5.90493">
        <ele>1247.9</ele>
        <time>2014-04-04T12:48:42Z</time>
      </trkpt>
      <trkpt lat="45.50268" lon="5.90491">
        <ele>1248.3</ele>
        <time>2014-04-04T12:48:44Z</time>
      </trkpt>
      <trkpt lat="45.50267" lon="5.90489">
        <ele>1248.4</ele>
        <time>2014-04-04T12:48:46Z</time>
      </trkpt>
      <trkpt lat="45.50266" lon="5.90487">
        <ele>1248.4</ele>
        <time>2014-04-04T12:48:48Z</time>
      </trkpt>
      <trkpt lat="45.50266" lon="5.90485">
        <ele>1248.7</ele>
        <time>2014-04-04T12:48:50Z</time>
      </trkpt>
      <trkpt lat="45.50267" lon="5.9048">
        <ele>1249.5</ele>
        <time>2014-04-04T12:48:52Z</time>
      </trkpt>
      <trkpt lat="45.50268" lon="5.90476">
        <ele>1250.1</ele>
        <time>2014-04-04T12:48:54Z</time>
      </trkpt>
      <trkpt lat="45.50269" lon="5.90475">
        <ele>1250.5</ele>
        <time>2014-04-04T12:48:56Z</time>
      </trkpt>
      <trkpt lat="45.50271" lon="5.90473">
        <ele>1250.9</ele>
        <time>2014-04-04T12:48:58Z</time>
      </trkpt>
      <trkpt lat="45.50272" lon="5.90472">
        <ele>1251.2</ele>
        <time>2014-04-04T12:49:00Z</time>
      </trkpt>
      <trkpt lat="45.50273" lon="5.90471">
        <ele>1251.4</ele>
        <time>2014-04-04T12:49:02Z</time>
      </trkpt>
      <trkpt lat="45.50274" lon="5.90469">
        <ele>1251.8</ele>
        <time>2014-04-04T12:49:04Z</time>
      </trkpt>
      <trkpt lat="45.50274" lon="5.90466">
        <ele>1252.1</ele>
        <time>2014-04-04T12:49:06Z</time>
      </trkpt>
      <trkpt lat="45.50274" lon="5.90465">
        <ele>1252.2</ele>
        <time>2014-04-04T12:49:08Z</time>
      </trkpt>
      <trkpt lat="45.50274" lon="5.90463">
        <ele>1252.5</ele>
        <time>2014-04-04T12:49:10Z</time>
      </trkpt>
      <trkpt lat="45.50274" lon="5.9046">
        <ele>1252.8</ele>
        <time>2014-04-04T12:49:12Z</time>
      </trkpt>
      <trkpt lat="45.50274" lon="5.90455">
        <ele>1253.3</ele>
        <time>2014-04-04T12:49:14Z</time>
      </trkpt>
      <trkpt lat="45.50273" lon="5.90453">
        <ele>1253.4</ele>
        <time>2014-04-04T12:49:16Z</time>
      </trkpt>
      <trkpt lat="45.50274" lon="5.9045">
        <ele>1253.8</ele>
        <time>2014-04-04T12:49:18Z</time>
      </trkpt>
      <trkpt lat="45.50275" lon="5.90446">
        <ele>1254.4</ele>
        <time>2014-04-04T12:49:20Z</time>
      </trkpt>
      <trkpt lat="45.50277" lon="5.90442">
        <ele>1255.2</ele>
        <time>2014-04-04T12:49:22Z</time>
      </trkpt>
      <trkpt lat="45.50277" lon="5.9044">
        <ele>1255.5</ele>
        <time>2014-04-04T12:49:24Z</time>
      </trkpt>
      <trkpt lat="45.50277" lon="5.90438">
        <ele>1255.9</ele>
        <time>2014-04-04T12:49:26Z</time>
      </trkpt>
      <trkpt lat="45.50279" lon="5.90429">
        <ele>1256.9</ele>
        <time>2014-04-04T12:49:28Z</time>
      </trkpt>
      <trkpt lat="45.50279" lon="5.90427">
        <ele>1257.3</ele>
        <time>2014-04-04T12:49:30Z</time>
      </trkpt>
      <trkpt lat="45.50279" lon="5.90423">
        <ele>1257.7</ele>
        <time>2014-04-04T12:49:32Z</time>
      </trkpt>
      <trkpt lat="45.50281" lon="5.90421">
        <ele>1257.7</ele>
        <time>2014-04-04T12:49:34Z</time>
      </trkpt>
      <trkpt lat="45.50279" lon="5.90418">
        <ele>1258.5</ele>
        <time>2014-04-04T12:49:36Z</time>
      </trkpt>
      <trkpt lat="45.5028" lon="5.90416">
        <ele>1258.6</ele>
        <time>2014-04-04T12:49:38Z</time>
      </trkpt>
      <trkpt lat="45.5028" lon="5.90414">
        <ele>1258.8</ele>
        <time>2014-04-04T12:49:40Z</time>
      </trkpt>
      <trkpt lat="45.5028" lon="5.90413">
        <ele>1259</ele>
        <time>2014-04-04T12:49:42Z</time>
      </trkpt>
      <trkpt lat="45.50281" lon="5.90405">
        <ele>1259.9</ele>
        <time>2014-04-04T12:49:44Z</time>
      </trkpt>
      <trkpt lat="45.50281" lon="5.90403">
        <ele>1260</ele>
        <time>2014-04-04T12:49:46Z</time>
      </trkpt>
      <trkpt lat="45.5028" lon="5.90401">
        <ele>1260.6</ele>
        <time>2014-04-04T12:49:48Z</time>
      </trkpt>
      <trkpt lat="45.50279" lon="5.90398">
        <ele>1261.4</ele>
        <time>2014-04-04T12:49:50Z</time>
      </trkpt>
      <trkpt lat="45.50279" lon="5.90392">
        <ele>1262</ele>
        <time>2014-04-04T12:49:52Z</time>
      </trkpt>
      <trkpt lat="45.50279" lon="5.90391">
        <ele>1262.4</ele>
        <time>2014-04-04T12:49:54Z</time>
      </trkpt>
      <trkpt lat="45.50278" lon="5.90388">
        <ele>1262.9</ele>
        <time>2014-04-04T12:49:56Z</time>
      </trkpt>
      <trkpt lat="45.50277" lon="5.90385">
        <ele>1263.5</ele>
        <time>2014-04-04T12:49:58Z</time>
      </trkpt>
      <trkpt lat="45.50276" lon="5.90381">
        <ele>1263.8</ele>
        <time>2014-04-04T12:50:00Z</time>
      </trkpt>
      <trkpt lat="45.50275" lon="5.90378">
        <ele>1264.4</ele>
        <time>2014-04-04T12:50:02Z</time>
      </trkpt>
      <trkpt lat="45.50275" lon="5.90373">
        <ele>1265.1</ele>
        <time>2014-04-04T12:50:04Z</time>
      </trkpt>
      <trkpt lat="45.50275" lon="5.9037">
        <ele>1265.6</ele>
        <time>2014-04-04T12:50:06Z</time>
      </trkpt>
      <trkpt lat="45.50273" lon="5.90368">
        <ele>1265.9</ele>
        <time>2014-04-04T12:50:08Z</time>
      </trkpt>
      <trkpt lat="45.50273" lon="5.90365">
        <ele>1266.4</ele>
        <time>2014-04-04T12:50:10Z</time>
      </trkpt>
      <trkpt lat="45.50271" lon="5.90359">
        <ele>1267.3</ele>
        <time>2014-04-04T12:50:12Z</time>
      </trkpt>
      <trkpt lat="45.50271" lon="5.90357">
        <ele>1267.6</ele>
        <time>2014-04-04T12:50:14Z</time>
      </trkpt>
      <trkpt lat="45.50271" lon="5.90355">
        <ele>1267.8</ele>
        <time>2014-04-04T12:50:16Z</time>
      </trkpt>
      <trkpt lat="45.50271" lon="5.90351">
        <ele>1268.3</ele>
        <time>2014-04-04T12:50:18Z</time>
      </trkpt>
      <trkpt lat="45.50271" lon="5.90347">
        <ele>1269</ele>
        <time>2014-04-04T12:50:20Z</time>
      </trkpt>
      <trkpt lat="45.5027" lon="5.90346">
        <ele>1269.1</ele>
        <time>2014-04-04T12:50:22Z</time>
      </trkpt>
      <trkpt lat="45.50267" lon="5.90344">
        <ele>1269.6</ele>
        <time>2014-04-04T12:50:24Z</time>
      </trkpt>
      <trkpt lat="45.50265" lon="5.90342">
        <ele>1270</ele>
        <time>2014-04-04T12:50:26Z</time>
      </trkpt>
      <trkpt lat="45.50264" lon="5.9034">
        <ele>1270.4</ele>
        <time>2014-04-04T12:50:28Z</time>
      </trkpt>
      <trkpt lat="45.50262" lon="5.90339">
        <ele>1270.7</ele>
        <time>2014-04-04T12:50:30Z</time>
      </trkpt>
      <trkpt lat="45.50261" lon="5.90337">
        <ele>1271.3</ele>
        <time>2014-04-04T12:50:32Z</time>
      </trkpt>
      <trkpt lat="45.5026" lon="5.90334">
        <ele>1271.8</ele>
        <time>2014-04-04T12:50:34Z</time>
      </trkpt>
      <trkpt lat="45.50261" lon="5.9033">
        <ele>1272.3</ele>
        <time>2014-04-04T12:50:36Z</time>
      </trkpt>
      <trkpt lat="45.50261" lon="5.90329">
        <ele>1272.4</ele>
        <time>2014-04-04T12:50:38Z</time>
      </trkpt>
      <trkpt lat="45.5026" lon="5.90328">
        <ele>1272.8</ele>
        <time>2014-04-04T12:50:40Z</time>
      </trkpt>
      <trkpt lat="45.50258" lon="5.90326">
        <ele>1273.2</ele>
        <time>2014-04-04T12:50:42Z</time>
      </trkpt>
      <trkpt lat="45.50253" lon="5.90324">
        <ele>1274</ele>
        <time>2014-04-04T12:50:44Z</time>
      </trkpt>
      <trkpt lat="45.50253" lon="5.90324">
        <ele>1274.1</ele>
        <time>2014-04-04T12:50:46Z</time>
      </trkpt>
      <trkpt lat="45.50252" lon="5.90323">
        <ele>1274.4</ele>
        <time>2014-04-04T12:50:48Z</time>
      </trkpt>
      <trkpt lat="45.5025" lon="5.9032">
        <ele>1275</ele>
        <time>2014-04-04T12:50:50Z</time>
      </trkpt>
      <trkpt lat="45.50249" lon="5.90319">
        <ele>1275</ele>
        <time>2014-04-04T12:50:52Z</time>
      </trkpt>
      <trkpt lat="45.50247" lon="5.90317">
        <ele>1275.3</ele>
        <time>2014-04-04T12:50:54Z</time>
      </trkpt>
      <trkpt lat="45.50246" lon="5.90314">
        <ele>1275.8</ele>
        <time>2014-04-04T12:50:56Z</time>
      </trkpt>
      <trkpt lat="45.50246" lon="5.90309">
        <ele>1276.6</ele>
        <time>2014-04-04T12:50:58Z</time>
      </trkpt>
      <trkpt lat="45.50246" lon="5.90307">
        <ele>1277</ele>
        <time>2014-04-04T12:51:00Z</time>
      </trkpt>
      <trkpt lat="45.50245" lon="5.90303">
        <ele>1277.5</ele>
        <time>2014-04-04T12:51:02Z</time>
      </trkpt>
      <trkpt lat="45.50244" lon="5.90299">
        <ele>1278.1</ele>
        <time>2014-04-04T12:51:04Z</time>
      </trkpt>
      <trkpt lat="45.50243" lon="5.90296">
        <ele>1278.5</ele>
        <time>2014-04-04T12:51:06Z</time>
      </trkpt>
      <trkpt lat="45.50242" lon="5.90295">
        <ele>1278.8</ele>
        <time>2014-04-04T12:51:08Z</time>
      </trkpt>
      <trkpt lat="45.50241" lon="5.90293">
        <ele>1279.1</ele>
        <time>2014-04-04T12:51:10Z</time>
      </trkpt>
      <trkpt lat="45.5024" lon="5.9029">
        <ele>1279.8</ele>
        <time>2014-04-04T12:51:12Z</time>
      </trkpt>
      <trkpt lat="45.50237" lon="5.90288">
        <ele>1280.3</ele>
        <time>2014-04-04T12:51:14Z</time>
      </trkpt>
      <trkpt lat="45.50236" lon="5.90287">
        <ele>1280.5</ele>
        <time>2014-04-04T12:51:16Z</time>
      </trkpt>
      <trkpt lat="45.50234" lon="5.90284">
        <ele>1281.2</ele>
        <time>2014-04-04T12:51:18Z</time>
      </trkpt>
      <trkpt lat="45.50233" lon="5.90279">
        <ele>1282.2</ele>
        <time>2014-04-04T12:51:20Z</time>
      </trkpt>
      <trkpt lat="45.50233" lon="5.90278">
        <ele>1282.4</ele>
        <time>2014-04-04T12:51:22Z</time>
      </trkpt>
      <trkpt lat="45.50233" lon="5.90276">
        <ele>1283</ele>
        <time>2014-04-04T12:51:24Z</time>
      </trkpt>
      <trkpt lat="45.50233" lon="5.90274">
        <ele>1283.4</ele>
        <time>2014-04-04T12:51:26Z</time>
      </trkpt>
      <trkpt lat="45.50232" lon="5.90271">
        <ele>1284.1</ele>
        <time>2014-04-04T12:51:28Z</time>
      </trkpt>
      <trkpt lat="45.50231" lon="5.9027">
        <ele>1284.5</ele>
        <time>2014-04-04T12:51:30Z</time>
      </trkpt>
      <trkpt lat="45.50229" lon="5.90268">
        <ele>1285.1</ele>
        <time>2014-04-04T12:51:32Z</time>
      </trkpt>
      <trkpt lat="45.50228" lon="5.90265">
        <ele>1286</ele>
        <time>2014-04-04T12:51:34Z</time>
      </trkpt>
      <trkpt lat="45.50227" lon="5.90262">
        <ele>1286.8</ele>
        <time>2014-04-04T12:51:36Z</time>
      </trkpt>
      <trkpt lat="45.50227" lon="5.90261">
        <ele>1287.1</ele>
        <time>2014-04-04T12:51:38Z</time>
      </trkpt>
      <trkpt lat="45.50224" lon="5.90255">
        <ele>1288.7</ele>
        <time>2014-04-04T12:51:42Z</time>
      </trkpt>
      <trkpt lat="45.50224" lon="5.90253">
        <ele>1289.1</ele>
        <time>2014-04-04T12:51:44Z</time>
      </trkpt>
      <trkpt lat="45.50223" lon="5.90253">
        <ele>1289.3</ele>
        <time>2014-04-04T12:51:46Z</time>
      </trkpt>
      <trkpt lat="45.50222" lon="5.90251">
        <ele>1289.8</ele>
        <time>2014-04-04T12:51:48Z</time>
      </trkpt>
      <trkpt lat="45.50222" lon="5.9025">
        <ele>1290.1</ele>
        <time>2014-04-04T12:51:50Z</time>
      </trkpt>
      <trkpt lat="45.50222" lon="5.90248">
        <ele>1290.3</ele>
        <time>2014-04-04T12:51:52Z</time>
      </trkpt>
      <trkpt lat="45.50219" lon="5.90247">
        <ele>1290.9</ele>
        <time>2014-04-04T12:51:54Z</time>
      </trkpt>
      <trkpt lat="45.5022" lon="5.90245">
        <ele>1290.9</ele>
        <time>2014-04-04T12:51:56Z</time>
      </trkpt>
      <trkpt lat="45.5022" lon="5.90242">
        <ele>1291.2</ele>
        <time>2014-04-04T12:51:58Z</time>
      </trkpt>
      <trkpt lat="45.50219" lon="5.90241">
        <ele>1291.5</ele>
        <time>2014-04-04T12:52:00Z</time>
      </trkpt>
      <trkpt lat="45.5022" lon="5.90238">
        <ele>1291.4</ele>
        <time>2014-04-04T12:52:02Z</time>
      </trkpt>
      <trkpt lat="45.50218" lon="5.90237">
        <ele>1292</ele>
        <time>2014-04-04T12:52:04Z</time>
      </trkpt>
      <trkpt lat="45.50216" lon="5.90236">
        <ele>1292.5</ele>
        <time>2014-04-04T12:52:06Z</time>
      </trkpt>
      <trkpt lat="45.50215" lon="5.90235">
        <ele>1293</ele>
        <time>2014-04-04T12:52:08Z</time>
      </trkpt>
      <trkpt lat="45.50213" lon="5.90235">
        <ele>1293.5</ele>
        <time>2014-04-04T12:52:10Z</time>
      </trkpt>
      <trkpt lat="45.50209" lon="5.90233">
        <ele>1294.7</ele>
        <time>2014-04-04T12:52:12Z</time>
      </trkpt>
      <trkpt lat="45.50208" lon="5.90232">
        <ele>1294.9</ele>
        <time>2014-04-04T12:52:14Z</time>
      </trkpt>
      <trkpt lat="45.50207" lon="5.90231">
        <ele>1295.5</ele>
        <time>2014-04-04T12:52:16Z</time>
      </trkpt>
      <trkpt lat="45.50206" lon="5.9023">
        <ele>1295.9</ele>
        <time>2014-04-04T12:52:18Z</time>
      </trkpt>
      <trkpt lat="45.50205" lon="5.90229">
        <ele>1296.3</ele>
        <time>2014-04-04T12:52:20Z</time>
      </trkpt>
      <trkpt lat="45.50202" lon="5.90228">
        <ele>1297</ele>
        <time>2014-04-04T12:52:22Z</time>
      </trkpt>
      <trkpt lat="45.50195" lon="5.90228">
        <ele>1299</ele>
        <time>2014-04-04T12:52:26Z</time>
      </trkpt>
      <trkpt lat="45.50194" lon="5.90227">
        <ele>1299.3</ele>
        <time>2014-04-04T12:52:28Z</time>
      </trkpt>
      <trkpt lat="45.50192" lon="5.90225">
        <ele>1299.2</ele>
        <time>2014-04-04T12:52:30Z</time>
      </trkpt>
      <trkpt lat="45.5019" lon="5.90225">
        <ele>1299.1</ele>
        <time>2014-04-04T12:52:32Z</time>
      </trkpt>
      <trkpt lat="45.50187" lon="5.90222">
        <ele>1299.2</ele>
        <time>2014-04-04T12:52:34Z</time>
      </trkpt>
      <trkpt lat="45.50186" lon="5.90221">
        <ele>1299.3</ele>
        <time>2014-04-04T12:52:36Z</time>
      </trkpt>
      <trkpt lat="45.50186" lon="5.9022">
        <ele>1299.4</ele>
        <time>2014-04-04T12:52:38Z</time>
      </trkpt>
      <trkpt lat="45.50183" lon="5.90221">
        <ele>1298.9</ele>
        <time>2014-04-04T12:52:40Z</time>
      </trkpt>
      <trkpt lat="45.50179" lon="5.9022">
        <ele>1298.7</ele>
        <time>2014-04-04T12:52:42Z</time>
      </trkpt>
      <trkpt lat="45.50178" lon="5.90219">
        <ele>1298.7</ele>
        <time>2014-04-04T12:52:44Z</time>
      </trkpt>
      <trkpt lat="45.50175" lon="5.90216">
        <ele>1299.1</ele>
        <time>2014-04-04T12:52:46Z</time>
      </trkpt>
      <trkpt lat="45.50174" lon="5.90213">
        <ele>1299.5</ele>
        <time>2014-04-04T12:52:48Z</time>
      </trkpt>
      <trkpt lat="45.50173" lon="5.9021">
        <ele>1300.1</ele>
        <time>2014-04-04T12:52:50Z</time>
      </trkpt>
      <trkpt lat="45.50173" lon="5.90208">
        <ele>1300.3</ele>
        <time>2014-04-04T12:52:52Z</time>
      </trkpt>
      <trkpt lat="45.50172" lon="5.90204">
        <ele>1301.1</ele>
        <time>2014-04-04T12:52:54Z</time>
      </trkpt>
      <trkpt lat="45.50171" lon="5.90198">
        <ele>1302.3</ele>
        <time>2014-04-04T12:52:56Z</time>
      </trkpt>
      <trkpt lat="45.5017" lon="5.90194">
        <ele>1303.1</ele>
        <time>2014-04-04T12:52:58Z</time>
      </trkpt>
      <trkpt lat="45.5017" lon="5.90193">
        <ele>1303.3</ele>
        <time>2014-04-04T12:53:00Z</time>
      </trkpt>
      <trkpt lat="45.5017" lon="5.9019">
        <ele>1303.8</ele>
        <time>2014-04-04T12:53:02Z</time>
      </trkpt>
      <trkpt lat="45.5017" lon="5.90189">
        <ele>1304.1</ele>
        <time>2014-04-04T12:53:04Z</time>
      </trkpt>
      <trkpt lat="45.50171" lon="5.90183">
        <ele>1305.2</ele>
        <time>2014-04-04T12:53:06Z</time>
      </trkpt>
      <trkpt lat="45.50171" lon="5.90181">
        <ele>1305.7</ele>
        <time>2014-04-04T12:53:08Z</time>
      </trkpt>
      <trkpt lat="45.50171" lon="5.90177">
        <ele>1306.3</ele>
        <time>2014-04-04T12:53:10Z</time>
      </trkpt>
      <trkpt lat="45.5017" lon="5.90176">
        <ele>1306.6</ele>
        <time>2014-04-04T12:53:12Z</time>
      </trkpt>
      <trkpt lat="45.50171" lon="5.90171">
        <ele>1307.6</ele>
        <time>2014-04-04T12:53:14Z</time>
      </trkpt>
      <trkpt lat="45.50171" lon="5.90168">
        <ele>1308.3</ele>
        <time>2014-04-04T12:53:16Z</time>
      </trkpt>
      <trkpt lat="45.50171" lon="5.90167">
        <ele>1308.5</ele>
        <time>2014-04-04T12:53:18Z</time>
      </trkpt>
      <trkpt lat="45.50171" lon="5.90165">
        <ele>1308.9</ele>
        <time>2014-04-04T12:53:20Z</time>
      </trkpt>
      <trkpt lat="45.50171" lon="5.90164">
        <ele>1309</ele>
        <time>2014-04-04T12:53:22Z</time>
      </trkpt>
      <trkpt lat="45.5017" lon="5.90163">
        <ele>1309.2</ele>
        <time>2014-04-04T12:53:24Z</time>
      </trkpt>
      <trkpt lat="45.50171" lon="5.9016">
        <ele>1310</ele>
        <time>2014-04-04T12:53:26Z</time>
      </trkpt>
      <trkpt lat="45.50171" lon="5.90158">
        <ele>1310.5</ele>
        <time>2014-04-04T12:53:28Z</time>
      </trkpt>
      <trkpt lat="45.50171" lon="5.90156">
        <ele>1310.8</ele>
        <time>2014-04-04T12:53:30Z</time>
      </trkpt>
      <trkpt lat="45.50171" lon="5.90155">
        <ele>1311</ele>
        <time>2014-04-04T12:53:32Z</time>
      </trkpt>
      <trkpt lat="45.50173" lon="5.90153">
        <ele>1311.8</ele>
        <time>2014-04-04T12:53:34Z</time>
      </trkpt>
      <trkpt lat="45.50174" lon="5.9015">
        <ele>1312.5</ele>
        <time>2014-04-04T12:53:36Z</time>
      </trkpt>
      <trkpt lat="45.50173" lon="5.90148">
        <ele>1312.9</ele>
        <time>2014-04-04T12:53:38Z</time>
      </trkpt>
      <trkpt lat="45.50173" lon="5.90146">
        <ele>1313.4</ele>
        <time>2014-04-04T12:53:40Z</time>
      </trkpt>
      <trkpt lat="45.50173" lon="5.90142">
        <ele>1314.1</ele>
        <time>2014-04-04T12:53:42Z</time>
      </trkpt>
      <trkpt lat="45.50173" lon="5.90139">
        <ele>1314.8</ele>
        <time>2014-04-04T12:53:44Z</time>
      </trkpt>
      <trkpt lat="45.50172" lon="5.90138">
        <ele>1314.9</ele>
        <time>2014-04-04T12:53:46Z</time>
      </trkpt>
      <trkpt lat="45.50171" lon="5.90137">
        <ele>1315.1</ele>
        <time>2014-04-04T12:53:48Z</time>
      </trkpt>
      <trkpt lat="45.5017" lon="5.90136">
        <ele>1315.2</ele>
        <time>2014-04-04T12:53:50Z</time>
      </trkpt>
      <trkpt lat="45.5017" lon="5.90135">
        <ele>1315.4</ele>
        <time>2014-04-04T12:53:52Z</time>
      </trkpt>
      <trkpt lat="45.5017" lon="5.90135">
        <ele>1315.4</ele>
        <time>2014-04-04T12:53:54Z</time>
      </trkpt>
      <trkpt lat="45.5017" lon="5.90133">
        <ele>1315.7</ele>
        <time>2014-04-04T12:53:56Z</time>
      </trkpt>
      <trkpt lat="45.50169" lon="5.90129">
        <ele>1316.4</ele>
        <time>2014-04-04T12:53:58Z</time>
      </trkpt>
      <trkpt lat="45.50169" lon="5.90128">
        <ele>1316.8</ele>
        <time>2014-04-04T12:54:00Z</time>
      </trkpt>
      <trkpt lat="45.50169" lon="5.90125">
        <ele>1317.4</ele>
        <time>2014-04-04T12:54:02Z</time>
      </trkpt>
      <trkpt lat="45.50169" lon="5.90119">
        <ele>1318.6</ele>
        <time>2014-04-04T12:54:04Z</time>
      </trkpt>
      <trkpt lat="45.50169" lon="5.90118">
        <ele>1319</ele>
        <time>2014-04-04T12:54:06Z</time>
      </trkpt>
      <trkpt lat="45.50169" lon="5.90116">
        <ele>1319.3</ele>
        <time>2014-04-04T12:54:08Z</time>
      </trkpt>
      <trkpt lat="45.50169" lon="5.90114">
        <ele>1319.8</ele>
        <time>2014-04-04T12:54:10Z</time>
      </trkpt>
      <trkpt lat="45.50168" lon="5.90112">
        <ele>1320</ele>
        <time>2014-04-04T12:54:12Z</time>
      </trkpt>
      <trkpt lat="45.50167" lon="5.9011">
        <ele>1320.3</ele>
        <time>2014-04-04T12:54:14Z</time>
      </trkpt>
      <trkpt lat="45.50166" lon="5.90107">
        <ele>1320.7</ele>
        <time>2014-04-04T12:54:16Z</time>
      </trkpt>
      <trkpt lat="45.50164" lon="5.90104">
        <ele>1320.6</ele>
        <time>2014-04-04T12:54:18Z</time>
      </trkpt>
      <trkpt lat="45.50163" lon="5.90101">
        <ele>1320.7</ele>
        <time>2014-04-04T12:54:20Z</time>
      </trkpt>
      <trkpt lat="45.50163" lon="5.901">
        <ele>1321.1</ele>
        <time>2014-04-04T12:54:22Z</time>
      </trkpt>
      <trkpt lat="45.50163" lon="5.90098">
        <ele>1321.6</ele>
        <time>2014-04-04T12:54:24Z</time>
      </trkpt>
      <trkpt lat="45.50163" lon="5.90095">
        <ele>1321.9</ele>
        <time>2014-04-04T12:54:26Z</time>
      </trkpt>
      <trkpt lat="45.50164" lon="5.9009">
        <ele>1323.5</ele>
        <time>2014-04-04T12:54:28Z</time>
      </trkpt>
      <trkpt lat="45.50164" lon="5.90088">
        <ele>1323.8</ele>
        <time>2014-04-04T12:54:30Z</time>
      </trkpt>
      <trkpt lat="45.50165" lon="5.90083">
        <ele>1325.4</ele>
        <time>2014-04-04T12:54:32Z</time>
      </trkpt>
      <trkpt lat="45.50165" lon="5.90079">
        <ele>1326.5</ele>
        <time>2014-04-04T12:54:34Z</time>
      </trkpt>
      <trkpt lat="45.50165" lon="5.90077">
        <ele>1327</ele>
        <time>2014-04-04T12:54:36Z</time>
      </trkpt>
      <trkpt lat="45.50165" lon="5.90074">
        <ele>1327.4</ele>
        <time>2014-04-04T12:54:38Z</time>
      </trkpt>
      <trkpt lat="45.50164" lon="5.9007">
        <ele>1328.1</ele>
        <time>2014-04-04T12:54:42Z</time>
      </trkpt>
      <trkpt lat="45.50163" lon="5.90069">
        <ele>1328.2</ele>
        <time>2014-04-04T12:54:44Z</time>
      </trkpt>
      <trkpt lat="45.50161" lon="5.90067">
        <ele>1328.1</ele>
        <time>2014-04-04T12:54:46Z</time>
      </trkpt>
      <trkpt lat="45.50162" lon="5.90065">
        <ele>1328.7</ele>
        <time>2014-04-04T12:54:48Z</time>
      </trkpt>
      <trkpt lat="45.50162" lon="5.90061">
        <ele>1329.8</ele>
        <time>2014-04-04T12:54:50Z</time>
      </trkpt>
      <trkpt lat="45.50162" lon="5.90057">
        <ele>1330.6</ele>
        <time>2014-04-04T12:54:52Z</time>
      </trkpt>
      <trkpt lat="45.50162" lon="5.90053">
        <ele>1331.9</ele>
        <time>2014-04-04T12:54:54Z</time>
      </trkpt>
      <trkpt lat="45.50164" lon="5.90046">
        <ele>1334</ele>
        <time>2014-04-04T12:54:56Z</time>
      </trkpt>
      <trkpt lat="45.50165" lon="5.90045">
        <ele>1334.5</ele>
        <time>2014-04-04T12:54:58Z</time>
      </trkpt>
      <trkpt lat="45.50166" lon="5.90042">
        <ele>1335.7</ele>
        <time>2014-04-04T12:55:00Z</time>
      </trkpt>
      <trkpt lat="45.50166" lon="5.90041">
        <ele>1336.1</ele>
        <time>2014-04-04T12:55:02Z</time>
      </trkpt>
      <trkpt lat="45.50166" lon="5.90038">
        <ele>1336.5</ele>
        <time>2014-04-04T12:55:04Z</time>
      </trkpt>
      <trkpt lat="45.50165" lon="5.90037">
        <ele>1336.4</ele>
        <time>2014-04-04T12:55:06Z</time>
      </trkpt>
      <trkpt lat="45.50165" lon="5.90037">
        <ele>1336.5</ele>
        <time>2014-04-04T12:55:08Z</time>
      </trkpt>
      <trkpt lat="45.50165" lon="5.90035">
        <ele>1337</ele>
        <time>2014-04-04T12:55:10Z</time>
      </trkpt>
      <trkpt lat="45.50166" lon="5.90032">
        <ele>1338</ele>
        <time>2014-04-04T12:55:12Z</time>
      </trkpt>
      <trkpt lat="45.50168" lon="5.9003">
        <ele>1338.7</ele>
        <time>2014-04-04T12:55:14Z</time>
      </trkpt>
      <trkpt lat="45.5017" lon="5.90028">
        <ele>1339.6</ele>
        <time>2014-04-04T12:55:16Z</time>
      </trkpt>
      <trkpt lat="45.50172" lon="5.90024">
        <ele>1340.8</ele>
        <time>2014-04-04T12:55:18Z</time>
      </trkpt>
      <trkpt lat="45.50174" lon="5.90022">
        <ele>1341.6</ele>
        <time>2014-04-04T12:55:20Z</time>
      </trkpt>
      <trkpt lat="45.50175" lon="5.90021">
        <ele>1342</ele>
        <time>2014-04-04T12:55:22Z</time>
      </trkpt>
      <trkpt lat="45.50177" lon="5.9002">
        <ele>1342.6</ele>
        <time>2014-04-04T12:55:24Z</time>
      </trkpt>
      <trkpt lat="45.50178" lon="5.90017">
        <ele>1343.4</ele>
        <time>2014-04-04T12:55:26Z</time>
      </trkpt>
      <trkpt lat="45.50178" lon="5.90016">
        <ele>1343.6</ele>
        <time>2014-04-04T12:55:28Z</time>
      </trkpt>
      <trkpt lat="45.5018" lon="5.90014">
        <ele>1344.3</ele>
        <time>2014-04-04T12:55:30Z</time>
      </trkpt>
      <trkpt lat="45.50182" lon="5.90011">
        <ele>1345.4</ele>
        <time>2014-04-04T12:55:32Z</time>
      </trkpt>
      <trkpt lat="45.50184" lon="5.90009">
        <ele>1346.1</ele>
        <time>2014-04-04T12:55:34Z</time>
      </trkpt>
      <trkpt lat="45.50185" lon="5.90009">
        <ele>1346.4</ele>
        <time>2014-04-04T12:55:36Z</time>
      </trkpt>
      <trkpt lat="45.50186" lon="5.90008">
        <ele>1346.7</ele>
        <time>2014-04-04T12:55:38Z</time>
      </trkpt>
      <trkpt lat="45.50188" lon="5.90005">
        <ele>1347.7</ele>
        <time>2014-04-04T12:55:40Z</time>
      </trkpt>
      <trkpt lat="45.50188" lon="5.90003">
        <ele>1348.2</ele>
        <time>2014-04-04T12:55:42Z</time>
      </trkpt>
      <trkpt lat="45.50189" lon="5.90001">
        <ele>1348.8</ele>
        <time>2014-04-04T12:55:44Z</time>
      </trkpt>
      <trkpt lat="45.5019" lon="5.9">
        <ele>1349.1</ele>
        <time>2014-04-04T12:55:46Z</time>
      </trkpt>
      <trkpt lat="45.50191" lon="5.89998">
        <ele>1349.5</ele>
        <time>2014-04-04T12:55:48Z</time>
      </trkpt>
      <trkpt lat="45.50192" lon="5.89994">
        <ele>1349.9</ele>
        <time>2014-04-04T12:55:50Z</time>
      </trkpt>
      <trkpt lat="45.50192" lon="5.89993">
        <ele>1350.1</ele>
        <time>2014-04-04T12:55:52Z</time>
      </trkpt>
      <trkpt lat="45.50192" lon="5.89993">
        <ele>1350.1</ele>
        <time>2014-04-04T12:55:54Z</time>
      </trkpt>
      <trkpt lat="45.5019" lon="5.89991">
        <ele>1350.1</ele>
        <time>2014-04-04T12:55:56Z</time>
      </trkpt>
      <trkpt lat="45.5019" lon="5.8999">
        <ele>1350</ele>
        <time>2014-04-04T12:55:58Z</time>
      </trkpt>
      <trkpt lat="45.5019" lon="5.89988">
        <ele>1350.2</ele>
        <time>2014-04-04T12:56:00Z</time>
      </trkpt>
      <trkpt lat="45.50189" lon="5.89987">
        <ele>1350.2</ele>
        <time>2014-04-04T12:56:02Z</time>
      </trkpt>
      <trkpt lat="45.50188" lon="5.89985">
        <ele>1350.3</ele>
        <time>2014-04-04T12:56:04Z</time>
      </trkpt>
      <trkpt lat="45.50189" lon="5.89984">
        <ele>1350.5</ele>
        <time>2014-04-04T12:56:06Z</time>
      </trkpt>
      <trkpt lat="45.50187" lon="5.89979">
        <ele>1350.8</ele>
        <time>2014-04-04T12:56:08Z</time>
      </trkpt>
      <trkpt lat="45.50187" lon="5.89974">
        <ele>1351.3</ele>
        <time>2014-04-04T12:56:10Z</time>
      </trkpt>
      <trkpt lat="45.50187" lon="5.89972">
        <ele>1351.3</ele>
        <time>2014-04-04T12:56:12Z</time>
      </trkpt>
      <trkpt lat="45.50186" lon="5.8997">
        <ele>1351</ele>
        <time>2014-04-04T12:56:14Z</time>
      </trkpt>
      <trkpt lat="45.50185" lon="5.8997">
        <ele>1350.9</ele>
        <time>2014-04-04T12:56:16Z</time>
      </trkpt>
      <trkpt lat="45.50181" lon="5.89969">
        <ele>1350.7</ele>
        <time>2014-04-04T12:56:18Z</time>
      </trkpt>
      <trkpt lat="45.50178" lon="5.8997">
        <ele>1350.7</ele>
        <time>2014-04-04T12:56:20Z</time>
      </trkpt>
      <trkpt lat="45.50176" lon="5.89969">
        <ele>1350.5</ele>
        <time>2014-04-04T12:56:22Z</time>
      </trkpt>
      <trkpt lat="45.50173" lon="5.89964">
        <ele>1350.4</ele>
        <time>2014-04-04T12:56:24Z</time>
      </trkpt>
      <trkpt lat="45.50169" lon="5.89964">
        <ele>1350.6</ele>
        <time>2014-04-04T12:56:26Z</time>
      </trkpt>
      <trkpt lat="45.50166" lon="5.89963">
        <ele>1350.6</ele>
        <time>2014-04-04T12:56:28Z</time>
      </trkpt>
      <trkpt lat="45.50163" lon="5.89961">
        <ele>1350.4</ele>
        <time>2014-04-04T12:56:30Z</time>
      </trkpt>
      <trkpt lat="45.5016" lon="5.89957">
        <ele>1350.6</ele>
        <time>2014-04-04T12:56:32Z</time>
      </trkpt>
      <trkpt lat="45.50159" lon="5.8995">
        <ele>1351.2</ele>
        <time>2014-04-04T12:56:34Z</time>
      </trkpt>
      <trkpt lat="45.50158" lon="5.89948">
        <ele>1351.3</ele>
        <time>2014-04-04T12:56:36Z</time>
      </trkpt>
      <trkpt lat="45.50155" lon="5.89946">
        <ele>1351.4</ele>
        <time>2014-04-04T12:56:38Z</time>
      </trkpt>
      <trkpt lat="45.5015" lon="5.89944">
        <ele>1351.3</ele>
        <time>2014-04-04T12:56:40Z</time>
      </trkpt>
      <trkpt lat="45.50145" lon="5.89941">
        <ele>1350.8</ele>
        <time>2014-04-04T12:56:42Z</time>
      </trkpt>
      <trkpt lat="45.50142" lon="5.8994">
        <ele>1350.8</ele>
        <time>2014-04-04T12:56:44Z</time>
      </trkpt>
      <trkpt lat="45.50137" lon="5.89938">
        <ele>1350.7</ele>
        <time>2014-04-04T12:56:46Z</time>
      </trkpt>
      <trkpt lat="45.50132" lon="5.89932">
        <ele>1350.4</ele>
        <time>2014-04-04T12:56:48Z</time>
      </trkpt>
      <trkpt lat="45.50132" lon="5.8993">
        <ele>1350.4</ele>
        <time>2014-04-04T12:56:50Z</time>
      </trkpt>
      <trkpt lat="45.50128" lon="5.89924">
        <ele>1350.3</ele>
        <time>2014-04-04T12:56:52Z</time>
      </trkpt>
      <trkpt lat="45.50122" lon="5.89919">
        <ele>1350.5</ele>
        <time>2014-04-04T12:56:54Z</time>
      </trkpt>
      <trkpt lat="45.50118" lon="5.89916">
        <ele>1350.7</ele>
        <time>2014-04-04T12:56:56Z</time>
      </trkpt>
      <trkpt lat="45.50112" lon="5.89913">
        <ele>1350.4</ele>
        <time>2014-04-04T12:56:58Z</time>
      </trkpt>
      <trkpt lat="45.50108" lon="5.89911">
        <ele>1349.9</ele>
        <time>2014-04-04T12:57:00Z</time>
      </trkpt>
      <trkpt lat="45.50102" lon="5.89907">
        <ele>1349.4</ele>
        <time>2014-04-04T12:57:02Z</time>
      </trkpt>
      <trkpt lat="45.50099" lon="5.89904">
        <ele>1349.2</ele>
        <time>2014-04-04T12:57:04Z</time>
      </trkpt>
      <trkpt lat="45.50097" lon="5.89902">
        <ele>1349.2</ele>
        <time>2014-04-04T12:57:06Z</time>
      </trkpt>
      <trkpt lat="45.50094" lon="5.89898">
        <ele>1349.4</ele>
        <time>2014-04-04T12:57:08Z</time>
      </trkpt>
      <trkpt lat="45.50086" lon="5.89891">
        <ele>1350.5</ele>
        <time>2014-04-04T12:57:10Z</time>
      </trkpt>
      <trkpt lat="45.50082" lon="5.89887">
        <ele>1350.6</ele>
        <time>2014-04-04T12:57:12Z</time>
      </trkpt>
      <trkpt lat="45.5008" lon="5.89884">
        <ele>1350.1</ele>
        <time>2014-04-04T12:57:14Z</time>
      </trkpt>
      <trkpt lat="45.50074" lon="5.89876">
        <ele>1349.2</ele>
        <time>2014-04-04T12:57:16Z</time>
      </trkpt>
      <trkpt lat="45.50069" lon="5.8987">
        <ele>1349.4</ele>
        <time>2014-04-04T12:57:18Z</time>
      </trkpt>
      <trkpt lat="45.50067" lon="5.89868">
        <ele>1349.6</ele>
        <time>2014-04-04T12:57:20Z</time>
      </trkpt>
      <trkpt lat="45.50066" lon="5.89864">
        <ele>1349.9</ele>
        <time>2014-04-04T12:57:22Z</time>
      </trkpt>
      <trkpt lat="45.50064" lon="5.89861">
        <ele>1350.5</ele>
        <time>2014-04-04T12:57:24Z</time>
      </trkpt>
      <trkpt lat="45.50058" lon="5.89856">
        <ele>1351.2</ele>
        <time>2014-04-04T12:57:26Z</time>
      </trkpt>
      <trkpt lat="45.50054" lon="5.89854">
        <ele>1351.6</ele>
        <time>2014-04-04T12:57:28Z</time>
      </trkpt>
      <trkpt lat="45.5005" lon="5.89849">
        <ele>1351.2</ele>
        <time>2014-04-04T12:57:30Z</time>
      </trkpt>
      <trkpt lat="45.50045" lon="5.89843">
        <ele>1351.1</ele>
        <time>2014-04-04T12:57:32Z</time>
      </trkpt>
      <trkpt lat="45.50043" lon="5.89841">
        <ele>1351.1</ele>
        <time>2014-04-04T12:57:34Z</time>
      </trkpt>
      <trkpt lat="45.5004" lon="5.89837">
        <ele>1351.3</ele>
        <time>2014-04-04T12:57:36Z</time>
      </trkpt>
      <trkpt lat="45.50036" lon="5.89833">
        <ele>1351.7</ele>
        <time>2014-04-04T12:57:38Z</time>
      </trkpt>
      <trkpt lat="45.50029" lon="5.89825">
        <ele>1352.8</ele>
        <time>2014-04-04T12:57:40Z</time>
      </trkpt>
      <trkpt lat="45.50025" lon="5.89819">
        <ele>1353.3</ele>
        <time>2014-04-04T12:57:42Z</time>
      </trkpt>
      <trkpt lat="45.50023" lon="5.89815">
        <ele>1353.5</ele>
        <time>2014-04-04T12:57:44Z</time>
      </trkpt>
      <trkpt lat="45.5002" lon="5.89809">
        <ele>1354</ele>
        <time>2014-04-04T12:57:46Z</time>
      </trkpt>
      <trkpt lat="45.50017" lon="5.89806">
        <ele>1354.1</ele>
        <time>2014-04-04T12:57:48Z</time>
      </trkpt>
      <trkpt lat="45.50016" lon="5.89804">
        <ele>1354.1</ele>
        <time>2014-04-04T12:57:50Z</time>
      </trkpt>
      <trkpt lat="45.50013" lon="5.89802">
        <ele>1354</ele>
        <time>2014-04-04T12:57:52Z</time>
      </trkpt>
      <trkpt lat="45.50007" lon="5.89799">
        <ele>1353.9</ele>
        <time>2014-04-04T12:57:54Z</time>
      </trkpt>
      <trkpt lat="45.5" lon="5.89795">
        <ele>1354.2</ele>
        <time>2014-04-04T12:57:56Z</time>
      </trkpt>
      <trkpt lat="45.49999" lon="5.89794">
        <ele>1354.3</ele>
        <time>2014-04-04T12:57:58Z</time>
      </trkpt>
      <trkpt lat="45.49997" lon="5.89791">
        <ele>1354.6</ele>
        <time>2014-04-04T12:58:00Z</time>
      </trkpt>
      <trkpt lat="45.49996" lon="5.89783">
        <ele>1355.5</ele>
        <time>2014-04-04T12:58:02Z</time>
      </trkpt>
      <trkpt lat="45.49995" lon="5.8978">
        <ele>1356.1</ele>
        <time>2014-04-04T12:58:04Z</time>
      </trkpt>
      <trkpt lat="45.49995" lon="5.89778">
        <ele>1356.3</ele>
        <time>2014-04-04T12:58:06Z</time>
      </trkpt>
      <trkpt lat="45.49995" lon="5.89775">
        <ele>1355.8</ele>
        <time>2014-04-04T12:58:08Z</time>
      </trkpt>
      <trkpt lat="45.49996" lon="5.89771">
        <ele>1355</ele>
        <time>2014-04-04T12:58:10Z</time>
      </trkpt>
      <trkpt lat="45.49996" lon="5.89771">
        <ele>1354.9</ele>
        <time>2014-04-04T12:58:12Z</time>
      </trkpt>
      <trkpt lat="45.49995" lon="5.89769">
        <ele>1354.7</ele>
        <time>2014-04-04T12:58:14Z</time>
      </trkpt>
      <trkpt lat="45.49992" lon="5.89767">
        <ele>1355</ele>
        <time>2014-04-04T12:58:16Z</time>
      </trkpt>
      <trkpt lat="45.4999" lon="5.89765">
        <ele>1355.2</ele>
        <time>2014-04-04T12:58:18Z</time>
      </trkpt>
      <trkpt lat="45.49988" lon="5.89763">
        <ele>1355.4</ele>
        <time>2014-04-04T12:58:20Z</time>
      </trkpt>
      <trkpt lat="45.49988" lon="5.8976">
        <ele>1355.2</ele>
        <time>2014-04-04T12:58:22Z</time>
      </trkpt>
      <trkpt lat="45.49987" lon="5.89758">
        <ele>1355.2</ele>
        <time>2014-04-04T12:58:24Z</time>
      </trkpt>
      <trkpt lat="45.49985" lon="5.89757">
        <ele>1355.8</ele>
        <time>2014-04-04T12:58:26Z</time>
      </trkpt>
      <trkpt lat="45.49984" lon="5.89757">
        <ele>1356.2</ele>
        <time>2014-04-04T12:58:28Z</time>
      </trkpt>
      <trkpt lat="45.49982" lon="5.89756">
        <ele>1357.1</ele>
        <time>2014-04-04T12:58:30Z</time>
      </trkpt>
      <trkpt lat="45.49979" lon="5.89756">
        <ele>1357.9</ele>
        <time>2014-04-04T12:58:32Z</time>
      </trkpt>
      <trkpt lat="45.49974" lon="5.89754">
        <ele>1359.8</ele>
        <time>2014-04-04T12:58:36Z</time>
      </trkpt>
      <trkpt lat="45.49972" lon="5.89755">
        <ele>1360.5</ele>
        <time>2014-04-04T12:58:38Z</time>
      </trkpt>
      <trkpt lat="45.49969" lon="5.89753">
        <ele>1361.3</ele>
        <time>2014-04-04T12:58:40Z</time>
      </trkpt>
      <trkpt lat="45.49967" lon="5.89753">
        <ele>1361.7</ele>
        <time>2014-04-04T12:58:42Z</time>
      </trkpt>
      <trkpt lat="45.49965" lon="5.89752">
        <ele>1362.3</ele>
        <time>2014-04-04T12:58:44Z</time>
      </trkpt>
      <trkpt lat="45.49963" lon="5.89751">
        <ele>1362.9</ele>
        <time>2014-04-04T12:58:46Z</time>
      </trkpt>
      <trkpt lat="45.49962" lon="5.89749">
        <ele>1363.1</ele>
        <time>2014-04-04T12:58:48Z</time>
      </trkpt>
      <trkpt lat="45.49961" lon="5.89748">
        <ele>1363.1</ele>
        <time>2014-04-04T12:58:50Z</time>
      </trkpt>
      <trkpt lat="45.49959" lon="5.89747">
        <ele>1363.7</ele>
        <time>2014-04-04T12:58:52Z</time>
      </trkpt>
      <trkpt lat="45.49957" lon="5.89745">
        <ele>1363.7</ele>
        <time>2014-04-04T12:58:54Z</time>
      </trkpt>
      <trkpt lat="45.49956" lon="5.89744">
        <ele>1364.1</ele>
        <time>2014-04-04T12:58:56Z</time>
      </trkpt>
      <trkpt lat="45.49955" lon="5.89743">
        <ele>1364.3</ele>
        <time>2014-04-04T12:58:58Z</time>
      </trkpt>
      <trkpt lat="45.49955" lon="5.89742">
        <ele>1364.1</ele>
        <time>2014-04-04T12:59:00Z</time>
      </trkpt>
      <trkpt lat="45.49956" lon="5.89741">
        <ele>1363.8</ele>
        <time>2014-04-04T12:59:02Z</time>
      </trkpt>
      <trkpt lat="45.49954" lon="5.89741">
        <ele>1364.3</ele>
        <time>2014-04-04T12:59:04Z</time>
      </trkpt>
      <trkpt lat="45.49953" lon="5.89741">
        <ele>1364.8</ele>
        <time>2014-04-04T12:59:06Z</time>
      </trkpt>
      <trkpt lat="45.4995" lon="5.89741">
        <ele>1365.7</ele>
        <time>2014-04-04T12:59:08Z</time>
      </trkpt>
      <trkpt lat="45.49947" lon="5.89738">
        <ele>1366.5</ele>
        <time>2014-04-04T12:59:10Z</time>
      </trkpt>
      <trkpt lat="45.49947" lon="5.89738">
        <ele>1366.7</ele>
        <time>2014-04-04T12:59:12Z</time>
      </trkpt>
      <trkpt lat="45.49945" lon="5.89738">
        <ele>1367.3</ele>
        <time>2014-04-04T12:59:14Z</time>
      </trkpt>
      <trkpt lat="45.49943" lon="5.89738">
        <ele>1367.9</ele>
        <time>2014-04-04T12:59:16Z</time>
      </trkpt>
      <trkpt lat="45.4994" lon="5.89738">
        <ele>1368.9</ele>
        <time>2014-04-04T12:59:18Z</time>
      </trkpt>
      <trkpt lat="45.49938" lon="5.89737">
        <ele>1369.6</ele>
        <time>2014-04-04T12:59:20Z</time>
      </trkpt>
      <trkpt lat="45.49937" lon="5.89737">
        <ele>1369.9</ele>
        <time>2014-04-04T12:59:22Z</time>
      </trkpt>
      <trkpt lat="45.49936" lon="5.89737">
        <ele>1370.4</ele>
        <time>2014-04-04T12:59:24Z</time>
      </trkpt>
      <trkpt lat="45.49934" lon="5.89737">
        <ele>1371.1</ele>
        <time>2014-04-04T12:59:26Z</time>
      </trkpt>
      <trkpt lat="45.49933" lon="5.89737">
        <ele>1371.4</ele>
        <time>2014-04-04T12:59:28Z</time>
      </trkpt>
      <trkpt lat="45.49932" lon="5.89738">
        <ele>1371.6</ele>
        <time>2014-04-04T12:59:30Z</time>
      </trkpt>
      <trkpt lat="45.49931" lon="5.89736">
        <ele>1372.2</ele>
        <time>2014-04-04T12:59:32Z</time>
      </trkpt>
      <trkpt lat="45.49931" lon="5.89736">
        <ele>1372.3</ele>
        <time>2014-04-04T12:59:34Z</time>
      </trkpt>
      <trkpt lat="45.4993" lon="5.89736">
        <ele>1372.5</ele>
        <time>2014-04-04T12:59:36Z</time>
      </trkpt>
      <trkpt lat="45.49929" lon="5.89736">
        <ele>1372.7</ele>
        <time>2014-04-04T12:59:38Z</time>
      </trkpt>
      <trkpt lat="45.49928" lon="5.89736">
        <ele>1373.1</ele>
        <time>2014-04-04T12:59:40Z</time>
      </trkpt>
      <trkpt lat="45.49925" lon="5.89737">
        <ele>1374</ele>
        <time>2014-04-04T12:59:42Z</time>
      </trkpt>
      <trkpt lat="45.49923" lon="5.89738">
        <ele>1374.8</ele>
        <time>2014-04-04T12:59:44Z</time>
      </trkpt>
      <trkpt lat="45.49921" lon="5.89737">
        <ele>1375.6</ele>
        <time>2014-04-04T12:59:46Z</time>
      </trkpt>
      <trkpt lat="45.49919" lon="5.89738">
        <ele>1375.9</ele>
        <time>2014-04-04T12:59:48Z</time>
      </trkpt>
      <trkpt lat="45.49919" lon="5.89738">
        <ele>1376.1</ele>
        <time>2014-04-04T12:59:50Z</time>
      </trkpt>
      <trkpt lat="45.49917" lon="5.89737">
        <ele>1376.7</ele>
        <time>2014-04-04T12:59:52Z</time>
      </trkpt>
      <trkpt lat="45.49916" lon="5.89736">
        <ele>1377.5</ele>
        <time>2014-04-04T12:59:54Z</time>
      </trkpt>
      <trkpt lat="45.49915" lon="5.89736">
        <ele>1377.8</ele>
        <time>2014-04-04T12:59:56Z</time>
      </trkpt>
      <trkpt lat="45.49913" lon="5.89734">
        <ele>1378.8</ele>
        <time>2014-04-04T12:59:58Z</time>
      </trkpt>
      <trkpt lat="45.49912" lon="5.89733">
        <ele>1379.8</ele>
        <time>2014-04-04T13:00:00Z</time>
      </trkpt>
      <trkpt lat="45.49911" lon="5.89732">
        <ele>1380.4</ele>
        <time>2014-04-04T13:00:02Z</time>
      </trkpt>
      <trkpt lat="45.49911" lon="5.89731">
        <ele>1380.4</ele>
        <time>2014-04-04T13:00:04Z</time>
      </trkpt>
      <trkpt lat="45.49911" lon="5.89731">
        <ele>1380.6</ele>
        <time>2014-04-04T13:00:06Z</time>
      </trkpt>
      <trkpt lat="45.49911" lon="5.89731">
        <ele>1380.7</ele>
        <time>2014-04-04T13:00:08Z</time>
      </trkpt>
      <trkpt lat="45.4991" lon="5.89731">
        <ele>1381</ele>
        <time>2014-04-04T13:00:10Z</time>
      </trkpt>
      <trkpt lat="45.4991" lon="5.8973">
        <ele>1381.2</ele>
        <time>2014-04-04T13:00:12Z</time>
      </trkpt>
      <trkpt lat="45.49911" lon="5.89729">
        <ele>1381.1</ele>
        <time>2014-04-04T13:00:14Z</time>
      </trkpt>
      <trkpt lat="45.49909" lon="5.89729">
        <ele>1382.1</ele>
        <time>2014-04-04T13:00:16Z</time>
      </trkpt>
      <trkpt lat="45.49906" lon="5.89729">
        <ele>1383.2</ele>
        <time>2014-04-04T13:00:18Z</time>
      </trkpt>
      <trkpt lat="45.49906" lon="5.89728">
        <ele>1383.6</ele>
        <time>2014-04-04T13:00:20Z</time>
      </trkpt>
      <trkpt lat="45.49905" lon="5.89728">
        <ele>1384</ele>
        <time>2014-04-04T13:00:22Z</time>
      </trkpt>
      <trkpt lat="45.49904" lon="5.89727">
        <ele>1384.8</ele>
        <time>2014-04-04T13:00:24Z</time>
      </trkpt>
      <trkpt lat="45.49903" lon="5.89726">
        <ele>1385.3</ele>
        <time>2014-04-04T13:00:26Z</time>
      </trkpt>
      <trkpt lat="45.49903" lon="5.89726">
        <ele>1385.5</ele>
        <time>2014-04-04T13:00:28Z</time>
      </trkpt>
      <trkpt lat="45.49901" lon="5.89726">
        <ele>1386.9</ele>
        <time>2014-04-04T13:00:30Z</time>
      </trkpt>
      <trkpt lat="45.49897" lon="5.89725">
        <ele>1388.9</ele>
        <time>2014-04-04T13:00:32Z</time>
      </trkpt>
      <trkpt lat="45.49896" lon="5.89725">
        <ele>1389.6</ele>
        <time>2014-04-04T13:00:34Z</time>
      </trkpt>
      <trkpt lat="45.49893" lon="5.89726">
        <ele>1390.6</ele>
        <time>2014-04-04T13:00:36Z</time>
      </trkpt>
      <trkpt lat="45.49893" lon="5.89726">
        <ele>1390.8</ele>
        <time>2014-04-04T13:00:38Z</time>
      </trkpt>
      <trkpt lat="45.49892" lon="5.89726">
        <ele>1391</ele>
        <time>2014-04-04T13:00:40Z</time>
      </trkpt>
      <trkpt lat="45.49892" lon="5.89727">
        <ele>1391.1</ele>
        <time>2014-04-04T13:00:42Z</time>
      </trkpt>
      <trkpt lat="45.49889" lon="5.89728">
        <ele>1392</ele>
        <time>2014-04-04T13:00:44Z</time>
      </trkpt>
      <trkpt lat="45.49888" lon="5.89728">
        <ele>1392.4</ele>
        <time>2014-04-04T13:00:46Z</time>
      </trkpt>
      <trkpt lat="45.49887" lon="5.89727">
        <ele>1393.1</ele>
        <time>2014-04-04T13:00:48Z</time>
      </trkpt>
      <trkpt lat="45.49886" lon="5.89726">
        <ele>1393.5</ele>
        <time>2014-04-04T13:00:50Z</time>
      </trkpt>
      <trkpt lat="45.49885" lon="5.89725">
        <ele>1394.2</ele>
        <time>2014-04-04T13:00:52Z</time>
      </trkpt>
      <trkpt lat="45.49885" lon="5.89724">
        <ele>1394.6</ele>
        <time>2014-04-04T13:00:54Z</time>
      </trkpt>
      <trkpt lat="45.49885" lon="5.89723">
        <ele>1394.9</ele>
        <time>2014-04-04T13:00:56Z</time>
      </trkpt>
      <trkpt lat="45.49885" lon="5.89722">
        <ele>1395</ele>
        <time>2014-04-04T13:00:58Z</time>
      </trkpt>
      <trkpt lat="45.49886" lon="5.8972">
        <ele>1394.7</ele>
        <time>2014-04-04T13:01:00Z</time>
      </trkpt>
      <trkpt lat="45.49887" lon="5.8972">
        <ele>1394.2</ele>
        <time>2014-04-04T13:01:02Z</time>
      </trkpt>
      <trkpt lat="45.49887" lon="5.89721">
        <ele>1394.2</ele>
        <time>2014-04-04T13:01:04Z</time>
      </trkpt>
      <trkpt lat="45.49887" lon="5.89722">
        <ele>1394.5</ele>
        <time>2014-04-04T13:01:06Z</time>
      </trkpt>
      <trkpt lat="45.49886" lon="5.89722">
        <ele>1394.6</ele>
        <time>2014-04-04T13:01:08Z</time>
      </trkpt>
      <trkpt lat="45.49884" lon="5.89723">
        <ele>1394.9</ele>
        <time>2014-04-04T13:01:10Z</time>
      </trkpt>
      <trkpt lat="45.49883" lon="5.89723">
        <ele>1395.1</ele>
        <time>2014-04-04T13:01:12Z</time>
      </trkpt>
      <trkpt lat="45.4988" lon="5.89724">
        <ele>1395.8</ele>
        <time>2014-04-04T13:01:14Z</time>
      </trkpt>
      <trkpt lat="45.49877" lon="5.89725">
        <ele>1396.3</ele>
        <time>2014-04-04T13:01:16Z</time>
      </trkpt>
      <trkpt lat="45.49874" lon="5.89724">
        <ele>1397.4</ele>
        <time>2014-04-04T13:01:18Z</time>
      </trkpt>
      <trkpt lat="45.49873" lon="5.89723">
        <ele>1397.8</ele>
        <time>2014-04-04T13:01:20Z</time>
      </trkpt>
      <trkpt lat="45.49871" lon="5.89722">
        <ele>1398.5</ele>
        <time>2014-04-04T13:01:22Z</time>
      </trkpt>
      <trkpt lat="45.49869" lon="5.89718">
        <ele>1399.5</ele>
        <time>2014-04-04T13:01:24Z</time>
      </trkpt>
      <trkpt lat="45.49868" lon="5.89717">
        <ele>1400</ele>
        <time>2014-04-04T13:01:26Z</time>
      </trkpt>
      <trkpt lat="45.49868" lon="5.89715">
        <ele>1400.3</ele>
        <time>2014-04-04T13:01:28Z</time>
      </trkpt>
      <trkpt lat="45.49867" lon="5.89714">
        <ele>1400.8</ele>
        <time>2014-04-04T13:01:30Z</time>
      </trkpt>
      <trkpt lat="45.49866" lon="5.89713">
        <ele>1401</ele>
        <time>2014-04-04T13:01:32Z</time>
      </trkpt>
      <trkpt lat="45.49867" lon="5.89711">
        <ele>1401.3</ele>
        <time>2014-04-04T13:01:34Z</time>
      </trkpt>
      <trkpt lat="45.49866" lon="5.89709">
        <ele>1401.9</ele>
        <time>2014-04-04T13:01:36Z</time>
      </trkpt>
      <trkpt lat="45.49864" lon="5.89708">
        <ele>1402.8</ele>
        <time>2014-04-04T13:01:38Z</time>
      </trkpt>
      <trkpt lat="45.49862" lon="5.89705">
        <ele>1404.3</ele>
        <time>2014-04-04T13:01:40Z</time>
      </trkpt>
      <trkpt lat="45.49862" lon="5.89704">
        <ele>1404.5</ele>
        <time>2014-04-04T13:01:42Z</time>
      </trkpt>
      <trkpt lat="45.49862" lon="5.89702">
        <ele>1405</ele>
        <time>2014-04-04T13:01:44Z</time>
      </trkpt>
      <trkpt lat="45.49861" lon="5.89702">
        <ele>1405.4</ele>
        <time>2014-04-04T13:01:46Z</time>
      </trkpt>
      <trkpt lat="45.4986" lon="5.89701">
        <ele>1405.6</ele>
        <time>2014-04-04T13:01:48Z</time>
      </trkpt>
      <trkpt lat="45.49859" lon="5.897">
        <ele>1406</ele>
        <time>2014-04-04T13:01:50Z</time>
      </trkpt>
      <trkpt lat="45.49857" lon="5.89699">
        <ele>1406.2</ele>
        <time>2014-04-04T13:01:52Z</time>
      </trkpt>
      <trkpt lat="45.49854" lon="5.89696">
        <ele>1406.9</ele>
        <time>2014-04-04T13:01:54Z</time>
      </trkpt>
      <trkpt lat="45.49853" lon="5.89695">
        <ele>1407.1</ele>
        <time>2014-04-04T13:01:56Z</time>
      </trkpt>
      <trkpt lat="45.49852" lon="5.89694">
        <ele>1407.3</ele>
        <time>2014-04-04T13:01:58Z</time>
      </trkpt>
      <trkpt lat="45.49849" lon="5.89691">
        <ele>1407.2</ele>
        <time>2014-04-04T13:02:00Z</time>
      </trkpt>
      <trkpt lat="45.49848" lon="5.89689">
        <ele>1407.3</ele>
        <time>2014-04-04T13:02:02Z</time>
      </trkpt>
      <trkpt lat="45.49848" lon="5.89688">
        <ele>1407.3</ele>
        <time>2014-04-04T13:02:04Z</time>
      </trkpt>
      <trkpt lat="45.49847" lon="5.89686">
        <ele>1407.4</ele>
        <time>2014-04-04T13:02:06Z</time>
      </trkpt>
      <trkpt lat="45.49846" lon="5.89684">
        <ele>1407.6</ele>
        <time>2014-04-04T13:02:08Z</time>
      </trkpt>
      <trkpt lat="45.49843" lon="5.89682">
        <ele>1408.2</ele>
        <time>2014-04-04T13:02:10Z</time>
      </trkpt>
      <trkpt lat="45.49842" lon="5.89681">
        <ele>1408.6</ele>
        <time>2014-04-04T13:02:12Z</time>
      </trkpt>
      <trkpt lat="45.4984" lon="5.89679">
        <ele>1409.4</ele>
        <time>2014-04-04T13:02:14Z</time>
      </trkpt>
      <trkpt lat="45.49838" lon="5.89675">
        <ele>1410.6</ele>
        <time>2014-04-04T13:02:16Z</time>
      </trkpt>
      <trkpt lat="45.49836" lon="5.89673">
        <ele>1411.7</ele>
        <time>2014-04-04T13:02:18Z</time>
      </trkpt>
      <trkpt lat="45.49835" lon="5.89672">
        <ele>1412.2</ele>
        <time>2014-04-04T13:02:20Z</time>
      </trkpt>
      <trkpt lat="45.49834" lon="5.89671">
        <ele>1412.7</ele>
        <time>2014-04-04T13:02:22Z</time>
      </trkpt>
      <trkpt lat="45.49833" lon="5.89669">
        <ele>1413.5</ele>
        <time>2014-04-04T13:02:24Z</time>
      </trkpt>
      <trkpt lat="45.49832" lon="5.89668">
        <ele>1413.7</ele>
        <time>2014-04-04T13:02:26Z</time>
      </trkpt>
      <trkpt lat="45.49831" lon="5.89666">
        <ele>1413.6</ele>
        <time>2014-04-04T13:02:28Z</time>
      </trkpt>
      <trkpt lat="45.49829" lon="5.89663">
        <ele>1412.9</ele>
        <time>2014-04-04T13:02:30Z</time>
      </trkpt>
      <trkpt lat="45.49829" lon="5.89661">
        <ele>1412.4</ele>
        <time>2014-04-04T13:02:32Z</time>
      </trkpt>
      <trkpt lat="45.49828" lon="5.8966">
        <ele>1412.3</ele>
        <time>2014-04-04T13:02:34Z</time>
      </trkpt>
      <trkpt lat="45.49827" lon="5.89657">
        <ele>1411.9</ele>
        <time>2014-04-04T13:02:36Z</time>
      </trkpt>
      <trkpt lat="45.49826" lon="5.89655">
        <ele>1411.4</ele>
        <time>2014-04-04T13:02:38Z</time>
      </trkpt>
      <trkpt lat="45.49825" lon="5.89653">
        <ele>1411.4</ele>
        <time>2014-04-04T13:02:40Z</time>
      </trkpt>
      <trkpt lat="45.49824" lon="5.89653">
        <ele>1411.4</ele>
        <time>2014-04-04T13:02:42Z</time>
      </trkpt>
      <trkpt lat="45.49823" lon="5.89652">
        <ele>1411.6</ele>
        <time>2014-04-04T13:02:44Z</time>
      </trkpt>
      <trkpt lat="45.49822" lon="5.8965">
        <ele>1411.7</ele>
        <time>2014-04-04T13:02:46Z</time>
      </trkpt>
      <trkpt lat="45.49821" lon="5.89649">
        <ele>1411.8</ele>
        <time>2014-04-04T13:02:48Z</time>
      </trkpt>
      <trkpt lat="45.4982" lon="5.89648">
        <ele>1411.9</ele>
        <time>2014-04-04T13:02:50Z</time>
      </trkpt>
      <trkpt lat="45.49819" lon="5.89645">
        <ele>1412.1</ele>
        <time>2014-04-04T13:02:52Z</time>
      </trkpt>
      <trkpt lat="45.49818" lon="5.89642">
        <ele>1412.4</ele>
        <time>2014-04-04T13:02:54Z</time>
      </trkpt>
      <trkpt lat="45.49817" lon="5.89642">
        <ele>1412.6</ele>
        <time>2014-04-04T13:02:56Z</time>
      </trkpt>
      <trkpt lat="45.49817" lon="5.8964">
        <ele>1412.8</ele>
        <time>2014-04-04T13:02:58Z</time>
      </trkpt>
      <trkpt lat="45.49817" lon="5.89639">
        <ele>1412.8</ele>
        <time>2014-04-04T13:03:00Z</time>
      </trkpt>
      <trkpt lat="45.49814" lon="5.89636">
        <ele>1413.9</ele>
        <time>2014-04-04T13:03:02Z</time>
      </trkpt>
      <trkpt lat="45.49814" lon="5.89636">
        <ele>1414.2</ele>
        <time>2014-04-04T13:03:04Z</time>
      </trkpt>
      <trkpt lat="45.49811" lon="5.89633">
        <ele>1415.6</ele>
        <time>2014-04-04T13:03:06Z</time>
      </trkpt>
      <trkpt lat="45.49809" lon="5.89632">
        <ele>1417.5</ele>
        <time>2014-04-04T13:03:08Z</time>
      </trkpt>
      <trkpt lat="45.49808" lon="5.89631">
        <ele>1418</ele>
        <time>2014-04-04T13:03:10Z</time>
      </trkpt>
      <trkpt lat="45.49807" lon="5.89629">
        <ele>1419.1</ele>
        <time>2014-04-04T13:03:12Z</time>
      </trkpt>
      <trkpt lat="45.49807" lon="5.89626">
        <ele>1419.7</ele>
        <time>2014-04-04T13:03:14Z</time>
      </trkpt>
      <trkpt lat="45.49806" lon="5.89621">
        <ele>1421.2</ele>
        <time>2014-04-04T13:03:16Z</time>
      </trkpt>
      <trkpt lat="45.49806" lon="5.8962">
        <ele>1421.9</ele>
        <time>2014-04-04T13:03:18Z</time>
      </trkpt>
      <trkpt lat="45.49805" lon="5.89618">
        <ele>1422.5</ele>
        <time>2014-04-04T13:03:20Z</time>
      </trkpt>
      <trkpt lat="45.49805" lon="5.89616">
        <ele>1423.1</ele>
        <time>2014-04-04T13:03:22Z</time>
      </trkpt>
      <trkpt lat="45.49803" lon="5.89612">
        <ele>1423.8</ele>
        <time>2014-04-04T13:03:24Z</time>
      </trkpt>
      <trkpt lat="45.49802" lon="5.8961">
        <ele>1423.4</ele>
        <time>2014-04-04T13:03:26Z</time>
      </trkpt>
      <trkpt lat="45.49802" lon="5.89609">
        <ele>1422.3</ele>
        <time>2014-04-04T13:03:28Z</time>
      </trkpt>
      <trkpt lat="45.49802" lon="5.89606">
        <ele>1420.8</ele>
        <time>2014-04-04T13:03:30Z</time>
      </trkpt>
      <trkpt lat="45.49802" lon="5.89606">
        <ele>1420.5</ele>
        <time>2014-04-04T13:03:32Z</time>
      </trkpt>
      <trkpt lat="45.49801" lon="5.89606">
        <ele>1420.6</ele>
        <time>2014-04-04T13:03:34Z</time>
      </trkpt>
      <trkpt lat="45.49799" lon="5.89606">
        <ele>1421.1</ele>
        <time>2014-04-04T13:03:36Z</time>
      </trkpt>
      <trkpt lat="45.49799" lon="5.89606">
        <ele>1421.2</ele>
        <time>2014-04-04T13:03:38Z</time>
      </trkpt>
      <trkpt lat="45.49798" lon="5.89605">
        <ele>1420.9</ele>
        <time>2014-04-04T13:03:40Z</time>
      </trkpt>
      <trkpt lat="45.49797" lon="5.89604">
        <ele>1420.8</ele>
        <time>2014-04-04T13:03:42Z</time>
      </trkpt>
      <trkpt lat="45.49795" lon="5.89602">
        <ele>1420.1</ele>
        <time>2014-04-04T13:03:44Z</time>
      </trkpt>
      <trkpt lat="45.49795" lon="5.89601">
        <ele>1420.1</ele>
        <time>2014-04-04T13:03:46Z</time>
      </trkpt>
      <trkpt lat="45.49794" lon="5.89601">
        <ele>1420.2</ele>
        <time>2014-04-04T13:03:48Z</time>
      </trkpt>
      <trkpt lat="45.49792" lon="5.896">
        <ele>1420.7</ele>
        <time>2014-04-04T13:03:50Z</time>
      </trkpt>
      <trkpt lat="45.49791" lon="5.89599">
        <ele>1421</ele>
        <time>2014-04-04T13:03:52Z</time>
      </trkpt>
      <trkpt lat="45.49789" lon="5.89596">
        <ele>1420.7</ele>
        <time>2014-04-04T13:03:54Z</time>
      </trkpt>
      <trkpt lat="45.49789" lon="5.89595">
        <ele>1420.8</ele>
        <time>2014-04-04T13:03:56Z</time>
      </trkpt>
      <trkpt lat="45.49788" lon="5.89592">
        <ele>1420.7</ele>
        <time>2014-04-04T13:03:58Z</time>
      </trkpt>
      <trkpt lat="45.49788" lon="5.89589">
        <ele>1420.6</ele>
        <time>2014-04-04T13:04:00Z</time>
      </trkpt>
      <trkpt lat="45.49787" lon="5.89588">
        <ele>1420.7</ele>
        <time>2014-04-04T13:04:02Z</time>
      </trkpt>
      <trkpt lat="45.49787" lon="5.89586">
        <ele>1421.1</ele>
        <time>2014-04-04T13:04:04Z</time>
      </trkpt>
      <trkpt lat="45.49786" lon="5.89585">
        <ele>1421.3</ele>
        <time>2014-04-04T13:04:06Z</time>
      </trkpt>
      <trkpt lat="45.49785" lon="5.89583">
        <ele>1422.2</ele>
        <time>2014-04-04T13:04:08Z</time>
      </trkpt>
      <trkpt lat="45.49783" lon="5.89583">
        <ele>1423.8</ele>
        <time>2014-04-04T13:04:10Z</time>
      </trkpt>
      <trkpt lat="45.49783" lon="5.89583">
        <ele>1424.4</ele>
        <time>2014-04-04T13:04:12Z</time>
      </trkpt>
      <trkpt lat="45.49781" lon="5.89584">
        <ele>1425.8</ele>
        <time>2014-04-04T13:04:14Z</time>
      </trkpt>
      <trkpt lat="45.49781" lon="5.89581">
        <ele>1426.4</ele>
        <time>2014-04-04T13:04:16Z</time>
      </trkpt>
      <trkpt lat="45.49781" lon="5.8958">
        <ele>1426.5</ele>
        <time>2014-04-04T13:04:18Z</time>
      </trkpt>
      <trkpt lat="45.49781" lon="5.89577">
        <ele>1426.9</ele>
        <time>2014-04-04T13:04:20Z</time>
      </trkpt>
      <trkpt lat="45.4978" lon="5.89573">
        <ele>1427.6</ele>
        <time>2014-04-04T13:04:22Z</time>
      </trkpt>
      <trkpt lat="45.49779" lon="5.8957">
        <ele>1429</ele>
        <time>2014-04-04T13:04:24Z</time>
      </trkpt>
      <trkpt lat="45.49779" lon="5.89569">
        <ele>1429.5</ele>
        <time>2014-04-04T13:04:26Z</time>
      </trkpt>
      <trkpt lat="45.49778" lon="5.89568">
        <ele>1430.8</ele>
        <time>2014-04-04T13:04:28Z</time>
      </trkpt>
      <trkpt lat="45.49776" lon="5.89566">
        <ele>1431.2</ele>
        <time>2014-04-04T13:04:30Z</time>
      </trkpt>
      <trkpt lat="45.49776" lon="5.89563">
        <ele>1431.5</ele>
        <time>2014-04-04T13:04:32Z</time>
      </trkpt>
      <trkpt lat="45.49776" lon="5.89563">
        <ele>1431.6</ele>
        <time>2014-04-04T13:04:34Z</time>
      </trkpt>
      <trkpt lat="45.49775" lon="5.89561">
        <ele>1431.9</ele>
        <time>2014-04-04T13:04:36Z</time>
      </trkpt>
      <trkpt lat="45.49775" lon="5.89561">
        <ele>1432.1</ele>
        <time>2014-04-04T13:04:38Z</time>
      </trkpt>
      <trkpt lat="45.49775" lon="5.8956">
        <ele>1432.2</ele>
        <time>2014-04-04T13:04:40Z</time>
      </trkpt>
      <trkpt lat="45.49775" lon="5.89559">
        <ele>1432.3</ele>
        <time>2014-04-04T13:04:42Z</time>
      </trkpt>
      <trkpt lat="45.49775" lon="5.89557">
        <ele>1432.5</ele>
        <time>2014-04-04T13:04:44Z</time>
      </trkpt>
      <trkpt lat="45.49773" lon="5.89556">
        <ele>1432.9</ele>
        <time>2014-04-04T13:04:46Z</time>
      </trkpt>
      <trkpt lat="45.49773" lon="5.89553">
        <ele>1432.2</ele>
        <time>2014-04-04T13:04:48Z</time>
      </trkpt>
      <trkpt lat="45.49773" lon="5.89551">
        <ele>1431.7</ele>
        <time>2014-04-04T13:04:50Z</time>
      </trkpt>
      <trkpt lat="45.49771" lon="5.89548">
        <ele>1431.5</ele>
        <time>2014-04-04T13:04:52Z</time>
      </trkpt>
      <trkpt lat="45.49771" lon="5.89548">
        <ele>1431.4</ele>
        <time>2014-04-04T13:04:54Z</time>
      </trkpt>
      <trkpt lat="45.49771" lon="5.89547">
        <ele>1431.2</ele>
        <time>2014-04-04T13:04:56Z</time>
      </trkpt>
      <trkpt lat="45.49771" lon="5.89547">
        <ele>1431.3</ele>
        <time>2014-04-04T13:04:58Z</time>
      </trkpt>
      <trkpt lat="45.49769" lon="5.89547">
        <ele>1431.9</ele>
        <time>2014-04-04T13:05:00Z</time>
      </trkpt>
      <trkpt lat="45.49768" lon="5.89546">
        <ele>1432.2</ele>
        <time>2014-04-04T13:05:02Z</time>
      </trkpt>
      <trkpt lat="45.49768" lon="5.89546">
        <ele>1432.3</ele>
        <time>2014-04-04T13:05:04Z</time>
      </trkpt>
      <trkpt lat="45.49767" lon="5.89544">
        <ele>1432.2</ele>
        <time>2014-04-04T13:05:06Z</time>
      </trkpt>
      <trkpt lat="45.49767" lon="5.89544">
        <ele>1432.4</ele>
        <time>2014-04-04T13:05:08Z</time>
      </trkpt>
      <trkpt lat="45.49766" lon="5.89544">
        <ele>1432.5</ele>
        <time>2014-04-04T13:05:10Z</time>
      </trkpt>
      <trkpt lat="45.49766" lon="5.89544">
        <ele>1432.7</ele>
        <time>2014-04-04T13:05:12Z</time>
      </trkpt>
      <trkpt lat="45.49765" lon="5.89543">
        <ele>1433</ele>
        <time>2014-04-04T13:05:14Z</time>
      </trkpt>
      <trkpt lat="45.49763" lon="5.89542">
        <ele>1434.2</ele>
        <time>2014-04-04T13:05:16Z</time>
      </trkpt>
      <trkpt lat="45.49762" lon="5.89541">
        <ele>1434.3</ele>
        <time>2014-04-04T13:05:18Z</time>
      </trkpt>
      <trkpt lat="45.49762" lon="5.89539">
        <ele>1434.3</ele>
        <time>2014-04-04T13:05:20Z</time>
      </trkpt>
      <trkpt lat="45.49762" lon="5.89535">
        <ele>1434.3</ele>
        <time>2014-04-04T13:05:22Z</time>
      </trkpt>
      <trkpt lat="45.49762" lon="5.89533">
        <ele>1434.3</ele>
        <time>2014-04-04T13:05:24Z</time>
      </trkpt>
      <trkpt lat="45.49761" lon="5.89532">
        <ele>1434.4</ele>
        <time>2014-04-04T13:05:26Z</time>
      </trkpt>
      <trkpt lat="45.49761" lon="5.89532">
        <ele>1434.6</ele>
        <time>2014-04-04T13:05:28Z</time>
      </trkpt>
      <trkpt lat="45.4976" lon="5.8953">
        <ele>1435.1</ele>
        <time>2014-04-04T13:05:30Z</time>
      </trkpt>
      <trkpt lat="45.4976" lon="5.89529">
        <ele>1435.4</ele>
        <time>2014-04-04T13:05:32Z</time>
      </trkpt>
      <trkpt lat="45.4976" lon="5.89528">
        <ele>1435.8</ele>
        <time>2014-04-04T13:05:34Z</time>
      </trkpt>
      <trkpt lat="45.49759" lon="5.89528">
        <ele>1436.6</ele>
        <time>2014-04-04T13:05:36Z</time>
      </trkpt>
      <trkpt lat="45.49758" lon="5.89528">
        <ele>1436.8</ele>
        <time>2014-04-04T13:05:38Z</time>
      </trkpt>
      <trkpt lat="45.49758" lon="5.89528">
        <ele>1436.8</ele>
        <time>2014-04-04T13:05:40Z</time>
      </trkpt>
      <trkpt lat="45.49758" lon="5.89527">
        <ele>1436.8</ele>
        <time>2014-04-04T13:05:42Z</time>
      </trkpt>
      <trkpt lat="45.49756" lon="5.89527">
        <ele>1438.4</ele>
        <time>2014-04-04T13:05:44Z</time>
      </trkpt>
      <trkpt lat="45.49754" lon="5.89526">
        <ele>1440.1</ele>
        <time>2014-04-04T13:05:46Z</time>
      </trkpt>
      <trkpt lat="45.49754" lon="5.89526">
        <ele>1440.3</ele>
        <time>2014-04-04T13:05:48Z</time>
      </trkpt>
      <trkpt lat="45.49753" lon="5.89526">
        <ele>1441.2</ele>
        <time>2014-04-04T13:05:50Z</time>
      </trkpt>
      <trkpt lat="45.49751" lon="5.89525">
        <ele>1442.4</ele>
        <time>2014-04-04T13:05:52Z</time>
      </trkpt>
      <trkpt lat="45.4975" lon="5.89524">
        <ele>1443.1</ele>
        <time>2014-04-04T13:05:54Z</time>
      </trkpt>
      <trkpt lat="45.4975" lon="5.89524">
        <ele>1443.5</ele>
        <time>2014-04-04T13:05:56Z</time>
      </trkpt>
      <trkpt lat="45.49749" lon="5.89523">
        <ele>1443.5</ele>
        <time>2014-04-04T13:05:58Z</time>
      </trkpt>
      <trkpt lat="45.49749" lon="5.89523">
        <ele>1443.8</ele>
        <time>2014-04-04T13:06:00Z</time>
      </trkpt>
      <trkpt lat="45.49747" lon="5.89522">
        <ele>1444.1</ele>
        <time>2014-04-04T13:06:02Z</time>
      </trkpt>
      <trkpt lat="45.49746" lon="5.89521">
        <ele>1444.1</ele>
        <time>2014-04-04T13:06:04Z</time>
      </trkpt>
      <trkpt lat="45.49746" lon="5.8952">
        <ele>1444</ele>
        <time>2014-04-04T13:06:06Z</time>
      </trkpt>
      <trkpt lat="45.49746" lon="5.89518">
        <ele>1444</ele>
        <time>2014-04-04T13:06:08Z</time>
      </trkpt>
      <trkpt lat="45.49746" lon="5.89518">
        <ele>1444.1</ele>
        <time>2014-04-04T13:06:10Z</time>
      </trkpt>
      <trkpt lat="45.49745" lon="5.89517">
        <ele>1444.2</ele>
        <time>2014-04-04T13:06:12Z</time>
      </trkpt>
      <trkpt lat="45.49745" lon="5.89515">
        <ele>1444</ele>
        <time>2014-04-04T13:06:14Z</time>
      </trkpt>
      <trkpt lat="45.49744" lon="5.89513">
        <ele>1444.5</ele>
        <time>2014-04-04T13:06:16Z</time>
      </trkpt>
      <trkpt lat="45.49742" lon="5.89511">
        <ele>1444.9</ele>
        <time>2014-04-04T13:06:18Z</time>
      </trkpt>
      <trkpt lat="45.49742" lon="5.89509">
        <ele>1445</ele>
        <time>2014-04-04T13:06:20Z</time>
      </trkpt>
      <trkpt lat="45.49742" lon="5.89506">
        <ele>1445.1</ele>
        <time>2014-04-04T13:06:22Z</time>
      </trkpt>
      <trkpt lat="45.49741" lon="5.89505">
        <ele>1445.1</ele>
        <time>2014-04-04T13:06:24Z</time>
      </trkpt>
      <trkpt lat="45.49742" lon="5.89503">
        <ele>1445</ele>
        <time>2014-04-04T13:06:26Z</time>
      </trkpt>
      <trkpt lat="45.49742" lon="5.89502">
        <ele>1444.9</ele>
        <time>2014-04-04T13:06:28Z</time>
      </trkpt>
      <trkpt lat="45.49741" lon="5.89502">
        <ele>1445.2</ele>
        <time>2014-04-04T13:06:30Z</time>
      </trkpt>
      <trkpt lat="45.49741" lon="5.89502">
        <ele>1445.4</ele>
        <time>2014-04-04T13:06:32Z</time>
      </trkpt>
      <trkpt lat="45.4974" lon="5.89501">
        <ele>1445.7</ele>
        <time>2014-04-04T13:06:34Z</time>
      </trkpt>
      <trkpt lat="45.49739" lon="5.89501">
        <ele>1446.3</ele>
        <time>2014-04-04T13:06:36Z</time>
      </trkpt>
      <trkpt lat="45.49739" lon="5.895">
        <ele>1446.4</ele>
        <time>2014-04-04T13:06:38Z</time>
      </trkpt>
      <trkpt lat="45.49739" lon="5.89497">
        <ele>1445.5</ele>
        <time>2014-04-04T13:06:40Z</time>
      </trkpt>
      <trkpt lat="45.49738" lon="5.89495">
        <ele>1444.9</ele>
        <time>2014-04-04T13:06:42Z</time>
      </trkpt>
      <trkpt lat="45.49738" lon="5.89493">
        <ele>1444.5</ele>
        <time>2014-04-04T13:06:44Z</time>
      </trkpt>
      <trkpt lat="45.49737" lon="5.89492">
        <ele>1444.3</ele>
        <time>2014-04-04T13:06:46Z</time>
      </trkpt>
      <trkpt lat="45.49737" lon="5.89491">
        <ele>1444.7</ele>
        <time>2014-04-04T13:06:48Z</time>
      </trkpt>
      <trkpt lat="45.49736" lon="5.8949">
        <ele>1444.9</ele>
        <time>2014-04-04T13:06:50Z</time>
      </trkpt>
      <trkpt lat="45.49735" lon="5.8949">
        <ele>1446.3</ele>
        <time>2014-04-04T13:06:52Z</time>
      </trkpt>
      <trkpt lat="45.49734" lon="5.89489">
        <ele>1446.8</ele>
        <time>2014-04-04T13:06:54Z</time>
      </trkpt>
      <trkpt lat="45.49734" lon="5.89488">
        <ele>1446.8</ele>
        <time>2014-04-04T13:06:56Z</time>
      </trkpt>
      <trkpt lat="45.49733" lon="5.89488">
        <ele>1446.9</ele>
        <time>2014-04-04T13:06:58Z</time>
      </trkpt>
      <trkpt lat="45.49734" lon="5.89488">
        <ele>1446.7</ele>
        <time>2014-04-04T13:07:00Z</time>
      </trkpt>
      <trkpt lat="45.49733" lon="5.89488">
        <ele>1446.8</ele>
        <time>2014-04-04T13:07:02Z</time>
      </trkpt>
      <trkpt lat="45.49733" lon="5.89487">
        <ele>1447</ele>
        <time>2014-04-04T13:07:04Z</time>
      </trkpt>
      <trkpt lat="45.49733" lon="5.89485">
        <ele>1447.1</ele>
        <time>2014-04-04T13:07:06Z</time>
      </trkpt>
      <trkpt lat="45.49733" lon="5.89484">
        <ele>1446.6</ele>
        <time>2014-04-04T13:07:08Z</time>
      </trkpt>
      <trkpt lat="45.49733" lon="5.89483">
        <ele>1446.2</ele>
        <time>2014-04-04T13:07:10Z</time>
      </trkpt>
      <trkpt lat="45.49732" lon="5.89482">
        <ele>1447.5</ele>
        <time>2014-04-04T13:07:12Z</time>
      </trkpt>
      <trkpt lat="45.4973" lon="5.89481">
        <ele>1449.3</ele>
        <time>2014-04-04T13:07:14Z</time>
      </trkpt>
      <trkpt lat="45.4973" lon="5.8948">
        <ele>1449.1</ele>
        <time>2014-04-04T13:07:16Z</time>
      </trkpt>
      <trkpt lat="45.4973" lon="5.8948">
        <ele>1449.5</ele>
        <time>2014-04-04T13:07:18Z</time>
      </trkpt>
      <trkpt lat="45.4973" lon="5.89481">
        <ele>1450.2</ele>
        <time>2014-04-04T13:07:20Z</time>
      </trkpt>
      <trkpt lat="45.49729" lon="5.89482">
        <ele>1451.3</ele>
        <time>2014-04-04T13:07:22Z</time>
      </trkpt>
      <trkpt lat="45.49727" lon="5.89483">
        <ele>1453.4</ele>
        <time>2014-04-04T13:07:24Z</time>
      </trkpt>
      <trkpt lat="45.49727" lon="5.89483">
        <ele>1453.8</ele>
        <time>2014-04-04T13:07:26Z</time>
      </trkpt>
      <trkpt lat="45.49726" lon="5.89482">
        <ele>1455.2</ele>
        <time>2014-04-04T13:07:28Z</time>
      </trkpt>
      <trkpt lat="45.49725" lon="5.8948">
        <ele>1456.7</ele>
        <time>2014-04-04T13:07:30Z</time>
      </trkpt>
      <trkpt lat="45.49725" lon="5.89479">
        <ele>1456.7</ele>
        <time>2014-04-04T13:07:32Z</time>
      </trkpt>
      <trkpt lat="45.49724" lon="5.89479">
        <ele>1457.7</ele>
        <time>2014-04-04T13:07:34Z</time>
      </trkpt>
      <trkpt lat="45.49723" lon="5.89479">
        <ele>1459.4</ele>
        <time>2014-04-04T13:07:36Z</time>
      </trkpt>
      <trkpt lat="45.4972" lon="5.8948">
        <ele>1460.1</ele>
        <time>2014-04-04T13:07:38Z</time>
      </trkpt>
      <trkpt lat="45.49719" lon="5.89479">
        <ele>1460.4</ele>
        <time>2014-04-04T13:07:40Z</time>
      </trkpt>
      <trkpt lat="45.49718" lon="5.89479">
        <ele>1460.7</ele>
        <time>2014-04-04T13:07:42Z</time>
      </trkpt>
      <trkpt lat="45.49717" lon="5.89479">
        <ele>1460.9</ele>
        <time>2014-04-04T13:07:44Z</time>
      </trkpt>
      <trkpt lat="45.49716" lon="5.89479">
        <ele>1461.1</ele>
        <time>2014-04-04T13:07:46Z</time>
      </trkpt>
      <trkpt lat="45.49715" lon="5.89478">
        <ele>1461.5</ele>
        <time>2014-04-04T13:07:48Z</time>
      </trkpt>
      <trkpt lat="45.49714" lon="5.89477">
        <ele>1461.9</ele>
        <time>2014-04-04T13:07:50Z</time>
      </trkpt>
      <trkpt lat="45.49713" lon="5.89474">
        <ele>1462.6</ele>
        <time>2014-04-04T13:07:52Z</time>
      </trkpt>
      <trkpt lat="45.49712" lon="5.89474">
        <ele>1462.9</ele>
        <time>2014-04-04T13:07:54Z</time>
      </trkpt>
      <trkpt lat="45.49711" lon="5.89473">
        <ele>1463.2</ele>
        <time>2014-04-04T13:07:56Z</time>
      </trkpt>
      <trkpt lat="45.49711" lon="5.89471">
        <ele>1463.4</ele>
        <time>2014-04-04T13:07:58Z</time>
      </trkpt>
      <trkpt lat="45.49711" lon="5.8947">
        <ele>1463.1</ele>
        <time>2014-04-04T13:08:00Z</time>
      </trkpt>
      <trkpt lat="45.49711" lon="5.8947">
        <ele>1463.1</ele>
        <time>2014-04-04T13:08:02Z</time>
      </trkpt>
      <trkpt lat="45.4971" lon="5.89469">
        <ele>1463.2</ele>
        <time>2014-04-04T13:08:04Z</time>
      </trkpt>
      <trkpt lat="45.4971" lon="5.89469">
        <ele>1463.3</ele>
        <time>2014-04-04T13:08:06Z</time>
      </trkpt>
      <trkpt lat="45.49709" lon="5.89468">
        <ele>1463.5</ele>
        <time>2014-04-04T13:08:08Z</time>
      </trkpt>
      <trkpt lat="45.49709" lon="5.89468">
        <ele>1463.6</ele>
        <time>2014-04-04T13:08:10Z</time>
      </trkpt>
      <trkpt lat="45.49708" lon="5.89466">
        <ele>1463.5</ele>
        <time>2014-04-04T13:08:12Z</time>
      </trkpt>
      <trkpt lat="45.49708" lon="5.89464">
        <ele>1463.7</ele>
        <time>2014-04-04T13:08:14Z</time>
      </trkpt>
      <trkpt lat="45.49707" lon="5.89464">
        <ele>1463.9</ele>
        <time>2014-04-04T13:08:16Z</time>
      </trkpt>
      <trkpt lat="45.49707" lon="5.89463">
        <ele>1464</ele>
        <time>2014-04-04T13:08:18Z</time>
      </trkpt>
      <trkpt lat="45.49706" lon="5.89463">
        <ele>1464.2</ele>
        <time>2014-04-04T13:08:20Z</time>
      </trkpt>
      <trkpt lat="45.49706" lon="5.89462">
        <ele>1464.4</ele>
        <time>2014-04-04T13:08:22Z</time>
      </trkpt>
      <trkpt lat="45.49706" lon="5.89462">
        <ele>1464.5</ele>
        <time>2014-04-04T13:08:24Z</time>
      </trkpt>
      <trkpt lat="45.49705" lon="5.8946">
        <ele>1464.6</ele>
        <time>2014-04-04T13:08:26Z</time>
      </trkpt>
      <trkpt lat="45.49705" lon="5.89459">
        <ele>1464.8</ele>
        <time>2014-04-04T13:08:28Z</time>
      </trkpt>
      <trkpt lat="45.49705" lon="5.89457">
        <ele>1464.9</ele>
        <time>2014-04-04T13:08:30Z</time>
      </trkpt>
      <trkpt lat="45.49704" lon="5.89456">
        <ele>1465.1</ele>
        <time>2014-04-04T13:08:32Z</time>
      </trkpt>
      <trkpt lat="45.49704" lon="5.89454">
        <ele>1465.5</ele>
        <time>2014-04-04T13:08:34Z</time>
      </trkpt>
      <trkpt lat="45.49703" lon="5.89453">
        <ele>1466.2</ele>
        <time>2014-04-04T13:08:36Z</time>
      </trkpt>
      <trkpt lat="45.49702" lon="5.89452">
        <ele>1466.6</ele>
        <time>2014-04-04T13:08:38Z</time>
      </trkpt>
      <trkpt lat="45.49702" lon="5.89451">
        <ele>1467</ele>
        <time>2014-04-04T13:08:40Z</time>
      </trkpt>
      <trkpt lat="45.49701" lon="5.8945">
        <ele>1467.3</ele>
        <time>2014-04-04T13:08:42Z</time>
      </trkpt>
      <trkpt lat="45.49701" lon="5.89447">
        <ele>1467.9</ele>
        <time>2014-04-04T13:08:44Z</time>
      </trkpt>
      <trkpt lat="45.49701" lon="5.89446">
        <ele>1468</ele>
        <time>2014-04-04T13:08:46Z</time>
      </trkpt>
      <trkpt lat="45.497" lon="5.89445">
        <ele>1468.8</ele>
        <time>2014-04-04T13:08:48Z</time>
      </trkpt>
      <trkpt lat="45.49698" lon="5.89444">
        <ele>1469.8</ele>
        <time>2014-04-04T13:08:50Z</time>
      </trkpt>
      <trkpt lat="45.49697" lon="5.89443">
        <ele>1471.1</ele>
        <time>2014-04-04T13:08:52Z</time>
      </trkpt>
      <trkpt lat="45.49696" lon="5.89443">
        <ele>1471.3</ele>
        <time>2014-04-04T13:08:54Z</time>
      </trkpt>
      <trkpt lat="45.49695" lon="5.89441">
        <ele>1472.3</ele>
        <time>2014-04-04T13:08:56Z</time>
      </trkpt>
      <trkpt lat="45.49694" lon="5.89441">
        <ele>1472.4</ele>
        <time>2014-04-04T13:08:58Z</time>
      </trkpt>
      <trkpt lat="45.49693" lon="5.8944">
        <ele>1472.3</ele>
        <time>2014-04-04T13:09:00Z</time>
      </trkpt>
      <trkpt lat="45.49692" lon="5.8944">
        <ele>1472.3</ele>
        <time>2014-04-04T13:09:02Z</time>
      </trkpt>
      <trkpt lat="45.49691" lon="5.89438">
        <ele>1472.1</ele>
        <time>2014-04-04T13:09:04Z</time>
      </trkpt>
      <trkpt lat="45.49691" lon="5.89436">
        <ele>1471.9</ele>
        <time>2014-04-04T13:09:06Z</time>
      </trkpt>
      <trkpt lat="45.4969" lon="5.89435">
        <ele>1471.8</ele>
        <time>2014-04-04T13:09:08Z</time>
      </trkpt>
      <trkpt lat="45.4969" lon="5.89434">
        <ele>1471.8</ele>
        <time>2014-04-04T13:09:10Z</time>
      </trkpt>
      <trkpt lat="45.49689" lon="5.89433">
        <ele>1471.8</ele>
        <time>2014-04-04T13:09:12Z</time>
      </trkpt>
      <trkpt lat="45.49687" lon="5.89432">
        <ele>1472.1</ele>
        <time>2014-04-04T13:09:14Z</time>
      </trkpt>
      <trkpt lat="45.49687" lon="5.89432">
        <ele>1472.1</ele>
        <time>2014-04-04T13:09:16Z</time>
      </trkpt>
      <trkpt lat="45.49686" lon="5.89432">
        <ele>1472.2</ele>
        <time>2014-04-04T13:09:18Z</time>
      </trkpt>
      <trkpt lat="45.49685" lon="5.89431">
        <ele>1472.4</ele>
        <time>2014-04-04T13:09:20Z</time>
      </trkpt>
      <trkpt lat="45.49684" lon="5.89429">
        <ele>1472.6</ele>
        <time>2014-04-04T13:09:22Z</time>
      </trkpt>
      <trkpt lat="45.49684" lon="5.89428">
        <ele>1472.6</ele>
        <time>2014-04-04T13:09:24Z</time>
      </trkpt>
      <trkpt lat="45.49683" lon="5.89427">
        <ele>1472.6</ele>
        <time>2014-04-04T13:09:26Z</time>
      </trkpt>
      <trkpt lat="45.49683" lon="5.89425">
        <ele>1472.7</ele>
        <time>2014-04-04T13:09:28Z</time>
      </trkpt>
      <trkpt lat="45.49682" lon="5.89425">
        <ele>1473</ele>
        <time>2014-04-04T13:09:30Z</time>
      </trkpt>
      <trkpt lat="45.49682" lon="5.89425">
        <ele>1473.1</ele>
        <time>2014-04-04T13:09:32Z</time>
      </trkpt>
      <trkpt lat="45.49681" lon="5.89426">
        <ele>1473.2</ele>
        <time>2014-04-04T13:09:34Z</time>
      </trkpt>
      <trkpt lat="45.49681" lon="5.89426">
        <ele>1473.1</ele>
        <time>2014-04-04T13:09:36Z</time>
      </trkpt>
      <trkpt lat="45.4968" lon="5.89427">
        <ele>1473.4</ele>
        <time>2014-04-04T13:09:38Z</time>
      </trkpt>
      <trkpt lat="45.4968" lon="5.89427">
        <ele>1473.6</ele>
        <time>2014-04-04T13:09:40Z</time>
      </trkpt>
      <trkpt lat="45.49677" lon="5.89428">
        <ele>1474.1</ele>
        <time>2014-04-04T13:09:42Z</time>
      </trkpt>
      <trkpt lat="45.49673" lon="5.89426">
        <ele>1475.5</ele>
        <time>2014-04-04T13:09:44Z</time>
      </trkpt>
      <trkpt lat="45.49671" lon="5.89426">
        <ele>1475.9</ele>
        <time>2014-04-04T13:09:46Z</time>
      </trkpt>
      <trkpt lat="45.49668" lon="5.89426">
        <ele>1476.7</ele>
        <time>2014-04-04T13:09:48Z</time>
      </trkpt>
      <trkpt lat="45.49665" lon="5.89424">
        <ele>1477.5</ele>
        <time>2014-04-04T13:09:50Z</time>
      </trkpt>
      <trkpt lat="45.49665" lon="5.89423">
        <ele>1477.7</ele>
        <time>2014-04-04T13:09:52Z</time>
      </trkpt>
      <trkpt lat="45.49664" lon="5.89422">
        <ele>1477.9</ele>
        <time>2014-04-04T13:09:54Z</time>
      </trkpt>
      <trkpt lat="45.49663" lon="5.8942">
        <ele>1478.3</ele>
        <time>2014-04-04T13:09:56Z</time>
      </trkpt>
      <trkpt lat="45.49662" lon="5.89418">
        <ele>1478.8</ele>
        <time>2014-04-04T13:09:58Z</time>
      </trkpt>
      <trkpt lat="45.4966" lon="5.89416">
        <ele>1479</ele>
        <time>2014-04-04T13:10:00Z</time>
      </trkpt>
      <trkpt lat="45.4966" lon="5.89415">
        <ele>1478.9</ele>
        <time>2014-04-04T13:10:02Z</time>
      </trkpt>
      <trkpt lat="45.49659" lon="5.89412">
        <ele>1478.8</ele>
        <time>2014-04-04T13:10:04Z</time>
      </trkpt>
      <trkpt lat="45.49659" lon="5.89407">
        <ele>1478.6</ele>
        <time>2014-04-04T13:10:06Z</time>
      </trkpt>
      <trkpt lat="45.49659" lon="5.89406">
        <ele>1478.6</ele>
        <time>2014-04-04T13:10:08Z</time>
      </trkpt>
      <trkpt lat="45.4966" lon="5.89406">
        <ele>1478.5</ele>
        <time>2014-04-04T13:10:10Z</time>
      </trkpt>
      <trkpt lat="45.49659" lon="5.89404">
        <ele>1478.5</ele>
        <time>2014-04-04T13:10:12Z</time>
      </trkpt>
      <trkpt lat="45.49657" lon="5.89401">
        <ele>1478.4</ele>
        <time>2014-04-04T13:10:14Z</time>
      </trkpt>
      <trkpt lat="45.49657" lon="5.89399">
        <ele>1478.4</ele>
        <time>2014-04-04T13:10:16Z</time>
      </trkpt>
      <trkpt lat="45.49658" lon="5.89397">
        <ele>1478.3</ele>
        <time>2014-04-04T13:10:18Z</time>
      </trkpt>
      <trkpt lat="45.49658" lon="5.89396">
        <ele>1478.2</ele>
        <time>2014-04-04T13:10:20Z</time>
      </trkpt>
      <trkpt lat="45.49658" lon="5.89395">
        <ele>1478.1</ele>
        <time>2014-04-04T13:10:22Z</time>
      </trkpt>
      <trkpt lat="45.49659" lon="5.89395">
        <ele>1478.1</ele>
        <time>2014-04-04T13:10:24Z</time>
      </trkpt>
      <trkpt lat="45.49659" lon="5.89395">
        <ele>1478.1</ele>
        <time>2014-04-04T13:10:26Z</time>
      </trkpt>
      <trkpt lat="45.4966" lon="5.89394">
        <ele>1478</ele>
        <time>2014-04-04T13:10:28Z</time>
      </trkpt>
      <trkpt lat="45.4966" lon="5.89394">
        <ele>1478</ele>
        <time>2014-04-04T13:10:30Z</time>
      </trkpt>
      <trkpt lat="45.4966" lon="5.89395">
        <ele>1478.1</ele>
        <time>2014-04-04T13:10:34Z</time>
      </trkpt>
      <trkpt lat="45.49659" lon="5.89396">
        <ele>1478.1</ele>
        <time>2014-04-04T13:10:36Z</time>
      </trkpt>
      <trkpt lat="45.49659" lon="5.89394">
        <ele>1478.1</ele>
        <time>2014-04-04T13:10:38Z</time>
      </trkpt>
      <trkpt lat="45.49658" lon="5.89393">
        <ele>1478.1</ele>
        <time>2014-04-04T13:10:40Z</time>
      </trkpt>
      <trkpt lat="45.49657" lon="5.89392">
        <ele>1478.2</ele>
        <time>2014-04-04T13:10:42Z</time>
      </trkpt>
      <trkpt lat="45.49656" lon="5.8939">
        <ele>1478.2</ele>
        <time>2014-04-04T13:10:44Z</time>
      </trkpt>
      <trkpt lat="45.49655" lon="5.89389">
        <ele>1478.3</ele>
        <time>2014-04-04T13:10:46Z</time>
      </trkpt>
      <trkpt lat="45.49655" lon="5.89386">
        <ele>1476.9</ele>
        <time>2014-04-04T13:10:48Z</time>
      </trkpt>
      <trkpt lat="45.49656" lon="5.89383">
        <ele>1475.5</ele>
        <time>2014-04-04T13:10:50Z</time>
      </trkpt>
      <trkpt lat="45.49655" lon="5.89381">
        <ele>1474.9</ele>
        <time>2014-04-04T13:10:52Z</time>
      </trkpt>
      <trkpt lat="45.49655" lon="5.89381">
        <ele>1474.8</ele>
        <time>2014-04-04T13:10:54Z</time>
      </trkpt>
      <trkpt lat="45.49655" lon="5.8938">
        <ele>1474.3</ele>
        <time>2014-04-04T13:10:56Z</time>
      </trkpt>
      <trkpt lat="45.49656" lon="5.8938">
        <ele>1474.2</ele>
        <time>2014-04-04T13:10:58Z</time>
      </trkpt>
      <trkpt lat="45.49657" lon="5.89381">
        <ele>1474.4</ele>
        <time>2014-04-04T13:11:00Z</time>
      </trkpt>
      <trkpt lat="45.49657" lon="5.89381">
        <ele>1474.7</ele>
        <time>2014-04-04T13:11:02Z</time>
      </trkpt>
      <trkpt lat="45.49657" lon="5.89382">
        <ele>1475</ele>
        <time>2014-04-04T13:11:04Z</time>
      </trkpt>
      <trkpt lat="45.49657" lon="5.89383">
        <ele>1475.6</ele>
        <time>2014-04-04T13:11:06Z</time>
      </trkpt>
      <trkpt lat="45.49657" lon="5.89383">
        <ele>1475.6</ele>
        <time>2014-04-04T13:11:08Z</time>
      </trkpt>
      <trkpt lat="45.49657" lon="5.89384">
        <ele>1475.7</ele>
        <time>2014-04-04T13:11:10Z</time>
      </trkpt>
      <trkpt lat="45.49656" lon="5.89384">
        <ele>1476</ele>
        <time>2014-04-04T13:11:12Z</time>
      </trkpt>
      <trkpt lat="45.49656" lon="5.89386">
        <ele>1476.7</ele>
        <time>2014-04-04T13:11:14Z</time>
      </trkpt>
      <trkpt lat="45.49656" lon="5.89386">
        <ele>1477</ele>
        <time>2014-04-04T13:11:16Z</time>
      </trkpt>
      <trkpt lat="45.49655" lon="5.89387">
        <ele>1477.6</ele>
        <time>2014-04-04T13:11:18Z</time>
      </trkpt>
      <trkpt lat="45.49655" lon="5.89388">
        <ele>1477.9</ele>
        <time>2014-04-04T13:11:20Z</time>
      </trkpt>
      <trkpt lat="45.49655" lon="5.89388">
        <ele>1478.1</ele>
        <time>2014-04-04T13:11:22Z</time>
      </trkpt>
      <trkpt lat="45.49655" lon="5.89388">
        <ele>1478</ele>
        <time>2014-04-04T13:11:24Z</time>
      </trkpt>
      <trkpt lat="45.49655" lon="5.89388">
        <ele>1477.7</ele>
        <time>2014-04-04T13:11:26Z</time>
      </trkpt>
      <trkpt lat="45.49655" lon="5.89387">
        <ele>1477.3</ele>
        <time>2014-04-04T13:11:28Z</time>
      </trkpt>
      <trkpt lat="45.49655" lon="5.89387">
        <ele>1477.5</ele>
        <time>2014-04-04T13:11:30Z</time>
      </trkpt>
      <trkpt lat="45.49655" lon="5.89388">
        <ele>1477.7</ele>
        <time>2014-04-04T13:11:34Z</time>
      </trkpt>
      <trkpt lat="45.49655" lon="5.89389">
        <ele>1478.1</ele>
        <time>2014-04-04T13:11:36Z</time>
      </trkpt>
      <trkpt lat="45.49655" lon="5.89389">
        <ele>1478.1</ele>
        <time>2014-04-04T13:11:38Z</time>
      </trkpt>
      <trkpt lat="45.49655" lon="5.89388">
        <ele>1477.8</ele>
        <time>2014-04-04T13:11:40Z</time>
      </trkpt>
      <trkpt lat="45.49656" lon="5.89387">
        <ele>1477.3</ele>
        <time>2014-04-04T13:11:42Z</time>
      </trkpt>
      <trkpt lat="45.49655" lon="5.89389">
        <ele>1478.3</ele>
        <time>2014-04-04T13:11:44Z</time>
      </trkpt>
      <trkpt lat="45.49655" lon="5.89389">
        <ele>1478.3</ele>
        <time>2014-04-04T13:11:46Z</time>
      </trkpt>
      <trkpt lat="45.49656" lon="5.89388">
        <ele>1477.6</ele>
        <time>2014-04-04T13:11:50Z</time>
      </trkpt>
      <trkpt lat="45.49656" lon="5.89387">
        <ele>1477.4</ele>
        <time>2014-04-04T13:11:52Z</time>
      </trkpt>
      <trkpt lat="45.49657" lon="5.89387">
        <ele>1477.2</ele>
        <time>2014-04-04T13:11:54Z</time>
      </trkpt>
      <trkpt lat="45.49658" lon="5.89387">
        <ele>1476.9</ele>
        <time>2014-04-04T13:11:56Z</time>
      </trkpt>
      <trkpt lat="45.49658" lon="5.89386">
        <ele>1476.6</ele>
        <time>2014-04-04T13:11:58Z</time>
      </trkpt>
      <trkpt lat="45.49658" lon="5.89386">
        <ele>1476.6</ele>
        <time>2014-04-04T13:12:00Z</time>
      </trkpt>
      <trkpt lat="45.49658" lon="5.89386">
        <ele>1476.7</ele>
        <time>2014-04-04T13:12:02Z</time>
      </trkpt>
      <trkpt lat="45.49657" lon="5.89387">
        <ele>1477.1</ele>
        <time>2014-04-04T13:12:04Z</time>
      </trkpt>
      <trkpt lat="45.49656" lon="5.89387">
        <ele>1477.4</ele>
        <time>2014-04-04T13:12:06Z</time>
      </trkpt>
      <trkpt lat="45.49656" lon="5.89387">
        <ele>1477.5</ele>
        <time>2014-04-04T13:12:10Z</time>
      </trkpt>
      <trkpt lat="45.49656" lon="5.89388">
        <ele>1477.8</ele>
        <time>2014-04-04T13:12:12Z</time>
      </trkpt>
      <trkpt lat="45.49656" lon="5.89388">
        <ele>1477.6</ele>
        <time>2014-04-04T13:12:14Z</time>
      </trkpt>
      <trkpt lat="45.49656" lon="5.89388">
        <ele>1477.6</ele>
        <time>2014-04-04T13:12:16Z</time>
      </trkpt>
      <trkpt lat="45.49657" lon="5.89387">
        <ele>1477.3</ele>
        <time>2014-04-04T13:12:20Z</time>
      </trkpt>
      <trkpt lat="45.49658" lon="5.89387">
        <ele>1477.2</ele>
        <time>2014-04-04T13:12:22Z</time>
      </trkpt>
      <trkpt lat="45.49657" lon="5.89388">
        <ele>1477.4</ele>
        <time>2014-04-04T13:12:26Z</time>
      </trkpt>
      <trkpt lat="45.49657" lon="5.89388">
        <ele>1477.6</ele>
        <time>2014-04-04T13:12:28Z</time>
      </trkpt>
      <trkpt lat="45.49657" lon="5.89388">
        <ele>1477.7</ele>
        <time>2014-04-04T13:12:30Z</time>
      </trkpt>
      <trkpt lat="45.49657" lon="5.89388">
        <ele>1477.7</ele>
        <time>2014-04-04T13:12:32Z</time>
      </trkpt>
      <trkpt lat="45.49657" lon="5.89388">
        <ele>1477.8</ele>
        <time>2014-04-04T13:12:34Z</time>
      </trkpt>
      <trkpt lat="45.49657" lon="5.89389">
        <ele>1477.9</ele>
        <time>2014-04-04T13:12:36Z</time>
      </trkpt>
      <trkpt lat="45.49657" lon="5.89388">
        <ele>1477.8</ele>
        <time>2014-04-04T13:12:40Z</time>
      </trkpt>
      <trkpt lat="45.49658" lon="5.89388">
        <ele>1477.6</ele>
        <time>2014-04-04T13:12:42Z</time>
      </trkpt>
      <trkpt lat="45.49658" lon="5.89388">
        <ele>1477.4</ele>
        <time>2014-04-04T13:12:44Z</time>
      </trkpt>
      <trkpt lat="45.49658" lon="5.89388">
        <ele>1477.4</ele>
        <time>2014-04-04T13:12:46Z</time>
      </trkpt>
      <trkpt lat="45.49658" lon="5.89387">
        <ele>1477.2</ele>
        <time>2014-04-04T13:12:48Z</time>
      </trkpt>
      <trkpt lat="45.49658" lon="5.89387">
        <ele>1477.3</ele>
        <time>2014-04-04T13:12:50Z</time>
      </trkpt>
      <trkpt lat="45.49658" lon="5.89388">
        <ele>1477.4</ele>
        <time>2014-04-04T13:12:52Z</time>
      </trkpt>
      <trkpt lat="45.49658" lon="5.89387">
        <ele>1477.3</ele>
        <time>2014-04-04T13:12:56Z</time>
      </trkpt>
      <trkpt lat="45.49658" lon="5.89387">
        <ele>1477</ele>
        <time>2014-04-04T13:13:02Z</time>
      </trkpt>
      <trkpt lat="45.49658" lon="5.89386">
        <ele>1476.8</ele>
        <time>2014-04-04T13:13:04Z</time>
      </trkpt>
      <trkpt lat="45.49658" lon="5.89386">
        <ele>1476.7</ele>
        <time>2014-04-04T13:13:06Z</time>
      </trkpt>
      <trkpt lat="45.49658" lon="5.89386">
        <ele>1476.8</ele>
        <time>2014-04-04T13:13:10Z</time>
      </trkpt>
      <trkpt lat="45.49657" lon="5.89387">
        <ele>1477.1</ele>
        <time>2014-04-04T13:13:12Z</time>
      </trkpt>
      <trkpt lat="45.49657" lon="5.89387">
        <ele>1477.3</ele>
        <time>2014-04-04T13:13:14Z</time>
      </trkpt>
      <trkpt lat="45.49657" lon="5.89387">
        <ele>1477.4</ele>
        <time>2014-04-04T13:13:16Z</time>
      </trkpt>
      <trkpt lat="45.49656" lon="5.89388">
        <ele>1477.7</ele>
        <time>2014-04-04T13:13:20Z</time>
      </trkpt>
      <trkpt lat="45.49656" lon="5.89389">
        <ele>1478.2</ele>
        <time>2014-04-04T13:13:22Z</time>
      </trkpt>
      <trkpt lat="45.49656" lon="5.89389">
        <ele>1478.2</ele>
        <time>2014-04-04T13:13:24Z</time>
      </trkpt>
      <trkpt lat="45.49656" lon="5.89389">
        <ele>1478.2</ele>
        <time>2014-04-04T13:13:26Z</time>
      </trkpt>
      <trkpt lat="45.49656" lon="5.89389">
        <ele>1478.2</ele>
        <time>2014-04-04T13:13:28Z</time>
      </trkpt>
      <trkpt lat="45.49656" lon="5.89389">
        <ele>1478.2</ele>
        <time>2014-04-04T13:13:30Z</time>
      </trkpt>
      <trkpt lat="45.49656" lon="5.89389">
        <ele>1478.1</ele>
        <time>2014-04-04T13:13:32Z</time>
      </trkpt>
      <trkpt lat="45.49656" lon="5.89388">
        <ele>1477.8</ele>
        <time>2014-04-04T13:13:34Z</time>
      </trkpt>
      <trkpt lat="45.49657" lon="5.89388">
        <ele>1477.5</ele>
        <time>2014-04-04T13:13:36Z</time>
      </trkpt>
      <trkpt lat="45.49658" lon="5.89387">
        <ele>1477.1</ele>
        <time>2014-04-04T13:13:40Z</time>
      </trkpt>
      <trkpt lat="45.49657" lon="5.89388">
        <ele>1477.5</ele>
        <time>2014-04-04T13:13:42Z</time>
      </trkpt>
      <trkpt lat="45.49659" lon="5.89389">
        <ele>1477.6</ele>
        <time>2014-04-04T13:13:44Z</time>
      </trkpt>
      <trkpt lat="45.4966" lon="5.89389">
        <ele>1477.7</ele>
        <time>2014-04-04T13:13:46Z</time>
      </trkpt>
      <trkpt lat="45.49661" lon="5.89391">
        <ele>1477.7</ele>
        <time>2014-04-04T13:13:48Z</time>
      </trkpt>
      <trkpt lat="45.4966" lon="5.89392">
        <ele>1477.9</ele>
        <time>2014-04-04T13:13:50Z</time>
      </trkpt>
      <trkpt lat="45.49659" lon="5.89392">
        <ele>1478</ele>
        <time>2014-04-04T13:13:52Z</time>
      </trkpt>
      <trkpt lat="45.49659" lon="5.89393">
        <ele>1478</ele>
        <time>2014-04-04T13:13:54Z</time>
      </trkpt>
      <trkpt lat="45.49658" lon="5.89394">
        <ele>1478.1</ele>
        <time>2014-04-04T13:13:56Z</time>
      </trkpt>
      <trkpt lat="45.49658" lon="5.89394">
        <ele>1478.1</ele>
        <time>2014-04-04T13:13:58Z</time>
      </trkpt>
      <trkpt lat="45.49658" lon="5.89394">
        <ele>1478.1</ele>
        <time>2014-04-04T13:14:00Z</time>
      </trkpt>
      <trkpt lat="45.49658" lon="5.89394">
        <ele>1478.1</ele>
        <time>2014-04-04T13:14:02Z</time>
      </trkpt>
      <trkpt lat="45.49657" lon="5.89394">
        <ele>1478.2</ele>
        <time>2014-04-04T13:14:04Z</time>
      </trkpt>
      <trkpt lat="45.49658" lon="5.89395">
        <ele>1478.2</ele>
        <time>2014-04-04T13:14:06Z</time>
      </trkpt>
      <trkpt lat="45.49659" lon="5.89396">
        <ele>1478.1</ele>
        <time>2014-04-04T13:14:10Z</time>
      </trkpt>
      <trkpt lat="45.4966" lon="5.89397">
        <ele>1478.1</ele>
        <time>2014-04-04T13:14:12Z</time>
      </trkpt>
      <trkpt lat="45.4966" lon="5.89398">
        <ele>1478.1</ele>
        <time>2014-04-04T13:14:14Z</time>
      </trkpt>
      <trkpt lat="45.49659" lon="5.89397">
        <ele>1478.2</ele>
        <time>2014-04-04T13:14:18Z</time>
      </trkpt>
      <trkpt lat="45.49658" lon="5.89398">
        <ele>1478.2</ele>
        <time>2014-04-04T13:14:20Z</time>
      </trkpt>
      <trkpt lat="45.49658" lon="5.89398">
        <ele>1478.3</ele>
        <time>2014-04-04T13:14:22Z</time>
      </trkpt>
      <trkpt lat="45.49656" lon="5.89399">
        <ele>1478.5</ele>
        <time>2014-04-04T13:14:24Z</time>
      </trkpt>
      <trkpt lat="45.49654" lon="5.89397">
        <ele>1478.5</ele>
        <time>2014-04-04T13:14:26Z</time>
      </trkpt>
      <trkpt lat="45.49654" lon="5.89394">
        <ele>1478.5</ele>
        <time>2014-04-04T13:14:28Z</time>
      </trkpt>
      <trkpt lat="45.49654" lon="5.89394">
        <ele>1478.5</ele>
        <time>2014-04-04T13:14:30Z</time>
      </trkpt>
      <trkpt lat="45.49653" lon="5.89394">
        <ele>1478.6</ele>
        <time>2014-04-04T13:14:32Z</time>
      </trkpt>
      <trkpt lat="45.49653" lon="5.89394">
        <ele>1478.6</ele>
        <time>2014-04-04T13:14:34Z</time>
      </trkpt>
      <trkpt lat="45.49653" lon="5.89393">
        <ele>1478.6</ele>
        <time>2014-04-04T13:14:36Z</time>
      </trkpt>
      <trkpt lat="45.49652" lon="5.89393">
        <ele>1478.6</ele>
        <time>2014-04-04T13:14:38Z</time>
      </trkpt>
      <trkpt lat="45.49652" lon="5.89392">
        <ele>1478.6</ele>
        <time>2014-04-04T13:14:40Z</time>
      </trkpt>
      <trkpt lat="45.49652" lon="5.89392">
        <ele>1478.6</ele>
        <time>2014-04-04T13:14:42Z</time>
      </trkpt>
      <trkpt lat="45.49652" lon="5.89392">
        <ele>1478.6</ele>
        <time>2014-04-04T13:14:44Z</time>
      </trkpt>
      <trkpt lat="45.49652" lon="5.89392">
        <ele>1478.7</ele>
        <time>2014-04-04T13:14:46Z</time>
      </trkpt>
      <trkpt lat="45.49652" lon="5.89393">
        <ele>1478.6</ele>
        <time>2014-04-04T13:14:48Z</time>
      </trkpt>
      <trkpt lat="45.49653" lon="5.89392">
        <ele>1478.6</ele>
        <time>2014-04-04T13:14:50Z</time>
      </trkpt>
      <trkpt lat="45.49653" lon="5.89392">
        <ele>1478.5</ele>
        <time>2014-04-04T13:14:52Z</time>
      </trkpt>
      <trkpt lat="45.49653" lon="5.89391">
        <ele>1478.5</ele>
        <time>2014-04-04T13:14:54Z</time>
      </trkpt>
      <trkpt lat="45.49652" lon="5.89392">
        <ele>1478.6</ele>
        <time>2014-04-04T13:14:56Z</time>
      </trkpt>
      <trkpt lat="45.49654" lon="5.89395">
        <ele>1478.5</ele>
        <time>2014-04-04T13:14:58Z</time>
      </trkpt>
      <trkpt lat="45.49654" lon="5.89395">
        <ele>1478.5</ele>
        <time>2014-04-04T13:15:00Z</time>
      </trkpt>
      <trkpt lat="45.49656" lon="5.89396">
        <ele>1478.4</ele>
        <time>2014-04-04T13:15:02Z</time>
      </trkpt>
      <trkpt lat="45.49656" lon="5.89397">
        <ele>1478.4</ele>
        <time>2014-04-04T13:15:04Z</time>
      </trkpt>
      <trkpt lat="45.49656" lon="5.89396">
        <ele>1478.4</ele>
        <time>2014-04-04T13:15:06Z</time>
      </trkpt>
      <trkpt lat="45.49656" lon="5.89396">
        <ele>1478.4</ele>
        <time>2014-04-04T13:15:08Z</time>
      </trkpt>
      <trkpt lat="45.49657" lon="5.89396">
        <ele>1478.3</ele>
        <time>2014-04-04T13:15:10Z</time>
      </trkpt>
      <trkpt lat="45.49658" lon="5.89397">
        <ele>1478.3</ele>
        <time>2014-04-04T13:15:12Z</time>
      </trkpt>
      <trkpt lat="45.49658" lon="5.89397">
        <ele>1478.2</ele>
        <time>2014-04-04T13:15:14Z</time>
      </trkpt>
      <trkpt lat="45.49658" lon="5.89397">
        <ele>1478.2</ele>
        <time>2014-04-04T13:15:16Z</time>
      </trkpt>
      <trkpt lat="45.49659" lon="5.89397">
        <ele>1478.2</ele>
        <time>2014-04-04T13:15:18Z</time>
      </trkpt>
      <trkpt lat="45.49659" lon="5.89397">
        <ele>1478.2</ele>
        <time>2014-04-04T13:15:20Z</time>
      </trkpt>
      <trkpt lat="45.49659" lon="5.89398">
        <ele>1478.2</ele>
        <time>2014-04-04T13:15:22Z</time>
      </trkpt>
      <trkpt lat="45.49658" lon="5.89399">
        <ele>1478.3</ele>
        <time>2014-04-04T13:15:24Z</time>
      </trkpt>
      <trkpt lat="45.49658" lon="5.89399">
        <ele>1478.3</ele>
        <time>2014-04-04T13:15:26Z</time>
      </trkpt>
      <trkpt lat="45.49657" lon="5.894">
        <ele>1478.4</ele>
        <time>2014-04-04T13:15:28Z</time>
      </trkpt>
      <trkpt lat="45.49656" lon="5.894">
        <ele>1478.5</ele>
        <time>2014-04-04T13:15:30Z</time>
      </trkpt>
      <trkpt lat="45.49654" lon="5.89401">
        <ele>1478.7</ele>
        <time>2014-04-04T13:15:32Z</time>
      </trkpt>
      <trkpt lat="45.49652" lon="5.89404">
        <ele>1478.8</ele>
        <time>2014-04-04T13:15:34Z</time>
      </trkpt>
      <trkpt lat="45.49651" lon="5.89405">
        <ele>1478.9</ele>
        <time>2014-04-04T13:15:36Z</time>
      </trkpt>
      <trkpt lat="45.49651" lon="5.89406">
        <ele>1478.9</ele>
        <time>2014-04-04T13:15:38Z</time>
      </trkpt>
      <trkpt lat="45.49649" lon="5.89408">
        <ele>1479</ele>
        <time>2014-04-04T13:15:40Z</time>
      </trkpt>
      <trkpt lat="45.49645" lon="5.89412">
        <ele>1479.1</ele>
        <time>2014-04-04T13:15:42Z</time>
      </trkpt>
      <trkpt lat="45.49645" lon="5.89414">
        <ele>1479</ele>
        <time>2014-04-04T13:15:44Z</time>
      </trkpt>
      <trkpt lat="45.49643" lon="5.89417">
        <ele>1478.9</ele>
        <time>2014-04-04T13:15:46Z</time>
      </trkpt>
      <trkpt lat="45.49641" lon="5.89421">
        <ele>1478.2</ele>
        <time>2014-04-04T13:15:48Z</time>
      </trkpt>
      <trkpt lat="45.49639" lon="5.89425">
        <ele>1477.6</ele>
        <time>2014-04-04T13:15:50Z</time>
      </trkpt>
      <trkpt lat="45.49638" lon="5.89426">
        <ele>1476.9</ele>
        <time>2014-04-04T13:15:52Z</time>
      </trkpt>
      <trkpt lat="45.49635" lon="5.8943">
        <ele>1475.8</ele>
        <time>2014-04-04T13:15:54Z</time>
      </trkpt>
      <trkpt lat="45.49634" lon="5.89434">
        <ele>1475</ele>
        <time>2014-04-04T13:15:56Z</time>
      </trkpt>
      <trkpt lat="45.49632" lon="5.89441">
        <ele>1473.6</ele>
        <time>2014-04-04T13:15:58Z</time>
      </trkpt>
      <trkpt lat="45.49631" lon="5.89444">
        <ele>1473.3</ele>
        <time>2014-04-04T13:16:00Z</time>
      </trkpt>
      <trkpt lat="45.4963" lon="5.89447">
        <ele>1472.5</ele>
        <time>2014-04-04T13:16:02Z</time>
      </trkpt>
      <trkpt lat="45.49628" lon="5.89453">
        <ele>1471.1</ele>
        <time>2014-04-04T13:16:04Z</time>
      </trkpt>
      <trkpt lat="45.49625" lon="5.89455">
        <ele>1470.6</ele>
        <time>2014-04-04T13:16:06Z</time>
      </trkpt>
      <trkpt lat="45.49624" lon="5.89458">
        <ele>1470</ele>
        <time>2014-04-04T13:16:08Z</time>
      </trkpt>
      <trkpt lat="45.49623" lon="5.89462">
        <ele>1469.2</ele>
        <time>2014-04-04T13:16:10Z</time>
      </trkpt>
      <trkpt lat="45.49621" lon="5.89468">
        <ele>1468.2</ele>
        <time>2014-04-04T13:16:12Z</time>
      </trkpt>
      <trkpt lat="45.4962" lon="5.8947">
        <ele>1467.7</ele>
        <time>2014-04-04T13:16:14Z</time>
      </trkpt>
      <trkpt lat="45.49618" lon="5.89474">
        <ele>1467</ele>
        <time>2014-04-04T13:16:16Z</time>
      </trkpt>
      <trkpt lat="45.49618" lon="5.89477">
        <ele>1466.3</ele>
        <time>2014-04-04T13:16:18Z</time>
      </trkpt>
      <trkpt lat="45.49618" lon="5.89482">
        <ele>1465.3</ele>
        <time>2014-04-04T13:16:20Z</time>
      </trkpt>
      <trkpt lat="45.49617" lon="5.89482">
        <ele>1465.2</ele>
        <time>2014-04-04T13:16:22Z</time>
      </trkpt>
      <trkpt lat="45.49616" lon="5.89485">
        <ele>1464.7</ele>
        <time>2014-04-04T13:16:24Z</time>
      </trkpt>
      <trkpt lat="45.49615" lon="5.89491">
        <ele>1463.6</ele>
        <time>2014-04-04T13:16:26Z</time>
      </trkpt>
      <trkpt lat="45.49616" lon="5.89496">
        <ele>1462.6</ele>
        <time>2014-04-04T13:16:28Z</time>
      </trkpt>
      <trkpt lat="45.49616" lon="5.89498">
        <ele>1462.2</ele>
        <time>2014-04-04T13:16:30Z</time>
      </trkpt>
      <trkpt lat="45.49616" lon="5.89504">
        <ele>1461.2</ele>
        <time>2014-04-04T13:16:32Z</time>
      </trkpt>
      <trkpt lat="45.49618" lon="5.8951">
        <ele>1460.3</ele>
        <time>2014-04-04T13:16:34Z</time>
      </trkpt>
      <trkpt lat="45.49616" lon="5.89513">
        <ele>1460</ele>
        <time>2014-04-04T13:16:36Z</time>
      </trkpt>
      <trkpt lat="45.49615" lon="5.89515">
        <ele>1459.7</ele>
        <time>2014-04-04T13:16:38Z</time>
      </trkpt>
      <trkpt lat="45.49615" lon="5.89521">
        <ele>1458.8</ele>
        <time>2014-04-04T13:16:40Z</time>
      </trkpt>
      <trkpt lat="45.49613" lon="5.89526">
        <ele>1458.2</ele>
        <time>2014-04-04T13:16:42Z</time>
      </trkpt>
      <trkpt lat="45.49611" lon="5.89528">
        <ele>1457.9</ele>
        <time>2014-04-04T13:16:44Z</time>
      </trkpt>
      <trkpt lat="45.49609" lon="5.89532">
        <ele>1457</ele>
        <time>2014-04-04T13:16:46Z</time>
      </trkpt>
      <trkpt lat="45.49608" lon="5.89536">
        <ele>1456.3</ele>
        <time>2014-04-04T13:16:48Z</time>
      </trkpt>
      <trkpt lat="45.49605" lon="5.89544">
        <ele>1455</ele>
        <time>2014-04-04T13:16:50Z</time>
      </trkpt>
      <trkpt lat="45.49604" lon="5.89546">
        <ele>1454.7</ele>
        <time>2014-04-04T13:16:52Z</time>
      </trkpt>
      <trkpt lat="45.49603" lon="5.8955">
        <ele>1453.9</ele>
        <time>2014-04-04T13:16:54Z</time>
      </trkpt>
      <trkpt lat="45.49601" lon="5.89559">
        <ele>1452.4</ele>
        <time>2014-04-04T13:16:56Z</time>
      </trkpt>
      <trkpt lat="45.49598" lon="5.89565">
        <ele>1451</ele>
        <time>2014-04-04T13:16:58Z</time>
      </trkpt>
      <trkpt lat="45.49598" lon="5.89567">
        <ele>1450.6</ele>
        <time>2014-04-04T13:17:00Z</time>
      </trkpt>
      <trkpt lat="45.49598" lon="5.8957">
        <ele>1450</ele>
        <time>2014-04-04T13:17:02Z</time>
      </trkpt>
      <trkpt lat="45.49599" lon="5.89575">
        <ele>1449.2</ele>
        <time>2014-04-04T13:17:04Z</time>
      </trkpt>
      <trkpt lat="45.49599" lon="5.89579">
        <ele>1448.5</ele>
        <time>2014-04-04T13:17:06Z</time>
      </trkpt>
      <trkpt lat="45.496" lon="5.8958">
        <ele>1448.3</ele>
        <time>2014-04-04T13:17:08Z</time>
      </trkpt>
      <trkpt lat="45.496" lon="5.89581">
        <ele>1448.1</ele>
        <time>2014-04-04T13:17:10Z</time>
      </trkpt>
      <trkpt lat="45.49599" lon="5.8958">
        <ele>1448.2</ele>
        <time>2014-04-04T13:17:12Z</time>
      </trkpt>
      <trkpt lat="45.49599" lon="5.8958">
        <ele>1448.2</ele>
        <time>2014-04-04T13:17:14Z</time>
      </trkpt>
      <trkpt lat="45.49599" lon="5.8958">
        <ele>1448.3</ele>
        <time>2014-04-04T13:17:16Z</time>
      </trkpt>
      <trkpt lat="45.49599" lon="5.89581">
        <ele>1448</ele>
        <time>2014-04-04T13:17:18Z</time>
      </trkpt>
      <trkpt lat="45.49599" lon="5.89582">
        <ele>1447.9</ele>
        <time>2014-04-04T13:17:20Z</time>
      </trkpt>
      <trkpt lat="45.496" lon="5.89582">
        <ele>1447.9</ele>
        <time>2014-04-04T13:17:22Z</time>
      </trkpt>
      <trkpt lat="45.49602" lon="5.89582">
        <ele>1447.9</ele>
        <time>2014-04-04T13:17:24Z</time>
      </trkpt>
      <trkpt lat="45.49606" lon="5.89583">
        <ele>1447.9</ele>
        <time>2014-04-04T13:17:26Z</time>
      </trkpt>
      <trkpt lat="45.49609" lon="5.89585">
        <ele>1447.6</ele>
        <time>2014-04-04T13:17:28Z</time>
      </trkpt>
      <trkpt lat="45.49611" lon="5.89585">
        <ele>1447.5</ele>
        <time>2014-04-04T13:17:30Z</time>
      </trkpt>
      <trkpt lat="45.49613" lon="5.89587">
        <ele>1447.1</ele>
        <time>2014-04-04T13:17:32Z</time>
      </trkpt>
      <trkpt lat="45.49613" lon="5.89586">
        <ele>1447.3</ele>
        <time>2014-04-04T13:17:34Z</time>
      </trkpt>
      <trkpt lat="45.49612" lon="5.89586">
        <ele>1447.4</ele>
        <time>2014-04-04T13:17:36Z</time>
      </trkpt>
      <trkpt lat="45.49613" lon="5.89585">
        <ele>1447.5</ele>
        <time>2014-04-04T13:17:38Z</time>
      </trkpt>
      <trkpt lat="45.49609" lon="5.89588">
        <ele>1446.8</ele>
        <time>2014-04-04T13:17:40Z</time>
      </trkpt>
      <trkpt lat="45.49607" lon="5.89588">
        <ele>1446.7</ele>
        <time>2014-04-04T13:17:42Z</time>
      </trkpt>
      <trkpt lat="45.49605" lon="5.89589">
        <ele>1446.6</ele>
        <time>2014-04-04T13:17:44Z</time>
      </trkpt>
      <trkpt lat="45.49603" lon="5.89591">
        <ele>1446</ele>
        <time>2014-04-04T13:17:46Z</time>
      </trkpt>
      <trkpt lat="45.49597" lon="5.89594">
        <ele>1445.5</ele>
        <time>2014-04-04T13:17:48Z</time>
      </trkpt>
      <trkpt lat="45.49593" lon="5.89596">
        <ele>1445.1</ele>
        <time>2014-04-04T13:17:50Z</time>
      </trkpt>
      <trkpt lat="45.49591" lon="5.89597">
        <ele>1444.9</ele>
        <time>2014-04-04T13:17:52Z</time>
      </trkpt>
      <trkpt lat="45.49587" lon="5.896">
        <ele>1444.4</ele>
        <time>2014-04-04T13:17:54Z</time>
      </trkpt>
      <trkpt lat="45.49582" lon="5.89605">
        <ele>1443.8</ele>
        <time>2014-04-04T13:17:56Z</time>
      </trkpt>
      <trkpt lat="45.49579" lon="5.89608">
        <ele>1442.7</ele>
        <time>2014-04-04T13:17:58Z</time>
      </trkpt>
      <trkpt lat="45.49577" lon="5.89609">
        <ele>1442.3</ele>
        <time>2014-04-04T13:18:00Z</time>
      </trkpt>
      <trkpt lat="45.49571" lon="5.89608">
        <ele>1441.4</ele>
        <time>2014-04-04T13:18:02Z</time>
      </trkpt>
      <trkpt lat="45.49564" lon="5.89606">
        <ele>1440.5</ele>
        <time>2014-04-04T13:18:04Z</time>
      </trkpt>
      <trkpt lat="45.49563" lon="5.89606">
        <ele>1440.4</ele>
        <time>2014-04-04T13:18:06Z</time>
      </trkpt>
      <trkpt lat="45.4956" lon="5.89605">
        <ele>1440</ele>
        <time>2014-04-04T13:18:08Z</time>
      </trkpt>
      <trkpt lat="45.4956" lon="5.89604">
        <ele>1440</ele>
        <time>2014-04-04T13:18:10Z</time>
      </trkpt>
      <trkpt lat="45.49562" lon="5.89606">
        <ele>1440.2</ele>
        <time>2014-04-04T13:18:12Z</time>
      </trkpt>
      <trkpt lat="45.49561" lon="5.89606">
        <ele>1440.1</ele>
        <time>2014-04-04T13:18:14Z</time>
      </trkpt>
      <trkpt lat="45.4956" lon="5.89609">
        <ele>1439.8</ele>
        <time>2014-04-04T13:18:16Z</time>
      </trkpt>
      <trkpt lat="45.49561" lon="5.8961">
        <ele>1439.8</ele>
        <time>2014-04-04T13:18:18Z</time>
      </trkpt>
      <trkpt lat="45.49561" lon="5.8961">
        <ele>1439.8</ele>
        <time>2014-04-04T13:18:20Z</time>
      </trkpt>
      <trkpt lat="45.49561" lon="5.89611">
        <ele>1439.7</ele>
        <time>2014-04-04T13:18:22Z</time>
      </trkpt>
      <trkpt lat="45.49562" lon="5.89611">
        <ele>1439.9</ele>
        <time>2014-04-04T13:18:24Z</time>
      </trkpt>
      <trkpt lat="45.49562" lon="5.89611">
        <ele>1440</ele>
        <time>2014-04-04T13:18:26Z</time>
      </trkpt>
      <trkpt lat="45.49563" lon="5.89611">
        <ele>1440.1</ele>
        <time>2014-04-04T13:18:28Z</time>
      </trkpt>
      <trkpt lat="45.49563" lon="5.89612">
        <ele>1440</ele>
        <time>2014-04-04T13:18:30Z</time>
      </trkpt>
      <trkpt lat="45.49563" lon="5.89613">
        <ele>1439.9</ele>
        <time>2014-04-04T13:18:32Z</time>
      </trkpt>
      <trkpt lat="45.49568" lon="5.89613">
        <ele>1440.5</ele>
        <time>2014-04-04T13:18:34Z</time>
      </trkpt>
      <trkpt lat="45.49569" lon="5.89614">
        <ele>1440.5</ele>
        <time>2014-04-04T13:18:36Z</time>
      </trkpt>
      <trkpt lat="45.49567" lon="5.89614">
        <ele>1440.1</ele>
        <time>2014-04-04T13:18:38Z</time>
      </trkpt>
      <trkpt lat="45.49563" lon="5.89615">
        <ele>1439.5</ele>
        <time>2014-04-04T13:18:40Z</time>
      </trkpt>
      <trkpt lat="45.49559" lon="5.89617">
        <ele>1438.9</ele>
        <time>2014-04-04T13:18:42Z</time>
      </trkpt>
      <trkpt lat="45.49559" lon="5.89619">
        <ele>1438.7</ele>
        <time>2014-04-04T13:18:44Z</time>
      </trkpt>
      <trkpt lat="45.49558" lon="5.89621">
        <ele>1438.4</ele>
        <time>2014-04-04T13:18:46Z</time>
      </trkpt>
      <trkpt lat="45.49559" lon="5.89624">
        <ele>1438.1</ele>
        <time>2014-04-04T13:18:48Z</time>
      </trkpt>
      <trkpt lat="45.49559" lon="5.89626">
        <ele>1437.9</ele>
        <time>2014-04-04T13:18:50Z</time>
      </trkpt>
      <trkpt lat="45.49559" lon="5.89627">
        <ele>1437.9</ele>
        <time>2014-04-04T13:18:52Z</time>
      </trkpt>
      <trkpt lat="45.49562" lon="5.89627">
        <ele>1437.9</ele>
        <time>2014-04-04T13:18:54Z</time>
      </trkpt>
      <trkpt lat="45.49568" lon="5.89629">
        <ele>1437.5</ele>
        <time>2014-04-04T13:18:56Z</time>
      </trkpt>
      <trkpt lat="45.49569" lon="5.89629">
        <ele>1437.4</ele>
        <time>2014-04-04T13:18:58Z</time>
      </trkpt>
      <trkpt lat="45.49572" lon="5.8963">
        <ele>1437.2</ele>
        <time>2014-04-04T13:19:00Z</time>
      </trkpt>
      <trkpt lat="45.49572" lon="5.8963">
        <ele>1437.3</ele>
        <time>2014-04-04T13:19:02Z</time>
      </trkpt>
      <trkpt lat="45.49577" lon="5.89631">
        <ele>1436.9</ele>
        <time>2014-04-04T13:19:06Z</time>
      </trkpt>
      <trkpt lat="45.49581" lon="5.8963">
        <ele>1436.9</ele>
        <time>2014-04-04T13:19:08Z</time>
      </trkpt>
      <trkpt lat="45.49584" lon="5.89629">
        <ele>1437.3</ele>
        <time>2014-04-04T13:19:10Z</time>
      </trkpt>
      <trkpt lat="45.49589" lon="5.89629">
        <ele>1436.7</ele>
        <time>2014-04-04T13:19:12Z</time>
      </trkpt>
      <trkpt lat="45.4959" lon="5.89629">
        <ele>1436.6</ele>
        <time>2014-04-04T13:19:14Z</time>
      </trkpt>
      <trkpt lat="45.49594" lon="5.89628">
        <ele>1436.7</ele>
        <time>2014-04-04T13:19:16Z</time>
      </trkpt>
      <trkpt lat="45.49598" lon="5.8963">
        <ele>1435.6</ele>
        <time>2014-04-04T13:19:18Z</time>
      </trkpt>
      <trkpt lat="45.49601" lon="5.89631">
        <ele>1434.7</ele>
        <time>2014-04-04T13:19:20Z</time>
      </trkpt>
      <trkpt lat="45.49603" lon="5.89633">
        <ele>1434.1</ele>
        <time>2014-04-04T13:19:22Z</time>
      </trkpt>
      <trkpt lat="45.49604" lon="5.89634">
        <ele>1433.5</ele>
        <time>2014-04-04T13:19:24Z</time>
      </trkpt>
      <trkpt lat="45.49609" lon="5.89638">
        <ele>1431.6</ele>
        <time>2014-04-04T13:19:26Z</time>
      </trkpt>
      <trkpt lat="45.4961" lon="5.89639">
        <ele>1431</ele>
        <time>2014-04-04T13:19:28Z</time>
      </trkpt>
      <trkpt lat="45.49613" lon="5.8964">
        <ele>1430.7</ele>
        <time>2014-04-04T13:19:30Z</time>
      </trkpt>
      <trkpt lat="45.49617" lon="5.89642">
        <ele>1429.6</ele>
        <time>2014-04-04T13:19:32Z</time>
      </trkpt>
      <trkpt lat="45.49619" lon="5.89644">
        <ele>1428.9</ele>
        <time>2014-04-04T13:19:34Z</time>
      </trkpt>
      <trkpt lat="45.4962" lon="5.89645">
        <ele>1428.7</ele>
        <time>2014-04-04T13:19:36Z</time>
      </trkpt>
      <trkpt lat="45.49623" lon="5.89648">
        <ele>1427.8</ele>
        <time>2014-04-04T13:19:38Z</time>
      </trkpt>
      <trkpt lat="45.49627" lon="5.89651">
        <ele>1426.8</ele>
        <time>2014-04-04T13:19:40Z</time>
      </trkpt>
      <trkpt lat="45.49635" lon="5.89656">
        <ele>1424.9</ele>
        <time>2014-04-04T13:19:42Z</time>
      </trkpt>
      <trkpt lat="45.49636" lon="5.89657">
        <ele>1424.5</ele>
        <time>2014-04-04T13:19:44Z</time>
      </trkpt>
      <trkpt lat="45.49638" lon="5.89659">
        <ele>1423.9</ele>
        <time>2014-04-04T13:19:46Z</time>
      </trkpt>
      <trkpt lat="45.49639" lon="5.89665">
        <ele>1422.6</ele>
        <time>2014-04-04T13:19:48Z</time>
      </trkpt>
      <trkpt lat="45.49637" lon="5.89667">
        <ele>1422</ele>
        <time>2014-04-04T13:19:50Z</time>
      </trkpt>
      <trkpt lat="45.49638" lon="5.89668">
        <ele>1421.7</ele>
        <time>2014-04-04T13:19:52Z</time>
      </trkpt>
      <trkpt lat="45.4964" lon="5.8967">
        <ele>1421.2</ele>
        <time>2014-04-04T13:19:54Z</time>
      </trkpt>
      <trkpt lat="45.49642" lon="5.89671">
        <ele>1420.8</ele>
        <time>2014-04-04T13:19:56Z</time>
      </trkpt>
      <trkpt lat="45.49643" lon="5.89672">
        <ele>1420.6</ele>
        <time>2014-04-04T13:19:58Z</time>
      </trkpt>
      <trkpt lat="45.49645" lon="5.89674">
        <ele>1420.3</ele>
        <time>2014-04-04T13:20:00Z</time>
      </trkpt>
      <trkpt lat="45.49648" lon="5.89674">
        <ele>1420.2</ele>
        <time>2014-04-04T13:20:02Z</time>
      </trkpt>
      <trkpt lat="45.49651" lon="5.89675">
        <ele>1420.2</ele>
        <time>2014-04-04T13:20:04Z</time>
      </trkpt>
      <trkpt lat="45.49653" lon="5.89677">
        <ele>1419.8</ele>
        <time>2014-04-04T13:20:06Z</time>
      </trkpt>
      <trkpt lat="45.49655" lon="5.89679">
        <ele>1419.4</ele>
        <time>2014-04-04T13:20:08Z</time>
      </trkpt>
      <trkpt lat="45.4966" lon="5.89686">
        <ele>1417.9</ele>
        <time>2014-04-04T13:20:10Z</time>
      </trkpt>
      <trkpt lat="45.49663" lon="5.89689">
        <ele>1417</ele>
        <time>2014-04-04T13:20:12Z</time>
      </trkpt>
      <trkpt lat="45.49665" lon="5.89691">
        <ele>1416.8</ele>
        <time>2014-04-04T13:20:14Z</time>
      </trkpt>
      <trkpt lat="45.49669" lon="5.89695">
        <ele>1415.8</ele>
        <time>2014-04-04T13:20:16Z</time>
      </trkpt>
      <trkpt lat="45.49671" lon="5.89701">
        <ele>1414.1</ele>
        <time>2014-04-04T13:20:18Z</time>
      </trkpt>
      <trkpt lat="45.49671" lon="5.89703">
        <ele>1413.7</ele>
        <time>2014-04-04T13:20:20Z</time>
      </trkpt>
      <trkpt lat="45.49673" lon="5.89705">
        <ele>1413.2</ele>
        <time>2014-04-04T13:20:22Z</time>
      </trkpt>
      <trkpt lat="45.49675" lon="5.8971">
        <ele>1412</ele>
        <time>2014-04-04T13:20:24Z</time>
      </trkpt>
      <trkpt lat="45.49676" lon="5.89713">
        <ele>1411.2</ele>
        <time>2014-04-04T13:20:26Z</time>
      </trkpt>
      <trkpt lat="45.49678" lon="5.89715">
        <ele>1410.6</ele>
        <time>2014-04-04T13:20:28Z</time>
      </trkpt>
      <trkpt lat="45.49679" lon="5.8972">
        <ele>1409.4</ele>
        <time>2014-04-04T13:20:30Z</time>
      </trkpt>
      <trkpt lat="45.49682" lon="5.89728">
        <ele>1407.7</ele>
        <time>2014-04-04T13:20:32Z</time>
      </trkpt>
      <trkpt lat="45.49682" lon="5.89729">
        <ele>1407.4</ele>
        <time>2014-04-04T13:20:34Z</time>
      </trkpt>
      <trkpt lat="45.49682" lon="5.8973">
        <ele>1407.2</ele>
        <time>2014-04-04T13:20:36Z</time>
      </trkpt>
      <trkpt lat="45.49684" lon="5.89733">
        <ele>1406.5</ele>
        <time>2014-04-04T13:20:38Z</time>
      </trkpt>
      <trkpt lat="45.49687" lon="5.89739">
        <ele>1405.1</ele>
        <time>2014-04-04T13:20:40Z</time>
      </trkpt>
      <trkpt lat="45.49689" lon="5.89744">
        <ele>1404.1</ele>
        <time>2014-04-04T13:20:42Z</time>
      </trkpt>
      <trkpt lat="45.4969" lon="5.89745">
        <ele>1404</ele>
        <time>2014-04-04T13:20:44Z</time>
      </trkpt>
      <trkpt lat="45.49692" lon="5.89748">
        <ele>1403.5</ele>
        <time>2014-04-04T13:20:46Z</time>
      </trkpt>
      <trkpt lat="45.49695" lon="5.89754">
        <ele>1402.2</ele>
        <time>2014-04-04T13:20:48Z</time>
      </trkpt>
      <trkpt lat="45.49696" lon="5.89756">
        <ele>1401.8</ele>
        <time>2014-04-04T13:20:50Z</time>
      </trkpt>
      <trkpt lat="45.49697" lon="5.8976">
        <ele>1400.9</ele>
        <time>2014-04-04T13:20:52Z</time>
      </trkpt>
      <trkpt lat="45.49697" lon="5.89763">
        <ele>1400.5</ele>
        <time>2014-04-04T13:20:54Z</time>
      </trkpt>
      <trkpt lat="45.497" lon="5.89766">
        <ele>1399.8</ele>
        <time>2014-04-04T13:20:56Z</time>
      </trkpt>
      <trkpt lat="45.49703" lon="5.89769">
        <ele>1399.2</ele>
        <time>2014-04-04T13:20:58Z</time>
      </trkpt>
      <trkpt lat="45.49707" lon="5.89773">
        <ele>1398.4</ele>
        <time>2014-04-04T13:21:00Z</time>
      </trkpt>
      <trkpt lat="45.49708" lon="5.89777">
        <ele>1397.6</ele>
        <time>2014-04-04T13:21:02Z</time>
      </trkpt>
      <trkpt lat="45.4971" lon="5.89782">
        <ele>1396.6</ele>
        <time>2014-04-04T13:21:04Z</time>
      </trkpt>
      <trkpt lat="45.49712" lon="5.89784">
        <ele>1396.2</ele>
        <time>2014-04-04T13:21:06Z</time>
      </trkpt>
      <trkpt lat="45.49715" lon="5.8979">
        <ele>1395.2</ele>
        <time>2014-04-04T13:21:08Z</time>
      </trkpt>
      <trkpt lat="45.49718" lon="5.89798">
        <ele>1393.9</ele>
        <time>2014-04-04T13:21:10Z</time>
      </trkpt>
      <trkpt lat="45.49719" lon="5.89802">
        <ele>1393.3</ele>
        <time>2014-04-04T13:21:12Z</time>
      </trkpt>
      <trkpt lat="45.49719" lon="5.89804">
        <ele>1393.1</ele>
        <time>2014-04-04T13:21:14Z</time>
      </trkpt>
      <trkpt lat="45.49718" lon="5.89807">
        <ele>1392.5</ele>
        <time>2014-04-04T13:21:16Z</time>
      </trkpt>
      <trkpt lat="45.49719" lon="5.89809">
        <ele>1392</ele>
        <time>2014-04-04T13:21:18Z</time>
      </trkpt>
      <trkpt lat="45.49718" lon="5.8981">
        <ele>1391.9</ele>
        <time>2014-04-04T13:21:20Z</time>
      </trkpt>
      <trkpt lat="45.49719" lon="5.89811">
        <ele>1391.7</ele>
        <time>2014-04-04T13:21:22Z</time>
      </trkpt>
      <trkpt lat="45.4972" lon="5.89812">
        <ele>1391.6</ele>
        <time>2014-04-04T13:21:24Z</time>
      </trkpt>
      <trkpt lat="45.49724" lon="5.89812">
        <ele>1391.5</ele>
        <time>2014-04-04T13:21:26Z</time>
      </trkpt>
      <trkpt lat="45.49725" lon="5.89813">
        <ele>1391.2</ele>
        <time>2014-04-04T13:21:28Z</time>
      </trkpt>
      <trkpt lat="45.49727" lon="5.89815">
        <ele>1390.6</ele>
        <time>2014-04-04T13:21:30Z</time>
      </trkpt>
      <trkpt lat="45.49731" lon="5.89814">
        <ele>1390.4</ele>
        <time>2014-04-04T13:21:32Z</time>
      </trkpt>
      <trkpt lat="45.49732" lon="5.89813">
        <ele>1390.4</ele>
        <time>2014-04-04T13:21:34Z</time>
      </trkpt>
      <trkpt lat="45.49732" lon="5.89812">
        <ele>1390.6</ele>
        <time>2014-04-04T13:21:36Z</time>
      </trkpt>
      <trkpt lat="45.49734" lon="5.89811">
        <ele>1390.5</ele>
        <time>2014-04-04T13:21:38Z</time>
      </trkpt>
      <trkpt lat="45.49737" lon="5.89811">
        <ele>1389.9</ele>
        <time>2014-04-04T13:21:40Z</time>
      </trkpt>
      <trkpt lat="45.49739" lon="5.8981">
        <ele>1389.9</ele>
        <time>2014-04-04T13:21:42Z</time>
      </trkpt>
      <trkpt lat="45.49741" lon="5.8981">
        <ele>1389.6</ele>
        <time>2014-04-04T13:21:44Z</time>
      </trkpt>
      <trkpt lat="45.49742" lon="5.89811">
        <ele>1389.4</ele>
        <time>2014-04-04T13:21:46Z</time>
      </trkpt>
      <trkpt lat="45.49746" lon="5.89813">
        <ele>1388.5</ele>
        <time>2014-04-04T13:21:48Z</time>
      </trkpt>
      <trkpt lat="45.49747" lon="5.89813">
        <ele>1388.4</ele>
        <time>2014-04-04T13:21:50Z</time>
      </trkpt>
      <trkpt lat="45.4975" lon="5.89814">
        <ele>1387.8</ele>
        <time>2014-04-04T13:21:52Z</time>
      </trkpt>
      <trkpt lat="45.49753" lon="5.89816">
        <ele>1387.5</ele>
        <time>2014-04-04T13:21:54Z</time>
      </trkpt>
      <trkpt lat="45.49753" lon="5.89817">
        <ele>1387.3</ele>
        <time>2014-04-04T13:21:56Z</time>
      </trkpt>
      <trkpt lat="45.49753" lon="5.89818">
        <ele>1387.1</ele>
        <time>2014-04-04T13:21:58Z</time>
      </trkpt>
      <trkpt lat="45.49754" lon="5.8982">
        <ele>1386.9</ele>
        <time>2014-04-04T13:22:00Z</time>
      </trkpt>
      <trkpt lat="45.49756" lon="5.89822">
        <ele>1386.4</ele>
        <time>2014-04-04T13:22:02Z</time>
      </trkpt>
      <trkpt lat="45.49758" lon="5.89821">
        <ele>1386.5</ele>
        <time>2014-04-04T13:22:04Z</time>
      </trkpt>
      <trkpt lat="45.49758" lon="5.89821">
        <ele>1386.5</ele>
        <time>2014-04-04T13:22:06Z</time>
      </trkpt>
      <trkpt lat="45.49757" lon="5.8982">
        <ele>1386.7</ele>
        <time>2014-04-04T13:22:08Z</time>
      </trkpt>
      <trkpt lat="45.49753" lon="5.89818">
        <ele>1387.1</ele>
        <time>2014-04-04T13:22:10Z</time>
      </trkpt>
      <trkpt lat="45.49754" lon="5.89818">
        <ele>1387.1</ele>
        <time>2014-04-04T13:22:12Z</time>
      </trkpt>
      <trkpt lat="45.49755" lon="5.89819">
        <ele>1386.9</ele>
        <time>2014-04-04T13:22:14Z</time>
      </trkpt>
      <trkpt lat="45.49758" lon="5.89821">
        <ele>1386.4</ele>
        <time>2014-04-04T13:22:16Z</time>
      </trkpt>
      <trkpt lat="45.49763" lon="5.89828">
        <ele>1385</ele>
        <time>2014-04-04T13:22:18Z</time>
      </trkpt>
      <trkpt lat="45.49763" lon="5.8983">
        <ele>1384.7</ele>
        <time>2014-04-04T13:22:20Z</time>
      </trkpt>
      <trkpt lat="45.49764" lon="5.89833">
        <ele>1384</ele>
        <time>2014-04-04T13:22:22Z</time>
      </trkpt>
      <trkpt lat="45.49765" lon="5.89838">
        <ele>1383.2</ele>
        <time>2014-04-04T13:22:24Z</time>
      </trkpt>
      <trkpt lat="45.49764" lon="5.89842">
        <ele>1382.6</ele>
        <time>2014-04-04T13:22:26Z</time>
      </trkpt>
      <trkpt lat="45.49764" lon="5.89844">
        <ele>1382.3</ele>
        <time>2014-04-04T13:22:28Z</time>
      </trkpt>
      <trkpt lat="45.49764" lon="5.89848">
        <ele>1381.6</ele>
        <time>2014-04-04T13:22:30Z</time>
      </trkpt>
      <trkpt lat="45.49765" lon="5.89854">
        <ele>1380.7</ele>
        <time>2014-04-04T13:22:32Z</time>
      </trkpt>
      <trkpt lat="45.49765" lon="5.89858">
        <ele>1379.9</ele>
        <time>2014-04-04T13:22:34Z</time>
      </trkpt>
      <trkpt lat="45.49765" lon="5.89861">
        <ele>1379.4</ele>
        <time>2014-04-04T13:22:36Z</time>
      </trkpt>
      <trkpt lat="45.49765" lon="5.89866">
        <ele>1378.6</ele>
        <time>2014-04-04T13:22:38Z</time>
      </trkpt>
      <trkpt lat="45.49764" lon="5.89871">
        <ele>1377.8</ele>
        <time>2014-04-04T13:22:40Z</time>
      </trkpt>
      <trkpt lat="45.49765" lon="5.89874">
        <ele>1377.2</ele>
        <time>2014-04-04T13:22:42Z</time>
      </trkpt>
      <trkpt lat="45.49768" lon="5.89881">
        <ele>1375.9</ele>
        <time>2014-04-04T13:22:44Z</time>
      </trkpt>
      <trkpt lat="45.49769" lon="5.89889">
        <ele>1374.3</ele>
        <time>2014-04-04T13:22:46Z</time>
      </trkpt>
      <trkpt lat="45.49767" lon="5.89895">
        <ele>1373.4</ele>
        <time>2014-04-04T13:22:48Z</time>
      </trkpt>
      <trkpt lat="45.49767" lon="5.89897">
        <ele>1372.9</ele>
        <time>2014-04-04T13:22:50Z</time>
      </trkpt>
      <trkpt lat="45.49767" lon="5.89904">
        <ele>1371.8</ele>
        <time>2014-04-04T13:22:52Z</time>
      </trkpt>
      <trkpt lat="45.49768" lon="5.89909">
        <ele>1370.9</ele>
        <time>2014-04-04T13:22:54Z</time>
      </trkpt>
      <trkpt lat="45.49769" lon="5.89916">
        <ele>1369.9</ele>
        <time>2014-04-04T13:22:56Z</time>
      </trkpt>
      <trkpt lat="45.49769" lon="5.89918">
        <ele>1369.5</ele>
        <time>2014-04-04T13:22:58Z</time>
      </trkpt>
      <trkpt lat="45.49772" lon="5.89925">
        <ele>1367.9</ele>
        <time>2014-04-04T13:23:00Z</time>
      </trkpt>
      <trkpt lat="45.49772" lon="5.8993">
        <ele>1366.8</ele>
        <time>2014-04-04T13:23:02Z</time>
      </trkpt>
      <trkpt lat="45.49773" lon="5.89933">
        <ele>1366.2</ele>
        <time>2014-04-04T13:23:04Z</time>
      </trkpt>
      <trkpt lat="45.49773" lon="5.89934">
        <ele>1366</ele>
        <time>2014-04-04T13:23:06Z</time>
      </trkpt>
      <trkpt lat="45.49773" lon="5.89935">
        <ele>1365.8</ele>
        <time>2014-04-04T13:23:08Z</time>
      </trkpt>
      <trkpt lat="45.49773" lon="5.89935">
        <ele>1365.9</ele>
        <time>2014-04-04T13:23:10Z</time>
      </trkpt>
      <trkpt lat="45.49773" lon="5.89935">
        <ele>1365.8</ele>
        <time>2014-04-04T13:23:12Z</time>
      </trkpt>
      <trkpt lat="45.49772" lon="5.89935">
        <ele>1365.6</ele>
        <time>2014-04-04T13:23:14Z</time>
      </trkpt>
      <trkpt lat="45.4977" lon="5.89935">
        <ele>1365.6</ele>
        <time>2014-04-04T13:23:16Z</time>
      </trkpt>
      <trkpt lat="45.49768" lon="5.89936">
        <ele>1365.3</ele>
        <time>2014-04-04T13:23:18Z</time>
      </trkpt>
      <trkpt lat="45.49767" lon="5.89937">
        <ele>1364.8</ele>
        <time>2014-04-04T13:23:20Z</time>
      </trkpt>
      <trkpt lat="45.49766" lon="5.8994">
        <ele>1364.2</ele>
        <time>2014-04-04T13:23:22Z</time>
      </trkpt>
      <trkpt lat="45.49767" lon="5.89942">
        <ele>1363.8</ele>
        <time>2014-04-04T13:23:24Z</time>
      </trkpt>
      <trkpt lat="45.49769" lon="5.89945">
        <ele>1363.2</ele>
        <time>2014-04-04T13:23:26Z</time>
      </trkpt>
      <trkpt lat="45.49769" lon="5.89947">
        <ele>1362.9</ele>
        <time>2014-04-04T13:23:28Z</time>
      </trkpt>
      <trkpt lat="45.49768" lon="5.89951">
        <ele>1361.8</ele>
        <time>2014-04-04T13:23:30Z</time>
      </trkpt>
      <trkpt lat="45.49768" lon="5.89955">
        <ele>1360.7</ele>
        <time>2014-04-04T13:23:32Z</time>
      </trkpt>
      <trkpt lat="45.49768" lon="5.89959">
        <ele>1360</ele>
        <time>2014-04-04T13:23:34Z</time>
      </trkpt>
      <trkpt lat="45.49769" lon="5.8996">
        <ele>1359.5</ele>
        <time>2014-04-04T13:23:36Z</time>
      </trkpt>
      <trkpt lat="45.49769" lon="5.89963">
        <ele>1358.8</ele>
        <time>2014-04-04T13:23:38Z</time>
      </trkpt>
      <trkpt lat="45.49771" lon="5.89967">
        <ele>1358</ele>
        <time>2014-04-04T13:23:40Z</time>
      </trkpt>
      <trkpt lat="45.49771" lon="5.89969">
        <ele>1357.5</ele>
        <time>2014-04-04T13:23:42Z</time>
      </trkpt>
      <trkpt lat="45.49771" lon="5.89973">
        <ele>1356.6</ele>
        <time>2014-04-04T13:23:44Z</time>
      </trkpt>
      <trkpt lat="45.4977" lon="5.89978">
        <ele>1355.6</ele>
        <time>2014-04-04T13:23:46Z</time>
      </trkpt>
      <trkpt lat="45.49771" lon="5.89981">
        <ele>1355</ele>
        <time>2014-04-04T13:23:48Z</time>
      </trkpt>
      <trkpt lat="45.49772" lon="5.89984">
        <ele>1354.5</ele>
        <time>2014-04-04T13:23:50Z</time>
      </trkpt>
      <trkpt lat="45.49772" lon="5.89988">
        <ele>1353.7</ele>
        <time>2014-04-04T13:23:52Z</time>
      </trkpt>
      <trkpt lat="45.49774" lon="5.89994">
        <ele>1352.4</ele>
        <time>2014-04-04T13:23:54Z</time>
      </trkpt>
      <trkpt lat="45.49775" lon="5.89998">
        <ele>1351.6</ele>
        <time>2014-04-04T13:23:56Z</time>
      </trkpt>
      <trkpt lat="45.49775" lon="5.89999">
        <ele>1351.2</ele>
        <time>2014-04-04T13:23:58Z</time>
      </trkpt>
      <trkpt lat="45.49776" lon="5.90003">
        <ele>1350.4</ele>
        <time>2014-04-04T13:24:00Z</time>
      </trkpt>
      <trkpt lat="45.49776" lon="5.90008">
        <ele>1349.3</ele>
        <time>2014-04-04T13:24:02Z</time>
      </trkpt>
      <trkpt lat="45.49776" lon="5.90011">
        <ele>1348.7</ele>
        <time>2014-04-04T13:24:04Z</time>
      </trkpt>
      <trkpt lat="45.49776" lon="5.90016">
        <ele>1347.7</ele>
        <time>2014-04-04T13:24:06Z</time>
      </trkpt>
      <trkpt lat="45.49775" lon="5.9002">
        <ele>1347</ele>
        <time>2014-04-04T13:24:08Z</time>
      </trkpt>
      <trkpt lat="45.49773" lon="5.90029">
        <ele>1345</ele>
        <time>2014-04-04T13:24:10Z</time>
      </trkpt>
      <trkpt lat="45.49773" lon="5.90033">
        <ele>1344.3</ele>
        <time>2014-04-04T13:24:12Z</time>
      </trkpt>
      <trkpt lat="45.49773" lon="5.90038">
        <ele>1343.1</ele>
        <time>2014-04-04T13:24:14Z</time>
      </trkpt>
      <trkpt lat="45.49774" lon="5.90043">
        <ele>1342</ele>
        <time>2014-04-04T13:24:16Z</time>
      </trkpt>
      <trkpt lat="45.49774" lon="5.9005">
        <ele>1340.4</ele>
        <time>2014-04-04T13:24:18Z</time>
      </trkpt>
      <trkpt lat="45.49775" lon="5.90053">
        <ele>1339.7</ele>
        <time>2014-04-04T13:24:20Z</time>
      </trkpt>
      <trkpt lat="45.49778" lon="5.9006">
        <ele>1338.2</ele>
        <time>2014-04-04T13:24:22Z</time>
      </trkpt>
      <trkpt lat="45.49782" lon="5.90067">
        <ele>1334.6</ele>
        <time>2014-04-04T13:24:24Z</time>
      </trkpt>
      <trkpt lat="45.49784" lon="5.90073">
        <ele>1332.6</ele>
        <time>2014-04-04T13:24:26Z</time>
      </trkpt>
      <trkpt lat="45.49785" lon="5.90076">
        <ele>1332.1</ele>
        <time>2014-04-04T13:24:28Z</time>
      </trkpt>
      <trkpt lat="45.49785" lon="5.9008">
        <ele>1331.2</ele>
        <time>2014-04-04T13:24:30Z</time>
      </trkpt>
      <trkpt lat="45.49787" lon="5.90088">
        <ele>1328.8</ele>
        <time>2014-04-04T13:24:32Z</time>
      </trkpt>
      <trkpt lat="45.49787" lon="5.90091">
        <ele>1328.3</ele>
        <time>2014-04-04T13:24:34Z</time>
      </trkpt>
      <trkpt lat="45.4979" lon="5.90098">
        <ele>1325.9</ele>
        <time>2014-04-04T13:24:36Z</time>
      </trkpt>
      <trkpt lat="45.49792" lon="5.90105">
        <ele>1323.9</ele>
        <time>2014-04-04T13:24:38Z</time>
      </trkpt>
      <trkpt lat="45.49795" lon="5.90114">
        <ele>1321.9</ele>
        <time>2014-04-04T13:24:40Z</time>
      </trkpt>
      <trkpt lat="45.49797" lon="5.90118">
        <ele>1321.1</ele>
        <time>2014-04-04T13:24:42Z</time>
      </trkpt>
      <trkpt lat="45.498" lon="5.90123">
        <ele>1319.8</ele>
        <time>2014-04-04T13:24:44Z</time>
      </trkpt>
      <trkpt lat="45.49804" lon="5.9013">
        <ele>1318.5</ele>
        <time>2014-04-04T13:24:46Z</time>
      </trkpt>
      <trkpt lat="45.49804" lon="5.90135">
        <ele>1317.6</ele>
        <time>2014-04-04T13:24:48Z</time>
      </trkpt>
      <trkpt lat="45.49804" lon="5.90138">
        <ele>1317.2</ele>
        <time>2014-04-04T13:24:50Z</time>
      </trkpt>
      <trkpt lat="45.49805" lon="5.90143">
        <ele>1316.4</ele>
        <time>2014-04-04T13:24:52Z</time>
      </trkpt>
      <trkpt lat="45.49808" lon="5.90146">
        <ele>1314.5</ele>
        <time>2014-04-04T13:24:54Z</time>
      </trkpt>
      <trkpt lat="45.49809" lon="5.90146">
        <ele>1314</ele>
        <time>2014-04-04T13:24:56Z</time>
      </trkpt>
      <trkpt lat="45.49813" lon="5.9015">
        <ele>1312</ele>
        <time>2014-04-04T13:24:58Z</time>
      </trkpt>
      <trkpt lat="45.49815" lon="5.90153">
        <ele>1310.4</ele>
        <time>2014-04-04T13:25:00Z</time>
      </trkpt>
      <trkpt lat="45.49817" lon="5.90157">
        <ele>1309.1</ele>
        <time>2014-04-04T13:25:02Z</time>
      </trkpt>
      <trkpt lat="45.49817" lon="5.90157">
        <ele>1308.9</ele>
        <time>2014-04-04T13:25:04Z</time>
      </trkpt>
      <trkpt lat="45.49818" lon="5.90158">
        <ele>1308.5</ele>
        <time>2014-04-04T13:25:06Z</time>
      </trkpt>
      <trkpt lat="45.49818" lon="5.90158">
        <ele>1308.6</ele>
        <time>2014-04-04T13:25:08Z</time>
      </trkpt>
      <trkpt lat="45.49816" lon="5.90159">
        <ele>1309.1</ele>
        <time>2014-04-04T13:25:10Z</time>
      </trkpt>
      <trkpt lat="45.49816" lon="5.90159">
        <ele>1309.2</ele>
        <time>2014-04-04T13:25:12Z</time>
      </trkpt>
      <trkpt lat="45.49816" lon="5.9016">
        <ele>1309.3</ele>
        <time>2014-04-04T13:25:14Z</time>
      </trkpt>
      <trkpt lat="45.49815" lon="5.90161">
        <ele>1309.4</ele>
        <time>2014-04-04T13:25:16Z</time>
      </trkpt>
      <trkpt lat="45.49815" lon="5.90162">
        <ele>1309.1</ele>
        <time>2014-04-04T13:25:18Z</time>
      </trkpt>
      <trkpt lat="45.49815" lon="5.90163">
        <ele>1309.2</ele>
        <time>2014-04-04T13:25:20Z</time>
      </trkpt>
      <trkpt lat="45.49812" lon="5.90163">
        <ele>1310.1</ele>
        <time>2014-04-04T13:25:22Z</time>
      </trkpt>
      <trkpt lat="45.49808" lon="5.90165">
        <ele>1311.4</ele>
        <time>2014-04-04T13:25:24Z</time>
      </trkpt>
      <trkpt lat="45.49806" lon="5.90165">
        <ele>1312</ele>
        <time>2014-04-04T13:25:26Z</time>
      </trkpt>
      <trkpt lat="45.49803" lon="5.90168">
        <ele>1311.9</ele>
        <time>2014-04-04T13:25:28Z</time>
      </trkpt>
      <trkpt lat="45.49796" lon="5.90171">
        <ele>1311.3</ele>
        <time>2014-04-04T13:25:30Z</time>
      </trkpt>
      <trkpt lat="45.49795" lon="5.90172">
        <ele>1311.2</ele>
        <time>2014-04-04T13:25:32Z</time>
      </trkpt>
      <trkpt lat="45.49792" lon="5.90172">
        <ele>1311.1</ele>
        <time>2014-04-04T13:25:34Z</time>
      </trkpt>
      <trkpt lat="45.4979" lon="5.90172">
        <ele>1311.2</ele>
        <time>2014-04-04T13:25:36Z</time>
      </trkpt>
      <trkpt lat="45.49788" lon="5.90172">
        <ele>1311.3</ele>
        <time>2014-04-04T13:25:38Z</time>
      </trkpt>
      <trkpt lat="45.4978" lon="5.90172">
        <ele>1311.4</ele>
        <time>2014-04-04T13:25:40Z</time>
      </trkpt>
      <trkpt lat="45.49779" lon="5.90171">
        <ele>1311.5</ele>
        <time>2014-04-04T13:25:42Z</time>
      </trkpt>
      <trkpt lat="45.49775" lon="5.90171">
        <ele>1311.7</ele>
        <time>2014-04-04T13:25:44Z</time>
      </trkpt>
      <trkpt lat="45.4977" lon="5.90169">
        <ele>1312</ele>
        <time>2014-04-04T13:25:46Z</time>
      </trkpt>
      <trkpt lat="45.49768" lon="5.90169">
        <ele>1312</ele>
        <time>2014-04-04T13:25:48Z</time>
      </trkpt>
      <trkpt lat="45.49766" lon="5.90169">
        <ele>1312</ele>
        <time>2014-04-04T13:25:50Z</time>
      </trkpt>
      <trkpt lat="45.49763" lon="5.90166">
        <ele>1312.6</ele>
        <time>2014-04-04T13:25:52Z</time>
      </trkpt>
      <trkpt lat="45.49756" lon="5.90166">
        <ele>1312.3</ele>
        <time>2014-04-04T13:25:54Z</time>
      </trkpt>
      <trkpt lat="45.49754" lon="5.90165">
        <ele>1312.4</ele>
        <time>2014-04-04T13:25:56Z</time>
      </trkpt>
      <trkpt lat="45.49751" lon="5.90164">
        <ele>1312.5</ele>
        <time>2014-04-04T13:25:58Z</time>
      </trkpt>
      <trkpt lat="45.49747" lon="5.90163">
        <ele>1312.7</ele>
        <time>2014-04-04T13:26:00Z</time>
      </trkpt>
      <trkpt lat="45.49743" lon="5.90162">
        <ele>1313</ele>
        <time>2014-04-04T13:26:02Z</time>
      </trkpt>
      <trkpt lat="45.49742" lon="5.90162">
        <ele>1313</ele>
        <time>2014-04-04T13:26:04Z</time>
      </trkpt>
      <trkpt lat="45.49741" lon="5.90162">
        <ele>1313</ele>
        <time>2014-04-04T13:26:06Z</time>
      </trkpt>
      <trkpt lat="45.49736" lon="5.90162">
        <ele>1313.2</ele>
        <time>2014-04-04T13:26:08Z</time>
      </trkpt>
      <trkpt lat="45.49736" lon="5.90163">
        <ele>1313.1</ele>
        <time>2014-04-04T13:26:10Z</time>
      </trkpt>
      <trkpt lat="45.49736" lon="5.90163">
        <ele>1313</ele>
        <time>2014-04-04T13:26:12Z</time>
      </trkpt>
      <trkpt lat="45.49733" lon="5.90164">
        <ele>1313</ele>
        <time>2014-04-04T13:26:14Z</time>
      </trkpt>
      <trkpt lat="45.4973" lon="5.90165">
        <ele>1313</ele>
        <time>2014-04-04T13:26:16Z</time>
      </trkpt>
      <trkpt lat="45.49728" lon="5.90164">
        <ele>1313.1</ele>
        <time>2014-04-04T13:26:18Z</time>
      </trkpt>
      <trkpt lat="45.49728" lon="5.90165">
        <ele>1313</ele>
        <time>2014-04-04T13:26:20Z</time>
      </trkpt>
      <trkpt lat="45.49727" lon="5.90165">
        <ele>1313.1</ele>
        <time>2014-04-04T13:26:22Z</time>
      </trkpt>
      <trkpt lat="45.49727" lon="5.90164">
        <ele>1313.1</ele>
        <time>2014-04-04T13:26:24Z</time>
      </trkpt>
      <trkpt lat="45.49726" lon="5.90165">
        <ele>1313.1</ele>
        <time>2014-04-04T13:26:26Z</time>
      </trkpt>
      <trkpt lat="45.49725" lon="5.90166">
        <ele>1313</ele>
        <time>2014-04-04T13:26:28Z</time>
      </trkpt>
      <trkpt lat="45.49725" lon="5.90166">
        <ele>1313</ele>
        <time>2014-04-04T13:26:30Z</time>
      </trkpt>
      <trkpt lat="45.49722" lon="5.90169">
        <ele>1312.7</ele>
        <time>2014-04-04T13:26:32Z</time>
      </trkpt>
      <trkpt lat="45.49721" lon="5.9017">
        <ele>1312.7</ele>
        <time>2014-04-04T13:26:34Z</time>
      </trkpt>
      <trkpt lat="45.49719" lon="5.90171">
        <ele>1312.7</ele>
        <time>2014-04-04T13:26:36Z</time>
      </trkpt>
      <trkpt lat="45.49713" lon="5.90173">
        <ele>1312.7</ele>
        <time>2014-04-04T13:26:38Z</time>
      </trkpt>
      <trkpt lat="45.49712" lon="5.90172">
        <ele>1312.9</ele>
        <time>2014-04-04T13:26:40Z</time>
      </trkpt>
      <trkpt lat="45.49712" lon="5.90172">
        <ele>1312.9</ele>
        <time>2014-04-04T13:26:42Z</time>
      </trkpt>
      <trkpt lat="45.4971" lon="5.90171">
        <ele>1313</ele>
        <time>2014-04-04T13:26:44Z</time>
      </trkpt>
      <trkpt lat="45.49709" lon="5.90173">
        <ele>1313</ele>
        <time>2014-04-04T13:26:46Z</time>
      </trkpt>
      <trkpt lat="45.49706" lon="5.90175">
        <ele>1312.9</ele>
        <time>2014-04-04T13:26:48Z</time>
      </trkpt>
      <trkpt lat="45.49705" lon="5.90175">
        <ele>1312.9</ele>
        <time>2014-04-04T13:26:50Z</time>
      </trkpt>
      <trkpt lat="45.49705" lon="5.90176">
        <ele>1312.8</ele>
        <time>2014-04-04T13:26:52Z</time>
      </trkpt>
      <trkpt lat="45.49703" lon="5.90177">
        <ele>1312.8</ele>
        <time>2014-04-04T13:26:54Z</time>
      </trkpt>
      <trkpt lat="45.49703" lon="5.90178">
        <ele>1312.7</ele>
        <time>2014-04-04T13:26:56Z</time>
      </trkpt>
      <trkpt lat="45.49703" lon="5.90179">
        <ele>1312.7</ele>
        <time>2014-04-04T13:26:58Z</time>
      </trkpt>
      <trkpt lat="45.49705" lon="5.90185">
        <ele>1312.1</ele>
        <time>2014-04-04T13:27:00Z</time>
      </trkpt>
      <trkpt lat="45.49707" lon="5.90191">
        <ele>1311.4</ele>
        <time>2014-04-04T13:27:02Z</time>
      </trkpt>
      <trkpt lat="45.49707" lon="5.90193">
        <ele>1311.3</ele>
        <time>2014-04-04T13:27:04Z</time>
      </trkpt>
      <trkpt lat="45.49709" lon="5.90196">
        <ele>1310.8</ele>
        <time>2014-04-04T13:27:06Z</time>
      </trkpt>
      <trkpt lat="45.49709" lon="5.90202">
        <ele>1310.2</ele>
        <time>2014-04-04T13:27:08Z</time>
      </trkpt>
      <trkpt lat="45.49708" lon="5.90205">
        <ele>1310</ele>
        <time>2014-04-04T13:27:10Z</time>
      </trkpt>
      <trkpt lat="45.49708" lon="5.90206">
        <ele>1309.9</ele>
        <time>2014-04-04T13:27:12Z</time>
      </trkpt>
      <trkpt lat="45.49708" lon="5.90208">
        <ele>1309.5</ele>
        <time>2014-04-04T13:27:14Z</time>
      </trkpt>
      <trkpt lat="45.49708" lon="5.90213">
        <ele>1309</ele>
        <time>2014-04-04T13:27:16Z</time>
      </trkpt>
      <trkpt lat="45.49708" lon="5.90215">
        <ele>1309</ele>
        <time>2014-04-04T13:27:18Z</time>
      </trkpt>
      <trkpt lat="45.49708" lon="5.90217">
        <ele>1308.7</ele>
        <time>2014-04-04T13:27:20Z</time>
      </trkpt>
      <trkpt lat="45.49707" lon="5.90219">
        <ele>1308.6</ele>
        <time>2014-04-04T13:27:22Z</time>
      </trkpt>
      <trkpt lat="45.49707" lon="5.90223">
        <ele>1308.2</ele>
        <time>2014-04-04T13:27:24Z</time>
      </trkpt>
      <trkpt lat="45.49707" lon="5.90224">
        <ele>1308.1</ele>
        <time>2014-04-04T13:27:26Z</time>
      </trkpt>
      <trkpt lat="45.49706" lon="5.90229">
        <ele>1307.7</ele>
        <time>2014-04-04T13:27:28Z</time>
      </trkpt>
      <trkpt lat="45.49707" lon="5.90236">
        <ele>1306.7</ele>
        <time>2014-04-04T13:27:30Z</time>
      </trkpt>
      <trkpt lat="45.49709" lon="5.9024">
        <ele>1305.5</ele>
        <time>2014-04-04T13:27:32Z</time>
      </trkpt>
      <trkpt lat="45.49709" lon="5.90241">
        <ele>1305.4</ele>
        <time>2014-04-04T13:27:34Z</time>
      </trkpt>
      <trkpt lat="45.49707" lon="5.90243">
        <ele>1306</ele>
        <time>2014-04-04T13:27:36Z</time>
      </trkpt>
      <trkpt lat="45.49704" lon="5.90247">
        <ele>1306.2</ele>
        <time>2014-04-04T13:27:38Z</time>
      </trkpt>
      <trkpt lat="45.49703" lon="5.90251">
        <ele>1306.1</ele>
        <time>2014-04-04T13:27:40Z</time>
      </trkpt>
      <trkpt lat="45.49703" lon="5.90254">
        <ele>1305.8</ele>
        <time>2014-04-04T13:27:42Z</time>
      </trkpt>
      <trkpt lat="45.49701" lon="5.90258">
        <ele>1305.6</ele>
        <time>2014-04-04T13:27:44Z</time>
      </trkpt>
      <trkpt lat="45.497" lon="5.90262">
        <ele>1305.5</ele>
        <time>2014-04-04T13:27:46Z</time>
      </trkpt>
      <trkpt lat="45.49699" lon="5.90263">
        <ele>1305.7</ele>
        <time>2014-04-04T13:27:48Z</time>
      </trkpt>
      <trkpt lat="45.49698" lon="5.90267">
        <ele>1305.6</ele>
        <time>2014-04-04T13:27:50Z</time>
      </trkpt>
      <trkpt lat="45.49698" lon="5.90274">
        <ele>1304.2</ele>
        <time>2014-04-04T13:27:52Z</time>
      </trkpt>
      <trkpt lat="45.49698" lon="5.90276">
        <ele>1303.9</ele>
        <time>2014-04-04T13:27:54Z</time>
      </trkpt>
      <trkpt lat="45.49697" lon="5.9028">
        <ele>1303.9</ele>
        <time>2014-04-04T13:27:56Z</time>
      </trkpt>
      <trkpt lat="45.49696" lon="5.90282">
        <ele>1304.1</ele>
        <time>2014-04-04T13:27:58Z</time>
      </trkpt>
      <trkpt lat="45.49695" lon="5.90283">
        <ele>1304.3</ele>
        <time>2014-04-04T13:28:00Z</time>
      </trkpt>
      <trkpt lat="45.49695" lon="5.90285">
        <ele>1304.2</ele>
        <time>2014-04-04T13:28:02Z</time>
      </trkpt>
      <trkpt lat="45.49695" lon="5.90286">
        <ele>1304.1</ele>
        <time>2014-04-04T13:28:04Z</time>
      </trkpt>
      <trkpt lat="45.49695" lon="5.90288">
        <ele>1304.1</ele>
        <time>2014-04-04T13:28:06Z</time>
      </trkpt>
      <trkpt lat="45.49695" lon="5.90289">
        <ele>1304.1</ele>
        <time>2014-04-04T13:28:08Z</time>
      </trkpt>
      <trkpt lat="45.49693" lon="5.9029">
        <ele>1304.3</ele>
        <time>2014-04-04T13:28:10Z</time>
      </trkpt>
      <trkpt lat="45.49692" lon="5.9029">
        <ele>1304.3</ele>
        <time>2014-04-04T13:28:12Z</time>
      </trkpt>
      <trkpt lat="45.4969" lon="5.90291">
        <ele>1304.4</ele>
        <time>2014-04-04T13:28:14Z</time>
      </trkpt>
      <trkpt lat="45.49688" lon="5.9029">
        <ele>1304.6</ele>
        <time>2014-04-04T13:28:16Z</time>
      </trkpt>
      <trkpt lat="45.49688" lon="5.9029">
        <ele>1304.6</ele>
        <time>2014-04-04T13:28:18Z</time>
      </trkpt>
      <trkpt lat="45.49689" lon="5.90291">
        <ele>1304.5</ele>
        <time>2014-04-04T13:28:20Z</time>
      </trkpt>
      <trkpt lat="45.49688" lon="5.90292">
        <ele>1304.4</ele>
        <time>2014-04-04T13:28:22Z</time>
      </trkpt>
      <trkpt lat="45.49691" lon="5.90297">
        <ele>1303.8</ele>
        <time>2014-04-04T13:28:24Z</time>
      </trkpt>
      <trkpt lat="45.49692" lon="5.90299">
        <ele>1303.7</ele>
        <time>2014-04-04T13:28:26Z</time>
      </trkpt>
      <trkpt lat="45.49694" lon="5.90302">
        <ele>1303.3</ele>
        <time>2014-04-04T13:28:28Z</time>
      </trkpt>
      <trkpt lat="45.49696" lon="5.90309">
        <ele>1302.3</ele>
        <time>2014-04-04T13:28:30Z</time>
      </trkpt>
      <trkpt lat="45.49697" lon="5.90312">
        <ele>1302</ele>
        <time>2014-04-04T13:28:32Z</time>
      </trkpt>
      <trkpt lat="45.49696" lon="5.90313">
        <ele>1302.1</ele>
        <time>2014-04-04T13:28:34Z</time>
      </trkpt>
      <trkpt lat="45.49694" lon="5.90316">
        <ele>1302.3</ele>
        <time>2014-04-04T13:28:36Z</time>
      </trkpt>
      <trkpt lat="45.49691" lon="5.90319">
        <ele>1302.3</ele>
        <time>2014-04-04T13:28:38Z</time>
      </trkpt>
      <trkpt lat="45.4969" lon="5.9032">
        <ele>1302.3</ele>
        <time>2014-04-04T13:28:40Z</time>
      </trkpt>
      <trkpt lat="45.49689" lon="5.90324">
        <ele>1302.1</ele>
        <time>2014-04-04T13:28:42Z</time>
      </trkpt>
      <trkpt lat="45.49688" lon="5.90329">
        <ele>1301.8</ele>
        <time>2014-04-04T13:28:44Z</time>
      </trkpt>
      <trkpt lat="45.49688" lon="5.90335">
        <ele>1301.2</ele>
        <time>2014-04-04T13:28:46Z</time>
      </trkpt>
      <trkpt lat="45.49688" lon="5.90337">
        <ele>1300.9</ele>
        <time>2014-04-04T13:28:48Z</time>
      </trkpt>
      <trkpt lat="45.49687" lon="5.90341">
        <ele>1300.5</ele>
        <time>2014-04-04T13:28:50Z</time>
      </trkpt>
      <trkpt lat="45.49685" lon="5.90347">
        <ele>1299.7</ele>
        <time>2014-04-04T13:28:52Z</time>
      </trkpt>
      <trkpt lat="45.49683" lon="5.9035">
        <ele>1299.5</ele>
        <time>2014-04-04T13:28:54Z</time>
      </trkpt>
      <trkpt lat="45.49682" lon="5.90352">
        <ele>1299.2</ele>
        <time>2014-04-04T13:28:56Z</time>
      </trkpt>
      <trkpt lat="45.49684" lon="5.90357">
        <ele>1298.3</ele>
        <time>2014-04-04T13:28:58Z</time>
      </trkpt>
      <trkpt lat="45.49683" lon="5.90365">
        <ele>1297</ele>
        <time>2014-04-04T13:29:00Z</time>
      </trkpt>
      <trkpt lat="45.49682" lon="5.90367">
        <ele>1296.7</ele>
        <time>2014-04-04T13:29:02Z</time>
      </trkpt>
      <trkpt lat="45.49679" lon="5.90372">
        <ele>1295.9</ele>
        <time>2014-04-04T13:29:04Z</time>
      </trkpt>
      <trkpt lat="45.49676" lon="5.90374">
        <ele>1295.7</ele>
        <time>2014-04-04T13:29:06Z</time>
      </trkpt>
      <trkpt lat="45.49671" lon="5.90378">
        <ele>1295.5</ele>
        <time>2014-04-04T13:29:08Z</time>
      </trkpt>
      <trkpt lat="45.4967" lon="5.9038">
        <ele>1295.3</ele>
        <time>2014-04-04T13:29:10Z</time>
      </trkpt>
      <trkpt lat="45.4967" lon="5.90383">
        <ele>1294.7</ele>
        <time>2014-04-04T13:29:12Z</time>
      </trkpt>
      <trkpt lat="45.4967" lon="5.9039">
        <ele>1293.4</ele>
        <time>2014-04-04T13:29:14Z</time>
      </trkpt>
      <trkpt lat="45.49671" lon="5.90396">
        <ele>1292.3</ele>
        <time>2014-04-04T13:29:16Z</time>
      </trkpt>
      <trkpt lat="45.49672" lon="5.90398">
        <ele>1291.8</ele>
        <time>2014-04-04T13:29:18Z</time>
      </trkpt>
      <trkpt lat="45.49672" lon="5.90401">
        <ele>1291.2</ele>
        <time>2014-04-04T13:29:20Z</time>
      </trkpt>
      <trkpt lat="45.49675" lon="5.9041">
        <ele>1288.6</ele>
        <time>2014-04-04T13:29:22Z</time>
      </trkpt>
      <trkpt lat="45.49675" lon="5.90415">
        <ele>1287.9</ele>
        <time>2014-04-04T13:29:24Z</time>
      </trkpt>
      <trkpt lat="45.49674" lon="5.90416">
        <ele>1287.9</ele>
        <time>2014-04-04T13:29:26Z</time>
      </trkpt>
      <trkpt lat="45.49675" lon="5.90418">
        <ele>1287.3</ele>
        <time>2014-04-04T13:29:28Z</time>
      </trkpt>
      <trkpt lat="45.49678" lon="5.90424">
        <ele>1285.1</ele>
        <time>2014-04-04T13:29:30Z</time>
      </trkpt>
      <trkpt lat="45.49678" lon="5.90427">
        <ele>1284.8</ele>
        <time>2014-04-04T13:29:32Z</time>
      </trkpt>
      <trkpt lat="45.49677" lon="5.90429">
        <ele>1285</ele>
        <time>2014-04-04T13:29:34Z</time>
      </trkpt>
      <trkpt lat="45.49676" lon="5.90433">
        <ele>1284.4</ele>
        <time>2014-04-04T13:29:36Z</time>
      </trkpt>
      <trkpt lat="45.49675" lon="5.90436">
        <ele>1284.3</ele>
        <time>2014-04-04T13:29:38Z</time>
      </trkpt>
      <trkpt lat="45.49673" lon="5.90438">
        <ele>1284.6</ele>
        <time>2014-04-04T13:29:40Z</time>
      </trkpt>
      <trkpt lat="45.49673" lon="5.9044">
        <ele>1284.1</ele>
        <time>2014-04-04T13:29:42Z</time>
      </trkpt>
      <trkpt lat="45.49671" lon="5.90442">
        <ele>1284.5</ele>
        <time>2014-04-04T13:29:44Z</time>
      </trkpt>
      <trkpt lat="45.49667" lon="5.90441">
        <ele>1285.7</ele>
        <time>2014-04-04T13:29:46Z</time>
      </trkpt>
      <trkpt lat="45.49665" lon="5.90441">
        <ele>1286.1</ele>
        <time>2014-04-04T13:29:48Z</time>
      </trkpt>
      <trkpt lat="45.49664" lon="5.9044">
        <ele>1286.4</ele>
        <time>2014-04-04T13:29:50Z</time>
      </trkpt>
      <trkpt lat="45.49661" lon="5.9044">
        <ele>1286.8</ele>
        <time>2014-04-04T13:29:52Z</time>
      </trkpt>
      <trkpt lat="45.4966" lon="5.90439">
        <ele>1287.2</ele>
        <time>2014-04-04T13:29:54Z</time>
      </trkpt>
      <trkpt lat="45.49659" lon="5.90439">
        <ele>1287.4</ele>
        <time>2014-04-04T13:29:56Z</time>
      </trkpt>
      <trkpt lat="45.49657" lon="5.90438">
        <ele>1287.9</ele>
        <time>2014-04-04T13:29:58Z</time>
      </trkpt>
      <trkpt lat="45.49655" lon="5.90437">
        <ele>1288.3</ele>
        <time>2014-04-04T13:30:00Z</time>
      </trkpt>
      <trkpt lat="45.49655" lon="5.90438">
        <ele>1288.1</ele>
        <time>2014-04-04T13:30:02Z</time>
      </trkpt>
      <trkpt lat="45.49655" lon="5.90439">
        <ele>1287.7</ele>
        <time>2014-04-04T13:30:04Z</time>
      </trkpt>
      <trkpt lat="45.49656" lon="5.90444">
        <ele>1286.6</ele>
        <time>2014-04-04T13:30:06Z</time>
      </trkpt>
      <trkpt lat="45.49658" lon="5.90449">
        <ele>1285.5</ele>
        <time>2014-04-04T13:30:08Z</time>
      </trkpt>
      <trkpt lat="45.49658" lon="5.90451">
        <ele>1285.1</ele>
        <time>2014-04-04T13:30:10Z</time>
      </trkpt>
      <trkpt lat="45.4966" lon="5.90454">
        <ele>1284.3</ele>
        <time>2014-04-04T13:30:12Z</time>
      </trkpt>
      <trkpt lat="45.49661" lon="5.90457">
        <ele>1283.5</ele>
        <time>2014-04-04T13:30:14Z</time>
      </trkpt>
      <trkpt lat="45.49661" lon="5.90458">
        <ele>1283.4</ele>
        <time>2014-04-04T13:30:16Z</time>
      </trkpt>
      <trkpt lat="45.49659" lon="5.90459">
        <ele>1283.4</ele>
        <time>2014-04-04T13:30:18Z</time>
      </trkpt>
      <trkpt lat="45.49657" lon="5.90461">
        <ele>1283.2</ele>
        <time>2014-04-04T13:30:20Z</time>
      </trkpt>
      <trkpt lat="45.49656" lon="5.90464">
        <ele>1282.7</ele>
        <time>2014-04-04T13:30:22Z</time>
      </trkpt>
      <trkpt lat="45.49656" lon="5.90467">
        <ele>1282.3</ele>
        <time>2014-04-04T13:30:24Z</time>
      </trkpt>
      <trkpt lat="45.49655" lon="5.90468">
        <ele>1282.2</ele>
        <time>2014-04-04T13:30:26Z</time>
      </trkpt>
      <trkpt lat="45.49653" lon="5.90469">
        <ele>1282.2</ele>
        <time>2014-04-04T13:30:28Z</time>
      </trkpt>
      <trkpt lat="45.49648" lon="5.90471">
        <ele>1282.3</ele>
        <time>2014-04-04T13:30:30Z</time>
      </trkpt>
      <trkpt lat="45.49647" lon="5.90472">
        <ele>1282.3</ele>
        <time>2014-04-04T13:30:32Z</time>
      </trkpt>
      <trkpt lat="45.49647" lon="5.90475">
        <ele>1281.9</ele>
        <time>2014-04-04T13:30:34Z</time>
      </trkpt>
      <trkpt lat="45.49643" lon="5.9048">
        <ele>1282</ele>
        <time>2014-04-04T13:30:36Z</time>
      </trkpt>
      <trkpt lat="45.49642" lon="5.90484">
        <ele>1281.7</ele>
        <time>2014-04-04T13:30:38Z</time>
      </trkpt>
      <trkpt lat="45.49642" lon="5.90486">
        <ele>1281.5</ele>
        <time>2014-04-04T13:30:40Z</time>
      </trkpt>
      <trkpt lat="45.49641" lon="5.9049">
        <ele>1281.3</ele>
        <time>2014-04-04T13:30:42Z</time>
      </trkpt>
      <trkpt lat="45.49641" lon="5.90495">
        <ele>1280.9</ele>
        <time>2014-04-04T13:30:44Z</time>
      </trkpt>
      <trkpt lat="45.49642" lon="5.905">
        <ele>1280.3</ele>
        <time>2014-04-04T13:30:46Z</time>
      </trkpt>
      <trkpt lat="45.49643" lon="5.90503">
        <ele>1280.1</ele>
        <time>2014-04-04T13:30:48Z</time>
      </trkpt>
      <trkpt lat="45.49645" lon="5.90507">
        <ele>1279.6</ele>
        <time>2014-04-04T13:30:50Z</time>
      </trkpt>
      <trkpt lat="45.49647" lon="5.90511">
        <ele>1279.1</ele>
        <time>2014-04-04T13:30:52Z</time>
      </trkpt>
      <trkpt lat="45.49646" lon="5.90515">
        <ele>1279.1</ele>
        <time>2014-04-04T13:30:54Z</time>
      </trkpt>
      <trkpt lat="45.49647" lon="5.90517">
        <ele>1279</ele>
        <time>2014-04-04T13:30:56Z</time>
      </trkpt>
      <trkpt lat="45.49647" lon="5.9052">
        <ele>1278.9</ele>
        <time>2014-04-04T13:30:58Z</time>
      </trkpt>
      <trkpt lat="45.49646" lon="5.90523">
        <ele>1279</ele>
        <time>2014-04-04T13:31:00Z</time>
      </trkpt>
      <trkpt lat="45.49648" lon="5.90525">
        <ele>1278.7</ele>
        <time>2014-04-04T13:31:02Z</time>
      </trkpt>
      <trkpt lat="45.4965" lon="5.90529">
        <ele>1278.3</ele>
        <time>2014-04-04T13:31:04Z</time>
      </trkpt>
      <trkpt lat="45.4965" lon="5.90532">
        <ele>1278.1</ele>
        <time>2014-04-04T13:31:06Z</time>
      </trkpt>
      <trkpt lat="45.49649" lon="5.90537">
        <ele>1277.8</ele>
        <time>2014-04-04T13:31:08Z</time>
      </trkpt>
      <trkpt lat="45.4965" lon="5.90538">
        <ele>1277.6</ele>
        <time>2014-04-04T13:31:10Z</time>
      </trkpt>
      <trkpt lat="45.49651" lon="5.90541">
        <ele>1277.3</ele>
        <time>2014-04-04T13:31:12Z</time>
      </trkpt>
      <trkpt lat="45.49649" lon="5.90547">
        <ele>1277.2</ele>
        <time>2014-04-04T13:31:14Z</time>
      </trkpt>
      <trkpt lat="45.49647" lon="5.90551">
        <ele>1277.3</ele>
        <time>2014-04-04T13:31:16Z</time>
      </trkpt>
      <trkpt lat="45.49646" lon="5.90554">
        <ele>1277.3</ele>
        <time>2014-04-04T13:31:18Z</time>
      </trkpt>
      <trkpt lat="45.49647" lon="5.90561">
        <ele>1276.5</ele>
        <time>2014-04-04T13:31:20Z</time>
      </trkpt>
      <trkpt lat="45.49646" lon="5.90568">
        <ele>1275.7</ele>
        <time>2014-04-04T13:31:22Z</time>
      </trkpt>
      <trkpt lat="45.49645" lon="5.90572">
        <ele>1275.3</ele>
        <time>2014-04-04T13:31:24Z</time>
      </trkpt>
      <trkpt lat="45.49646" lon="5.9058">
        <ele>1274.3</ele>
        <time>2014-04-04T13:31:26Z</time>
      </trkpt>
      <trkpt lat="45.49645" lon="5.90587">
        <ele>1273.7</ele>
        <time>2014-04-04T13:31:28Z</time>
      </trkpt>
      <trkpt lat="45.49643" lon="5.90593">
        <ele>1273.5</ele>
        <time>2014-04-04T13:31:30Z</time>
      </trkpt>
      <trkpt lat="45.49641" lon="5.90601">
        <ele>1272.7</ele>
        <time>2014-04-04T13:31:32Z</time>
      </trkpt>
      <trkpt lat="45.4964" lon="5.90609">
        <ele>1272</ele>
        <time>2014-04-04T13:31:34Z</time>
      </trkpt>
      <trkpt lat="45.49638" lon="5.90615">
        <ele>1271.6</ele>
        <time>2014-04-04T13:31:36Z</time>
      </trkpt>
      <trkpt lat="45.49634" lon="5.90619">
        <ele>1271.2</ele>
        <time>2014-04-04T13:31:38Z</time>
      </trkpt>
      <trkpt lat="45.49634" lon="5.9062">
        <ele>1271.1</ele>
        <time>2014-04-04T13:31:40Z</time>
      </trkpt>
      <trkpt lat="45.49634" lon="5.90622">
        <ele>1270.9</ele>
        <time>2014-04-04T13:31:42Z</time>
      </trkpt>
      <trkpt lat="45.49634" lon="5.90624">
        <ele>1270.7</ele>
        <time>2014-04-04T13:31:44Z</time>
      </trkpt>
      <trkpt lat="45.49634" lon="5.90626">
        <ele>1270.5</ele>
        <time>2014-04-04T13:31:46Z</time>
      </trkpt>
      <trkpt lat="45.49635" lon="5.90626">
        <ele>1270.4</ele>
        <time>2014-04-04T13:31:48Z</time>
      </trkpt>
      <trkpt lat="45.49636" lon="5.90628">
        <ele>1270.3</ele>
        <time>2014-04-04T13:31:50Z</time>
      </trkpt>
      <trkpt lat="45.49637" lon="5.9063">
        <ele>1270.1</ele>
        <time>2014-04-04T13:31:52Z</time>
      </trkpt>
      <trkpt lat="45.49637" lon="5.9063">
        <ele>1270</ele>
        <time>2014-04-04T13:31:54Z</time>
      </trkpt>
      <trkpt lat="45.49638" lon="5.90632">
        <ele>1269.8</ele>
        <time>2014-04-04T13:31:56Z</time>
      </trkpt>
      <trkpt lat="45.49637" lon="5.90633">
        <ele>1269.7</ele>
        <time>2014-04-04T13:31:58Z</time>
      </trkpt>
      <trkpt lat="45.49634" lon="5.90634">
        <ele>1269.6</ele>
        <time>2014-04-04T13:32:00Z</time>
      </trkpt>
      <trkpt lat="45.49636" lon="5.90636">
        <ele>1269.5</ele>
        <time>2014-04-04T13:32:02Z</time>
      </trkpt>
      <trkpt lat="45.49636" lon="5.90638">
        <ele>1269.2</ele>
        <time>2014-04-04T13:32:04Z</time>
      </trkpt>
      <trkpt lat="45.49636" lon="5.90642">
        <ele>1268.9</ele>
        <time>2014-04-04T13:32:06Z</time>
      </trkpt>
      <trkpt lat="45.49636" lon="5.90644">
        <ele>1268.8</ele>
        <time>2014-04-04T13:32:08Z</time>
      </trkpt>
      <trkpt lat="45.49637" lon="5.90645">
        <ele>1268.7</ele>
        <time>2014-04-04T13:32:10Z</time>
      </trkpt>
      <trkpt lat="45.49638" lon="5.90648">
        <ele>1268.4</ele>
        <time>2014-04-04T13:32:12Z</time>
      </trkpt>
      <trkpt lat="45.49637" lon="5.9065">
        <ele>1268.4</ele>
        <time>2014-04-04T13:32:14Z</time>
      </trkpt>
      <trkpt lat="45.49637" lon="5.90654">
        <ele>1268.1</ele>
        <time>2014-04-04T13:32:16Z</time>
      </trkpt>
      <trkpt lat="45.49637" lon="5.90655">
        <ele>1268</ele>
        <time>2014-04-04T13:32:18Z</time>
      </trkpt>
      <trkpt lat="45.49637" lon="5.90657">
        <ele>1267.8</ele>
        <time>2014-04-04T13:32:20Z</time>
      </trkpt>
      <trkpt lat="45.49634" lon="5.90659">
        <ele>1268</ele>
        <time>2014-04-04T13:32:22Z</time>
      </trkpt>
      <trkpt lat="45.49632" lon="5.90659">
        <ele>1268.2</ele>
        <time>2014-04-04T13:32:24Z</time>
      </trkpt>
      <trkpt lat="45.49628" lon="5.90661">
        <ele>1268.4</ele>
        <time>2014-04-04T13:32:26Z</time>
      </trkpt>
      <trkpt lat="45.49627" lon="5.90662">
        <ele>1268.5</ele>
        <time>2014-04-04T13:32:28Z</time>
      </trkpt>
      <trkpt lat="45.49629" lon="5.90666">
        <ele>1268.1</ele>
        <time>2014-04-04T13:32:30Z</time>
      </trkpt>
      <trkpt lat="45.49629" lon="5.90668">
        <ele>1268</ele>
        <time>2014-04-04T13:32:32Z</time>
      </trkpt>
      <trkpt lat="45.49627" lon="5.9067">
        <ele>1268</ele>
        <time>2014-04-04T13:32:34Z</time>
      </trkpt>
      <trkpt lat="45.49621" lon="5.90671">
        <ele>1268.4</ele>
        <time>2014-04-04T13:32:36Z</time>
      </trkpt>
      <trkpt lat="45.49622" lon="5.90673">
        <ele>1268.2</ele>
        <time>2014-04-04T13:32:38Z</time>
      </trkpt>
      <trkpt lat="45.49622" lon="5.90675">
        <ele>1268</ele>
        <time>2014-04-04T13:32:40Z</time>
      </trkpt>
      <trkpt lat="45.49624" lon="5.90678">
        <ele>1267.5</ele>
        <time>2014-04-04T13:32:42Z</time>
      </trkpt>
      <trkpt lat="45.49623" lon="5.90682">
        <ele>1267.2</ele>
        <time>2014-04-04T13:32:44Z</time>
      </trkpt>
      <trkpt lat="45.49623" lon="5.90683">
        <ele>1267.1</ele>
        <time>2014-04-04T13:32:46Z</time>
      </trkpt>
      <trkpt lat="45.49623" lon="5.90687">
        <ele>1266.7</ele>
        <time>2014-04-04T13:32:48Z</time>
      </trkpt>
      <trkpt lat="45.49623" lon="5.90689">
        <ele>1266.5</ele>
        <time>2014-04-04T13:32:50Z</time>
      </trkpt>
      <trkpt lat="45.49621" lon="5.90692">
        <ele>1266.4</ele>
        <time>2014-04-04T13:32:52Z</time>
      </trkpt>
      <trkpt lat="45.49621" lon="5.90693">
        <ele>1266.3</ele>
        <time>2014-04-04T13:32:54Z</time>
      </trkpt>
      <trkpt lat="45.49623" lon="5.90696">
        <ele>1265.7</ele>
        <time>2014-04-04T13:32:56Z</time>
      </trkpt>
      <trkpt lat="45.49624" lon="5.90699">
        <ele>1265</ele>
        <time>2014-04-04T13:32:58Z</time>
      </trkpt>
      <trkpt lat="45.49627" lon="5.90704">
        <ele>1263.7</ele>
        <time>2014-04-04T13:33:00Z</time>
      </trkpt>
      <trkpt lat="45.49627" lon="5.90706">
        <ele>1263.6</ele>
        <time>2014-04-04T13:33:02Z</time>
      </trkpt>
      <trkpt lat="45.49625" lon="5.90708">
        <ele>1263.5</ele>
        <time>2014-04-04T13:33:04Z</time>
      </trkpt>
      <trkpt lat="45.49623" lon="5.90711">
        <ele>1263.6</ele>
        <time>2014-04-04T13:33:06Z</time>
      </trkpt>
      <trkpt lat="45.49621" lon="5.90713">
        <ele>1263.6</ele>
        <time>2014-04-04T13:33:08Z</time>
      </trkpt>
      <trkpt lat="45.49621" lon="5.90714">
        <ele>1263.3</ele>
        <time>2014-04-04T13:33:10Z</time>
      </trkpt>
      <trkpt lat="45.49621" lon="5.90717">
        <ele>1262.9</ele>
        <time>2014-04-04T13:33:12Z</time>
      </trkpt>
      <trkpt lat="45.49617" lon="5.9072">
        <ele>1263.2</ele>
        <time>2014-04-04T13:33:14Z</time>
      </trkpt>
      <trkpt lat="45.49617" lon="5.90722">
        <ele>1263.1</ele>
        <time>2014-04-04T13:33:16Z</time>
      </trkpt>
      <trkpt lat="45.49615" lon="5.90724">
        <ele>1263.1</ele>
        <time>2014-04-04T13:33:18Z</time>
      </trkpt>
      <trkpt lat="45.49612" lon="5.90729">
        <ele>1263</ele>
        <time>2014-04-04T13:33:20Z</time>
      </trkpt>
      <trkpt lat="45.49611" lon="5.90732">
        <ele>1262.7</ele>
        <time>2014-04-04T13:33:22Z</time>
      </trkpt>
      <trkpt lat="45.4961" lon="5.90733">
        <ele>1262.7</ele>
        <time>2014-04-04T13:33:24Z</time>
      </trkpt>
      <trkpt lat="45.49609" lon="5.90734">
        <ele>1262.7</ele>
        <time>2014-04-04T13:33:26Z</time>
      </trkpt>
      <trkpt lat="45.49606" lon="5.90736">
        <ele>1262.7</ele>
        <time>2014-04-04T13:33:28Z</time>
      </trkpt>
      <trkpt lat="45.49603" lon="5.90741">
        <ele>1262.5</ele>
        <time>2014-04-04T13:33:30Z</time>
      </trkpt>
      <trkpt lat="45.49601" lon="5.90741">
        <ele>1262.7</ele>
        <time>2014-04-04T13:33:32Z</time>
      </trkpt>
      <trkpt lat="45.49598" lon="5.90743">
        <ele>1263</ele>
        <time>2014-04-04T13:33:34Z</time>
      </trkpt>
      <trkpt lat="45.49593" lon="5.90747">
        <ele>1263.1</ele>
        <time>2014-04-04T13:33:36Z</time>
      </trkpt>
      <trkpt lat="45.49588" lon="5.9075">
        <ele>1263.4</ele>
        <time>2014-04-04T13:33:38Z</time>
      </trkpt>
      <trkpt lat="45.49585" lon="5.90752">
        <ele>1263</ele>
        <time>2014-04-04T13:33:40Z</time>
      </trkpt>
      <trkpt lat="45.49583" lon="5.90757">
        <ele>1261.2</ele>
        <time>2014-04-04T13:33:42Z</time>
      </trkpt>
      <trkpt lat="45.49576" lon="5.90763">
        <ele>1259.7</ele>
        <time>2014-04-04T13:33:44Z</time>
      </trkpt>
      <trkpt lat="45.49575" lon="5.90764">
        <ele>1259.4</ele>
        <time>2014-04-04T13:33:46Z</time>
      </trkpt>
      <trkpt lat="45.49569" lon="5.90767">
        <ele>1259.3</ele>
        <time>2014-04-04T13:33:48Z</time>
      </trkpt>
      <trkpt lat="45.49566" lon="5.90771">
        <ele>1258.6</ele>
        <time>2014-04-04T13:33:50Z</time>
      </trkpt>
      <trkpt lat="45.49566" lon="5.90777">
        <ele>1257</ele>
        <time>2014-04-04T13:33:52Z</time>
      </trkpt>
      <trkpt lat="45.49565" lon="5.9078">
        <ele>1256.4</ele>
        <time>2014-04-04T13:33:54Z</time>
      </trkpt>
      <trkpt lat="45.49564" lon="5.90783">
        <ele>1255.5</ele>
        <time>2014-04-04T13:33:56Z</time>
      </trkpt>
      <trkpt lat="45.49564" lon="5.90787">
        <ele>1253.8</ele>
        <time>2014-04-04T13:33:58Z</time>
      </trkpt>
      <trkpt lat="45.49559" lon="5.9079">
        <ele>1254</ele>
        <time>2014-04-04T13:34:00Z</time>
      </trkpt>
      <trkpt lat="45.49556" lon="5.9079">
        <ele>1254.4</ele>
        <time>2014-04-04T13:34:02Z</time>
      </trkpt>
      <trkpt lat="45.49552" lon="5.90793">
        <ele>1254.6</ele>
        <time>2014-04-04T13:34:04Z</time>
      </trkpt>
      <trkpt lat="45.49551" lon="5.90799">
        <ele>1253.1</ele>
        <time>2014-04-04T13:34:06Z</time>
      </trkpt>
      <trkpt lat="45.49548" lon="5.90803">
        <ele>1252.8</ele>
        <time>2014-04-04T13:34:08Z</time>
      </trkpt>
      <trkpt lat="45.49546" lon="5.90804">
        <ele>1253</ele>
        <time>2014-04-04T13:34:10Z</time>
      </trkpt>
      <trkpt lat="45.49544" lon="5.90809">
        <ele>1252.5</ele>
        <time>2014-04-04T13:34:12Z</time>
      </trkpt>
      <trkpt lat="45.49542" lon="5.90815">
        <ele>1252.3</ele>
        <time>2014-04-04T13:34:14Z</time>
      </trkpt>
      <trkpt lat="45.49542" lon="5.90818">
        <ele>1251.8</ele>
        <time>2014-04-04T13:34:16Z</time>
      </trkpt>
      <trkpt lat="45.4954" lon="5.90821">
        <ele>1252</ele>
        <time>2014-04-04T13:34:18Z</time>
      </trkpt>
      <trkpt lat="45.49539" lon="5.90825">
        <ele>1251.3</ele>
        <time>2014-04-04T13:34:20Z</time>
      </trkpt>
      <trkpt lat="45.49537" lon="5.90829">
        <ele>1251.3</ele>
        <time>2014-04-04T13:34:22Z</time>
      </trkpt>
      <trkpt lat="45.49536" lon="5.90831">
        <ele>1251</ele>
        <time>2014-04-04T13:34:24Z</time>
      </trkpt>
      <trkpt lat="45.49536" lon="5.90836">
        <ele>1250.3</ele>
        <time>2014-04-04T13:34:26Z</time>
      </trkpt>
      <trkpt lat="45.49532" lon="5.90839">
        <ele>1250.7</ele>
        <time>2014-04-04T13:34:28Z</time>
      </trkpt>
      <trkpt lat="45.4953" lon="5.90839">
        <ele>1251.1</ele>
        <time>2014-04-04T13:34:30Z</time>
      </trkpt>
      <trkpt lat="45.49529" lon="5.9084">
        <ele>1251.3</ele>
        <time>2014-04-04T13:34:32Z</time>
      </trkpt>
      <trkpt lat="45.49528" lon="5.9084">
        <ele>1251.5</ele>
        <time>2014-04-04T13:34:34Z</time>
      </trkpt>
      <trkpt lat="45.49525" lon="5.90843">
        <ele>1251.2</ele>
        <time>2014-04-04T13:34:36Z</time>
      </trkpt>
      <trkpt lat="45.49523" lon="5.90845">
        <ele>1250.8</ele>
        <time>2014-04-04T13:34:38Z</time>
      </trkpt>
      <trkpt lat="45.49522" lon="5.90847">
        <ele>1250.7</ele>
        <time>2014-04-04T13:34:40Z</time>
      </trkpt>
      <trkpt lat="45.49521" lon="5.90849">
        <ele>1250.4</ele>
        <time>2014-04-04T13:34:42Z</time>
      </trkpt>
      <trkpt lat="45.49521" lon="5.90853">
        <ele>1249.5</ele>
        <time>2014-04-04T13:34:44Z</time>
      </trkpt>
      <trkpt lat="45.4952" lon="5.90855">
        <ele>1249.1</ele>
        <time>2014-04-04T13:34:46Z</time>
      </trkpt>
      <trkpt lat="45.4952" lon="5.9086">
        <ele>1248.1</ele>
        <time>2014-04-04T13:34:48Z</time>
      </trkpt>
      <trkpt lat="45.4952" lon="5.90867">
        <ele>1246.6</ele>
        <time>2014-04-04T13:34:50Z</time>
      </trkpt>
      <trkpt lat="45.49517" lon="5.90874">
        <ele>1245.5</ele>
        <time>2014-04-04T13:34:52Z</time>
      </trkpt>
      <trkpt lat="45.49516" lon="5.90877">
        <ele>1245.2</ele>
        <time>2014-04-04T13:34:54Z</time>
      </trkpt>
      <trkpt lat="45.49513" lon="5.90881">
        <ele>1244.7</ele>
        <time>2014-04-04T13:34:56Z</time>
      </trkpt>
      <trkpt lat="45.49513" lon="5.90887">
        <ele>1243.6</ele>
        <time>2014-04-04T13:34:58Z</time>
      </trkpt>
      <trkpt lat="45.49513" lon="5.90889">
        <ele>1243.2</ele>
        <time>2014-04-04T13:35:00Z</time>
      </trkpt>
      <trkpt lat="45.49513" lon="5.90891">
        <ele>1242.8</ele>
        <time>2014-04-04T13:35:02Z</time>
      </trkpt>
      <trkpt lat="45.49514" lon="5.90895">
        <ele>1242.2</ele>
        <time>2014-04-04T13:35:04Z</time>
      </trkpt>
      <trkpt lat="45.49516" lon="5.90904">
        <ele>1240.5</ele>
        <time>2014-04-04T13:35:06Z</time>
      </trkpt>
      <trkpt lat="45.49516" lon="5.90907">
        <ele>1240</ele>
        <time>2014-04-04T13:35:08Z</time>
      </trkpt>
      <trkpt lat="45.49517" lon="5.90914">
        <ele>1238.7</ele>
        <time>2014-04-04T13:35:10Z</time>
      </trkpt>
      <trkpt lat="45.49513" lon="5.90924">
        <ele>1238.1</ele>
        <time>2014-04-04T13:35:12Z</time>
      </trkpt>
      <trkpt lat="45.4951" lon="5.90931">
        <ele>1237.7</ele>
        <time>2014-04-04T13:35:14Z</time>
      </trkpt>
      <trkpt lat="45.49508" lon="5.90934">
        <ele>1237.6</ele>
        <time>2014-04-04T13:35:16Z</time>
      </trkpt>
      <trkpt lat="45.49504" lon="5.90937">
        <ele>1237.7</ele>
        <time>2014-04-04T13:35:18Z</time>
      </trkpt>
      <trkpt lat="45.49502" lon="5.90942">
        <ele>1237.3</ele>
        <time>2014-04-04T13:35:20Z</time>
      </trkpt>
      <trkpt lat="45.495" lon="5.90946">
        <ele>1237</ele>
        <time>2014-04-04T13:35:22Z</time>
      </trkpt>
      <trkpt lat="45.49499" lon="5.90948">
        <ele>1236.9</ele>
        <time>2014-04-04T13:35:24Z</time>
      </trkpt>
      <trkpt lat="45.49498" lon="5.9095">
        <ele>1236.9</ele>
        <time>2014-04-04T13:35:26Z</time>
      </trkpt>
      <trkpt lat="45.49497" lon="5.90954">
        <ele>1236.7</ele>
        <time>2014-04-04T13:35:28Z</time>
      </trkpt>
      <trkpt lat="45.49493" lon="5.90957">
        <ele>1236.6</ele>
        <time>2014-04-04T13:35:30Z</time>
      </trkpt>
      <trkpt lat="45.4949" lon="5.90958">
        <ele>1236.4</ele>
        <time>2014-04-04T13:35:32Z</time>
      </trkpt>
      <trkpt lat="45.49485" lon="5.90963">
        <ele>1235.4</ele>
        <time>2014-04-04T13:35:34Z</time>
      </trkpt>
      <trkpt lat="45.49483" lon="5.90965">
        <ele>1234.9</ele>
        <time>2014-04-04T13:35:36Z</time>
      </trkpt>
      <trkpt lat="45.49483" lon="5.90967">
        <ele>1234.5</ele>
        <time>2014-04-04T13:35:38Z</time>
      </trkpt>
      <trkpt lat="45.49483" lon="5.90972">
        <ele>1233.6</ele>
        <time>2014-04-04T13:35:40Z</time>
      </trkpt>
      <trkpt lat="45.49479" lon="5.9098">
        <ele>1232.7</ele>
        <time>2014-04-04T13:35:42Z</time>
      </trkpt>
      <trkpt lat="45.49476" lon="5.90985">
        <ele>1232.1</ele>
        <time>2014-04-04T13:35:44Z</time>
      </trkpt>
      <trkpt lat="45.49474" lon="5.90988">
        <ele>1231.7</ele>
        <time>2014-04-04T13:35:46Z</time>
      </trkpt>
      <trkpt lat="45.4947" lon="5.90992">
        <ele>1231.2</ele>
        <time>2014-04-04T13:35:48Z</time>
      </trkpt>
      <trkpt lat="45.49463" lon="5.90998">
        <ele>1230.6</ele>
        <time>2014-04-04T13:35:50Z</time>
      </trkpt>
      <trkpt lat="45.49458" lon="5.91002">
        <ele>1229.9</ele>
        <time>2014-04-04T13:35:52Z</time>
      </trkpt>
      <trkpt lat="45.49456" lon="5.91004">
        <ele>1229.7</ele>
        <time>2014-04-04T13:35:54Z</time>
      </trkpt>
      <trkpt lat="45.4945" lon="5.91008">
        <ele>1229.1</ele>
        <time>2014-04-04T13:35:56Z</time>
      </trkpt>
      <trkpt lat="45.49444" lon="5.91015">
        <ele>1228.5</ele>
        <time>2014-04-04T13:35:58Z</time>
      </trkpt>
      <trkpt lat="45.49443" lon="5.91023">
        <ele>1228.2</ele>
        <time>2014-04-04T13:36:00Z</time>
      </trkpt>
      <trkpt lat="45.49443" lon="5.91027">
        <ele>1228</ele>
        <time>2014-04-04T13:36:02Z</time>
      </trkpt>
      <trkpt lat="45.49445" lon="5.91033">
        <ele>1227.9</ele>
        <time>2014-04-04T13:36:04Z</time>
      </trkpt>
      <trkpt lat="45.49447" lon="5.91043">
        <ele>1227.6</ele>
        <time>2014-04-04T13:36:06Z</time>
      </trkpt>
      <trkpt lat="45.49448" lon="5.91046">
        <ele>1227.6</ele>
        <time>2014-04-04T13:36:08Z</time>
      </trkpt>
      <trkpt lat="45.4945" lon="5.91053">
        <ele>1227.3</ele>
        <time>2014-04-04T13:36:10Z</time>
      </trkpt>
      <trkpt lat="45.49449" lon="5.91059">
        <ele>1227</ele>
        <time>2014-04-04T13:36:12Z</time>
      </trkpt>
      <trkpt lat="45.4945" lon="5.91071">
        <ele>1226.4</ele>
        <time>2014-04-04T13:36:14Z</time>
      </trkpt>
      <trkpt lat="45.4945" lon="5.91074">
        <ele>1226.1</ele>
        <time>2014-04-04T13:36:16Z</time>
      </trkpt>
      <trkpt lat="45.49453" lon="5.9108">
        <ele>1225.6</ele>
        <time>2014-04-04T13:36:18Z</time>
      </trkpt>
      <trkpt lat="45.49456" lon="5.91089">
        <ele>1223.9</ele>
        <time>2014-04-04T13:36:20Z</time>
      </trkpt>
      <trkpt lat="45.49459" lon="5.91095">
        <ele>1222.5</ele>
        <time>2014-04-04T13:36:22Z</time>
      </trkpt>
      <trkpt lat="45.49461" lon="5.91098">
        <ele>1221.7</ele>
        <time>2014-04-04T13:36:24Z</time>
      </trkpt>
      <trkpt lat="45.49464" lon="5.91103">
        <ele>1220.4</ele>
        <time>2014-04-04T13:36:26Z</time>
      </trkpt>
      <trkpt lat="45.49469" lon="5.91109">
        <ele>1218.6</ele>
        <time>2014-04-04T13:36:28Z</time>
      </trkpt>
      <trkpt lat="45.49471" lon="5.91111">
        <ele>1218.1</ele>
        <time>2014-04-04T13:36:30Z</time>
      </trkpt>
      <trkpt lat="45.49475" lon="5.91114">
        <ele>1216.8</ele>
        <time>2014-04-04T13:36:32Z</time>
      </trkpt>
      <trkpt lat="45.49481" lon="5.91115">
        <ele>1214.6</ele>
        <time>2014-04-04T13:36:34Z</time>
      </trkpt>
      <trkpt lat="45.49484" lon="5.91115">
        <ele>1213.7</ele>
        <time>2014-04-04T13:36:36Z</time>
      </trkpt>
      <trkpt lat="45.49485" lon="5.91116">
        <ele>1213.3</ele>
        <time>2014-04-04T13:36:38Z</time>
      </trkpt>
      <trkpt lat="45.49489" lon="5.91117">
        <ele>1211.9</ele>
        <time>2014-04-04T13:36:40Z</time>
      </trkpt>
      <trkpt lat="45.49494" lon="5.91117">
        <ele>1210.4</ele>
        <time>2014-04-04T13:36:42Z</time>
      </trkpt>
      <trkpt lat="45.49497" lon="5.91117">
        <ele>1209.7</ele>
        <time>2014-04-04T13:36:44Z</time>
      </trkpt>
      <trkpt lat="45.495" lon="5.91116">
        <ele>1208.9</ele>
        <time>2014-04-04T13:36:46Z</time>
      </trkpt>
      <trkpt lat="45.49502" lon="5.91113">
        <ele>1209.2</ele>
        <time>2014-04-04T13:36:48Z</time>
      </trkpt>
      <trkpt lat="45.49506" lon="5.91113">
        <ele>1208.7</ele>
        <time>2014-04-04T13:36:50Z</time>
      </trkpt>
      <trkpt lat="45.49512" lon="5.91112">
        <ele>1207.5</ele>
        <time>2014-04-04T13:36:52Z</time>
      </trkpt>
      <trkpt lat="45.49514" lon="5.91112">
        <ele>1207.2</ele>
        <time>2014-04-04T13:36:54Z</time>
      </trkpt>
      <trkpt lat="45.49518" lon="5.91111">
        <ele>1206.8</ele>
        <time>2014-04-04T13:36:56Z</time>
      </trkpt>
      <trkpt lat="45.49522" lon="5.91105">
        <ele>1207.3</ele>
        <time>2014-04-04T13:36:58Z</time>
      </trkpt>
      <trkpt lat="45.49524" lon="5.91103">
        <ele>1207.2</ele>
        <time>2014-04-04T13:37:00Z</time>
      </trkpt>
      <trkpt lat="45.49524" lon="5.91104">
        <ele>1207.2</ele>
        <time>2014-04-04T13:37:02Z</time>
      </trkpt>
      <trkpt lat="45.49523" lon="5.91102">
        <ele>1207.6</ele>
        <time>2014-04-04T13:37:04Z</time>
      </trkpt>
      <trkpt lat="45.49523" lon="5.911">
        <ele>1208</ele>
        <time>2014-04-04T13:37:06Z</time>
      </trkpt>
      <trkpt lat="45.49523" lon="5.91099">
        <ele>1208.1</ele>
        <time>2014-04-04T13:37:08Z</time>
      </trkpt>
      <trkpt lat="45.49523" lon="5.91098">
        <ele>1208.4</ele>
        <time>2014-04-04T13:37:10Z</time>
      </trkpt>
      <trkpt lat="45.49521" lon="5.91095">
        <ele>1209.4</ele>
        <time>2014-04-04T13:37:12Z</time>
      </trkpt>
      <trkpt lat="45.4952" lon="5.91093">
        <ele>1210</ele>
        <time>2014-04-04T13:37:14Z</time>
      </trkpt>
      <trkpt lat="45.4952" lon="5.91093">
        <ele>1210.2</ele>
        <time>2014-04-04T13:37:16Z</time>
      </trkpt>
      <trkpt lat="45.49519" lon="5.91091">
        <ele>1210.8</ele>
        <time>2014-04-04T13:37:18Z</time>
      </trkpt>
      <trkpt lat="45.49518" lon="5.9109">
        <ele>1211.2</ele>
        <time>2014-04-04T13:37:20Z</time>
      </trkpt>
      <trkpt lat="45.49517" lon="5.9109">
        <ele>1211.4</ele>
        <time>2014-04-04T13:37:22Z</time>
      </trkpt>
      <trkpt lat="45.49517" lon="5.9109">
        <ele>1211.3</ele>
        <time>2014-04-04T13:37:24Z</time>
      </trkpt>
      <trkpt lat="45.49517" lon="5.91091">
        <ele>1211.1</ele>
        <time>2014-04-04T13:37:26Z</time>
      </trkpt>
      <trkpt lat="45.49517" lon="5.91091">
        <ele>1211</ele>
        <time>2014-04-04T13:37:28Z</time>
      </trkpt>
      <trkpt lat="45.49517" lon="5.91091">
        <ele>1211</ele>
        <time>2014-04-04T13:37:30Z</time>
      </trkpt>
      <trkpt lat="45.49517" lon="5.91092">
        <ele>1210.9</ele>
        <time>2014-04-04T13:37:32Z</time>
      </trkpt>
      <trkpt lat="45.49517" lon="5.91092">
        <ele>1210.8</ele>
        <time>2014-04-04T13:37:34Z</time>
      </trkpt>
      <trkpt lat="45.49518" lon="5.91093">
        <ele>1210.7</ele>
        <time>2014-04-04T13:37:36Z</time>
      </trkpt>
      <trkpt lat="45.49518" lon="5.91093">
        <ele>1210.6</ele>
        <time>2014-04-04T13:37:38Z</time>
      </trkpt>
      <trkpt lat="45.49519" lon="5.91096">
        <ele>1209.7</ele>
        <time>2014-04-04T13:37:40Z</time>
      </trkpt>
      <trkpt lat="45.4952" lon="5.91098">
        <ele>1209.1</ele>
        <time>2014-04-04T13:37:42Z</time>
      </trkpt>
      <trkpt lat="45.49519" lon="5.91101">
        <ele>1208.6</ele>
        <time>2014-04-04T13:37:44Z</time>
      </trkpt>
      <trkpt lat="45.49519" lon="5.91103">
        <ele>1208.3</ele>
        <time>2014-04-04T13:37:46Z</time>
      </trkpt>
      <trkpt lat="45.49518" lon="5.91108">
        <ele>1207.4</ele>
        <time>2014-04-04T13:37:48Z</time>
      </trkpt>
      <trkpt lat="45.49517" lon="5.91114">
        <ele>1206</ele>
        <time>2014-04-04T13:37:50Z</time>
      </trkpt>
      <trkpt lat="45.49515" lon="5.91118">
        <ele>1205.6</ele>
        <time>2014-04-04T13:37:52Z</time>
      </trkpt>
      <trkpt lat="45.49514" lon="5.9112">
        <ele>1205.3</ele>
        <time>2014-04-04T13:37:54Z</time>
      </trkpt>
      <trkpt lat="45.49514" lon="5.91125">
        <ele>1203.8</ele>
        <time>2014-04-04T13:37:56Z</time>
      </trkpt>
      <trkpt lat="45.49512" lon="5.91132">
        <ele>1202.3</ele>
        <time>2014-04-04T13:37:58Z</time>
      </trkpt>
      <trkpt lat="45.4951" lon="5.91135">
        <ele>1201.9</ele>
        <time>2014-04-04T13:38:00Z</time>
      </trkpt>
      <trkpt lat="45.49507" lon="5.91138">
        <ele>1201.9</ele>
        <time>2014-04-04T13:38:02Z</time>
      </trkpt>
      <trkpt lat="45.49501" lon="5.91143">
        <ele>1201.8</ele>
        <time>2014-04-04T13:38:04Z</time>
      </trkpt>
      <trkpt lat="45.49493" lon="5.9115">
        <ele>1202.1</ele>
        <time>2014-04-04T13:38:06Z</time>
      </trkpt>
      <trkpt lat="45.4949" lon="5.91153">
        <ele>1202</ele>
        <time>2014-04-04T13:38:08Z</time>
      </trkpt>
      <trkpt lat="45.49484" lon="5.91158">
        <ele>1201.8</ele>
        <time>2014-04-04T13:38:10Z</time>
      </trkpt>
      <trkpt lat="45.49479" lon="5.91162">
        <ele>1201</ele>
        <time>2014-04-04T13:38:12Z</time>
      </trkpt>
      <trkpt lat="45.49473" lon="5.91168">
        <ele>1199.5</ele>
        <time>2014-04-04T13:38:14Z</time>
      </trkpt>
      <trkpt lat="45.4947" lon="5.91169">
        <ele>1199.3</ele>
        <time>2014-04-04T13:38:16Z</time>
      </trkpt>
      <trkpt lat="45.49463" lon="5.91171">
        <ele>1198.6</ele>
        <time>2014-04-04T13:38:18Z</time>
      </trkpt>
      <trkpt lat="45.49453" lon="5.91173">
        <ele>1197.9</ele>
        <time>2014-04-04T13:38:20Z</time>
      </trkpt>
      <trkpt lat="45.49451" lon="5.91174">
        <ele>1197.7</ele>
        <time>2014-04-04T13:38:22Z</time>
      </trkpt>
      <trkpt lat="45.49446" lon="5.91175">
        <ele>1197.4</ele>
        <time>2014-04-04T13:38:24Z</time>
      </trkpt>
      <trkpt lat="45.49445" lon="5.91175">
        <ele>1197.4</ele>
        <time>2014-04-04T13:38:26Z</time>
      </trkpt>
      <trkpt lat="45.49441" lon="5.91178">
        <ele>1196.5</ele>
        <time>2014-04-04T13:38:28Z</time>
      </trkpt>
      <trkpt lat="45.4944" lon="5.9118">
        <ele>1196</ele>
        <time>2014-04-04T13:38:30Z</time>
      </trkpt>
      <trkpt lat="45.4944" lon="5.91183">
        <ele>1195.1</ele>
        <time>2014-04-04T13:38:32Z</time>
      </trkpt>
      <trkpt lat="45.49443" lon="5.91184">
        <ele>1194.4</ele>
        <time>2014-04-04T13:38:34Z</time>
      </trkpt>
      <trkpt lat="45.49446" lon="5.91185">
        <ele>1194</ele>
        <time>2014-04-04T13:38:36Z</time>
      </trkpt>
      <trkpt lat="45.49448" lon="5.91186">
        <ele>1193.7</ele>
        <time>2014-04-04T13:38:38Z</time>
      </trkpt>
      <trkpt lat="45.49452" lon="5.91187">
        <ele>1193.3</ele>
        <time>2014-04-04T13:38:40Z</time>
      </trkpt>
      <trkpt lat="45.49457" lon="5.91191">
        <ele>1192.3</ele>
        <time>2014-04-04T13:38:42Z</time>
      </trkpt>
      <trkpt lat="45.4946" lon="5.91193">
        <ele>1191.4</ele>
        <time>2014-04-04T13:38:44Z</time>
      </trkpt>
      <trkpt lat="45.49463" lon="5.91194">
        <ele>1191.3</ele>
        <time>2014-04-04T13:38:46Z</time>
      </trkpt>
      <trkpt lat="45.4947" lon="5.91198">
        <ele>1189.4</ele>
        <time>2014-04-04T13:38:48Z</time>
      </trkpt>
      <trkpt lat="45.49474" lon="5.91202">
        <ele>1187.3</ele>
        <time>2014-04-04T13:38:50Z</time>
      </trkpt>
      <trkpt lat="45.49476" lon="5.91203">
        <ele>1186.5</ele>
        <time>2014-04-04T13:38:52Z</time>
      </trkpt>
      <trkpt lat="45.49479" lon="5.91205">
        <ele>1185.2</ele>
        <time>2014-04-04T13:38:54Z</time>
      </trkpt>
      <trkpt lat="45.49487" lon="5.91208">
        <ele>1182.9</ele>
        <time>2014-04-04T13:38:56Z</time>
      </trkpt>
      <trkpt lat="45.49493" lon="5.91208">
        <ele>1182.1</ele>
        <time>2014-04-04T13:38:58Z</time>
      </trkpt>
      <trkpt lat="45.49495" lon="5.91209">
        <ele>1181.6</ele>
        <time>2014-04-04T13:39:00Z</time>
      </trkpt>
      <trkpt lat="45.49501" lon="5.91207">
        <ele>1181</ele>
        <time>2014-04-04T13:39:02Z</time>
      </trkpt>
      <trkpt lat="45.4951" lon="5.91202">
        <ele>1180.2</ele>
        <time>2014-04-04T13:39:04Z</time>
      </trkpt>
      <trkpt lat="45.49515" lon="5.912">
        <ele>1179.4</ele>
        <time>2014-04-04T13:39:06Z</time>
      </trkpt>
      <trkpt lat="45.49518" lon="5.91198">
        <ele>1179</ele>
        <time>2014-04-04T13:39:08Z</time>
      </trkpt>
      <trkpt lat="45.49524" lon="5.91196">
        <ele>1178.3</ele>
        <time>2014-04-04T13:39:10Z</time>
      </trkpt>
      <trkpt lat="45.49532" lon="5.91191">
        <ele>1177.6</ele>
        <time>2014-04-04T13:39:12Z</time>
      </trkpt>
      <trkpt lat="45.49538" lon="5.91189">
        <ele>1176.6</ele>
        <time>2014-04-04T13:39:14Z</time>
      </trkpt>
      <trkpt lat="45.4954" lon="5.91187">
        <ele>1176.2</ele>
        <time>2014-04-04T13:39:16Z</time>
      </trkpt>
      <trkpt lat="45.49543" lon="5.91183">
        <ele>1176.2</ele>
        <time>2014-04-04T13:39:18Z</time>
      </trkpt>
      <trkpt lat="45.49552" lon="5.9118">
        <ele>1173.9</ele>
        <time>2014-04-04T13:39:20Z</time>
      </trkpt>
      <trkpt lat="45.49555" lon="5.91179">
        <ele>1173.2</ele>
        <time>2014-04-04T13:39:22Z</time>
      </trkpt>
      <trkpt lat="45.4956" lon="5.91177">
        <ele>1172.5</ele>
        <time>2014-04-04T13:39:24Z</time>
      </trkpt>
      <trkpt lat="45.49565" lon="5.91175">
        <ele>1172.2</ele>
        <time>2014-04-04T13:39:26Z</time>
      </trkpt>
      <trkpt lat="45.49571" lon="5.91175">
        <ele>1170.9</ele>
        <time>2014-04-04T13:39:28Z</time>
      </trkpt>
      <trkpt lat="45.49573" lon="5.91178">
        <ele>1170</ele>
        <time>2014-04-04T13:39:30Z</time>
      </trkpt>
      <trkpt lat="45.49573" lon="5.91184">
        <ele>1168.6</ele>
        <time>2014-04-04T13:39:32Z</time>
      </trkpt>
      <trkpt lat="45.49571" lon="5.91191">
        <ele>1167.5</ele>
        <time>2014-04-04T13:39:34Z</time>
      </trkpt>
      <trkpt lat="45.49569" lon="5.91196">
        <ele>1166.5</ele>
        <time>2014-04-04T13:39:36Z</time>
      </trkpt>
      <trkpt lat="45.49568" lon="5.91199">
        <ele>1165.7</ele>
        <time>2014-04-04T13:39:38Z</time>
      </trkpt>
      <trkpt lat="45.49565" lon="5.91205">
        <ele>1164.4</ele>
        <time>2014-04-04T13:39:40Z</time>
      </trkpt>
      <trkpt lat="45.49562" lon="5.91211">
        <ele>1163</ele>
        <time>2014-04-04T13:39:42Z</time>
      </trkpt>
      <trkpt lat="45.49561" lon="5.91214">
        <ele>1162.4</ele>
        <time>2014-04-04T13:39:44Z</time>
      </trkpt>
      <trkpt lat="45.49558" lon="5.91219">
        <ele>1161.3</ele>
        <time>2014-04-04T13:39:46Z</time>
      </trkpt>
      <trkpt lat="45.49555" lon="5.91225">
        <ele>1160.4</ele>
        <time>2014-04-04T13:39:48Z</time>
      </trkpt>
      <trkpt lat="45.49547" lon="5.91233">
        <ele>1159.8</ele>
        <time>2014-04-04T13:39:50Z</time>
      </trkpt>
      <trkpt lat="45.49545" lon="5.91235">
        <ele>1159.4</ele>
        <time>2014-04-04T13:39:52Z</time>
      </trkpt>
      <trkpt lat="45.49541" lon="5.9124">
        <ele>1158.8</ele>
        <time>2014-04-04T13:39:54Z</time>
      </trkpt>
      <trkpt lat="45.49537" lon="5.91244">
        <ele>1158.1</ele>
        <time>2014-04-04T13:39:56Z</time>
      </trkpt>
      <trkpt lat="45.49529" lon="5.91251">
        <ele>1157.4</ele>
        <time>2014-04-04T13:39:58Z</time>
      </trkpt>
      <trkpt lat="45.49526" lon="5.91253">
        <ele>1157</ele>
        <time>2014-04-04T13:40:00Z</time>
      </trkpt>
      <trkpt lat="45.49521" lon="5.91258">
        <ele>1155.8</ele>
        <time>2014-04-04T13:40:02Z</time>
      </trkpt>
      <trkpt lat="45.49513" lon="5.91264">
        <ele>1154.7</ele>
        <time>2014-04-04T13:40:04Z</time>
      </trkpt>
      <trkpt lat="45.49508" lon="5.91268">
        <ele>1154.1</ele>
        <time>2014-04-04T13:40:06Z</time>
      </trkpt>
      <trkpt lat="45.49505" lon="5.9127">
        <ele>1154</ele>
        <time>2014-04-04T13:40:08Z</time>
      </trkpt>
      <trkpt lat="45.49499" lon="5.91274">
        <ele>1153.7</ele>
        <time>2014-04-04T13:40:10Z</time>
      </trkpt>
      <trkpt lat="45.4949" lon="5.91279">
        <ele>1152.1</ele>
        <time>2014-04-04T13:40:12Z</time>
      </trkpt>
      <trkpt lat="45.49487" lon="5.9128">
        <ele>1151.8</ele>
        <time>2014-04-04T13:40:14Z</time>
      </trkpt>
      <trkpt lat="45.49482" lon="5.91282">
        <ele>1151.3</ele>
        <time>2014-04-04T13:40:16Z</time>
      </trkpt>
      <trkpt lat="45.49477" lon="5.91284">
        <ele>1151.1</ele>
        <time>2014-04-04T13:40:18Z</time>
      </trkpt>
      <trkpt lat="45.49468" lon="5.91285">
        <ele>1151.5</ele>
        <time>2014-04-04T13:40:20Z</time>
      </trkpt>
      <trkpt lat="45.49466" lon="5.91286">
        <ele>1151.4</ele>
        <time>2014-04-04T13:40:22Z</time>
      </trkpt>
      <trkpt lat="45.49461" lon="5.91289">
        <ele>1150.9</ele>
        <time>2014-04-04T13:40:24Z</time>
      </trkpt>
      <trkpt lat="45.49452" lon="5.91293">
        <ele>1150.1</ele>
        <time>2014-04-04T13:40:26Z</time>
      </trkpt>
      <trkpt lat="45.49446" lon="5.91296">
        <ele>1149.7</ele>
        <time>2014-04-04T13:40:28Z</time>
      </trkpt>
      <trkpt lat="45.49443" lon="5.91297">
        <ele>1149.4</ele>
        <time>2014-04-04T13:40:30Z</time>
      </trkpt>
      <trkpt lat="45.49438" lon="5.91298">
        <ele>1148.4</ele>
        <time>2014-04-04T13:40:32Z</time>
      </trkpt>
      <trkpt lat="45.4943" lon="5.91301">
        <ele>1146.4</ele>
        <time>2014-04-04T13:40:34Z</time>
      </trkpt>
      <trkpt lat="45.49426" lon="5.91303">
        <ele>1145.4</ele>
        <time>2014-04-04T13:40:36Z</time>
      </trkpt>
      <trkpt lat="45.49424" lon="5.91303">
        <ele>1145.3</ele>
        <time>2014-04-04T13:40:38Z</time>
      </trkpt>
      <trkpt lat="45.49419" lon="5.91305">
        <ele>1143.8</ele>
        <time>2014-04-04T13:40:40Z</time>
      </trkpt>
      <trkpt lat="45.49415" lon="5.91305">
        <ele>1143</ele>
        <time>2014-04-04T13:40:42Z</time>
      </trkpt>
      <trkpt lat="45.49412" lon="5.91306">
        <ele>1142.8</ele>
        <time>2014-04-04T13:40:44Z</time>
      </trkpt>
      <trkpt lat="45.49407" lon="5.91306">
        <ele>1142.3</ele>
        <time>2014-04-04T13:40:46Z</time>
      </trkpt>
      <trkpt lat="45.49401" lon="5.91308">
        <ele>1141.6</ele>
        <time>2014-04-04T13:40:48Z</time>
      </trkpt>
      <trkpt lat="45.49391" lon="5.91308">
        <ele>1141</ele>
        <time>2014-04-04T13:40:50Z</time>
      </trkpt>
      <trkpt lat="45.49387" lon="5.91308">
        <ele>1140.9</ele>
        <time>2014-04-04T13:40:52Z</time>
      </trkpt>
      <trkpt lat="45.49377" lon="5.91309">
        <ele>1139.6</ele>
        <time>2014-04-04T13:40:54Z</time>
      </trkpt>
      <trkpt lat="45.49365" lon="5.91309">
        <ele>1139</ele>
        <time>2014-04-04T13:40:56Z</time>
      </trkpt>
      <trkpt lat="45.49358" lon="5.91311">
        <ele>1137.2</ele>
        <time>2014-04-04T13:40:58Z</time>
      </trkpt>
      <trkpt lat="45.49354" lon="5.91312">
        <ele>1136.1</ele>
        <time>2014-04-04T13:41:00Z</time>
      </trkpt>
      <trkpt lat="45.49347" lon="5.91314">
        <ele>1134.6</ele>
        <time>2014-04-04T13:41:02Z</time>
      </trkpt>
      <trkpt lat="45.49336" lon="5.91315">
        <ele>1132.2</ele>
        <time>2014-04-04T13:41:04Z</time>
      </trkpt>
      <trkpt lat="45.49333" lon="5.91315">
        <ele>1131.8</ele>
        <time>2014-04-04T13:41:06Z</time>
      </trkpt>
      <trkpt lat="45.49326" lon="5.91317">
        <ele>1130.1</ele>
        <time>2014-04-04T13:41:08Z</time>
      </trkpt>
      <trkpt lat="45.49318" lon="5.91318">
        <ele>1128.8</ele>
        <time>2014-04-04T13:41:10Z</time>
      </trkpt>
      <trkpt lat="45.49313" lon="5.91318">
        <ele>1128.4</ele>
        <time>2014-04-04T13:41:12Z</time>
      </trkpt>
      <trkpt lat="45.4931" lon="5.91317">
        <ele>1128.2</ele>
        <time>2014-04-04T13:41:14Z</time>
      </trkpt>
      <trkpt lat="45.49304" lon="5.91317">
        <ele>1127.8</ele>
        <time>2014-04-04T13:41:16Z</time>
      </trkpt>
      <trkpt lat="45.49296" lon="5.91317">
        <ele>1126.7</ele>
        <time>2014-04-04T13:41:18Z</time>
      </trkpt>
      <trkpt lat="45.49287" lon="5.91316">
        <ele>1125.7</ele>
        <time>2014-04-04T13:41:20Z</time>
      </trkpt>
      <trkpt lat="45.49286" lon="5.91314">
        <ele>1125.9</ele>
        <time>2014-04-04T13:41:22Z</time>
      </trkpt>
      <trkpt lat="45.49284" lon="5.91317">
        <ele>1125</ele>
        <time>2014-04-04T13:41:24Z</time>
      </trkpt>
      <trkpt lat="45.49284" lon="5.9132">
        <ele>1124.1</ele>
        <time>2014-04-04T13:41:26Z</time>
      </trkpt>
      <trkpt lat="45.49286" lon="5.91321">
        <ele>1124.1</ele>
        <time>2014-04-04T13:41:28Z</time>
      </trkpt>
      <trkpt lat="45.49287" lon="5.91321">
        <ele>1124.2</ele>
        <time>2014-04-04T13:41:30Z</time>
      </trkpt>
      <trkpt lat="45.49291" lon="5.91323">
        <ele>1124.1</ele>
        <time>2014-04-04T13:41:32Z</time>
      </trkpt>
      <trkpt lat="45.49296" lon="5.91327">
        <ele>1123.2</ele>
        <time>2014-04-04T13:41:34Z</time>
      </trkpt>
      <trkpt lat="45.49297" lon="5.91328">
        <ele>1123</ele>
        <time>2014-04-04T13:41:36Z</time>
      </trkpt>
      <trkpt lat="45.49299" lon="5.91331">
        <ele>1122.4</ele>
        <time>2014-04-04T13:41:38Z</time>
      </trkpt>
      <trkpt lat="45.49304" lon="5.91336">
        <ele>1120.8</ele>
        <time>2014-04-04T13:41:40Z</time>
      </trkpt>
      <trkpt lat="45.49306" lon="5.91339">
        <ele>1119.8</ele>
        <time>2014-04-04T13:41:42Z</time>
      </trkpt>
      <trkpt lat="45.49311" lon="5.91344">
        <ele>1118</ele>
        <time>2014-04-04T13:41:44Z</time>
      </trkpt>
      <trkpt lat="45.49316" lon="5.91347">
        <ele>1117.3</ele>
        <time>2014-04-04T13:41:46Z</time>
      </trkpt>
      <trkpt lat="45.49325" lon="5.91349">
        <ele>1117.1</ele>
        <time>2014-04-04T13:41:48Z</time>
      </trkpt>
      <trkpt lat="45.4933" lon="5.91351">
        <ele>1116.7</ele>
        <time>2014-04-04T13:41:50Z</time>
      </trkpt>
      <trkpt lat="45.49332" lon="5.91353">
        <ele>1116.2</ele>
        <time>2014-04-04T13:41:52Z</time>
      </trkpt>
      <trkpt lat="45.49338" lon="5.91356">
        <ele>1115.4</ele>
        <time>2014-04-04T13:41:54Z</time>
      </trkpt>
      <trkpt lat="45.49345" lon="5.91364">
        <ele>1113.4</ele>
        <time>2014-04-04T13:41:56Z</time>
      </trkpt>
      <trkpt lat="45.49349" lon="5.9137">
        <ele>1111.6</ele>
        <time>2014-04-04T13:41:58Z</time>
      </trkpt>
      <trkpt lat="45.49352" lon="5.91373">
        <ele>1110.8</ele>
        <time>2014-04-04T13:42:00Z</time>
      </trkpt>
      <trkpt lat="45.49357" lon="5.91376">
        <ele>1110.1</ele>
        <time>2014-04-04T13:42:02Z</time>
      </trkpt>
      <trkpt lat="45.49366" lon="5.9138">
        <ele>1109.8</ele>
        <time>2014-04-04T13:42:04Z</time>
      </trkpt>
      <trkpt lat="45.49369" lon="5.91382">
        <ele>1109.4</ele>
        <time>2014-04-04T13:42:06Z</time>
      </trkpt>
      <trkpt lat="45.49373" lon="5.91383">
        <ele>1109.4</ele>
        <time>2014-04-04T13:42:08Z</time>
      </trkpt>
      <trkpt lat="45.4938" lon="5.91386">
        <ele>1109.1</ele>
        <time>2014-04-04T13:42:10Z</time>
      </trkpt>
      <trkpt lat="45.49386" lon="5.91392">
        <ele>1107.5</ele>
        <time>2014-04-04T13:42:12Z</time>
      </trkpt>
      <trkpt lat="45.49389" lon="5.91394">
        <ele>1107.3</ele>
        <time>2014-04-04T13:42:14Z</time>
      </trkpt>
      <trkpt lat="45.49393" lon="5.91397">
        <ele>1106.1</ele>
        <time>2014-04-04T13:42:16Z</time>
      </trkpt>
      <trkpt lat="45.494" lon="5.91401">
        <ele>1104.6</ele>
        <time>2014-04-04T13:42:18Z</time>
      </trkpt>
      <trkpt lat="45.49404" lon="5.914">
        <ele>1104.6</ele>
        <time>2014-04-04T13:42:20Z</time>
      </trkpt>
      <trkpt lat="45.49407" lon="5.91402">
        <ele>1104.1</ele>
        <time>2014-04-04T13:42:22Z</time>
      </trkpt>
      <trkpt lat="45.49413" lon="5.91405">
        <ele>1102.9</ele>
        <time>2014-04-04T13:42:24Z</time>
      </trkpt>
      <trkpt lat="45.49422" lon="5.91407">
        <ele>1101.8</ele>
        <time>2014-04-04T13:42:26Z</time>
      </trkpt>
      <trkpt lat="45.49427" lon="5.91409">
        <ele>1100.9</ele>
        <time>2014-04-04T13:42:28Z</time>
      </trkpt>
      <trkpt lat="45.4943" lon="5.91409">
        <ele>1100.5</ele>
        <time>2014-04-04T13:42:30Z</time>
      </trkpt>
      <trkpt lat="45.4944" lon="5.91409">
        <ele>1100</ele>
        <time>2014-04-04T13:42:32Z</time>
      </trkpt>
      <trkpt lat="45.49446" lon="5.91408">
        <ele>1100</ele>
        <time>2014-04-04T13:42:34Z</time>
      </trkpt>
      <trkpt lat="45.49451" lon="5.91406">
        <ele>1100.4</ele>
        <time>2014-04-04T13:42:36Z</time>
      </trkpt>
      <trkpt lat="45.49453" lon="5.91406">
        <ele>1100.6</ele>
        <time>2014-04-04T13:42:38Z</time>
      </trkpt>
      <trkpt lat="45.4946" lon="5.91405">
        <ele>1100.4</ele>
        <time>2014-04-04T13:42:40Z</time>
      </trkpt>
      <trkpt lat="45.49469" lon="5.91403">
        <ele>1100.5</ele>
        <time>2014-04-04T13:42:42Z</time>
      </trkpt>
      <trkpt lat="45.49472" lon="5.91403">
        <ele>1100.5</ele>
        <time>2014-04-04T13:42:44Z</time>
      </trkpt>
      <trkpt lat="45.49479" lon="5.91403">
        <ele>1100</ele>
        <time>2014-04-04T13:42:46Z</time>
      </trkpt>
      <trkpt lat="45.49486" lon="5.91401">
        <ele>1100</ele>
        <time>2014-04-04T13:42:48Z</time>
      </trkpt>
      <trkpt lat="45.49493" lon="5.91403">
        <ele>1099</ele>
        <time>2014-04-04T13:42:50Z</time>
      </trkpt>
      <trkpt lat="45.49497" lon="5.91403">
        <ele>1098.7</ele>
        <time>2014-04-04T13:42:52Z</time>
      </trkpt>
      <trkpt lat="45.49505" lon="5.91403">
        <ele>1097.8</ele>
        <time>2014-04-04T13:42:54Z</time>
      </trkpt>
      <trkpt lat="45.49516" lon="5.91406">
        <ele>1095.6</ele>
        <time>2014-04-04T13:42:56Z</time>
      </trkpt>
      <trkpt lat="45.4952" lon="5.91407">
        <ele>1095.1</ele>
        <time>2014-04-04T13:42:58Z</time>
      </trkpt>
      <trkpt lat="45.49526" lon="5.91408">
        <ele>1094.1</ele>
        <time>2014-04-04T13:43:00Z</time>
      </trkpt>
      <trkpt lat="45.49535" lon="5.9141">
        <ele>1092.4</ele>
        <time>2014-04-04T13:43:02Z</time>
      </trkpt>
      <trkpt lat="45.4954" lon="5.9141">
        <ele>1091.7</ele>
        <time>2014-04-04T13:43:04Z</time>
      </trkpt>
      <trkpt lat="45.49543" lon="5.9141">
        <ele>1091.6</ele>
        <time>2014-04-04T13:43:06Z</time>
      </trkpt>
      <trkpt lat="45.49549" lon="5.91409">
        <ele>1091.1</ele>
        <time>2014-04-04T13:43:08Z</time>
      </trkpt>
      <trkpt lat="45.49554" lon="5.91409">
        <ele>1090.7</ele>
        <time>2014-04-04T13:43:10Z</time>
      </trkpt>
      <trkpt lat="45.49564" lon="5.91409">
        <ele>1089.7</ele>
        <time>2014-04-04T13:43:12Z</time>
      </trkpt>
      <trkpt lat="45.49567" lon="5.9141">
        <ele>1089.4</ele>
        <time>2014-04-04T13:43:14Z</time>
      </trkpt>
      <trkpt lat="45.49573" lon="5.91409">
        <ele>1089</ele>
        <time>2014-04-04T13:43:16Z</time>
      </trkpt>
      <trkpt lat="45.49579" lon="5.91408">
        <ele>1088.7</ele>
        <time>2014-04-04T13:43:18Z</time>
      </trkpt>
      <trkpt lat="45.49584" lon="5.91408">
        <ele>1088.3</ele>
        <time>2014-04-04T13:43:20Z</time>
      </trkpt>
      <trkpt lat="45.49587" lon="5.91408">
        <ele>1088.1</ele>
        <time>2014-04-04T13:43:22Z</time>
      </trkpt>
      <trkpt lat="45.49592" lon="5.91408">
        <ele>1087.4</ele>
        <time>2014-04-04T13:43:24Z</time>
      </trkpt>
      <trkpt lat="45.49604" lon="5.91407">
        <ele>1086.3</ele>
        <time>2014-04-04T13:43:26Z</time>
      </trkpt>
      <trkpt lat="45.49607" lon="5.91406">
        <ele>1086.2</ele>
        <time>2014-04-04T13:43:28Z</time>
      </trkpt>
      <trkpt lat="45.49612" lon="5.91405">
        <ele>1085.8</ele>
        <time>2014-04-04T13:43:30Z</time>
      </trkpt>
      <trkpt lat="45.49618" lon="5.91401">
        <ele>1085.2</ele>
        <time>2014-04-04T13:43:32Z</time>
      </trkpt>
      <trkpt lat="45.49625" lon="5.91395">
        <ele>1084.6</ele>
        <time>2014-04-04T13:43:34Z</time>
      </trkpt>
      <trkpt lat="45.49627" lon="5.91392">
        <ele>1084.6</ele>
        <time>2014-04-04T13:43:36Z</time>
      </trkpt>
      <trkpt lat="45.49633" lon="5.91388">
        <ele>1084</ele>
        <time>2014-04-04T13:43:38Z</time>
      </trkpt>
      <trkpt lat="45.49639" lon="5.91386">
        <ele>1082.6</ele>
        <time>2014-04-04T13:43:40Z</time>
      </trkpt>
      <trkpt lat="45.49646" lon="5.91385">
        <ele>1080.9</ele>
        <time>2014-04-04T13:43:42Z</time>
      </trkpt>
      <trkpt lat="45.4965" lon="5.91384">
        <ele>1080.3</ele>
        <time>2014-04-04T13:43:44Z</time>
      </trkpt>
      <trkpt lat="45.49655" lon="5.91383">
        <ele>1079.2</ele>
        <time>2014-04-04T13:43:46Z</time>
      </trkpt>
      <trkpt lat="45.49661" lon="5.91381">
        <ele>1078.3</ele>
        <time>2014-04-04T13:43:48Z</time>
      </trkpt>
      <trkpt lat="45.49666" lon="5.91378">
        <ele>1078.1</ele>
        <time>2014-04-04T13:43:50Z</time>
      </trkpt>
      <trkpt lat="45.49669" lon="5.91377">
        <ele>1077.7</ele>
        <time>2014-04-04T13:43:52Z</time>
      </trkpt>
      <trkpt lat="45.49677" lon="5.91374">
        <ele>1076.9</ele>
        <time>2014-04-04T13:43:54Z</time>
      </trkpt>
      <trkpt lat="45.49683" lon="5.91375">
        <ele>1075.3</ele>
        <time>2014-04-04T13:43:56Z</time>
      </trkpt>
      <trkpt lat="45.49686" lon="5.91376">
        <ele>1074.5</ele>
        <time>2014-04-04T13:43:58Z</time>
      </trkpt>
      <trkpt lat="45.49691" lon="5.91375">
        <ele>1073.8</ele>
        <time>2014-04-04T13:44:00Z</time>
      </trkpt>
      <trkpt lat="45.49699" lon="5.91374">
        <ele>1073.1</ele>
        <time>2014-04-04T13:44:02Z</time>
      </trkpt>
      <trkpt lat="45.49706" lon="5.91374">
        <ele>1072.6</ele>
        <time>2014-04-04T13:44:04Z</time>
      </trkpt>
      <trkpt lat="45.49709" lon="5.91375">
        <ele>1072.2</ele>
        <time>2014-04-04T13:44:06Z</time>
      </trkpt>
      <trkpt lat="45.49716" lon="5.91376">
        <ele>1071.6</ele>
        <time>2014-04-04T13:44:08Z</time>
      </trkpt>
      <trkpt lat="45.49729" lon="5.91378">
        <ele>1070</ele>
        <time>2014-04-04T13:44:10Z</time>
      </trkpt>
      <trkpt lat="45.49736" lon="5.9138">
        <ele>1068.7</ele>
        <time>2014-04-04T13:44:12Z</time>
      </trkpt>
      <trkpt lat="45.4974" lon="5.91382">
        <ele>1068</ele>
        <time>2014-04-04T13:44:14Z</time>
      </trkpt>
      <trkpt lat="45.49748" lon="5.91384">
        <ele>1066.9</ele>
        <time>2014-04-04T13:44:16Z</time>
      </trkpt>
      <trkpt lat="45.49759" lon="5.91382">
        <ele>1066.2</ele>
        <time>2014-04-04T13:44:18Z</time>
      </trkpt>
      <trkpt lat="45.49763" lon="5.91381">
        <ele>1066</ele>
        <time>2014-04-04T13:44:20Z</time>
      </trkpt>
      <trkpt lat="45.49771" lon="5.91377">
        <ele>1065.6</ele>
        <time>2014-04-04T13:44:22Z</time>
      </trkpt>
      <trkpt lat="45.49775" lon="5.91371">
        <ele>1065.7</ele>
        <time>2014-04-04T13:44:24Z</time>
      </trkpt>
      <trkpt lat="45.4978" lon="5.91362">
        <ele>1065</ele>
        <time>2014-04-04T13:44:26Z</time>
      </trkpt>
      <trkpt lat="45.49781" lon="5.91359">
        <ele>1064.4</ele>
        <time>2014-04-04T13:44:28Z</time>
      </trkpt>
      <trkpt lat="45.49782" lon="5.91352">
        <ele>1063.4</ele>
        <time>2014-04-04T13:44:30Z</time>
      </trkpt>
      <trkpt lat="45.49783" lon="5.91345">
        <ele>1062.3</ele>
        <time>2014-04-04T13:44:32Z</time>
      </trkpt>
      <trkpt lat="45.49784" lon="5.91334">
        <ele>1061</ele>
        <time>2014-04-04T13:44:34Z</time>
      </trkpt>
      <trkpt lat="45.49785" lon="5.91329">
        <ele>1060.1</ele>
        <time>2014-04-04T13:44:36Z</time>
      </trkpt>
      <trkpt lat="45.49785" lon="5.91321">
        <ele>1059.3</ele>
        <time>2014-04-04T13:44:38Z</time>
      </trkpt>
      <trkpt lat="45.49784" lon="5.9131">
        <ele>1058.6</ele>
        <time>2014-04-04T13:44:40Z</time>
      </trkpt>
      <trkpt lat="45.49784" lon="5.91302">
        <ele>1057.9</ele>
        <time>2014-04-04T13:44:42Z</time>
      </trkpt>
      <trkpt lat="45.49784" lon="5.91297">
        <ele>1057.4</ele>
        <time>2014-04-04T13:44:44Z</time>
      </trkpt>
      <trkpt lat="45.49783" lon="5.91288">
        <ele>1056.9</ele>
        <time>2014-04-04T13:44:46Z</time>
      </trkpt>
      <trkpt lat="45.49781" lon="5.91279">
        <ele>1056.8</ele>
        <time>2014-04-04T13:44:48Z</time>
      </trkpt>
      <trkpt lat="45.4978" lon="5.91271">
        <ele>1056.9</ele>
        <time>2014-04-04T13:44:50Z</time>
      </trkpt>
      <trkpt lat="45.49778" lon="5.91262">
        <ele>1057.4</ele>
        <time>2014-04-04T13:44:52Z</time>
      </trkpt>
      <trkpt lat="45.49777" lon="5.91253">
        <ele>1057</ele>
        <time>2014-04-04T13:44:54Z</time>
      </trkpt>
      <trkpt lat="45.49776" lon="5.91243">
        <ele>1056.1</ele>
        <time>2014-04-04T13:44:56Z</time>
      </trkpt>
      <trkpt lat="45.49777" lon="5.91237">
        <ele>1055.3</ele>
        <time>2014-04-04T13:44:58Z</time>
      </trkpt>
      <trkpt lat="45.49777" lon="5.91234">
        <ele>1054.5</ele>
        <time>2014-04-04T13:45:00Z</time>
      </trkpt>
      <trkpt lat="45.4978" lon="5.91227">
        <ele>1052.4</ele>
        <time>2014-04-04T13:45:02Z</time>
      </trkpt>
      <trkpt lat="45.49785" lon="5.91225">
        <ele>1049.4</ele>
        <time>2014-04-04T13:45:04Z</time>
      </trkpt>
      <trkpt lat="45.49786" lon="5.91227">
        <ele>1048.7</ele>
        <time>2014-04-04T13:45:06Z</time>
      </trkpt>
      <trkpt lat="45.49787" lon="5.91232">
        <ele>1048.6</ele>
        <time>2014-04-04T13:45:08Z</time>
      </trkpt>
      <trkpt lat="45.49791" lon="5.9124">
        <ele>1047.1</ele>
        <time>2014-04-04T13:45:10Z</time>
      </trkpt>
      <trkpt lat="45.49794" lon="5.91248">
        <ele>1046.2</ele>
        <time>2014-04-04T13:45:12Z</time>
      </trkpt>
      <trkpt lat="45.49795" lon="5.91251">
        <ele>1045.5</ele>
        <time>2014-04-04T13:45:14Z</time>
      </trkpt>
      <trkpt lat="45.49798" lon="5.91258">
        <ele>1044.2</ele>
        <time>2014-04-04T13:45:16Z</time>
      </trkpt>
      <trkpt lat="45.49802" lon="5.91266">
        <ele>1042.3</ele>
        <time>2014-04-04T13:45:18Z</time>
      </trkpt>
      <trkpt lat="45.49804" lon="5.91269">
        <ele>1041.3</ele>
        <time>2014-04-04T13:45:20Z</time>
      </trkpt>
      <trkpt lat="45.49808" lon="5.91276">
        <ele>1039.3</ele>
        <time>2014-04-04T13:45:22Z</time>
      </trkpt>
      <trkpt lat="45.49811" lon="5.91286">
        <ele>1037.3</ele>
        <time>2014-04-04T13:45:24Z</time>
      </trkpt>
      <trkpt lat="45.49815" lon="5.91292">
        <ele>1034.8</ele>
        <time>2014-04-04T13:45:26Z</time>
      </trkpt>
      <trkpt lat="45.49818" lon="5.91299">
        <ele>1033</ele>
        <time>2014-04-04T13:45:28Z</time>
      </trkpt>
      <trkpt lat="45.4982" lon="5.91302">
        <ele>1032.1</ele>
        <time>2014-04-04T13:45:30Z</time>
      </trkpt>
      <trkpt lat="45.49823" lon="5.91312">
        <ele>1030.5</ele>
        <time>2014-04-04T13:45:32Z</time>
      </trkpt>
      <trkpt lat="45.49826" lon="5.91321">
        <ele>1029.4</ele>
        <time>2014-04-04T13:45:34Z</time>
      </trkpt>
      <trkpt lat="45.49827" lon="5.91325">
        <ele>1028.8</ele>
        <time>2014-04-04T13:45:36Z</time>
      </trkpt>
      <trkpt lat="45.49828" lon="5.91333">
        <ele>1029.1</ele>
        <time>2014-04-04T13:45:38Z</time>
      </trkpt>
      <trkpt lat="45.4983" lon="5.91345">
        <ele>1028.9</ele>
        <time>2014-04-04T13:45:40Z</time>
      </trkpt>
      <trkpt lat="45.49831" lon="5.91352">
        <ele>1029.2</ele>
        <time>2014-04-04T13:45:42Z</time>
      </trkpt>
      <trkpt lat="45.49831" lon="5.91356">
        <ele>1029.4</ele>
        <time>2014-04-04T13:45:44Z</time>
      </trkpt>
      <trkpt lat="45.49834" lon="5.91369">
        <ele>1028.4</ele>
        <time>2014-04-04T13:45:46Z</time>
      </trkpt>
      <trkpt lat="45.49835" lon="5.91377">
        <ele>1028.6</ele>
        <time>2014-04-04T13:45:48Z</time>
      </trkpt>
      <trkpt lat="45.49836" lon="5.91386">
        <ele>1028.6</ele>
        <time>2014-04-04T13:45:50Z</time>
      </trkpt>
      <trkpt lat="45.49836" lon="5.9139">
        <ele>1028.8</ele>
        <time>2014-04-04T13:45:52Z</time>
      </trkpt>
      <trkpt lat="45.49837" lon="5.91399">
        <ele>1027.8</ele>
        <time>2014-04-04T13:45:54Z</time>
      </trkpt>
      <trkpt lat="45.49839" lon="5.9141">
        <ele>1026.8</ele>
        <time>2014-04-04T13:45:56Z</time>
      </trkpt>
      <trkpt lat="45.49839" lon="5.91414">
        <ele>1026.6</ele>
        <time>2014-04-04T13:45:58Z</time>
      </trkpt>
      <trkpt lat="45.49837" lon="5.9142">
        <ele>1028</ele>
        <time>2014-04-04T13:46:00Z</time>
      </trkpt>
      <trkpt lat="45.49837" lon="5.91433">
        <ele>1027.4</ele>
        <time>2014-04-04T13:46:02Z</time>
      </trkpt>
      <trkpt lat="45.49836" lon="5.91441">
        <ele>1027.6</ele>
        <time>2014-04-04T13:46:04Z</time>
      </trkpt>
      <trkpt lat="45.49836" lon="5.91446">
        <ele>1027.5</ele>
        <time>2014-04-04T13:46:06Z</time>
      </trkpt>
      <trkpt lat="45.49837" lon="5.91454">
        <ele>1026.2</ele>
        <time>2014-04-04T13:46:08Z</time>
      </trkpt>
      <trkpt lat="45.49835" lon="5.91468">
        <ele>1025.5</ele>
        <time>2014-04-04T13:46:10Z</time>
      </trkpt>
      <trkpt lat="45.49835" lon="5.91472">
        <ele>1025.2</ele>
        <time>2014-04-04T13:46:12Z</time>
      </trkpt>
      <trkpt lat="45.49833" lon="5.91481">
        <ele>1024.3</ele>
        <time>2014-04-04T13:46:14Z</time>
      </trkpt>
      <trkpt lat="45.4983" lon="5.91491">
        <ele>1023</ele>
        <time>2014-04-04T13:46:16Z</time>
      </trkpt>
      <trkpt lat="45.4983" lon="5.91499">
        <ele>1021.7</ele>
        <time>2014-04-04T13:46:18Z</time>
      </trkpt>
      <trkpt lat="45.49829" lon="5.91502">
        <ele>1021.4</ele>
        <time>2014-04-04T13:46:20Z</time>
      </trkpt>
      <trkpt lat="45.49826" lon="5.91508">
        <ele>1020.8</ele>
        <time>2014-04-04T13:46:22Z</time>
      </trkpt>
      <trkpt lat="45.49823" lon="5.91515">
        <ele>1020.1</ele>
        <time>2014-04-04T13:46:24Z</time>
      </trkpt>
      <trkpt lat="45.4982" lon="5.91525">
        <ele>1018.5</ele>
        <time>2014-04-04T13:46:26Z</time>
      </trkpt>
      <trkpt lat="45.4982" lon="5.91529">
        <ele>1017.8</ele>
        <time>2014-04-04T13:46:28Z</time>
      </trkpt>
      <trkpt lat="45.49819" lon="5.91535">
        <ele>1017.3</ele>
        <time>2014-04-04T13:46:30Z</time>
      </trkpt>
      <trkpt lat="45.49818" lon="5.91542">
        <ele>1016.7</ele>
        <time>2014-04-04T13:46:32Z</time>
      </trkpt>
      <trkpt lat="45.49821" lon="5.91543">
        <ele>1016.1</ele>
        <time>2014-04-04T13:46:34Z</time>
      </trkpt>
      <trkpt lat="45.49823" lon="5.91544">
        <ele>1015.7</ele>
        <time>2014-04-04T13:46:36Z</time>
      </trkpt>
      <trkpt lat="45.49826" lon="5.91541">
        <ele>1015.4</ele>
        <time>2014-04-04T13:46:38Z</time>
      </trkpt>
      <trkpt lat="45.49831" lon="5.91535">
        <ele>1015</ele>
        <time>2014-04-04T13:46:40Z</time>
      </trkpt>
      <trkpt lat="45.49834" lon="5.91531">
        <ele>1014.6</ele>
        <time>2014-04-04T13:46:42Z</time>
      </trkpt>
      <trkpt lat="45.49836" lon="5.91528">
        <ele>1014.6</ele>
        <time>2014-04-04T13:46:44Z</time>
      </trkpt>
      <trkpt lat="45.49839" lon="5.91523">
        <ele>1014.7</ele>
        <time>2014-04-04T13:46:46Z</time>
      </trkpt>
      <trkpt lat="45.49844" lon="5.91516">
        <ele>1014.8</ele>
        <time>2014-04-04T13:46:48Z</time>
      </trkpt>
      <trkpt lat="45.49845" lon="5.91514">
        <ele>1014.9</ele>
        <time>2014-04-04T13:46:50Z</time>
      </trkpt>
      <trkpt lat="45.49846" lon="5.91509">
        <ele>1015.2</ele>
        <time>2014-04-04T13:46:52Z</time>
      </trkpt>
      <trkpt lat="45.49848" lon="5.915">
        <ele>1015.8</ele>
        <time>2014-04-04T13:46:54Z</time>
      </trkpt>
      <trkpt lat="45.4985" lon="5.91493">
        <ele>1015.8</ele>
        <time>2014-04-04T13:46:56Z</time>
      </trkpt>
      <trkpt lat="45.49852" lon="5.9149">
        <ele>1015.5</ele>
        <time>2014-04-04T13:46:58Z</time>
      </trkpt>
      <trkpt lat="45.49855" lon="5.91488">
        <ele>1014.5</ele>
        <time>2014-04-04T13:47:00Z</time>
      </trkpt>
      <trkpt lat="45.49859" lon="5.91493">
        <ele>1012.8</ele>
        <time>2014-04-04T13:47:02Z</time>
      </trkpt>
      <trkpt lat="45.49861" lon="5.91499">
        <ele>1012</ele>
        <time>2014-04-04T13:47:04Z</time>
      </trkpt>
      <trkpt lat="45.49862" lon="5.91502">
        <ele>1011.4</ele>
        <time>2014-04-04T13:47:06Z</time>
      </trkpt>
      <trkpt lat="45.49864" lon="5.91508">
        <ele>1010</ele>
        <time>2014-04-04T13:47:08Z</time>
      </trkpt>
      <trkpt lat="45.49866" lon="5.91517">
        <ele>1008.7</ele>
        <time>2014-04-04T13:47:10Z</time>
      </trkpt>
      <trkpt lat="45.49868" lon="5.91521">
        <ele>1007.8</ele>
        <time>2014-04-04T13:47:12Z</time>
      </trkpt>
      <trkpt lat="45.4987" lon="5.91529">
        <ele>1006.5</ele>
        <time>2014-04-04T13:47:14Z</time>
      </trkpt>
      <trkpt lat="45.49871" lon="5.91537">
        <ele>1005.4</ele>
        <time>2014-04-04T13:47:16Z</time>
      </trkpt>
      <trkpt lat="45.4987" lon="5.91548">
        <ele>1005</ele>
        <time>2014-04-04T13:47:18Z</time>
      </trkpt>
      <trkpt lat="45.49869" lon="5.91552">
        <ele>1005</ele>
        <time>2014-04-04T13:47:20Z</time>
      </trkpt>
      <trkpt lat="45.49867" lon="5.91559">
        <ele>1005</ele>
        <time>2014-04-04T13:47:22Z</time>
      </trkpt>
      <trkpt lat="45.49864" lon="5.91568">
        <ele>1004.1</ele>
        <time>2014-04-04T13:47:24Z</time>
      </trkpt>
      <trkpt lat="45.4986" lon="5.91574">
        <ele>1003.5</ele>
        <time>2014-04-04T13:47:26Z</time>
      </trkpt>
      <trkpt lat="45.49858" lon="5.91576">
        <ele>1003.2</ele>
        <time>2014-04-04T13:47:28Z</time>
      </trkpt>
      <trkpt lat="45.49853" lon="5.9158">
        <ele>1002.7</ele>
        <time>2014-04-04T13:47:30Z</time>
      </trkpt>
      <trkpt lat="45.49844" lon="5.91588">
        <ele>1002</ele>
        <time>2014-04-04T13:47:32Z</time>
      </trkpt>
      <trkpt lat="45.49839" lon="5.91593">
        <ele>1001.7</ele>
        <time>2014-04-04T13:47:34Z</time>
      </trkpt>
      <trkpt lat="45.49836" lon="5.91596">
        <ele>1001.6</ele>
        <time>2014-04-04T13:47:36Z</time>
      </trkpt>
      <trkpt lat="45.49829" lon="5.91604">
        <ele>1000.6</ele>
        <time>2014-04-04T13:47:38Z</time>
      </trkpt>
      <trkpt lat="45.49824" lon="5.91609">
        <ele>999.8</ele>
        <time>2014-04-04T13:47:40Z</time>
      </trkpt>
      <trkpt lat="45.49821" lon="5.91611">
        <ele>999.5</ele>
        <time>2014-04-04T13:47:42Z</time>
      </trkpt>
      <trkpt lat="45.49819" lon="5.91616">
        <ele>998.8</ele>
        <time>2014-04-04T13:47:44Z</time>
      </trkpt>
      <trkpt lat="45.49817" lon="5.91622">
        <ele>998.1</ele>
        <time>2014-04-04T13:47:46Z</time>
      </trkpt>
      <trkpt lat="45.49815" lon="5.91632">
        <ele>996.6</ele>
        <time>2014-04-04T13:47:48Z</time>
      </trkpt>
      <trkpt lat="45.49815" lon="5.91634">
        <ele>996.4</ele>
        <time>2014-04-04T13:47:50Z</time>
      </trkpt>
      <trkpt lat="45.49815" lon="5.91639">
        <ele>995.7</ele>
        <time>2014-04-04T13:47:52Z</time>
      </trkpt>
      <trkpt lat="45.4982" lon="5.91647">
        <ele>994.5</ele>
        <time>2014-04-04T13:47:54Z</time>
      </trkpt>
      <trkpt lat="45.49823" lon="5.9165">
        <ele>994</ele>
        <time>2014-04-04T13:47:56Z</time>
      </trkpt>
      <trkpt lat="45.49825" lon="5.91652">
        <ele>993.8</ele>
        <time>2014-04-04T13:47:58Z</time>
      </trkpt>
      <trkpt lat="45.49829" lon="5.91654">
        <ele>993.5</ele>
        <time>2014-04-04T13:48:00Z</time>
      </trkpt>
      <trkpt lat="45.49833" lon="5.9166">
        <ele>992.7</ele>
        <time>2014-04-04T13:48:02Z</time>
      </trkpt>
      <trkpt lat="45.49835" lon="5.91662">
        <ele>992.4</ele>
        <time>2014-04-04T13:48:04Z</time>
      </trkpt>
      <trkpt lat="45.4984" lon="5.91666">
        <ele>991.8</ele>
        <time>2014-04-04T13:48:06Z</time>
      </trkpt>
      <trkpt lat="45.49847" lon="5.91671">
        <ele>990.7</ele>
        <time>2014-04-04T13:48:08Z</time>
      </trkpt>
      <trkpt lat="45.49851" lon="5.91674">
        <ele>990</ele>
        <time>2014-04-04T13:48:10Z</time>
      </trkpt>
      <trkpt lat="45.49854" lon="5.91676">
        <ele>989.5</ele>
        <time>2014-04-04T13:48:12Z</time>
      </trkpt>
      <trkpt lat="45.49859" lon="5.91678">
        <ele>989</ele>
        <time>2014-04-04T13:48:14Z</time>
      </trkpt>
      <trkpt lat="45.49865" lon="5.9168">
        <ele>988.2</ele>
        <time>2014-04-04T13:48:16Z</time>
      </trkpt>
      <trkpt lat="45.49874" lon="5.91681">
        <ele>986.8</ele>
        <time>2014-04-04T13:48:18Z</time>
      </trkpt>
      <trkpt lat="45.49876" lon="5.91681">
        <ele>986.5</ele>
        <time>2014-04-04T13:48:20Z</time>
      </trkpt>
      <trkpt lat="45.49881" lon="5.91682">
        <ele>985.8</ele>
        <time>2014-04-04T13:48:22Z</time>
      </trkpt>
      <trkpt lat="45.49886" lon="5.91686">
        <ele>984.6</ele>
        <time>2014-04-04T13:48:24Z</time>
      </trkpt>
      <trkpt lat="45.4989" lon="5.91692">
        <ele>983.2</ele>
        <time>2014-04-04T13:48:26Z</time>
      </trkpt>
      <trkpt lat="45.49891" lon="5.91696">
        <ele>982.1</ele>
        <time>2014-04-04T13:48:28Z</time>
      </trkpt>
      <trkpt lat="45.49893" lon="5.91703">
        <ele>980.8</ele>
        <time>2014-04-04T13:48:30Z</time>
      </trkpt>
      <trkpt lat="45.49895" lon="5.91714">
        <ele>978.9</ele>
        <time>2014-04-04T13:48:32Z</time>
      </trkpt>
      <trkpt lat="45.49895" lon="5.91718">
        <ele>978.3</ele>
        <time>2014-04-04T13:48:34Z</time>
      </trkpt>
      <trkpt lat="45.49896" lon="5.91726">
        <ele>977.3</ele>
        <time>2014-04-04T13:48:36Z</time>
      </trkpt>
      <trkpt lat="45.49899" lon="5.91733">
        <ele>975.8</ele>
        <time>2014-04-04T13:48:38Z</time>
      </trkpt>
      <trkpt lat="45.499" lon="5.91744">
        <ele>975</ele>
        <time>2014-04-04T13:48:40Z</time>
      </trkpt>
      <trkpt lat="45.499" lon="5.91748">
        <ele>974.9</ele>
        <time>2014-04-04T13:48:42Z</time>
      </trkpt>
      <trkpt lat="45.49902" lon="5.91755">
        <ele>974.1</ele>
        <time>2014-04-04T13:48:44Z</time>
      </trkpt>
      <trkpt lat="45.49904" lon="5.91767">
        <ele>973.2</ele>
        <time>2014-04-04T13:48:46Z</time>
      </trkpt>
      <trkpt lat="45.49906" lon="5.91775">
        <ele>972.4</ele>
        <time>2014-04-04T13:48:48Z</time>
      </trkpt>
      <trkpt lat="45.49907" lon="5.91779">
        <ele>972</ele>
        <time>2014-04-04T13:48:50Z</time>
      </trkpt>
      <trkpt lat="45.49909" lon="5.91788">
        <ele>971.3</ele>
        <time>2014-04-04T13:48:52Z</time>
      </trkpt>
      <trkpt lat="45.49912" lon="5.918">
        <ele>970.4</ele>
        <time>2014-04-04T13:48:54Z</time>
      </trkpt>
      <trkpt lat="45.49914" lon="5.91809">
        <ele>969.9</ele>
        <time>2014-04-04T13:48:56Z</time>
      </trkpt>
      <trkpt lat="45.49914" lon="5.91813">
        <ele>969.6</ele>
        <time>2014-04-04T13:48:58Z</time>
      </trkpt>
      <trkpt lat="45.49913" lon="5.91821">
        <ele>969.1</ele>
        <time>2014-04-04T13:49:00Z</time>
      </trkpt>
      <trkpt lat="45.49913" lon="5.91832">
        <ele>968.2</ele>
        <time>2014-04-04T13:49:02Z</time>
      </trkpt>
      <trkpt lat="45.49912" lon="5.91836">
        <ele>967.9</ele>
        <time>2014-04-04T13:49:04Z</time>
      </trkpt>
      <trkpt lat="45.49908" lon="5.91843">
        <ele>967.3</ele>
        <time>2014-04-04T13:49:06Z</time>
      </trkpt>
      <trkpt lat="45.49904" lon="5.91847">
        <ele>967</ele>
        <time>2014-04-04T13:49:08Z</time>
      </trkpt>
      <trkpt lat="45.49899" lon="5.9185">
        <ele>966.8</ele>
        <time>2014-04-04T13:49:10Z</time>
      </trkpt>
      <trkpt lat="45.49897" lon="5.91851">
        <ele>966.8</ele>
        <time>2014-04-04T13:49:12Z</time>
      </trkpt>
      <trkpt lat="45.49893" lon="5.91853">
        <ele>966.8</ele>
        <time>2014-04-04T13:49:14Z</time>
      </trkpt>
      <trkpt lat="45.49886" lon="5.91853">
        <ele>966.5</ele>
        <time>2014-04-04T13:49:16Z</time>
      </trkpt>
      <trkpt lat="45.4988" lon="5.91854">
        <ele>965.5</ele>
        <time>2014-04-04T13:49:18Z</time>
      </trkpt>
      <trkpt lat="45.49877" lon="5.91855">
        <ele>965</ele>
        <time>2014-04-04T13:49:20Z</time>
      </trkpt>
      <trkpt lat="45.49871" lon="5.91856">
        <ele>964.2</ele>
        <time>2014-04-04T13:49:22Z</time>
      </trkpt>
      <trkpt lat="45.49864" lon="5.91856">
        <ele>963.4</ele>
        <time>2014-04-04T13:49:24Z</time>
      </trkpt>
      <trkpt lat="45.49861" lon="5.91855">
        <ele>963</ele>
        <time>2014-04-04T13:49:26Z</time>
      </trkpt>
      <trkpt lat="45.49855" lon="5.91855">
        <ele>962.3</ele>
        <time>2014-04-04T13:49:28Z</time>
      </trkpt>
      <trkpt lat="45.49849" lon="5.91855">
        <ele>961.7</ele>
        <time>2014-04-04T13:49:30Z</time>
      </trkpt>
      <trkpt lat="45.49842" lon="5.91856">
        <ele>960.9</ele>
        <time>2014-04-04T13:49:32Z</time>
      </trkpt>
      <trkpt lat="45.4984" lon="5.91857">
        <ele>960.5</ele>
        <time>2014-04-04T13:49:34Z</time>
      </trkpt>
      <trkpt lat="45.49836" lon="5.9186">
        <ele>959.5</ele>
        <time>2014-04-04T13:49:36Z</time>
      </trkpt>
      <trkpt lat="45.49834" lon="5.91859">
        <ele>959.5</ele>
        <time>2014-04-04T13:49:38Z</time>
      </trkpt>
      <trkpt lat="45.49832" lon="5.91857">
        <ele>959.4</ele>
        <time>2014-04-04T13:49:40Z</time>
      </trkpt>
      <trkpt lat="45.49832" lon="5.91855">
        <ele>959.6</ele>
        <time>2014-04-04T13:49:42Z</time>
      </trkpt>
      <trkpt lat="45.49832" lon="5.91853">
        <ele>960.2</ele>
        <time>2014-04-04T13:49:44Z</time>
      </trkpt>
      <trkpt lat="45.49834" lon="5.91851">
        <ele>960.9</ele>
        <time>2014-04-04T13:49:46Z</time>
      </trkpt>
      <trkpt lat="45.49835" lon="5.9185">
        <ele>961.2</ele>
        <time>2014-04-04T13:49:48Z</time>
      </trkpt>
      <trkpt lat="45.49835" lon="5.91849">
        <ele>961.3</ele>
        <time>2014-04-04T13:49:50Z</time>
      </trkpt>
      <trkpt lat="45.49835" lon="5.91848">
        <ele>961.5</ele>
        <time>2014-04-04T13:49:52Z</time>
      </trkpt>
      <trkpt lat="45.49835" lon="5.91848">
        <ele>961.6</ele>
        <time>2014-04-04T13:49:54Z</time>
      </trkpt>
      <trkpt lat="45.49835" lon="5.91847">
        <ele>961.6</ele>
        <time>2014-04-04T13:49:56Z</time>
      </trkpt>
      <trkpt lat="45.49835" lon="5.91847">
        <ele>961.7</ele>
        <time>2014-04-04T13:49:58Z</time>
      </trkpt>
      <trkpt lat="45.49837" lon="5.91847">
        <ele>962</ele>
        <time>2014-04-04T13:50:00Z</time>
      </trkpt>
      <trkpt lat="45.49838" lon="5.91845">
        <ele>962.4</ele>
        <time>2014-04-04T13:50:02Z</time>
      </trkpt>
      <trkpt lat="45.49838" lon="5.91845">
        <ele>962.4</ele>
        <time>2014-04-04T13:50:04Z</time>
      </trkpt>
      <trkpt lat="45.49837" lon="5.91845">
        <ele>962.3</ele>
        <time>2014-04-04T13:50:06Z</time>
      </trkpt>
      <trkpt lat="45.49835" lon="5.91845">
        <ele>962</ele>
        <time>2014-04-04T13:50:08Z</time>
      </trkpt>
      <trkpt lat="45.49831" lon="5.91846">
        <ele>961</ele>
        <time>2014-04-04T13:50:10Z</time>
      </trkpt>
      <trkpt lat="45.4983" lon="5.91846">
        <ele>960.8</ele>
        <time>2014-04-04T13:50:12Z</time>
      </trkpt>
      <trkpt lat="45.49828" lon="5.91844">
        <ele>960.5</ele>
        <time>2014-04-04T13:50:14Z</time>
      </trkpt>
      <trkpt lat="45.49825" lon="5.91843">
        <ele>959.8</ele>
        <time>2014-04-04T13:50:16Z</time>
      </trkpt>
      <trkpt lat="45.49823" lon="5.91841">
        <ele>959.7</ele>
        <time>2014-04-04T13:50:18Z</time>
      </trkpt>
      <trkpt lat="45.49822" lon="5.91839">
        <ele>959.7</ele>
        <time>2014-04-04T13:50:20Z</time>
      </trkpt>
      <trkpt lat="45.4982" lon="5.91835">
        <ele>959.8</ele>
        <time>2014-04-04T13:50:22Z</time>
      </trkpt>
      <trkpt lat="45.49818" lon="5.91833">
        <ele>959.6</ele>
        <time>2014-04-04T13:50:24Z</time>
      </trkpt>
      <trkpt lat="45.49817" lon="5.91829">
        <ele>960</ele>
        <time>2014-04-04T13:50:26Z</time>
      </trkpt>
      <trkpt lat="45.49816" lon="5.91826">
        <ele>960.4</ele>
        <time>2014-04-04T13:50:28Z</time>
      </trkpt>
      <trkpt lat="45.49817" lon="5.91821">
        <ele>961.5</ele>
        <time>2014-04-04T13:50:30Z</time>
      </trkpt>
      <trkpt lat="45.49817" lon="5.91819">
        <ele>962</ele>
        <time>2014-04-04T13:50:32Z</time>
      </trkpt>
      <trkpt lat="45.49818" lon="5.91818">
        <ele>962.3</ele>
        <time>2014-04-04T13:50:34Z</time>
      </trkpt>
      <trkpt lat="45.49818" lon="5.91819">
        <ele>962.2</ele>
        <time>2014-04-04T13:50:36Z</time>
      </trkpt>
      <trkpt lat="45.49818" lon="5.9182">
        <ele>962</ele>
        <time>2014-04-04T13:50:38Z</time>
      </trkpt>
      <trkpt lat="45.49819" lon="5.91822">
        <ele>961.9</ele>
        <time>2014-04-04T13:50:40Z</time>
      </trkpt>
      <trkpt lat="45.49819" lon="5.91823">
        <ele>961.7</ele>
        <time>2014-04-04T13:50:42Z</time>
      </trkpt>
      <trkpt lat="45.49819" lon="5.91824">
        <ele>961.7</ele>
        <time>2014-04-04T13:50:44Z</time>
      </trkpt>
      <trkpt lat="45.49821" lon="5.91827">
        <ele>961.4</ele>
        <time>2014-04-04T13:50:46Z</time>
      </trkpt>
      <trkpt lat="45.49821" lon="5.91833">
        <ele>960.6</ele>
        <time>2014-04-04T13:50:48Z</time>
      </trkpt>
      <trkpt lat="45.49821" lon="5.91836">
        <ele>960</ele>
        <time>2014-04-04T13:50:50Z</time>
      </trkpt>
      <trkpt lat="45.49821" lon="5.91842">
        <ele>958.9</ele>
        <time>2014-04-04T13:50:52Z</time>
      </trkpt>
      <trkpt lat="45.49822" lon="5.91849">
        <ele>957.9</ele>
        <time>2014-04-04T13:50:54Z</time>
      </trkpt>
      <trkpt lat="45.49823" lon="5.91852">
        <ele>957.7</ele>
        <time>2014-04-04T13:50:56Z</time>
      </trkpt>
      <trkpt lat="45.49826" lon="5.91859">
        <ele>957.4</ele>
        <time>2014-04-04T13:50:58Z</time>
      </trkpt>
      <trkpt lat="45.49829" lon="5.91863">
        <ele>957.3</ele>
        <time>2014-04-04T13:51:00Z</time>
      </trkpt>
      <trkpt lat="45.49833" lon="5.9187">
        <ele>957.6</ele>
        <time>2014-04-04T13:51:02Z</time>
      </trkpt>
      <trkpt lat="45.49835" lon="5.91872">
        <ele>957.6</ele>
        <time>2014-04-04T13:51:04Z</time>
      </trkpt>
      <trkpt lat="45.49839" lon="5.91877">
        <ele>957.2</ele>
        <time>2014-04-04T13:51:06Z</time>
      </trkpt>
      <trkpt lat="45.49846" lon="5.91887">
        <ele>956.2</ele>
        <time>2014-04-04T13:51:08Z</time>
      </trkpt>
      <trkpt lat="45.4985" lon="5.91895">
        <ele>955.2</ele>
        <time>2014-04-04T13:51:10Z</time>
      </trkpt>
      <trkpt lat="45.49851" lon="5.91897">
        <ele>954.8</ele>
        <time>2014-04-04T13:51:12Z</time>
      </trkpt>
      <trkpt lat="45.49853" lon="5.91903">
        <ele>954.2</ele>
        <time>2014-04-04T13:51:14Z</time>
      </trkpt>
      <trkpt lat="45.49858" lon="5.91913">
        <ele>953.6</ele>
        <time>2014-04-04T13:51:16Z</time>
      </trkpt>
      <trkpt lat="45.4986" lon="5.91917">
        <ele>953.7</ele>
        <time>2014-04-04T13:51:18Z</time>
      </trkpt>
      <trkpt lat="45.49862" lon="5.91924">
        <ele>953.1</ele>
        <time>2014-04-04T13:51:20Z</time>
      </trkpt>
      <trkpt lat="45.49865" lon="5.91932">
        <ele>952.7</ele>
        <time>2014-04-04T13:51:22Z</time>
      </trkpt>
      <trkpt lat="45.4987" lon="5.91943">
        <ele>952.5</ele>
        <time>2014-04-04T13:51:24Z</time>
      </trkpt>
      <trkpt lat="45.49871" lon="5.91946">
        <ele>952.2</ele>
        <time>2014-04-04T13:51:26Z</time>
      </trkpt>
      <trkpt lat="45.49874" lon="5.91954">
        <ele>951.5</ele>
        <time>2014-04-04T13:51:28Z</time>
      </trkpt>
      <trkpt lat="45.49876" lon="5.91964">
        <ele>950.5</ele>
        <time>2014-04-04T13:51:30Z</time>
      </trkpt>
      <trkpt lat="45.49878" lon="5.91972">
        <ele>950</ele>
        <time>2014-04-04T13:51:32Z</time>
      </trkpt>
      <trkpt lat="45.49879" lon="5.91975">
        <ele>949.7</ele>
        <time>2014-04-04T13:51:34Z</time>
      </trkpt>
      <trkpt lat="45.49882" lon="5.91982">
        <ele>949.5</ele>
        <time>2014-04-04T13:51:36Z</time>
      </trkpt>
      <trkpt lat="45.49886" lon="5.91992">
        <ele>949.2</ele>
        <time>2014-04-04T13:51:38Z</time>
      </trkpt>
      <trkpt lat="45.49887" lon="5.92">
        <ele>948.4</ele>
        <time>2014-04-04T13:51:40Z</time>
      </trkpt>
      <trkpt lat="45.49888" lon="5.92005">
        <ele>948.3</ele>
        <time>2014-04-04T13:51:42Z</time>
      </trkpt>
      <trkpt lat="45.4989" lon="5.92014">
        <ele>948.1</ele>
        <time>2014-04-04T13:51:44Z</time>
      </trkpt>
      <trkpt lat="45.49893" lon="5.92021">
        <ele>947.8</ele>
        <time>2014-04-04T13:51:46Z</time>
      </trkpt>
      <trkpt lat="45.49896" lon="5.92028">
        <ele>947.5</ele>
        <time>2014-04-04T13:51:48Z</time>
      </trkpt>
      <trkpt lat="45.49899" lon="5.92036">
        <ele>947.1</ele>
        <time>2014-04-04T13:51:50Z</time>
      </trkpt>
      <trkpt lat="45.49902" lon="5.92043">
        <ele>946.6</ele>
        <time>2014-04-04T13:51:52Z</time>
      </trkpt>
      <trkpt lat="45.49907" lon="5.92053">
        <ele>945.9</ele>
        <time>2014-04-04T13:51:54Z</time>
      </trkpt>
      <trkpt lat="45.49909" lon="5.92057">
        <ele>945.5</ele>
        <time>2014-04-04T13:51:56Z</time>
      </trkpt>
      <trkpt lat="45.49913" lon="5.92062">
        <ele>945.1</ele>
        <time>2014-04-04T13:51:58Z</time>
      </trkpt>
      <trkpt lat="45.49919" lon="5.92066">
        <ele>944.8</ele>
        <time>2014-04-04T13:52:00Z</time>
      </trkpt>
      <trkpt lat="45.49925" lon="5.92071">
        <ele>944.2</ele>
        <time>2014-04-04T13:52:02Z</time>
      </trkpt>
      <trkpt lat="45.49927" lon="5.92072">
        <ele>944.1</ele>
        <time>2014-04-04T13:52:04Z</time>
      </trkpt>
      <trkpt lat="45.49931" lon="5.92074">
        <ele>943.9</ele>
        <time>2014-04-04T13:52:06Z</time>
      </trkpt>
      <trkpt lat="45.49938" lon="5.92077">
        <ele>943.5</ele>
        <time>2014-04-04T13:52:08Z</time>
      </trkpt>
      <trkpt lat="45.49942" lon="5.9208">
        <ele>943.3</ele>
        <time>2014-04-04T13:52:10Z</time>
      </trkpt>
      <trkpt lat="45.49944" lon="5.92081">
        <ele>943.1</ele>
        <time>2014-04-04T13:52:12Z</time>
      </trkpt>
      <trkpt lat="45.49946" lon="5.92085">
        <ele>942.9</ele>
        <time>2014-04-04T13:52:14Z</time>
      </trkpt>
      <trkpt lat="45.49947" lon="5.92091">
        <ele>942.5</ele>
        <time>2014-04-04T13:52:16Z</time>
      </trkpt>
      <trkpt lat="45.49948" lon="5.92095">
        <ele>942.3</ele>
        <time>2014-04-04T13:52:18Z</time>
      </trkpt>
      <trkpt lat="45.49949" lon="5.92101">
        <ele>941.9</ele>
        <time>2014-04-04T13:52:20Z</time>
      </trkpt>
      <trkpt lat="45.49951" lon="5.92108">
        <ele>941.4</ele>
        <time>2014-04-04T13:52:22Z</time>
      </trkpt>
      <trkpt lat="45.49949" lon="5.92118">
        <ele>940.9</ele>
        <time>2014-04-04T13:52:24Z</time>
      </trkpt>
      <trkpt lat="45.49947" lon="5.92121">
        <ele>940.9</ele>
        <time>2014-04-04T13:52:26Z</time>
      </trkpt>
      <trkpt lat="45.49944" lon="5.92125">
        <ele>941</ele>
        <time>2014-04-04T13:52:28Z</time>
      </trkpt>
      <trkpt lat="45.49936" lon="5.92128">
        <ele>939.6</ele>
        <time>2014-04-04T13:52:30Z</time>
      </trkpt>
      <trkpt lat="45.49928" lon="5.92129">
        <ele>938.6</ele>
        <time>2014-04-04T13:52:32Z</time>
      </trkpt>
      <trkpt lat="45.49925" lon="5.92129">
        <ele>938.2</ele>
        <time>2014-04-04T13:52:34Z</time>
      </trkpt>
      <trkpt lat="45.49919" lon="5.9213">
        <ele>937.3</ele>
        <time>2014-04-04T13:52:36Z</time>
      </trkpt>
      <trkpt lat="45.49914" lon="5.92132">
        <ele>936.5</ele>
        <time>2014-04-04T13:52:38Z</time>
      </trkpt>
      <trkpt lat="45.49913" lon="5.92134">
        <ele>936.3</ele>
        <time>2014-04-04T13:52:40Z</time>
      </trkpt>
      <trkpt lat="45.49911" lon="5.92137">
        <ele>936</ele>
        <time>2014-04-04T13:52:42Z</time>
      </trkpt>
      <trkpt lat="45.49914" lon="5.92139">
        <ele>935.8</ele>
        <time>2014-04-04T13:52:44Z</time>
      </trkpt>
      <trkpt lat="45.49915" lon="5.92141">
        <ele>935.6</ele>
        <time>2014-04-04T13:52:46Z</time>
      </trkpt>
      <trkpt lat="45.49915" lon="5.92143">
        <ele>935.3</ele>
        <time>2014-04-04T13:52:48Z</time>
      </trkpt>
      <trkpt lat="45.49915" lon="5.92146">
        <ele>934.9</ele>
        <time>2014-04-04T13:52:50Z</time>
      </trkpt>
      <trkpt lat="45.49915" lon="5.92151">
        <ele>934.1</ele>
        <time>2014-04-04T13:52:52Z</time>
      </trkpt>
      <trkpt lat="45.49913" lon="5.92156">
        <ele>933.3</ele>
        <time>2014-04-04T13:52:54Z</time>
      </trkpt>
      <trkpt lat="45.49912" lon="5.92158">
        <ele>932.8</ele>
        <time>2014-04-04T13:52:56Z</time>
      </trkpt>
      <trkpt lat="45.4991" lon="5.92162">
        <ele>931.8</ele>
        <time>2014-04-04T13:52:58Z</time>
      </trkpt>
      <trkpt lat="45.4991" lon="5.9217">
        <ele>930.7</ele>
        <time>2014-04-04T13:53:00Z</time>
      </trkpt>
      <trkpt lat="45.49911" lon="5.92178">
        <ele>930.1</ele>
        <time>2014-04-04T13:53:02Z</time>
      </trkpt>
      <trkpt lat="45.4991" lon="5.92182">
        <ele>929.5</ele>
        <time>2014-04-04T13:53:04Z</time>
      </trkpt>
      <trkpt lat="45.49909" lon="5.92191">
        <ele>928.4</ele>
        <time>2014-04-04T13:53:06Z</time>
      </trkpt>
      <trkpt lat="45.49909" lon="5.92206">
        <ele>927.5</ele>
        <time>2014-04-04T13:53:08Z</time>
      </trkpt>
      <trkpt lat="45.49908" lon="5.92212">
        <ele>927.1</ele>
        <time>2014-04-04T13:53:10Z</time>
      </trkpt>
      <trkpt lat="45.49909" lon="5.9222">
        <ele>926.7</ele>
        <time>2014-04-04T13:53:12Z</time>
      </trkpt>
      <trkpt lat="45.49908" lon="5.92228">
        <ele>926.1</ele>
        <time>2014-04-04T13:53:14Z</time>
      </trkpt>
      <trkpt lat="45.49909" lon="5.92241">
        <ele>926</ele>
        <time>2014-04-04T13:53:16Z</time>
      </trkpt>
      <trkpt lat="45.4991" lon="5.92245">
        <ele>926</ele>
        <time>2014-04-04T13:53:18Z</time>
      </trkpt>
      <trkpt lat="45.4991" lon="5.92253">
        <ele>925.3</ele>
        <time>2014-04-04T13:53:20Z</time>
      </trkpt>
      <trkpt lat="45.49912" lon="5.92265">
        <ele>923.9</ele>
        <time>2014-04-04T13:53:22Z</time>
      </trkpt>
      <trkpt lat="45.49914" lon="5.92275">
        <ele>922.8</ele>
        <time>2014-04-04T13:53:24Z</time>
      </trkpt>
      <trkpt lat="45.49915" lon="5.92278">
        <ele>922.4</ele>
        <time>2014-04-04T13:53:26Z</time>
      </trkpt>
      <trkpt lat="45.49917" lon="5.92284">
        <ele>921.2</ele>
        <time>2014-04-04T13:53:28Z</time>
      </trkpt>
      <trkpt lat="45.49921" lon="5.92295">
        <ele>919.3</ele>
        <time>2014-04-04T13:53:30Z</time>
      </trkpt>
      <trkpt lat="45.49924" lon="5.92301">
        <ele>918.1</ele>
        <time>2014-04-04T13:53:32Z</time>
      </trkpt>
      <trkpt lat="45.49925" lon="5.92304">
        <ele>917.6</ele>
        <time>2014-04-04T13:53:34Z</time>
      </trkpt>
      <trkpt lat="45.49928" lon="5.9231">
        <ele>916.6</ele>
        <time>2014-04-04T13:53:36Z</time>
      </trkpt>
      <trkpt lat="45.49933" lon="5.92319">
        <ele>915</ele>
        <time>2014-04-04T13:53:38Z</time>
      </trkpt>
      <trkpt lat="45.49937" lon="5.92325">
        <ele>913.8</ele>
        <time>2014-04-04T13:53:40Z</time>
      </trkpt>
      <trkpt lat="45.49939" lon="5.92329">
        <ele>913.2</ele>
        <time>2014-04-04T13:53:42Z</time>
      </trkpt>
      <trkpt lat="45.49943" lon="5.92336">
        <ele>912</ele>
        <time>2014-04-04T13:53:44Z</time>
      </trkpt>
      <trkpt lat="45.4995" lon="5.92345">
        <ele>911.3</ele>
        <time>2014-04-04T13:53:46Z</time>
      </trkpt>
      <trkpt lat="45.49952" lon="5.92348">
        <ele>910.8</ele>
        <time>2014-04-04T13:53:48Z</time>
      </trkpt>
      <trkpt lat="45.49955" lon="5.92354">
        <ele>909.9</ele>
        <time>2014-04-04T13:53:50Z</time>
      </trkpt>
      <trkpt lat="45.49961" lon="5.92363">
        <ele>909.2</ele>
        <time>2014-04-04T13:53:52Z</time>
      </trkpt>
      <trkpt lat="45.49965" lon="5.92369">
        <ele>908.4</ele>
        <time>2014-04-04T13:53:54Z</time>
      </trkpt>
      <trkpt lat="45.49967" lon="5.92371">
        <ele>908.4</ele>
        <time>2014-04-04T13:53:56Z</time>
      </trkpt>
      <trkpt lat="45.49972" lon="5.92376">
        <ele>908.8</ele>
        <time>2014-04-04T13:53:58Z</time>
      </trkpt>
      <trkpt lat="45.4998" lon="5.92379">
        <ele>908.4</ele>
        <time>2014-04-04T13:54:00Z</time>
      </trkpt>
      <trkpt lat="45.49985" lon="5.92384">
        <ele>907.5</ele>
        <time>2014-04-04T13:54:02Z</time>
      </trkpt>
      <trkpt lat="45.49987" lon="5.92387">
        <ele>907</ele>
        <time>2014-04-04T13:54:04Z</time>
      </trkpt>
      <trkpt lat="45.49993" lon="5.9239">
        <ele>906.4</ele>
        <time>2014-04-04T13:54:06Z</time>
      </trkpt>
      <trkpt lat="45.50001" lon="5.92393">
        <ele>906.1</ele>
        <time>2014-04-04T13:54:08Z</time>
      </trkpt>
      <trkpt lat="45.50004" lon="5.92394">
        <ele>905.9</ele>
        <time>2014-04-04T13:54:10Z</time>
      </trkpt>
      <trkpt lat="45.50009" lon="5.92399">
        <ele>905.2</ele>
        <time>2014-04-04T13:54:12Z</time>
      </trkpt>
      <trkpt lat="45.50011" lon="5.92402">
        <ele>904.6</ele>
        <time>2014-04-04T13:54:14Z</time>
      </trkpt>
      <trkpt lat="45.50011" lon="5.92404">
        <ele>904.3</ele>
        <time>2014-04-04T13:54:16Z</time>
      </trkpt>
      <trkpt lat="45.50012" lon="5.92404">
        <ele>904.2</ele>
        <time>2014-04-04T13:54:18Z</time>
      </trkpt>
      <trkpt lat="45.50013" lon="5.92404">
        <ele>904.6</ele>
        <time>2014-04-04T13:54:20Z</time>
      </trkpt>
      <trkpt lat="45.50019" lon="5.92403">
        <ele>905.1</ele>
        <time>2014-04-04T13:54:22Z</time>
      </trkpt>
      <trkpt lat="45.50023" lon="5.92403">
        <ele>905.5</ele>
        <time>2014-04-04T13:54:24Z</time>
      </trkpt>
      <trkpt lat="45.50025" lon="5.92403">
        <ele>905.7</ele>
        <time>2014-04-04T13:54:26Z</time>
      </trkpt>
      <trkpt lat="45.5003" lon="5.92403">
        <ele>905.8</ele>
        <time>2014-04-04T13:54:28Z</time>
      </trkpt>
      <trkpt lat="45.50037" lon="5.92401">
        <ele>905.9</ele>
        <time>2014-04-04T13:54:30Z</time>
      </trkpt>
      <trkpt lat="45.5004" lon="5.92401">
        <ele>905.8</ele>
        <time>2014-04-04T13:54:32Z</time>
      </trkpt>
      <trkpt lat="45.50046" lon="5.924">
        <ele>905.7</ele>
        <time>2014-04-04T13:54:34Z</time>
      </trkpt>
      <trkpt lat="45.50051" lon="5.92399">
        <ele>905.8</ele>
        <time>2014-04-04T13:54:36Z</time>
      </trkpt>
      <trkpt lat="45.50058" lon="5.92395">
        <ele>905.9</ele>
        <time>2014-04-04T13:54:38Z</time>
      </trkpt>
      <trkpt lat="45.50059" lon="5.92393">
        <ele>906</ele>
        <time>2014-04-04T13:54:40Z</time>
      </trkpt>
      <trkpt lat="45.50063" lon="5.92389">
        <ele>906.3</ele>
        <time>2014-04-04T13:54:42Z</time>
      </trkpt>
      <trkpt lat="45.50067" lon="5.92385">
        <ele>906.4</ele>
        <time>2014-04-04T13:54:44Z</time>
      </trkpt>
      <trkpt lat="45.50073" lon="5.92379">
        <ele>906.3</ele>
        <time>2014-04-04T13:54:46Z</time>
      </trkpt>
      <trkpt lat="45.50075" lon="5.92377">
        <ele>906.2</ele>
        <time>2014-04-04T13:54:48Z</time>
      </trkpt>
      <trkpt lat="45.50077" lon="5.92372">
        <ele>906.3</ele>
        <time>2014-04-04T13:54:50Z</time>
      </trkpt>
      <trkpt lat="45.5008" lon="5.92367">
        <ele>906.3</ele>
        <time>2014-04-04T13:54:52Z</time>
      </trkpt>
      <trkpt lat="45.50082" lon="5.92361">
        <ele>906.3</ele>
        <time>2014-04-04T13:54:54Z</time>
      </trkpt>
      <trkpt lat="45.50083" lon="5.92358">
        <ele>906.3</ele>
        <time>2014-04-04T13:54:56Z</time>
      </trkpt>
      <trkpt lat="45.50085" lon="5.92354">
        <ele>906.1</ele>
        <time>2014-04-04T13:54:58Z</time>
      </trkpt>
      <trkpt lat="45.50089" lon="5.92346">
        <ele>905.6</ele>
        <time>2014-04-04T13:55:00Z</time>
      </trkpt>
      <trkpt lat="45.5009" lon="5.92344">
        <ele>905.4</ele>
        <time>2014-04-04T13:55:02Z</time>
      </trkpt>
      <trkpt lat="45.50093" lon="5.9234">
        <ele>904.7</ele>
        <time>2014-04-04T13:55:04Z</time>
      </trkpt>
      <trkpt lat="45.50095" lon="5.92337">
        <ele>904</ele>
        <time>2014-04-04T13:55:06Z</time>
      </trkpt>
      <trkpt lat="45.50098" lon="5.9233">
        <ele>903.5</ele>
        <time>2014-04-04T13:55:08Z</time>
      </trkpt>
      <trkpt lat="45.50099" lon="5.92327">
        <ele>903.5</ele>
        <time>2014-04-04T13:55:10Z</time>
      </trkpt>
      <trkpt lat="45.50099" lon="5.92319">
        <ele>903.9</ele>
        <time>2014-04-04T13:55:12Z</time>
      </trkpt>
      <trkpt lat="45.501" lon="5.92309">
        <ele>904</ele>
        <time>2014-04-04T13:55:14Z</time>
      </trkpt>
      <trkpt lat="45.50103" lon="5.92302">
        <ele>903</ele>
        <time>2014-04-04T13:55:16Z</time>
      </trkpt>
      <trkpt lat="45.50104" lon="5.92298">
        <ele>902.3</ele>
        <time>2014-04-04T13:55:18Z</time>
      </trkpt>
      <trkpt lat="45.50105" lon="5.9229">
        <ele>901.3</ele>
        <time>2014-04-04T13:55:20Z</time>
      </trkpt>
      <trkpt lat="45.50107" lon="5.9228">
        <ele>900.1</ele>
        <time>2014-04-04T13:55:22Z</time>
      </trkpt>
      <trkpt lat="45.50108" lon="5.92273">
        <ele>899.5</ele>
        <time>2014-04-04T13:55:24Z</time>
      </trkpt>
      <trkpt lat="45.50108" lon="5.9227">
        <ele>899.4</ele>
        <time>2014-04-04T13:55:26Z</time>
      </trkpt>
      <trkpt lat="45.50108" lon="5.92262">
        <ele>899.9</ele>
        <time>2014-04-04T13:55:28Z</time>
      </trkpt>
      <trkpt lat="45.5011" lon="5.92251">
        <ele>899.2</ele>
        <time>2014-04-04T13:55:30Z</time>
      </trkpt>
      <trkpt lat="45.5011" lon="5.92246">
        <ele>898.6</ele>
        <time>2014-04-04T13:55:32Z</time>
      </trkpt>
      <trkpt lat="45.50111" lon="5.9224">
        <ele>898.5</ele>
        <time>2014-04-04T13:55:34Z</time>
      </trkpt>
      <trkpt lat="45.50112" lon="5.92234">
        <ele>897.7</ele>
        <time>2014-04-04T13:55:36Z</time>
      </trkpt>
      <trkpt lat="45.50112" lon="5.92224">
        <ele>897.1</ele>
        <time>2014-04-04T13:55:38Z</time>
      </trkpt>
      <trkpt lat="45.50112" lon="5.92221">
        <ele>897.2</ele>
        <time>2014-04-04T13:55:40Z</time>
      </trkpt>
      <trkpt lat="45.50112" lon="5.92216">
        <ele>897</ele>
        <time>2014-04-04T13:55:42Z</time>
      </trkpt>
      <trkpt lat="45.50114" lon="5.92206">
        <ele>896</ele>
        <time>2014-04-04T13:55:44Z</time>
      </trkpt>
      <trkpt lat="45.50114" lon="5.92198">
        <ele>895.6</ele>
        <time>2014-04-04T13:55:46Z</time>
      </trkpt>
      <trkpt lat="45.50114" lon="5.92195">
        <ele>895.3</ele>
        <time>2014-04-04T13:55:48Z</time>
      </trkpt>
      <trkpt lat="45.50115" lon="5.9219">
        <ele>894.8</ele>
        <time>2014-04-04T13:55:50Z</time>
      </trkpt>
      <trkpt lat="45.50115" lon="5.92181">
        <ele>893.8</ele>
        <time>2014-04-04T13:55:52Z</time>
      </trkpt>
      <trkpt lat="45.50115" lon="5.92179">
        <ele>893.6</ele>
        <time>2014-04-04T13:55:54Z</time>
      </trkpt>
      <trkpt lat="45.50117" lon="5.92172">
        <ele>891.3</ele>
        <time>2014-04-04T13:55:56Z</time>
      </trkpt>
      <trkpt lat="45.50119" lon="5.92161">
        <ele>888.2</ele>
        <time>2014-04-04T13:55:58Z</time>
      </trkpt>
      <trkpt lat="45.5012" lon="5.92153">
        <ele>886.4</ele>
        <time>2014-04-04T13:56:00Z</time>
      </trkpt>
      <trkpt lat="45.50121" lon="5.92149">
        <ele>885.3</ele>
        <time>2014-04-04T13:56:02Z</time>
      </trkpt>
      <trkpt lat="45.50123" lon="5.92139">
        <ele>883</ele>
        <time>2014-04-04T13:56:04Z</time>
      </trkpt>
      <trkpt lat="45.50121" lon="5.92132">
        <ele>883</ele>
        <time>2014-04-04T13:56:06Z</time>
      </trkpt>
      <trkpt lat="45.50119" lon="5.92125">
        <ele>883.4</ele>
        <time>2014-04-04T13:56:08Z</time>
      </trkpt>
      <trkpt lat="45.50118" lon="5.92122">
        <ele>883.5</ele>
        <time>2014-04-04T13:56:10Z</time>
      </trkpt>
      <trkpt lat="45.50117" lon="5.92117">
        <ele>883</ele>
        <time>2014-04-04T13:56:12Z</time>
      </trkpt>
      <trkpt lat="45.50118" lon="5.92106">
        <ele>881.2</ele>
        <time>2014-04-04T13:56:14Z</time>
      </trkpt>
      <trkpt lat="45.50118" lon="5.92099">
        <ele>880.2</ele>
        <time>2014-04-04T13:56:16Z</time>
      </trkpt>
      <trkpt lat="45.50117" lon="5.92095">
        <ele>880</ele>
        <time>2014-04-04T13:56:18Z</time>
      </trkpt>
      <trkpt lat="45.50117" lon="5.92086">
        <ele>878.8</ele>
        <time>2014-04-04T13:56:20Z</time>
      </trkpt>
      <trkpt lat="45.50116" lon="5.92079">
        <ele>878.1</ele>
        <time>2014-04-04T13:56:22Z</time>
      </trkpt>
      <trkpt lat="45.50115" lon="5.92073">
        <ele>877.5</ele>
        <time>2014-04-04T13:56:24Z</time>
      </trkpt>
      <trkpt lat="45.50115" lon="5.92069">
        <ele>876.7</ele>
        <time>2014-04-04T13:56:26Z</time>
      </trkpt>
      <trkpt lat="45.50115" lon="5.92064">
        <ele>875.9</ele>
        <time>2014-04-04T13:56:28Z</time>
      </trkpt>
      <trkpt lat="45.50112" lon="5.92056">
        <ele>875.7</ele>
        <time>2014-04-04T13:56:30Z</time>
      </trkpt>
      <trkpt lat="45.50112" lon="5.92049">
        <ele>875.1</ele>
        <time>2014-04-04T13:56:32Z</time>
      </trkpt>
      <trkpt lat="45.50111" lon="5.92046">
        <ele>875</ele>
        <time>2014-04-04T13:56:34Z</time>
      </trkpt>
      <trkpt lat="45.50109" lon="5.92042">
        <ele>875.4</ele>
        <time>2014-04-04T13:56:36Z</time>
      </trkpt>
      <trkpt lat="45.50107" lon="5.92035">
        <ele>876</ele>
        <time>2014-04-04T13:56:38Z</time>
      </trkpt>
      <trkpt lat="45.50106" lon="5.92032">
        <ele>876.2</ele>
        <time>2014-04-04T13:56:40Z</time>
      </trkpt>
      <trkpt lat="45.50103" lon="5.92027">
        <ele>876.8</ele>
        <time>2014-04-04T13:56:42Z</time>
      </trkpt>
      <trkpt lat="45.50099" lon="5.92018">
        <ele>876.8</ele>
        <time>2014-04-04T13:56:44Z</time>
      </trkpt>
      <trkpt lat="45.50097" lon="5.9201">
        <ele>875.8</ele>
        <time>2014-04-04T13:56:46Z</time>
      </trkpt>
      <trkpt lat="45.50095" lon="5.92008">
        <ele>876.1</ele>
        <time>2014-04-04T13:56:48Z</time>
      </trkpt>
      <trkpt lat="45.50091" lon="5.91999">
        <ele>876</ele>
        <time>2014-04-04T13:56:50Z</time>
      </trkpt>
      <trkpt lat="45.5009" lon="5.91991">
        <ele>875.2</ele>
        <time>2014-04-04T13:56:52Z</time>
      </trkpt>
      <trkpt lat="45.50089" lon="5.91988">
        <ele>874.8</ele>
        <time>2014-04-04T13:56:54Z</time>
      </trkpt>
      <trkpt lat="45.50086" lon="5.91983">
        <ele>875.1</ele>
        <time>2014-04-04T13:56:56Z</time>
      </trkpt>
      <trkpt lat="45.50085" lon="5.91977">
        <ele>874.4</ele>
        <time>2014-04-04T13:56:58Z</time>
      </trkpt>
      <trkpt lat="45.50082" lon="5.91968">
        <ele>873.9</ele>
        <time>2014-04-04T13:57:00Z</time>
      </trkpt>
      <trkpt lat="45.5008" lon="5.91966">
        <ele>874.7</ele>
        <time>2014-04-04T13:57:02Z</time>
      </trkpt>
      <trkpt lat="45.50077" lon="5.9196">
        <ele>875.4</ele>
        <time>2014-04-04T13:57:04Z</time>
      </trkpt>
      <trkpt lat="45.50075" lon="5.91949">
        <ele>874.6</ele>
        <time>2014-04-04T13:57:06Z</time>
      </trkpt>
      <trkpt lat="45.50073" lon="5.91943">
        <ele>874.3</ele>
        <time>2014-04-04T13:57:08Z</time>
      </trkpt>
      <trkpt lat="45.50072" lon="5.9194">
        <ele>874.6</ele>
        <time>2014-04-04T13:57:10Z</time>
      </trkpt>
      <trkpt lat="45.5007" lon="5.91933">
        <ele>874.5</ele>
        <time>2014-04-04T13:57:12Z</time>
      </trkpt>
      <trkpt lat="45.50068" lon="5.91924">
        <ele>874.6</ele>
        <time>2014-04-04T13:57:14Z</time>
      </trkpt>
      <trkpt lat="45.50067" lon="5.91921">
        <ele>874.4</ele>
        <time>2014-04-04T13:57:16Z</time>
      </trkpt>
      <trkpt lat="45.50066" lon="5.91914">
        <ele>874.2</ele>
        <time>2014-04-04T13:57:18Z</time>
      </trkpt>
      <trkpt lat="45.50065" lon="5.91909">
        <ele>873.9</ele>
        <time>2014-04-04T13:57:20Z</time>
      </trkpt>
      <trkpt lat="45.50064" lon="5.91899">
        <ele>873.5</ele>
        <time>2014-04-04T13:57:22Z</time>
      </trkpt>
      <trkpt lat="45.50063" lon="5.91896">
        <ele>873.5</ele>
        <time>2014-04-04T13:57:24Z</time>
      </trkpt>
      <trkpt lat="45.50061" lon="5.91891">
        <ele>874.1</ele>
        <time>2014-04-04T13:57:26Z</time>
      </trkpt>
      <trkpt lat="45.50061" lon="5.91883">
        <ele>874.2</ele>
        <time>2014-04-04T13:57:28Z</time>
      </trkpt>
      <trkpt lat="45.50061" lon="5.91872">
        <ele>873.7</ele>
        <time>2014-04-04T13:57:30Z</time>
      </trkpt>
      <trkpt lat="45.50062" lon="5.91868">
        <ele>873.6</ele>
        <time>2014-04-04T13:57:32Z</time>
      </trkpt>
      <trkpt lat="45.50062" lon="5.91861">
        <ele>873.3</ele>
        <time>2014-04-04T13:57:34Z</time>
      </trkpt>
      <trkpt lat="45.50062" lon="5.91852">
        <ele>873.4</ele>
        <time>2014-04-04T13:57:36Z</time>
      </trkpt>
      <trkpt lat="45.50062" lon="5.91846">
        <ele>873.7</ele>
        <time>2014-04-04T13:57:38Z</time>
      </trkpt>
      <trkpt lat="45.50061" lon="5.91843">
        <ele>873.9</ele>
        <time>2014-04-04T13:57:40Z</time>
      </trkpt>
      <trkpt lat="45.5006" lon="5.91836">
        <ele>875</ele>
        <time>2014-04-04T13:57:42Z</time>
      </trkpt>
      <trkpt lat="45.50059" lon="5.91826">
        <ele>875.9</ele>
        <time>2014-04-04T13:57:44Z</time>
      </trkpt>
      <trkpt lat="45.50059" lon="5.9182">
        <ele>875</ele>
        <time>2014-04-04T13:57:46Z</time>
      </trkpt>
      <trkpt lat="45.5006" lon="5.91817">
        <ele>874.7</ele>
        <time>2014-04-04T13:57:48Z</time>
      </trkpt>
      <trkpt lat="45.5006" lon="5.9181">
        <ele>874.4</ele>
        <time>2014-04-04T13:57:50Z</time>
      </trkpt>
      <trkpt lat="45.50059" lon="5.91802">
        <ele>874.3</ele>
        <time>2014-04-04T13:57:52Z</time>
      </trkpt>
      <trkpt lat="45.50058" lon="5.91798">
        <ele>874.4</ele>
        <time>2014-04-04T13:57:54Z</time>
      </trkpt>
      <trkpt lat="45.50059" lon="5.91791">
        <ele>873.5</ele>
        <time>2014-04-04T13:57:56Z</time>
      </trkpt>
      <trkpt lat="45.5006" lon="5.9178">
        <ele>871.8</ele>
        <time>2014-04-04T13:57:58Z</time>
      </trkpt>
      <trkpt lat="45.50061" lon="5.91771">
        <ele>870.9</ele>
        <time>2014-04-04T13:58:00Z</time>
      </trkpt>
      <trkpt lat="45.50062" lon="5.91766">
        <ele>870.7</ele>
        <time>2014-04-04T13:58:02Z</time>
      </trkpt>
      <trkpt lat="45.50064" lon="5.91757">
        <ele>869.3</ele>
        <time>2014-04-04T13:58:04Z</time>
      </trkpt>
      <trkpt lat="45.50069" lon="5.91749">
        <ele>867.5</ele>
        <time>2014-04-04T13:58:06Z</time>
      </trkpt>
      <trkpt lat="45.50071" lon="5.91741">
        <ele>867</ele>
        <time>2014-04-04T13:58:08Z</time>
      </trkpt>
      <trkpt lat="45.50072" lon="5.91738">
        <ele>866.7</ele>
        <time>2014-04-04T13:58:10Z</time>
      </trkpt>
      <trkpt lat="45.50073" lon="5.91731">
        <ele>866.9</ele>
        <time>2014-04-04T13:58:12Z</time>
      </trkpt>
      <trkpt lat="45.50072" lon="5.9172">
        <ele>867.5</ele>
        <time>2014-04-04T13:58:14Z</time>
      </trkpt>
      <trkpt lat="45.50071" lon="5.91717">
        <ele>867.3</ele>
        <time>2014-04-04T13:58:16Z</time>
      </trkpt>
      <trkpt lat="45.5007" lon="5.91712">
        <ele>866.9</ele>
        <time>2014-04-04T13:58:18Z</time>
      </trkpt>
      <trkpt lat="45.50069" lon="5.91705">
        <ele>866</ele>
        <time>2014-04-04T13:58:20Z</time>
      </trkpt>
      <trkpt lat="45.50066" lon="5.91694">
        <ele>865.7</ele>
        <time>2014-04-04T13:58:22Z</time>
      </trkpt>
      <trkpt lat="45.50066" lon="5.9169">
        <ele>865.2</ele>
        <time>2014-04-04T13:58:24Z</time>
      </trkpt>
      <trkpt lat="45.50065" lon="5.91682">
        <ele>864.8</ele>
        <time>2014-04-04T13:58:26Z</time>
      </trkpt>
      <trkpt lat="45.50063" lon="5.91673">
        <ele>865.2</ele>
        <time>2014-04-04T13:58:28Z</time>
      </trkpt>
      <trkpt lat="45.50061" lon="5.91667">
        <ele>865.6</ele>
        <time>2014-04-04T13:58:30Z</time>
      </trkpt>
      <trkpt lat="45.50059" lon="5.91665">
        <ele>866.5</ele>
        <time>2014-04-04T13:58:32Z</time>
      </trkpt>
      <trkpt lat="45.50057" lon="5.91661">
        <ele>866.8</ele>
        <time>2014-04-04T13:58:34Z</time>
      </trkpt>
      <trkpt lat="45.50057" lon="5.9165">
        <ele>864.5</ele>
        <time>2014-04-04T13:58:36Z</time>
      </trkpt>
      <trkpt lat="45.50059" lon="5.91647">
        <ele>863.1</ele>
        <time>2014-04-04T13:58:38Z</time>
      </trkpt>
      <trkpt lat="45.50061" lon="5.91639">
        <ele>860.8</ele>
        <time>2014-04-04T13:58:40Z</time>
      </trkpt>
      <trkpt lat="45.50063" lon="5.91632">
        <ele>860</ele>
        <time>2014-04-04T13:58:42Z</time>
      </trkpt>
      <trkpt lat="45.50065" lon="5.91623">
        <ele>859</ele>
        <time>2014-04-04T13:58:44Z</time>
      </trkpt>
      <trkpt lat="45.50066" lon="5.91621">
        <ele>858.7</ele>
        <time>2014-04-04T13:58:46Z</time>
      </trkpt>
      <trkpt lat="45.50068" lon="5.91619">
        <ele>858.4</ele>
        <time>2014-04-04T13:58:48Z</time>
      </trkpt>
      <trkpt lat="45.50069" lon="5.91617">
        <ele>858.1</ele>
        <time>2014-04-04T13:58:50Z</time>
      </trkpt>
      <trkpt lat="45.50069" lon="5.91616">
        <ele>858.1</ele>
        <time>2014-04-04T13:58:52Z</time>
      </trkpt>
      <trkpt lat="45.5007" lon="5.91616">
        <ele>857.7</ele>
        <time>2014-04-04T13:58:54Z</time>
      </trkpt>
      <trkpt lat="45.50072" lon="5.91614">
        <ele>857.4</ele>
        <time>2014-04-04T13:58:56Z</time>
      </trkpt>
      <trkpt lat="45.50077" lon="5.91615">
        <ele>856.2</ele>
        <time>2014-04-04T13:58:58Z</time>
      </trkpt>
      <trkpt lat="45.5008" lon="5.91616">
        <ele>855.2</ele>
        <time>2014-04-04T13:59:00Z</time>
      </trkpt>
      <trkpt lat="45.50082" lon="5.91617">
        <ele>854.8</ele>
        <time>2014-04-04T13:59:02Z</time>
      </trkpt>
      <trkpt lat="45.50086" lon="5.91617">
        <ele>855.1</ele>
        <time>2014-04-04T13:59:04Z</time>
      </trkpt>
      <trkpt lat="45.50093" lon="5.91617">
        <ele>857.4</ele>
        <time>2014-04-04T13:59:06Z</time>
      </trkpt>
      <trkpt lat="45.50096" lon="5.91618">
        <ele>858.1</ele>
        <time>2014-04-04T13:59:08Z</time>
      </trkpt>
      <trkpt lat="45.50098" lon="5.9162">
        <ele>858</ele>
        <time>2014-04-04T13:59:10Z</time>
      </trkpt>
      <trkpt lat="45.50104" lon="5.91629">
        <ele>856.6</ele>
        <time>2014-04-04T13:59:12Z</time>
      </trkpt>
      <trkpt lat="45.50109" lon="5.91632">
        <ele>856</ele>
        <time>2014-04-04T13:59:14Z</time>
      </trkpt>
      <trkpt lat="45.50113" lon="5.91637">
        <ele>854.8</ele>
        <time>2014-04-04T13:59:16Z</time>
      </trkpt>
      <trkpt lat="45.50114" lon="5.9164">
        <ele>854.2</ele>
        <time>2014-04-04T13:59:18Z</time>
      </trkpt>
      <trkpt lat="45.50117" lon="5.91648">
        <ele>853.6</ele>
        <time>2014-04-04T13:59:20Z</time>
      </trkpt>
      <trkpt lat="45.50121" lon="5.91652">
        <ele>854.2</ele>
        <time>2014-04-04T13:59:22Z</time>
      </trkpt>
      <trkpt lat="45.50123" lon="5.91655">
        <ele>854.3</ele>
        <time>2014-04-04T13:59:24Z</time>
      </trkpt>
      <trkpt lat="45.50127" lon="5.91661">
        <ele>853.9</ele>
        <time>2014-04-04T13:59:26Z</time>
      </trkpt>
      <trkpt lat="45.50133" lon="5.91672">
        <ele>852.7</ele>
        <time>2014-04-04T13:59:28Z</time>
      </trkpt>
      <trkpt lat="45.50136" lon="5.91679">
        <ele>852.2</ele>
        <time>2014-04-04T13:59:30Z</time>
      </trkpt>
      <trkpt lat="45.50138" lon="5.91681">
        <ele>852</ele>
        <time>2014-04-04T13:59:32Z</time>
      </trkpt>
      <trkpt lat="45.50141" lon="5.91689">
        <ele>851.2</ele>
        <time>2014-04-04T13:59:34Z</time>
      </trkpt>
      <trkpt lat="45.50147" lon="5.91697">
        <ele>852</ele>
        <time>2014-04-04T13:59:36Z</time>
      </trkpt>
      <trkpt lat="45.50148" lon="5.917">
        <ele>851.8</ele>
        <time>2014-04-04T13:59:38Z</time>
      </trkpt>
      <trkpt lat="45.5015" lon="5.91705">
        <ele>851.5</ele>
        <time>2014-04-04T13:59:40Z</time>
      </trkpt>
      <trkpt lat="45.50153" lon="5.91709">
        <ele>851.8</ele>
        <time>2014-04-04T13:59:42Z</time>
      </trkpt>
      <trkpt lat="45.50155" lon="5.91715">
        <ele>851</ele>
        <time>2014-04-04T13:59:44Z</time>
      </trkpt>
      <trkpt lat="45.50157" lon="5.91719">
        <ele>851</ele>
        <time>2014-04-04T13:59:46Z</time>
      </trkpt>
      <trkpt lat="45.50159" lon="5.91723">
        <ele>850.7</ele>
        <time>2014-04-04T13:59:48Z</time>
      </trkpt>
      <trkpt lat="45.50163" lon="5.91729">
        <ele>851.6</ele>
        <time>2014-04-04T13:59:50Z</time>
      </trkpt>
      <trkpt lat="45.50166" lon="5.91739">
        <ele>851.1</ele>
        <time>2014-04-04T13:59:52Z</time>
      </trkpt>
      <trkpt lat="45.50166" lon="5.91742">
        <ele>850.5</ele>
        <time>2014-04-04T13:59:54Z</time>
      </trkpt>
      <trkpt lat="45.50167" lon="5.91746">
        <ele>849.8</ele>
        <time>2014-04-04T13:59:56Z</time>
      </trkpt>
      <trkpt lat="45.50169" lon="5.91755">
        <ele>850.9</ele>
        <time>2014-04-04T13:59:58Z</time>
      </trkpt>
      <trkpt lat="45.50169" lon="5.91762">
        <ele>851</ele>
        <time>2014-04-04T14:00:00Z</time>
      </trkpt>
      <trkpt lat="45.5017" lon="5.91766">
        <ele>851.3</ele>
        <time>2014-04-04T14:00:02Z</time>
      </trkpt>
      <trkpt lat="45.50171" lon="5.91773">
        <ele>852</ele>
        <time>2014-04-04T14:00:04Z</time>
      </trkpt>
      <trkpt lat="45.50173" lon="5.91785">
        <ele>851.9</ele>
        <time>2014-04-04T14:00:06Z</time>
      </trkpt>
      <trkpt lat="45.50175" lon="5.91792">
        <ele>851.9</ele>
        <time>2014-04-04T14:00:08Z</time>
      </trkpt>
      <trkpt lat="45.50176" lon="5.91795">
        <ele>852.2</ele>
        <time>2014-04-04T14:00:10Z</time>
      </trkpt>
      <trkpt lat="45.50179" lon="5.91802">
        <ele>852.4</ele>
        <time>2014-04-04T14:00:12Z</time>
      </trkpt>
      <trkpt lat="45.50181" lon="5.9181">
        <ele>851.9</ele>
        <time>2014-04-04T14:00:14Z</time>
      </trkpt>
      <trkpt lat="45.50182" lon="5.91812">
        <ele>851.8</ele>
        <time>2014-04-04T14:00:16Z</time>
      </trkpt>
      <trkpt lat="45.50184" lon="5.91816">
        <ele>851.6</ele>
        <time>2014-04-04T14:00:18Z</time>
      </trkpt>
      <trkpt lat="45.50188" lon="5.91823">
        <ele>851.3</ele>
        <time>2014-04-04T14:00:20Z</time>
      </trkpt>
      <trkpt lat="45.50187" lon="5.91823">
        <ele>851</ele>
        <time>2014-04-04T14:00:22Z</time>
      </trkpt>
      <trkpt lat="45.50187" lon="5.91822">
        <ele>851.5</ele>
        <time>2014-04-04T14:00:24Z</time>
      </trkpt>
      <trkpt lat="45.50191" lon="5.91822">
        <ele>852.7</ele>
        <time>2014-04-04T14:00:26Z</time>
      </trkpt>
      <trkpt lat="45.50195" lon="5.91823">
        <ele>853.6</ele>
        <time>2014-04-04T14:00:28Z</time>
      </trkpt>
      <trkpt lat="45.50199" lon="5.91823">
        <ele>853.7</ele>
        <time>2014-04-04T14:00:30Z</time>
      </trkpt>
      <trkpt lat="45.50202" lon="5.91822">
        <ele>854.4</ele>
        <time>2014-04-04T14:00:32Z</time>
      </trkpt>
      <trkpt lat="45.50206" lon="5.91823">
        <ele>854.3</ele>
        <time>2014-04-04T14:00:34Z</time>
      </trkpt>
      <trkpt lat="45.50209" lon="5.91827">
        <ele>853.3</ele>
        <time>2014-04-04T14:00:36Z</time>
      </trkpt>
      <trkpt lat="45.50209" lon="5.91829">
        <ele>852.8</ele>
        <time>2014-04-04T14:00:38Z</time>
      </trkpt>
      <trkpt lat="45.5021" lon="5.91831">
        <ele>852.5</ele>
        <time>2014-04-04T14:00:40Z</time>
      </trkpt>
      <trkpt lat="45.50213" lon="5.91833">
        <ele>852.1</ele>
        <time>2014-04-04T14:00:42Z</time>
      </trkpt>
      <trkpt lat="45.50217" lon="5.91841">
        <ele>851</ele>
        <time>2014-04-04T14:00:44Z</time>
      </trkpt>
      <trkpt lat="45.50218" lon="5.91844">
        <ele>850.7</ele>
        <time>2014-04-04T14:00:46Z</time>
      </trkpt>
      <trkpt lat="45.5022" lon="5.91847">
        <ele>850.6</ele>
        <time>2014-04-04T14:00:48Z</time>
      </trkpt>
      <trkpt lat="45.50224" lon="5.91852">
        <ele>851.2</ele>
        <time>2014-04-04T14:00:50Z</time>
      </trkpt>
      <trkpt lat="45.50227" lon="5.91855">
        <ele>852.3</ele>
        <time>2014-04-04T14:00:52Z</time>
      </trkpt>
      <trkpt lat="45.50229" lon="5.91857">
        <ele>852.8</ele>
        <time>2014-04-04T14:00:54Z</time>
      </trkpt>
      <trkpt lat="45.50233" lon="5.91858">
        <ele>854.5</ele>
        <time>2014-04-04T14:00:56Z</time>
      </trkpt>
      <trkpt lat="45.5024" lon="5.91861">
        <ele>857.1</ele>
        <time>2014-04-04T14:00:58Z</time>
      </trkpt>
      <trkpt lat="45.50243" lon="5.91864">
        <ele>857.4</ele>
        <time>2014-04-04T14:01:00Z</time>
      </trkpt>
      <trkpt lat="45.50244" lon="5.91866">
        <ele>857.6</ele>
        <time>2014-04-04T14:01:02Z</time>
      </trkpt>
      <trkpt lat="45.5025" lon="5.91872">
        <ele>857.4</ele>
        <time>2014-04-04T14:01:04Z</time>
      </trkpt>
      <trkpt lat="45.50254" lon="5.91877">
        <ele>856.6</ele>
        <time>2014-04-04T14:01:06Z</time>
      </trkpt>
      <trkpt lat="45.50255" lon="5.91878">
        <ele>856.4</ele>
        <time>2014-04-04T14:01:08Z</time>
      </trkpt>
      <trkpt lat="45.50258" lon="5.91882">
        <ele>855.9</ele>
        <time>2014-04-04T14:01:10Z</time>
      </trkpt>
      <trkpt lat="45.50262" lon="5.91885">
        <ele>855.9</ele>
        <time>2014-04-04T14:01:12Z</time>
      </trkpt>
      <trkpt lat="45.50267" lon="5.91888">
        <ele>856.8</ele>
        <time>2014-04-04T14:01:14Z</time>
      </trkpt>
      <trkpt lat="45.50269" lon="5.91889">
        <ele>857.4</ele>
        <time>2014-04-04T14:01:16Z</time>
      </trkpt>
      <trkpt lat="45.50273" lon="5.91889">
        <ele>859.1</ele>
        <time>2014-04-04T14:01:18Z</time>
      </trkpt>
      <trkpt lat="45.50279" lon="5.9189">
        <ele>860.4</ele>
        <time>2014-04-04T14:01:20Z</time>
      </trkpt>
      <trkpt lat="45.50283" lon="5.91893">
        <ele>859.6</ele>
        <time>2014-04-04T14:01:22Z</time>
      </trkpt>
      <trkpt lat="45.50285" lon="5.91895">
        <ele>859.1</ele>
        <time>2014-04-04T14:01:24Z</time>
      </trkpt>
      <trkpt lat="45.5029" lon="5.91899">
        <ele>858.2</ele>
        <time>2014-04-04T14:01:26Z</time>
      </trkpt>
      <trkpt lat="45.50295" lon="5.91902">
        <ele>858.4</ele>
        <time>2014-04-04T14:01:28Z</time>
      </trkpt>
      <trkpt lat="45.50296" lon="5.91903">
        <ele>858.5</ele>
        <time>2014-04-04T14:01:30Z</time>
      </trkpt>
      <trkpt lat="45.50299" lon="5.91908">
        <ele>857.9</ele>
        <time>2014-04-04T14:01:32Z</time>
      </trkpt>
      <trkpt lat="45.50305" lon="5.91913">
        <ele>858.5</ele>
        <time>2014-04-04T14:01:34Z</time>
      </trkpt>
      <trkpt lat="45.50309" lon="5.91917">
        <ele>858.8</ele>
        <time>2014-04-04T14:01:36Z</time>
      </trkpt>
      <trkpt lat="45.50311" lon="5.91918">
        <ele>858.8</ele>
        <time>2014-04-04T14:01:38Z</time>
      </trkpt>
      <trkpt lat="45.50315" lon="5.91919">
        <ele>859.3</ele>
        <time>2014-04-04T14:01:40Z</time>
      </trkpt>
      <trkpt lat="45.50322" lon="5.91924">
        <ele>859.4</ele>
        <time>2014-04-04T14:01:42Z</time>
      </trkpt>
      <trkpt lat="45.50326" lon="5.91928">
        <ele>859.4</ele>
        <time>2014-04-04T14:01:44Z</time>
      </trkpt>
      <trkpt lat="45.50329" lon="5.9193">
        <ele>859.5</ele>
        <time>2014-04-04T14:01:46Z</time>
      </trkpt>
      <trkpt lat="45.50333" lon="5.91935">
        <ele>859.6</ele>
        <time>2014-04-04T14:01:48Z</time>
      </trkpt>
      <trkpt lat="45.50339" lon="5.91942">
        <ele>859.9</ele>
        <time>2014-04-04T14:01:50Z</time>
      </trkpt>
      <trkpt lat="45.50343" lon="5.91946">
        <ele>859.7</ele>
        <time>2014-04-04T14:01:52Z</time>
      </trkpt>
      <trkpt lat="45.50345" lon="5.91947">
        <ele>859.5</ele>
        <time>2014-04-04T14:01:54Z</time>
      </trkpt>
      <trkpt lat="45.50349" lon="5.91952">
        <ele>859.3</ele>
        <time>2014-04-04T14:01:56Z</time>
      </trkpt>
      <trkpt lat="45.50355" lon="5.91959">
        <ele>859.2</ele>
        <time>2014-04-04T14:01:58Z</time>
      </trkpt>
      <trkpt lat="45.50358" lon="5.91965">
        <ele>859.3</ele>
        <time>2014-04-04T14:02:00Z</time>
      </trkpt>
      <trkpt lat="45.5036" lon="5.91967">
        <ele>859.6</ele>
        <time>2014-04-04T14:02:02Z</time>
      </trkpt>
      <trkpt lat="45.50364" lon="5.9197">
        <ele>860.1</ele>
        <time>2014-04-04T14:02:04Z</time>
      </trkpt>
      <trkpt lat="45.50369" lon="5.91975">
        <ele>860.1</ele>
        <time>2014-04-04T14:02:06Z</time>
      </trkpt>
      <trkpt lat="45.50371" lon="5.91978">
        <ele>859.9</ele>
        <time>2014-04-04T14:02:08Z</time>
      </trkpt>
      <trkpt lat="45.50375" lon="5.91983">
        <ele>859.9</ele>
        <time>2014-04-04T14:02:10Z</time>
      </trkpt>
      <trkpt lat="45.50382" lon="5.91992">
        <ele>860.4</ele>
        <time>2014-04-04T14:02:12Z</time>
      </trkpt>
      <trkpt lat="45.50386" lon="5.91998">
        <ele>861.1</ele>
        <time>2014-04-04T14:02:14Z</time>
      </trkpt>
      <trkpt lat="45.50388" lon="5.92">
        <ele>861.6</ele>
        <time>2014-04-04T14:02:16Z</time>
      </trkpt>
      <trkpt lat="45.50393" lon="5.92006">
        <ele>861.6</ele>
        <time>2014-04-04T14:02:18Z</time>
      </trkpt>
      <trkpt lat="45.504" lon="5.92013">
        <ele>861.5</ele>
        <time>2014-04-04T14:02:20Z</time>
      </trkpt>
      <trkpt lat="45.50402" lon="5.92014">
        <ele>861.7</ele>
        <time>2014-04-04T14:02:22Z</time>
      </trkpt>
      <trkpt lat="45.50407" lon="5.92017">
        <ele>862.3</ele>
        <time>2014-04-04T14:02:24Z</time>
      </trkpt>
      <trkpt lat="45.50411" lon="5.9202">
        <ele>862.6</ele>
        <time>2014-04-04T14:02:26Z</time>
      </trkpt>
      <trkpt lat="45.50418" lon="5.92023">
        <ele>863</ele>
        <time>2014-04-04T14:02:28Z</time>
      </trkpt>
      <trkpt lat="45.5042" lon="5.92024">
        <ele>862.8</ele>
        <time>2014-04-04T14:02:30Z</time>
      </trkpt>
      <trkpt lat="45.50426" lon="5.92024">
        <ele>862.5</ele>
        <time>2014-04-04T14:02:32Z</time>
      </trkpt>
      <trkpt lat="45.50433" lon="5.92023">
        <ele>862.7</ele>
        <time>2014-04-04T14:02:34Z</time>
      </trkpt>
      <trkpt lat="45.50438" lon="5.92021">
        <ele>862.9</ele>
        <time>2014-04-04T14:02:36Z</time>
      </trkpt>
      <trkpt lat="45.5044" lon="5.9202">
        <ele>863.2</ele>
        <time>2014-04-04T14:02:38Z</time>
      </trkpt>
      <trkpt lat="45.50444" lon="5.92018">
        <ele>863.6</ele>
        <time>2014-04-04T14:02:40Z</time>
      </trkpt>
      <trkpt lat="45.50451" lon="5.92015">
        <ele>863.8</ele>
        <time>2014-04-04T14:02:42Z</time>
      </trkpt>
      <trkpt lat="45.50454" lon="5.92016">
        <ele>863.4</ele>
        <time>2014-04-04T14:02:44Z</time>
      </trkpt>
      <trkpt lat="45.50456" lon="5.92016">
        <ele>863.1</ele>
        <time>2014-04-04T14:02:46Z</time>
      </trkpt>
      <trkpt lat="45.50459" lon="5.92017">
        <ele>862.8</ele>
        <time>2014-04-04T14:02:48Z</time>
      </trkpt>
      <trkpt lat="45.50464" lon="5.92019">
        <ele>862.1</ele>
        <time>2014-04-04T14:02:50Z</time>
      </trkpt>
      <trkpt lat="45.50465" lon="5.92019">
        <ele>862</ele>
        <time>2014-04-04T14:02:52Z</time>
      </trkpt>
      <trkpt lat="45.50467" lon="5.9202">
        <ele>861.6</ele>
        <time>2014-04-04T14:02:54Z</time>
      </trkpt>
      <trkpt lat="45.5047" lon="5.92022">
        <ele>861.2</ele>
        <time>2014-04-04T14:02:56Z</time>
      </trkpt>
      <trkpt lat="45.50475" lon="5.92024">
        <ele>861</ele>
        <time>2014-04-04T14:02:58Z</time>
      </trkpt>
      <trkpt lat="45.50476" lon="5.92025">
        <ele>861</ele>
        <time>2014-04-04T14:03:00Z</time>
      </trkpt>
      <trkpt lat="45.50479" lon="5.92027">
        <ele>861.1</ele>
        <time>2014-04-04T14:03:02Z</time>
      </trkpt>
      <trkpt lat="45.50482" lon="5.92028">
        <ele>861.2</ele>
        <time>2014-04-04T14:03:04Z</time>
      </trkpt>
      <trkpt lat="45.50485" lon="5.9203">
        <ele>861.2</ele>
        <time>2014-04-04T14:03:06Z</time>
      </trkpt>
      <trkpt lat="45.50486" lon="5.92031">
        <ele>861.1</ele>
        <time>2014-04-04T14:03:08Z</time>
      </trkpt>
      <trkpt lat="45.50489" lon="5.92032">
        <ele>861</ele>
        <time>2014-04-04T14:03:10Z</time>
      </trkpt>
      <trkpt lat="45.50493" lon="5.92036">
        <ele>860.9</ele>
        <time>2014-04-04T14:03:12Z</time>
      </trkpt>
      <trkpt lat="45.50495" lon="5.92038">
        <ele>861.1</ele>
        <time>2014-04-04T14:03:14Z</time>
      </trkpt>
      <trkpt lat="45.50497" lon="5.92038">
        <ele>861.3</ele>
        <time>2014-04-04T14:03:16Z</time>
      </trkpt>
      <trkpt lat="45.50499" lon="5.92041">
        <ele>861.4</ele>
        <time>2014-04-04T14:03:18Z</time>
      </trkpt>
      <trkpt lat="45.50504" lon="5.92045">
        <ele>861.6</ele>
        <time>2014-04-04T14:03:20Z</time>
      </trkpt>
      <trkpt lat="45.50506" lon="5.92047">
        <ele>861.6</ele>
        <time>2014-04-04T14:03:22Z</time>
      </trkpt>
      <trkpt lat="45.50507" lon="5.92047">
        <ele>861.8</ele>
        <time>2014-04-04T14:03:24Z</time>
      </trkpt>
      <trkpt lat="45.5051" lon="5.92049">
        <ele>861.9</ele>
        <time>2014-04-04T14:03:26Z</time>
      </trkpt>
      <trkpt lat="45.50513" lon="5.92051">
        <ele>862.1</ele>
        <time>2014-04-04T14:03:28Z</time>
      </trkpt>
      <trkpt lat="45.50514" lon="5.92052">
        <ele>862.1</ele>
        <time>2014-04-04T14:03:30Z</time>
      </trkpt>
      <trkpt lat="45.50516" lon="5.92054">
        <ele>862.2</ele>
        <time>2014-04-04T14:03:32Z</time>
      </trkpt>
      <trkpt lat="45.50519" lon="5.92055">
        <ele>862.5</ele>
        <time>2014-04-04T14:03:34Z</time>
      </trkpt>
      <trkpt lat="45.5052" lon="5.92054">
        <ele>862.8</ele>
        <time>2014-04-04T14:03:36Z</time>
      </trkpt>
      <trkpt lat="45.50521" lon="5.92054">
        <ele>863</ele>
        <time>2014-04-04T14:03:38Z</time>
      </trkpt>
      <trkpt lat="45.50522" lon="5.92053">
        <ele>863.4</ele>
        <time>2014-04-04T14:03:40Z</time>
      </trkpt>
      <trkpt lat="45.50524" lon="5.92051">
        <ele>864</ele>
        <time>2014-04-04T14:03:42Z</time>
      </trkpt>
      <trkpt lat="45.50525" lon="5.9205">
        <ele>864.3</ele>
        <time>2014-04-04T14:03:44Z</time>
      </trkpt>
      <trkpt lat="45.50526" lon="5.9205">
        <ele>864.5</ele>
        <time>2014-04-04T14:03:46Z</time>
      </trkpt>
      <trkpt lat="45.50528" lon="5.92049">
        <ele>864.9</ele>
        <time>2014-04-04T14:03:48Z</time>
      </trkpt>
      <trkpt lat="45.50528" lon="5.92048">
        <ele>865.2</ele>
        <time>2014-04-04T14:03:50Z</time>
      </trkpt>
      <trkpt lat="45.50529" lon="5.92048">
        <ele>865.4</ele>
        <time>2014-04-04T14:03:52Z</time>
      </trkpt>
      <trkpt lat="45.50529" lon="5.92046">
        <ele>865.7</ele>
        <time>2014-04-04T14:03:54Z</time>
      </trkpt>
      <trkpt lat="45.5053" lon="5.92045">
        <ele>866</ele>
        <time>2014-04-04T14:03:56Z</time>
      </trkpt>
      <trkpt lat="45.50531" lon="5.92045">
        <ele>866.4</ele>
        <time>2014-04-04T14:03:58Z</time>
      </trkpt>
      <trkpt lat="45.50531" lon="5.92045">
        <ele>866.4</ele>
        <time>2014-04-04T14:04:00Z</time>
      </trkpt>
      <trkpt lat="45.50532" lon="5.92046">
        <ele>866.5</ele>
        <time>2014-04-04T14:04:02Z</time>
      </trkpt>
      <trkpt lat="45.50533" lon="5.92047">
        <ele>866.6</ele>
        <time>2014-04-04T14:04:04Z</time>
      </trkpt>
      <trkpt lat="45.50534" lon="5.92046">
        <ele>866.9</ele>
        <time>2014-04-04T14:04:06Z</time>
      </trkpt>
      <trkpt lat="45.50534" lon="5.92046">
        <ele>867</ele>
        <time>2014-04-04T14:04:08Z</time>
      </trkpt>
      <trkpt lat="45.50535" lon="5.92046">
        <ele>867.2</ele>
        <time>2014-04-04T14:04:10Z</time>
      </trkpt>
      <trkpt lat="45.50537" lon="5.92047">
        <ele>867.6</ele>
        <time>2014-04-04T14:04:12Z</time>
      </trkpt>
      <trkpt lat="45.50539" lon="5.92049">
        <ele>867.7</ele>
        <time>2014-04-04T14:04:14Z</time>
      </trkpt>
      <trkpt lat="45.50539" lon="5.9205">
        <ele>867.8</ele>
        <time>2014-04-04T14:04:16Z</time>
      </trkpt>
      <trkpt lat="45.50541" lon="5.92053">
        <ele>867.8</ele>
        <time>2014-04-04T14:04:18Z</time>
      </trkpt>
      <trkpt lat="45.50543" lon="5.92056">
        <ele>867.7</ele>
        <time>2014-04-04T14:04:20Z</time>
      </trkpt>
      <trkpt lat="45.50544" lon="5.92059">
        <ele>867.6</ele>
        <time>2014-04-04T14:04:22Z</time>
      </trkpt>
      <trkpt lat="45.50545" lon="5.9206">
        <ele>867.5</ele>
        <time>2014-04-04T14:04:24Z</time>
      </trkpt>
      <trkpt lat="45.50546" lon="5.92063">
        <ele>867.5</ele>
        <time>2014-04-04T14:04:26Z</time>
      </trkpt>
      <trkpt lat="45.50549" lon="5.92068">
        <ele>867.6</ele>
        <time>2014-04-04T14:04:28Z</time>
      </trkpt>
      <trkpt lat="45.5055" lon="5.9207">
        <ele>867.6</ele>
        <time>2014-04-04T14:04:30Z</time>
      </trkpt>
      <trkpt lat="45.50553" lon="5.92074">
        <ele>867.6</ele>
        <time>2014-04-04T14:04:32Z</time>
      </trkpt>
      <trkpt lat="45.50555" lon="5.92077">
        <ele>867.8</ele>
        <time>2014-04-04T14:04:34Z</time>
      </trkpt>
      <trkpt lat="45.50559" lon="5.92084">
        <ele>867.6</ele>
        <time>2014-04-04T14:04:36Z</time>
      </trkpt>
      <trkpt lat="45.50561" lon="5.92087">
        <ele>867.4</ele>
        <time>2014-04-04T14:04:38Z</time>
      </trkpt>
      <trkpt lat="45.50563" lon="5.92092">
        <ele>866.5</ele>
        <time>2014-04-04T14:04:40Z</time>
      </trkpt>
      <trkpt lat="45.50568" lon="5.92101">
        <ele>865.6</ele>
        <time>2014-04-04T14:04:42Z</time>
      </trkpt>
      <trkpt lat="45.50569" lon="5.92105">
        <ele>865.4</ele>
        <time>2014-04-04T14:04:44Z</time>
      </trkpt>
      <trkpt lat="45.50572" lon="5.92111">
        <ele>864.7</ele>
        <time>2014-04-04T14:04:46Z</time>
      </trkpt>
      <trkpt lat="45.50575" lon="5.92119">
        <ele>864.6</ele>
        <time>2014-04-04T14:04:48Z</time>
      </trkpt>
      <trkpt lat="45.50579" lon="5.92128">
        <ele>865.1</ele>
        <time>2014-04-04T14:04:50Z</time>
      </trkpt>
      <trkpt lat="45.5058" lon="5.92132">
        <ele>865.3</ele>
        <time>2014-04-04T14:04:52Z</time>
      </trkpt>
      <trkpt lat="45.50583" lon="5.92139">
        <ele>865.6</ele>
        <time>2014-04-04T14:04:54Z</time>
      </trkpt>
      <trkpt lat="45.50585" lon="5.9215">
        <ele>865.4</ele>
        <time>2014-04-04T14:04:56Z</time>
      </trkpt>
      <trkpt lat="45.50587" lon="5.92156">
        <ele>865.1</ele>
        <time>2014-04-04T14:04:58Z</time>
      </trkpt>
      <trkpt lat="45.50587" lon="5.9216">
        <ele>865</ele>
        <time>2014-04-04T14:05:00Z</time>
      </trkpt>
      <trkpt lat="45.50589" lon="5.92168">
        <ele>864.8</ele>
        <time>2014-04-04T14:05:02Z</time>
      </trkpt>
      <trkpt lat="45.50591" lon="5.9218">
        <ele>864.4</ele>
        <time>2014-04-04T14:05:04Z</time>
      </trkpt>
      <trkpt lat="45.50592" lon="5.92187">
        <ele>864.1</ele>
        <time>2014-04-04T14:05:06Z</time>
      </trkpt>
      <trkpt lat="45.50593" lon="5.92192">
        <ele>864</ele>
        <time>2014-04-04T14:05:08Z</time>
      </trkpt>
      <trkpt lat="45.50594" lon="5.922">
        <ele>863.8</ele>
        <time>2014-04-04T14:05:10Z</time>
      </trkpt>
      <trkpt lat="45.50596" lon="5.92211">
        <ele>863.6</ele>
        <time>2014-04-04T14:05:12Z</time>
      </trkpt>
      <trkpt lat="45.50597" lon="5.92219">
        <ele>863.5</ele>
        <time>2014-04-04T14:05:14Z</time>
      </trkpt>
      <trkpt lat="45.50597" lon="5.92222">
        <ele>863.5</ele>
        <time>2014-04-04T14:05:16Z</time>
      </trkpt>
      <trkpt lat="45.50599" lon="5.9223">
        <ele>863.6</ele>
        <time>2014-04-04T14:05:18Z</time>
      </trkpt>
      <trkpt lat="45.50602" lon="5.9224">
        <ele>864.1</ele>
        <time>2014-04-04T14:05:20Z</time>
      </trkpt>
      <trkpt lat="45.50602" lon="5.92244">
        <ele>864.2</ele>
        <time>2014-04-04T14:05:22Z</time>
      </trkpt>
      <trkpt lat="45.50604" lon="5.92251">
        <ele>864.4</ele>
        <time>2014-04-04T14:05:24Z</time>
      </trkpt>
      <trkpt lat="45.50607" lon="5.92261">
        <ele>864.5</ele>
        <time>2014-04-04T14:05:26Z</time>
      </trkpt>
      <trkpt lat="45.50609" lon="5.92269">
        <ele>864.8</ele>
        <time>2014-04-04T14:05:28Z</time>
      </trkpt>
      <trkpt lat="45.5061" lon="5.92272">
        <ele>865</ele>
        <time>2014-04-04T14:05:30Z</time>
      </trkpt>
      <trkpt lat="45.50612" lon="5.92279">
        <ele>865.1</ele>
        <time>2014-04-04T14:05:32Z</time>
      </trkpt>
      <trkpt lat="45.50616" lon="5.9229">
        <ele>864.2</ele>
        <time>2014-04-04T14:05:34Z</time>
      </trkpt>
      <trkpt lat="45.50619" lon="5.92297">
        <ele>863.8</ele>
        <time>2014-04-04T14:05:36Z</time>
      </trkpt>
      <trkpt lat="45.5062" lon="5.923">
        <ele>863.7</ele>
        <time>2014-04-04T14:05:38Z</time>
      </trkpt>
      <trkpt lat="45.50623" lon="5.92307">
        <ele>863.6</ele>
        <time>2014-04-04T14:05:40Z</time>
      </trkpt>
      <trkpt lat="45.50628" lon="5.92316">
        <ele>863.3</ele>
        <time>2014-04-04T14:05:42Z</time>
      </trkpt>
      <trkpt lat="45.50631" lon="5.92323">
        <ele>863.2</ele>
        <time>2014-04-04T14:05:44Z</time>
      </trkpt>
      <trkpt lat="45.50633" lon="5.92326">
        <ele>863.3</ele>
        <time>2014-04-04T14:05:46Z</time>
      </trkpt>
      <trkpt lat="45.50636" lon="5.92333">
        <ele>863.6</ele>
        <time>2014-04-04T14:05:48Z</time>
      </trkpt>
      <trkpt lat="45.50639" lon="5.92339">
        <ele>863.7</ele>
        <time>2014-04-04T14:05:50Z</time>
      </trkpt>
      <trkpt lat="45.50643" lon="5.92345">
        <ele>863.6</ele>
        <time>2014-04-04T14:05:52Z</time>
      </trkpt>
      <trkpt lat="45.50647" lon="5.92351">
        <ele>863.6</ele>
        <time>2014-04-04T14:05:54Z</time>
      </trkpt>
      <trkpt lat="45.50652" lon="5.92359">
        <ele>863.9</ele>
        <time>2014-04-04T14:05:56Z</time>
      </trkpt>
      <trkpt lat="45.50656" lon="5.92363">
        <ele>864.3</ele>
        <time>2014-04-04T14:05:58Z</time>
      </trkpt>
      <trkpt lat="45.50658" lon="5.92365">
        <ele>864.4</ele>
        <time>2014-04-04T14:06:00Z</time>
      </trkpt>
      <trkpt lat="45.50662" lon="5.92369">
        <ele>864.8</ele>
        <time>2014-04-04T14:06:02Z</time>
      </trkpt>
      <trkpt lat="45.50668" lon="5.92375">
        <ele>865.4</ele>
        <time>2014-04-04T14:06:04Z</time>
      </trkpt>
      <trkpt lat="45.50672" lon="5.92378">
        <ele>865.1</ele>
        <time>2014-04-04T14:06:06Z</time>
      </trkpt>
      <trkpt lat="45.50675" lon="5.9238">
        <ele>865.1</ele>
        <time>2014-04-04T14:06:08Z</time>
      </trkpt>
      <trkpt lat="45.50681" lon="5.92386">
        <ele>864.6</ele>
        <time>2014-04-04T14:06:10Z</time>
      </trkpt>
      <trkpt lat="45.50686" lon="5.92389">
        <ele>864.5</ele>
        <time>2014-04-04T14:06:12Z</time>
      </trkpt>
      <trkpt lat="45.50689" lon="5.92391">
        <ele>864.6</ele>
        <time>2014-04-04T14:06:14Z</time>
      </trkpt>
      <trkpt lat="45.50693" lon="5.92394">
        <ele>865</ele>
        <time>2014-04-04T14:06:16Z</time>
      </trkpt>
      <trkpt lat="45.50698" lon="5.92396">
        <ele>865</ele>
        <time>2014-04-04T14:06:18Z</time>
      </trkpt>
      <trkpt lat="45.50706" lon="5.924">
        <ele>865</ele>
        <time>2014-04-04T14:06:20Z</time>
      </trkpt>
      <trkpt lat="45.50708" lon="5.92401">
        <ele>865.1</ele>
        <time>2014-04-04T14:06:22Z</time>
      </trkpt>
      <trkpt lat="45.50712" lon="5.92402">
        <ele>865.4</ele>
        <time>2014-04-04T14:06:24Z</time>
      </trkpt>
      <trkpt lat="45.5072" lon="5.92402">
        <ele>866</ele>
        <time>2014-04-04T14:06:26Z</time>
      </trkpt>
      <trkpt lat="45.50726" lon="5.924">
        <ele>866</ele>
        <time>2014-04-04T14:06:28Z</time>
      </trkpt>
      <trkpt lat="45.50729" lon="5.92398">
        <ele>865.7</ele>
        <time>2014-04-04T14:06:30Z</time>
      </trkpt>
      <trkpt lat="45.50734" lon="5.92395">
        <ele>865.5</ele>
        <time>2014-04-04T14:06:32Z</time>
      </trkpt>
      <trkpt lat="45.50741" lon="5.9239">
        <ele>865.4</ele>
        <time>2014-04-04T14:06:34Z</time>
      </trkpt>
      <trkpt lat="45.50745" lon="5.92387">
        <ele>865.4</ele>
        <time>2014-04-04T14:06:36Z</time>
      </trkpt>
      <trkpt lat="45.50747" lon="5.92385">
        <ele>865.4</ele>
        <time>2014-04-04T14:06:38Z</time>
      </trkpt>
      <trkpt lat="45.50751" lon="5.92381">
        <ele>865.2</ele>
        <time>2014-04-04T14:06:40Z</time>
      </trkpt>
      <trkpt lat="45.50757" lon="5.92373">
        <ele>865</ele>
        <time>2014-04-04T14:06:42Z</time>
      </trkpt>
      <trkpt lat="45.50759" lon="5.92371">
        <ele>864.8</ele>
        <time>2014-04-04T14:06:44Z</time>
      </trkpt>
      <trkpt lat="45.50763" lon="5.92366">
        <ele>864.8</ele>
        <time>2014-04-04T14:06:46Z</time>
      </trkpt>
      <trkpt lat="45.50766" lon="5.92361">
        <ele>864.9</ele>
        <time>2014-04-04T14:06:48Z</time>
      </trkpt>
      <trkpt lat="45.5077" lon="5.92353">
        <ele>865</ele>
        <time>2014-04-04T14:06:50Z</time>
      </trkpt>
      <trkpt lat="45.50771" lon="5.9235">
        <ele>865</ele>
        <time>2014-04-04T14:06:52Z</time>
      </trkpt>
      <trkpt lat="45.50774" lon="5.92345">
        <ele>865</ele>
        <time>2014-04-04T14:06:54Z</time>
      </trkpt>
      <trkpt lat="45.50776" lon="5.92338">
        <ele>864.9</ele>
        <time>2014-04-04T14:06:56Z</time>
      </trkpt>
      <trkpt lat="45.50782" lon="5.9233">
        <ele>864.3</ele>
        <time>2014-04-04T14:06:58Z</time>
      </trkpt>
      <trkpt lat="45.50784" lon="5.92328">
        <ele>864.3</ele>
        <time>2014-04-04T14:07:00Z</time>
      </trkpt>
      <trkpt lat="45.50789" lon="5.92323">
        <ele>864.1</ele>
        <time>2014-04-04T14:07:02Z</time>
      </trkpt>
      <trkpt lat="45.50796" lon="5.92319">
        <ele>862.9</ele>
        <time>2014-04-04T14:07:04Z</time>
      </trkpt>
      <trkpt lat="45.50802" lon="5.92318">
        <ele>861.7</ele>
        <time>2014-04-04T14:07:06Z</time>
      </trkpt>
      <trkpt lat="45.50804" lon="5.92318">
        <ele>860.8</ele>
        <time>2014-04-04T14:07:08Z</time>
      </trkpt>
      <trkpt lat="45.50809" lon="5.92319">
        <ele>860.5</ele>
        <time>2014-04-04T14:07:10Z</time>
      </trkpt>
      <trkpt lat="45.50817" lon="5.92319">
        <ele>860.6</ele>
        <time>2014-04-04T14:07:12Z</time>
      </trkpt>
      <trkpt lat="45.5082" lon="5.9232">
        <ele>860.7</ele>
        <time>2014-04-04T14:07:14Z</time>
      </trkpt>
      <trkpt lat="45.50825" lon="5.92319">
        <ele>861.3</ele>
        <time>2014-04-04T14:07:16Z</time>
      </trkpt>
      <trkpt lat="45.50833" lon="5.92317">
        <ele>862</ele>
        <time>2014-04-04T14:07:18Z</time>
      </trkpt>
      <trkpt lat="45.50839" lon="5.92318">
        <ele>861.9</ele>
        <time>2014-04-04T14:07:20Z</time>
      </trkpt>
      <trkpt lat="45.50841" lon="5.92319">
        <ele>861.8</ele>
        <time>2014-04-04T14:07:22Z</time>
      </trkpt>
      <trkpt lat="45.50847" lon="5.9232">
        <ele>861.5</ele>
        <time>2014-04-04T14:07:24Z</time>
      </trkpt>
      <trkpt lat="45.50853" lon="5.92322">
        <ele>861.1</ele>
        <time>2014-04-04T14:07:26Z</time>
      </trkpt>
      <trkpt lat="45.50858" lon="5.92325">
        <ele>860.4</ele>
        <time>2014-04-04T14:07:28Z</time>
      </trkpt>
      <trkpt lat="45.50861" lon="5.92326">
        <ele>860.1</ele>
        <time>2014-04-04T14:07:30Z</time>
      </trkpt>
      <trkpt lat="45.50868" lon="5.92331">
        <ele>860.8</ele>
        <time>2014-04-04T14:07:32Z</time>
      </trkpt>
      <trkpt lat="45.50873" lon="5.92336">
        <ele>860.2</ele>
        <time>2014-04-04T14:07:34Z</time>
      </trkpt>
      <trkpt lat="45.50876" lon="5.92342">
        <ele>859.4</ele>
        <time>2014-04-04T14:07:36Z</time>
      </trkpt>
      <trkpt lat="45.50879" lon="5.92345">
        <ele>859.1</ele>
        <time>2014-04-04T14:07:38Z</time>
      </trkpt>
      <trkpt lat="45.50882" lon="5.92352">
        <ele>858.6</ele>
        <time>2014-04-04T14:07:40Z</time>
      </trkpt>
      <trkpt lat="45.50886" lon="5.92362">
        <ele>858.2</ele>
        <time>2014-04-04T14:07:42Z</time>
      </trkpt>
      <trkpt lat="45.50888" lon="5.92366">
        <ele>858.2</ele>
        <time>2014-04-04T14:07:44Z</time>
      </trkpt>
      <trkpt lat="45.50892" lon="5.92373">
        <ele>858.4</ele>
        <time>2014-04-04T14:07:46Z</time>
      </trkpt>
      <trkpt lat="45.50896" lon="5.92382">
        <ele>858.7</ele>
        <time>2014-04-04T14:07:48Z</time>
      </trkpt>
      <trkpt lat="45.50899" lon="5.92389">
        <ele>858.8</ele>
        <time>2014-04-04T14:07:50Z</time>
      </trkpt>
      <trkpt lat="45.509" lon="5.92392">
        <ele>858.5</ele>
        <time>2014-04-04T14:07:52Z</time>
      </trkpt>
      <trkpt lat="45.50903" lon="5.924">
        <ele>858</ele>
        <time>2014-04-04T14:07:54Z</time>
      </trkpt>
      <trkpt lat="45.50908" lon="5.92411">
        <ele>857.7</ele>
        <time>2014-04-04T14:07:56Z</time>
      </trkpt>
      <trkpt lat="45.5091" lon="5.92419">
        <ele>856.9</ele>
        <time>2014-04-04T14:07:58Z</time>
      </trkpt>
      <trkpt lat="45.50911" lon="5.92422">
        <ele>856.8</ele>
        <time>2014-04-04T14:08:00Z</time>
      </trkpt>
      <trkpt lat="45.50914" lon="5.9243">
        <ele>857</ele>
        <time>2014-04-04T14:08:02Z</time>
      </trkpt>
      <trkpt lat="45.50919" lon="5.92441">
        <ele>857.6</ele>
        <time>2014-04-04T14:08:04Z</time>
      </trkpt>
      <trkpt lat="45.5092" lon="5.92444">
        <ele>857.7</ele>
        <time>2014-04-04T14:08:06Z</time>
      </trkpt>
      <trkpt lat="45.50923" lon="5.92451">
        <ele>857.5</ele>
        <time>2014-04-04T14:08:08Z</time>
      </trkpt>
      <trkpt lat="45.50927" lon="5.92461">
        <ele>857.5</ele>
        <time>2014-04-04T14:08:10Z</time>
      </trkpt>
      <trkpt lat="45.5093" lon="5.92468">
        <ele>857.3</ele>
        <time>2014-04-04T14:08:12Z</time>
      </trkpt>
      <trkpt lat="45.50932" lon="5.92471">
        <ele>857.3</ele>
        <time>2014-04-04T14:08:14Z</time>
      </trkpt>
      <trkpt lat="45.50935" lon="5.92477">
        <ele>857.1</ele>
        <time>2014-04-04T14:08:16Z</time>
      </trkpt>
      <trkpt lat="45.5094" lon="5.92487">
        <ele>856.7</ele>
        <time>2014-04-04T14:08:18Z</time>
      </trkpt>
      <trkpt lat="45.50944" lon="5.92492">
        <ele>857.3</ele>
        <time>2014-04-04T14:08:20Z</time>
      </trkpt>
      <trkpt lat="45.50947" lon="5.92495">
        <ele>857</ele>
        <time>2014-04-04T14:08:22Z</time>
      </trkpt>
      <trkpt lat="45.5095" lon="5.925">
        <ele>856.5</ele>
        <time>2014-04-04T14:08:24Z</time>
      </trkpt>
      <trkpt lat="45.50957" lon="5.92507">
        <ele>855.9</ele>
        <time>2014-04-04T14:08:26Z</time>
      </trkpt>
      <trkpt lat="45.5096" lon="5.92513">
        <ele>855.1</ele>
        <time>2014-04-04T14:08:28Z</time>
      </trkpt>
      <trkpt lat="45.50962" lon="5.92517">
        <ele>854.5</ele>
        <time>2014-04-04T14:08:30Z</time>
      </trkpt>
      <trkpt lat="45.50966" lon="5.92523">
        <ele>853.4</ele>
        <time>2014-04-04T14:08:32Z</time>
      </trkpt>
      <trkpt lat="45.50971" lon="5.92532">
        <ele>852.8</ele>
        <time>2014-04-04T14:08:34Z</time>
      </trkpt>
      <trkpt lat="45.50973" lon="5.92535">
        <ele>852.8</ele>
        <time>2014-04-04T14:08:36Z</time>
      </trkpt>
      <trkpt lat="45.50977" lon="5.92539">
        <ele>852.5</ele>
        <time>2014-04-04T14:08:38Z</time>
      </trkpt>
      <trkpt lat="45.50984" lon="5.92545">
        <ele>852.4</ele>
        <time>2014-04-04T14:08:40Z</time>
      </trkpt>
      <trkpt lat="45.50989" lon="5.92549">
        <ele>852.2</ele>
        <time>2014-04-04T14:08:42Z</time>
      </trkpt>
      <trkpt lat="45.50991" lon="5.9255">
        <ele>852.1</ele>
        <time>2014-04-04T14:08:44Z</time>
      </trkpt>
      <trkpt lat="45.50996" lon="5.92552">
        <ele>852.3</ele>
        <time>2014-04-04T14:08:46Z</time>
      </trkpt>
      <trkpt lat="45.51003" lon="5.92555">
        <ele>852.3</ele>
        <time>2014-04-04T14:08:48Z</time>
      </trkpt>
      <trkpt lat="45.51008" lon="5.92557">
        <ele>852.1</ele>
        <time>2014-04-04T14:08:50Z</time>
      </trkpt>
      <trkpt lat="45.5101" lon="5.92558">
        <ele>852</ele>
        <time>2014-04-04T14:08:52Z</time>
      </trkpt>
      <trkpt lat="45.51015" lon="5.92559">
        <ele>852</ele>
        <time>2014-04-04T14:08:54Z</time>
      </trkpt>
      <trkpt lat="45.51022" lon="5.92562">
        <ele>851.8</ele>
        <time>2014-04-04T14:08:56Z</time>
      </trkpt>
      <trkpt lat="45.51027" lon="5.92562">
        <ele>852</ele>
        <time>2014-04-04T14:08:58Z</time>
      </trkpt>
      <trkpt lat="45.51029" lon="5.92564">
        <ele>851.9</ele>
        <time>2014-04-04T14:09:00Z</time>
      </trkpt>
      <trkpt lat="45.51034" lon="5.92566">
        <ele>851.4</ele>
        <time>2014-04-04T14:09:02Z</time>
      </trkpt>
      <trkpt lat="45.51042" lon="5.92571">
        <ele>850.7</ele>
        <time>2014-04-04T14:09:04Z</time>
      </trkpt>
      <trkpt lat="45.51045" lon="5.92574">
        <ele>850.3</ele>
        <time>2014-04-04T14:09:06Z</time>
      </trkpt>
      <trkpt lat="45.5105" lon="5.92579">
        <ele>849.6</ele>
        <time>2014-04-04T14:09:08Z</time>
      </trkpt>
      <trkpt lat="45.51057" lon="5.92585">
        <ele>848.6</ele>
        <time>2014-04-04T14:09:10Z</time>
      </trkpt>
      <trkpt lat="45.51061" lon="5.9259">
        <ele>847.8</ele>
        <time>2014-04-04T14:09:12Z</time>
      </trkpt>
      <trkpt lat="45.51064" lon="5.92593">
        <ele>847.4</ele>
        <time>2014-04-04T14:09:14Z</time>
      </trkpt>
      <trkpt lat="45.51069" lon="5.92597">
        <ele>847.1</ele>
        <time>2014-04-04T14:09:16Z</time>
      </trkpt>
      <trkpt lat="45.51076" lon="5.92602">
        <ele>847.3</ele>
        <time>2014-04-04T14:09:18Z</time>
      </trkpt>
      <trkpt lat="45.51081" lon="5.92606">
        <ele>847.6</ele>
        <time>2014-04-04T14:09:20Z</time>
      </trkpt>
      <trkpt lat="45.51084" lon="5.92608">
        <ele>847.7</ele>
        <time>2014-04-04T14:09:22Z</time>
      </trkpt>
      <trkpt lat="45.51091" lon="5.92613">
        <ele>846.3</ele>
        <time>2014-04-04T14:09:24Z</time>
      </trkpt>
      <trkpt lat="45.51097" lon="5.92616">
        <ele>845.5</ele>
        <time>2014-04-04T14:09:26Z</time>
      </trkpt>
      <trkpt lat="45.51099" lon="5.92617">
        <ele>845.1</ele>
        <time>2014-04-04T14:09:28Z</time>
      </trkpt>
      <trkpt lat="45.51105" lon="5.92619">
        <ele>844.7</ele>
        <time>2014-04-04T14:09:30Z</time>
      </trkpt>
      <trkpt lat="45.51111" lon="5.92621">
        <ele>844.6</ele>
        <time>2014-04-04T14:09:32Z</time>
      </trkpt>
      <trkpt lat="45.51118" lon="5.92622">
        <ele>844.5</ele>
        <time>2014-04-04T14:09:34Z</time>
      </trkpt>
      <trkpt lat="45.51121" lon="5.92623">
        <ele>844.4</ele>
        <time>2014-04-04T14:09:36Z</time>
      </trkpt>
      <trkpt lat="45.51126" lon="5.92624">
        <ele>844.3</ele>
        <time>2014-04-04T14:09:38Z</time>
      </trkpt>
      <trkpt lat="45.51134" lon="5.92627">
        <ele>843.6</ele>
        <time>2014-04-04T14:09:40Z</time>
      </trkpt>
      <trkpt lat="45.51139" lon="5.92629">
        <ele>843.2</ele>
        <time>2014-04-04T14:09:42Z</time>
      </trkpt>
      <trkpt lat="45.51141" lon="5.9263">
        <ele>843</ele>
        <time>2014-04-04T14:09:44Z</time>
      </trkpt>
      <trkpt lat="45.51147" lon="5.9263">
        <ele>842.7</ele>
        <time>2014-04-04T14:09:46Z</time>
      </trkpt>
      <trkpt lat="45.51154" lon="5.9263">
        <ele>842.3</ele>
        <time>2014-04-04T14:09:48Z</time>
      </trkpt>
      <trkpt lat="45.51158" lon="5.92629">
        <ele>842.5</ele>
        <time>2014-04-04T14:09:50Z</time>
      </trkpt>
      <trkpt lat="45.5116" lon="5.92628">
        <ele>842.7</ele>
        <time>2014-04-04T14:09:52Z</time>
      </trkpt>
      <trkpt lat="45.51164" lon="5.92628">
        <ele>842.5</ele>
        <time>2014-04-04T14:09:54Z</time>
      </trkpt>
      <trkpt lat="45.51165" lon="5.92629">
        <ele>842.3</ele>
        <time>2014-04-04T14:09:56Z</time>
      </trkpt>
      <trkpt lat="45.51168" lon="5.92629">
        <ele>842.1</ele>
        <time>2014-04-04T14:09:58Z</time>
      </trkpt>
      <trkpt lat="45.5117" lon="5.92628">
        <ele>842</ele>
        <time>2014-04-04T14:10:00Z</time>
      </trkpt>
      <trkpt lat="45.51174" lon="5.92628">
        <ele>841.6</ele>
        <time>2014-04-04T14:10:02Z</time>
      </trkpt>
      <trkpt lat="45.51176" lon="5.92628">
        <ele>841.4</ele>
        <time>2014-04-04T14:10:04Z</time>
      </trkpt>
      <trkpt lat="45.51177" lon="5.92628">
        <ele>841.3</ele>
        <time>2014-04-04T14:10:06Z</time>
      </trkpt>
    </trkseg>
  </trk>
</gpx>